<?xml version="1.0" encoding="UTF-8" standalone="no" ?>
<gpx xmlns="http://www.topografix.com/GPX/1/1" xmlns:xsi="http://www.w3.org/2001/XMLSchema-instance" xsi:schemaLocation="http://www.topografix.com/GPX/1/1 http://www.topografix.com/GPX/1/1/gpx.xsd" version="1.1" creator="VisuGPX - https://www.visugpx.com">
  <metadata>
    <name>Quad 22-08-12</name>
    <desc><![CDATA[Rando Quad Fragnes , Chagny, sassenay, Chamilly, Mercurey, Fontaines, Fragnes]]></desc>
  </metadata>
  <trk>
    <name><![CDATA[Tracé 002]]></name>
    <trkseg>
      <trkpt lat="46.83582" lon="4.84615">
        <ele>222</ele>
        <time>2012-08-22T11:46:37Z</time>
      </trkpt>
      <trkpt lat="46.83582" lon="4.84615">
        <ele>222</ele>
        <time>2012-08-22T11:46:37Z</time>
      </trkpt>
      <trkpt lat="46.83582" lon="4.84615">
        <ele>222</ele>
        <time>2012-08-22T11:46:52Z</time>
      </trkpt>
      <trkpt lat="46.83576" lon="4.84611">
        <ele>223</ele>
        <time>2012-08-22T11:46:53Z</time>
      </trkpt>
      <trkpt lat="46.8357" lon="4.84612">
        <ele>232</ele>
        <time>2012-08-22T11:46:55Z</time>
      </trkpt>
      <trkpt lat="46.83563" lon="4.84614">
        <ele>231</ele>
        <time>2012-08-22T11:46:57Z</time>
      </trkpt>
      <trkpt lat="46.83556" lon="4.84617">
        <ele>231</ele>
        <time>2012-08-22T11:46:59Z</time>
      </trkpt>
      <trkpt lat="46.8355" lon="4.84618">
        <ele>231</ele>
        <time>2012-08-22T11:47:01Z</time>
      </trkpt>
      <trkpt lat="46.83547" lon="4.84613">
        <ele>235</ele>
        <time>2012-08-22T11:47:16Z</time>
      </trkpt>
      <trkpt lat="46.83542" lon="4.84608">
        <ele>228</ele>
        <time>2012-08-22T11:47:48Z</time>
      </trkpt>
      <trkpt lat="46.8354" lon="4.84599">
        <ele>229</ele>
        <time>2012-08-22T11:47:50Z</time>
      </trkpt>
      <trkpt lat="46.83539" lon="4.84587">
        <ele>229</ele>
        <time>2012-08-22T11:47:52Z</time>
      </trkpt>
      <trkpt lat="46.83538" lon="4.8458">
        <ele>224</ele>
        <time>2012-08-22T11:47:54Z</time>
      </trkpt>
      <trkpt lat="46.83532" lon="4.84578">
        <ele>226</ele>
        <time>2012-08-22T11:47:56Z</time>
      </trkpt>
      <trkpt lat="46.83527" lon="4.84579">
        <ele>229</ele>
        <time>2012-08-22T11:47:57Z</time>
      </trkpt>
      <trkpt lat="46.83521" lon="4.84581">
        <ele>229</ele>
        <time>2012-08-22T11:47:58Z</time>
      </trkpt>
      <trkpt lat="46.83514" lon="4.84583">
        <ele>231</ele>
        <time>2012-08-22T11:47:59Z</time>
      </trkpt>
      <trkpt lat="46.83507" lon="4.84585">
        <ele>230</ele>
        <time>2012-08-22T11:48:00Z</time>
      </trkpt>
      <trkpt lat="46.83499" lon="4.84586">
        <ele>232</ele>
        <time>2012-08-22T11:48:01Z</time>
      </trkpt>
      <trkpt lat="46.83489" lon="4.84588">
        <ele>225</ele>
        <time>2012-08-22T11:48:02Z</time>
      </trkpt>
      <trkpt lat="46.83478" lon="4.8459">
        <ele>225</ele>
        <time>2012-08-22T11:48:03Z</time>
      </trkpt>
      <trkpt lat="46.83467" lon="4.8459">
        <ele>226</ele>
        <time>2012-08-22T11:48:04Z</time>
      </trkpt>
      <trkpt lat="46.83457" lon="4.84591">
        <ele>227</ele>
        <time>2012-08-22T11:48:05Z</time>
      </trkpt>
      <trkpt lat="46.83449" lon="4.84591">
        <ele>227</ele>
        <time>2012-08-22T11:48:06Z</time>
      </trkpt>
      <trkpt lat="46.83443" lon="4.8459">
        <ele>227</ele>
        <time>2012-08-22T11:48:07Z</time>
      </trkpt>
      <trkpt lat="46.83438" lon="4.84589">
        <ele>226</ele>
        <time>2012-08-22T11:48:08Z</time>
      </trkpt>
      <trkpt lat="46.83433" lon="4.84586">
        <ele>226</ele>
        <time>2012-08-22T11:48:09Z</time>
      </trkpt>
      <trkpt lat="46.83428" lon="4.84581">
        <ele>227</ele>
        <time>2012-08-22T11:48:10Z</time>
      </trkpt>
      <trkpt lat="46.83423" lon="4.84576">
        <ele>226</ele>
        <time>2012-08-22T11:48:11Z</time>
      </trkpt>
      <trkpt lat="46.83421" lon="4.84567">
        <ele>223</ele>
        <time>2012-08-22T11:48:12Z</time>
      </trkpt>
      <trkpt lat="46.83419" lon="4.84555">
        <ele>225</ele>
        <time>2012-08-22T11:48:13Z</time>
      </trkpt>
      <trkpt lat="46.83417" lon="4.84541">
        <ele>225</ele>
        <time>2012-08-22T11:48:14Z</time>
      </trkpt>
      <trkpt lat="46.83416" lon="4.84528">
        <ele>223</ele>
        <time>2012-08-22T11:48:15Z</time>
      </trkpt>
      <trkpt lat="46.83415" lon="4.84513">
        <ele>225</ele>
        <time>2012-08-22T11:48:16Z</time>
      </trkpt>
      <trkpt lat="46.83413" lon="4.84497">
        <ele>226</ele>
        <time>2012-08-22T11:48:17Z</time>
      </trkpt>
      <trkpt lat="46.83413" lon="4.8448">
        <ele>228</ele>
        <time>2012-08-22T11:48:18Z</time>
      </trkpt>
      <trkpt lat="46.83413" lon="4.84463">
        <ele>228</ele>
        <time>2012-08-22T11:48:19Z</time>
      </trkpt>
      <trkpt lat="46.83414" lon="4.84446">
        <ele>227</ele>
        <time>2012-08-22T11:48:20Z</time>
      </trkpt>
      <trkpt lat="46.83415" lon="4.84429">
        <ele>226</ele>
        <time>2012-08-22T11:48:21Z</time>
      </trkpt>
      <trkpt lat="46.83417" lon="4.84412">
        <ele>226</ele>
        <time>2012-08-22T11:48:22Z</time>
      </trkpt>
      <trkpt lat="46.83419" lon="4.84396">
        <ele>226</ele>
        <time>2012-08-22T11:48:23Z</time>
      </trkpt>
      <trkpt lat="46.83422" lon="4.84379">
        <ele>224</ele>
        <time>2012-08-22T11:48:24Z</time>
      </trkpt>
      <trkpt lat="46.83425" lon="4.84364">
        <ele>221</ele>
        <time>2012-08-22T11:48:25Z</time>
      </trkpt>
      <trkpt lat="46.83427" lon="4.84349">
        <ele>219</ele>
        <time>2012-08-22T11:48:26Z</time>
      </trkpt>
      <trkpt lat="46.8343" lon="4.84337">
        <ele>220</ele>
        <time>2012-08-22T11:48:27Z</time>
      </trkpt>
      <trkpt lat="46.8343" lon="4.84324">
        <ele>219</ele>
        <time>2012-08-22T11:48:28Z</time>
      </trkpt>
      <trkpt lat="46.83431" lon="4.84313">
        <ele>218</ele>
        <time>2012-08-22T11:48:29Z</time>
      </trkpt>
      <trkpt lat="46.83434" lon="4.84303">
        <ele>217</ele>
        <time>2012-08-22T11:48:30Z</time>
      </trkpt>
      <trkpt lat="46.83438" lon="4.84295">
        <ele>219</ele>
        <time>2012-08-22T11:48:31Z</time>
      </trkpt>
      <trkpt lat="46.83442" lon="4.84286">
        <ele>218</ele>
        <time>2012-08-22T11:48:32Z</time>
      </trkpt>
      <trkpt lat="46.83447" lon="4.84277">
        <ele>217</ele>
        <time>2012-08-22T11:48:33Z</time>
      </trkpt>
      <trkpt lat="46.83451" lon="4.84266">
        <ele>218</ele>
        <time>2012-08-22T11:48:34Z</time>
      </trkpt>
      <trkpt lat="46.83455" lon="4.84254">
        <ele>218</ele>
        <time>2012-08-22T11:48:35Z</time>
      </trkpt>
      <trkpt lat="46.83459" lon="4.84242">
        <ele>218</ele>
        <time>2012-08-22T11:48:36Z</time>
      </trkpt>
      <trkpt lat="46.83464" lon="4.84229">
        <ele>218</ele>
        <time>2012-08-22T11:48:37Z</time>
      </trkpt>
      <trkpt lat="46.83468" lon="4.84216">
        <ele>218</ele>
        <time>2012-08-22T11:48:38Z</time>
      </trkpt>
      <trkpt lat="46.83473" lon="4.84202">
        <ele>218</ele>
        <time>2012-08-22T11:48:39Z</time>
      </trkpt>
      <trkpt lat="46.83477" lon="4.84187">
        <ele>218</ele>
        <time>2012-08-22T11:48:40Z</time>
      </trkpt>
      <trkpt lat="46.83482" lon="4.84171">
        <ele>219</ele>
        <time>2012-08-22T11:48:41Z</time>
      </trkpt>
      <trkpt lat="46.83487" lon="4.84156">
        <ele>218</ele>
        <time>2012-08-22T11:48:42Z</time>
      </trkpt>
      <trkpt lat="46.83491" lon="4.84141">
        <ele>218</ele>
        <time>2012-08-22T11:48:43Z</time>
      </trkpt>
      <trkpt lat="46.83496" lon="4.84126">
        <ele>217</ele>
        <time>2012-08-22T11:48:44Z</time>
      </trkpt>
      <trkpt lat="46.83501" lon="4.84109">
        <ele>217</ele>
        <time>2012-08-22T11:48:45Z</time>
      </trkpt>
      <trkpt lat="46.83506" lon="4.84093">
        <ele>218</ele>
        <time>2012-08-22T11:48:46Z</time>
      </trkpt>
      <trkpt lat="46.83512" lon="4.84075">
        <ele>219</ele>
        <time>2012-08-22T11:48:47Z</time>
      </trkpt>
      <trkpt lat="46.83518" lon="4.84057">
        <ele>220</ele>
        <time>2012-08-22T11:48:48Z</time>
      </trkpt>
      <trkpt lat="46.83524" lon="4.84039">
        <ele>219</ele>
        <time>2012-08-22T11:48:49Z</time>
      </trkpt>
      <trkpt lat="46.8353" lon="4.84021">
        <ele>219</ele>
        <time>2012-08-22T11:48:50Z</time>
      </trkpt>
      <trkpt lat="46.83536" lon="4.84001">
        <ele>217</ele>
        <time>2012-08-22T11:48:51Z</time>
      </trkpt>
      <trkpt lat="46.83542" lon="4.83982">
        <ele>216</ele>
        <time>2012-08-22T11:48:52Z</time>
      </trkpt>
      <trkpt lat="46.83548" lon="4.83962">
        <ele>218</ele>
        <time>2012-08-22T11:48:53Z</time>
      </trkpt>
      <trkpt lat="46.83554" lon="4.83942">
        <ele>217</ele>
        <time>2012-08-22T11:48:54Z</time>
      </trkpt>
      <trkpt lat="46.8356" lon="4.83923">
        <ele>217</ele>
        <time>2012-08-22T11:48:55Z</time>
      </trkpt>
      <trkpt lat="46.83567" lon="4.83905">
        <ele>218</ele>
        <time>2012-08-22T11:48:56Z</time>
      </trkpt>
      <trkpt lat="46.83574" lon="4.83886">
        <ele>220</ele>
        <time>2012-08-22T11:48:57Z</time>
      </trkpt>
      <trkpt lat="46.83581" lon="4.83868">
        <ele>220</ele>
        <time>2012-08-22T11:48:58Z</time>
      </trkpt>
      <trkpt lat="46.83588" lon="4.83849">
        <ele>221</ele>
        <time>2012-08-22T11:48:59Z</time>
      </trkpt>
      <trkpt lat="46.83596" lon="4.83831">
        <ele>219</ele>
        <time>2012-08-22T11:49:00Z</time>
      </trkpt>
      <trkpt lat="46.83604" lon="4.83812">
        <ele>219</ele>
        <time>2012-08-22T11:49:01Z</time>
      </trkpt>
      <trkpt lat="46.83612" lon="4.83794">
        <ele>220</ele>
        <time>2012-08-22T11:49:02Z</time>
      </trkpt>
      <trkpt lat="46.8362" lon="4.83779">
        <ele>221</ele>
        <time>2012-08-22T11:49:03Z</time>
      </trkpt>
      <trkpt lat="46.83627" lon="4.83765">
        <ele>221</ele>
        <time>2012-08-22T11:49:04Z</time>
      </trkpt>
      <trkpt lat="46.83635" lon="4.83753">
        <ele>221</ele>
        <time>2012-08-22T11:49:05Z</time>
      </trkpt>
      <trkpt lat="46.83644" lon="4.83745">
        <ele>221</ele>
        <time>2012-08-22T11:49:06Z</time>
      </trkpt>
      <trkpt lat="46.83654" lon="4.83739">
        <ele>221</ele>
        <time>2012-08-22T11:49:07Z</time>
      </trkpt>
      <trkpt lat="46.83665" lon="4.83734">
        <ele>223</ele>
        <time>2012-08-22T11:49:08Z</time>
      </trkpt>
      <trkpt lat="46.83674" lon="4.83735">
        <ele>223</ele>
        <time>2012-08-22T11:49:09Z</time>
      </trkpt>
      <trkpt lat="46.83683" lon="4.83735">
        <ele>224</ele>
        <time>2012-08-22T11:49:10Z</time>
      </trkpt>
      <trkpt lat="46.83693" lon="4.83734">
        <ele>225</ele>
        <time>2012-08-22T11:49:11Z</time>
      </trkpt>
      <trkpt lat="46.83701" lon="4.83732">
        <ele>225</ele>
        <time>2012-08-22T11:49:12Z</time>
      </trkpt>
      <trkpt lat="46.8371" lon="4.83729">
        <ele>224</ele>
        <time>2012-08-22T11:49:13Z</time>
      </trkpt>
      <trkpt lat="46.83719" lon="4.83725">
        <ele>228</ele>
        <time>2012-08-22T11:49:14Z</time>
      </trkpt>
      <trkpt lat="46.83728" lon="4.83717">
        <ele>229</ele>
        <time>2012-08-22T11:49:15Z</time>
      </trkpt>
      <trkpt lat="46.83737" lon="4.83708">
        <ele>235</ele>
        <time>2012-08-22T11:49:16Z</time>
      </trkpt>
      <trkpt lat="46.83748" lon="4.83699">
        <ele>235</ele>
        <time>2012-08-22T11:49:17Z</time>
      </trkpt>
      <trkpt lat="46.83759" lon="4.83688">
        <ele>236</ele>
        <time>2012-08-22T11:49:18Z</time>
      </trkpt>
      <trkpt lat="46.83771" lon="4.83677">
        <ele>233</ele>
        <time>2012-08-22T11:49:19Z</time>
      </trkpt>
      <trkpt lat="46.83783" lon="4.83666">
        <ele>233</ele>
        <time>2012-08-22T11:49:20Z</time>
      </trkpt>
      <trkpt lat="46.83796" lon="4.83654">
        <ele>233</ele>
        <time>2012-08-22T11:49:21Z</time>
      </trkpt>
      <trkpt lat="46.83808" lon="4.83642">
        <ele>230</ele>
        <time>2012-08-22T11:49:22Z</time>
      </trkpt>
      <trkpt lat="46.83821" lon="4.8363">
        <ele>233</ele>
        <time>2012-08-22T11:49:23Z</time>
      </trkpt>
      <trkpt lat="46.83834" lon="4.83619">
        <ele>232</ele>
        <time>2012-08-22T11:49:24Z</time>
      </trkpt>
      <trkpt lat="46.83847" lon="4.83607">
        <ele>231</ele>
        <time>2012-08-22T11:49:25Z</time>
      </trkpt>
      <trkpt lat="46.83859" lon="4.83595">
        <ele>230</ele>
        <time>2012-08-22T11:49:26Z</time>
      </trkpt>
      <trkpt lat="46.83872" lon="4.83582">
        <ele>229</ele>
        <time>2012-08-22T11:49:27Z</time>
      </trkpt>
      <trkpt lat="46.83884" lon="4.83568">
        <ele>231</ele>
        <time>2012-08-22T11:49:28Z</time>
      </trkpt>
      <trkpt lat="46.83897" lon="4.83553">
        <ele>232</ele>
        <time>2012-08-22T11:49:29Z</time>
      </trkpt>
      <trkpt lat="46.8391" lon="4.83536">
        <ele>233</ele>
        <time>2012-08-22T11:49:30Z</time>
      </trkpt>
      <trkpt lat="46.83923" lon="4.83519">
        <ele>232</ele>
        <time>2012-08-22T11:49:31Z</time>
      </trkpt>
      <trkpt lat="46.83936" lon="4.83502">
        <ele>231</ele>
        <time>2012-08-22T11:49:32Z</time>
      </trkpt>
      <trkpt lat="46.83949" lon="4.83483">
        <ele>233</ele>
        <time>2012-08-22T11:49:33Z</time>
      </trkpt>
      <trkpt lat="46.83962" lon="4.83464">
        <ele>236</ele>
        <time>2012-08-22T11:49:34Z</time>
      </trkpt>
      <trkpt lat="46.83974" lon="4.83446">
        <ele>239</ele>
        <time>2012-08-22T11:49:35Z</time>
      </trkpt>
      <trkpt lat="46.83985" lon="4.8343">
        <ele>237</ele>
        <time>2012-08-22T11:49:36Z</time>
      </trkpt>
      <trkpt lat="46.83996" lon="4.83413">
        <ele>238</ele>
        <time>2012-08-22T11:49:37Z</time>
      </trkpt>
      <trkpt lat="46.84007" lon="4.83397">
        <ele>239</ele>
        <time>2012-08-22T11:49:38Z</time>
      </trkpt>
      <trkpt lat="46.84017" lon="4.8338">
        <ele>238</ele>
        <time>2012-08-22T11:49:39Z</time>
      </trkpt>
      <trkpt lat="46.84027" lon="4.83362">
        <ele>233</ele>
        <time>2012-08-22T11:49:40Z</time>
      </trkpt>
      <trkpt lat="46.84036" lon="4.83344">
        <ele>234</ele>
        <time>2012-08-22T11:49:41Z</time>
      </trkpt>
      <trkpt lat="46.84045" lon="4.83326">
        <ele>234</ele>
        <time>2012-08-22T11:49:42Z</time>
      </trkpt>
      <trkpt lat="46.84054" lon="4.83306">
        <ele>234</ele>
        <time>2012-08-22T11:49:43Z</time>
      </trkpt>
      <trkpt lat="46.84062" lon="4.83285">
        <ele>236</ele>
        <time>2012-08-22T11:49:44Z</time>
      </trkpt>
      <trkpt lat="46.8407" lon="4.83263">
        <ele>238</ele>
        <time>2012-08-22T11:49:45Z</time>
      </trkpt>
      <trkpt lat="46.84078" lon="4.83241">
        <ele>239</ele>
        <time>2012-08-22T11:49:46Z</time>
      </trkpt>
      <trkpt lat="46.84085" lon="4.83218">
        <ele>238</ele>
        <time>2012-08-22T11:49:47Z</time>
      </trkpt>
      <trkpt lat="46.84091" lon="4.83196">
        <ele>237</ele>
        <time>2012-08-22T11:49:48Z</time>
      </trkpt>
      <trkpt lat="46.84097" lon="4.83173">
        <ele>238</ele>
        <time>2012-08-22T11:49:49Z</time>
      </trkpt>
      <trkpt lat="46.84102" lon="4.83151">
        <ele>237</ele>
        <time>2012-08-22T11:49:50Z</time>
      </trkpt>
      <trkpt lat="46.84106" lon="4.83131">
        <ele>237</ele>
        <time>2012-08-22T11:49:51Z</time>
      </trkpt>
      <trkpt lat="46.8411" lon="4.8311">
        <ele>237</ele>
        <time>2012-08-22T11:49:52Z</time>
      </trkpt>
      <trkpt lat="46.84115" lon="4.8309">
        <ele>235</ele>
        <time>2012-08-22T11:49:53Z</time>
      </trkpt>
      <trkpt lat="46.84119" lon="4.83069">
        <ele>235</ele>
        <time>2012-08-22T11:49:54Z</time>
      </trkpt>
      <trkpt lat="46.84125" lon="4.8305">
        <ele>236</ele>
        <time>2012-08-22T11:49:55Z</time>
      </trkpt>
      <trkpt lat="46.84134" lon="4.83034">
        <ele>238</ele>
        <time>2012-08-22T11:49:56Z</time>
      </trkpt>
      <trkpt lat="46.84143" lon="4.83021">
        <ele>238</ele>
        <time>2012-08-22T11:49:57Z</time>
      </trkpt>
      <trkpt lat="46.84154" lon="4.83011">
        <ele>237</ele>
        <time>2012-08-22T11:49:58Z</time>
      </trkpt>
      <trkpt lat="46.84166" lon="4.83001">
        <ele>237</ele>
        <time>2012-08-22T11:49:59Z</time>
      </trkpt>
      <trkpt lat="46.84181" lon="4.82996">
        <ele>237</ele>
        <time>2012-08-22T11:50:00Z</time>
      </trkpt>
      <trkpt lat="46.84197" lon="4.8299">
        <ele>238</ele>
        <time>2012-08-22T11:50:01Z</time>
      </trkpt>
      <trkpt lat="46.84214" lon="4.82986">
        <ele>238</ele>
        <time>2012-08-22T11:50:02Z</time>
      </trkpt>
      <trkpt lat="46.8423" lon="4.82983">
        <ele>236</ele>
        <time>2012-08-22T11:50:03Z</time>
      </trkpt>
      <trkpt lat="46.84245" lon="4.8298">
        <ele>238</ele>
        <time>2012-08-22T11:50:04Z</time>
      </trkpt>
      <trkpt lat="46.84259" lon="4.82978">
        <ele>237</ele>
        <time>2012-08-22T11:50:05Z</time>
      </trkpt>
      <trkpt lat="46.84272" lon="4.82976">
        <ele>236</ele>
        <time>2012-08-22T11:50:06Z</time>
      </trkpt>
      <trkpt lat="46.84286" lon="4.82974">
        <ele>238</ele>
        <time>2012-08-22T11:50:07Z</time>
      </trkpt>
      <trkpt lat="46.84298" lon="4.82972">
        <ele>240</ele>
        <time>2012-08-22T11:50:08Z</time>
      </trkpt>
      <trkpt lat="46.84311" lon="4.8297">
        <ele>240</ele>
        <time>2012-08-22T11:50:09Z</time>
      </trkpt>
      <trkpt lat="46.84321" lon="4.82968">
        <ele>240</ele>
        <time>2012-08-22T11:50:10Z</time>
      </trkpt>
      <trkpt lat="46.8433" lon="4.82967">
        <ele>240</ele>
        <time>2012-08-22T11:50:11Z</time>
      </trkpt>
      <trkpt lat="46.84336" lon="4.82966">
        <ele>243</ele>
        <time>2012-08-22T11:50:12Z</time>
      </trkpt>
      <trkpt lat="46.84341" lon="4.82964">
        <ele>244</ele>
        <time>2012-08-22T11:50:14Z</time>
      </trkpt>
      <trkpt lat="46.84346" lon="4.82963">
        <ele>241</ele>
        <time>2012-08-22T11:50:16Z</time>
      </trkpt>
      <trkpt lat="46.84356" lon="4.8296">
        <ele>241</ele>
        <time>2012-08-22T11:50:18Z</time>
      </trkpt>
      <trkpt lat="46.84363" lon="4.82954">
        <ele>242</ele>
        <time>2012-08-22T11:50:19Z</time>
      </trkpt>
      <trkpt lat="46.84371" lon="4.82949">
        <ele>240</ele>
        <time>2012-08-22T11:50:20Z</time>
      </trkpt>
      <trkpt lat="46.8438" lon="4.82943">
        <ele>243</ele>
        <time>2012-08-22T11:50:21Z</time>
      </trkpt>
      <trkpt lat="46.8439" lon="4.82937">
        <ele>241</ele>
        <time>2012-08-22T11:50:22Z</time>
      </trkpt>
      <trkpt lat="46.844" lon="4.8293">
        <ele>242</ele>
        <time>2012-08-22T11:50:23Z</time>
      </trkpt>
      <trkpt lat="46.8441" lon="4.82922">
        <ele>238</ele>
        <time>2012-08-22T11:50:24Z</time>
      </trkpt>
      <trkpt lat="46.84421" lon="4.82912">
        <ele>235</ele>
        <time>2012-08-22T11:50:25Z</time>
      </trkpt>
      <trkpt lat="46.84433" lon="4.82903">
        <ele>237</ele>
        <time>2012-08-22T11:50:26Z</time>
      </trkpt>
      <trkpt lat="46.84444" lon="4.82893">
        <ele>234</ele>
        <time>2012-08-22T11:50:27Z</time>
      </trkpt>
      <trkpt lat="46.84454" lon="4.82886">
        <ele>235</ele>
        <time>2012-08-22T11:50:28Z</time>
      </trkpt>
      <trkpt lat="46.84464" lon="4.82879">
        <ele>238</ele>
        <time>2012-08-22T11:50:29Z</time>
      </trkpt>
      <trkpt lat="46.84473" lon="4.82873">
        <ele>237</ele>
        <time>2012-08-22T11:50:30Z</time>
      </trkpt>
      <trkpt lat="46.84481" lon="4.82868">
        <ele>235</ele>
        <time>2012-08-22T11:50:31Z</time>
      </trkpt>
      <trkpt lat="46.84488" lon="4.82864">
        <ele>235</ele>
        <time>2012-08-22T11:50:32Z</time>
      </trkpt>
      <trkpt lat="46.84495" lon="4.82859">
        <ele>235</ele>
        <time>2012-08-22T11:50:33Z</time>
      </trkpt>
      <trkpt lat="46.84503" lon="4.82855">
        <ele>234</ele>
        <time>2012-08-22T11:50:34Z</time>
      </trkpt>
      <trkpt lat="46.84512" lon="4.8285">
        <ele>234</ele>
        <time>2012-08-22T11:50:35Z</time>
      </trkpt>
      <trkpt lat="46.84521" lon="4.82846">
        <ele>232</ele>
        <time>2012-08-22T11:50:36Z</time>
      </trkpt>
      <trkpt lat="46.84532" lon="4.8284">
        <ele>234</ele>
        <time>2012-08-22T11:50:37Z</time>
      </trkpt>
      <trkpt lat="46.84544" lon="4.82834">
        <ele>234</ele>
        <time>2012-08-22T11:50:38Z</time>
      </trkpt>
      <trkpt lat="46.84555" lon="4.82826">
        <ele>235</ele>
        <time>2012-08-22T11:50:39Z</time>
      </trkpt>
      <trkpt lat="46.84565" lon="4.82818">
        <ele>236</ele>
        <time>2012-08-22T11:50:40Z</time>
      </trkpt>
      <trkpt lat="46.84573" lon="4.82807">
        <ele>237</ele>
        <time>2012-08-22T11:50:41Z</time>
      </trkpt>
      <trkpt lat="46.84581" lon="4.82794">
        <ele>236</ele>
        <time>2012-08-22T11:50:42Z</time>
      </trkpt>
      <trkpt lat="46.84588" lon="4.8278">
        <ele>235</ele>
        <time>2012-08-22T11:50:43Z</time>
      </trkpt>
      <trkpt lat="46.84596" lon="4.82764">
        <ele>235</ele>
        <time>2012-08-22T11:50:44Z</time>
      </trkpt>
      <trkpt lat="46.84603" lon="4.82748">
        <ele>236</ele>
        <time>2012-08-22T11:50:45Z</time>
      </trkpt>
      <trkpt lat="46.84609" lon="4.82731">
        <ele>238</ele>
        <time>2012-08-22T11:50:46Z</time>
      </trkpt>
      <trkpt lat="46.84616" lon="4.82712">
        <ele>240</ele>
        <time>2012-08-22T11:50:47Z</time>
      </trkpt>
      <trkpt lat="46.84624" lon="4.82693">
        <ele>238</ele>
        <time>2012-08-22T11:50:48Z</time>
      </trkpt>
      <trkpt lat="46.84631" lon="4.82672">
        <ele>236</ele>
        <time>2012-08-22T11:50:49Z</time>
      </trkpt>
      <trkpt lat="46.8464" lon="4.82652">
        <ele>235</ele>
        <time>2012-08-22T11:50:50Z</time>
      </trkpt>
      <trkpt lat="46.84648" lon="4.82634">
        <ele>235</ele>
        <time>2012-08-22T11:50:51Z</time>
      </trkpt>
      <trkpt lat="46.84657" lon="4.82615">
        <ele>234</ele>
        <time>2012-08-22T11:50:52Z</time>
      </trkpt>
      <trkpt lat="46.84667" lon="4.82595">
        <ele>233</ele>
        <time>2012-08-22T11:50:53Z</time>
      </trkpt>
      <trkpt lat="46.84676" lon="4.82576">
        <ele>233</ele>
        <time>2012-08-22T11:50:54Z</time>
      </trkpt>
      <trkpt lat="46.84686" lon="4.82558">
        <ele>229</ele>
        <time>2012-08-22T11:50:55Z</time>
      </trkpt>
      <trkpt lat="46.84696" lon="4.82538">
        <ele>229</ele>
        <time>2012-08-22T11:50:56Z</time>
      </trkpt>
      <trkpt lat="46.84706" lon="4.82519">
        <ele>229</ele>
        <time>2012-08-22T11:50:57Z</time>
      </trkpt>
      <trkpt lat="46.84716" lon="4.825">
        <ele>230</ele>
        <time>2012-08-22T11:50:58Z</time>
      </trkpt>
      <trkpt lat="46.84726" lon="4.8248">
        <ele>231</ele>
        <time>2012-08-22T11:50:59Z</time>
      </trkpt>
      <trkpt lat="46.84735" lon="4.82461">
        <ele>232</ele>
        <time>2012-08-22T11:51:00Z</time>
      </trkpt>
      <trkpt lat="46.84744" lon="4.8244">
        <ele>232</ele>
        <time>2012-08-22T11:51:01Z</time>
      </trkpt>
      <trkpt lat="46.84753" lon="4.82418">
        <ele>233</ele>
        <time>2012-08-22T11:51:02Z</time>
      </trkpt>
      <trkpt lat="46.84761" lon="4.82397">
        <ele>232</ele>
        <time>2012-08-22T11:51:03Z</time>
      </trkpt>
      <trkpt lat="46.84768" lon="4.82375">
        <ele>231</ele>
        <time>2012-08-22T11:51:04Z</time>
      </trkpt>
      <trkpt lat="46.84773" lon="4.82352">
        <ele>232</ele>
        <time>2012-08-22T11:51:05Z</time>
      </trkpt>
      <trkpt lat="46.84778" lon="4.82328">
        <ele>233</ele>
        <time>2012-08-22T11:51:06Z</time>
      </trkpt>
      <trkpt lat="46.84782" lon="4.82303">
        <ele>233</ele>
        <time>2012-08-22T11:51:07Z</time>
      </trkpt>
      <trkpt lat="46.84786" lon="4.82278">
        <ele>234</ele>
        <time>2012-08-22T11:51:08Z</time>
      </trkpt>
      <trkpt lat="46.84789" lon="4.82252">
        <ele>235</ele>
        <time>2012-08-22T11:51:09Z</time>
      </trkpt>
      <trkpt lat="46.84793" lon="4.82225">
        <ele>234</ele>
        <time>2012-08-22T11:51:10Z</time>
      </trkpt>
      <trkpt lat="46.84797" lon="4.82199">
        <ele>236</ele>
        <time>2012-08-22T11:51:11Z</time>
      </trkpt>
      <trkpt lat="46.848" lon="4.82172">
        <ele>234</ele>
        <time>2012-08-22T11:51:12Z</time>
      </trkpt>
      <trkpt lat="46.84803" lon="4.82146">
        <ele>232</ele>
        <time>2012-08-22T11:51:13Z</time>
      </trkpt>
      <trkpt lat="46.84806" lon="4.82119">
        <ele>233</ele>
        <time>2012-08-22T11:51:14Z</time>
      </trkpt>
      <trkpt lat="46.84809" lon="4.82092">
        <ele>232</ele>
        <time>2012-08-22T11:51:15Z</time>
      </trkpt>
      <trkpt lat="46.84812" lon="4.82065">
        <ele>233</ele>
        <time>2012-08-22T11:51:16Z</time>
      </trkpt>
      <trkpt lat="46.84815" lon="4.82038">
        <ele>233</ele>
        <time>2012-08-22T11:51:17Z</time>
      </trkpt>
      <trkpt lat="46.84819" lon="4.82011">
        <ele>233</ele>
        <time>2012-08-22T11:51:18Z</time>
      </trkpt>
      <trkpt lat="46.84823" lon="4.81984">
        <ele>234</ele>
        <time>2012-08-22T11:51:19Z</time>
      </trkpt>
      <trkpt lat="46.84826" lon="4.81957">
        <ele>231</ele>
        <time>2012-08-22T11:51:20Z</time>
      </trkpt>
      <trkpt lat="46.8483" lon="4.8193">
        <ele>229</ele>
        <time>2012-08-22T11:51:21Z</time>
      </trkpt>
      <trkpt lat="46.84834" lon="4.81903">
        <ele>227</ele>
        <time>2012-08-22T11:51:22Z</time>
      </trkpt>
      <trkpt lat="46.84838" lon="4.81876">
        <ele>226</ele>
        <time>2012-08-22T11:51:23Z</time>
      </trkpt>
      <trkpt lat="46.84842" lon="4.81849">
        <ele>223</ele>
        <time>2012-08-22T11:51:24Z</time>
      </trkpt>
      <trkpt lat="46.84846" lon="4.81821">
        <ele>225</ele>
        <time>2012-08-22T11:51:25Z</time>
      </trkpt>
      <trkpt lat="46.8485" lon="4.81793">
        <ele>227</ele>
        <time>2012-08-22T11:51:26Z</time>
      </trkpt>
      <trkpt lat="46.84855" lon="4.81765">
        <ele>229</ele>
        <time>2012-08-22T11:51:27Z</time>
      </trkpt>
      <trkpt lat="46.84859" lon="4.81736">
        <ele>232</ele>
        <time>2012-08-22T11:51:28Z</time>
      </trkpt>
      <trkpt lat="46.84864" lon="4.81708">
        <ele>232</ele>
        <time>2012-08-22T11:51:29Z</time>
      </trkpt>
      <trkpt lat="46.84868" lon="4.81679">
        <ele>234</ele>
        <time>2012-08-22T11:51:30Z</time>
      </trkpt>
      <trkpt lat="46.84873" lon="4.81651">
        <ele>235</ele>
        <time>2012-08-22T11:51:31Z</time>
      </trkpt>
      <trkpt lat="46.84877" lon="4.81623">
        <ele>234</ele>
        <time>2012-08-22T11:51:32Z</time>
      </trkpt>
      <trkpt lat="46.84882" lon="4.81596">
        <ele>232</ele>
        <time>2012-08-22T11:51:33Z</time>
      </trkpt>
      <trkpt lat="46.84886" lon="4.81568">
        <ele>230</ele>
        <time>2012-08-22T11:51:34Z</time>
      </trkpt>
      <trkpt lat="46.84891" lon="4.8154">
        <ele>230</ele>
        <time>2012-08-22T11:51:35Z</time>
      </trkpt>
      <trkpt lat="46.84895" lon="4.81512">
        <ele>230</ele>
        <time>2012-08-22T11:51:36Z</time>
      </trkpt>
      <trkpt lat="46.849" lon="4.81484">
        <ele>230</ele>
        <time>2012-08-22T11:51:37Z</time>
      </trkpt>
      <trkpt lat="46.84904" lon="4.81456">
        <ele>231</ele>
        <time>2012-08-22T11:51:38Z</time>
      </trkpt>
      <trkpt lat="46.84908" lon="4.81428">
        <ele>232</ele>
        <time>2012-08-22T11:51:39Z</time>
      </trkpt>
      <trkpt lat="46.84912" lon="4.81401">
        <ele>232</ele>
        <time>2012-08-22T11:51:40Z</time>
      </trkpt>
      <trkpt lat="46.84916" lon="4.81374">
        <ele>233</ele>
        <time>2012-08-22T11:51:41Z</time>
      </trkpt>
      <trkpt lat="46.84921" lon="4.81348">
        <ele>233</ele>
        <time>2012-08-22T11:51:42Z</time>
      </trkpt>
      <trkpt lat="46.84925" lon="4.81324">
        <ele>235</ele>
        <time>2012-08-22T11:51:43Z</time>
      </trkpt>
      <trkpt lat="46.84931" lon="4.813">
        <ele>235</ele>
        <time>2012-08-22T11:51:44Z</time>
      </trkpt>
      <trkpt lat="46.84936" lon="4.81278">
        <ele>236</ele>
        <time>2012-08-22T11:51:45Z</time>
      </trkpt>
      <trkpt lat="46.84942" lon="4.81256">
        <ele>237</ele>
        <time>2012-08-22T11:51:46Z</time>
      </trkpt>
      <trkpt lat="46.84948" lon="4.81236">
        <ele>238</ele>
        <time>2012-08-22T11:51:47Z</time>
      </trkpt>
      <trkpt lat="46.84953" lon="4.81216">
        <ele>238</ele>
        <time>2012-08-22T11:51:48Z</time>
      </trkpt>
      <trkpt lat="46.84958" lon="4.81199">
        <ele>238</ele>
        <time>2012-08-22T11:51:49Z</time>
      </trkpt>
      <trkpt lat="46.84962" lon="4.81182">
        <ele>236</ele>
        <time>2012-08-22T11:51:50Z</time>
      </trkpt>
      <trkpt lat="46.84966" lon="4.81164">
        <ele>235</ele>
        <time>2012-08-22T11:51:51Z</time>
      </trkpt>
      <trkpt lat="46.8497" lon="4.81146">
        <ele>233</ele>
        <time>2012-08-22T11:51:52Z</time>
      </trkpt>
      <trkpt lat="46.84972" lon="4.81127">
        <ele>233</ele>
        <time>2012-08-22T11:51:53Z</time>
      </trkpt>
      <trkpt lat="46.84973" lon="4.81111">
        <ele>232</ele>
        <time>2012-08-22T11:51:54Z</time>
      </trkpt>
      <trkpt lat="46.84974" lon="4.81097">
        <ele>233</ele>
        <time>2012-08-22T11:51:55Z</time>
      </trkpt>
      <trkpt lat="46.84973" lon="4.81085">
        <ele>234</ele>
        <time>2012-08-22T11:51:56Z</time>
      </trkpt>
      <trkpt lat="46.84972" lon="4.81073">
        <ele>234</ele>
        <time>2012-08-22T11:51:57Z</time>
      </trkpt>
      <trkpt lat="46.84926" lon="4.81023">
        <ele>238</ele>
        <time>2012-08-22T11:54:10Z</time>
      </trkpt>
      <trkpt lat="46.84915" lon="4.81021">
        <ele>239</ele>
        <time>2012-08-22T11:54:11Z</time>
      </trkpt>
      <trkpt lat="46.84904" lon="4.81017">
        <ele>239</ele>
        <time>2012-08-22T11:54:12Z</time>
      </trkpt>
      <trkpt lat="46.84891" lon="4.81011">
        <ele>239</ele>
        <time>2012-08-22T11:54:13Z</time>
      </trkpt>
      <trkpt lat="46.84878" lon="4.81004">
        <ele>239</ele>
        <time>2012-08-22T11:54:14Z</time>
      </trkpt>
      <trkpt lat="46.84863" lon="4.80996">
        <ele>239</ele>
        <time>2012-08-22T11:54:15Z</time>
      </trkpt>
      <trkpt lat="46.8485" lon="4.80986">
        <ele>239</ele>
        <time>2012-08-22T11:54:16Z</time>
      </trkpt>
      <trkpt lat="46.84837" lon="4.80976">
        <ele>238</ele>
        <time>2012-08-22T11:54:17Z</time>
      </trkpt>
      <trkpt lat="46.84825" lon="4.80966">
        <ele>238</ele>
        <time>2012-08-22T11:54:18Z</time>
      </trkpt>
      <trkpt lat="46.84814" lon="4.80955">
        <ele>236</ele>
        <time>2012-08-22T11:54:19Z</time>
      </trkpt>
      <trkpt lat="46.84804" lon="4.80944">
        <ele>236</ele>
        <time>2012-08-22T11:54:20Z</time>
      </trkpt>
      <trkpt lat="46.84795" lon="4.80934">
        <ele>237</ele>
        <time>2012-08-22T11:54:21Z</time>
      </trkpt>
      <trkpt lat="46.84788" lon="4.80926">
        <ele>237</ele>
        <time>2012-08-22T11:54:22Z</time>
      </trkpt>
      <trkpt lat="46.84784" lon="4.80919">
        <ele>237</ele>
        <time>2012-08-22T11:54:23Z</time>
      </trkpt>
      <trkpt lat="46.84784" lon="4.8091">
        <ele>234</ele>
        <time>2012-08-22T11:54:24Z</time>
      </trkpt>
      <trkpt lat="46.84786" lon="4.80903">
        <ele>235</ele>
        <time>2012-08-22T11:54:25Z</time>
      </trkpt>
      <trkpt lat="46.84791" lon="4.80896">
        <ele>236</ele>
        <time>2012-08-22T11:54:26Z</time>
      </trkpt>
      <trkpt lat="46.84798" lon="4.80889">
        <ele>236</ele>
        <time>2012-08-22T11:54:27Z</time>
      </trkpt>
      <trkpt lat="46.84806" lon="4.80882">
        <ele>234</ele>
        <time>2012-08-22T11:54:28Z</time>
      </trkpt>
      <trkpt lat="46.84814" lon="4.80874">
        <ele>233</ele>
        <time>2012-08-22T11:54:29Z</time>
      </trkpt>
      <trkpt lat="46.84824" lon="4.80864">
        <ele>231</ele>
        <time>2012-08-22T11:54:30Z</time>
      </trkpt>
      <trkpt lat="46.84836" lon="4.80854">
        <ele>231</ele>
        <time>2012-08-22T11:54:31Z</time>
      </trkpt>
      <trkpt lat="46.84848" lon="4.80842">
        <ele>231</ele>
        <time>2012-08-22T11:54:32Z</time>
      </trkpt>
      <trkpt lat="46.84862" lon="4.8083">
        <ele>230</ele>
        <time>2012-08-22T11:54:33Z</time>
      </trkpt>
      <trkpt lat="46.84876" lon="4.80818">
        <ele>232</ele>
        <time>2012-08-22T11:54:34Z</time>
      </trkpt>
      <trkpt lat="46.84891" lon="4.80805">
        <ele>234</ele>
        <time>2012-08-22T11:54:35Z</time>
      </trkpt>
      <trkpt lat="46.84906" lon="4.80792">
        <ele>235</ele>
        <time>2012-08-22T11:54:36Z</time>
      </trkpt>
      <trkpt lat="46.84922" lon="4.80778">
        <ele>235</ele>
        <time>2012-08-22T11:54:37Z</time>
      </trkpt>
      <trkpt lat="46.84938" lon="4.80764">
        <ele>235</ele>
        <time>2012-08-22T11:54:38Z</time>
      </trkpt>
      <trkpt lat="46.84956" lon="4.8075">
        <ele>235</ele>
        <time>2012-08-22T11:54:39Z</time>
      </trkpt>
      <trkpt lat="46.84974" lon="4.80735">
        <ele>235</ele>
        <time>2012-08-22T11:54:40Z</time>
      </trkpt>
      <trkpt lat="46.84992" lon="4.8072">
        <ele>237</ele>
        <time>2012-08-22T11:54:41Z</time>
      </trkpt>
      <trkpt lat="46.85011" lon="4.80705">
        <ele>235</ele>
        <time>2012-08-22T11:54:42Z</time>
      </trkpt>
      <trkpt lat="46.8503" lon="4.8069">
        <ele>235</ele>
        <time>2012-08-22T11:54:43Z</time>
      </trkpt>
      <trkpt lat="46.85048" lon="4.80674">
        <ele>235</ele>
        <time>2012-08-22T11:54:44Z</time>
      </trkpt>
      <trkpt lat="46.85067" lon="4.80658">
        <ele>236</ele>
        <time>2012-08-22T11:54:45Z</time>
      </trkpt>
      <trkpt lat="46.85086" lon="4.80643">
        <ele>237</ele>
        <time>2012-08-22T11:54:46Z</time>
      </trkpt>
      <trkpt lat="46.85105" lon="4.80627">
        <ele>237</ele>
        <time>2012-08-22T11:54:47Z</time>
      </trkpt>
      <trkpt lat="46.85125" lon="4.80612">
        <ele>239</ele>
        <time>2012-08-22T11:54:48Z</time>
      </trkpt>
      <trkpt lat="46.85144" lon="4.80596">
        <ele>238</ele>
        <time>2012-08-22T11:54:49Z</time>
      </trkpt>
      <trkpt lat="46.85163" lon="4.80581">
        <ele>240</ele>
        <time>2012-08-22T11:54:50Z</time>
      </trkpt>
      <trkpt lat="46.85182" lon="4.80566">
        <ele>238</ele>
        <time>2012-08-22T11:54:51Z</time>
      </trkpt>
      <trkpt lat="46.852" lon="4.80551">
        <ele>237</ele>
        <time>2012-08-22T11:54:52Z</time>
      </trkpt>
      <trkpt lat="46.85218" lon="4.80536">
        <ele>239</ele>
        <time>2012-08-22T11:54:53Z</time>
      </trkpt>
      <trkpt lat="46.85237" lon="4.80521">
        <ele>238</ele>
        <time>2012-08-22T11:54:54Z</time>
      </trkpt>
      <trkpt lat="46.85255" lon="4.80506">
        <ele>239</ele>
        <time>2012-08-22T11:54:55Z</time>
      </trkpt>
      <trkpt lat="46.85274" lon="4.80491">
        <ele>239</ele>
        <time>2012-08-22T11:54:56Z</time>
      </trkpt>
      <trkpt lat="46.85292" lon="4.80476">
        <ele>238</ele>
        <time>2012-08-22T11:54:57Z</time>
      </trkpt>
      <trkpt lat="46.85311" lon="4.8046">
        <ele>237</ele>
        <time>2012-08-22T11:54:58Z</time>
      </trkpt>
      <trkpt lat="46.8533" lon="4.80445">
        <ele>238</ele>
        <time>2012-08-22T11:54:59Z</time>
      </trkpt>
      <trkpt lat="46.85349" lon="4.80429">
        <ele>238</ele>
        <time>2012-08-22T11:55:00Z</time>
      </trkpt>
      <trkpt lat="46.85368" lon="4.80413">
        <ele>239</ele>
        <time>2012-08-22T11:55:01Z</time>
      </trkpt>
      <trkpt lat="46.85387" lon="4.80398">
        <ele>239</ele>
        <time>2012-08-22T11:55:02Z</time>
      </trkpt>
      <trkpt lat="46.85406" lon="4.80382">
        <ele>239</ele>
        <time>2012-08-22T11:55:03Z</time>
      </trkpt>
      <trkpt lat="46.85424" lon="4.80366">
        <ele>239</ele>
        <time>2012-08-22T11:55:04Z</time>
      </trkpt>
      <trkpt lat="46.85444" lon="4.80351">
        <ele>240</ele>
        <time>2012-08-22T11:55:05Z</time>
      </trkpt>
      <trkpt lat="46.85463" lon="4.80335">
        <ele>239</ele>
        <time>2012-08-22T11:55:06Z</time>
      </trkpt>
      <trkpt lat="46.85482" lon="4.80319">
        <ele>239</ele>
        <time>2012-08-22T11:55:07Z</time>
      </trkpt>
      <trkpt lat="46.85501" lon="4.80303">
        <ele>240</ele>
        <time>2012-08-22T11:55:08Z</time>
      </trkpt>
      <trkpt lat="46.8552" lon="4.80287">
        <ele>240</ele>
        <time>2012-08-22T11:55:09Z</time>
      </trkpt>
      <trkpt lat="46.8554" lon="4.80272">
        <ele>241</ele>
        <time>2012-08-22T11:55:10Z</time>
      </trkpt>
      <trkpt lat="46.85559" lon="4.80256">
        <ele>242</ele>
        <time>2012-08-22T11:55:11Z</time>
      </trkpt>
      <trkpt lat="46.85578" lon="4.8024">
        <ele>242</ele>
        <time>2012-08-22T11:55:12Z</time>
      </trkpt>
      <trkpt lat="46.85597" lon="4.80225">
        <ele>242</ele>
        <time>2012-08-22T11:55:13Z</time>
      </trkpt>
      <trkpt lat="46.85616" lon="4.80209">
        <ele>242</ele>
        <time>2012-08-22T11:55:14Z</time>
      </trkpt>
      <trkpt lat="46.85635" lon="4.80194">
        <ele>242</ele>
        <time>2012-08-22T11:55:15Z</time>
      </trkpt>
      <trkpt lat="46.85654" lon="4.80178">
        <ele>241</ele>
        <time>2012-08-22T11:55:16Z</time>
      </trkpt>
      <trkpt lat="46.85672" lon="4.80162">
        <ele>242</ele>
        <time>2012-08-22T11:55:17Z</time>
      </trkpt>
      <trkpt lat="46.85691" lon="4.80147">
        <ele>242</ele>
        <time>2012-08-22T11:55:18Z</time>
      </trkpt>
      <trkpt lat="46.8571" lon="4.80132">
        <ele>242</ele>
        <time>2012-08-22T11:55:19Z</time>
      </trkpt>
      <trkpt lat="46.85728" lon="4.80116">
        <ele>241</ele>
        <time>2012-08-22T11:55:20Z</time>
      </trkpt>
      <trkpt lat="46.85747" lon="4.801">
        <ele>242</ele>
        <time>2012-08-22T11:55:21Z</time>
      </trkpt>
      <trkpt lat="46.85766" lon="4.80085">
        <ele>241</ele>
        <time>2012-08-22T11:55:22Z</time>
      </trkpt>
      <trkpt lat="46.85784" lon="4.8007">
        <ele>243</ele>
        <time>2012-08-22T11:55:23Z</time>
      </trkpt>
      <trkpt lat="46.85803" lon="4.80054">
        <ele>244</ele>
        <time>2012-08-22T11:55:24Z</time>
      </trkpt>
      <trkpt lat="46.85821" lon="4.80039">
        <ele>244</ele>
        <time>2012-08-22T11:55:25Z</time>
      </trkpt>
      <trkpt lat="46.8584" lon="4.80024">
        <ele>244</ele>
        <time>2012-08-22T11:55:26Z</time>
      </trkpt>
      <trkpt lat="46.85858" lon="4.80009">
        <ele>245</ele>
        <time>2012-08-22T11:55:27Z</time>
      </trkpt>
      <trkpt lat="46.85877" lon="4.79993">
        <ele>244</ele>
        <time>2012-08-22T11:55:28Z</time>
      </trkpt>
      <trkpt lat="46.85895" lon="4.79978">
        <ele>245</ele>
        <time>2012-08-22T11:55:29Z</time>
      </trkpt>
      <trkpt lat="46.85914" lon="4.79962">
        <ele>245</ele>
        <time>2012-08-22T11:55:30Z</time>
      </trkpt>
      <trkpt lat="46.85932" lon="4.79946">
        <ele>246</ele>
        <time>2012-08-22T11:55:31Z</time>
      </trkpt>
      <trkpt lat="46.8595" lon="4.79931">
        <ele>245</ele>
        <time>2012-08-22T11:55:32Z</time>
      </trkpt>
      <trkpt lat="46.85969" lon="4.79915">
        <ele>244</ele>
        <time>2012-08-22T11:55:33Z</time>
      </trkpt>
      <trkpt lat="46.85987" lon="4.799">
        <ele>244</ele>
        <time>2012-08-22T11:55:34Z</time>
      </trkpt>
      <trkpt lat="46.86006" lon="4.79884">
        <ele>244</ele>
        <time>2012-08-22T11:55:35Z</time>
      </trkpt>
      <trkpt lat="46.86025" lon="4.79869">
        <ele>243</ele>
        <time>2012-08-22T11:55:36Z</time>
      </trkpt>
      <trkpt lat="46.86043" lon="4.79854">
        <ele>243</ele>
        <time>2012-08-22T11:55:37Z</time>
      </trkpt>
      <trkpt lat="46.86062" lon="4.7984">
        <ele>243</ele>
        <time>2012-08-22T11:55:38Z</time>
      </trkpt>
      <trkpt lat="46.86081" lon="4.79825">
        <ele>242</ele>
        <time>2012-08-22T11:55:39Z</time>
      </trkpt>
      <trkpt lat="46.861" lon="4.7981">
        <ele>242</ele>
        <time>2012-08-22T11:55:40Z</time>
      </trkpt>
      <trkpt lat="46.86119" lon="4.79795">
        <ele>242</ele>
        <time>2012-08-22T11:55:41Z</time>
      </trkpt>
      <trkpt lat="46.86138" lon="4.7978">
        <ele>242</ele>
        <time>2012-08-22T11:55:42Z</time>
      </trkpt>
      <trkpt lat="46.86157" lon="4.79764">
        <ele>242</ele>
        <time>2012-08-22T11:55:43Z</time>
      </trkpt>
      <trkpt lat="46.86176" lon="4.79749">
        <ele>241</ele>
        <time>2012-08-22T11:55:44Z</time>
      </trkpt>
      <trkpt lat="46.86195" lon="4.79733">
        <ele>242</ele>
        <time>2012-08-22T11:55:45Z</time>
      </trkpt>
      <trkpt lat="46.86214" lon="4.79718">
        <ele>241</ele>
        <time>2012-08-22T11:55:46Z</time>
      </trkpt>
      <trkpt lat="46.86233" lon="4.79701">
        <ele>239</ele>
        <time>2012-08-22T11:55:47Z</time>
      </trkpt>
      <trkpt lat="46.86252" lon="4.79685">
        <ele>240</ele>
        <time>2012-08-22T11:55:48Z</time>
      </trkpt>
      <trkpt lat="46.86271" lon="4.7967">
        <ele>239</ele>
        <time>2012-08-22T11:55:49Z</time>
      </trkpt>
      <trkpt lat="46.8629" lon="4.79654">
        <ele>241</ele>
        <time>2012-08-22T11:55:50Z</time>
      </trkpt>
      <trkpt lat="46.86309" lon="4.79638">
        <ele>241</ele>
        <time>2012-08-22T11:55:51Z</time>
      </trkpt>
      <trkpt lat="46.86327" lon="4.79621">
        <ele>242</ele>
        <time>2012-08-22T11:55:52Z</time>
      </trkpt>
      <trkpt lat="46.86346" lon="4.79605">
        <ele>242</ele>
        <time>2012-08-22T11:55:53Z</time>
      </trkpt>
      <trkpt lat="46.86365" lon="4.79588">
        <ele>242</ele>
        <time>2012-08-22T11:55:54Z</time>
      </trkpt>
      <trkpt lat="46.86384" lon="4.79571">
        <ele>243</ele>
        <time>2012-08-22T11:55:55Z</time>
      </trkpt>
      <trkpt lat="46.86404" lon="4.79554">
        <ele>243</ele>
        <time>2012-08-22T11:55:56Z</time>
      </trkpt>
      <trkpt lat="46.86423" lon="4.79537">
        <ele>244</ele>
        <time>2012-08-22T11:55:57Z</time>
      </trkpt>
      <trkpt lat="46.86443" lon="4.7952">
        <ele>244</ele>
        <time>2012-08-22T11:55:58Z</time>
      </trkpt>
      <trkpt lat="46.86463" lon="4.79503">
        <ele>246</ele>
        <time>2012-08-22T11:55:59Z</time>
      </trkpt>
      <trkpt lat="46.86482" lon="4.79486">
        <ele>247</ele>
        <time>2012-08-22T11:56:00Z</time>
      </trkpt>
      <trkpt lat="46.86502" lon="4.79469">
        <ele>247</ele>
        <time>2012-08-22T11:56:01Z</time>
      </trkpt>
      <trkpt lat="46.86522" lon="4.79452">
        <ele>247</ele>
        <time>2012-08-22T11:56:02Z</time>
      </trkpt>
      <trkpt lat="46.86542" lon="4.79435">
        <ele>248</ele>
        <time>2012-08-22T11:56:03Z</time>
      </trkpt>
      <trkpt lat="46.86562" lon="4.79418">
        <ele>248</ele>
        <time>2012-08-22T11:56:04Z</time>
      </trkpt>
      <trkpt lat="46.86582" lon="4.79401">
        <ele>247</ele>
        <time>2012-08-22T11:56:05Z</time>
      </trkpt>
      <trkpt lat="46.86602" lon="4.79384">
        <ele>246</ele>
        <time>2012-08-22T11:56:06Z</time>
      </trkpt>
      <trkpt lat="46.86622" lon="4.79367">
        <ele>245</ele>
        <time>2012-08-22T11:56:07Z</time>
      </trkpt>
      <trkpt lat="46.86642" lon="4.7935">
        <ele>244</ele>
        <time>2012-08-22T11:56:08Z</time>
      </trkpt>
      <trkpt lat="46.86662" lon="4.79333">
        <ele>245</ele>
        <time>2012-08-22T11:56:09Z</time>
      </trkpt>
      <trkpt lat="46.86682" lon="4.79316">
        <ele>243</ele>
        <time>2012-08-22T11:56:10Z</time>
      </trkpt>
      <trkpt lat="46.86702" lon="4.793">
        <ele>242</ele>
        <time>2012-08-22T11:56:11Z</time>
      </trkpt>
      <trkpt lat="46.86722" lon="4.79284">
        <ele>241</ele>
        <time>2012-08-22T11:56:12Z</time>
      </trkpt>
      <trkpt lat="46.86741" lon="4.79268">
        <ele>241</ele>
        <time>2012-08-22T11:56:13Z</time>
      </trkpt>
      <trkpt lat="46.86761" lon="4.79252">
        <ele>241</ele>
        <time>2012-08-22T11:56:14Z</time>
      </trkpt>
      <trkpt lat="46.8678" lon="4.79236">
        <ele>239</ele>
        <time>2012-08-22T11:56:15Z</time>
      </trkpt>
      <trkpt lat="46.868" lon="4.7922">
        <ele>240</ele>
        <time>2012-08-22T11:56:16Z</time>
      </trkpt>
      <trkpt lat="46.86819" lon="4.79204">
        <ele>240</ele>
        <time>2012-08-22T11:56:17Z</time>
      </trkpt>
      <trkpt lat="46.86839" lon="4.79187">
        <ele>241</ele>
        <time>2012-08-22T11:56:18Z</time>
      </trkpt>
      <trkpt lat="46.86858" lon="4.79171">
        <ele>241</ele>
        <time>2012-08-22T11:56:19Z</time>
      </trkpt>
      <trkpt lat="46.86878" lon="4.79154">
        <ele>242</ele>
        <time>2012-08-22T11:56:20Z</time>
      </trkpt>
      <trkpt lat="46.86898" lon="4.79138">
        <ele>243</ele>
        <time>2012-08-22T11:56:21Z</time>
      </trkpt>
      <trkpt lat="46.86918" lon="4.79121">
        <ele>243</ele>
        <time>2012-08-22T11:56:22Z</time>
      </trkpt>
      <trkpt lat="46.86937" lon="4.79105">
        <ele>244</ele>
        <time>2012-08-22T11:56:23Z</time>
      </trkpt>
      <trkpt lat="46.86957" lon="4.79088">
        <ele>244</ele>
        <time>2012-08-22T11:56:24Z</time>
      </trkpt>
      <trkpt lat="46.86977" lon="4.79072">
        <ele>245</ele>
        <time>2012-08-22T11:56:25Z</time>
      </trkpt>
      <trkpt lat="46.86997" lon="4.79055">
        <ele>244</ele>
        <time>2012-08-22T11:56:26Z</time>
      </trkpt>
      <trkpt lat="46.87017" lon="4.79038">
        <ele>245</ele>
        <time>2012-08-22T11:56:27Z</time>
      </trkpt>
      <trkpt lat="46.87036" lon="4.79022">
        <ele>245</ele>
        <time>2012-08-22T11:56:28Z</time>
      </trkpt>
      <trkpt lat="46.87055" lon="4.79005">
        <ele>247</ele>
        <time>2012-08-22T11:56:29Z</time>
      </trkpt>
      <trkpt lat="46.87074" lon="4.78988">
        <ele>247</ele>
        <time>2012-08-22T11:56:30Z</time>
      </trkpt>
      <trkpt lat="46.87094" lon="4.78971">
        <ele>247</ele>
        <time>2012-08-22T11:56:31Z</time>
      </trkpt>
      <trkpt lat="46.87114" lon="4.78954">
        <ele>248</ele>
        <time>2012-08-22T11:56:32Z</time>
      </trkpt>
      <trkpt lat="46.87135" lon="4.78936">
        <ele>247</ele>
        <time>2012-08-22T11:56:33Z</time>
      </trkpt>
      <trkpt lat="46.87175" lon="4.78903">
        <ele>251</ele>
        <time>2012-08-22T11:56:35Z</time>
      </trkpt>
      <trkpt lat="46.87194" lon="4.78887">
        <ele>252</ele>
        <time>2012-08-22T11:56:36Z</time>
      </trkpt>
      <trkpt lat="46.87212" lon="4.78869">
        <ele>251</ele>
        <time>2012-08-22T11:56:37Z</time>
      </trkpt>
      <trkpt lat="46.87231" lon="4.78852">
        <ele>251</ele>
        <time>2012-08-22T11:56:38Z</time>
      </trkpt>
      <trkpt lat="46.87247" lon="4.78833">
        <ele>255</ele>
        <time>2012-08-22T11:56:39Z</time>
      </trkpt>
      <trkpt lat="46.87265" lon="4.78813">
        <ele>254</ele>
        <time>2012-08-22T11:56:40Z</time>
      </trkpt>
      <trkpt lat="46.87282" lon="4.78794">
        <ele>254</ele>
        <time>2012-08-22T11:56:41Z</time>
      </trkpt>
      <trkpt lat="46.873" lon="4.78774">
        <ele>254</ele>
        <time>2012-08-22T11:56:42Z</time>
      </trkpt>
      <trkpt lat="46.87318" lon="4.78753">
        <ele>255</ele>
        <time>2012-08-22T11:56:43Z</time>
      </trkpt>
      <trkpt lat="46.87335" lon="4.78732">
        <ele>255</ele>
        <time>2012-08-22T11:56:44Z</time>
      </trkpt>
      <trkpt lat="46.87352" lon="4.78712">
        <ele>255</ele>
        <time>2012-08-22T11:56:45Z</time>
      </trkpt>
      <trkpt lat="46.8737" lon="4.78692">
        <ele>254</ele>
        <time>2012-08-22T11:56:46Z</time>
      </trkpt>
      <trkpt lat="46.87388" lon="4.78671">
        <ele>254</ele>
        <time>2012-08-22T11:56:47Z</time>
      </trkpt>
      <trkpt lat="46.87406" lon="4.7865">
        <ele>255</ele>
        <time>2012-08-22T11:56:48Z</time>
      </trkpt>
      <trkpt lat="46.87424" lon="4.78628">
        <ele>256</ele>
        <time>2012-08-22T11:56:49Z</time>
      </trkpt>
      <trkpt lat="46.87442" lon="4.78607">
        <ele>259</ele>
        <time>2012-08-22T11:56:50Z</time>
      </trkpt>
      <trkpt lat="46.8746" lon="4.78586">
        <ele>259</ele>
        <time>2012-08-22T11:56:51Z</time>
      </trkpt>
      <trkpt lat="46.87478" lon="4.78565">
        <ele>259</ele>
        <time>2012-08-22T11:56:52Z</time>
      </trkpt>
      <trkpt lat="46.87496" lon="4.78544">
        <ele>259</ele>
        <time>2012-08-22T11:56:53Z</time>
      </trkpt>
      <trkpt lat="46.87515" lon="4.78523">
        <ele>259</ele>
        <time>2012-08-22T11:56:54Z</time>
      </trkpt>
      <trkpt lat="46.87533" lon="4.78503">
        <ele>258</ele>
        <time>2012-08-22T11:56:55Z</time>
      </trkpt>
      <trkpt lat="46.8755" lon="4.78482">
        <ele>257</ele>
        <time>2012-08-22T11:56:56Z</time>
      </trkpt>
      <trkpt lat="46.87568" lon="4.78462">
        <ele>257</ele>
        <time>2012-08-22T11:56:57Z</time>
      </trkpt>
      <trkpt lat="46.87586" lon="4.78441">
        <ele>257</ele>
        <time>2012-08-22T11:56:58Z</time>
      </trkpt>
      <trkpt lat="46.87603" lon="4.7842">
        <ele>257</ele>
        <time>2012-08-22T11:56:59Z</time>
      </trkpt>
      <trkpt lat="46.87621" lon="4.784">
        <ele>257</ele>
        <time>2012-08-22T11:57:00Z</time>
      </trkpt>
      <trkpt lat="46.87638" lon="4.7838">
        <ele>255</ele>
        <time>2012-08-22T11:57:01Z</time>
      </trkpt>
      <trkpt lat="46.87656" lon="4.78361">
        <ele>255</ele>
        <time>2012-08-22T11:57:02Z</time>
      </trkpt>
      <trkpt lat="46.87673" lon="4.78341">
        <ele>255</ele>
        <time>2012-08-22T11:57:03Z</time>
      </trkpt>
      <trkpt lat="46.87691" lon="4.78321">
        <ele>255</ele>
        <time>2012-08-22T11:57:04Z</time>
      </trkpt>
      <trkpt lat="46.87709" lon="4.78301">
        <ele>254</ele>
        <time>2012-08-22T11:57:05Z</time>
      </trkpt>
      <trkpt lat="46.87727" lon="4.78281">
        <ele>255</ele>
        <time>2012-08-22T11:57:06Z</time>
      </trkpt>
      <trkpt lat="46.87745" lon="4.78261">
        <ele>257</ele>
        <time>2012-08-22T11:57:07Z</time>
      </trkpt>
      <trkpt lat="46.87763" lon="4.78241">
        <ele>257</ele>
        <time>2012-08-22T11:57:08Z</time>
      </trkpt>
      <trkpt lat="46.8778" lon="4.78221">
        <ele>258</ele>
        <time>2012-08-22T11:57:09Z</time>
      </trkpt>
      <trkpt lat="46.87798" lon="4.78202">
        <ele>258</ele>
        <time>2012-08-22T11:57:10Z</time>
      </trkpt>
      <trkpt lat="46.87815" lon="4.78182">
        <ele>256</ele>
        <time>2012-08-22T11:57:11Z</time>
      </trkpt>
      <trkpt lat="46.87831" lon="4.78163">
        <ele>255</ele>
        <time>2012-08-22T11:57:12Z</time>
      </trkpt>
      <trkpt lat="46.87848" lon="4.78145">
        <ele>256</ele>
        <time>2012-08-22T11:57:13Z</time>
      </trkpt>
      <trkpt lat="46.87864" lon="4.78126">
        <ele>256</ele>
        <time>2012-08-22T11:57:14Z</time>
      </trkpt>
      <trkpt lat="46.87881" lon="4.78109">
        <ele>256</ele>
        <time>2012-08-22T11:57:15Z</time>
      </trkpt>
      <trkpt lat="46.87897" lon="4.78092">
        <ele>255</ele>
        <time>2012-08-22T11:57:16Z</time>
      </trkpt>
      <trkpt lat="46.87913" lon="4.78075">
        <ele>255</ele>
        <time>2012-08-22T11:57:17Z</time>
      </trkpt>
      <trkpt lat="46.87928" lon="4.78059">
        <ele>255</ele>
        <time>2012-08-22T11:57:18Z</time>
      </trkpt>
      <trkpt lat="46.87942" lon="4.78042">
        <ele>254</ele>
        <time>2012-08-22T11:57:19Z</time>
      </trkpt>
      <trkpt lat="46.87957" lon="4.78025">
        <ele>254</ele>
        <time>2012-08-22T11:57:20Z</time>
      </trkpt>
      <trkpt lat="46.87971" lon="4.78008">
        <ele>254</ele>
        <time>2012-08-22T11:57:21Z</time>
      </trkpt>
      <trkpt lat="46.87986" lon="4.77991">
        <ele>254</ele>
        <time>2012-08-22T11:57:22Z</time>
      </trkpt>
      <trkpt lat="46.88001" lon="4.77974">
        <ele>253</ele>
        <time>2012-08-22T11:57:23Z</time>
      </trkpt>
      <trkpt lat="46.88016" lon="4.77958">
        <ele>252</ele>
        <time>2012-08-22T11:57:24Z</time>
      </trkpt>
      <trkpt lat="46.8803" lon="4.77943">
        <ele>253</ele>
        <time>2012-08-22T11:57:25Z</time>
      </trkpt>
      <trkpt lat="46.88044" lon="4.77928">
        <ele>253</ele>
        <time>2012-08-22T11:57:26Z</time>
      </trkpt>
      <trkpt lat="46.88058" lon="4.77913">
        <ele>253</ele>
        <time>2012-08-22T11:57:27Z</time>
      </trkpt>
      <trkpt lat="46.88071" lon="4.77897">
        <ele>254</ele>
        <time>2012-08-22T11:57:28Z</time>
      </trkpt>
      <trkpt lat="46.88085" lon="4.77882">
        <ele>256</ele>
        <time>2012-08-22T11:57:29Z</time>
      </trkpt>
      <trkpt lat="46.88098" lon="4.77867">
        <ele>256</ele>
        <time>2012-08-22T11:57:30Z</time>
      </trkpt>
      <trkpt lat="46.88111" lon="4.77854">
        <ele>254</ele>
        <time>2012-08-22T11:57:31Z</time>
      </trkpt>
      <trkpt lat="46.88123" lon="4.77839">
        <ele>254</ele>
        <time>2012-08-22T11:57:32Z</time>
      </trkpt>
      <trkpt lat="46.88135" lon="4.77826">
        <ele>254</ele>
        <time>2012-08-22T11:57:33Z</time>
      </trkpt>
      <trkpt lat="46.88145" lon="4.77813">
        <ele>254</ele>
        <time>2012-08-22T11:57:34Z</time>
      </trkpt>
      <trkpt lat="46.88154" lon="4.77802">
        <ele>253</ele>
        <time>2012-08-22T11:57:35Z</time>
      </trkpt>
      <trkpt lat="46.88162" lon="4.77792">
        <ele>254</ele>
        <time>2012-08-22T11:57:36Z</time>
      </trkpt>
      <trkpt lat="46.88169" lon="4.77785">
        <ele>257</ele>
        <time>2012-08-22T11:57:37Z</time>
      </trkpt>
      <trkpt lat="46.88174" lon="4.7778">
        <ele>259</ele>
        <time>2012-08-22T11:57:38Z</time>
      </trkpt>
      <trkpt lat="46.88178" lon="4.77776">
        <ele>261</ele>
        <time>2012-08-22T11:57:39Z</time>
      </trkpt>
      <trkpt lat="46.88183" lon="4.77771">
        <ele>261</ele>
        <time>2012-08-22T11:57:42Z</time>
      </trkpt>
      <trkpt lat="46.88178" lon="4.7776">
        <ele>264</ele>
        <time>2012-08-22T11:57:45Z</time>
      </trkpt>
      <trkpt lat="46.88173" lon="4.77752">
        <ele>263</ele>
        <time>2012-08-22T11:57:46Z</time>
      </trkpt>
      <trkpt lat="46.8817" lon="4.77739">
        <ele>264</ele>
        <time>2012-08-22T11:57:47Z</time>
      </trkpt>
      <trkpt lat="46.88166" lon="4.77724">
        <ele>265</ele>
        <time>2012-08-22T11:57:48Z</time>
      </trkpt>
      <trkpt lat="46.88163" lon="4.77708">
        <ele>265</ele>
        <time>2012-08-22T11:57:49Z</time>
      </trkpt>
      <trkpt lat="46.88162" lon="4.7769">
        <ele>266</ele>
        <time>2012-08-22T11:57:50Z</time>
      </trkpt>
      <trkpt lat="46.88161" lon="4.77671">
        <ele>263</ele>
        <time>2012-08-22T11:57:51Z</time>
      </trkpt>
      <trkpt lat="46.8816" lon="4.7765">
        <ele>262</ele>
        <time>2012-08-22T11:57:52Z</time>
      </trkpt>
      <trkpt lat="46.8816" lon="4.7763">
        <ele>262</ele>
        <time>2012-08-22T11:57:53Z</time>
      </trkpt>
      <trkpt lat="46.88158" lon="4.77607">
        <ele>261</ele>
        <time>2012-08-22T11:57:54Z</time>
      </trkpt>
      <trkpt lat="46.88157" lon="4.77585">
        <ele>257</ele>
        <time>2012-08-22T11:57:55Z</time>
      </trkpt>
      <trkpt lat="46.88156" lon="4.77563">
        <ele>258</ele>
        <time>2012-08-22T11:57:56Z</time>
      </trkpt>
      <trkpt lat="46.88155" lon="4.77539">
        <ele>254</ele>
        <time>2012-08-22T11:57:57Z</time>
      </trkpt>
      <trkpt lat="46.88155" lon="4.77516">
        <ele>255</ele>
        <time>2012-08-22T11:57:58Z</time>
      </trkpt>
      <trkpt lat="46.88155" lon="4.77492">
        <ele>253</ele>
        <time>2012-08-22T11:57:59Z</time>
      </trkpt>
      <trkpt lat="46.88154" lon="4.77467">
        <ele>252</ele>
        <time>2012-08-22T11:58:00Z</time>
      </trkpt>
      <trkpt lat="46.88152" lon="4.77441">
        <ele>252</ele>
        <time>2012-08-22T11:58:01Z</time>
      </trkpt>
      <trkpt lat="46.8815" lon="4.77414">
        <ele>251</ele>
        <time>2012-08-22T11:58:02Z</time>
      </trkpt>
      <trkpt lat="46.88148" lon="4.77387">
        <ele>251</ele>
        <time>2012-08-22T11:58:03Z</time>
      </trkpt>
      <trkpt lat="46.88146" lon="4.77361">
        <ele>252</ele>
        <time>2012-08-22T11:58:04Z</time>
      </trkpt>
      <trkpt lat="46.88143" lon="4.77336">
        <ele>252</ele>
        <time>2012-08-22T11:58:05Z</time>
      </trkpt>
      <trkpt lat="46.88141" lon="4.77312">
        <ele>252</ele>
        <time>2012-08-22T11:58:06Z</time>
      </trkpt>
      <trkpt lat="46.88138" lon="4.77289">
        <ele>252</ele>
        <time>2012-08-22T11:58:07Z</time>
      </trkpt>
      <trkpt lat="46.88137" lon="4.77266">
        <ele>251</ele>
        <time>2012-08-22T11:58:08Z</time>
      </trkpt>
      <trkpt lat="46.88136" lon="4.77243">
        <ele>251</ele>
        <time>2012-08-22T11:58:09Z</time>
      </trkpt>
      <trkpt lat="46.88136" lon="4.7722">
        <ele>251</ele>
        <time>2012-08-22T11:58:10Z</time>
      </trkpt>
      <trkpt lat="46.88139" lon="4.77198">
        <ele>251</ele>
        <time>2012-08-22T11:58:11Z</time>
      </trkpt>
      <trkpt lat="46.88142" lon="4.77176">
        <ele>248</ele>
        <time>2012-08-22T11:58:12Z</time>
      </trkpt>
      <trkpt lat="46.88145" lon="4.77156">
        <ele>246</ele>
        <time>2012-08-22T11:58:13Z</time>
      </trkpt>
      <trkpt lat="46.88149" lon="4.77136">
        <ele>245</ele>
        <time>2012-08-22T11:58:14Z</time>
      </trkpt>
      <trkpt lat="46.88151" lon="4.77116">
        <ele>245</ele>
        <time>2012-08-22T11:58:15Z</time>
      </trkpt>
      <trkpt lat="46.88153" lon="4.77096">
        <ele>243</ele>
        <time>2012-08-22T11:58:16Z</time>
      </trkpt>
      <trkpt lat="46.88152" lon="4.77076">
        <ele>245</ele>
        <time>2012-08-22T11:58:17Z</time>
      </trkpt>
      <trkpt lat="46.8815" lon="4.77056">
        <ele>248</ele>
        <time>2012-08-22T11:58:18Z</time>
      </trkpt>
      <trkpt lat="46.88148" lon="4.77034">
        <ele>249</ele>
        <time>2012-08-22T11:58:19Z</time>
      </trkpt>
      <trkpt lat="46.88144" lon="4.77012">
        <ele>249</ele>
        <time>2012-08-22T11:58:20Z</time>
      </trkpt>
      <trkpt lat="46.88141" lon="4.7699">
        <ele>248</ele>
        <time>2012-08-22T11:58:21Z</time>
      </trkpt>
      <trkpt lat="46.88138" lon="4.76968">
        <ele>245</ele>
        <time>2012-08-22T11:58:22Z</time>
      </trkpt>
      <trkpt lat="46.88135" lon="4.76948">
        <ele>245</ele>
        <time>2012-08-22T11:58:23Z</time>
      </trkpt>
      <trkpt lat="46.88132" lon="4.7693">
        <ele>246</ele>
        <time>2012-08-22T11:58:24Z</time>
      </trkpt>
      <trkpt lat="46.8813" lon="4.76912">
        <ele>246</ele>
        <time>2012-08-22T11:58:25Z</time>
      </trkpt>
      <trkpt lat="46.88128" lon="4.76893">
        <ele>245</ele>
        <time>2012-08-22T11:58:26Z</time>
      </trkpt>
      <trkpt lat="46.88126" lon="4.76876">
        <ele>241</ele>
        <time>2012-08-22T11:58:27Z</time>
      </trkpt>
      <trkpt lat="46.88126" lon="4.76859">
        <ele>245</ele>
        <time>2012-08-22T11:58:28Z</time>
      </trkpt>
      <trkpt lat="46.88125" lon="4.76843">
        <ele>246</ele>
        <time>2012-08-22T11:58:29Z</time>
      </trkpt>
      <trkpt lat="46.88124" lon="4.76827">
        <ele>245</ele>
        <time>2012-08-22T11:58:30Z</time>
      </trkpt>
      <trkpt lat="46.88124" lon="4.76814">
        <ele>247</ele>
        <time>2012-08-22T11:58:31Z</time>
      </trkpt>
      <trkpt lat="46.88126" lon="4.76801">
        <ele>247</ele>
        <time>2012-08-22T11:58:32Z</time>
      </trkpt>
      <trkpt lat="46.88129" lon="4.76788">
        <ele>246</ele>
        <time>2012-08-22T11:58:33Z</time>
      </trkpt>
      <trkpt lat="46.88133" lon="4.76776">
        <ele>246</ele>
        <time>2012-08-22T11:58:34Z</time>
      </trkpt>
      <trkpt lat="46.88138" lon="4.76762">
        <ele>243</ele>
        <time>2012-08-22T11:58:35Z</time>
      </trkpt>
      <trkpt lat="46.88144" lon="4.76746">
        <ele>242</ele>
        <time>2012-08-22T11:58:36Z</time>
      </trkpt>
      <trkpt lat="46.88152" lon="4.76728">
        <ele>246</ele>
        <time>2012-08-22T11:58:37Z</time>
      </trkpt>
      <trkpt lat="46.8816" lon="4.76709">
        <ele>244</ele>
        <time>2012-08-22T11:58:38Z</time>
      </trkpt>
      <trkpt lat="46.88168" lon="4.76692">
        <ele>243</ele>
        <time>2012-08-22T11:58:39Z</time>
      </trkpt>
      <trkpt lat="46.88175" lon="4.76677">
        <ele>244</ele>
        <time>2012-08-22T11:58:40Z</time>
      </trkpt>
      <trkpt lat="46.88182" lon="4.76664">
        <ele>244</ele>
        <time>2012-08-22T11:58:41Z</time>
      </trkpt>
      <trkpt lat="46.88188" lon="4.76652">
        <ele>244</ele>
        <time>2012-08-22T11:58:42Z</time>
      </trkpt>
      <trkpt lat="46.88192" lon="4.76642">
        <ele>241</ele>
        <time>2012-08-22T11:58:43Z</time>
      </trkpt>
      <trkpt lat="46.88194" lon="4.76634">
        <ele>239</ele>
        <time>2012-08-22T11:58:44Z</time>
      </trkpt>
      <trkpt lat="46.88193" lon="4.76621">
        <ele>238</ele>
        <time>2012-08-22T11:58:46Z</time>
      </trkpt>
      <trkpt lat="46.88186" lon="4.7661">
        <ele>244</ele>
        <time>2012-08-22T11:58:48Z</time>
      </trkpt>
      <trkpt lat="46.88181" lon="4.76604">
        <ele>247</ele>
        <time>2012-08-22T11:58:49Z</time>
      </trkpt>
      <trkpt lat="46.88175" lon="4.76596">
        <ele>248</ele>
        <time>2012-08-22T11:58:50Z</time>
      </trkpt>
      <trkpt lat="46.8817" lon="4.7659">
        <ele>250</ele>
        <time>2012-08-22T11:58:51Z</time>
      </trkpt>
      <trkpt lat="46.88164" lon="4.76583">
        <ele>250</ele>
        <time>2012-08-22T11:58:52Z</time>
      </trkpt>
      <trkpt lat="46.88158" lon="4.76574">
        <ele>252</ele>
        <time>2012-08-22T11:58:53Z</time>
      </trkpt>
      <trkpt lat="46.88152" lon="4.76564">
        <ele>252</ele>
        <time>2012-08-22T11:58:54Z</time>
      </trkpt>
      <trkpt lat="46.88147" lon="4.7655">
        <ele>249</ele>
        <time>2012-08-22T11:58:55Z</time>
      </trkpt>
      <trkpt lat="46.88142" lon="4.76534">
        <ele>251</ele>
        <time>2012-08-22T11:58:56Z</time>
      </trkpt>
      <trkpt lat="46.88137" lon="4.76517">
        <ele>251</ele>
        <time>2012-08-22T11:58:57Z</time>
      </trkpt>
      <trkpt lat="46.88131" lon="4.76498">
        <ele>250</ele>
        <time>2012-08-22T11:58:58Z</time>
      </trkpt>
      <trkpt lat="46.88124" lon="4.7648">
        <ele>249</ele>
        <time>2012-08-22T11:58:59Z</time>
      </trkpt>
      <trkpt lat="46.88118" lon="4.7646">
        <ele>249</ele>
        <time>2012-08-22T11:59:00Z</time>
      </trkpt>
      <trkpt lat="46.8811" lon="4.76437">
        <ele>248</ele>
        <time>2012-08-22T11:59:01Z</time>
      </trkpt>
      <trkpt lat="46.88103" lon="4.76414">
        <ele>250</ele>
        <time>2012-08-22T11:59:02Z</time>
      </trkpt>
      <trkpt lat="46.88096" lon="4.76391">
        <ele>249</ele>
        <time>2012-08-22T11:59:03Z</time>
      </trkpt>
      <trkpt lat="46.8809" lon="4.7637">
        <ele>246</ele>
        <time>2012-08-22T11:59:04Z</time>
      </trkpt>
      <trkpt lat="46.88085" lon="4.7635">
        <ele>247</ele>
        <time>2012-08-22T11:59:05Z</time>
      </trkpt>
      <trkpt lat="46.88084" lon="4.76328">
        <ele>249</ele>
        <time>2012-08-22T11:59:06Z</time>
      </trkpt>
      <trkpt lat="46.88086" lon="4.76306">
        <ele>249</ele>
        <time>2012-08-22T11:59:07Z</time>
      </trkpt>
      <trkpt lat="46.88089" lon="4.76282">
        <ele>249</ele>
        <time>2012-08-22T11:59:08Z</time>
      </trkpt>
      <trkpt lat="46.88093" lon="4.76258">
        <ele>248</ele>
        <time>2012-08-22T11:59:09Z</time>
      </trkpt>
      <trkpt lat="46.88098" lon="4.76235">
        <ele>248</ele>
        <time>2012-08-22T11:59:10Z</time>
      </trkpt>
      <trkpt lat="46.88102" lon="4.76213">
        <ele>248</ele>
        <time>2012-08-22T11:59:11Z</time>
      </trkpt>
      <trkpt lat="46.88107" lon="4.76193">
        <ele>246</ele>
        <time>2012-08-22T11:59:12Z</time>
      </trkpt>
      <trkpt lat="46.88111" lon="4.76173">
        <ele>246</ele>
        <time>2012-08-22T11:59:13Z</time>
      </trkpt>
      <trkpt lat="46.88115" lon="4.76154">
        <ele>246</ele>
        <time>2012-08-22T11:59:14Z</time>
      </trkpt>
      <trkpt lat="46.88118" lon="4.76134">
        <ele>247</ele>
        <time>2012-08-22T11:59:15Z</time>
      </trkpt>
      <trkpt lat="46.88119" lon="4.76114">
        <ele>249</ele>
        <time>2012-08-22T11:59:16Z</time>
      </trkpt>
      <trkpt lat="46.88118" lon="4.76098">
        <ele>250</ele>
        <time>2012-08-22T11:59:17Z</time>
      </trkpt>
      <trkpt lat="46.88117" lon="4.76081">
        <ele>253</ele>
        <time>2012-08-22T11:59:18Z</time>
      </trkpt>
      <trkpt lat="46.88115" lon="4.76064">
        <ele>255</ele>
        <time>2012-08-22T11:59:19Z</time>
      </trkpt>
      <trkpt lat="46.88112" lon="4.76046">
        <ele>256</ele>
        <time>2012-08-22T11:59:20Z</time>
      </trkpt>
      <trkpt lat="46.88107" lon="4.76028">
        <ele>255</ele>
        <time>2012-08-22T11:59:21Z</time>
      </trkpt>
      <trkpt lat="46.881" lon="4.76011">
        <ele>256</ele>
        <time>2012-08-22T11:59:22Z</time>
      </trkpt>
      <trkpt lat="46.88093" lon="4.75994">
        <ele>255</ele>
        <time>2012-08-22T11:59:23Z</time>
      </trkpt>
      <trkpt lat="46.88084" lon="4.75977">
        <ele>256</ele>
        <time>2012-08-22T11:59:24Z</time>
      </trkpt>
      <trkpt lat="46.88074" lon="4.7596">
        <ele>258</ele>
        <time>2012-08-22T11:59:25Z</time>
      </trkpt>
      <trkpt lat="46.88064" lon="4.75944">
        <ele>257</ele>
        <time>2012-08-22T11:59:26Z</time>
      </trkpt>
      <trkpt lat="46.88052" lon="4.75927">
        <ele>258</ele>
        <time>2012-08-22T11:59:27Z</time>
      </trkpt>
      <trkpt lat="46.8804" lon="4.7591">
        <ele>259</ele>
        <time>2012-08-22T11:59:28Z</time>
      </trkpt>
      <trkpt lat="46.88029" lon="4.75894">
        <ele>258</ele>
        <time>2012-08-22T11:59:29Z</time>
      </trkpt>
      <trkpt lat="46.88019" lon="4.75879">
        <ele>258</ele>
        <time>2012-08-22T11:59:30Z</time>
      </trkpt>
      <trkpt lat="46.8801" lon="4.75863">
        <ele>258</ele>
        <time>2012-08-22T11:59:31Z</time>
      </trkpt>
      <trkpt lat="46.88006" lon="4.75845">
        <ele>258</ele>
        <time>2012-08-22T11:59:32Z</time>
      </trkpt>
      <trkpt lat="46.88001" lon="4.75826">
        <ele>259</ele>
        <time>2012-08-22T11:59:33Z</time>
      </trkpt>
      <trkpt lat="46.87997" lon="4.75807">
        <ele>258</ele>
        <time>2012-08-22T11:59:34Z</time>
      </trkpt>
      <trkpt lat="46.87993" lon="4.75787">
        <ele>259</ele>
        <time>2012-08-22T11:59:35Z</time>
      </trkpt>
      <trkpt lat="46.8799" lon="4.75764">
        <ele>260</ele>
        <time>2012-08-22T11:59:36Z</time>
      </trkpt>
      <trkpt lat="46.87987" lon="4.75741">
        <ele>259</ele>
        <time>2012-08-22T11:59:37Z</time>
      </trkpt>
      <trkpt lat="46.87984" lon="4.75717">
        <ele>257</ele>
        <time>2012-08-22T11:59:38Z</time>
      </trkpt>
      <trkpt lat="46.87981" lon="4.75691">
        <ele>260</ele>
        <time>2012-08-22T11:59:39Z</time>
      </trkpt>
      <trkpt lat="46.87979" lon="4.75666">
        <ele>257</ele>
        <time>2012-08-22T11:59:40Z</time>
      </trkpt>
      <trkpt lat="46.87976" lon="4.75641">
        <ele>256</ele>
        <time>2012-08-22T11:59:41Z</time>
      </trkpt>
      <trkpt lat="46.87974" lon="4.75616">
        <ele>252</ele>
        <time>2012-08-22T11:59:42Z</time>
      </trkpt>
      <trkpt lat="46.87972" lon="4.7559">
        <ele>254</ele>
        <time>2012-08-22T11:59:43Z</time>
      </trkpt>
      <trkpt lat="46.87969" lon="4.75564">
        <ele>249</ele>
        <time>2012-08-22T11:59:44Z</time>
      </trkpt>
      <trkpt lat="46.87967" lon="4.75537">
        <ele>250</ele>
        <time>2012-08-22T11:59:45Z</time>
      </trkpt>
      <trkpt lat="46.87964" lon="4.7551">
        <ele>252</ele>
        <time>2012-08-22T11:59:46Z</time>
      </trkpt>
      <trkpt lat="46.87961" lon="4.75484">
        <ele>252</ele>
        <time>2012-08-22T11:59:47Z</time>
      </trkpt>
      <trkpt lat="46.87958" lon="4.75457">
        <ele>252</ele>
        <time>2012-08-22T11:59:48Z</time>
      </trkpt>
      <trkpt lat="46.87954" lon="4.75431">
        <ele>252</ele>
        <time>2012-08-22T11:59:49Z</time>
      </trkpt>
      <trkpt lat="46.8795" lon="4.75406">
        <ele>252</ele>
        <time>2012-08-22T11:59:50Z</time>
      </trkpt>
      <trkpt lat="46.87946" lon="4.75381">
        <ele>252</ele>
        <time>2012-08-22T11:59:51Z</time>
      </trkpt>
      <trkpt lat="46.87942" lon="4.75359">
        <ele>253</ele>
        <time>2012-08-22T11:59:52Z</time>
      </trkpt>
      <trkpt lat="46.87939" lon="4.75339">
        <ele>253</ele>
        <time>2012-08-22T11:59:53Z</time>
      </trkpt>
      <trkpt lat="46.87936" lon="4.75322">
        <ele>254</ele>
        <time>2012-08-22T11:59:54Z</time>
      </trkpt>
      <trkpt lat="46.87934" lon="4.75305">
        <ele>255</ele>
        <time>2012-08-22T11:59:55Z</time>
      </trkpt>
      <trkpt lat="46.87931" lon="4.75291">
        <ele>255</ele>
        <time>2012-08-22T11:59:56Z</time>
      </trkpt>
      <trkpt lat="46.8793" lon="4.75279">
        <ele>254</ele>
        <time>2012-08-22T11:59:57Z</time>
      </trkpt>
      <trkpt lat="46.8793" lon="4.75268">
        <ele>254</ele>
        <time>2012-08-22T11:59:58Z</time>
      </trkpt>
      <trkpt lat="46.87931" lon="4.7526">
        <ele>253</ele>
        <time>2012-08-22T11:59:59Z</time>
      </trkpt>
      <trkpt lat="46.87932" lon="4.75251">
        <ele>253</ele>
        <time>2012-08-22T12:00:00Z</time>
      </trkpt>
      <trkpt lat="46.8793" lon="4.75244">
        <ele>254</ele>
        <time>2012-08-22T12:00:01Z</time>
      </trkpt>
      <trkpt lat="46.87921" lon="4.75235">
        <ele>254</ele>
        <time>2012-08-22T12:00:03Z</time>
      </trkpt>
      <trkpt lat="46.87914" lon="4.75228">
        <ele>259</ele>
        <time>2012-08-22T12:00:04Z</time>
      </trkpt>
      <trkpt lat="46.87905" lon="4.7522">
        <ele>258</ele>
        <time>2012-08-22T12:00:05Z</time>
      </trkpt>
      <trkpt lat="46.87898" lon="4.75208">
        <ele>260</ele>
        <time>2012-08-22T12:00:06Z</time>
      </trkpt>
      <trkpt lat="46.87891" lon="4.75194">
        <ele>257</ele>
        <time>2012-08-22T12:00:07Z</time>
      </trkpt>
      <trkpt lat="46.87883" lon="4.7518">
        <ele>255</ele>
        <time>2012-08-22T12:00:08Z</time>
      </trkpt>
      <trkpt lat="46.87877" lon="4.75165">
        <ele>253</ele>
        <time>2012-08-22T12:00:09Z</time>
      </trkpt>
      <trkpt lat="46.8787" lon="4.75147">
        <ele>254</ele>
        <time>2012-08-22T12:00:10Z</time>
      </trkpt>
      <trkpt lat="46.87866" lon="4.75131">
        <ele>257</ele>
        <time>2012-08-22T12:00:11Z</time>
      </trkpt>
      <trkpt lat="46.87861" lon="4.75114">
        <ele>256</ele>
        <time>2012-08-22T12:00:12Z</time>
      </trkpt>
      <trkpt lat="46.87858" lon="4.751">
        <ele>255</ele>
        <time>2012-08-22T12:00:13Z</time>
      </trkpt>
      <trkpt lat="46.87855" lon="4.75087">
        <ele>258</ele>
        <time>2012-08-22T12:00:14Z</time>
      </trkpt>
      <trkpt lat="46.87853" lon="4.75078">
        <ele>257</ele>
        <time>2012-08-22T12:00:15Z</time>
      </trkpt>
      <trkpt lat="46.87852" lon="4.75072">
        <ele>258</ele>
        <time>2012-08-22T12:00:16Z</time>
      </trkpt>
      <trkpt lat="46.87852" lon="4.75065">
        <ele>257</ele>
        <time>2012-08-22T12:00:18Z</time>
      </trkpt>
      <trkpt lat="46.8785" lon="4.75055">
        <ele>256</ele>
        <time>2012-08-22T12:00:20Z</time>
      </trkpt>
      <trkpt lat="46.87846" lon="4.75046">
        <ele>259</ele>
        <time>2012-08-22T12:00:21Z</time>
      </trkpt>
      <trkpt lat="46.87842" lon="4.75036">
        <ele>258</ele>
        <time>2012-08-22T12:00:22Z</time>
      </trkpt>
      <trkpt lat="46.87836" lon="4.75023">
        <ele>256</ele>
        <time>2012-08-22T12:00:23Z</time>
      </trkpt>
      <trkpt lat="46.87829" lon="4.75009">
        <ele>256</ele>
        <time>2012-08-22T12:00:24Z</time>
      </trkpt>
      <trkpt lat="46.87821" lon="4.74993">
        <ele>255</ele>
        <time>2012-08-22T12:00:25Z</time>
      </trkpt>
      <trkpt lat="46.87811" lon="4.74977">
        <ele>253</ele>
        <time>2012-08-22T12:00:26Z</time>
      </trkpt>
      <trkpt lat="46.87802" lon="4.74961">
        <ele>251</ele>
        <time>2012-08-22T12:00:27Z</time>
      </trkpt>
      <trkpt lat="46.87792" lon="4.74945">
        <ele>251</ele>
        <time>2012-08-22T12:00:28Z</time>
      </trkpt>
      <trkpt lat="46.87784" lon="4.7493">
        <ele>251</ele>
        <time>2012-08-22T12:00:29Z</time>
      </trkpt>
      <trkpt lat="46.87775" lon="4.74917">
        <ele>253</ele>
        <time>2012-08-22T12:00:30Z</time>
      </trkpt>
      <trkpt lat="46.87767" lon="4.74905">
        <ele>252</ele>
        <time>2012-08-22T12:00:31Z</time>
      </trkpt>
      <trkpt lat="46.8776" lon="4.74893">
        <ele>253</ele>
        <time>2012-08-22T12:00:32Z</time>
      </trkpt>
      <trkpt lat="46.87755" lon="4.74881">
        <ele>251</ele>
        <time>2012-08-22T12:00:33Z</time>
      </trkpt>
      <trkpt lat="46.87752" lon="4.74868">
        <ele>252</ele>
        <time>2012-08-22T12:00:34Z</time>
      </trkpt>
      <trkpt lat="46.8775" lon="4.74854">
        <ele>253</ele>
        <time>2012-08-22T12:00:35Z</time>
      </trkpt>
      <trkpt lat="46.87747" lon="4.74838">
        <ele>252</ele>
        <time>2012-08-22T12:00:36Z</time>
      </trkpt>
      <trkpt lat="46.87744" lon="4.7482">
        <ele>252</ele>
        <time>2012-08-22T12:00:37Z</time>
      </trkpt>
      <trkpt lat="46.87742" lon="4.74801">
        <ele>253</ele>
        <time>2012-08-22T12:00:38Z</time>
      </trkpt>
      <trkpt lat="46.87739" lon="4.74781">
        <ele>255</ele>
        <time>2012-08-22T12:00:39Z</time>
      </trkpt>
      <trkpt lat="46.87736" lon="4.7476">
        <ele>256</ele>
        <time>2012-08-22T12:00:40Z</time>
      </trkpt>
      <trkpt lat="46.87735" lon="4.74738">
        <ele>254</ele>
        <time>2012-08-22T12:00:41Z</time>
      </trkpt>
      <trkpt lat="46.87733" lon="4.74717">
        <ele>255</ele>
        <time>2012-08-22T12:00:42Z</time>
      </trkpt>
      <trkpt lat="46.87731" lon="4.74697">
        <ele>253</ele>
        <time>2012-08-22T12:00:43Z</time>
      </trkpt>
      <trkpt lat="46.8773" lon="4.74677">
        <ele>251</ele>
        <time>2012-08-22T12:00:44Z</time>
      </trkpt>
      <trkpt lat="46.8773" lon="4.74657">
        <ele>252</ele>
        <time>2012-08-22T12:00:45Z</time>
      </trkpt>
      <trkpt lat="46.8773" lon="4.74639">
        <ele>252</ele>
        <time>2012-08-22T12:00:46Z</time>
      </trkpt>
      <trkpt lat="46.8773" lon="4.74621">
        <ele>252</ele>
        <time>2012-08-22T12:00:47Z</time>
      </trkpt>
      <trkpt lat="46.87731" lon="4.74604">
        <ele>249</ele>
        <time>2012-08-22T12:00:48Z</time>
      </trkpt>
      <trkpt lat="46.87731" lon="4.74588">
        <ele>247</ele>
        <time>2012-08-22T12:00:49Z</time>
      </trkpt>
      <trkpt lat="46.8773" lon="4.74572">
        <ele>247</ele>
        <time>2012-08-22T12:00:50Z</time>
      </trkpt>
      <trkpt lat="46.87729" lon="4.74556">
        <ele>247</ele>
        <time>2012-08-22T12:00:51Z</time>
      </trkpt>
      <trkpt lat="46.87728" lon="4.7454">
        <ele>248</ele>
        <time>2012-08-22T12:00:52Z</time>
      </trkpt>
      <trkpt lat="46.87726" lon="4.74523">
        <ele>251</ele>
        <time>2012-08-22T12:00:53Z</time>
      </trkpt>
      <trkpt lat="46.87721" lon="4.74508">
        <ele>252</ele>
        <time>2012-08-22T12:00:54Z</time>
      </trkpt>
      <trkpt lat="46.87716" lon="4.74492">
        <ele>253</ele>
        <time>2012-08-22T12:00:55Z</time>
      </trkpt>
      <trkpt lat="46.8771" lon="4.74475">
        <ele>257</ele>
        <time>2012-08-22T12:00:56Z</time>
      </trkpt>
      <trkpt lat="46.87703" lon="4.74458">
        <ele>255</ele>
        <time>2012-08-22T12:00:57Z</time>
      </trkpt>
      <trkpt lat="46.87696" lon="4.74441">
        <ele>255</ele>
        <time>2012-08-22T12:00:58Z</time>
      </trkpt>
      <trkpt lat="46.8769" lon="4.74425">
        <ele>256</ele>
        <time>2012-08-22T12:00:59Z</time>
      </trkpt>
      <trkpt lat="46.87684" lon="4.74408">
        <ele>256</ele>
        <time>2012-08-22T12:01:00Z</time>
      </trkpt>
      <trkpt lat="46.87677" lon="4.7439">
        <ele>254</ele>
        <time>2012-08-22T12:01:01Z</time>
      </trkpt>
      <trkpt lat="46.87671" lon="4.74372">
        <ele>253</ele>
        <time>2012-08-22T12:01:02Z</time>
      </trkpt>
      <trkpt lat="46.87665" lon="4.74353">
        <ele>254</ele>
        <time>2012-08-22T12:01:03Z</time>
      </trkpt>
      <trkpt lat="46.8766" lon="4.74336">
        <ele>255</ele>
        <time>2012-08-22T12:01:04Z</time>
      </trkpt>
      <trkpt lat="46.87655" lon="4.74322">
        <ele>257</ele>
        <time>2012-08-22T12:01:05Z</time>
      </trkpt>
      <trkpt lat="46.8765" lon="4.74308">
        <ele>259</ele>
        <time>2012-08-22T12:01:06Z</time>
      </trkpt>
      <trkpt lat="46.87644" lon="4.74295">
        <ele>261</ele>
        <time>2012-08-22T12:01:07Z</time>
      </trkpt>
      <trkpt lat="46.8764" lon="4.74284">
        <ele>260</ele>
        <time>2012-08-22T12:01:08Z</time>
      </trkpt>
      <trkpt lat="46.87636" lon="4.74274">
        <ele>258</ele>
        <time>2012-08-22T12:01:09Z</time>
      </trkpt>
      <trkpt lat="46.87633" lon="4.74264">
        <ele>261</ele>
        <time>2012-08-22T12:01:10Z</time>
      </trkpt>
      <trkpt lat="46.8763" lon="4.74255">
        <ele>264</ele>
        <time>2012-08-22T12:01:11Z</time>
      </trkpt>
      <trkpt lat="46.87629" lon="4.74243">
        <ele>267</ele>
        <time>2012-08-22T12:01:12Z</time>
      </trkpt>
      <trkpt lat="46.87629" lon="4.74231">
        <ele>268</ele>
        <time>2012-08-22T12:01:13Z</time>
      </trkpt>
      <trkpt lat="46.87629" lon="4.74218">
        <ele>268</ele>
        <time>2012-08-22T12:01:14Z</time>
      </trkpt>
      <trkpt lat="46.87628" lon="4.74205">
        <ele>269</ele>
        <time>2012-08-22T12:01:15Z</time>
      </trkpt>
      <trkpt lat="46.87628" lon="4.74192">
        <ele>267</ele>
        <time>2012-08-22T12:01:16Z</time>
      </trkpt>
      <trkpt lat="46.87628" lon="4.74178">
        <ele>263</ele>
        <time>2012-08-22T12:01:17Z</time>
      </trkpt>
      <trkpt lat="46.87629" lon="4.74165">
        <ele>262</ele>
        <time>2012-08-22T12:01:18Z</time>
      </trkpt>
      <trkpt lat="46.87633" lon="4.74151">
        <ele>265</ele>
        <time>2012-08-22T12:01:19Z</time>
      </trkpt>
      <trkpt lat="46.87637" lon="4.74136">
        <ele>263</ele>
        <time>2012-08-22T12:01:20Z</time>
      </trkpt>
      <trkpt lat="46.87642" lon="4.74119">
        <ele>266</ele>
        <time>2012-08-22T12:01:21Z</time>
      </trkpt>
      <trkpt lat="46.87647" lon="4.74105">
        <ele>270</ele>
        <time>2012-08-22T12:01:22Z</time>
      </trkpt>
      <trkpt lat="46.8765" lon="4.74092">
        <ele>269</ele>
        <time>2012-08-22T12:01:23Z</time>
      </trkpt>
      <trkpt lat="46.87652" lon="4.74081">
        <ele>269</ele>
        <time>2012-08-22T12:01:24Z</time>
      </trkpt>
      <trkpt lat="46.87653" lon="4.74074">
        <ele>272</ele>
        <time>2012-08-22T12:01:25Z</time>
      </trkpt>
      <trkpt lat="46.87654" lon="4.74067">
        <ele>269</ele>
        <time>2012-08-22T12:01:26Z</time>
      </trkpt>
      <trkpt lat="46.87652" lon="4.7406">
        <ele>265</ele>
        <time>2012-08-22T12:01:27Z</time>
      </trkpt>
      <trkpt lat="46.87648" lon="4.74051">
        <ele>259</ele>
        <time>2012-08-22T12:01:28Z</time>
      </trkpt>
      <trkpt lat="46.87644" lon="4.74041">
        <ele>257</ele>
        <time>2012-08-22T12:01:29Z</time>
      </trkpt>
      <trkpt lat="46.8764" lon="4.74031">
        <ele>257</ele>
        <time>2012-08-22T12:01:30Z</time>
      </trkpt>
      <trkpt lat="46.87634" lon="4.74019">
        <ele>257</ele>
        <time>2012-08-22T12:01:31Z</time>
      </trkpt>
      <trkpt lat="46.87627" lon="4.74006">
        <ele>256</ele>
        <time>2012-08-22T12:01:32Z</time>
      </trkpt>
      <trkpt lat="46.87619" lon="4.73993">
        <ele>258</ele>
        <time>2012-08-22T12:01:33Z</time>
      </trkpt>
      <trkpt lat="46.87612" lon="4.73982">
        <ele>260</ele>
        <time>2012-08-22T12:01:34Z</time>
      </trkpt>
      <trkpt lat="46.87608" lon="4.73976">
        <ele>262</ele>
        <time>2012-08-22T12:01:35Z</time>
      </trkpt>
      <trkpt lat="46.87604" lon="4.73966">
        <ele>262</ele>
        <time>2012-08-22T12:01:37Z</time>
      </trkpt>
      <trkpt lat="46.87603" lon="4.7395">
        <ele>259</ele>
        <time>2012-08-22T12:01:39Z</time>
      </trkpt>
      <trkpt lat="46.87607" lon="4.73942">
        <ele>258</ele>
        <time>2012-08-22T12:01:40Z</time>
      </trkpt>
      <trkpt lat="46.87611" lon="4.73932">
        <ele>259</ele>
        <time>2012-08-22T12:01:41Z</time>
      </trkpt>
      <trkpt lat="46.87617" lon="4.73918">
        <ele>261</ele>
        <time>2012-08-22T12:01:42Z</time>
      </trkpt>
      <trkpt lat="46.87623" lon="4.73903">
        <ele>259</ele>
        <time>2012-08-22T12:01:43Z</time>
      </trkpt>
      <trkpt lat="46.8763" lon="4.73888">
        <ele>261</ele>
        <time>2012-08-22T12:01:44Z</time>
      </trkpt>
      <trkpt lat="46.87637" lon="4.73873">
        <ele>261</ele>
        <time>2012-08-22T12:01:45Z</time>
      </trkpt>
      <trkpt lat="46.87643" lon="4.7386">
        <ele>260</ele>
        <time>2012-08-22T12:01:46Z</time>
      </trkpt>
      <trkpt lat="46.87648" lon="4.7385">
        <ele>259</ele>
        <time>2012-08-22T12:01:47Z</time>
      </trkpt>
      <trkpt lat="46.87653" lon="4.73839">
        <ele>261</ele>
        <time>2012-08-22T12:01:48Z</time>
      </trkpt>
      <trkpt lat="46.87656" lon="4.7383">
        <ele>260</ele>
        <time>2012-08-22T12:01:49Z</time>
      </trkpt>
      <trkpt lat="46.8766" lon="4.73818">
        <ele>259</ele>
        <time>2012-08-22T12:01:50Z</time>
      </trkpt>
      <trkpt lat="46.87663" lon="4.73807">
        <ele>258</ele>
        <time>2012-08-22T12:01:51Z</time>
      </trkpt>
      <trkpt lat="46.87668" lon="4.73793">
        <ele>257</ele>
        <time>2012-08-22T12:01:52Z</time>
      </trkpt>
      <trkpt lat="46.87673" lon="4.73779">
        <ele>258</ele>
        <time>2012-08-22T12:01:53Z</time>
      </trkpt>
      <trkpt lat="46.87679" lon="4.73763">
        <ele>257</ele>
        <time>2012-08-22T12:01:54Z</time>
      </trkpt>
      <trkpt lat="46.87686" lon="4.73749">
        <ele>260</ele>
        <time>2012-08-22T12:01:55Z</time>
      </trkpt>
      <trkpt lat="46.87692" lon="4.73736">
        <ele>262</ele>
        <time>2012-08-22T12:01:56Z</time>
      </trkpt>
      <trkpt lat="46.87699" lon="4.73724">
        <ele>262</ele>
        <time>2012-08-22T12:01:57Z</time>
      </trkpt>
      <trkpt lat="46.87705" lon="4.73714">
        <ele>263</ele>
        <time>2012-08-22T12:01:58Z</time>
      </trkpt>
      <trkpt lat="46.87712" lon="4.73704">
        <ele>265</ele>
        <time>2012-08-22T12:01:59Z</time>
      </trkpt>
      <trkpt lat="46.87718" lon="4.73696">
        <ele>265</ele>
        <time>2012-08-22T12:02:00Z</time>
      </trkpt>
      <trkpt lat="46.87723" lon="4.73689">
        <ele>266</ele>
        <time>2012-08-22T12:02:01Z</time>
      </trkpt>
      <trkpt lat="46.87729" lon="4.73685">
        <ele>265</ele>
        <time>2012-08-22T12:02:02Z</time>
      </trkpt>
      <trkpt lat="46.87734" lon="4.73682">
        <ele>266</ele>
        <time>2012-08-22T12:02:03Z</time>
      </trkpt>
      <trkpt lat="46.8774" lon="4.73682">
        <ele>267</ele>
        <time>2012-08-22T12:02:04Z</time>
      </trkpt>
      <trkpt lat="46.87746" lon="4.73682">
        <ele>269</ele>
        <time>2012-08-22T12:02:05Z</time>
      </trkpt>
      <trkpt lat="46.87752" lon="4.73681">
        <ele>269</ele>
        <time>2012-08-22T12:02:06Z</time>
      </trkpt>
      <trkpt lat="46.8776" lon="4.7368">
        <ele>271</ele>
        <time>2012-08-22T12:02:07Z</time>
      </trkpt>
      <trkpt lat="46.87771" lon="4.73679">
        <ele>272</ele>
        <time>2012-08-22T12:02:08Z</time>
      </trkpt>
      <trkpt lat="46.87781" lon="4.73678">
        <ele>273</ele>
        <time>2012-08-22T12:02:09Z</time>
      </trkpt>
      <trkpt lat="46.87793" lon="4.73677">
        <ele>272</ele>
        <time>2012-08-22T12:02:10Z</time>
      </trkpt>
      <trkpt lat="46.87804" lon="4.73676">
        <ele>270</ele>
        <time>2012-08-22T12:02:11Z</time>
      </trkpt>
      <trkpt lat="46.87815" lon="4.73674">
        <ele>269</ele>
        <time>2012-08-22T12:02:12Z</time>
      </trkpt>
      <trkpt lat="46.87827" lon="4.73673">
        <ele>270</ele>
        <time>2012-08-22T12:02:13Z</time>
      </trkpt>
      <trkpt lat="46.87839" lon="4.7367">
        <ele>273</ele>
        <time>2012-08-22T12:02:14Z</time>
      </trkpt>
      <trkpt lat="46.87852" lon="4.73669">
        <ele>270</ele>
        <time>2012-08-22T12:02:15Z</time>
      </trkpt>
      <trkpt lat="46.87864" lon="4.73668">
        <ele>273</ele>
        <time>2012-08-22T12:02:16Z</time>
      </trkpt>
      <trkpt lat="46.87874" lon="4.73667">
        <ele>272</ele>
        <time>2012-08-22T12:02:17Z</time>
      </trkpt>
      <trkpt lat="46.87885" lon="4.7367">
        <ele>272</ele>
        <time>2012-08-22T12:02:18Z</time>
      </trkpt>
      <trkpt lat="46.87896" lon="4.73673">
        <ele>269</ele>
        <time>2012-08-22T12:02:19Z</time>
      </trkpt>
      <trkpt lat="46.87905" lon="4.73676">
        <ele>268</ele>
        <time>2012-08-22T12:02:20Z</time>
      </trkpt>
      <trkpt lat="46.87912" lon="4.73681">
        <ele>269</ele>
        <time>2012-08-22T12:02:21Z</time>
      </trkpt>
      <trkpt lat="46.87917" lon="4.73686">
        <ele>269</ele>
        <time>2012-08-22T12:02:22Z</time>
      </trkpt>
      <trkpt lat="46.8792" lon="4.73692">
        <ele>268</ele>
        <time>2012-08-22T12:02:23Z</time>
      </trkpt>
      <trkpt lat="46.87924" lon="4.73702">
        <ele>267</ele>
        <time>2012-08-22T12:02:25Z</time>
      </trkpt>
      <trkpt lat="46.87926" lon="4.73708">
        <ele>267</ele>
        <time>2012-08-22T12:02:26Z</time>
      </trkpt>
      <trkpt lat="46.87927" lon="4.73716">
        <ele>267</ele>
        <time>2012-08-22T12:02:27Z</time>
      </trkpt>
      <trkpt lat="46.87929" lon="4.73725">
        <ele>265</ele>
        <time>2012-08-22T12:02:28Z</time>
      </trkpt>
      <trkpt lat="46.87931" lon="4.73734">
        <ele>265</ele>
        <time>2012-08-22T12:02:29Z</time>
      </trkpt>
      <trkpt lat="46.87934" lon="4.73743">
        <ele>264</ele>
        <time>2012-08-22T12:02:30Z</time>
      </trkpt>
      <trkpt lat="46.87936" lon="4.7375">
        <ele>265</ele>
        <time>2012-08-22T12:02:31Z</time>
      </trkpt>
      <trkpt lat="46.87939" lon="4.73758">
        <ele>266</ele>
        <time>2012-08-22T12:02:32Z</time>
      </trkpt>
      <trkpt lat="46.87944" lon="4.73767">
        <ele>267</ele>
        <time>2012-08-22T12:02:33Z</time>
      </trkpt>
      <trkpt lat="46.87949" lon="4.73778">
        <ele>272</ele>
        <time>2012-08-22T12:02:34Z</time>
      </trkpt>
      <trkpt lat="46.87956" lon="4.73789">
        <ele>270</ele>
        <time>2012-08-22T12:02:35Z</time>
      </trkpt>
      <trkpt lat="46.87963" lon="4.738">
        <ele>275</ele>
        <time>2012-08-22T12:02:36Z</time>
      </trkpt>
      <trkpt lat="46.8797" lon="4.7381">
        <ele>276</ele>
        <time>2012-08-22T12:02:37Z</time>
      </trkpt>
      <trkpt lat="46.87977" lon="4.73819">
        <ele>275</ele>
        <time>2012-08-22T12:02:38Z</time>
      </trkpt>
      <trkpt lat="46.87983" lon="4.73826">
        <ele>277</ele>
        <time>2012-08-22T12:02:39Z</time>
      </trkpt>
      <trkpt lat="46.87989" lon="4.73831">
        <ele>282</ele>
        <time>2012-08-22T12:02:40Z</time>
      </trkpt>
      <trkpt lat="46.87995" lon="4.73835">
        <ele>281</ele>
        <time>2012-08-22T12:02:41Z</time>
      </trkpt>
      <trkpt lat="46.88003" lon="4.73837">
        <ele>280</ele>
        <time>2012-08-22T12:02:42Z</time>
      </trkpt>
      <trkpt lat="46.88012" lon="4.73838">
        <ele>282</ele>
        <time>2012-08-22T12:02:43Z</time>
      </trkpt>
      <trkpt lat="46.88021" lon="4.7384">
        <ele>286</ele>
        <time>2012-08-22T12:02:44Z</time>
      </trkpt>
      <trkpt lat="46.88032" lon="4.73842">
        <ele>285</ele>
        <time>2012-08-22T12:02:45Z</time>
      </trkpt>
      <trkpt lat="46.88041" lon="4.73844">
        <ele>285</ele>
        <time>2012-08-22T12:02:46Z</time>
      </trkpt>
      <trkpt lat="46.8805" lon="4.73847">
        <ele>281</ele>
        <time>2012-08-22T12:02:47Z</time>
      </trkpt>
      <trkpt lat="46.88058" lon="4.73849">
        <ele>281</ele>
        <time>2012-08-22T12:02:48Z</time>
      </trkpt>
      <trkpt lat="46.88064" lon="4.73852">
        <ele>278</ele>
        <time>2012-08-22T12:02:49Z</time>
      </trkpt>
      <trkpt lat="46.88071" lon="4.73852">
        <ele>281</ele>
        <time>2012-08-22T12:02:51Z</time>
      </trkpt>
      <trkpt lat="46.88076" lon="4.73849">
        <ele>285</ele>
        <time>2012-08-22T12:02:53Z</time>
      </trkpt>
      <trkpt lat="46.88082" lon="4.73841">
        <ele>287</ele>
        <time>2012-08-22T12:02:55Z</time>
      </trkpt>
      <trkpt lat="46.88086" lon="4.73834">
        <ele>292</ele>
        <time>2012-08-22T12:02:56Z</time>
      </trkpt>
      <trkpt lat="46.88088" lon="4.73828">
        <ele>292</ele>
        <time>2012-08-22T12:02:57Z</time>
      </trkpt>
      <trkpt lat="46.8809" lon="4.73821">
        <ele>291</ele>
        <time>2012-08-22T12:02:58Z</time>
      </trkpt>
      <trkpt lat="46.88092" lon="4.73814">
        <ele>291</ele>
        <time>2012-08-22T12:02:59Z</time>
      </trkpt>
      <trkpt lat="46.88095" lon="4.73808">
        <ele>288</ele>
        <time>2012-08-22T12:03:00Z</time>
      </trkpt>
      <trkpt lat="46.88098" lon="4.73803">
        <ele>293</ele>
        <time>2012-08-22T12:03:01Z</time>
      </trkpt>
      <trkpt lat="46.88101" lon="4.73797">
        <ele>296</ele>
        <time>2012-08-22T12:03:02Z</time>
      </trkpt>
      <trkpt lat="46.88105" lon="4.73793">
        <ele>295</ele>
        <time>2012-08-22T12:03:03Z</time>
      </trkpt>
      <trkpt lat="46.8811" lon="4.73789">
        <ele>292</ele>
        <time>2012-08-22T12:03:04Z</time>
      </trkpt>
      <trkpt lat="46.88114" lon="4.73786">
        <ele>291</ele>
        <time>2012-08-22T12:03:05Z</time>
      </trkpt>
      <trkpt lat="46.88122" lon="4.73779">
        <ele>289</ele>
        <time>2012-08-22T12:03:07Z</time>
      </trkpt>
      <trkpt lat="46.88126" lon="4.73776">
        <ele>289</ele>
        <time>2012-08-22T12:03:08Z</time>
      </trkpt>
      <trkpt lat="46.88131" lon="4.73773">
        <ele>289</ele>
        <time>2012-08-22T12:03:09Z</time>
      </trkpt>
      <trkpt lat="46.88136" lon="4.7377">
        <ele>291</ele>
        <time>2012-08-22T12:03:10Z</time>
      </trkpt>
      <trkpt lat="46.88141" lon="4.73767">
        <ele>292</ele>
        <time>2012-08-22T12:03:11Z</time>
      </trkpt>
      <trkpt lat="46.88146" lon="4.73765">
        <ele>291</ele>
        <time>2012-08-22T12:03:12Z</time>
      </trkpt>
      <trkpt lat="46.88155" lon="4.73762">
        <ele>290</ele>
        <time>2012-08-22T12:03:14Z</time>
      </trkpt>
      <trkpt lat="46.8816" lon="4.73762">
        <ele>290</ele>
        <time>2012-08-22T12:03:15Z</time>
      </trkpt>
      <trkpt lat="46.88165" lon="4.73764">
        <ele>295</ele>
        <time>2012-08-22T12:03:16Z</time>
      </trkpt>
      <trkpt lat="46.8817" lon="4.73765">
        <ele>296</ele>
        <time>2012-08-22T12:03:17Z</time>
      </trkpt>
      <trkpt lat="46.88174" lon="4.73766">
        <ele>294</ele>
        <time>2012-08-22T12:03:18Z</time>
      </trkpt>
      <trkpt lat="46.8818" lon="4.73766">
        <ele>296</ele>
        <time>2012-08-22T12:03:19Z</time>
      </trkpt>
      <trkpt lat="46.88184" lon="4.73767">
        <ele>298</ele>
        <time>2012-08-22T12:03:20Z</time>
      </trkpt>
      <trkpt lat="46.88189" lon="4.73767">
        <ele>299</ele>
        <time>2012-08-22T12:03:21Z</time>
      </trkpt>
      <trkpt lat="46.88194" lon="4.73767">
        <ele>300</ele>
        <time>2012-08-22T12:03:22Z</time>
      </trkpt>
      <trkpt lat="46.882" lon="4.73767">
        <ele>299</ele>
        <time>2012-08-22T12:03:23Z</time>
      </trkpt>
      <trkpt lat="46.88204" lon="4.73767">
        <ele>302</ele>
        <time>2012-08-22T12:03:24Z</time>
      </trkpt>
      <trkpt lat="46.88208" lon="4.73769">
        <ele>302</ele>
        <time>2012-08-22T12:03:25Z</time>
      </trkpt>
      <trkpt lat="46.88213" lon="4.73771">
        <ele>303</ele>
        <time>2012-08-22T12:03:26Z</time>
      </trkpt>
      <trkpt lat="46.8822" lon="4.73777">
        <ele>304</ele>
        <time>2012-08-22T12:03:28Z</time>
      </trkpt>
      <trkpt lat="46.88225" lon="4.73782">
        <ele>303</ele>
        <time>2012-08-22T12:03:29Z</time>
      </trkpt>
      <trkpt lat="46.88229" lon="4.73786">
        <ele>303</ele>
        <time>2012-08-22T12:03:30Z</time>
      </trkpt>
      <trkpt lat="46.88234" lon="4.7379">
        <ele>304</ele>
        <time>2012-08-22T12:03:31Z</time>
      </trkpt>
      <trkpt lat="46.8824" lon="4.73791">
        <ele>306</ele>
        <time>2012-08-22T12:03:32Z</time>
      </trkpt>
      <trkpt lat="46.88246" lon="4.73791">
        <ele>306</ele>
        <time>2012-08-22T12:03:33Z</time>
      </trkpt>
      <trkpt lat="46.88252" lon="4.73792">
        <ele>305</ele>
        <time>2012-08-22T12:03:34Z</time>
      </trkpt>
      <trkpt lat="46.88256" lon="4.73792">
        <ele>303</ele>
        <time>2012-08-22T12:03:35Z</time>
      </trkpt>
      <trkpt lat="46.88264" lon="4.738">
        <ele>306</ele>
        <time>2012-08-22T12:03:37Z</time>
      </trkpt>
      <trkpt lat="46.8827" lon="4.73806">
        <ele>304</ele>
        <time>2012-08-22T12:03:38Z</time>
      </trkpt>
      <trkpt lat="46.88275" lon="4.73812">
        <ele>302</ele>
        <time>2012-08-22T12:03:39Z</time>
      </trkpt>
      <trkpt lat="46.88281" lon="4.73819">
        <ele>301</ele>
        <time>2012-08-22T12:03:40Z</time>
      </trkpt>
      <trkpt lat="46.88286" lon="4.73825">
        <ele>303</ele>
        <time>2012-08-22T12:03:41Z</time>
      </trkpt>
      <trkpt lat="46.88291" lon="4.73833">
        <ele>304</ele>
        <time>2012-08-22T12:03:42Z</time>
      </trkpt>
      <trkpt lat="46.88296" lon="4.7384">
        <ele>306</ele>
        <time>2012-08-22T12:03:43Z</time>
      </trkpt>
      <trkpt lat="46.883" lon="4.73847">
        <ele>305</ele>
        <time>2012-08-22T12:03:44Z</time>
      </trkpt>
      <trkpt lat="46.88304" lon="4.73853">
        <ele>308</ele>
        <time>2012-08-22T12:03:45Z</time>
      </trkpt>
      <trkpt lat="46.88309" lon="4.73856">
        <ele>306</ele>
        <time>2012-08-22T12:03:46Z</time>
      </trkpt>
      <trkpt lat="46.88314" lon="4.73859">
        <ele>307</ele>
        <time>2012-08-22T12:03:47Z</time>
      </trkpt>
      <trkpt lat="46.8832" lon="4.73863">
        <ele>307</ele>
        <time>2012-08-22T12:03:48Z</time>
      </trkpt>
      <trkpt lat="46.88326" lon="4.73866">
        <ele>308</ele>
        <time>2012-08-22T12:03:49Z</time>
      </trkpt>
      <trkpt lat="46.88331" lon="4.7387">
        <ele>310</ele>
        <time>2012-08-22T12:03:50Z</time>
      </trkpt>
      <trkpt lat="46.88336" lon="4.73873">
        <ele>311</ele>
        <time>2012-08-22T12:03:51Z</time>
      </trkpt>
      <trkpt lat="46.88342" lon="4.73876">
        <ele>309</ele>
        <time>2012-08-22T12:03:52Z</time>
      </trkpt>
      <trkpt lat="46.88348" lon="4.7388">
        <ele>309</ele>
        <time>2012-08-22T12:03:53Z</time>
      </trkpt>
      <trkpt lat="46.88352" lon="4.73883">
        <ele>310</ele>
        <time>2012-08-22T12:03:54Z</time>
      </trkpt>
      <trkpt lat="46.88356" lon="4.73885">
        <ele>309</ele>
        <time>2012-08-22T12:03:55Z</time>
      </trkpt>
      <trkpt lat="46.88362" lon="4.73887">
        <ele>306</ele>
        <time>2012-08-22T12:03:57Z</time>
      </trkpt>
      <trkpt lat="46.88368" lon="4.73892">
        <ele>305</ele>
        <time>2012-08-22T12:03:59Z</time>
      </trkpt>
      <trkpt lat="46.88375" lon="4.73887">
        <ele>319</ele>
        <time>2012-08-22T12:07:37Z</time>
      </trkpt>
      <trkpt lat="46.88374" lon="4.73879">
        <ele>319</ele>
        <time>2012-08-22T12:07:39Z</time>
      </trkpt>
      <trkpt lat="46.88373" lon="4.7387">
        <ele>322</ele>
        <time>2012-08-22T12:07:41Z</time>
      </trkpt>
      <trkpt lat="46.88371" lon="4.73861">
        <ele>318</ele>
        <time>2012-08-22T12:07:43Z</time>
      </trkpt>
      <trkpt lat="46.88368" lon="4.7385">
        <ele>320</ele>
        <time>2012-08-22T12:07:45Z</time>
      </trkpt>
      <trkpt lat="46.88365" lon="4.7384">
        <ele>317</ele>
        <time>2012-08-22T12:07:47Z</time>
      </trkpt>
      <trkpt lat="46.88362" lon="4.7383">
        <ele>319</ele>
        <time>2012-08-22T12:07:49Z</time>
      </trkpt>
      <trkpt lat="46.88357" lon="4.73818">
        <ele>315</ele>
        <time>2012-08-22T12:07:51Z</time>
      </trkpt>
      <trkpt lat="46.88355" lon="4.73811">
        <ele>316</ele>
        <time>2012-08-22T12:07:52Z</time>
      </trkpt>
      <trkpt lat="46.88353" lon="4.73805">
        <ele>318</ele>
        <time>2012-08-22T12:07:53Z</time>
      </trkpt>
      <trkpt lat="46.8835" lon="4.73797">
        <ele>322</ele>
        <time>2012-08-22T12:07:54Z</time>
      </trkpt>
      <trkpt lat="46.88348" lon="4.7379">
        <ele>325</ele>
        <time>2012-08-22T12:07:55Z</time>
      </trkpt>
      <trkpt lat="46.88345" lon="4.73782">
        <ele>324</ele>
        <time>2012-08-22T12:07:56Z</time>
      </trkpt>
      <trkpt lat="46.88344" lon="4.73774">
        <ele>325</ele>
        <time>2012-08-22T12:07:57Z</time>
      </trkpt>
      <trkpt lat="46.88344" lon="4.7376">
        <ele>329</ele>
        <time>2012-08-22T12:07:59Z</time>
      </trkpt>
      <trkpt lat="46.88343" lon="4.73753">
        <ele>330</ele>
        <time>2012-08-22T12:08:00Z</time>
      </trkpt>
      <trkpt lat="46.88343" lon="4.73746">
        <ele>331</ele>
        <time>2012-08-22T12:08:01Z</time>
      </trkpt>
      <trkpt lat="46.88342" lon="4.73739">
        <ele>331</ele>
        <time>2012-08-22T12:08:02Z</time>
      </trkpt>
      <trkpt lat="46.88342" lon="4.73732">
        <ele>334</ele>
        <time>2012-08-22T12:08:03Z</time>
      </trkpt>
      <trkpt lat="46.88341" lon="4.73726">
        <ele>333</ele>
        <time>2012-08-22T12:08:04Z</time>
      </trkpt>
      <trkpt lat="46.8834" lon="4.73719">
        <ele>334</ele>
        <time>2012-08-22T12:08:05Z</time>
      </trkpt>
      <trkpt lat="46.88339" lon="4.73712">
        <ele>332</ele>
        <time>2012-08-22T12:08:06Z</time>
      </trkpt>
      <trkpt lat="46.88337" lon="4.73706">
        <ele>331</ele>
        <time>2012-08-22T12:08:07Z</time>
      </trkpt>
      <trkpt lat="46.88335" lon="4.73699">
        <ele>333</ele>
        <time>2012-08-22T12:08:08Z</time>
      </trkpt>
      <trkpt lat="46.88333" lon="4.73692">
        <ele>334</ele>
        <time>2012-08-22T12:08:09Z</time>
      </trkpt>
      <trkpt lat="46.88331" lon="4.73685">
        <ele>332</ele>
        <time>2012-08-22T12:08:10Z</time>
      </trkpt>
      <trkpt lat="46.88329" lon="4.73677">
        <ele>331</ele>
        <time>2012-08-22T12:08:11Z</time>
      </trkpt>
      <trkpt lat="46.88327" lon="4.7367">
        <ele>331</ele>
        <time>2012-08-22T12:08:12Z</time>
      </trkpt>
      <trkpt lat="46.88325" lon="4.73662">
        <ele>332</ele>
        <time>2012-08-22T12:08:13Z</time>
      </trkpt>
      <trkpt lat="46.88323" lon="4.73655">
        <ele>333</ele>
        <time>2012-08-22T12:08:14Z</time>
      </trkpt>
      <trkpt lat="46.88321" lon="4.73648">
        <ele>334</ele>
        <time>2012-08-22T12:08:15Z</time>
      </trkpt>
      <trkpt lat="46.8832" lon="4.73641">
        <ele>334</ele>
        <time>2012-08-22T12:08:16Z</time>
      </trkpt>
      <trkpt lat="46.88318" lon="4.73634">
        <ele>332</ele>
        <time>2012-08-22T12:08:17Z</time>
      </trkpt>
      <trkpt lat="46.88316" lon="4.73622">
        <ele>332</ele>
        <time>2012-08-22T12:08:19Z</time>
      </trkpt>
      <trkpt lat="46.88314" lon="4.7361">
        <ele>334</ele>
        <time>2012-08-22T12:08:21Z</time>
      </trkpt>
      <trkpt lat="46.88311" lon="4.73597">
        <ele>336</ele>
        <time>2012-08-22T12:08:23Z</time>
      </trkpt>
      <trkpt lat="46.88309" lon="4.73591">
        <ele>334</ele>
        <time>2012-08-22T12:08:24Z</time>
      </trkpt>
      <trkpt lat="46.88306" lon="4.73584">
        <ele>334</ele>
        <time>2012-08-22T12:08:25Z</time>
      </trkpt>
      <trkpt lat="46.88304" lon="4.73577">
        <ele>335</ele>
        <time>2012-08-22T12:08:26Z</time>
      </trkpt>
      <trkpt lat="46.88302" lon="4.73571">
        <ele>337</ele>
        <time>2012-08-22T12:08:27Z</time>
      </trkpt>
      <trkpt lat="46.88301" lon="4.73564">
        <ele>335</ele>
        <time>2012-08-22T12:08:28Z</time>
      </trkpt>
      <trkpt lat="46.88301" lon="4.73557">
        <ele>337</ele>
        <time>2012-08-22T12:08:29Z</time>
      </trkpt>
      <trkpt lat="46.88301" lon="4.73549">
        <ele>340</ele>
        <time>2012-08-22T12:08:31Z</time>
      </trkpt>
      <trkpt lat="46.88301" lon="4.73542">
        <ele>345</ele>
        <time>2012-08-22T12:08:33Z</time>
      </trkpt>
      <trkpt lat="46.88302" lon="4.73534">
        <ele>347</ele>
        <time>2012-08-22T12:08:35Z</time>
      </trkpt>
      <trkpt lat="46.88302" lon="4.73526">
        <ele>346</ele>
        <time>2012-08-22T12:08:37Z</time>
      </trkpt>
      <trkpt lat="46.883" lon="4.73516">
        <ele>345</ele>
        <time>2012-08-22T12:08:39Z</time>
      </trkpt>
      <trkpt lat="46.88298" lon="4.73506">
        <ele>349</ele>
        <time>2012-08-22T12:08:42Z</time>
      </trkpt>
      <trkpt lat="46.88298" lon="4.73495">
        <ele>350</ele>
        <time>2012-08-22T12:08:44Z</time>
      </trkpt>
      <trkpt lat="46.88297" lon="4.73487">
        <ele>351</ele>
        <time>2012-08-22T12:08:46Z</time>
      </trkpt>
      <trkpt lat="46.88294" lon="4.7348">
        <ele>347</ele>
        <time>2012-08-22T12:08:49Z</time>
      </trkpt>
      <trkpt lat="46.88292" lon="4.73474">
        <ele>349</ele>
        <time>2012-08-22T12:08:51Z</time>
      </trkpt>
      <trkpt lat="46.88288" lon="4.73466">
        <ele>346</ele>
        <time>2012-08-22T12:08:53Z</time>
      </trkpt>
      <trkpt lat="46.8829" lon="4.7346">
        <ele>359</ele>
        <time>2012-08-22T12:09:27Z</time>
      </trkpt>
      <trkpt lat="46.88295" lon="4.73457">
        <ele>360</ele>
        <time>2012-08-22T12:09:29Z</time>
      </trkpt>
      <trkpt lat="46.88301" lon="4.73454">
        <ele>362</ele>
        <time>2012-08-22T12:09:31Z</time>
      </trkpt>
      <trkpt lat="46.88305" lon="4.7345">
        <ele>361</ele>
        <time>2012-08-22T12:09:33Z</time>
      </trkpt>
      <trkpt lat="46.8831" lon="4.73446">
        <ele>363</ele>
        <time>2012-08-22T12:09:35Z</time>
      </trkpt>
      <trkpt lat="46.88315" lon="4.73445">
        <ele>364</ele>
        <time>2012-08-22T12:09:47Z</time>
      </trkpt>
      <trkpt lat="46.88318" lon="4.73439">
        <ele>365</ele>
        <time>2012-08-22T12:09:51Z</time>
      </trkpt>
      <trkpt lat="46.88324" lon="4.73436">
        <ele>368</ele>
        <time>2012-08-22T12:09:54Z</time>
      </trkpt>
      <trkpt lat="46.88328" lon="4.73433">
        <ele>370</ele>
        <time>2012-08-22T12:09:56Z</time>
      </trkpt>
      <trkpt lat="46.88333" lon="4.73429">
        <ele>366</ele>
        <time>2012-08-22T12:09:59Z</time>
      </trkpt>
      <trkpt lat="46.88339" lon="4.73428">
        <ele>374</ele>
        <time>2012-08-22T12:10:02Z</time>
      </trkpt>
      <trkpt lat="46.88344" lon="4.73426">
        <ele>375</ele>
        <time>2012-08-22T12:10:04Z</time>
      </trkpt>
      <trkpt lat="46.88349" lon="4.73424">
        <ele>374</ele>
        <time>2012-08-22T12:10:06Z</time>
      </trkpt>
      <trkpt lat="46.88354" lon="4.73422">
        <ele>373</ele>
        <time>2012-08-22T12:10:08Z</time>
      </trkpt>
      <trkpt lat="46.88358" lon="4.73421">
        <ele>375</ele>
        <time>2012-08-22T12:10:10Z</time>
      </trkpt>
      <trkpt lat="46.88363" lon="4.73418">
        <ele>375</ele>
        <time>2012-08-22T12:10:12Z</time>
      </trkpt>
      <trkpt lat="46.88367" lon="4.73414">
        <ele>371</ele>
        <time>2012-08-22T12:10:15Z</time>
      </trkpt>
      <trkpt lat="46.88373" lon="4.7341">
        <ele>372</ele>
        <time>2012-08-22T12:10:18Z</time>
      </trkpt>
      <trkpt lat="46.88378" lon="4.73408">
        <ele>377</ele>
        <time>2012-08-22T12:10:20Z</time>
      </trkpt>
      <trkpt lat="46.88384" lon="4.73405">
        <ele>374</ele>
        <time>2012-08-22T12:10:22Z</time>
      </trkpt>
      <trkpt lat="46.8839" lon="4.73401">
        <ele>376</ele>
        <time>2012-08-22T12:10:24Z</time>
      </trkpt>
      <trkpt lat="46.88394" lon="4.73397">
        <ele>377</ele>
        <time>2012-08-22T12:10:25Z</time>
      </trkpt>
      <trkpt lat="46.88398" lon="4.73393">
        <ele>375</ele>
        <time>2012-08-22T12:10:26Z</time>
      </trkpt>
      <trkpt lat="46.88404" lon="4.73384">
        <ele>374</ele>
        <time>2012-08-22T12:10:28Z</time>
      </trkpt>
      <trkpt lat="46.8841" lon="4.73375">
        <ele>378</ele>
        <time>2012-08-22T12:10:30Z</time>
      </trkpt>
      <trkpt lat="46.88415" lon="4.73366">
        <ele>376</ele>
        <time>2012-08-22T12:10:32Z</time>
      </trkpt>
      <trkpt lat="46.88419" lon="4.73358">
        <ele>380</ele>
        <time>2012-08-22T12:10:34Z</time>
      </trkpt>
      <trkpt lat="46.88424" lon="4.73348">
        <ele>382</ele>
        <time>2012-08-22T12:10:36Z</time>
      </trkpt>
      <trkpt lat="46.88429" lon="4.73344">
        <ele>381</ele>
        <time>2012-08-22T12:10:38Z</time>
      </trkpt>
      <trkpt lat="46.88434" lon="4.73339">
        <ele>381</ele>
        <time>2012-08-22T12:10:40Z</time>
      </trkpt>
      <trkpt lat="46.8844" lon="4.73335">
        <ele>381</ele>
        <time>2012-08-22T12:10:42Z</time>
      </trkpt>
      <trkpt lat="46.88448" lon="4.7333">
        <ele>383</ele>
        <time>2012-08-22T12:10:44Z</time>
      </trkpt>
      <trkpt lat="46.88455" lon="4.73324">
        <ele>384</ele>
        <time>2012-08-22T12:10:46Z</time>
      </trkpt>
      <trkpt lat="46.88459" lon="4.73321">
        <ele>386</ele>
        <time>2012-08-22T12:10:47Z</time>
      </trkpt>
      <trkpt lat="46.88463" lon="4.73318">
        <ele>384</ele>
        <time>2012-08-22T12:10:48Z</time>
      </trkpt>
      <trkpt lat="46.88468" lon="4.73315">
        <ele>384</ele>
        <time>2012-08-22T12:10:49Z</time>
      </trkpt>
      <trkpt lat="46.88472" lon="4.73313">
        <ele>382</ele>
        <time>2012-08-22T12:10:50Z</time>
      </trkpt>
      <trkpt lat="46.88477" lon="4.73311">
        <ele>383</ele>
        <time>2012-08-22T12:10:51Z</time>
      </trkpt>
      <trkpt lat="46.88482" lon="4.73308">
        <ele>384</ele>
        <time>2012-08-22T12:10:52Z</time>
      </trkpt>
      <trkpt lat="46.88488" lon="4.73306">
        <ele>385</ele>
        <time>2012-08-22T12:10:53Z</time>
      </trkpt>
      <trkpt lat="46.88493" lon="4.73302">
        <ele>387</ele>
        <time>2012-08-22T12:10:54Z</time>
      </trkpt>
      <trkpt lat="46.88499" lon="4.73299">
        <ele>387</ele>
        <time>2012-08-22T12:10:55Z</time>
      </trkpt>
      <trkpt lat="46.88505" lon="4.73295">
        <ele>390</ele>
        <time>2012-08-22T12:10:56Z</time>
      </trkpt>
      <trkpt lat="46.8851" lon="4.73291">
        <ele>389</ele>
        <time>2012-08-22T12:10:57Z</time>
      </trkpt>
      <trkpt lat="46.88515" lon="4.73287">
        <ele>387</ele>
        <time>2012-08-22T12:10:58Z</time>
      </trkpt>
      <trkpt lat="46.88519" lon="4.73284">
        <ele>387</ele>
        <time>2012-08-22T12:10:59Z</time>
      </trkpt>
      <trkpt lat="46.88527" lon="4.73278">
        <ele>388</ele>
        <time>2012-08-22T12:11:01Z</time>
      </trkpt>
      <trkpt lat="46.88535" lon="4.73273">
        <ele>388</ele>
        <time>2012-08-22T12:11:03Z</time>
      </trkpt>
      <trkpt lat="46.88541" lon="4.73269">
        <ele>387</ele>
        <time>2012-08-22T12:11:04Z</time>
      </trkpt>
      <trkpt lat="46.88547" lon="4.73265">
        <ele>387</ele>
        <time>2012-08-22T12:11:05Z</time>
      </trkpt>
      <trkpt lat="46.88552" lon="4.73261">
        <ele>388</ele>
        <time>2012-08-22T12:11:06Z</time>
      </trkpt>
      <trkpt lat="46.88557" lon="4.73256">
        <ele>387</ele>
        <time>2012-08-22T12:11:07Z</time>
      </trkpt>
      <trkpt lat="46.88561" lon="4.73251">
        <ele>386</ele>
        <time>2012-08-22T12:11:08Z</time>
      </trkpt>
      <trkpt lat="46.88565" lon="4.73247">
        <ele>388</ele>
        <time>2012-08-22T12:11:09Z</time>
      </trkpt>
      <trkpt lat="46.88569" lon="4.73242">
        <ele>383</ele>
        <time>2012-08-22T12:11:10Z</time>
      </trkpt>
      <trkpt lat="46.88573" lon="4.73238">
        <ele>383</ele>
        <time>2012-08-22T12:11:11Z</time>
      </trkpt>
      <trkpt lat="46.88577" lon="4.73234">
        <ele>384</ele>
        <time>2012-08-22T12:11:12Z</time>
      </trkpt>
      <trkpt lat="46.88584" lon="4.73227">
        <ele>384</ele>
        <time>2012-08-22T12:11:14Z</time>
      </trkpt>
      <trkpt lat="46.88591" lon="4.73217">
        <ele>382</ele>
        <time>2012-08-22T12:11:16Z</time>
      </trkpt>
      <trkpt lat="46.88594" lon="4.73211">
        <ele>383</ele>
        <time>2012-08-22T12:11:17Z</time>
      </trkpt>
      <trkpt lat="46.88599" lon="4.73202">
        <ele>382</ele>
        <time>2012-08-22T12:11:18Z</time>
      </trkpt>
      <trkpt lat="46.88604" lon="4.73191">
        <ele>385</ele>
        <time>2012-08-22T12:11:19Z</time>
      </trkpt>
      <trkpt lat="46.8861" lon="4.73181">
        <ele>386</ele>
        <time>2012-08-22T12:11:20Z</time>
      </trkpt>
      <trkpt lat="46.88614" lon="4.73172">
        <ele>386</ele>
        <time>2012-08-22T12:11:21Z</time>
      </trkpt>
      <trkpt lat="46.88619" lon="4.73164">
        <ele>384</ele>
        <time>2012-08-22T12:11:22Z</time>
      </trkpt>
      <trkpt lat="46.88623" lon="4.73156">
        <ele>382</ele>
        <time>2012-08-22T12:11:23Z</time>
      </trkpt>
      <trkpt lat="46.88626" lon="4.73149">
        <ele>381</ele>
        <time>2012-08-22T12:11:24Z</time>
      </trkpt>
      <trkpt lat="46.8863" lon="4.7314">
        <ele>382</ele>
        <time>2012-08-22T12:11:26Z</time>
      </trkpt>
      <trkpt lat="46.88635" lon="4.73133">
        <ele>381</ele>
        <time>2012-08-22T12:11:28Z</time>
      </trkpt>
      <trkpt lat="46.88642" lon="4.73132">
        <ele>384</ele>
        <time>2012-08-22T12:11:30Z</time>
      </trkpt>
      <trkpt lat="46.88646" lon="4.73134">
        <ele>392</ele>
        <time>2012-08-22T12:11:35Z</time>
      </trkpt>
      <trkpt lat="46.88653" lon="4.73144">
        <ele>389</ele>
        <time>2012-08-22T12:11:37Z</time>
      </trkpt>
      <trkpt lat="46.88658" lon="4.73153">
        <ele>388</ele>
        <time>2012-08-22T12:11:38Z</time>
      </trkpt>
      <trkpt lat="46.88664" lon="4.73163">
        <ele>387</ele>
        <time>2012-08-22T12:11:39Z</time>
      </trkpt>
      <trkpt lat="46.88671" lon="4.73175">
        <ele>386</ele>
        <time>2012-08-22T12:11:40Z</time>
      </trkpt>
      <trkpt lat="46.88677" lon="4.73186">
        <ele>385</ele>
        <time>2012-08-22T12:11:41Z</time>
      </trkpt>
      <trkpt lat="46.88683" lon="4.73196">
        <ele>386</ele>
        <time>2012-08-22T12:11:42Z</time>
      </trkpt>
      <trkpt lat="46.88691" lon="4.73204">
        <ele>386</ele>
        <time>2012-08-22T12:11:43Z</time>
      </trkpt>
      <trkpt lat="46.88699" lon="4.73211">
        <ele>387</ele>
        <time>2012-08-22T12:11:44Z</time>
      </trkpt>
      <trkpt lat="46.88709" lon="4.73216">
        <ele>389</ele>
        <time>2012-08-22T12:11:45Z</time>
      </trkpt>
      <trkpt lat="46.88719" lon="4.73221">
        <ele>389</ele>
        <time>2012-08-22T12:11:46Z</time>
      </trkpt>
      <trkpt lat="46.88729" lon="4.73224">
        <ele>390</ele>
        <time>2012-08-22T12:11:47Z</time>
      </trkpt>
      <trkpt lat="46.8874" lon="4.73226">
        <ele>390</ele>
        <time>2012-08-22T12:11:48Z</time>
      </trkpt>
      <trkpt lat="46.88751" lon="4.73228">
        <ele>390</ele>
        <time>2012-08-22T12:11:49Z</time>
      </trkpt>
      <trkpt lat="46.8876" lon="4.7323">
        <ele>388</ele>
        <time>2012-08-22T12:11:50Z</time>
      </trkpt>
      <trkpt lat="46.88769" lon="4.73235">
        <ele>387</ele>
        <time>2012-08-22T12:11:51Z</time>
      </trkpt>
      <trkpt lat="46.88778" lon="4.7324">
        <ele>385</ele>
        <time>2012-08-22T12:11:52Z</time>
      </trkpt>
      <trkpt lat="46.88788" lon="4.73246">
        <ele>386</ele>
        <time>2012-08-22T12:11:53Z</time>
      </trkpt>
      <trkpt lat="46.88798" lon="4.73251">
        <ele>386</ele>
        <time>2012-08-22T12:11:54Z</time>
      </trkpt>
      <trkpt lat="46.8881" lon="4.73259">
        <ele>385</ele>
        <time>2012-08-22T12:11:55Z</time>
      </trkpt>
      <trkpt lat="46.88821" lon="4.73268">
        <ele>384</ele>
        <time>2012-08-22T12:11:56Z</time>
      </trkpt>
      <trkpt lat="46.88835" lon="4.7328">
        <ele>382</ele>
        <time>2012-08-22T12:11:57Z</time>
      </trkpt>
      <trkpt lat="46.88848" lon="4.73291">
        <ele>380</ele>
        <time>2012-08-22T12:11:58Z</time>
      </trkpt>
      <trkpt lat="46.8886" lon="4.73302">
        <ele>382</ele>
        <time>2012-08-22T12:11:59Z</time>
      </trkpt>
      <trkpt lat="46.88872" lon="4.73312">
        <ele>383</ele>
        <time>2012-08-22T12:12:00Z</time>
      </trkpt>
      <trkpt lat="46.88884" lon="4.73323">
        <ele>386</ele>
        <time>2012-08-22T12:12:01Z</time>
      </trkpt>
      <trkpt lat="46.88896" lon="4.73334">
        <ele>385</ele>
        <time>2012-08-22T12:12:02Z</time>
      </trkpt>
      <trkpt lat="46.88908" lon="4.73344">
        <ele>385</ele>
        <time>2012-08-22T12:12:03Z</time>
      </trkpt>
      <trkpt lat="46.88918" lon="4.73353">
        <ele>384</ele>
        <time>2012-08-22T12:12:04Z</time>
      </trkpt>
      <trkpt lat="46.88928" lon="4.7336">
        <ele>384</ele>
        <time>2012-08-22T12:12:05Z</time>
      </trkpt>
      <trkpt lat="46.8894" lon="4.73369">
        <ele>381</ele>
        <time>2012-08-22T12:12:06Z</time>
      </trkpt>
      <trkpt lat="46.8895" lon="4.73379">
        <ele>382</ele>
        <time>2012-08-22T12:12:07Z</time>
      </trkpt>
      <trkpt lat="46.8896" lon="4.73388">
        <ele>382</ele>
        <time>2012-08-22T12:12:08Z</time>
      </trkpt>
      <trkpt lat="46.8897" lon="4.73398">
        <ele>382</ele>
        <time>2012-08-22T12:12:09Z</time>
      </trkpt>
      <trkpt lat="46.8898" lon="4.73408">
        <ele>380</ele>
        <time>2012-08-22T12:12:10Z</time>
      </trkpt>
      <trkpt lat="46.8899" lon="4.73417">
        <ele>379</ele>
        <time>2012-08-22T12:12:11Z</time>
      </trkpt>
      <trkpt lat="46.88999" lon="4.73424">
        <ele>379</ele>
        <time>2012-08-22T12:12:12Z</time>
      </trkpt>
      <trkpt lat="46.89008" lon="4.7343">
        <ele>379</ele>
        <time>2012-08-22T12:12:13Z</time>
      </trkpt>
      <trkpt lat="46.89016" lon="4.73434">
        <ele>378</ele>
        <time>2012-08-22T12:12:14Z</time>
      </trkpt>
      <trkpt lat="46.89025" lon="4.73439">
        <ele>378</ele>
        <time>2012-08-22T12:12:15Z</time>
      </trkpt>
      <trkpt lat="46.89035" lon="4.73442">
        <ele>377</ele>
        <time>2012-08-22T12:12:16Z</time>
      </trkpt>
      <trkpt lat="46.89044" lon="4.73444">
        <ele>376</ele>
        <time>2012-08-22T12:12:17Z</time>
      </trkpt>
      <trkpt lat="46.89052" lon="4.73446">
        <ele>375</ele>
        <time>2012-08-22T12:12:18Z</time>
      </trkpt>
      <trkpt lat="46.8906" lon="4.73447">
        <ele>375</ele>
        <time>2012-08-22T12:12:19Z</time>
      </trkpt>
      <trkpt lat="46.89068" lon="4.7345">
        <ele>371</ele>
        <time>2012-08-22T12:12:20Z</time>
      </trkpt>
      <trkpt lat="46.89076" lon="4.73454">
        <ele>367</ele>
        <time>2012-08-22T12:12:21Z</time>
      </trkpt>
      <trkpt lat="46.8908" lon="4.73457">
        <ele>366</ele>
        <time>2012-08-22T12:12:22Z</time>
      </trkpt>
      <trkpt lat="46.89084" lon="4.73463">
        <ele>365</ele>
        <time>2012-08-22T12:12:23Z</time>
      </trkpt>
      <trkpt lat="46.89087" lon="4.73471">
        <ele>363</ele>
        <time>2012-08-22T12:12:24Z</time>
      </trkpt>
      <trkpt lat="46.8909" lon="4.73481">
        <ele>363</ele>
        <time>2012-08-22T12:12:25Z</time>
      </trkpt>
      <trkpt lat="46.89094" lon="4.73491">
        <ele>363</ele>
        <time>2012-08-22T12:12:26Z</time>
      </trkpt>
      <trkpt lat="46.89097" lon="4.73501">
        <ele>363</ele>
        <time>2012-08-22T12:12:27Z</time>
      </trkpt>
      <trkpt lat="46.89102" lon="4.73512">
        <ele>364</ele>
        <time>2012-08-22T12:12:28Z</time>
      </trkpt>
      <trkpt lat="46.89107" lon="4.73523">
        <ele>364</ele>
        <time>2012-08-22T12:12:29Z</time>
      </trkpt>
      <trkpt lat="46.89112" lon="4.73533">
        <ele>363</ele>
        <time>2012-08-22T12:12:30Z</time>
      </trkpt>
      <trkpt lat="46.89117" lon="4.73543">
        <ele>362</ele>
        <time>2012-08-22T12:12:31Z</time>
      </trkpt>
      <trkpt lat="46.89121" lon="4.73552">
        <ele>363</ele>
        <time>2012-08-22T12:12:32Z</time>
      </trkpt>
      <trkpt lat="46.89125" lon="4.73558">
        <ele>363</ele>
        <time>2012-08-22T12:12:33Z</time>
      </trkpt>
      <trkpt lat="46.89131" lon="4.73565">
        <ele>366</ele>
        <time>2012-08-22T12:12:34Z</time>
      </trkpt>
      <trkpt lat="46.89136" lon="4.73573">
        <ele>365</ele>
        <time>2012-08-22T12:12:35Z</time>
      </trkpt>
      <trkpt lat="46.89142" lon="4.73582">
        <ele>364</ele>
        <time>2012-08-22T12:12:36Z</time>
      </trkpt>
      <trkpt lat="46.89148" lon="4.73593">
        <ele>365</ele>
        <time>2012-08-22T12:12:37Z</time>
      </trkpt>
      <trkpt lat="46.89154" lon="4.73602">
        <ele>364</ele>
        <time>2012-08-22T12:12:38Z</time>
      </trkpt>
      <trkpt lat="46.89159" lon="4.73612">
        <ele>364</ele>
        <time>2012-08-22T12:12:39Z</time>
      </trkpt>
      <trkpt lat="46.89165" lon="4.73622">
        <ele>362</ele>
        <time>2012-08-22T12:12:40Z</time>
      </trkpt>
      <trkpt lat="46.89171" lon="4.73632">
        <ele>361</ele>
        <time>2012-08-22T12:12:41Z</time>
      </trkpt>
      <trkpt lat="46.89175" lon="4.73641">
        <ele>358</ele>
        <time>2012-08-22T12:12:42Z</time>
      </trkpt>
      <trkpt lat="46.89179" lon="4.73649">
        <ele>358</ele>
        <time>2012-08-22T12:12:43Z</time>
      </trkpt>
      <trkpt lat="46.89184" lon="4.73657">
        <ele>357</ele>
        <time>2012-08-22T12:12:44Z</time>
      </trkpt>
      <trkpt lat="46.89188" lon="4.73667">
        <ele>355</ele>
        <time>2012-08-22T12:12:45Z</time>
      </trkpt>
      <trkpt lat="46.89193" lon="4.73678">
        <ele>355</ele>
        <time>2012-08-22T12:12:46Z</time>
      </trkpt>
      <trkpt lat="46.89197" lon="4.73688">
        <ele>351</ele>
        <time>2012-08-22T12:12:47Z</time>
      </trkpt>
      <trkpt lat="46.892" lon="4.737">
        <ele>351</ele>
        <time>2012-08-22T12:12:48Z</time>
      </trkpt>
      <trkpt lat="46.89204" lon="4.73714">
        <ele>353</ele>
        <time>2012-08-22T12:12:49Z</time>
      </trkpt>
      <trkpt lat="46.89206" lon="4.73728">
        <ele>353</ele>
        <time>2012-08-22T12:12:50Z</time>
      </trkpt>
      <trkpt lat="46.89208" lon="4.73741">
        <ele>353</ele>
        <time>2012-08-22T12:12:51Z</time>
      </trkpt>
      <trkpt lat="46.8921" lon="4.73754">
        <ele>355</ele>
        <time>2012-08-22T12:12:52Z</time>
      </trkpt>
      <trkpt lat="46.89211" lon="4.73766">
        <ele>351</ele>
        <time>2012-08-22T12:12:53Z</time>
      </trkpt>
      <trkpt lat="46.89212" lon="4.73776">
        <ele>351</ele>
        <time>2012-08-22T12:12:54Z</time>
      </trkpt>
      <trkpt lat="46.89212" lon="4.73784">
        <ele>352</ele>
        <time>2012-08-22T12:12:55Z</time>
      </trkpt>
      <trkpt lat="46.8921" lon="4.73798">
        <ele>348</ele>
        <time>2012-08-22T12:12:57Z</time>
      </trkpt>
      <trkpt lat="46.89208" lon="4.73806">
        <ele>350</ele>
        <time>2012-08-22T12:12:58Z</time>
      </trkpt>
      <trkpt lat="46.89208" lon="4.73817">
        <ele>352</ele>
        <time>2012-08-22T12:12:59Z</time>
      </trkpt>
      <trkpt lat="46.89207" lon="4.73827">
        <ele>349</ele>
        <time>2012-08-22T12:13:00Z</time>
      </trkpt>
      <trkpt lat="46.89207" lon="4.73835">
        <ele>351</ele>
        <time>2012-08-22T12:13:01Z</time>
      </trkpt>
      <trkpt lat="46.89207" lon="4.73843">
        <ele>351</ele>
        <time>2012-08-22T12:13:02Z</time>
      </trkpt>
      <trkpt lat="46.89208" lon="4.7385">
        <ele>351</ele>
        <time>2012-08-22T12:13:03Z</time>
      </trkpt>
      <trkpt lat="46.8921" lon="4.73857">
        <ele>352</ele>
        <time>2012-08-22T12:13:04Z</time>
      </trkpt>
      <trkpt lat="46.89212" lon="4.73864">
        <ele>351</ele>
        <time>2012-08-22T12:13:05Z</time>
      </trkpt>
      <trkpt lat="46.89215" lon="4.73871">
        <ele>352</ele>
        <time>2012-08-22T12:13:06Z</time>
      </trkpt>
      <trkpt lat="46.89217" lon="4.73879">
        <ele>352</ele>
        <time>2012-08-22T12:13:07Z</time>
      </trkpt>
      <trkpt lat="46.8922" lon="4.73886">
        <ele>352</ele>
        <time>2012-08-22T12:13:08Z</time>
      </trkpt>
      <trkpt lat="46.89225" lon="4.73893">
        <ele>354</ele>
        <time>2012-08-22T12:13:09Z</time>
      </trkpt>
      <trkpt lat="46.8923" lon="4.73899">
        <ele>359</ele>
        <time>2012-08-22T12:13:10Z</time>
      </trkpt>
      <trkpt lat="46.89235" lon="4.73902">
        <ele>361</ele>
        <time>2012-08-22T12:13:11Z</time>
      </trkpt>
      <trkpt lat="46.89241" lon="4.73905">
        <ele>363</ele>
        <time>2012-08-22T12:13:12Z</time>
      </trkpt>
      <trkpt lat="46.89248" lon="4.73907">
        <ele>361</ele>
        <time>2012-08-22T12:13:13Z</time>
      </trkpt>
      <trkpt lat="46.89255" lon="4.7391">
        <ele>362</ele>
        <time>2012-08-22T12:13:14Z</time>
      </trkpt>
      <trkpt lat="46.89263" lon="4.73912">
        <ele>362</ele>
        <time>2012-08-22T12:13:15Z</time>
      </trkpt>
      <trkpt lat="46.8927" lon="4.73916">
        <ele>361</ele>
        <time>2012-08-22T12:13:16Z</time>
      </trkpt>
      <trkpt lat="46.89277" lon="4.73918">
        <ele>361</ele>
        <time>2012-08-22T12:13:17Z</time>
      </trkpt>
      <trkpt lat="46.89284" lon="4.7392">
        <ele>360</ele>
        <time>2012-08-22T12:13:18Z</time>
      </trkpt>
      <trkpt lat="46.89291" lon="4.73923">
        <ele>359</ele>
        <time>2012-08-22T12:13:19Z</time>
      </trkpt>
      <trkpt lat="46.89296" lon="4.73928">
        <ele>360</ele>
        <time>2012-08-22T12:13:20Z</time>
      </trkpt>
      <trkpt lat="46.89301" lon="4.73932">
        <ele>359</ele>
        <time>2012-08-22T12:13:21Z</time>
      </trkpt>
      <trkpt lat="46.89307" lon="4.73937">
        <ele>358</ele>
        <time>2012-08-22T12:13:22Z</time>
      </trkpt>
      <trkpt lat="46.89314" lon="4.73939">
        <ele>357</ele>
        <time>2012-08-22T12:13:23Z</time>
      </trkpt>
      <trkpt lat="46.8932" lon="4.73941">
        <ele>358</ele>
        <time>2012-08-22T12:13:24Z</time>
      </trkpt>
      <trkpt lat="46.89328" lon="4.73944">
        <ele>360</ele>
        <time>2012-08-22T12:13:25Z</time>
      </trkpt>
      <trkpt lat="46.89335" lon="4.73946">
        <ele>359</ele>
        <time>2012-08-22T12:13:26Z</time>
      </trkpt>
      <trkpt lat="46.89343" lon="4.73949">
        <ele>360</ele>
        <time>2012-08-22T12:13:27Z</time>
      </trkpt>
      <trkpt lat="46.8935" lon="4.73951">
        <ele>362</ele>
        <time>2012-08-22T12:13:28Z</time>
      </trkpt>
      <trkpt lat="46.89358" lon="4.73953">
        <ele>361</ele>
        <time>2012-08-22T12:13:29Z</time>
      </trkpt>
      <trkpt lat="46.89364" lon="4.73955">
        <ele>360</ele>
        <time>2012-08-22T12:13:30Z</time>
      </trkpt>
      <trkpt lat="46.8937" lon="4.73957">
        <ele>360</ele>
        <time>2012-08-22T12:13:31Z</time>
      </trkpt>
      <trkpt lat="46.89376" lon="4.73959">
        <ele>360</ele>
        <time>2012-08-22T12:13:32Z</time>
      </trkpt>
      <trkpt lat="46.89381" lon="4.73961">
        <ele>362</ele>
        <time>2012-08-22T12:13:33Z</time>
      </trkpt>
      <trkpt lat="46.89386" lon="4.73963">
        <ele>361</ele>
        <time>2012-08-22T12:13:34Z</time>
      </trkpt>
      <trkpt lat="46.89391" lon="4.73965">
        <ele>361</ele>
        <time>2012-08-22T12:13:35Z</time>
      </trkpt>
      <trkpt lat="46.89396" lon="4.73967">
        <ele>359</ele>
        <time>2012-08-22T12:13:36Z</time>
      </trkpt>
      <trkpt lat="46.89402" lon="4.73969">
        <ele>358</ele>
        <time>2012-08-22T12:13:37Z</time>
      </trkpt>
      <trkpt lat="46.89408" lon="4.73972">
        <ele>358</ele>
        <time>2012-08-22T12:13:38Z</time>
      </trkpt>
      <trkpt lat="46.89414" lon="4.73975">
        <ele>357</ele>
        <time>2012-08-22T12:13:39Z</time>
      </trkpt>
      <trkpt lat="46.8942" lon="4.73978">
        <ele>356</ele>
        <time>2012-08-22T12:13:40Z</time>
      </trkpt>
      <trkpt lat="46.89426" lon="4.73982">
        <ele>358</ele>
        <time>2012-08-22T12:13:41Z</time>
      </trkpt>
      <trkpt lat="46.89433" lon="4.73984">
        <ele>358</ele>
        <time>2012-08-22T12:13:42Z</time>
      </trkpt>
      <trkpt lat="46.8944" lon="4.73987">
        <ele>358</ele>
        <time>2012-08-22T12:13:43Z</time>
      </trkpt>
      <trkpt lat="46.89448" lon="4.73989">
        <ele>358</ele>
        <time>2012-08-22T12:13:44Z</time>
      </trkpt>
      <trkpt lat="46.89454" lon="4.73991">
        <ele>358</ele>
        <time>2012-08-22T12:13:45Z</time>
      </trkpt>
      <trkpt lat="46.8946" lon="4.73993">
        <ele>357</ele>
        <time>2012-08-22T12:13:46Z</time>
      </trkpt>
      <trkpt lat="46.89466" lon="4.73995">
        <ele>355</ele>
        <time>2012-08-22T12:13:47Z</time>
      </trkpt>
      <trkpt lat="46.89472" lon="4.73999">
        <ele>354</ele>
        <time>2012-08-22T12:13:48Z</time>
      </trkpt>
      <trkpt lat="46.89477" lon="4.74004">
        <ele>353</ele>
        <time>2012-08-22T12:13:49Z</time>
      </trkpt>
      <trkpt lat="46.89482" lon="4.74012">
        <ele>352</ele>
        <time>2012-08-22T12:13:50Z</time>
      </trkpt>
      <trkpt lat="46.89487" lon="4.74018">
        <ele>352</ele>
        <time>2012-08-22T12:13:51Z</time>
      </trkpt>
      <trkpt lat="46.89491" lon="4.74024">
        <ele>348</ele>
        <time>2012-08-22T12:13:52Z</time>
      </trkpt>
      <trkpt lat="46.89496" lon="4.74029">
        <ele>352</ele>
        <time>2012-08-22T12:13:53Z</time>
      </trkpt>
      <trkpt lat="46.89502" lon="4.74034">
        <ele>352</ele>
        <time>2012-08-22T12:13:54Z</time>
      </trkpt>
      <trkpt lat="46.89507" lon="4.74038">
        <ele>350</ele>
        <time>2012-08-22T12:13:55Z</time>
      </trkpt>
      <trkpt lat="46.89513" lon="4.74042">
        <ele>352</ele>
        <time>2012-08-22T12:13:56Z</time>
      </trkpt>
      <trkpt lat="46.89518" lon="4.74047">
        <ele>349</ele>
        <time>2012-08-22T12:13:57Z</time>
      </trkpt>
      <trkpt lat="46.89524" lon="4.74051">
        <ele>349</ele>
        <time>2012-08-22T12:13:58Z</time>
      </trkpt>
      <trkpt lat="46.89529" lon="4.74055">
        <ele>348</ele>
        <time>2012-08-22T12:13:59Z</time>
      </trkpt>
      <trkpt lat="46.89535" lon="4.74061">
        <ele>349</ele>
        <time>2012-08-22T12:14:00Z</time>
      </trkpt>
      <trkpt lat="46.89542" lon="4.74066">
        <ele>349</ele>
        <time>2012-08-22T12:14:01Z</time>
      </trkpt>
      <trkpt lat="46.89548" lon="4.74071">
        <ele>349</ele>
        <time>2012-08-22T12:14:02Z</time>
      </trkpt>
      <trkpt lat="46.89555" lon="4.74077">
        <ele>347</ele>
        <time>2012-08-22T12:14:03Z</time>
      </trkpt>
      <trkpt lat="46.89562" lon="4.74084">
        <ele>347</ele>
        <time>2012-08-22T12:14:04Z</time>
      </trkpt>
      <trkpt lat="46.89568" lon="4.74091">
        <ele>346</ele>
        <time>2012-08-22T12:14:05Z</time>
      </trkpt>
      <trkpt lat="46.89575" lon="4.74096">
        <ele>345</ele>
        <time>2012-08-22T12:14:06Z</time>
      </trkpt>
      <trkpt lat="46.89581" lon="4.74102">
        <ele>344</ele>
        <time>2012-08-22T12:14:07Z</time>
      </trkpt>
      <trkpt lat="46.89588" lon="4.74105">
        <ele>343</ele>
        <time>2012-08-22T12:14:08Z</time>
      </trkpt>
      <trkpt lat="46.89594" lon="4.74107">
        <ele>342</ele>
        <time>2012-08-22T12:14:09Z</time>
      </trkpt>
      <trkpt lat="46.89601" lon="4.74109">
        <ele>342</ele>
        <time>2012-08-22T12:14:10Z</time>
      </trkpt>
      <trkpt lat="46.89608" lon="4.74111">
        <ele>342</ele>
        <time>2012-08-22T12:14:11Z</time>
      </trkpt>
      <trkpt lat="46.89614" lon="4.74114">
        <ele>338</ele>
        <time>2012-08-22T12:14:12Z</time>
      </trkpt>
      <trkpt lat="46.8962" lon="4.74118">
        <ele>335</ele>
        <time>2012-08-22T12:14:13Z</time>
      </trkpt>
      <trkpt lat="46.89625" lon="4.74122">
        <ele>333</ele>
        <time>2012-08-22T12:14:14Z</time>
      </trkpt>
      <trkpt lat="46.8963" lon="4.74126">
        <ele>333</ele>
        <time>2012-08-22T12:14:15Z</time>
      </trkpt>
      <trkpt lat="46.89636" lon="4.74129">
        <ele>333</ele>
        <time>2012-08-22T12:14:16Z</time>
      </trkpt>
      <trkpt lat="46.89642" lon="4.74134">
        <ele>331</ele>
        <time>2012-08-22T12:14:17Z</time>
      </trkpt>
      <trkpt lat="46.89649" lon="4.74138">
        <ele>330</ele>
        <time>2012-08-22T12:14:18Z</time>
      </trkpt>
      <trkpt lat="46.89656" lon="4.7414">
        <ele>327</ele>
        <time>2012-08-22T12:14:19Z</time>
      </trkpt>
      <trkpt lat="46.89662" lon="4.74143">
        <ele>326</ele>
        <time>2012-08-22T12:14:20Z</time>
      </trkpt>
      <trkpt lat="46.89669" lon="4.74146">
        <ele>325</ele>
        <time>2012-08-22T12:14:21Z</time>
      </trkpt>
      <trkpt lat="46.89676" lon="4.74149">
        <ele>323</ele>
        <time>2012-08-22T12:14:22Z</time>
      </trkpt>
      <trkpt lat="46.89682" lon="4.74152">
        <ele>321</ele>
        <time>2012-08-22T12:14:23Z</time>
      </trkpt>
      <trkpt lat="46.8969" lon="4.74155">
        <ele>319</ele>
        <time>2012-08-22T12:14:24Z</time>
      </trkpt>
      <trkpt lat="46.89697" lon="4.74158">
        <ele>324</ele>
        <time>2012-08-22T12:14:25Z</time>
      </trkpt>
      <trkpt lat="46.89704" lon="4.74162">
        <ele>326</ele>
        <time>2012-08-22T12:14:26Z</time>
      </trkpt>
      <trkpt lat="46.89711" lon="4.74166">
        <ele>326</ele>
        <time>2012-08-22T12:14:27Z</time>
      </trkpt>
      <trkpt lat="46.89718" lon="4.7417">
        <ele>324</ele>
        <time>2012-08-22T12:14:28Z</time>
      </trkpt>
      <trkpt lat="46.89724" lon="4.74172">
        <ele>325</ele>
        <time>2012-08-22T12:14:29Z</time>
      </trkpt>
      <trkpt lat="46.89731" lon="4.74175">
        <ele>323</ele>
        <time>2012-08-22T12:14:30Z</time>
      </trkpt>
      <trkpt lat="46.89739" lon="4.74179">
        <ele>322</ele>
        <time>2012-08-22T12:14:31Z</time>
      </trkpt>
      <trkpt lat="46.89745" lon="4.74182">
        <ele>325</ele>
        <time>2012-08-22T12:14:32Z</time>
      </trkpt>
      <trkpt lat="46.89749" lon="4.74186">
        <ele>324</ele>
        <time>2012-08-22T12:14:33Z</time>
      </trkpt>
      <trkpt lat="46.89761" lon="4.74197">
        <ele>317</ele>
        <time>2012-08-22T12:14:35Z</time>
      </trkpt>
      <trkpt lat="46.89766" lon="4.74203">
        <ele>316</ele>
        <time>2012-08-22T12:14:36Z</time>
      </trkpt>
      <trkpt lat="46.89771" lon="4.74207">
        <ele>315</ele>
        <time>2012-08-22T12:14:37Z</time>
      </trkpt>
      <trkpt lat="46.89777" lon="4.74209">
        <ele>314</ele>
        <time>2012-08-22T12:14:38Z</time>
      </trkpt>
      <trkpt lat="46.89782" lon="4.74212">
        <ele>311</ele>
        <time>2012-08-22T12:14:39Z</time>
      </trkpt>
      <trkpt lat="46.89787" lon="4.74216">
        <ele>311</ele>
        <time>2012-08-22T12:14:40Z</time>
      </trkpt>
      <trkpt lat="46.89793" lon="4.74221">
        <ele>308</ele>
        <time>2012-08-22T12:14:41Z</time>
      </trkpt>
      <trkpt lat="46.89798" lon="4.74225">
        <ele>310</ele>
        <time>2012-08-22T12:14:42Z</time>
      </trkpt>
      <trkpt lat="46.89804" lon="4.74229">
        <ele>309</ele>
        <time>2012-08-22T12:14:43Z</time>
      </trkpt>
      <trkpt lat="46.8981" lon="4.74232">
        <ele>309</ele>
        <time>2012-08-22T12:14:44Z</time>
      </trkpt>
      <trkpt lat="46.89817" lon="4.74234">
        <ele>308</ele>
        <time>2012-08-22T12:14:45Z</time>
      </trkpt>
      <trkpt lat="46.89822" lon="4.74236">
        <ele>306</ele>
        <time>2012-08-22T12:14:46Z</time>
      </trkpt>
      <trkpt lat="46.89827" lon="4.74238">
        <ele>307</ele>
        <time>2012-08-22T12:14:47Z</time>
      </trkpt>
      <trkpt lat="46.89832" lon="4.74239">
        <ele>308</ele>
        <time>2012-08-22T12:14:48Z</time>
      </trkpt>
      <trkpt lat="46.89838" lon="4.7424">
        <ele>308</ele>
        <time>2012-08-22T12:14:49Z</time>
      </trkpt>
      <trkpt lat="46.89844" lon="4.74241">
        <ele>306</ele>
        <time>2012-08-22T12:14:50Z</time>
      </trkpt>
      <trkpt lat="46.8985" lon="4.74242">
        <ele>305</ele>
        <time>2012-08-22T12:14:51Z</time>
      </trkpt>
      <trkpt lat="46.89855" lon="4.74243">
        <ele>305</ele>
        <time>2012-08-22T12:14:52Z</time>
      </trkpt>
      <trkpt lat="46.8986" lon="4.74244">
        <ele>301</ele>
        <time>2012-08-22T12:14:53Z</time>
      </trkpt>
      <trkpt lat="46.89865" lon="4.74245">
        <ele>301</ele>
        <time>2012-08-22T12:14:54Z</time>
      </trkpt>
      <trkpt lat="46.89871" lon="4.74245">
        <ele>301</ele>
        <time>2012-08-22T12:14:55Z</time>
      </trkpt>
      <trkpt lat="46.89876" lon="4.74246">
        <ele>302</ele>
        <time>2012-08-22T12:14:56Z</time>
      </trkpt>
      <trkpt lat="46.89883" lon="4.74248">
        <ele>300</ele>
        <time>2012-08-22T12:14:58Z</time>
      </trkpt>
      <trkpt lat="46.89886" lon="4.74253">
        <ele>298</ele>
        <time>2012-08-22T12:15:28Z</time>
      </trkpt>
      <trkpt lat="46.89892" lon="4.74254">
        <ele>296</ele>
        <time>2012-08-22T12:15:30Z</time>
      </trkpt>
      <trkpt lat="46.89899" lon="4.74257">
        <ele>294</ele>
        <time>2012-08-22T12:15:32Z</time>
      </trkpt>
      <trkpt lat="46.89903" lon="4.74261">
        <ele>291</ele>
        <time>2012-08-22T12:15:33Z</time>
      </trkpt>
      <trkpt lat="46.89911" lon="4.74268">
        <ele>290</ele>
        <time>2012-08-22T12:15:35Z</time>
      </trkpt>
      <trkpt lat="46.89915" lon="4.74273">
        <ele>289</ele>
        <time>2012-08-22T12:15:36Z</time>
      </trkpt>
      <trkpt lat="46.8992" lon="4.74278">
        <ele>289</ele>
        <time>2012-08-22T12:15:37Z</time>
      </trkpt>
      <trkpt lat="46.89924" lon="4.74282">
        <ele>288</ele>
        <time>2012-08-22T12:15:38Z</time>
      </trkpt>
      <trkpt lat="46.89928" lon="4.74287">
        <ele>285</ele>
        <time>2012-08-22T12:15:39Z</time>
      </trkpt>
      <trkpt lat="46.89933" lon="4.74291">
        <ele>284</ele>
        <time>2012-08-22T12:15:40Z</time>
      </trkpt>
      <trkpt lat="46.89937" lon="4.74294">
        <ele>283</ele>
        <time>2012-08-22T12:15:41Z</time>
      </trkpt>
      <trkpt lat="46.89945" lon="4.743">
        <ele>282</ele>
        <time>2012-08-22T12:15:43Z</time>
      </trkpt>
      <trkpt lat="46.8995" lon="4.74303">
        <ele>281</ele>
        <time>2012-08-22T12:15:44Z</time>
      </trkpt>
      <trkpt lat="46.89954" lon="4.74306">
        <ele>281</ele>
        <time>2012-08-22T12:15:45Z</time>
      </trkpt>
      <trkpt lat="46.89959" lon="4.7431">
        <ele>280</ele>
        <time>2012-08-22T12:15:46Z</time>
      </trkpt>
      <trkpt lat="46.89964" lon="4.74313">
        <ele>280</ele>
        <time>2012-08-22T12:15:47Z</time>
      </trkpt>
      <trkpt lat="46.89972" lon="4.74319">
        <ele>277</ele>
        <time>2012-08-22T12:15:49Z</time>
      </trkpt>
      <trkpt lat="46.89979" lon="4.74324">
        <ele>278</ele>
        <time>2012-08-22T12:15:51Z</time>
      </trkpt>
      <trkpt lat="46.89983" lon="4.74328">
        <ele>280</ele>
        <time>2012-08-22T12:15:53Z</time>
      </trkpt>
      <trkpt lat="46.89988" lon="4.74332">
        <ele>279</ele>
        <time>2012-08-22T12:15:55Z</time>
      </trkpt>
      <trkpt lat="46.89992" lon="4.74336">
        <ele>278</ele>
        <time>2012-08-22T12:15:57Z</time>
      </trkpt>
      <trkpt lat="46.89996" lon="4.74339">
        <ele>275</ele>
        <time>2012-08-22T12:16:01Z</time>
      </trkpt>
      <trkpt lat="46.90002" lon="4.7434">
        <ele>276</ele>
        <time>2012-08-22T12:16:04Z</time>
      </trkpt>
      <trkpt lat="46.90006" lon="4.74347">
        <ele>277</ele>
        <time>2012-08-22T12:16:08Z</time>
      </trkpt>
      <trkpt lat="46.9001" lon="4.74354">
        <ele>279</ele>
        <time>2012-08-22T12:16:10Z</time>
      </trkpt>
      <trkpt lat="46.90024" lon="4.74346">
        <ele>257</ele>
        <time>2012-08-22T12:26:18Z</time>
      </trkpt>
      <trkpt lat="46.90033" lon="4.74328">
        <ele>255</ele>
        <time>2012-08-22T12:26:19Z</time>
      </trkpt>
      <trkpt lat="46.90042" lon="4.7431">
        <ele>254</ele>
        <time>2012-08-22T12:26:20Z</time>
      </trkpt>
      <trkpt lat="46.90052" lon="4.74293">
        <ele>257</ele>
        <time>2012-08-22T12:26:21Z</time>
      </trkpt>
      <trkpt lat="46.90063" lon="4.74275">
        <ele>256</ele>
        <time>2012-08-22T12:26:22Z</time>
      </trkpt>
      <trkpt lat="46.90074" lon="4.74258">
        <ele>256</ele>
        <time>2012-08-22T12:26:23Z</time>
      </trkpt>
      <trkpt lat="46.90086" lon="4.74241">
        <ele>256</ele>
        <time>2012-08-22T12:26:24Z</time>
      </trkpt>
      <trkpt lat="46.90098" lon="4.74225">
        <ele>255</ele>
        <time>2012-08-22T12:26:25Z</time>
      </trkpt>
      <trkpt lat="46.9011" lon="4.7421">
        <ele>255</ele>
        <time>2012-08-22T12:26:26Z</time>
      </trkpt>
      <trkpt lat="46.90123" lon="4.74196">
        <ele>254</ele>
        <time>2012-08-22T12:26:27Z</time>
      </trkpt>
      <trkpt lat="46.90137" lon="4.74182">
        <ele>253</ele>
        <time>2012-08-22T12:26:28Z</time>
      </trkpt>
      <trkpt lat="46.9015" lon="4.74168">
        <ele>255</ele>
        <time>2012-08-22T12:26:29Z</time>
      </trkpt>
      <trkpt lat="46.90164" lon="4.74156">
        <ele>257</ele>
        <time>2012-08-22T12:26:30Z</time>
      </trkpt>
      <trkpt lat="46.90178" lon="4.74142">
        <ele>257</ele>
        <time>2012-08-22T12:26:31Z</time>
      </trkpt>
      <trkpt lat="46.90192" lon="4.74128">
        <ele>256</ele>
        <time>2012-08-22T12:26:32Z</time>
      </trkpt>
      <trkpt lat="46.90206" lon="4.74114">
        <ele>255</ele>
        <time>2012-08-22T12:26:33Z</time>
      </trkpt>
      <trkpt lat="46.90219" lon="4.74099">
        <ele>254</ele>
        <time>2012-08-22T12:26:34Z</time>
      </trkpt>
      <trkpt lat="46.90233" lon="4.74085">
        <ele>253</ele>
        <time>2012-08-22T12:26:35Z</time>
      </trkpt>
      <trkpt lat="46.90247" lon="4.7407">
        <ele>254</ele>
        <time>2012-08-22T12:26:36Z</time>
      </trkpt>
      <trkpt lat="46.9026" lon="4.74056">
        <ele>254</ele>
        <time>2012-08-22T12:26:37Z</time>
      </trkpt>
      <trkpt lat="46.90274" lon="4.74042">
        <ele>253</ele>
        <time>2012-08-22T12:26:38Z</time>
      </trkpt>
      <trkpt lat="46.90287" lon="4.74029">
        <ele>253</ele>
        <time>2012-08-22T12:26:39Z</time>
      </trkpt>
      <trkpt lat="46.90299" lon="4.74016">
        <ele>251</ele>
        <time>2012-08-22T12:26:40Z</time>
      </trkpt>
      <trkpt lat="46.9031" lon="4.74005">
        <ele>251</ele>
        <time>2012-08-22T12:26:41Z</time>
      </trkpt>
      <trkpt lat="46.9032" lon="4.73996">
        <ele>250</ele>
        <time>2012-08-22T12:26:42Z</time>
      </trkpt>
      <trkpt lat="46.90328" lon="4.73989">
        <ele>250</ele>
        <time>2012-08-22T12:26:43Z</time>
      </trkpt>
      <trkpt lat="46.90334" lon="4.73983">
        <ele>248</ele>
        <time>2012-08-22T12:26:44Z</time>
      </trkpt>
      <trkpt lat="46.90339" lon="4.73979">
        <ele>250</ele>
        <time>2012-08-22T12:26:45Z</time>
      </trkpt>
      <trkpt lat="46.90346" lon="4.73973">
        <ele>251</ele>
        <time>2012-08-22T12:26:47Z</time>
      </trkpt>
      <trkpt lat="46.9035" lon="4.7397">
        <ele>250</ele>
        <time>2012-08-22T12:26:49Z</time>
      </trkpt>
      <trkpt lat="46.90354" lon="4.73965">
        <ele>252</ele>
        <time>2012-08-22T12:26:51Z</time>
      </trkpt>
      <trkpt lat="46.90358" lon="4.7396">
        <ele>252</ele>
        <time>2012-08-22T12:26:52Z</time>
      </trkpt>
      <trkpt lat="46.90364" lon="4.73952">
        <ele>254</ele>
        <time>2012-08-22T12:26:53Z</time>
      </trkpt>
      <trkpt lat="46.9037" lon="4.73945">
        <ele>255</ele>
        <time>2012-08-22T12:26:54Z</time>
      </trkpt>
      <trkpt lat="46.90378" lon="4.7394">
        <ele>256</ele>
        <time>2012-08-22T12:26:55Z</time>
      </trkpt>
      <trkpt lat="46.90386" lon="4.73935">
        <ele>257</ele>
        <time>2012-08-22T12:26:56Z</time>
      </trkpt>
      <trkpt lat="46.90394" lon="4.73929">
        <ele>256</ele>
        <time>2012-08-22T12:26:57Z</time>
      </trkpt>
      <trkpt lat="46.90403" lon="4.73923">
        <ele>258</ele>
        <time>2012-08-22T12:26:58Z</time>
      </trkpt>
      <trkpt lat="46.90413" lon="4.73916">
        <ele>261</ele>
        <time>2012-08-22T12:26:59Z</time>
      </trkpt>
      <trkpt lat="46.90423" lon="4.73907">
        <ele>264</ele>
        <time>2012-08-22T12:27:00Z</time>
      </trkpt>
      <trkpt lat="46.90433" lon="4.73899">
        <ele>265</ele>
        <time>2012-08-22T12:27:01Z</time>
      </trkpt>
      <trkpt lat="46.90442" lon="4.73891">
        <ele>264</ele>
        <time>2012-08-22T12:27:02Z</time>
      </trkpt>
      <trkpt lat="46.90451" lon="4.73881">
        <ele>264</ele>
        <time>2012-08-22T12:27:03Z</time>
      </trkpt>
      <trkpt lat="46.90458" lon="4.73868">
        <ele>263</ele>
        <time>2012-08-22T12:27:04Z</time>
      </trkpt>
      <trkpt lat="46.90466" lon="4.73854">
        <ele>259</ele>
        <time>2012-08-22T12:27:05Z</time>
      </trkpt>
      <trkpt lat="46.90473" lon="4.73841">
        <ele>261</ele>
        <time>2012-08-22T12:27:06Z</time>
      </trkpt>
      <trkpt lat="46.9048" lon="4.73827">
        <ele>261</ele>
        <time>2012-08-22T12:27:07Z</time>
      </trkpt>
      <trkpt lat="46.90486" lon="4.73814">
        <ele>260</ele>
        <time>2012-08-22T12:27:08Z</time>
      </trkpt>
      <trkpt lat="46.90491" lon="4.73803">
        <ele>262</ele>
        <time>2012-08-22T12:27:09Z</time>
      </trkpt>
      <trkpt lat="46.90496" lon="4.73792">
        <ele>259</ele>
        <time>2012-08-22T12:27:10Z</time>
      </trkpt>
      <trkpt lat="46.90502" lon="4.73779">
        <ele>259</ele>
        <time>2012-08-22T12:27:11Z</time>
      </trkpt>
      <trkpt lat="46.90508" lon="4.73766">
        <ele>259</ele>
        <time>2012-08-22T12:27:12Z</time>
      </trkpt>
      <trkpt lat="46.90514" lon="4.73752">
        <ele>258</ele>
        <time>2012-08-22T12:27:13Z</time>
      </trkpt>
      <trkpt lat="46.90519" lon="4.73741">
        <ele>259</ele>
        <time>2012-08-22T12:27:14Z</time>
      </trkpt>
      <trkpt lat="46.90523" lon="4.7373">
        <ele>260</ele>
        <time>2012-08-22T12:27:15Z</time>
      </trkpt>
      <trkpt lat="46.90527" lon="4.7372">
        <ele>258</ele>
        <time>2012-08-22T12:27:16Z</time>
      </trkpt>
      <trkpt lat="46.90528" lon="4.7371">
        <ele>258</ele>
        <time>2012-08-22T12:27:17Z</time>
      </trkpt>
      <trkpt lat="46.90528" lon="4.737">
        <ele>258</ele>
        <time>2012-08-22T12:27:18Z</time>
      </trkpt>
      <trkpt lat="46.90526" lon="4.73689">
        <ele>260</ele>
        <time>2012-08-22T12:27:19Z</time>
      </trkpt>
      <trkpt lat="46.90523" lon="4.73676">
        <ele>261</ele>
        <time>2012-08-22T12:27:20Z</time>
      </trkpt>
      <trkpt lat="46.90519" lon="4.73662">
        <ele>261</ele>
        <time>2012-08-22T12:27:21Z</time>
      </trkpt>
      <trkpt lat="46.90515" lon="4.73647">
        <ele>261</ele>
        <time>2012-08-22T12:27:22Z</time>
      </trkpt>
      <trkpt lat="46.90511" lon="4.73631">
        <ele>262</ele>
        <time>2012-08-22T12:27:23Z</time>
      </trkpt>
      <trkpt lat="46.90507" lon="4.73613">
        <ele>264</ele>
        <time>2012-08-22T12:27:24Z</time>
      </trkpt>
      <trkpt lat="46.90503" lon="4.73597">
        <ele>267</ele>
        <time>2012-08-22T12:27:25Z</time>
      </trkpt>
      <trkpt lat="46.905" lon="4.73582">
        <ele>266</ele>
        <time>2012-08-22T12:27:26Z</time>
      </trkpt>
      <trkpt lat="46.90496" lon="4.73569">
        <ele>265</ele>
        <time>2012-08-22T12:27:27Z</time>
      </trkpt>
      <trkpt lat="46.90488" lon="4.73548">
        <ele>296</ele>
        <time>2012-08-22T12:27:28Z</time>
      </trkpt>
      <trkpt lat="46.9048" lon="4.73531">
        <ele>304</ele>
        <time>2012-08-22T12:27:29Z</time>
      </trkpt>
      <trkpt lat="46.90472" lon="4.7352">
        <ele>307</ele>
        <time>2012-08-22T12:27:30Z</time>
      </trkpt>
      <trkpt lat="46.90465" lon="4.73513">
        <ele>310</ele>
        <time>2012-08-22T12:27:31Z</time>
      </trkpt>
      <trkpt lat="46.90458" lon="4.73506">
        <ele>312</ele>
        <time>2012-08-22T12:27:32Z</time>
      </trkpt>
      <trkpt lat="46.90451" lon="4.73498">
        <ele>313</ele>
        <time>2012-08-22T12:27:33Z</time>
      </trkpt>
      <trkpt lat="46.90444" lon="4.73491">
        <ele>314</ele>
        <time>2012-08-22T12:27:34Z</time>
      </trkpt>
      <trkpt lat="46.9044" lon="4.73482">
        <ele>313</ele>
        <time>2012-08-22T12:27:35Z</time>
      </trkpt>
      <trkpt lat="46.90436" lon="4.73472">
        <ele>315</ele>
        <time>2012-08-22T12:27:36Z</time>
      </trkpt>
      <trkpt lat="46.90433" lon="4.73461">
        <ele>317</ele>
        <time>2012-08-22T12:27:37Z</time>
      </trkpt>
      <trkpt lat="46.90429" lon="4.7345">
        <ele>318</ele>
        <time>2012-08-22T12:27:38Z</time>
      </trkpt>
      <trkpt lat="46.90425" lon="4.73439">
        <ele>319</ele>
        <time>2012-08-22T12:27:39Z</time>
      </trkpt>
      <trkpt lat="46.90418" lon="4.73426">
        <ele>319</ele>
        <time>2012-08-22T12:27:40Z</time>
      </trkpt>
      <trkpt lat="46.9041" lon="4.73411">
        <ele>319</ele>
        <time>2012-08-22T12:27:41Z</time>
      </trkpt>
      <trkpt lat="46.90401" lon="4.73396">
        <ele>319</ele>
        <time>2012-08-22T12:27:42Z</time>
      </trkpt>
      <trkpt lat="46.90392" lon="4.73381">
        <ele>320</ele>
        <time>2012-08-22T12:27:43Z</time>
      </trkpt>
      <trkpt lat="46.90383" lon="4.73368">
        <ele>322</ele>
        <time>2012-08-22T12:27:44Z</time>
      </trkpt>
      <trkpt lat="46.90373" lon="4.73355">
        <ele>321</ele>
        <time>2012-08-22T12:27:45Z</time>
      </trkpt>
      <trkpt lat="46.90363" lon="4.73342">
        <ele>320</ele>
        <time>2012-08-22T12:27:46Z</time>
      </trkpt>
      <trkpt lat="46.90353" lon="4.73329">
        <ele>322</ele>
        <time>2012-08-22T12:27:47Z</time>
      </trkpt>
      <trkpt lat="46.90342" lon="4.73318">
        <ele>324</ele>
        <time>2012-08-22T12:27:48Z</time>
      </trkpt>
      <trkpt lat="46.90331" lon="4.73307">
        <ele>328</ele>
        <time>2012-08-22T12:27:49Z</time>
      </trkpt>
      <trkpt lat="46.90319" lon="4.73297">
        <ele>331</ele>
        <time>2012-08-22T12:27:50Z</time>
      </trkpt>
      <trkpt lat="46.90309" lon="4.73289">
        <ele>332</ele>
        <time>2012-08-22T12:27:51Z</time>
      </trkpt>
      <trkpt lat="46.90299" lon="4.73279">
        <ele>332</ele>
        <time>2012-08-22T12:27:52Z</time>
      </trkpt>
      <trkpt lat="46.90289" lon="4.73269">
        <ele>333</ele>
        <time>2012-08-22T12:27:53Z</time>
      </trkpt>
      <trkpt lat="46.90278" lon="4.73258">
        <ele>333</ele>
        <time>2012-08-22T12:27:54Z</time>
      </trkpt>
      <trkpt lat="46.90268" lon="4.73249">
        <ele>334</ele>
        <time>2012-08-22T12:27:55Z</time>
      </trkpt>
      <trkpt lat="46.90259" lon="4.73239">
        <ele>338</ele>
        <time>2012-08-22T12:27:56Z</time>
      </trkpt>
      <trkpt lat="46.90251" lon="4.7323">
        <ele>339</ele>
        <time>2012-08-22T12:27:57Z</time>
      </trkpt>
      <trkpt lat="46.90244" lon="4.73224">
        <ele>341</ele>
        <time>2012-08-22T12:27:58Z</time>
      </trkpt>
      <trkpt lat="46.90237" lon="4.73219">
        <ele>341</ele>
        <time>2012-08-22T12:27:59Z</time>
      </trkpt>
      <trkpt lat="46.90228" lon="4.73216">
        <ele>342</ele>
        <time>2012-08-22T12:28:00Z</time>
      </trkpt>
      <trkpt lat="46.90218" lon="4.73213">
        <ele>342</ele>
        <time>2012-08-22T12:28:01Z</time>
      </trkpt>
      <trkpt lat="46.90206" lon="4.73211">
        <ele>343</ele>
        <time>2012-08-22T12:28:02Z</time>
      </trkpt>
      <trkpt lat="46.90194" lon="4.7321">
        <ele>343</ele>
        <time>2012-08-22T12:28:03Z</time>
      </trkpt>
      <trkpt lat="46.90182" lon="4.73208">
        <ele>343</ele>
        <time>2012-08-22T12:28:04Z</time>
      </trkpt>
      <trkpt lat="46.90171" lon="4.73206">
        <ele>344</ele>
        <time>2012-08-22T12:28:05Z</time>
      </trkpt>
      <trkpt lat="46.90161" lon="4.73206">
        <ele>345</ele>
        <time>2012-08-22T12:28:06Z</time>
      </trkpt>
      <trkpt lat="46.90152" lon="4.73205">
        <ele>345</ele>
        <time>2012-08-22T12:28:07Z</time>
      </trkpt>
      <trkpt lat="46.90144" lon="4.73201">
        <ele>346</ele>
        <time>2012-08-22T12:28:08Z</time>
      </trkpt>
      <trkpt lat="46.90136" lon="4.73197">
        <ele>346</ele>
        <time>2012-08-22T12:28:09Z</time>
      </trkpt>
      <trkpt lat="46.90129" lon="4.73191">
        <ele>346</ele>
        <time>2012-08-22T12:28:10Z</time>
      </trkpt>
      <trkpt lat="46.90121" lon="4.73184">
        <ele>346</ele>
        <time>2012-08-22T12:28:11Z</time>
      </trkpt>
      <trkpt lat="46.90112" lon="4.73173">
        <ele>347</ele>
        <time>2012-08-22T12:28:12Z</time>
      </trkpt>
      <trkpt lat="46.90103" lon="4.73163">
        <ele>346</ele>
        <time>2012-08-22T12:28:13Z</time>
      </trkpt>
      <trkpt lat="46.90095" lon="4.73156">
        <ele>346</ele>
        <time>2012-08-22T12:28:14Z</time>
      </trkpt>
      <trkpt lat="46.90089" lon="4.73149">
        <ele>347</ele>
        <time>2012-08-22T12:28:15Z</time>
      </trkpt>
      <trkpt lat="46.90083" lon="4.73143">
        <ele>348</ele>
        <time>2012-08-22T12:28:16Z</time>
      </trkpt>
      <trkpt lat="46.9008" lon="4.73134">
        <ele>349</ele>
        <time>2012-08-22T12:28:17Z</time>
      </trkpt>
      <trkpt lat="46.9008" lon="4.73127">
        <ele>348</ele>
        <time>2012-08-22T12:28:18Z</time>
      </trkpt>
      <trkpt lat="46.90081" lon="4.73119">
        <ele>349</ele>
        <time>2012-08-22T12:28:19Z</time>
      </trkpt>
      <trkpt lat="46.90084" lon="4.7311">
        <ele>349</ele>
        <time>2012-08-22T12:28:20Z</time>
      </trkpt>
      <trkpt lat="46.90087" lon="4.731">
        <ele>348</ele>
        <time>2012-08-22T12:28:21Z</time>
      </trkpt>
      <trkpt lat="46.9009" lon="4.73089">
        <ele>348</ele>
        <time>2012-08-22T12:28:22Z</time>
      </trkpt>
      <trkpt lat="46.90091" lon="4.73076">
        <ele>350</ele>
        <time>2012-08-22T12:28:23Z</time>
      </trkpt>
      <trkpt lat="46.90089" lon="4.73065">
        <ele>348</ele>
        <time>2012-08-22T12:28:24Z</time>
      </trkpt>
      <trkpt lat="46.90087" lon="4.73055">
        <ele>349</ele>
        <time>2012-08-22T12:28:25Z</time>
      </trkpt>
      <trkpt lat="46.90082" lon="4.73045">
        <ele>350</ele>
        <time>2012-08-22T12:28:26Z</time>
      </trkpt>
      <trkpt lat="46.90077" lon="4.73035">
        <ele>348</ele>
        <time>2012-08-22T12:28:27Z</time>
      </trkpt>
      <trkpt lat="46.90071" lon="4.73023">
        <ele>348</ele>
        <time>2012-08-22T12:28:28Z</time>
      </trkpt>
      <trkpt lat="46.90064" lon="4.73011">
        <ele>347</ele>
        <time>2012-08-22T12:28:29Z</time>
      </trkpt>
      <trkpt lat="46.90058" lon="4.72998">
        <ele>347</ele>
        <time>2012-08-22T12:28:30Z</time>
      </trkpt>
      <trkpt lat="46.90052" lon="4.72984">
        <ele>348</ele>
        <time>2012-08-22T12:28:31Z</time>
      </trkpt>
      <trkpt lat="46.90046" lon="4.7297">
        <ele>349</ele>
        <time>2012-08-22T12:28:32Z</time>
      </trkpt>
      <trkpt lat="46.9004" lon="4.72956">
        <ele>350</ele>
        <time>2012-08-22T12:28:33Z</time>
      </trkpt>
      <trkpt lat="46.9003" lon="4.7293">
        <ele>349</ele>
        <time>2012-08-22T12:28:35Z</time>
      </trkpt>
      <trkpt lat="46.90025" lon="4.72918">
        <ele>349</ele>
        <time>2012-08-22T12:28:36Z</time>
      </trkpt>
      <trkpt lat="46.90021" lon="4.72906">
        <ele>350</ele>
        <time>2012-08-22T12:28:37Z</time>
      </trkpt>
      <trkpt lat="46.90016" lon="4.72894">
        <ele>353</ele>
        <time>2012-08-22T12:28:38Z</time>
      </trkpt>
      <trkpt lat="46.90013" lon="4.72883">
        <ele>355</ele>
        <time>2012-08-22T12:28:39Z</time>
      </trkpt>
      <trkpt lat="46.90011" lon="4.72874">
        <ele>357</ele>
        <time>2012-08-22T12:28:40Z</time>
      </trkpt>
      <trkpt lat="46.90009" lon="4.72866">
        <ele>359</ele>
        <time>2012-08-22T12:28:41Z</time>
      </trkpt>
      <trkpt lat="46.90008" lon="4.7286">
        <ele>358</ele>
        <time>2012-08-22T12:28:42Z</time>
      </trkpt>
      <trkpt lat="46.90006" lon="4.72853">
        <ele>358</ele>
        <time>2012-08-22T12:28:44Z</time>
      </trkpt>
      <trkpt lat="46.90004" lon="4.72844">
        <ele>357</ele>
        <time>2012-08-22T12:28:48Z</time>
      </trkpt>
      <trkpt lat="46.89999" lon="4.72836">
        <ele>358</ele>
        <time>2012-08-22T12:28:50Z</time>
      </trkpt>
      <trkpt lat="46.89995" lon="4.72828">
        <ele>363</ele>
        <time>2012-08-22T12:28:51Z</time>
      </trkpt>
      <trkpt lat="46.89991" lon="4.7282">
        <ele>366</ele>
        <time>2012-08-22T12:28:52Z</time>
      </trkpt>
      <trkpt lat="46.89986" lon="4.72811">
        <ele>367</ele>
        <time>2012-08-22T12:28:53Z</time>
      </trkpt>
      <trkpt lat="46.89981" lon="4.72802">
        <ele>366</ele>
        <time>2012-08-22T12:28:54Z</time>
      </trkpt>
      <trkpt lat="46.89975" lon="4.72792">
        <ele>365</ele>
        <time>2012-08-22T12:28:55Z</time>
      </trkpt>
      <trkpt lat="46.89968" lon="4.72781">
        <ele>366</ele>
        <time>2012-08-22T12:28:56Z</time>
      </trkpt>
      <trkpt lat="46.89962" lon="4.7277">
        <ele>365</ele>
        <time>2012-08-22T12:28:57Z</time>
      </trkpt>
      <trkpt lat="46.89954" lon="4.72756">
        <ele>369</ele>
        <time>2012-08-22T12:28:58Z</time>
      </trkpt>
      <trkpt lat="46.89946" lon="4.72742">
        <ele>370</ele>
        <time>2012-08-22T12:28:59Z</time>
      </trkpt>
      <trkpt lat="46.89939" lon="4.72728">
        <ele>370</ele>
        <time>2012-08-22T12:29:00Z</time>
      </trkpt>
      <trkpt lat="46.89932" lon="4.72714">
        <ele>372</ele>
        <time>2012-08-22T12:29:01Z</time>
      </trkpt>
      <trkpt lat="46.89925" lon="4.72702">
        <ele>373</ele>
        <time>2012-08-22T12:29:02Z</time>
      </trkpt>
      <trkpt lat="46.8992" lon="4.72691">
        <ele>373</ele>
        <time>2012-08-22T12:29:03Z</time>
      </trkpt>
      <trkpt lat="46.89915" lon="4.7268">
        <ele>374</ele>
        <time>2012-08-22T12:29:04Z</time>
      </trkpt>
      <trkpt lat="46.89912" lon="4.72669">
        <ele>374</ele>
        <time>2012-08-22T12:29:05Z</time>
      </trkpt>
      <trkpt lat="46.89909" lon="4.72657">
        <ele>374</ele>
        <time>2012-08-22T12:29:06Z</time>
      </trkpt>
      <trkpt lat="46.89907" lon="4.72646">
        <ele>374</ele>
        <time>2012-08-22T12:29:07Z</time>
      </trkpt>
      <trkpt lat="46.89907" lon="4.72634">
        <ele>374</ele>
        <time>2012-08-22T12:29:08Z</time>
      </trkpt>
      <trkpt lat="46.89909" lon="4.72622">
        <ele>374</ele>
        <time>2012-08-22T12:29:09Z</time>
      </trkpt>
      <trkpt lat="46.89912" lon="4.72609">
        <ele>373</ele>
        <time>2012-08-22T12:29:10Z</time>
      </trkpt>
      <trkpt lat="46.89917" lon="4.72597">
        <ele>372</ele>
        <time>2012-08-22T12:29:11Z</time>
      </trkpt>
      <trkpt lat="46.89923" lon="4.72584">
        <ele>372</ele>
        <time>2012-08-22T12:29:12Z</time>
      </trkpt>
      <trkpt lat="46.89929" lon="4.72572">
        <ele>370</ele>
        <time>2012-08-22T12:29:13Z</time>
      </trkpt>
      <trkpt lat="46.89936" lon="4.72558">
        <ele>370</ele>
        <time>2012-08-22T12:29:14Z</time>
      </trkpt>
      <trkpt lat="46.89943" lon="4.72545">
        <ele>371</ele>
        <time>2012-08-22T12:29:15Z</time>
      </trkpt>
      <trkpt lat="46.8995" lon="4.72532">
        <ele>371</ele>
        <time>2012-08-22T12:29:16Z</time>
      </trkpt>
      <trkpt lat="46.89957" lon="4.7252">
        <ele>371</ele>
        <time>2012-08-22T12:29:17Z</time>
      </trkpt>
      <trkpt lat="46.89965" lon="4.72507">
        <ele>373</ele>
        <time>2012-08-22T12:29:18Z</time>
      </trkpt>
      <trkpt lat="46.89973" lon="4.72493">
        <ele>373</ele>
        <time>2012-08-22T12:29:19Z</time>
      </trkpt>
      <trkpt lat="46.89981" lon="4.72479">
        <ele>372</ele>
        <time>2012-08-22T12:29:20Z</time>
      </trkpt>
      <trkpt lat="46.8999" lon="4.72465">
        <ele>373</ele>
        <time>2012-08-22T12:29:21Z</time>
      </trkpt>
      <trkpt lat="46.89999" lon="4.72452">
        <ele>374</ele>
        <time>2012-08-22T12:29:22Z</time>
      </trkpt>
      <trkpt lat="46.90007" lon="4.72439">
        <ele>374</ele>
        <time>2012-08-22T12:29:23Z</time>
      </trkpt>
      <trkpt lat="46.90015" lon="4.72429">
        <ele>373</ele>
        <time>2012-08-22T12:29:24Z</time>
      </trkpt>
      <trkpt lat="46.90022" lon="4.72419">
        <ele>373</ele>
        <time>2012-08-22T12:29:25Z</time>
      </trkpt>
      <trkpt lat="46.90031" lon="4.7241">
        <ele>373</ele>
        <time>2012-08-22T12:29:26Z</time>
      </trkpt>
      <trkpt lat="46.90039" lon="4.72403">
        <ele>373</ele>
        <time>2012-08-22T12:29:27Z</time>
      </trkpt>
      <trkpt lat="46.90048" lon="4.72399">
        <ele>372</ele>
        <time>2012-08-22T12:29:28Z</time>
      </trkpt>
      <trkpt lat="46.90055" lon="4.72396">
        <ele>371</ele>
        <time>2012-08-22T12:29:29Z</time>
      </trkpt>
      <trkpt lat="46.9006" lon="4.72393">
        <ele>371</ele>
        <time>2012-08-22T12:30:26Z</time>
      </trkpt>
      <trkpt lat="46.90055" lon="4.72388">
        <ele>370</ele>
        <time>2012-08-22T12:30:27Z</time>
      </trkpt>
      <trkpt lat="46.90051" lon="4.72384">
        <ele>370</ele>
        <time>2012-08-22T12:30:28Z</time>
      </trkpt>
      <trkpt lat="46.90046" lon="4.72379">
        <ele>370</ele>
        <time>2012-08-22T12:30:29Z</time>
      </trkpt>
      <trkpt lat="46.90041" lon="4.72373">
        <ele>369</ele>
        <time>2012-08-22T12:30:30Z</time>
      </trkpt>
      <trkpt lat="46.90036" lon="4.72366">
        <ele>370</ele>
        <time>2012-08-22T12:30:31Z</time>
      </trkpt>
      <trkpt lat="46.9003" lon="4.7236">
        <ele>371</ele>
        <time>2012-08-22T12:30:32Z</time>
      </trkpt>
      <trkpt lat="46.90024" lon="4.72353">
        <ele>370</ele>
        <time>2012-08-22T12:30:33Z</time>
      </trkpt>
      <trkpt lat="46.90017" lon="4.72348">
        <ele>368</ele>
        <time>2012-08-22T12:30:34Z</time>
      </trkpt>
      <trkpt lat="46.90008" lon="4.72344">
        <ele>370</ele>
        <time>2012-08-22T12:30:35Z</time>
      </trkpt>
      <trkpt lat="46.9" lon="4.72341">
        <ele>365</ele>
        <time>2012-08-22T12:30:36Z</time>
      </trkpt>
      <trkpt lat="46.89992" lon="4.72338">
        <ele>365</ele>
        <time>2012-08-22T12:30:37Z</time>
      </trkpt>
      <trkpt lat="46.89985" lon="4.72335">
        <ele>367</ele>
        <time>2012-08-22T12:30:38Z</time>
      </trkpt>
      <trkpt lat="46.89978" lon="4.72332">
        <ele>365</ele>
        <time>2012-08-22T12:30:39Z</time>
      </trkpt>
      <trkpt lat="46.89971" lon="4.72329">
        <ele>364</ele>
        <time>2012-08-22T12:30:40Z</time>
      </trkpt>
      <trkpt lat="46.89964" lon="4.72327">
        <ele>361</ele>
        <time>2012-08-22T12:30:41Z</time>
      </trkpt>
      <trkpt lat="46.89956" lon="4.72324">
        <ele>363</ele>
        <time>2012-08-22T12:30:42Z</time>
      </trkpt>
      <trkpt lat="46.8995" lon="4.7232">
        <ele>366</ele>
        <time>2012-08-22T12:30:43Z</time>
      </trkpt>
      <trkpt lat="46.89943" lon="4.72315">
        <ele>367</ele>
        <time>2012-08-22T12:30:44Z</time>
      </trkpt>
      <trkpt lat="46.89936" lon="4.7231">
        <ele>367</ele>
        <time>2012-08-22T12:30:45Z</time>
      </trkpt>
      <trkpt lat="46.89931" lon="4.72302">
        <ele>369</ele>
        <time>2012-08-22T12:30:46Z</time>
      </trkpt>
      <trkpt lat="46.89926" lon="4.72294">
        <ele>369</ele>
        <time>2012-08-22T12:30:47Z</time>
      </trkpt>
      <trkpt lat="46.89921" lon="4.72287">
        <ele>371</ele>
        <time>2012-08-22T12:30:48Z</time>
      </trkpt>
      <trkpt lat="46.89916" lon="4.72279">
        <ele>370</ele>
        <time>2012-08-22T12:30:49Z</time>
      </trkpt>
      <trkpt lat="46.89911" lon="4.7227">
        <ele>371</ele>
        <time>2012-08-22T12:30:50Z</time>
      </trkpt>
      <trkpt lat="46.89906" lon="4.72262">
        <ele>373</ele>
        <time>2012-08-22T12:30:51Z</time>
      </trkpt>
      <trkpt lat="46.89901" lon="4.72254">
        <ele>373</ele>
        <time>2012-08-22T12:30:52Z</time>
      </trkpt>
      <trkpt lat="46.89896" lon="4.72247">
        <ele>372</ele>
        <time>2012-08-22T12:30:53Z</time>
      </trkpt>
      <trkpt lat="46.89891" lon="4.72241">
        <ele>372</ele>
        <time>2012-08-22T12:30:54Z</time>
      </trkpt>
      <trkpt lat="46.89886" lon="4.72235">
        <ele>372</ele>
        <time>2012-08-22T12:30:55Z</time>
      </trkpt>
      <trkpt lat="46.8988" lon="4.72228">
        <ele>376</ele>
        <time>2012-08-22T12:30:56Z</time>
      </trkpt>
      <trkpt lat="46.89875" lon="4.72221">
        <ele>375</ele>
        <time>2012-08-22T12:30:57Z</time>
      </trkpt>
      <trkpt lat="46.89872" lon="4.72211">
        <ele>376</ele>
        <time>2012-08-22T12:30:58Z</time>
      </trkpt>
      <trkpt lat="46.8987" lon="4.72203">
        <ele>379</ele>
        <time>2012-08-22T12:30:59Z</time>
      </trkpt>
      <trkpt lat="46.89868" lon="4.72196">
        <ele>378</ele>
        <time>2012-08-22T12:31:00Z</time>
      </trkpt>
      <trkpt lat="46.89864" lon="4.72184">
        <ele>377</ele>
        <time>2012-08-22T12:31:02Z</time>
      </trkpt>
      <trkpt lat="46.8986" lon="4.72178">
        <ele>378</ele>
        <time>2012-08-22T12:31:03Z</time>
      </trkpt>
      <trkpt lat="46.89856" lon="4.72172">
        <ele>380</ele>
        <time>2012-08-22T12:31:04Z</time>
      </trkpt>
      <trkpt lat="46.89852" lon="4.72167">
        <ele>378</ele>
        <time>2012-08-22T12:31:05Z</time>
      </trkpt>
      <trkpt lat="46.89847" lon="4.72161">
        <ele>379</ele>
        <time>2012-08-22T12:31:06Z</time>
      </trkpt>
      <trkpt lat="46.89841" lon="4.72154">
        <ele>379</ele>
        <time>2012-08-22T12:31:07Z</time>
      </trkpt>
      <trkpt lat="46.89835" lon="4.72147">
        <ele>379</ele>
        <time>2012-08-22T12:31:08Z</time>
      </trkpt>
      <trkpt lat="46.89828" lon="4.7214">
        <ele>376</ele>
        <time>2012-08-22T12:31:09Z</time>
      </trkpt>
      <trkpt lat="46.89821" lon="4.72134">
        <ele>379</ele>
        <time>2012-08-22T12:31:10Z</time>
      </trkpt>
      <trkpt lat="46.89813" lon="4.72127">
        <ele>378</ele>
        <time>2012-08-22T12:31:11Z</time>
      </trkpt>
      <trkpt lat="46.89806" lon="4.72121">
        <ele>377</ele>
        <time>2012-08-22T12:31:12Z</time>
      </trkpt>
      <trkpt lat="46.89798" lon="4.72114">
        <ele>378</ele>
        <time>2012-08-22T12:31:13Z</time>
      </trkpt>
      <trkpt lat="46.89791" lon="4.72106">
        <ele>376</ele>
        <time>2012-08-22T12:31:14Z</time>
      </trkpt>
      <trkpt lat="46.89784" lon="4.721">
        <ele>374</ele>
        <time>2012-08-22T12:31:15Z</time>
      </trkpt>
      <trkpt lat="46.89778" lon="4.72095">
        <ele>374</ele>
        <time>2012-08-22T12:31:16Z</time>
      </trkpt>
      <trkpt lat="46.89772" lon="4.72091">
        <ele>375</ele>
        <time>2012-08-22T12:31:17Z</time>
      </trkpt>
      <trkpt lat="46.89767" lon="4.72088">
        <ele>375</ele>
        <time>2012-08-22T12:31:18Z</time>
      </trkpt>
      <trkpt lat="46.8976" lon="4.72086">
        <ele>373</ele>
        <time>2012-08-22T12:31:20Z</time>
      </trkpt>
      <trkpt lat="46.8976" lon="4.72086">
        <ele>373</ele>
        <time>2012-08-22T12:31:20Z</time>
      </trkpt>
      <trkpt lat="46.8976" lon="4.72086">
        <ele>373</ele>
        <time>2012-08-22T12:31:23Z</time>
      </trkpt>
      <trkpt lat="46.89756" lon="4.72083">
        <ele>380</ele>
        <time>2012-08-22T12:31:25Z</time>
      </trkpt>
      <trkpt lat="46.89753" lon="4.72075">
        <ele>377</ele>
        <time>2012-08-22T12:31:27Z</time>
      </trkpt>
      <trkpt lat="46.89749" lon="4.72069">
        <ele>376</ele>
        <time>2012-08-22T12:31:30Z</time>
      </trkpt>
      <trkpt lat="46.89744" lon="4.72065">
        <ele>374</ele>
        <time>2012-08-22T12:31:33Z</time>
      </trkpt>
      <trkpt lat="46.89744" lon="4.72065">
        <ele>374</ele>
        <time>2012-08-22T12:31:33Z</time>
      </trkpt>
      <trkpt lat="46.89744" lon="4.72065">
        <ele>374</ele>
        <time>2012-08-22T12:31:35Z</time>
      </trkpt>
      <trkpt lat="46.89742" lon="4.72059">
        <ele>376</ele>
        <time>2012-08-22T12:31:38Z</time>
      </trkpt>
      <trkpt lat="46.89739" lon="4.72052">
        <ele>374</ele>
        <time>2012-08-22T12:31:40Z</time>
      </trkpt>
      <trkpt lat="46.89737" lon="4.72044">
        <ele>370</ele>
        <time>2012-08-22T12:31:42Z</time>
      </trkpt>
      <trkpt lat="46.89734" lon="4.72035">
        <ele>373</ele>
        <time>2012-08-22T12:31:44Z</time>
      </trkpt>
      <trkpt lat="46.89732" lon="4.72026">
        <ele>367</ele>
        <time>2012-08-22T12:31:46Z</time>
      </trkpt>
      <trkpt lat="46.89728" lon="4.72016">
        <ele>370</ele>
        <time>2012-08-22T12:31:48Z</time>
      </trkpt>
      <trkpt lat="46.89724" lon="4.72009">
        <ele>369</ele>
        <time>2012-08-22T12:31:49Z</time>
      </trkpt>
      <trkpt lat="46.89722" lon="4.71997">
        <ele>371</ele>
        <time>2012-08-22T12:31:51Z</time>
      </trkpt>
      <trkpt lat="46.8972" lon="4.71987">
        <ele>371</ele>
        <time>2012-08-22T12:31:53Z</time>
      </trkpt>
      <trkpt lat="46.89718" lon="4.71978">
        <ele>362</ele>
        <time>2012-08-22T12:31:55Z</time>
      </trkpt>
      <trkpt lat="46.89716" lon="4.71969">
        <ele>362</ele>
        <time>2012-08-22T12:31:57Z</time>
      </trkpt>
      <trkpt lat="46.89716" lon="4.71961">
        <ele>359</ele>
        <time>2012-08-22T12:31:59Z</time>
      </trkpt>
      <trkpt lat="46.89717" lon="4.71952">
        <ele>357</ele>
        <time>2012-08-22T12:32:01Z</time>
      </trkpt>
      <trkpt lat="46.89718" lon="4.71941">
        <ele>361</ele>
        <time>2012-08-22T12:32:03Z</time>
      </trkpt>
      <trkpt lat="46.8972" lon="4.71928">
        <ele>360</ele>
        <time>2012-08-22T12:32:05Z</time>
      </trkpt>
      <trkpt lat="46.89722" lon="4.71917">
        <ele>361</ele>
        <time>2012-08-22T12:32:07Z</time>
      </trkpt>
      <trkpt lat="46.89723" lon="4.71911">
        <ele>362</ele>
        <time>2012-08-22T12:32:09Z</time>
      </trkpt>
      <trkpt lat="46.89724" lon="4.71904">
        <ele>364</ele>
        <time>2012-08-22T12:32:11Z</time>
      </trkpt>
      <trkpt lat="46.89726" lon="4.71897">
        <ele>363</ele>
        <time>2012-08-22T12:32:13Z</time>
      </trkpt>
      <trkpt lat="46.8973" lon="4.7189">
        <ele>362</ele>
        <time>2012-08-22T12:32:16Z</time>
      </trkpt>
      <trkpt lat="46.89734" lon="4.71884">
        <ele>358</ele>
        <time>2012-08-22T12:32:18Z</time>
      </trkpt>
      <trkpt lat="46.89741" lon="4.71877">
        <ele>360</ele>
        <time>2012-08-22T12:32:20Z</time>
      </trkpt>
      <trkpt lat="46.89747" lon="4.7187">
        <ele>356</ele>
        <time>2012-08-22T12:32:22Z</time>
      </trkpt>
      <trkpt lat="46.89753" lon="4.71862">
        <ele>358</ele>
        <time>2012-08-22T12:32:24Z</time>
      </trkpt>
      <trkpt lat="46.89759" lon="4.71854">
        <ele>355</ele>
        <time>2012-08-22T12:32:26Z</time>
      </trkpt>
      <trkpt lat="46.89764" lon="4.71846">
        <ele>355</ele>
        <time>2012-08-22T12:32:28Z</time>
      </trkpt>
      <trkpt lat="46.89767" lon="4.7184">
        <ele>354</ele>
        <time>2012-08-22T12:32:30Z</time>
      </trkpt>
      <trkpt lat="46.89769" lon="4.71833">
        <ele>349</ele>
        <time>2012-08-22T12:32:34Z</time>
      </trkpt>
      <trkpt lat="46.8977" lon="4.71827">
        <ele>348</ele>
        <time>2012-08-22T12:32:37Z</time>
      </trkpt>
      <trkpt lat="46.89772" lon="4.71821">
        <ele>352</ele>
        <time>2012-08-22T12:32:40Z</time>
      </trkpt>
      <trkpt lat="46.89773" lon="4.71813">
        <ele>352</ele>
        <time>2012-08-22T12:32:43Z</time>
      </trkpt>
      <trkpt lat="46.89773" lon="4.71805">
        <ele>353</ele>
        <time>2012-08-22T12:32:47Z</time>
      </trkpt>
      <trkpt lat="46.89775" lon="4.71799">
        <ele>351</ele>
        <time>2012-08-22T12:32:51Z</time>
      </trkpt>
      <trkpt lat="46.89775" lon="4.71799">
        <ele>351</ele>
        <time>2012-08-22T12:32:51Z</time>
      </trkpt>
      <trkpt lat="46.89775" lon="4.71799">
        <ele>351</ele>
        <time>2012-08-22T12:32:55Z</time>
      </trkpt>
      <trkpt lat="46.89777" lon="4.71793">
        <ele>349</ele>
        <time>2012-08-22T12:32:57Z</time>
      </trkpt>
      <trkpt lat="46.89778" lon="4.71785">
        <ele>352</ele>
        <time>2012-08-22T12:33:00Z</time>
      </trkpt>
      <trkpt lat="46.89778" lon="4.71785">
        <ele>352</ele>
        <time>2012-08-22T12:33:00Z</time>
      </trkpt>
      <trkpt lat="46.89778" lon="4.71785">
        <ele>352</ele>
        <time>2012-08-22T12:33:01Z</time>
      </trkpt>
      <trkpt lat="46.89781" lon="4.71776">
        <ele>351</ele>
        <time>2012-08-22T12:33:03Z</time>
      </trkpt>
      <trkpt lat="46.89782" lon="4.71767">
        <ele>347</ele>
        <time>2012-08-22T12:33:06Z</time>
      </trkpt>
      <trkpt lat="46.89782" lon="4.71754">
        <ele>351</ele>
        <time>2012-08-22T12:33:13Z</time>
      </trkpt>
      <trkpt lat="46.89782" lon="4.71745">
        <ele>352</ele>
        <time>2012-08-22T12:33:16Z</time>
      </trkpt>
      <trkpt lat="46.89782" lon="4.71735">
        <ele>344</ele>
        <time>2012-08-22T12:33:18Z</time>
      </trkpt>
      <trkpt lat="46.89781" lon="4.71728">
        <ele>346</ele>
        <time>2012-08-22T12:33:20Z</time>
      </trkpt>
      <trkpt lat="46.89781" lon="4.71721">
        <ele>346</ele>
        <time>2012-08-22T12:33:22Z</time>
      </trkpt>
      <trkpt lat="46.89781" lon="4.71714">
        <ele>342</ele>
        <time>2012-08-22T12:33:24Z</time>
      </trkpt>
      <trkpt lat="46.89784" lon="4.71706">
        <ele>344</ele>
        <time>2012-08-22T12:33:26Z</time>
      </trkpt>
      <trkpt lat="46.89786" lon="4.717">
        <ele>346</ele>
        <time>2012-08-22T12:33:28Z</time>
      </trkpt>
      <trkpt lat="46.89788" lon="4.71691">
        <ele>342</ele>
        <time>2012-08-22T12:33:31Z</time>
      </trkpt>
      <trkpt lat="46.89787" lon="4.71684">
        <ele>338</ele>
        <time>2012-08-22T12:33:33Z</time>
      </trkpt>
      <trkpt lat="46.89786" lon="4.71675">
        <ele>337</ele>
        <time>2012-08-22T12:33:36Z</time>
      </trkpt>
      <trkpt lat="46.89785" lon="4.71666">
        <ele>334</ele>
        <time>2012-08-22T12:33:39Z</time>
      </trkpt>
      <trkpt lat="46.89784" lon="4.71658">
        <ele>335</ele>
        <time>2012-08-22T12:33:41Z</time>
      </trkpt>
      <trkpt lat="46.89784" lon="4.71651">
        <ele>334</ele>
        <time>2012-08-22T12:33:43Z</time>
      </trkpt>
      <trkpt lat="46.89784" lon="4.71643">
        <ele>332</ele>
        <time>2012-08-22T12:33:45Z</time>
      </trkpt>
      <trkpt lat="46.89784" lon="4.71636">
        <ele>330</ele>
        <time>2012-08-22T12:33:47Z</time>
      </trkpt>
      <trkpt lat="46.89784" lon="4.71628">
        <ele>330</ele>
        <time>2012-08-22T12:33:49Z</time>
      </trkpt>
      <trkpt lat="46.89783" lon="4.71621">
        <ele>326</ele>
        <time>2012-08-22T12:33:51Z</time>
      </trkpt>
      <trkpt lat="46.89783" lon="4.71612">
        <ele>325</ele>
        <time>2012-08-22T12:33:54Z</time>
      </trkpt>
      <trkpt lat="46.89782" lon="4.71603">
        <ele>316</ele>
        <time>2012-08-22T12:33:57Z</time>
      </trkpt>
      <trkpt lat="46.89782" lon="4.71596">
        <ele>312</ele>
        <time>2012-08-22T12:34:00Z</time>
      </trkpt>
      <trkpt lat="46.89782" lon="4.71589">
        <ele>317</ele>
        <time>2012-08-22T12:34:03Z</time>
      </trkpt>
      <trkpt lat="46.89784" lon="4.71581">
        <ele>317</ele>
        <time>2012-08-22T12:34:05Z</time>
      </trkpt>
      <trkpt lat="46.89785" lon="4.71574">
        <ele>322</ele>
        <time>2012-08-22T12:34:08Z</time>
      </trkpt>
      <trkpt lat="46.89787" lon="4.71565">
        <ele>327</ele>
        <time>2012-08-22T12:34:11Z</time>
      </trkpt>
      <trkpt lat="46.89788" lon="4.71556">
        <ele>328</ele>
        <time>2012-08-22T12:34:22Z</time>
      </trkpt>
      <trkpt lat="46.8979" lon="4.71549">
        <ele>324</ele>
        <time>2012-08-22T12:34:25Z</time>
      </trkpt>
      <trkpt lat="46.89789" lon="4.71542">
        <ele>319</ele>
        <time>2012-08-22T12:34:27Z</time>
      </trkpt>
      <trkpt lat="46.89787" lon="4.71534">
        <ele>314</ele>
        <time>2012-08-22T12:34:29Z</time>
      </trkpt>
      <trkpt lat="46.89783" lon="4.71522">
        <ele>313</ele>
        <time>2012-08-22T12:34:31Z</time>
      </trkpt>
      <trkpt lat="46.8978" lon="4.71515">
        <ele>313</ele>
        <time>2012-08-22T12:34:32Z</time>
      </trkpt>
      <trkpt lat="46.89778" lon="4.71508">
        <ele>312</ele>
        <time>2012-08-22T12:34:33Z</time>
      </trkpt>
      <trkpt lat="46.89776" lon="4.71498">
        <ele>314</ele>
        <time>2012-08-22T12:34:34Z</time>
      </trkpt>
      <trkpt lat="46.89772" lon="4.71489">
        <ele>316</ele>
        <time>2012-08-22T12:34:35Z</time>
      </trkpt>
      <trkpt lat="46.89768" lon="4.7148">
        <ele>313</ele>
        <time>2012-08-22T12:34:36Z</time>
      </trkpt>
      <trkpt lat="46.89764" lon="4.7147">
        <ele>312</ele>
        <time>2012-08-22T12:34:37Z</time>
      </trkpt>
      <trkpt lat="46.89758" lon="4.71459">
        <ele>311</ele>
        <time>2012-08-22T12:34:38Z</time>
      </trkpt>
      <trkpt lat="46.89752" lon="4.7145">
        <ele>309</ele>
        <time>2012-08-22T12:34:39Z</time>
      </trkpt>
      <trkpt lat="46.89746" lon="4.7144">
        <ele>308</ele>
        <time>2012-08-22T12:34:40Z</time>
      </trkpt>
      <trkpt lat="46.89741" lon="4.7143">
        <ele>307</ele>
        <time>2012-08-22T12:34:41Z</time>
      </trkpt>
      <trkpt lat="46.89734" lon="4.7142">
        <ele>307</ele>
        <time>2012-08-22T12:34:42Z</time>
      </trkpt>
      <trkpt lat="46.89728" lon="4.71409">
        <ele>306</ele>
        <time>2012-08-22T12:34:43Z</time>
      </trkpt>
      <trkpt lat="46.89722" lon="4.71399">
        <ele>305</ele>
        <time>2012-08-22T12:34:44Z</time>
      </trkpt>
      <trkpt lat="46.89716" lon="4.7139">
        <ele>302</ele>
        <time>2012-08-22T12:34:45Z</time>
      </trkpt>
      <trkpt lat="46.8971" lon="4.7138">
        <ele>302</ele>
        <time>2012-08-22T12:34:46Z</time>
      </trkpt>
      <trkpt lat="46.89704" lon="4.7137">
        <ele>303</ele>
        <time>2012-08-22T12:34:47Z</time>
      </trkpt>
      <trkpt lat="46.89698" lon="4.71359">
        <ele>304</ele>
        <time>2012-08-22T12:34:48Z</time>
      </trkpt>
      <trkpt lat="46.89692" lon="4.71348">
        <ele>303</ele>
        <time>2012-08-22T12:34:49Z</time>
      </trkpt>
      <trkpt lat="46.89686" lon="4.71337">
        <ele>302</ele>
        <time>2012-08-22T12:34:50Z</time>
      </trkpt>
      <trkpt lat="46.89682" lon="4.71327">
        <ele>302</ele>
        <time>2012-08-22T12:34:51Z</time>
      </trkpt>
      <trkpt lat="46.89678" lon="4.71316">
        <ele>301</ele>
        <time>2012-08-22T12:34:52Z</time>
      </trkpt>
      <trkpt lat="46.89676" lon="4.71305">
        <ele>302</ele>
        <time>2012-08-22T12:34:53Z</time>
      </trkpt>
      <trkpt lat="46.89673" lon="4.71294">
        <ele>303</ele>
        <time>2012-08-22T12:34:54Z</time>
      </trkpt>
      <trkpt lat="46.8967" lon="4.71283">
        <ele>300</ele>
        <time>2012-08-22T12:34:55Z</time>
      </trkpt>
      <trkpt lat="46.89667" lon="4.71272">
        <ele>300</ele>
        <time>2012-08-22T12:34:56Z</time>
      </trkpt>
      <trkpt lat="46.89664" lon="4.71261">
        <ele>299</ele>
        <time>2012-08-22T12:34:57Z</time>
      </trkpt>
      <trkpt lat="46.8966" lon="4.71249">
        <ele>298</ele>
        <time>2012-08-22T12:34:58Z</time>
      </trkpt>
      <trkpt lat="46.89657" lon="4.71239">
        <ele>293</ele>
        <time>2012-08-22T12:34:59Z</time>
      </trkpt>
      <trkpt lat="46.89654" lon="4.71229">
        <ele>291</ele>
        <time>2012-08-22T12:35:00Z</time>
      </trkpt>
      <trkpt lat="46.89652" lon="4.71219">
        <ele>292</ele>
        <time>2012-08-22T12:35:01Z</time>
      </trkpt>
      <trkpt lat="46.89649" lon="4.7121">
        <ele>289</ele>
        <time>2012-08-22T12:35:02Z</time>
      </trkpt>
      <trkpt lat="46.89646" lon="4.71201">
        <ele>289</ele>
        <time>2012-08-22T12:35:03Z</time>
      </trkpt>
      <trkpt lat="46.89644" lon="4.71192">
        <ele>290</ele>
        <time>2012-08-22T12:35:04Z</time>
      </trkpt>
      <trkpt lat="46.89641" lon="4.71183">
        <ele>291</ele>
        <time>2012-08-22T12:35:05Z</time>
      </trkpt>
      <trkpt lat="46.89639" lon="4.71174">
        <ele>293</ele>
        <time>2012-08-22T12:35:06Z</time>
      </trkpt>
      <trkpt lat="46.89636" lon="4.71166">
        <ele>293</ele>
        <time>2012-08-22T12:35:07Z</time>
      </trkpt>
      <trkpt lat="46.89634" lon="4.71158">
        <ele>294</ele>
        <time>2012-08-22T12:35:08Z</time>
      </trkpt>
      <trkpt lat="46.89632" lon="4.71151">
        <ele>294</ele>
        <time>2012-08-22T12:35:09Z</time>
      </trkpt>
      <trkpt lat="46.8963" lon="4.71145">
        <ele>294</ele>
        <time>2012-08-22T12:35:10Z</time>
      </trkpt>
      <trkpt lat="46.89627" lon="4.71138">
        <ele>294</ele>
        <time>2012-08-22T12:35:11Z</time>
      </trkpt>
      <trkpt lat="46.89624" lon="4.71126">
        <ele>288</ele>
        <time>2012-08-22T12:35:13Z</time>
      </trkpt>
      <trkpt lat="46.8962" lon="4.71118">
        <ele>289</ele>
        <time>2012-08-22T12:35:15Z</time>
      </trkpt>
      <trkpt lat="46.89612" lon="4.71115">
        <ele>291</ele>
        <time>2012-08-22T12:35:17Z</time>
      </trkpt>
      <trkpt lat="46.89606" lon="4.71114">
        <ele>290</ele>
        <time>2012-08-22T12:35:18Z</time>
      </trkpt>
      <trkpt lat="46.89598" lon="4.71112">
        <ele>290</ele>
        <time>2012-08-22T12:35:19Z</time>
      </trkpt>
      <trkpt lat="46.89589" lon="4.7111">
        <ele>287</ele>
        <time>2012-08-22T12:35:20Z</time>
      </trkpt>
      <trkpt lat="46.89579" lon="4.7111">
        <ele>286</ele>
        <time>2012-08-22T12:35:21Z</time>
      </trkpt>
      <trkpt lat="46.89568" lon="4.71109">
        <ele>287</ele>
        <time>2012-08-22T12:35:22Z</time>
      </trkpt>
      <trkpt lat="46.89558" lon="4.7111">
        <ele>286</ele>
        <time>2012-08-22T12:35:23Z</time>
      </trkpt>
      <trkpt lat="46.89547" lon="4.71111">
        <ele>287</ele>
        <time>2012-08-22T12:35:24Z</time>
      </trkpt>
      <trkpt lat="46.89537" lon="4.71113">
        <ele>286</ele>
        <time>2012-08-22T12:35:25Z</time>
      </trkpt>
      <trkpt lat="46.89527" lon="4.71114">
        <ele>287</ele>
        <time>2012-08-22T12:35:26Z</time>
      </trkpt>
      <trkpt lat="46.89518" lon="4.7111">
        <ele>288</ele>
        <time>2012-08-22T12:35:27Z</time>
      </trkpt>
      <trkpt lat="46.8951" lon="4.71108">
        <ele>290</ele>
        <time>2012-08-22T12:35:28Z</time>
      </trkpt>
      <trkpt lat="46.89502" lon="4.71105">
        <ele>290</ele>
        <time>2012-08-22T12:35:29Z</time>
      </trkpt>
      <trkpt lat="46.89495" lon="4.71102">
        <ele>290</ele>
        <time>2012-08-22T12:35:30Z</time>
      </trkpt>
      <trkpt lat="46.89489" lon="4.71098">
        <ele>292</ele>
        <time>2012-08-22T12:35:31Z</time>
      </trkpt>
      <trkpt lat="46.89484" lon="4.71096">
        <ele>293</ele>
        <time>2012-08-22T12:35:32Z</time>
      </trkpt>
      <trkpt lat="46.89478" lon="4.71095">
        <ele>295</ele>
        <time>2012-08-22T12:35:33Z</time>
      </trkpt>
      <trkpt lat="46.89472" lon="4.71095">
        <ele>297</ele>
        <time>2012-08-22T12:35:34Z</time>
      </trkpt>
      <trkpt lat="46.89465" lon="4.71095">
        <ele>297</ele>
        <time>2012-08-22T12:35:35Z</time>
      </trkpt>
      <trkpt lat="46.89458" lon="4.71094">
        <ele>299</ele>
        <time>2012-08-22T12:35:36Z</time>
      </trkpt>
      <trkpt lat="46.89451" lon="4.71095">
        <ele>298</ele>
        <time>2012-08-22T12:35:37Z</time>
      </trkpt>
      <trkpt lat="46.89443" lon="4.71095">
        <ele>296</ele>
        <time>2012-08-22T12:35:38Z</time>
      </trkpt>
      <trkpt lat="46.89436" lon="4.71096">
        <ele>298</ele>
        <time>2012-08-22T12:35:39Z</time>
      </trkpt>
      <trkpt lat="46.89429" lon="4.71096">
        <ele>300</ele>
        <time>2012-08-22T12:35:40Z</time>
      </trkpt>
      <trkpt lat="46.89421" lon="4.71098">
        <ele>301</ele>
        <time>2012-08-22T12:35:41Z</time>
      </trkpt>
      <trkpt lat="46.89414" lon="4.711">
        <ele>299</ele>
        <time>2012-08-22T12:35:42Z</time>
      </trkpt>
      <trkpt lat="46.89407" lon="4.71101">
        <ele>298</ele>
        <time>2012-08-22T12:35:43Z</time>
      </trkpt>
      <trkpt lat="46.894" lon="4.71102">
        <ele>299</ele>
        <time>2012-08-22T12:35:44Z</time>
      </trkpt>
      <trkpt lat="46.89393" lon="4.71103">
        <ele>298</ele>
        <time>2012-08-22T12:35:45Z</time>
      </trkpt>
      <trkpt lat="46.89386" lon="4.71103">
        <ele>300</ele>
        <time>2012-08-22T12:35:46Z</time>
      </trkpt>
      <trkpt lat="46.89378" lon="4.71103">
        <ele>300</ele>
        <time>2012-08-22T12:35:47Z</time>
      </trkpt>
      <trkpt lat="46.8937" lon="4.71102">
        <ele>300</ele>
        <time>2012-08-22T12:35:48Z</time>
      </trkpt>
      <trkpt lat="46.89362" lon="4.711">
        <ele>297</ele>
        <time>2012-08-22T12:35:49Z</time>
      </trkpt>
      <trkpt lat="46.89353" lon="4.71098">
        <ele>298</ele>
        <time>2012-08-22T12:35:50Z</time>
      </trkpt>
      <trkpt lat="46.89345" lon="4.71095">
        <ele>304</ele>
        <time>2012-08-22T12:35:51Z</time>
      </trkpt>
      <trkpt lat="46.89335" lon="4.71091">
        <ele>308</ele>
        <time>2012-08-22T12:35:52Z</time>
      </trkpt>
      <trkpt lat="46.89326" lon="4.71087">
        <ele>308</ele>
        <time>2012-08-22T12:35:53Z</time>
      </trkpt>
      <trkpt lat="46.89318" lon="4.71083">
        <ele>310</ele>
        <time>2012-08-22T12:35:54Z</time>
      </trkpt>
      <trkpt lat="46.89311" lon="4.71079">
        <ele>309</ele>
        <time>2012-08-22T12:35:55Z</time>
      </trkpt>
      <trkpt lat="46.89303" lon="4.71075">
        <ele>315</ele>
        <time>2012-08-22T12:35:56Z</time>
      </trkpt>
      <trkpt lat="46.89295" lon="4.7107">
        <ele>315</ele>
        <time>2012-08-22T12:35:57Z</time>
      </trkpt>
      <trkpt lat="46.89288" lon="4.71066">
        <ele>316</ele>
        <time>2012-08-22T12:35:58Z</time>
      </trkpt>
      <trkpt lat="46.89281" lon="4.71061">
        <ele>316</ele>
        <time>2012-08-22T12:35:59Z</time>
      </trkpt>
      <trkpt lat="46.89273" lon="4.71056">
        <ele>316</ele>
        <time>2012-08-22T12:36:00Z</time>
      </trkpt>
      <trkpt lat="46.89265" lon="4.71051">
        <ele>313</ele>
        <time>2012-08-22T12:36:01Z</time>
      </trkpt>
      <trkpt lat="46.89256" lon="4.71046">
        <ele>313</ele>
        <time>2012-08-22T12:36:02Z</time>
      </trkpt>
      <trkpt lat="46.89248" lon="4.71042">
        <ele>314</ele>
        <time>2012-08-22T12:36:03Z</time>
      </trkpt>
      <trkpt lat="46.8924" lon="4.71037">
        <ele>311</ele>
        <time>2012-08-22T12:36:04Z</time>
      </trkpt>
      <trkpt lat="46.89232" lon="4.71032">
        <ele>313</ele>
        <time>2012-08-22T12:36:05Z</time>
      </trkpt>
      <trkpt lat="46.89225" lon="4.71028">
        <ele>313</ele>
        <time>2012-08-22T12:36:06Z</time>
      </trkpt>
      <trkpt lat="46.89218" lon="4.71024">
        <ele>310</ele>
        <time>2012-08-22T12:36:07Z</time>
      </trkpt>
      <trkpt lat="46.8921" lon="4.7102">
        <ele>313</ele>
        <time>2012-08-22T12:36:08Z</time>
      </trkpt>
      <trkpt lat="46.89203" lon="4.71016">
        <ele>310</ele>
        <time>2012-08-22T12:36:09Z</time>
      </trkpt>
      <trkpt lat="46.89195" lon="4.71012">
        <ele>310</ele>
        <time>2012-08-22T12:36:10Z</time>
      </trkpt>
      <trkpt lat="46.89188" lon="4.71007">
        <ele>308</ele>
        <time>2012-08-22T12:36:11Z</time>
      </trkpt>
      <trkpt lat="46.89181" lon="4.71002">
        <ele>311</ele>
        <time>2012-08-22T12:36:12Z</time>
      </trkpt>
      <trkpt lat="46.89174" lon="4.70997">
        <ele>312</ele>
        <time>2012-08-22T12:36:13Z</time>
      </trkpt>
      <trkpt lat="46.89168" lon="4.70992">
        <ele>311</ele>
        <time>2012-08-22T12:36:14Z</time>
      </trkpt>
      <trkpt lat="46.89161" lon="4.70987">
        <ele>307</ele>
        <time>2012-08-22T12:36:15Z</time>
      </trkpt>
      <trkpt lat="46.89154" lon="4.70982">
        <ele>312</ele>
        <time>2012-08-22T12:36:16Z</time>
      </trkpt>
      <trkpt lat="46.89148" lon="4.70978">
        <ele>315</ele>
        <time>2012-08-22T12:36:17Z</time>
      </trkpt>
      <trkpt lat="46.89142" lon="4.70974">
        <ele>315</ele>
        <time>2012-08-22T12:36:18Z</time>
      </trkpt>
      <trkpt lat="46.89138" lon="4.7097">
        <ele>315</ele>
        <time>2012-08-22T12:36:19Z</time>
      </trkpt>
      <trkpt lat="46.89133" lon="4.70966">
        <ele>316</ele>
        <time>2012-08-22T12:36:20Z</time>
      </trkpt>
      <trkpt lat="46.89128" lon="4.70962">
        <ele>316</ele>
        <time>2012-08-22T12:36:21Z</time>
      </trkpt>
      <trkpt lat="46.89123" lon="4.70959">
        <ele>317</ele>
        <time>2012-08-22T12:36:22Z</time>
      </trkpt>
      <trkpt lat="46.89116" lon="4.70955">
        <ele>318</ele>
        <time>2012-08-22T12:36:24Z</time>
      </trkpt>
      <trkpt lat="46.89102" lon="4.70946">
        <ele>321</ele>
        <time>2012-08-22T12:37:04Z</time>
      </trkpt>
      <trkpt lat="46.89096" lon="4.70942">
        <ele>322</ele>
        <time>2012-08-22T12:37:07Z</time>
      </trkpt>
      <trkpt lat="46.89089" lon="4.70937">
        <ele>322</ele>
        <time>2012-08-22T12:37:09Z</time>
      </trkpt>
      <trkpt lat="46.89084" lon="4.70933">
        <ele>322</ele>
        <time>2012-08-22T12:37:10Z</time>
      </trkpt>
      <trkpt lat="46.89079" lon="4.70929">
        <ele>323</ele>
        <time>2012-08-22T12:37:11Z</time>
      </trkpt>
      <trkpt lat="46.89072" lon="4.70923">
        <ele>323</ele>
        <time>2012-08-22T12:37:12Z</time>
      </trkpt>
      <trkpt lat="46.89067" lon="4.70918">
        <ele>320</ele>
        <time>2012-08-22T12:37:13Z</time>
      </trkpt>
      <trkpt lat="46.89061" lon="4.70913">
        <ele>320</ele>
        <time>2012-08-22T12:37:14Z</time>
      </trkpt>
      <trkpt lat="46.89053" lon="4.70906">
        <ele>323</ele>
        <time>2012-08-22T12:37:15Z</time>
      </trkpt>
      <trkpt lat="46.89046" lon="4.709">
        <ele>321</ele>
        <time>2012-08-22T12:37:16Z</time>
      </trkpt>
      <trkpt lat="46.89037" lon="4.70892">
        <ele>322</ele>
        <time>2012-08-22T12:37:17Z</time>
      </trkpt>
      <trkpt lat="46.8903" lon="4.70885">
        <ele>322</ele>
        <time>2012-08-22T12:37:18Z</time>
      </trkpt>
      <trkpt lat="46.89022" lon="4.70878">
        <ele>321</ele>
        <time>2012-08-22T12:37:19Z</time>
      </trkpt>
      <trkpt lat="46.89014" lon="4.70872">
        <ele>325</ele>
        <time>2012-08-22T12:37:20Z</time>
      </trkpt>
      <trkpt lat="46.89008" lon="4.70865">
        <ele>324</ele>
        <time>2012-08-22T12:37:21Z</time>
      </trkpt>
      <trkpt lat="46.89001" lon="4.70859">
        <ele>323</ele>
        <time>2012-08-22T12:37:22Z</time>
      </trkpt>
      <trkpt lat="46.88994" lon="4.70852">
        <ele>321</ele>
        <time>2012-08-22T12:37:23Z</time>
      </trkpt>
      <trkpt lat="46.88988" lon="4.70845">
        <ele>321</ele>
        <time>2012-08-22T12:37:24Z</time>
      </trkpt>
      <trkpt lat="46.88982" lon="4.70838">
        <ele>318</ele>
        <time>2012-08-22T12:37:25Z</time>
      </trkpt>
      <trkpt lat="46.88976" lon="4.7083">
        <ele>319</ele>
        <time>2012-08-22T12:37:26Z</time>
      </trkpt>
      <trkpt lat="46.88971" lon="4.70823">
        <ele>320</ele>
        <time>2012-08-22T12:37:27Z</time>
      </trkpt>
      <trkpt lat="46.88965" lon="4.70816">
        <ele>321</ele>
        <time>2012-08-22T12:37:28Z</time>
      </trkpt>
      <trkpt lat="46.88961" lon="4.70807">
        <ele>322</ele>
        <time>2012-08-22T12:37:29Z</time>
      </trkpt>
      <trkpt lat="46.88956" lon="4.70799">
        <ele>320</ele>
        <time>2012-08-22T12:37:30Z</time>
      </trkpt>
      <trkpt lat="46.88952" lon="4.70792">
        <ele>318</ele>
        <time>2012-08-22T12:37:31Z</time>
      </trkpt>
      <trkpt lat="46.88947" lon="4.70784">
        <ele>316</ele>
        <time>2012-08-22T12:37:32Z</time>
      </trkpt>
      <trkpt lat="46.88942" lon="4.70775">
        <ele>315</ele>
        <time>2012-08-22T12:37:33Z</time>
      </trkpt>
      <trkpt lat="46.88936" lon="4.70766">
        <ele>318</ele>
        <time>2012-08-22T12:37:34Z</time>
      </trkpt>
      <trkpt lat="46.88931" lon="4.70759">
        <ele>317</ele>
        <time>2012-08-22T12:37:35Z</time>
      </trkpt>
      <trkpt lat="46.88927" lon="4.70752">
        <ele>318</ele>
        <time>2012-08-22T12:37:36Z</time>
      </trkpt>
      <trkpt lat="46.88923" lon="4.70744">
        <ele>317</ele>
        <time>2012-08-22T12:37:37Z</time>
      </trkpt>
      <trkpt lat="46.88919" lon="4.70736">
        <ele>319</ele>
        <time>2012-08-22T12:37:38Z</time>
      </trkpt>
      <trkpt lat="46.88915" lon="4.70728">
        <ele>317</ele>
        <time>2012-08-22T12:37:39Z</time>
      </trkpt>
      <trkpt lat="46.88913" lon="4.70719">
        <ele>317</ele>
        <time>2012-08-22T12:37:40Z</time>
      </trkpt>
      <trkpt lat="46.88912" lon="4.70712">
        <ele>318</ele>
        <time>2012-08-22T12:37:41Z</time>
      </trkpt>
      <trkpt lat="46.8891" lon="4.70703">
        <ele>320</ele>
        <time>2012-08-22T12:37:42Z</time>
      </trkpt>
      <trkpt lat="46.88909" lon="4.70696">
        <ele>317</ele>
        <time>2012-08-22T12:37:43Z</time>
      </trkpt>
      <trkpt lat="46.88907" lon="4.70688">
        <ele>317</ele>
        <time>2012-08-22T12:37:44Z</time>
      </trkpt>
      <trkpt lat="46.88904" lon="4.70678">
        <ele>318</ele>
        <time>2012-08-22T12:37:45Z</time>
      </trkpt>
      <trkpt lat="46.88901" lon="4.70669">
        <ele>316</ele>
        <time>2012-08-22T12:37:46Z</time>
      </trkpt>
      <trkpt lat="46.88898" lon="4.70659">
        <ele>320</ele>
        <time>2012-08-22T12:37:47Z</time>
      </trkpt>
      <trkpt lat="46.88894" lon="4.70648">
        <ele>320</ele>
        <time>2012-08-22T12:37:48Z</time>
      </trkpt>
      <trkpt lat="46.88889" lon="4.70638">
        <ele>320</ele>
        <time>2012-08-22T12:37:49Z</time>
      </trkpt>
      <trkpt lat="46.88885" lon="4.7063">
        <ele>316</ele>
        <time>2012-08-22T12:37:50Z</time>
      </trkpt>
      <trkpt lat="46.88881" lon="4.70621">
        <ele>319</ele>
        <time>2012-08-22T12:37:51Z</time>
      </trkpt>
      <trkpt lat="46.88877" lon="4.70613">
        <ele>320</ele>
        <time>2012-08-22T12:37:52Z</time>
      </trkpt>
      <trkpt lat="46.88871" lon="4.70608">
        <ele>320</ele>
        <time>2012-08-22T12:37:53Z</time>
      </trkpt>
      <trkpt lat="46.88866" lon="4.70603">
        <ele>319</ele>
        <time>2012-08-22T12:37:54Z</time>
      </trkpt>
      <trkpt lat="46.88861" lon="4.70597">
        <ele>319</ele>
        <time>2012-08-22T12:37:55Z</time>
      </trkpt>
      <trkpt lat="46.88856" lon="4.7059">
        <ele>319</ele>
        <time>2012-08-22T12:37:56Z</time>
      </trkpt>
      <trkpt lat="46.88851" lon="4.70582">
        <ele>317</ele>
        <time>2012-08-22T12:37:57Z</time>
      </trkpt>
      <trkpt lat="46.88847" lon="4.70576">
        <ele>317</ele>
        <time>2012-08-22T12:37:58Z</time>
      </trkpt>
      <trkpt lat="46.88843" lon="4.7057">
        <ele>317</ele>
        <time>2012-08-22T12:37:59Z</time>
      </trkpt>
      <trkpt lat="46.88839" lon="4.70564">
        <ele>320</ele>
        <time>2012-08-22T12:38:00Z</time>
      </trkpt>
      <trkpt lat="46.88834" lon="4.70558">
        <ele>320</ele>
        <time>2012-08-22T12:38:01Z</time>
      </trkpt>
      <trkpt lat="46.88829" lon="4.70552">
        <ele>319</ele>
        <time>2012-08-22T12:38:02Z</time>
      </trkpt>
      <trkpt lat="46.88824" lon="4.70546">
        <ele>319</ele>
        <time>2012-08-22T12:38:03Z</time>
      </trkpt>
      <trkpt lat="46.88819" lon="4.7054">
        <ele>319</ele>
        <time>2012-08-22T12:38:04Z</time>
      </trkpt>
      <trkpt lat="46.88812" lon="4.70535">
        <ele>321</ele>
        <time>2012-08-22T12:38:05Z</time>
      </trkpt>
      <trkpt lat="46.88805" lon="4.70531">
        <ele>319</ele>
        <time>2012-08-22T12:38:06Z</time>
      </trkpt>
      <trkpt lat="46.888" lon="4.70524">
        <ele>319</ele>
        <time>2012-08-22T12:38:07Z</time>
      </trkpt>
      <trkpt lat="46.88795" lon="4.70517">
        <ele>319</ele>
        <time>2012-08-22T12:38:08Z</time>
      </trkpt>
      <trkpt lat="46.88791" lon="4.70508">
        <ele>319</ele>
        <time>2012-08-22T12:38:09Z</time>
      </trkpt>
      <trkpt lat="46.88788" lon="4.705">
        <ele>317</ele>
        <time>2012-08-22T12:38:10Z</time>
      </trkpt>
      <trkpt lat="46.88784" lon="4.70493">
        <ele>320</ele>
        <time>2012-08-22T12:38:11Z</time>
      </trkpt>
      <trkpt lat="46.88781" lon="4.70486">
        <ele>319</ele>
        <time>2012-08-22T12:38:12Z</time>
      </trkpt>
      <trkpt lat="46.88778" lon="4.70478">
        <ele>321</ele>
        <time>2012-08-22T12:38:13Z</time>
      </trkpt>
      <trkpt lat="46.88774" lon="4.7047">
        <ele>320</ele>
        <time>2012-08-22T12:38:14Z</time>
      </trkpt>
      <trkpt lat="46.88768" lon="4.70463">
        <ele>320</ele>
        <time>2012-08-22T12:38:15Z</time>
      </trkpt>
      <trkpt lat="46.88762" lon="4.70455">
        <ele>319</ele>
        <time>2012-08-22T12:38:16Z</time>
      </trkpt>
      <trkpt lat="46.88757" lon="4.70448">
        <ele>318</ele>
        <time>2012-08-22T12:38:17Z</time>
      </trkpt>
      <trkpt lat="46.88751" lon="4.70438">
        <ele>319</ele>
        <time>2012-08-22T12:38:18Z</time>
      </trkpt>
      <trkpt lat="46.88745" lon="4.70429">
        <ele>320</ele>
        <time>2012-08-22T12:38:19Z</time>
      </trkpt>
      <trkpt lat="46.88739" lon="4.70421">
        <ele>321</ele>
        <time>2012-08-22T12:38:20Z</time>
      </trkpt>
      <trkpt lat="46.88735" lon="4.70414">
        <ele>320</ele>
        <time>2012-08-22T12:38:21Z</time>
      </trkpt>
      <trkpt lat="46.8873" lon="4.70411">
        <ele>321</ele>
        <time>2012-08-22T12:38:22Z</time>
      </trkpt>
      <trkpt lat="46.88723" lon="4.70404">
        <ele>324</ele>
        <time>2012-08-22T12:38:24Z</time>
      </trkpt>
      <trkpt lat="46.88719" lon="4.70401">
        <ele>324</ele>
        <time>2012-08-22T12:38:25Z</time>
      </trkpt>
      <trkpt lat="46.88714" lon="4.70397">
        <ele>321</ele>
        <time>2012-08-22T12:38:26Z</time>
      </trkpt>
      <trkpt lat="46.88708" lon="4.70392">
        <ele>324</ele>
        <time>2012-08-22T12:38:27Z</time>
      </trkpt>
      <trkpt lat="46.88702" lon="4.70386">
        <ele>323</ele>
        <time>2012-08-22T12:38:28Z</time>
      </trkpt>
      <trkpt lat="46.88696" lon="4.7038">
        <ele>324</ele>
        <time>2012-08-22T12:38:29Z</time>
      </trkpt>
      <trkpt lat="46.88689" lon="4.70375">
        <ele>325</ele>
        <time>2012-08-22T12:38:30Z</time>
      </trkpt>
      <trkpt lat="46.88683" lon="4.70369">
        <ele>327</ele>
        <time>2012-08-22T12:38:31Z</time>
      </trkpt>
      <trkpt lat="46.88677" lon="4.70364">
        <ele>329</ele>
        <time>2012-08-22T12:38:32Z</time>
      </trkpt>
      <trkpt lat="46.88672" lon="4.70358">
        <ele>324</ele>
        <time>2012-08-22T12:38:33Z</time>
      </trkpt>
      <trkpt lat="46.88666" lon="4.70353">
        <ele>326</ele>
        <time>2012-08-22T12:38:34Z</time>
      </trkpt>
      <trkpt lat="46.8866" lon="4.70346">
        <ele>328</ele>
        <time>2012-08-22T12:38:35Z</time>
      </trkpt>
      <trkpt lat="46.88655" lon="4.70342">
        <ele>329</ele>
        <time>2012-08-22T12:38:36Z</time>
      </trkpt>
      <trkpt lat="46.8865" lon="4.70336">
        <ele>328</ele>
        <time>2012-08-22T12:38:37Z</time>
      </trkpt>
      <trkpt lat="46.88643" lon="4.7033">
        <ele>329</ele>
        <time>2012-08-22T12:38:38Z</time>
      </trkpt>
      <trkpt lat="46.88636" lon="4.70324">
        <ele>330</ele>
        <time>2012-08-22T12:38:39Z</time>
      </trkpt>
      <trkpt lat="46.8863" lon="4.70318">
        <ele>328</ele>
        <time>2012-08-22T12:38:40Z</time>
      </trkpt>
      <trkpt lat="46.88623" lon="4.70312">
        <ele>331</ele>
        <time>2012-08-22T12:38:41Z</time>
      </trkpt>
      <trkpt lat="46.88617" lon="4.70306">
        <ele>330</ele>
        <time>2012-08-22T12:38:42Z</time>
      </trkpt>
      <trkpt lat="46.8861" lon="4.703">
        <ele>328</ele>
        <time>2012-08-22T12:38:43Z</time>
      </trkpt>
      <trkpt lat="46.88603" lon="4.70293">
        <ele>329</ele>
        <time>2012-08-22T12:38:44Z</time>
      </trkpt>
      <trkpt lat="46.88594" lon="4.70286">
        <ele>330</ele>
        <time>2012-08-22T12:38:45Z</time>
      </trkpt>
      <trkpt lat="46.88587" lon="4.70279">
        <ele>331</ele>
        <time>2012-08-22T12:38:46Z</time>
      </trkpt>
      <trkpt lat="46.8858" lon="4.70273">
        <ele>334</ele>
        <time>2012-08-22T12:38:47Z</time>
      </trkpt>
      <trkpt lat="46.88572" lon="4.70267">
        <ele>333</ele>
        <time>2012-08-22T12:38:48Z</time>
      </trkpt>
      <trkpt lat="46.88564" lon="4.70259">
        <ele>330</ele>
        <time>2012-08-22T12:38:49Z</time>
      </trkpt>
      <trkpt lat="46.88556" lon="4.70252">
        <ele>334</ele>
        <time>2012-08-22T12:38:50Z</time>
      </trkpt>
      <trkpt lat="46.88548" lon="4.70245">
        <ele>335</ele>
        <time>2012-08-22T12:38:51Z</time>
      </trkpt>
      <trkpt lat="46.8854" lon="4.70239">
        <ele>338</ele>
        <time>2012-08-22T12:38:52Z</time>
      </trkpt>
      <trkpt lat="46.88532" lon="4.70232">
        <ele>341</ele>
        <time>2012-08-22T12:38:53Z</time>
      </trkpt>
      <trkpt lat="46.88523" lon="4.70225">
        <ele>342</ele>
        <time>2012-08-22T12:38:54Z</time>
      </trkpt>
      <trkpt lat="46.88514" lon="4.70218">
        <ele>343</ele>
        <time>2012-08-22T12:38:55Z</time>
      </trkpt>
      <trkpt lat="46.88506" lon="4.7021">
        <ele>348</ele>
        <time>2012-08-22T12:38:56Z</time>
      </trkpt>
      <trkpt lat="46.88498" lon="4.70203">
        <ele>350</ele>
        <time>2012-08-22T12:38:57Z</time>
      </trkpt>
      <trkpt lat="46.8849" lon="4.70194">
        <ele>352</ele>
        <time>2012-08-22T12:38:58Z</time>
      </trkpt>
      <trkpt lat="46.88482" lon="4.70187">
        <ele>353</ele>
        <time>2012-08-22T12:38:59Z</time>
      </trkpt>
      <trkpt lat="46.88474" lon="4.7018">
        <ele>353</ele>
        <time>2012-08-22T12:39:00Z</time>
      </trkpt>
      <trkpt lat="46.88467" lon="4.70173">
        <ele>354</ele>
        <time>2012-08-22T12:39:01Z</time>
      </trkpt>
      <trkpt lat="46.88459" lon="4.70167">
        <ele>355</ele>
        <time>2012-08-22T12:39:02Z</time>
      </trkpt>
      <trkpt lat="46.88452" lon="4.70161">
        <ele>354</ele>
        <time>2012-08-22T12:39:03Z</time>
      </trkpt>
      <trkpt lat="46.88445" lon="4.70156">
        <ele>353</ele>
        <time>2012-08-22T12:39:04Z</time>
      </trkpt>
      <trkpt lat="46.88439" lon="4.7015">
        <ele>350</ele>
        <time>2012-08-22T12:39:05Z</time>
      </trkpt>
      <trkpt lat="46.88433" lon="4.70145">
        <ele>348</ele>
        <time>2012-08-22T12:39:06Z</time>
      </trkpt>
      <trkpt lat="46.88427" lon="4.70139">
        <ele>351</ele>
        <time>2012-08-22T12:39:07Z</time>
      </trkpt>
      <trkpt lat="46.88421" lon="4.70133">
        <ele>349</ele>
        <time>2012-08-22T12:39:08Z</time>
      </trkpt>
      <trkpt lat="46.88414" lon="4.70126">
        <ele>348</ele>
        <time>2012-08-22T12:39:09Z</time>
      </trkpt>
      <trkpt lat="46.88408" lon="4.7012">
        <ele>348</ele>
        <time>2012-08-22T12:39:10Z</time>
      </trkpt>
      <trkpt lat="46.88402" lon="4.70114">
        <ele>346</ele>
        <time>2012-08-22T12:39:11Z</time>
      </trkpt>
      <trkpt lat="46.88396" lon="4.70109">
        <ele>344</ele>
        <time>2012-08-22T12:39:12Z</time>
      </trkpt>
      <trkpt lat="46.88389" lon="4.70106">
        <ele>343</ele>
        <time>2012-08-22T12:39:13Z</time>
      </trkpt>
      <trkpt lat="46.88381" lon="4.70103">
        <ele>346</ele>
        <time>2012-08-22T12:39:14Z</time>
      </trkpt>
      <trkpt lat="46.88372" lon="4.70101">
        <ele>346</ele>
        <time>2012-08-22T12:39:15Z</time>
      </trkpt>
      <trkpt lat="46.88364" lon="4.70099">
        <ele>346</ele>
        <time>2012-08-22T12:39:16Z</time>
      </trkpt>
      <trkpt lat="46.88358" lon="4.70097">
        <ele>345</ele>
        <time>2012-08-22T12:39:17Z</time>
      </trkpt>
      <trkpt lat="46.88352" lon="4.70094">
        <ele>343</ele>
        <time>2012-08-22T12:39:18Z</time>
      </trkpt>
      <trkpt lat="46.88347" lon="4.70091">
        <ele>343</ele>
        <time>2012-08-22T12:39:19Z</time>
      </trkpt>
      <trkpt lat="46.88342" lon="4.70088">
        <ele>340</ele>
        <time>2012-08-22T12:39:20Z</time>
      </trkpt>
      <trkpt lat="46.88337" lon="4.70084">
        <ele>340</ele>
        <time>2012-08-22T12:39:21Z</time>
      </trkpt>
      <trkpt lat="46.88332" lon="4.7008">
        <ele>340</ele>
        <time>2012-08-22T12:39:22Z</time>
      </trkpt>
      <trkpt lat="46.88328" lon="4.70074">
        <ele>339</ele>
        <time>2012-08-22T12:39:23Z</time>
      </trkpt>
      <trkpt lat="46.88322" lon="4.70068">
        <ele>344</ele>
        <time>2012-08-22T12:39:24Z</time>
      </trkpt>
      <trkpt lat="46.88316" lon="4.70061">
        <ele>349</ele>
        <time>2012-08-22T12:39:25Z</time>
      </trkpt>
      <trkpt lat="46.8831" lon="4.70056">
        <ele>352</ele>
        <time>2012-08-22T12:39:26Z</time>
      </trkpt>
      <trkpt lat="46.88302" lon="4.7005">
        <ele>352</ele>
        <time>2012-08-22T12:39:27Z</time>
      </trkpt>
      <trkpt lat="46.88296" lon="4.70046">
        <ele>353</ele>
        <time>2012-08-22T12:39:28Z</time>
      </trkpt>
      <trkpt lat="46.88289" lon="4.7004">
        <ele>351</ele>
        <time>2012-08-22T12:39:29Z</time>
      </trkpt>
      <trkpt lat="46.88284" lon="4.70036">
        <ele>350</ele>
        <time>2012-08-22T12:39:30Z</time>
      </trkpt>
      <trkpt lat="46.88278" lon="4.7003">
        <ele>350</ele>
        <time>2012-08-22T12:39:31Z</time>
      </trkpt>
      <trkpt lat="46.88273" lon="4.70023">
        <ele>350</ele>
        <time>2012-08-22T12:39:32Z</time>
      </trkpt>
      <trkpt lat="46.88267" lon="4.70018">
        <ele>348</ele>
        <time>2012-08-22T12:39:33Z</time>
      </trkpt>
      <trkpt lat="46.88262" lon="4.70012">
        <ele>350</ele>
        <time>2012-08-22T12:39:34Z</time>
      </trkpt>
      <trkpt lat="46.88257" lon="4.70007">
        <ele>353</ele>
        <time>2012-08-22T12:39:35Z</time>
      </trkpt>
      <trkpt lat="46.88251" lon="4.70003">
        <ele>355</ele>
        <time>2012-08-22T12:39:36Z</time>
      </trkpt>
      <trkpt lat="46.88244" lon="4.69999">
        <ele>356</ele>
        <time>2012-08-22T12:39:37Z</time>
      </trkpt>
      <trkpt lat="46.88239" lon="4.69996">
        <ele>356</ele>
        <time>2012-08-22T12:39:38Z</time>
      </trkpt>
      <trkpt lat="46.88239" lon="4.69996">
        <ele>356</ele>
        <time>2012-08-22T12:39:38Z</time>
      </trkpt>
      <trkpt lat="46.88239" lon="4.69996">
        <ele>356</ele>
        <time>2012-08-22T12:39:40Z</time>
      </trkpt>
      <trkpt lat="46.88228" lon="4.69991">
        <ele>357</ele>
        <time>2012-08-22T12:39:41Z</time>
      </trkpt>
      <trkpt lat="46.88228" lon="4.69991">
        <ele>357</ele>
        <time>2012-08-22T12:39:41Z</time>
      </trkpt>
      <trkpt lat="46.88228" lon="4.69991">
        <ele>357</ele>
        <time>2012-08-22T12:39:44Z</time>
      </trkpt>
      <trkpt lat="46.88218" lon="4.69982">
        <ele>356</ele>
        <time>2012-08-22T12:39:45Z</time>
      </trkpt>
      <trkpt lat="46.88218" lon="4.69982">
        <ele>356</ele>
        <time>2012-08-22T12:39:45Z</time>
      </trkpt>
      <trkpt lat="46.88218" lon="4.69982">
        <ele>356</ele>
        <time>2012-08-22T12:39:46Z</time>
      </trkpt>
      <trkpt lat="46.88225" lon="4.69976">
        <ele>356</ele>
        <time>2012-08-22T12:39:51Z</time>
      </trkpt>
      <trkpt lat="46.88234" lon="4.69977">
        <ele>356</ele>
        <time>2012-08-22T12:39:53Z</time>
      </trkpt>
      <trkpt lat="46.8824" lon="4.69974">
        <ele>357</ele>
        <time>2012-08-22T12:39:54Z</time>
      </trkpt>
      <trkpt lat="46.88248" lon="4.69975">
        <ele>352</ele>
        <time>2012-08-22T12:39:56Z</time>
      </trkpt>
      <trkpt lat="46.88256" lon="4.69976">
        <ele>350</ele>
        <time>2012-08-22T12:39:58Z</time>
      </trkpt>
      <trkpt lat="46.88261" lon="4.69976">
        <ele>351</ele>
        <time>2012-08-22T12:39:59Z</time>
      </trkpt>
      <trkpt lat="46.8827" lon="4.69976">
        <ele>348</ele>
        <time>2012-08-22T12:40:01Z</time>
      </trkpt>
      <trkpt lat="46.88279" lon="4.69977">
        <ele>346</ele>
        <time>2012-08-22T12:40:03Z</time>
      </trkpt>
      <trkpt lat="46.88285" lon="4.69978">
        <ele>346</ele>
        <time>2012-08-22T12:40:04Z</time>
      </trkpt>
      <trkpt lat="46.88291" lon="4.69979">
        <ele>345</ele>
        <time>2012-08-22T12:40:05Z</time>
      </trkpt>
      <trkpt lat="46.88296" lon="4.69979">
        <ele>345</ele>
        <time>2012-08-22T12:40:06Z</time>
      </trkpt>
      <trkpt lat="46.883" lon="4.6998">
        <ele>345</ele>
        <time>2012-08-22T12:40:07Z</time>
      </trkpt>
      <trkpt lat="46.88306" lon="4.6998">
        <ele>346</ele>
        <time>2012-08-22T12:40:08Z</time>
      </trkpt>
      <trkpt lat="46.88311" lon="4.6998">
        <ele>344</ele>
        <time>2012-08-22T12:40:09Z</time>
      </trkpt>
      <trkpt lat="46.88316" lon="4.6998">
        <ele>343</ele>
        <time>2012-08-22T12:40:10Z</time>
      </trkpt>
      <trkpt lat="46.88322" lon="4.6998">
        <ele>340</ele>
        <time>2012-08-22T12:40:11Z</time>
      </trkpt>
      <trkpt lat="46.88327" lon="4.6998">
        <ele>339</ele>
        <time>2012-08-22T12:40:12Z</time>
      </trkpt>
      <trkpt lat="46.88333" lon="4.6998">
        <ele>339</ele>
        <time>2012-08-22T12:40:13Z</time>
      </trkpt>
      <trkpt lat="46.88339" lon="4.69982">
        <ele>339</ele>
        <time>2012-08-22T12:40:14Z</time>
      </trkpt>
      <trkpt lat="46.88344" lon="4.69984">
        <ele>338</ele>
        <time>2012-08-22T12:40:15Z</time>
      </trkpt>
      <trkpt lat="46.88349" lon="4.69986">
        <ele>337</ele>
        <time>2012-08-22T12:40:16Z</time>
      </trkpt>
      <trkpt lat="46.88353" lon="4.69989">
        <ele>335</ele>
        <time>2012-08-22T12:40:17Z</time>
      </trkpt>
      <trkpt lat="46.88359" lon="4.69991">
        <ele>332</ele>
        <time>2012-08-22T12:40:18Z</time>
      </trkpt>
      <trkpt lat="46.88364" lon="4.69994">
        <ele>328</ele>
        <time>2012-08-22T12:40:19Z</time>
      </trkpt>
      <trkpt lat="46.88369" lon="4.69997">
        <ele>327</ele>
        <time>2012-08-22T12:40:20Z</time>
      </trkpt>
      <trkpt lat="46.88374" lon="4.7">
        <ele>326</ele>
        <time>2012-08-22T12:40:21Z</time>
      </trkpt>
      <trkpt lat="46.88379" lon="4.70004">
        <ele>321</ele>
        <time>2012-08-22T12:40:22Z</time>
      </trkpt>
      <trkpt lat="46.88384" lon="4.70008">
        <ele>322</ele>
        <time>2012-08-22T12:40:23Z</time>
      </trkpt>
      <trkpt lat="46.88392" lon="4.70015">
        <ele>325</ele>
        <time>2012-08-22T12:40:25Z</time>
      </trkpt>
      <trkpt lat="46.88396" lon="4.70019">
        <ele>324</ele>
        <time>2012-08-22T12:40:26Z</time>
      </trkpt>
      <trkpt lat="46.88401" lon="4.70024">
        <ele>323</ele>
        <time>2012-08-22T12:40:27Z</time>
      </trkpt>
      <trkpt lat="46.88405" lon="4.70028">
        <ele>324</ele>
        <time>2012-08-22T12:40:28Z</time>
      </trkpt>
      <trkpt lat="46.88409" lon="4.70033">
        <ele>323</ele>
        <time>2012-08-22T12:40:29Z</time>
      </trkpt>
      <trkpt lat="46.88414" lon="4.70038">
        <ele>322</ele>
        <time>2012-08-22T12:40:30Z</time>
      </trkpt>
      <trkpt lat="46.8842" lon="4.70044">
        <ele>319</ele>
        <time>2012-08-22T12:40:32Z</time>
      </trkpt>
      <trkpt lat="46.88426" lon="4.70049">
        <ele>313</ele>
        <time>2012-08-22T12:40:35Z</time>
      </trkpt>
      <trkpt lat="46.8843" lon="4.70053">
        <ele>308</ele>
        <time>2012-08-22T12:40:38Z</time>
      </trkpt>
      <trkpt lat="46.8843" lon="4.70053">
        <ele>308</ele>
        <time>2012-08-22T12:40:38Z</time>
      </trkpt>
      <trkpt lat="46.8843" lon="4.70053">
        <ele>308</ele>
        <time>2012-08-22T12:40:41Z</time>
      </trkpt>
      <trkpt lat="46.88435" lon="4.70051">
        <ele>313</ele>
        <time>2012-08-22T12:40:43Z</time>
      </trkpt>
      <trkpt lat="46.8844" lon="4.70044">
        <ele>314</ele>
        <time>2012-08-22T12:40:45Z</time>
      </trkpt>
      <trkpt lat="46.88443" lon="4.70039">
        <ele>314</ele>
        <time>2012-08-22T12:40:46Z</time>
      </trkpt>
      <trkpt lat="46.88447" lon="4.70032">
        <ele>314</ele>
        <time>2012-08-22T12:40:47Z</time>
      </trkpt>
      <trkpt lat="46.8845" lon="4.70026">
        <ele>315</ele>
        <time>2012-08-22T12:40:48Z</time>
      </trkpt>
      <trkpt lat="46.88454" lon="4.7002">
        <ele>316</ele>
        <time>2012-08-22T12:40:49Z</time>
      </trkpt>
      <trkpt lat="46.8846" lon="4.70011">
        <ele>319</ele>
        <time>2012-08-22T12:40:51Z</time>
      </trkpt>
      <trkpt lat="46.88466" lon="4.70003">
        <ele>321</ele>
        <time>2012-08-22T12:40:53Z</time>
      </trkpt>
      <trkpt lat="46.8847" lon="4.69995">
        <ele>320</ele>
        <time>2012-08-22T12:40:55Z</time>
      </trkpt>
      <trkpt lat="46.88475" lon="4.69989">
        <ele>321</ele>
        <time>2012-08-22T12:40:57Z</time>
      </trkpt>
      <trkpt lat="46.88481" lon="4.69987">
        <ele>316</ele>
        <time>2012-08-22T12:40:59Z</time>
      </trkpt>
      <trkpt lat="46.88489" lon="4.69988">
        <ele>315</ele>
        <time>2012-08-22T12:41:01Z</time>
      </trkpt>
      <trkpt lat="46.88498" lon="4.69991">
        <ele>313</ele>
        <time>2012-08-22T12:41:03Z</time>
      </trkpt>
      <trkpt lat="46.88503" lon="4.69993">
        <ele>314</ele>
        <time>2012-08-22T12:41:04Z</time>
      </trkpt>
      <trkpt lat="46.88508" lon="4.69995">
        <ele>315</ele>
        <time>2012-08-22T12:41:05Z</time>
      </trkpt>
      <trkpt lat="46.88512" lon="4.69997">
        <ele>317</ele>
        <time>2012-08-22T12:41:06Z</time>
      </trkpt>
      <trkpt lat="46.88518" lon="4.7">
        <ele>317</ele>
        <time>2012-08-22T12:41:07Z</time>
      </trkpt>
      <trkpt lat="46.88524" lon="4.70003">
        <ele>314</ele>
        <time>2012-08-22T12:41:08Z</time>
      </trkpt>
      <trkpt lat="46.88529" lon="4.70005">
        <ele>316</ele>
        <time>2012-08-22T12:41:09Z</time>
      </trkpt>
      <trkpt lat="46.88534" lon="4.70007">
        <ele>316</ele>
        <time>2012-08-22T12:41:10Z</time>
      </trkpt>
      <trkpt lat="46.88539" lon="4.70008">
        <ele>319</ele>
        <time>2012-08-22T12:41:11Z</time>
      </trkpt>
      <trkpt lat="46.88544" lon="4.7001">
        <ele>320</ele>
        <time>2012-08-22T12:41:12Z</time>
      </trkpt>
      <trkpt lat="46.88551" lon="4.70009">
        <ele>319</ele>
        <time>2012-08-22T12:41:14Z</time>
      </trkpt>
      <trkpt lat="46.88557" lon="4.70004">
        <ele>318</ele>
        <time>2012-08-22T12:41:16Z</time>
      </trkpt>
      <trkpt lat="46.88565" lon="4.70001">
        <ele>317</ele>
        <time>2012-08-22T12:41:18Z</time>
      </trkpt>
      <trkpt lat="46.88573" lon="4.70002">
        <ele>320</ele>
        <time>2012-08-22T12:41:20Z</time>
      </trkpt>
      <trkpt lat="46.88577" lon="4.70002">
        <ele>321</ele>
        <time>2012-08-22T12:41:23Z</time>
      </trkpt>
      <trkpt lat="46.88583" lon="4.70001">
        <ele>316</ele>
        <time>2012-08-22T12:41:25Z</time>
      </trkpt>
      <trkpt lat="46.88589" lon="4.69998">
        <ele>316</ele>
        <time>2012-08-22T12:41:27Z</time>
      </trkpt>
      <trkpt lat="46.88594" lon="4.69989">
        <ele>321</ele>
        <time>2012-08-22T12:41:29Z</time>
      </trkpt>
      <trkpt lat="46.88599" lon="4.69981">
        <ele>321</ele>
        <time>2012-08-22T12:41:30Z</time>
      </trkpt>
      <trkpt lat="46.88604" lon="4.69973">
        <ele>322</ele>
        <time>2012-08-22T12:41:31Z</time>
      </trkpt>
      <trkpt lat="46.8861" lon="4.69965">
        <ele>324</ele>
        <time>2012-08-22T12:41:32Z</time>
      </trkpt>
      <trkpt lat="46.88616" lon="4.69958">
        <ele>321</ele>
        <time>2012-08-22T12:41:33Z</time>
      </trkpt>
      <trkpt lat="46.88622" lon="4.6995">
        <ele>322</ele>
        <time>2012-08-22T12:41:34Z</time>
      </trkpt>
      <trkpt lat="46.88627" lon="4.69943">
        <ele>322</ele>
        <time>2012-08-22T12:41:35Z</time>
      </trkpt>
      <trkpt lat="46.88632" lon="4.69937">
        <ele>321</ele>
        <time>2012-08-22T12:41:36Z</time>
      </trkpt>
      <trkpt lat="46.88638" lon="4.6993">
        <ele>322</ele>
        <time>2012-08-22T12:41:37Z</time>
      </trkpt>
      <trkpt lat="46.88644" lon="4.69922">
        <ele>321</ele>
        <time>2012-08-22T12:41:38Z</time>
      </trkpt>
      <trkpt lat="46.8865" lon="4.69914">
        <ele>323</ele>
        <time>2012-08-22T12:41:39Z</time>
      </trkpt>
      <trkpt lat="46.88656" lon="4.69906">
        <ele>324</ele>
        <time>2012-08-22T12:41:40Z</time>
      </trkpt>
      <trkpt lat="46.88662" lon="4.69899">
        <ele>323</ele>
        <time>2012-08-22T12:41:41Z</time>
      </trkpt>
      <trkpt lat="46.88665" lon="4.69895">
        <ele>324</ele>
        <time>2012-08-22T12:41:42Z</time>
      </trkpt>
      <trkpt lat="46.88668" lon="4.69886">
        <ele>322</ele>
        <time>2012-08-22T12:41:45Z</time>
      </trkpt>
      <trkpt lat="46.88667" lon="4.69875">
        <ele>325</ele>
        <time>2012-08-22T12:41:47Z</time>
      </trkpt>
      <trkpt lat="46.88666" lon="4.69865">
        <ele>327</ele>
        <time>2012-08-22T12:41:48Z</time>
      </trkpt>
      <trkpt lat="46.88666" lon="4.69853">
        <ele>328</ele>
        <time>2012-08-22T12:41:49Z</time>
      </trkpt>
      <trkpt lat="46.88666" lon="4.69838">
        <ele>331</ele>
        <time>2012-08-22T12:41:50Z</time>
      </trkpt>
      <trkpt lat="46.88668" lon="4.69823">
        <ele>331</ele>
        <time>2012-08-22T12:41:51Z</time>
      </trkpt>
      <trkpt lat="46.88671" lon="4.69807">
        <ele>331</ele>
        <time>2012-08-22T12:41:52Z</time>
      </trkpt>
      <trkpt lat="46.88675" lon="4.6979">
        <ele>330</ele>
        <time>2012-08-22T12:41:53Z</time>
      </trkpt>
      <trkpt lat="46.8868" lon="4.69775">
        <ele>331</ele>
        <time>2012-08-22T12:41:54Z</time>
      </trkpt>
      <trkpt lat="46.88686" lon="4.69762">
        <ele>330</ele>
        <time>2012-08-22T12:41:55Z</time>
      </trkpt>
      <trkpt lat="46.88691" lon="4.69751">
        <ele>332</ele>
        <time>2012-08-22T12:41:56Z</time>
      </trkpt>
      <trkpt lat="46.88696" lon="4.69742">
        <ele>336</ele>
        <time>2012-08-22T12:41:57Z</time>
      </trkpt>
      <trkpt lat="46.88698" lon="4.69733">
        <ele>340</ele>
        <time>2012-08-22T12:41:58Z</time>
      </trkpt>
      <trkpt lat="46.88697" lon="4.69721">
        <ele>344</ele>
        <time>2012-08-22T12:41:59Z</time>
      </trkpt>
      <trkpt lat="46.88694" lon="4.69711">
        <ele>348</ele>
        <time>2012-08-22T12:42:00Z</time>
      </trkpt>
      <trkpt lat="46.88691" lon="4.69702">
        <ele>348</ele>
        <time>2012-08-22T12:42:01Z</time>
      </trkpt>
      <trkpt lat="46.88686" lon="4.69695">
        <ele>344</ele>
        <time>2012-08-22T12:42:02Z</time>
      </trkpt>
      <trkpt lat="46.88682" lon="4.69689">
        <ele>345</ele>
        <time>2012-08-22T12:42:03Z</time>
      </trkpt>
      <trkpt lat="46.88685" lon="4.69684">
        <ele>348</ele>
        <time>2012-08-22T12:42:06Z</time>
      </trkpt>
      <trkpt lat="46.88692" lon="4.69687">
        <ele>350</ele>
        <time>2012-08-22T12:42:08Z</time>
      </trkpt>
      <trkpt lat="46.88698" lon="4.69692">
        <ele>352</ele>
        <time>2012-08-22T12:42:09Z</time>
      </trkpt>
      <trkpt lat="46.88702" lon="4.69698">
        <ele>352</ele>
        <time>2012-08-22T12:42:10Z</time>
      </trkpt>
      <trkpt lat="46.88709" lon="4.69703">
        <ele>352</ele>
        <time>2012-08-22T12:42:11Z</time>
      </trkpt>
      <trkpt lat="46.88717" lon="4.6971">
        <ele>355</ele>
        <time>2012-08-22T12:42:12Z</time>
      </trkpt>
      <trkpt lat="46.88725" lon="4.69717">
        <ele>357</ele>
        <time>2012-08-22T12:42:13Z</time>
      </trkpt>
      <trkpt lat="46.88733" lon="4.69724">
        <ele>360</ele>
        <time>2012-08-22T12:42:14Z</time>
      </trkpt>
      <trkpt lat="46.8874" lon="4.6973">
        <ele>360</ele>
        <time>2012-08-22T12:42:15Z</time>
      </trkpt>
      <trkpt lat="46.88747" lon="4.69735">
        <ele>361</ele>
        <time>2012-08-22T12:42:16Z</time>
      </trkpt>
      <trkpt lat="46.88753" lon="4.6974">
        <ele>362</ele>
        <time>2012-08-22T12:42:17Z</time>
      </trkpt>
      <trkpt lat="46.88758" lon="4.69744">
        <ele>363</ele>
        <time>2012-08-22T12:42:18Z</time>
      </trkpt>
      <trkpt lat="46.88762" lon="4.69748">
        <ele>364</ele>
        <time>2012-08-22T12:42:19Z</time>
      </trkpt>
      <trkpt lat="46.88766" lon="4.69752">
        <ele>363</ele>
        <time>2012-08-22T12:42:20Z</time>
      </trkpt>
      <trkpt lat="46.88772" lon="4.69758">
        <ele>362</ele>
        <time>2012-08-22T12:42:22Z</time>
      </trkpt>
      <trkpt lat="46.88778" lon="4.69763">
        <ele>363</ele>
        <time>2012-08-22T12:42:24Z</time>
      </trkpt>
      <trkpt lat="46.88785" lon="4.69768">
        <ele>367</ele>
        <time>2012-08-22T12:42:26Z</time>
      </trkpt>
      <trkpt lat="46.8879" lon="4.69772">
        <ele>369</ele>
        <time>2012-08-22T12:42:27Z</time>
      </trkpt>
      <trkpt lat="46.88797" lon="4.69776">
        <ele>371</ele>
        <time>2012-08-22T12:42:28Z</time>
      </trkpt>
      <trkpt lat="46.88804" lon="4.69779">
        <ele>370</ele>
        <time>2012-08-22T12:42:29Z</time>
      </trkpt>
      <trkpt lat="46.8881" lon="4.69782">
        <ele>371</ele>
        <time>2012-08-22T12:42:30Z</time>
      </trkpt>
      <trkpt lat="46.88815" lon="4.69784">
        <ele>373</ele>
        <time>2012-08-22T12:42:31Z</time>
      </trkpt>
      <trkpt lat="46.88819" lon="4.69786">
        <ele>372</ele>
        <time>2012-08-22T12:42:32Z</time>
      </trkpt>
      <trkpt lat="46.88831" lon="4.69791">
        <ele>369</ele>
        <time>2012-08-22T12:42:35Z</time>
      </trkpt>
      <trkpt lat="46.88839" lon="4.69796">
        <ele>371</ele>
        <time>2012-08-22T12:42:37Z</time>
      </trkpt>
      <trkpt lat="46.88844" lon="4.69798">
        <ele>372</ele>
        <time>2012-08-22T12:42:38Z</time>
      </trkpt>
      <trkpt lat="46.88853" lon="4.69803">
        <ele>371</ele>
        <time>2012-08-22T12:42:40Z</time>
      </trkpt>
      <trkpt lat="46.88858" lon="4.69805">
        <ele>372</ele>
        <time>2012-08-22T12:42:41Z</time>
      </trkpt>
      <trkpt lat="46.88864" lon="4.69805">
        <ele>373</ele>
        <time>2012-08-22T12:42:42Z</time>
      </trkpt>
      <trkpt lat="46.8887" lon="4.69804">
        <ele>375</ele>
        <time>2012-08-22T12:42:43Z</time>
      </trkpt>
      <trkpt lat="46.88876" lon="4.69803">
        <ele>377</ele>
        <time>2012-08-22T12:42:44Z</time>
      </trkpt>
      <trkpt lat="46.88882" lon="4.69803">
        <ele>378</ele>
        <time>2012-08-22T12:42:45Z</time>
      </trkpt>
      <trkpt lat="46.88887" lon="4.69803">
        <ele>379</ele>
        <time>2012-08-22T12:42:46Z</time>
      </trkpt>
      <trkpt lat="46.88892" lon="4.69802">
        <ele>379</ele>
        <time>2012-08-22T12:42:47Z</time>
      </trkpt>
      <trkpt lat="46.88897" lon="4.69802">
        <ele>381</ele>
        <time>2012-08-22T12:42:48Z</time>
      </trkpt>
      <trkpt lat="46.88902" lon="4.69802">
        <ele>381</ele>
        <time>2012-08-22T12:42:49Z</time>
      </trkpt>
      <trkpt lat="46.88907" lon="4.69802">
        <ele>383</ele>
        <time>2012-08-22T12:42:50Z</time>
      </trkpt>
      <trkpt lat="46.88916" lon="4.69803">
        <ele>379</ele>
        <time>2012-08-22T12:42:52Z</time>
      </trkpt>
      <trkpt lat="46.88921" lon="4.69803">
        <ele>378</ele>
        <time>2012-08-22T12:42:53Z</time>
      </trkpt>
      <trkpt lat="46.88927" lon="4.69804">
        <ele>377</ele>
        <time>2012-08-22T12:42:54Z</time>
      </trkpt>
      <trkpt lat="46.88932" lon="4.69807">
        <ele>374</ele>
        <time>2012-08-22T12:42:55Z</time>
      </trkpt>
      <trkpt lat="46.88936" lon="4.69811">
        <ele>378</ele>
        <time>2012-08-22T12:42:56Z</time>
      </trkpt>
      <trkpt lat="46.88938" lon="4.69817">
        <ele>379</ele>
        <time>2012-08-22T12:42:57Z</time>
      </trkpt>
      <trkpt lat="46.88939" lon="4.69828">
        <ele>379</ele>
        <time>2012-08-22T12:42:59Z</time>
      </trkpt>
      <trkpt lat="46.88943" lon="4.69838">
        <ele>378</ele>
        <time>2012-08-22T12:43:01Z</time>
      </trkpt>
      <trkpt lat="46.88948" lon="4.69843">
        <ele>381</ele>
        <time>2012-08-22T12:43:03Z</time>
      </trkpt>
      <trkpt lat="46.88956" lon="4.69844">
        <ele>387</ele>
        <time>2012-08-22T12:43:05Z</time>
      </trkpt>
      <trkpt lat="46.88961" lon="4.69844">
        <ele>389</ele>
        <time>2012-08-22T12:43:06Z</time>
      </trkpt>
      <trkpt lat="46.88965" lon="4.69844">
        <ele>390</ele>
        <time>2012-08-22T12:43:07Z</time>
      </trkpt>
      <trkpt lat="46.88969" lon="4.69846">
        <ele>390</ele>
        <time>2012-08-22T12:43:08Z</time>
      </trkpt>
      <trkpt lat="46.88974" lon="4.69848">
        <ele>391</ele>
        <time>2012-08-22T12:43:09Z</time>
      </trkpt>
      <trkpt lat="46.88979" lon="4.69851">
        <ele>391</ele>
        <time>2012-08-22T12:43:10Z</time>
      </trkpt>
      <trkpt lat="46.88985" lon="4.69854">
        <ele>392</ele>
        <time>2012-08-22T12:43:11Z</time>
      </trkpt>
      <trkpt lat="46.8899" lon="4.69857">
        <ele>395</ele>
        <time>2012-08-22T12:43:12Z</time>
      </trkpt>
      <trkpt lat="46.88996" lon="4.6986">
        <ele>394</ele>
        <time>2012-08-22T12:43:13Z</time>
      </trkpt>
      <trkpt lat="46.89003" lon="4.69862">
        <ele>395</ele>
        <time>2012-08-22T12:43:14Z</time>
      </trkpt>
      <trkpt lat="46.8901" lon="4.69862">
        <ele>394</ele>
        <time>2012-08-22T12:43:15Z</time>
      </trkpt>
      <trkpt lat="46.89017" lon="4.69862">
        <ele>394</ele>
        <time>2012-08-22T12:43:16Z</time>
      </trkpt>
      <trkpt lat="46.89024" lon="4.69861">
        <ele>395</ele>
        <time>2012-08-22T12:43:17Z</time>
      </trkpt>
      <trkpt lat="46.89032" lon="4.69861">
        <ele>397</ele>
        <time>2012-08-22T12:43:18Z</time>
      </trkpt>
      <trkpt lat="46.89039" lon="4.6986">
        <ele>399</ele>
        <time>2012-08-22T12:43:19Z</time>
      </trkpt>
      <trkpt lat="46.89046" lon="4.6986">
        <ele>401</ele>
        <time>2012-08-22T12:43:20Z</time>
      </trkpt>
      <trkpt lat="46.89052" lon="4.69859">
        <ele>402</ele>
        <time>2012-08-22T12:43:21Z</time>
      </trkpt>
      <trkpt lat="46.8906" lon="4.69858">
        <ele>403</ele>
        <time>2012-08-22T12:43:22Z</time>
      </trkpt>
      <trkpt lat="46.89067" lon="4.69856">
        <ele>402</ele>
        <time>2012-08-22T12:43:23Z</time>
      </trkpt>
      <trkpt lat="46.89074" lon="4.69855">
        <ele>402</ele>
        <time>2012-08-22T12:43:24Z</time>
      </trkpt>
      <trkpt lat="46.89082" lon="4.69854">
        <ele>401</ele>
        <time>2012-08-22T12:43:25Z</time>
      </trkpt>
      <trkpt lat="46.8909" lon="4.69852">
        <ele>401</ele>
        <time>2012-08-22T12:43:26Z</time>
      </trkpt>
      <trkpt lat="46.89098" lon="4.6985">
        <ele>401</ele>
        <time>2012-08-22T12:43:27Z</time>
      </trkpt>
      <trkpt lat="46.89106" lon="4.69848">
        <ele>401</ele>
        <time>2012-08-22T12:43:28Z</time>
      </trkpt>
      <trkpt lat="46.89115" lon="4.69846">
        <ele>400</ele>
        <time>2012-08-22T12:43:29Z</time>
      </trkpt>
      <trkpt lat="46.89122" lon="4.69843">
        <ele>402</ele>
        <time>2012-08-22T12:43:30Z</time>
      </trkpt>
      <trkpt lat="46.89128" lon="4.69841">
        <ele>407</ele>
        <time>2012-08-22T12:43:31Z</time>
      </trkpt>
      <trkpt lat="46.89135" lon="4.69837">
        <ele>409</ele>
        <time>2012-08-22T12:43:32Z</time>
      </trkpt>
      <trkpt lat="46.89142" lon="4.69832">
        <ele>408</ele>
        <time>2012-08-22T12:43:33Z</time>
      </trkpt>
      <trkpt lat="46.89158" lon="4.6982">
        <ele>408</ele>
        <time>2012-08-22T12:43:35Z</time>
      </trkpt>
      <trkpt lat="46.89166" lon="4.69814">
        <ele>410</ele>
        <time>2012-08-22T12:43:36Z</time>
      </trkpt>
      <trkpt lat="46.89174" lon="4.69809">
        <ele>411</ele>
        <time>2012-08-22T12:43:37Z</time>
      </trkpt>
      <trkpt lat="46.89182" lon="4.69804">
        <ele>412</ele>
        <time>2012-08-22T12:43:38Z</time>
      </trkpt>
      <trkpt lat="46.8919" lon="4.69798">
        <ele>412</ele>
        <time>2012-08-22T12:43:39Z</time>
      </trkpt>
      <trkpt lat="46.89199" lon="4.69792">
        <ele>412</ele>
        <time>2012-08-22T12:43:40Z</time>
      </trkpt>
      <trkpt lat="46.89207" lon="4.69785">
        <ele>412</ele>
        <time>2012-08-22T12:43:41Z</time>
      </trkpt>
      <trkpt lat="46.89215" lon="4.69778">
        <ele>410</ele>
        <time>2012-08-22T12:43:42Z</time>
      </trkpt>
      <trkpt lat="46.89221" lon="4.6977">
        <ele>412</ele>
        <time>2012-08-22T12:43:43Z</time>
      </trkpt>
      <trkpt lat="46.89226" lon="4.69765">
        <ele>414</ele>
        <time>2012-08-22T12:43:44Z</time>
      </trkpt>
      <trkpt lat="46.8923" lon="4.69756">
        <ele>413</ele>
        <time>2012-08-22T12:43:46Z</time>
      </trkpt>
      <trkpt lat="46.89232" lon="4.69749">
        <ele>413</ele>
        <time>2012-08-22T12:43:47Z</time>
      </trkpt>
      <trkpt lat="46.89234" lon="4.69742">
        <ele>414</ele>
        <time>2012-08-22T12:43:48Z</time>
      </trkpt>
      <trkpt lat="46.89236" lon="4.69734">
        <ele>414</ele>
        <time>2012-08-22T12:43:49Z</time>
      </trkpt>
      <trkpt lat="46.89239" lon="4.69725">
        <ele>412</ele>
        <time>2012-08-22T12:43:50Z</time>
      </trkpt>
      <trkpt lat="46.89241" lon="4.69716">
        <ele>410</ele>
        <time>2012-08-22T12:43:51Z</time>
      </trkpt>
      <trkpt lat="46.89244" lon="4.69706">
        <ele>409</ele>
        <time>2012-08-22T12:43:52Z</time>
      </trkpt>
      <trkpt lat="46.89247" lon="4.69696">
        <ele>409</ele>
        <time>2012-08-22T12:43:53Z</time>
      </trkpt>
      <trkpt lat="46.8925" lon="4.69686">
        <ele>409</ele>
        <time>2012-08-22T12:43:54Z</time>
      </trkpt>
      <trkpt lat="46.89254" lon="4.69676">
        <ele>410</ele>
        <time>2012-08-22T12:43:55Z</time>
      </trkpt>
      <trkpt lat="46.89257" lon="4.69667">
        <ele>412</ele>
        <time>2012-08-22T12:43:56Z</time>
      </trkpt>
      <trkpt lat="46.8926" lon="4.69659">
        <ele>412</ele>
        <time>2012-08-22T12:43:57Z</time>
      </trkpt>
      <trkpt lat="46.89264" lon="4.69651">
        <ele>413</ele>
        <time>2012-08-22T12:43:58Z</time>
      </trkpt>
      <trkpt lat="46.89267" lon="4.69644">
        <ele>413</ele>
        <time>2012-08-22T12:43:59Z</time>
      </trkpt>
      <trkpt lat="46.89268" lon="4.69636">
        <ele>410</ele>
        <time>2012-08-22T12:44:00Z</time>
      </trkpt>
      <trkpt lat="46.89266" lon="4.69624">
        <ele>409</ele>
        <time>2012-08-22T12:44:02Z</time>
      </trkpt>
      <trkpt lat="46.8926" lon="4.69612">
        <ele>412</ele>
        <time>2012-08-22T12:44:04Z</time>
      </trkpt>
      <trkpt lat="46.89255" lon="4.69606">
        <ele>409</ele>
        <time>2012-08-22T12:44:05Z</time>
      </trkpt>
      <trkpt lat="46.8925" lon="4.696">
        <ele>407</ele>
        <time>2012-08-22T12:44:06Z</time>
      </trkpt>
      <trkpt lat="46.89244" lon="4.69595">
        <ele>406</ele>
        <time>2012-08-22T12:44:07Z</time>
      </trkpt>
      <trkpt lat="46.89238" lon="4.69589">
        <ele>409</ele>
        <time>2012-08-22T12:44:08Z</time>
      </trkpt>
      <trkpt lat="46.89231" lon="4.69583">
        <ele>408</ele>
        <time>2012-08-22T12:44:09Z</time>
      </trkpt>
      <trkpt lat="46.89224" lon="4.69576">
        <ele>410</ele>
        <time>2012-08-22T12:44:10Z</time>
      </trkpt>
      <trkpt lat="46.89218" lon="4.6957">
        <ele>408</ele>
        <time>2012-08-22T12:44:11Z</time>
      </trkpt>
      <trkpt lat="46.89211" lon="4.69565">
        <ele>411</ele>
        <time>2012-08-22T12:44:12Z</time>
      </trkpt>
      <trkpt lat="46.89205" lon="4.6956">
        <ele>413</ele>
        <time>2012-08-22T12:44:13Z</time>
      </trkpt>
      <trkpt lat="46.89197" lon="4.69555">
        <ele>412</ele>
        <time>2012-08-22T12:44:14Z</time>
      </trkpt>
      <trkpt lat="46.89189" lon="4.6955">
        <ele>411</ele>
        <time>2012-08-22T12:44:15Z</time>
      </trkpt>
      <trkpt lat="46.89181" lon="4.69544">
        <ele>412</ele>
        <time>2012-08-22T12:44:16Z</time>
      </trkpt>
      <trkpt lat="46.89171" lon="4.69536">
        <ele>412</ele>
        <time>2012-08-22T12:44:17Z</time>
      </trkpt>
      <trkpt lat="46.89163" lon="4.69529">
        <ele>414</ele>
        <time>2012-08-22T12:44:18Z</time>
      </trkpt>
      <trkpt lat="46.89156" lon="4.69523">
        <ele>416</ele>
        <time>2012-08-22T12:44:19Z</time>
      </trkpt>
      <trkpt lat="46.8915" lon="4.69517">
        <ele>419</ele>
        <time>2012-08-22T12:44:20Z</time>
      </trkpt>
      <trkpt lat="46.89144" lon="4.6951">
        <ele>419</ele>
        <time>2012-08-22T12:44:21Z</time>
      </trkpt>
      <trkpt lat="46.89139" lon="4.69504">
        <ele>419</ele>
        <time>2012-08-22T12:44:22Z</time>
      </trkpt>
      <trkpt lat="46.89133" lon="4.69498">
        <ele>420</ele>
        <time>2012-08-22T12:44:23Z</time>
      </trkpt>
      <trkpt lat="46.89128" lon="4.6949">
        <ele>421</ele>
        <time>2012-08-22T12:44:24Z</time>
      </trkpt>
      <trkpt lat="46.89121" lon="4.69481">
        <ele>422</ele>
        <time>2012-08-22T12:44:25Z</time>
      </trkpt>
      <trkpt lat="46.89115" lon="4.69472">
        <ele>423</ele>
        <time>2012-08-22T12:44:26Z</time>
      </trkpt>
      <trkpt lat="46.89109" lon="4.69464">
        <ele>423</ele>
        <time>2012-08-22T12:44:27Z</time>
      </trkpt>
      <trkpt lat="46.89102" lon="4.69456">
        <ele>423</ele>
        <time>2012-08-22T12:44:28Z</time>
      </trkpt>
      <trkpt lat="46.89096" lon="4.69448">
        <ele>421</ele>
        <time>2012-08-22T12:44:29Z</time>
      </trkpt>
      <trkpt lat="46.89089" lon="4.6944">
        <ele>421</ele>
        <time>2012-08-22T12:44:30Z</time>
      </trkpt>
      <trkpt lat="46.89082" lon="4.69431">
        <ele>422</ele>
        <time>2012-08-22T12:44:31Z</time>
      </trkpt>
      <trkpt lat="46.89075" lon="4.69423">
        <ele>424</ele>
        <time>2012-08-22T12:44:32Z</time>
      </trkpt>
      <trkpt lat="46.89068" lon="4.69415">
        <ele>423</ele>
        <time>2012-08-22T12:44:33Z</time>
      </trkpt>
      <trkpt lat="46.89061" lon="4.69408">
        <ele>424</ele>
        <time>2012-08-22T12:44:34Z</time>
      </trkpt>
      <trkpt lat="46.89054" lon="4.694">
        <ele>425</ele>
        <time>2012-08-22T12:44:35Z</time>
      </trkpt>
      <trkpt lat="46.89048" lon="4.69394">
        <ele>425</ele>
        <time>2012-08-22T12:44:36Z</time>
      </trkpt>
      <trkpt lat="46.89042" lon="4.69388">
        <ele>428</ele>
        <time>2012-08-22T12:44:37Z</time>
      </trkpt>
      <trkpt lat="46.89036" lon="4.69383">
        <ele>428</ele>
        <time>2012-08-22T12:44:38Z</time>
      </trkpt>
      <trkpt lat="46.8903" lon="4.69378">
        <ele>425</ele>
        <time>2012-08-22T12:44:39Z</time>
      </trkpt>
      <trkpt lat="46.89023" lon="4.69372">
        <ele>426</ele>
        <time>2012-08-22T12:44:40Z</time>
      </trkpt>
      <trkpt lat="46.89016" lon="4.69366">
        <ele>427</ele>
        <time>2012-08-22T12:44:41Z</time>
      </trkpt>
      <trkpt lat="46.8901" lon="4.69361">
        <ele>427</ele>
        <time>2012-08-22T12:44:42Z</time>
      </trkpt>
      <trkpt lat="46.89004" lon="4.69356">
        <ele>425</ele>
        <time>2012-08-22T12:44:43Z</time>
      </trkpt>
      <trkpt lat="46.88998" lon="4.69351">
        <ele>424</ele>
        <time>2012-08-22T12:44:44Z</time>
      </trkpt>
      <trkpt lat="46.88991" lon="4.69347">
        <ele>424</ele>
        <time>2012-08-22T12:44:45Z</time>
      </trkpt>
      <trkpt lat="46.88986" lon="4.69343">
        <ele>425</ele>
        <time>2012-08-22T12:44:46Z</time>
      </trkpt>
      <trkpt lat="46.8898" lon="4.6934">
        <ele>427</ele>
        <time>2012-08-22T12:44:47Z</time>
      </trkpt>
      <trkpt lat="46.88973" lon="4.69338">
        <ele>428</ele>
        <time>2012-08-22T12:44:48Z</time>
      </trkpt>
      <trkpt lat="46.88965" lon="4.69336">
        <ele>429</ele>
        <time>2012-08-22T12:44:49Z</time>
      </trkpt>
      <trkpt lat="46.88957" lon="4.69334">
        <ele>430</ele>
        <time>2012-08-22T12:44:50Z</time>
      </trkpt>
      <trkpt lat="46.88949" lon="4.69332">
        <ele>432</ele>
        <time>2012-08-22T12:44:51Z</time>
      </trkpt>
      <trkpt lat="46.88939" lon="4.69329">
        <ele>431</ele>
        <time>2012-08-22T12:44:52Z</time>
      </trkpt>
      <trkpt lat="46.8893" lon="4.69328">
        <ele>433</ele>
        <time>2012-08-22T12:44:53Z</time>
      </trkpt>
      <trkpt lat="46.88923" lon="4.69327">
        <ele>435</ele>
        <time>2012-08-22T12:44:54Z</time>
      </trkpt>
      <trkpt lat="46.88916" lon="4.69329">
        <ele>433</ele>
        <time>2012-08-22T12:44:55Z</time>
      </trkpt>
      <trkpt lat="46.88911" lon="4.69331">
        <ele>435</ele>
        <time>2012-08-22T12:44:56Z</time>
      </trkpt>
      <trkpt lat="46.88905" lon="4.69334">
        <ele>436</ele>
        <time>2012-08-22T12:44:57Z</time>
      </trkpt>
      <trkpt lat="46.889" lon="4.69336">
        <ele>436</ele>
        <time>2012-08-22T12:44:58Z</time>
      </trkpt>
      <trkpt lat="46.88893" lon="4.69339">
        <ele>438</ele>
        <time>2012-08-22T12:44:59Z</time>
      </trkpt>
      <trkpt lat="46.88886" lon="4.69342">
        <ele>441</ele>
        <time>2012-08-22T12:45:00Z</time>
      </trkpt>
      <trkpt lat="46.88879" lon="4.69342">
        <ele>440</ele>
        <time>2012-08-22T12:45:01Z</time>
      </trkpt>
      <trkpt lat="46.88875" lon="4.6934">
        <ele>442</ele>
        <time>2012-08-22T12:45:02Z</time>
      </trkpt>
      <trkpt lat="46.8887" lon="4.69337">
        <ele>443</ele>
        <time>2012-08-22T12:45:03Z</time>
      </trkpt>
      <trkpt lat="46.88862" lon="4.69341">
        <ele>441</ele>
        <time>2012-08-22T12:45:05Z</time>
      </trkpt>
      <trkpt lat="46.88857" lon="4.69345">
        <ele>445</ele>
        <time>2012-08-22T12:45:06Z</time>
      </trkpt>
      <trkpt lat="46.88853" lon="4.6935">
        <ele>444</ele>
        <time>2012-08-22T12:45:07Z</time>
      </trkpt>
      <trkpt lat="46.88848" lon="4.69355">
        <ele>442</ele>
        <time>2012-08-22T12:45:08Z</time>
      </trkpt>
      <trkpt lat="46.88841" lon="4.69358">
        <ele>442</ele>
        <time>2012-08-22T12:45:09Z</time>
      </trkpt>
      <trkpt lat="46.88833" lon="4.69361">
        <ele>442</ele>
        <time>2012-08-22T12:45:10Z</time>
      </trkpt>
      <trkpt lat="46.88825" lon="4.69364">
        <ele>445</ele>
        <time>2012-08-22T12:45:11Z</time>
      </trkpt>
      <trkpt lat="46.88818" lon="4.69366">
        <ele>446</ele>
        <time>2012-08-22T12:45:12Z</time>
      </trkpt>
      <trkpt lat="46.8881" lon="4.6937">
        <ele>446</ele>
        <time>2012-08-22T12:45:13Z</time>
      </trkpt>
      <trkpt lat="46.88803" lon="4.69374">
        <ele>448</ele>
        <time>2012-08-22T12:45:14Z</time>
      </trkpt>
      <trkpt lat="46.88796" lon="4.69379">
        <ele>448</ele>
        <time>2012-08-22T12:45:15Z</time>
      </trkpt>
      <trkpt lat="46.88791" lon="4.69383">
        <ele>448</ele>
        <time>2012-08-22T12:45:16Z</time>
      </trkpt>
      <trkpt lat="46.88786" lon="4.69385">
        <ele>448</ele>
        <time>2012-08-22T12:45:17Z</time>
      </trkpt>
      <trkpt lat="46.88781" lon="4.69387">
        <ele>449</ele>
        <time>2012-08-22T12:45:18Z</time>
      </trkpt>
      <trkpt lat="46.88776" lon="4.69387">
        <ele>450</ele>
        <time>2012-08-22T12:45:21Z</time>
      </trkpt>
      <trkpt lat="46.88772" lon="4.69393">
        <ele>434</ele>
        <time>2012-08-22T12:48:33Z</time>
      </trkpt>
      <trkpt lat="46.88775" lon="4.694">
        <ele>434</ele>
        <time>2012-08-22T12:48:34Z</time>
      </trkpt>
      <trkpt lat="46.88778" lon="4.69407">
        <ele>434</ele>
        <time>2012-08-22T12:48:35Z</time>
      </trkpt>
      <trkpt lat="46.88781" lon="4.69414">
        <ele>433</ele>
        <time>2012-08-22T12:48:36Z</time>
      </trkpt>
      <trkpt lat="46.88784" lon="4.69421">
        <ele>432</ele>
        <time>2012-08-22T12:48:37Z</time>
      </trkpt>
      <trkpt lat="46.88787" lon="4.69426">
        <ele>431</ele>
        <time>2012-08-22T12:48:38Z</time>
      </trkpt>
      <trkpt lat="46.88792" lon="4.69437">
        <ele>436</ele>
        <time>2012-08-22T12:48:40Z</time>
      </trkpt>
      <trkpt lat="46.88796" lon="4.69445">
        <ele>436</ele>
        <time>2012-08-22T12:48:41Z</time>
      </trkpt>
      <trkpt lat="46.888" lon="4.69452">
        <ele>437</ele>
        <time>2012-08-22T12:48:42Z</time>
      </trkpt>
      <trkpt lat="46.88805" lon="4.69458">
        <ele>438</ele>
        <time>2012-08-22T12:48:43Z</time>
      </trkpt>
      <trkpt lat="46.88811" lon="4.69464">
        <ele>440</ele>
        <time>2012-08-22T12:48:44Z</time>
      </trkpt>
      <trkpt lat="46.88818" lon="4.69471">
        <ele>441</ele>
        <time>2012-08-22T12:48:45Z</time>
      </trkpt>
      <trkpt lat="46.88826" lon="4.69479">
        <ele>443</ele>
        <time>2012-08-22T12:48:46Z</time>
      </trkpt>
      <trkpt lat="46.88833" lon="4.69486">
        <ele>445</ele>
        <time>2012-08-22T12:48:47Z</time>
      </trkpt>
      <trkpt lat="46.88841" lon="4.69494">
        <ele>446</ele>
        <time>2012-08-22T12:48:48Z</time>
      </trkpt>
      <trkpt lat="46.88848" lon="4.69501">
        <ele>446</ele>
        <time>2012-08-22T12:48:49Z</time>
      </trkpt>
      <trkpt lat="46.88855" lon="4.69508">
        <ele>446</ele>
        <time>2012-08-22T12:48:50Z</time>
      </trkpt>
      <trkpt lat="46.88863" lon="4.69515">
        <ele>446</ele>
        <time>2012-08-22T12:48:51Z</time>
      </trkpt>
      <trkpt lat="46.8887" lon="4.69522">
        <ele>445</ele>
        <time>2012-08-22T12:48:52Z</time>
      </trkpt>
      <trkpt lat="46.88876" lon="4.6953">
        <ele>443</ele>
        <time>2012-08-22T12:48:53Z</time>
      </trkpt>
      <trkpt lat="46.88881" lon="4.69537">
        <ele>442</ele>
        <time>2012-08-22T12:48:54Z</time>
      </trkpt>
      <trkpt lat="46.88885" lon="4.69542">
        <ele>440</ele>
        <time>2012-08-22T12:48:55Z</time>
      </trkpt>
      <trkpt lat="46.8889" lon="4.6955">
        <ele>436</ele>
        <time>2012-08-22T12:48:57Z</time>
      </trkpt>
      <trkpt lat="46.88897" lon="4.6956">
        <ele>434</ele>
        <time>2012-08-22T12:48:59Z</time>
      </trkpt>
      <trkpt lat="46.889" lon="4.69565">
        <ele>432</ele>
        <time>2012-08-22T12:49:00Z</time>
      </trkpt>
      <trkpt lat="46.88904" lon="4.69567">
        <ele>429</ele>
        <time>2012-08-22T12:49:01Z</time>
      </trkpt>
      <trkpt lat="46.88909" lon="4.6957">
        <ele>429</ele>
        <time>2012-08-22T12:49:02Z</time>
      </trkpt>
      <trkpt lat="46.88915" lon="4.69573">
        <ele>430</ele>
        <time>2012-08-22T12:49:03Z</time>
      </trkpt>
      <trkpt lat="46.88921" lon="4.69576">
        <ele>432</ele>
        <time>2012-08-22T12:49:04Z</time>
      </trkpt>
      <trkpt lat="46.88927" lon="4.69579">
        <ele>431</ele>
        <time>2012-08-22T12:49:05Z</time>
      </trkpt>
      <trkpt lat="46.88933" lon="4.69582">
        <ele>427</ele>
        <time>2012-08-22T12:49:06Z</time>
      </trkpt>
      <trkpt lat="46.8894" lon="4.69586">
        <ele>427</ele>
        <time>2012-08-22T12:49:07Z</time>
      </trkpt>
      <trkpt lat="46.88945" lon="4.6959">
        <ele>428</ele>
        <time>2012-08-22T12:49:08Z</time>
      </trkpt>
      <trkpt lat="46.88949" lon="4.69593">
        <ele>429</ele>
        <time>2012-08-22T12:49:09Z</time>
      </trkpt>
      <trkpt lat="46.88955" lon="4.69597">
        <ele>430</ele>
        <time>2012-08-22T12:49:11Z</time>
      </trkpt>
      <trkpt lat="46.88963" lon="4.69602">
        <ele>433</ele>
        <time>2012-08-22T12:49:13Z</time>
      </trkpt>
      <trkpt lat="46.88968" lon="4.69605">
        <ele>432</ele>
        <time>2012-08-22T12:49:14Z</time>
      </trkpt>
      <trkpt lat="46.88972" lon="4.69607">
        <ele>430</ele>
        <time>2012-08-22T12:49:15Z</time>
      </trkpt>
      <trkpt lat="46.88978" lon="4.6961">
        <ele>433</ele>
        <time>2012-08-22T12:49:16Z</time>
      </trkpt>
      <trkpt lat="46.88983" lon="4.69614">
        <ele>432</ele>
        <time>2012-08-22T12:49:17Z</time>
      </trkpt>
      <trkpt lat="46.88987" lon="4.69617">
        <ele>430</ele>
        <time>2012-08-22T12:49:18Z</time>
      </trkpt>
      <trkpt lat="46.88992" lon="4.6962">
        <ele>430</ele>
        <time>2012-08-22T12:49:19Z</time>
      </trkpt>
      <trkpt lat="46.88997" lon="4.69622">
        <ele>431</ele>
        <time>2012-08-22T12:49:20Z</time>
      </trkpt>
      <trkpt lat="46.89002" lon="4.69625">
        <ele>434</ele>
        <time>2012-08-22T12:49:21Z</time>
      </trkpt>
      <trkpt lat="46.89007" lon="4.69628">
        <ele>430</ele>
        <time>2012-08-22T12:49:22Z</time>
      </trkpt>
      <trkpt lat="46.89011" lon="4.6963">
        <ele>431</ele>
        <time>2012-08-22T12:49:23Z</time>
      </trkpt>
      <trkpt lat="46.89017" lon="4.69633">
        <ele>430</ele>
        <time>2012-08-22T12:49:24Z</time>
      </trkpt>
      <trkpt lat="46.89022" lon="4.69636">
        <ele>429</ele>
        <time>2012-08-22T12:49:25Z</time>
      </trkpt>
      <trkpt lat="46.89026" lon="4.69639">
        <ele>430</ele>
        <time>2012-08-22T12:49:26Z</time>
      </trkpt>
      <trkpt lat="46.89031" lon="4.69642">
        <ele>435</ele>
        <time>2012-08-22T12:49:27Z</time>
      </trkpt>
      <trkpt lat="46.89036" lon="4.69646">
        <ele>431</ele>
        <time>2012-08-22T12:49:28Z</time>
      </trkpt>
      <trkpt lat="46.89042" lon="4.6965">
        <ele>432</ele>
        <time>2012-08-22T12:49:29Z</time>
      </trkpt>
      <trkpt lat="46.89046" lon="4.69654">
        <ele>429</ele>
        <time>2012-08-22T12:49:30Z</time>
      </trkpt>
      <trkpt lat="46.89051" lon="4.69658">
        <ele>428</ele>
        <time>2012-08-22T12:49:31Z</time>
      </trkpt>
      <trkpt lat="46.89056" lon="4.69661">
        <ele>426</ele>
        <time>2012-08-22T12:49:32Z</time>
      </trkpt>
      <trkpt lat="46.89059" lon="4.69665">
        <ele>426</ele>
        <time>2012-08-22T12:49:33Z</time>
      </trkpt>
      <trkpt lat="46.89064" lon="4.69668">
        <ele>427</ele>
        <time>2012-08-22T12:49:34Z</time>
      </trkpt>
      <trkpt lat="46.89069" lon="4.69672">
        <ele>424</ele>
        <time>2012-08-22T12:49:35Z</time>
      </trkpt>
      <trkpt lat="46.89076" lon="4.69676">
        <ele>422</ele>
        <time>2012-08-22T12:49:36Z</time>
      </trkpt>
      <trkpt lat="46.89083" lon="4.6968">
        <ele>422</ele>
        <time>2012-08-22T12:49:37Z</time>
      </trkpt>
      <trkpt lat="46.8909" lon="4.69684">
        <ele>423</ele>
        <time>2012-08-22T12:49:38Z</time>
      </trkpt>
      <trkpt lat="46.89098" lon="4.69689">
        <ele>422</ele>
        <time>2012-08-22T12:49:39Z</time>
      </trkpt>
      <trkpt lat="46.89105" lon="4.69694">
        <ele>423</ele>
        <time>2012-08-22T12:49:40Z</time>
      </trkpt>
      <trkpt lat="46.89112" lon="4.69699">
        <ele>425</ele>
        <time>2012-08-22T12:49:41Z</time>
      </trkpt>
      <trkpt lat="46.89119" lon="4.69702">
        <ele>424</ele>
        <time>2012-08-22T12:49:42Z</time>
      </trkpt>
      <trkpt lat="46.89126" lon="4.69707">
        <ele>422</ele>
        <time>2012-08-22T12:49:43Z</time>
      </trkpt>
      <trkpt lat="46.89134" lon="4.6971">
        <ele>422</ele>
        <time>2012-08-22T12:49:44Z</time>
      </trkpt>
      <trkpt lat="46.89141" lon="4.69713">
        <ele>420</ele>
        <time>2012-08-22T12:49:45Z</time>
      </trkpt>
      <trkpt lat="46.89149" lon="4.69716">
        <ele>419</ele>
        <time>2012-08-22T12:49:46Z</time>
      </trkpt>
      <trkpt lat="46.89157" lon="4.69719">
        <ele>419</ele>
        <time>2012-08-22T12:49:47Z</time>
      </trkpt>
      <trkpt lat="46.89165" lon="4.69722">
        <ele>416</ele>
        <time>2012-08-22T12:49:48Z</time>
      </trkpt>
      <trkpt lat="46.89172" lon="4.69724">
        <ele>414</ele>
        <time>2012-08-22T12:49:49Z</time>
      </trkpt>
      <trkpt lat="46.89179" lon="4.69727">
        <ele>414</ele>
        <time>2012-08-22T12:49:50Z</time>
      </trkpt>
      <trkpt lat="46.89186" lon="4.69729">
        <ele>414</ele>
        <time>2012-08-22T12:49:51Z</time>
      </trkpt>
      <trkpt lat="46.89193" lon="4.69732">
        <ele>414</ele>
        <time>2012-08-22T12:49:52Z</time>
      </trkpt>
      <trkpt lat="46.892" lon="4.69734">
        <ele>413</ele>
        <time>2012-08-22T12:49:53Z</time>
      </trkpt>
      <trkpt lat="46.89208" lon="4.69737">
        <ele>413</ele>
        <time>2012-08-22T12:49:54Z</time>
      </trkpt>
      <trkpt lat="46.89214" lon="4.6974">
        <ele>412</ele>
        <time>2012-08-22T12:49:55Z</time>
      </trkpt>
      <trkpt lat="46.8922" lon="4.69744">
        <ele>411</ele>
        <time>2012-08-22T12:49:57Z</time>
      </trkpt>
      <trkpt lat="46.89224" lon="4.69747">
        <ele>412</ele>
        <time>2012-08-22T12:50:00Z</time>
      </trkpt>
      <trkpt lat="46.89229" lon="4.69747">
        <ele>416</ele>
        <time>2012-08-22T12:50:02Z</time>
      </trkpt>
      <trkpt lat="46.89234" lon="4.69746">
        <ele>416</ele>
        <time>2012-08-22T12:50:03Z</time>
      </trkpt>
      <trkpt lat="46.89239" lon="4.69744">
        <ele>419</ele>
        <time>2012-08-22T12:50:04Z</time>
      </trkpt>
      <trkpt lat="46.89244" lon="4.69742">
        <ele>420</ele>
        <time>2012-08-22T12:50:05Z</time>
      </trkpt>
      <trkpt lat="46.8925" lon="4.69739">
        <ele>421</ele>
        <time>2012-08-22T12:50:07Z</time>
      </trkpt>
      <trkpt lat="46.89265" lon="4.69728">
        <ele>414</ele>
        <time>2012-08-22T12:51:50Z</time>
      </trkpt>
      <trkpt lat="46.89268" lon="4.69723">
        <ele>415</ele>
        <time>2012-08-22T12:51:51Z</time>
      </trkpt>
      <trkpt lat="46.89273" lon="4.69719">
        <ele>415</ele>
        <time>2012-08-22T12:51:52Z</time>
      </trkpt>
      <trkpt lat="46.89279" lon="4.69714">
        <ele>416</ele>
        <time>2012-08-22T12:51:53Z</time>
      </trkpt>
      <trkpt lat="46.89286" lon="4.69708">
        <ele>415</ele>
        <time>2012-08-22T12:51:54Z</time>
      </trkpt>
      <trkpt lat="46.89292" lon="4.69702">
        <ele>416</ele>
        <time>2012-08-22T12:51:55Z</time>
      </trkpt>
      <trkpt lat="46.89299" lon="4.69695">
        <ele>415</ele>
        <time>2012-08-22T12:51:56Z</time>
      </trkpt>
      <trkpt lat="46.89304" lon="4.69689">
        <ele>416</ele>
        <time>2012-08-22T12:51:57Z</time>
      </trkpt>
      <trkpt lat="46.89309" lon="4.69685">
        <ele>415</ele>
        <time>2012-08-22T12:51:58Z</time>
      </trkpt>
      <trkpt lat="46.89314" lon="4.6968">
        <ele>414</ele>
        <time>2012-08-22T12:52:00Z</time>
      </trkpt>
      <trkpt lat="46.89318" lon="4.69676">
        <ele>415</ele>
        <time>2012-08-22T12:52:02Z</time>
      </trkpt>
      <trkpt lat="46.89326" lon="4.6967">
        <ele>413</ele>
        <time>2012-08-22T12:52:04Z</time>
      </trkpt>
      <trkpt lat="46.8933" lon="4.69666">
        <ele>410</ele>
        <time>2012-08-22T12:52:05Z</time>
      </trkpt>
      <trkpt lat="46.89335" lon="4.69662">
        <ele>406</ele>
        <time>2012-08-22T12:52:06Z</time>
      </trkpt>
      <trkpt lat="46.8934" lon="4.69659">
        <ele>406</ele>
        <time>2012-08-22T12:52:07Z</time>
      </trkpt>
      <trkpt lat="46.89344" lon="4.69656">
        <ele>405</ele>
        <time>2012-08-22T12:52:08Z</time>
      </trkpt>
      <trkpt lat="46.8935" lon="4.69652">
        <ele>405</ele>
        <time>2012-08-22T12:52:09Z</time>
      </trkpt>
      <trkpt lat="46.89355" lon="4.69648">
        <ele>404</ele>
        <time>2012-08-22T12:52:10Z</time>
      </trkpt>
      <trkpt lat="46.89361" lon="4.69643">
        <ele>404</ele>
        <time>2012-08-22T12:52:11Z</time>
      </trkpt>
      <trkpt lat="46.89367" lon="4.69638">
        <ele>403</ele>
        <time>2012-08-22T12:52:12Z</time>
      </trkpt>
      <trkpt lat="46.89373" lon="4.69633">
        <ele>401</ele>
        <time>2012-08-22T12:52:13Z</time>
      </trkpt>
      <trkpt lat="46.89379" lon="4.69628">
        <ele>402</ele>
        <time>2012-08-22T12:52:14Z</time>
      </trkpt>
      <trkpt lat="46.89384" lon="4.69624">
        <ele>402</ele>
        <time>2012-08-22T12:52:15Z</time>
      </trkpt>
      <trkpt lat="46.89389" lon="4.6962">
        <ele>402</ele>
        <time>2012-08-22T12:52:16Z</time>
      </trkpt>
      <trkpt lat="46.89394" lon="4.69616">
        <ele>403</ele>
        <time>2012-08-22T12:52:17Z</time>
      </trkpt>
      <trkpt lat="46.894" lon="4.69613">
        <ele>403</ele>
        <time>2012-08-22T12:52:18Z</time>
      </trkpt>
      <trkpt lat="46.89405" lon="4.69611">
        <ele>403</ele>
        <time>2012-08-22T12:52:19Z</time>
      </trkpt>
      <trkpt lat="46.89409" lon="4.69609">
        <ele>403</ele>
        <time>2012-08-22T12:52:20Z</time>
      </trkpt>
      <trkpt lat="46.89414" lon="4.69607">
        <ele>403</ele>
        <time>2012-08-22T12:52:21Z</time>
      </trkpt>
      <trkpt lat="46.89421" lon="4.69607">
        <ele>403</ele>
        <time>2012-08-22T12:52:23Z</time>
      </trkpt>
      <trkpt lat="46.89426" lon="4.69606">
        <ele>400</ele>
        <time>2012-08-22T12:52:26Z</time>
      </trkpt>
      <trkpt lat="46.89431" lon="4.69603">
        <ele>399</ele>
        <time>2012-08-22T12:52:29Z</time>
      </trkpt>
      <trkpt lat="46.89437" lon="4.69601">
        <ele>399</ele>
        <time>2012-08-22T12:52:31Z</time>
      </trkpt>
      <trkpt lat="46.89442" lon="4.696">
        <ele>398</ele>
        <time>2012-08-22T12:52:33Z</time>
      </trkpt>
      <trkpt lat="46.89448" lon="4.69597">
        <ele>395</ele>
        <time>2012-08-22T12:52:35Z</time>
      </trkpt>
      <trkpt lat="46.89452" lon="4.69592">
        <ele>392</ele>
        <time>2012-08-22T12:52:37Z</time>
      </trkpt>
      <trkpt lat="46.89454" lon="4.69585">
        <ele>390</ele>
        <time>2012-08-22T12:52:39Z</time>
      </trkpt>
      <trkpt lat="46.89455" lon="4.69578">
        <ele>388</ele>
        <time>2012-08-22T12:52:41Z</time>
      </trkpt>
      <trkpt lat="46.89455" lon="4.69569">
        <ele>385</ele>
        <time>2012-08-22T12:52:44Z</time>
      </trkpt>
      <trkpt lat="46.89455" lon="4.69562">
        <ele>379</ele>
        <time>2012-08-22T12:52:48Z</time>
      </trkpt>
      <trkpt lat="46.89454" lon="4.69554">
        <ele>379</ele>
        <time>2012-08-22T12:52:52Z</time>
      </trkpt>
      <trkpt lat="46.89456" lon="4.69548">
        <ele>375</ele>
        <time>2012-08-22T12:52:55Z</time>
      </trkpt>
      <trkpt lat="46.89461" lon="4.69545">
        <ele>374</ele>
        <time>2012-08-22T12:52:58Z</time>
      </trkpt>
      <trkpt lat="46.89465" lon="4.69545">
        <ele>368</ele>
        <time>2012-08-22T12:53:00Z</time>
      </trkpt>
      <trkpt lat="46.8947" lon="4.69545">
        <ele>369</ele>
        <time>2012-08-22T12:53:02Z</time>
      </trkpt>
      <trkpt lat="46.89476" lon="4.69544">
        <ele>367</ele>
        <time>2012-08-22T12:53:05Z</time>
      </trkpt>
      <trkpt lat="46.8948" lon="4.69542">
        <ele>368</ele>
        <time>2012-08-22T12:53:07Z</time>
      </trkpt>
      <trkpt lat="46.89485" lon="4.69541">
        <ele>365</ele>
        <time>2012-08-22T12:53:09Z</time>
      </trkpt>
      <trkpt lat="46.8949" lon="4.69539">
        <ele>363</ele>
        <time>2012-08-22T12:53:12Z</time>
      </trkpt>
      <trkpt lat="46.89495" lon="4.69537">
        <ele>362</ele>
        <time>2012-08-22T12:53:14Z</time>
      </trkpt>
      <trkpt lat="46.89501" lon="4.69535">
        <ele>365</ele>
        <time>2012-08-22T12:53:16Z</time>
      </trkpt>
      <trkpt lat="46.89509" lon="4.69533">
        <ele>370</ele>
        <time>2012-08-22T12:53:18Z</time>
      </trkpt>
      <trkpt lat="46.89519" lon="4.6953">
        <ele>371</ele>
        <time>2012-08-22T12:53:20Z</time>
      </trkpt>
      <trkpt lat="46.89527" lon="4.69527">
        <ele>372</ele>
        <time>2012-08-22T12:53:21Z</time>
      </trkpt>
      <trkpt lat="46.89536" lon="4.69524">
        <ele>370</ele>
        <time>2012-08-22T12:53:22Z</time>
      </trkpt>
      <trkpt lat="46.89544" lon="4.69521">
        <ele>370</ele>
        <time>2012-08-22T12:53:23Z</time>
      </trkpt>
      <trkpt lat="46.89554" lon="4.69519">
        <ele>369</ele>
        <time>2012-08-22T12:53:24Z</time>
      </trkpt>
      <trkpt lat="46.89562" lon="4.6952">
        <ele>369</ele>
        <time>2012-08-22T12:53:25Z</time>
      </trkpt>
      <trkpt lat="46.8957" lon="4.69522">
        <ele>367</ele>
        <time>2012-08-22T12:53:26Z</time>
      </trkpt>
      <trkpt lat="46.89576" lon="4.69522">
        <ele>366</ele>
        <time>2012-08-22T12:53:27Z</time>
      </trkpt>
      <trkpt lat="46.89584" lon="4.69521">
        <ele>365</ele>
        <time>2012-08-22T12:53:28Z</time>
      </trkpt>
      <trkpt lat="46.89591" lon="4.6952">
        <ele>364</ele>
        <time>2012-08-22T12:53:29Z</time>
      </trkpt>
      <trkpt lat="46.89598" lon="4.69518">
        <ele>362</ele>
        <time>2012-08-22T12:53:30Z</time>
      </trkpt>
      <trkpt lat="46.89606" lon="4.69515">
        <ele>360</ele>
        <time>2012-08-22T12:53:31Z</time>
      </trkpt>
      <trkpt lat="46.89613" lon="4.69512">
        <ele>359</ele>
        <time>2012-08-22T12:53:32Z</time>
      </trkpt>
      <trkpt lat="46.8962" lon="4.69509">
        <ele>358</ele>
        <time>2012-08-22T12:53:33Z</time>
      </trkpt>
      <trkpt lat="46.89627" lon="4.69504">
        <ele>356</ele>
        <time>2012-08-22T12:53:34Z</time>
      </trkpt>
      <trkpt lat="46.89635" lon="4.695">
        <ele>355</ele>
        <time>2012-08-22T12:53:35Z</time>
      </trkpt>
      <trkpt lat="46.89642" lon="4.69495">
        <ele>353</ele>
        <time>2012-08-22T12:53:36Z</time>
      </trkpt>
      <trkpt lat="46.89648" lon="4.69493">
        <ele>351</ele>
        <time>2012-08-22T12:53:37Z</time>
      </trkpt>
      <trkpt lat="46.89655" lon="4.69492">
        <ele>350</ele>
        <time>2012-08-22T12:53:38Z</time>
      </trkpt>
      <trkpt lat="46.89662" lon="4.69494">
        <ele>351</ele>
        <time>2012-08-22T12:53:39Z</time>
      </trkpt>
      <trkpt lat="46.8967" lon="4.69494">
        <ele>350</ele>
        <time>2012-08-22T12:53:40Z</time>
      </trkpt>
      <trkpt lat="46.89678" lon="4.69494">
        <ele>350</ele>
        <time>2012-08-22T12:53:41Z</time>
      </trkpt>
      <trkpt lat="46.89683" lon="4.6949">
        <ele>349</ele>
        <time>2012-08-22T12:53:42Z</time>
      </trkpt>
      <trkpt lat="46.89688" lon="4.69486">
        <ele>350</ele>
        <time>2012-08-22T12:53:43Z</time>
      </trkpt>
      <trkpt lat="46.89692" lon="4.6948">
        <ele>351</ele>
        <time>2012-08-22T12:53:44Z</time>
      </trkpt>
      <trkpt lat="46.89698" lon="4.69472">
        <ele>353</ele>
        <time>2012-08-22T12:53:45Z</time>
      </trkpt>
      <trkpt lat="46.89702" lon="4.69463">
        <ele>351</ele>
        <time>2012-08-22T12:53:46Z</time>
      </trkpt>
      <trkpt lat="46.89707" lon="4.69454">
        <ele>348</ele>
        <time>2012-08-22T12:53:47Z</time>
      </trkpt>
      <trkpt lat="46.89711" lon="4.69446">
        <ele>346</ele>
        <time>2012-08-22T12:53:48Z</time>
      </trkpt>
      <trkpt lat="46.89716" lon="4.69437">
        <ele>343</ele>
        <time>2012-08-22T12:53:49Z</time>
      </trkpt>
      <trkpt lat="46.8972" lon="4.69428">
        <ele>339</ele>
        <time>2012-08-22T12:53:50Z</time>
      </trkpt>
      <trkpt lat="46.89724" lon="4.69418">
        <ele>338</ele>
        <time>2012-08-22T12:53:51Z</time>
      </trkpt>
      <trkpt lat="46.89728" lon="4.69409">
        <ele>337</ele>
        <time>2012-08-22T12:53:52Z</time>
      </trkpt>
      <trkpt lat="46.89732" lon="4.694">
        <ele>334</ele>
        <time>2012-08-22T12:53:53Z</time>
      </trkpt>
      <trkpt lat="46.89735" lon="4.69392">
        <ele>333</ele>
        <time>2012-08-22T12:53:54Z</time>
      </trkpt>
      <trkpt lat="46.8974" lon="4.69384">
        <ele>328</ele>
        <time>2012-08-22T12:53:55Z</time>
      </trkpt>
      <trkpt lat="46.89744" lon="4.69375">
        <ele>329</ele>
        <time>2012-08-22T12:53:56Z</time>
      </trkpt>
      <trkpt lat="46.8975" lon="4.69366">
        <ele>328</ele>
        <time>2012-08-22T12:53:57Z</time>
      </trkpt>
      <trkpt lat="46.89755" lon="4.69358">
        <ele>326</ele>
        <time>2012-08-22T12:53:58Z</time>
      </trkpt>
      <trkpt lat="46.8976" lon="4.6935">
        <ele>323</ele>
        <time>2012-08-22T12:53:59Z</time>
      </trkpt>
      <trkpt lat="46.89765" lon="4.69342">
        <ele>319</ele>
        <time>2012-08-22T12:54:00Z</time>
      </trkpt>
      <trkpt lat="46.8977" lon="4.69334">
        <ele>315</ele>
        <time>2012-08-22T12:54:01Z</time>
      </trkpt>
      <trkpt lat="46.89774" lon="4.69325">
        <ele>313</ele>
        <time>2012-08-22T12:54:02Z</time>
      </trkpt>
      <trkpt lat="46.89778" lon="4.69318">
        <ele>313</ele>
        <time>2012-08-22T12:54:03Z</time>
      </trkpt>
      <trkpt lat="46.89782" lon="4.69311">
        <ele>314</ele>
        <time>2012-08-22T12:54:04Z</time>
      </trkpt>
      <trkpt lat="46.89786" lon="4.69304">
        <ele>312</ele>
        <time>2012-08-22T12:54:05Z</time>
      </trkpt>
      <trkpt lat="46.89788" lon="4.69296">
        <ele>312</ele>
        <time>2012-08-22T12:54:06Z</time>
      </trkpt>
      <trkpt lat="46.89791" lon="4.69287">
        <ele>313</ele>
        <time>2012-08-22T12:54:07Z</time>
      </trkpt>
      <trkpt lat="46.89795" lon="4.69277">
        <ele>315</ele>
        <time>2012-08-22T12:54:08Z</time>
      </trkpt>
      <trkpt lat="46.898" lon="4.69267">
        <ele>315</ele>
        <time>2012-08-22T12:54:09Z</time>
      </trkpt>
      <trkpt lat="46.89804" lon="4.69256">
        <ele>315</ele>
        <time>2012-08-22T12:54:10Z</time>
      </trkpt>
      <trkpt lat="46.89809" lon="4.69246">
        <ele>312</ele>
        <time>2012-08-22T12:54:11Z</time>
      </trkpt>
      <trkpt lat="46.89814" lon="4.69234">
        <ele>310</ele>
        <time>2012-08-22T12:54:12Z</time>
      </trkpt>
      <trkpt lat="46.89819" lon="4.69223">
        <ele>309</ele>
        <time>2012-08-22T12:54:13Z</time>
      </trkpt>
      <trkpt lat="46.89824" lon="4.69211">
        <ele>309</ele>
        <time>2012-08-22T12:54:14Z</time>
      </trkpt>
      <trkpt lat="46.89829" lon="4.692">
        <ele>309</ele>
        <time>2012-08-22T12:54:15Z</time>
      </trkpt>
      <trkpt lat="46.89833" lon="4.6919">
        <ele>310</ele>
        <time>2012-08-22T12:54:16Z</time>
      </trkpt>
      <trkpt lat="46.89837" lon="4.6918">
        <ele>309</ele>
        <time>2012-08-22T12:54:17Z</time>
      </trkpt>
      <trkpt lat="46.89841" lon="4.69169">
        <ele>308</ele>
        <time>2012-08-22T12:54:18Z</time>
      </trkpt>
      <trkpt lat="46.89845" lon="4.69159">
        <ele>308</ele>
        <time>2012-08-22T12:54:19Z</time>
      </trkpt>
      <trkpt lat="46.89848" lon="4.69149">
        <ele>308</ele>
        <time>2012-08-22T12:54:20Z</time>
      </trkpt>
      <trkpt lat="46.89852" lon="4.69138">
        <ele>306</ele>
        <time>2012-08-22T12:54:21Z</time>
      </trkpt>
      <trkpt lat="46.89856" lon="4.69128">
        <ele>306</ele>
        <time>2012-08-22T12:54:22Z</time>
      </trkpt>
      <trkpt lat="46.8986" lon="4.69119">
        <ele>306</ele>
        <time>2012-08-22T12:54:23Z</time>
      </trkpt>
      <trkpt lat="46.89861" lon="4.69108">
        <ele>304</ele>
        <time>2012-08-22T12:54:24Z</time>
      </trkpt>
      <trkpt lat="46.89862" lon="4.69097">
        <ele>303</ele>
        <time>2012-08-22T12:54:25Z</time>
      </trkpt>
      <trkpt lat="46.89862" lon="4.69085">
        <ele>301</ele>
        <time>2012-08-22T12:54:26Z</time>
      </trkpt>
      <trkpt lat="46.89863" lon="4.69073">
        <ele>302</ele>
        <time>2012-08-22T12:54:27Z</time>
      </trkpt>
      <trkpt lat="46.89864" lon="4.6906">
        <ele>302</ele>
        <time>2012-08-22T12:54:28Z</time>
      </trkpt>
      <trkpt lat="46.89865" lon="4.69047">
        <ele>301</ele>
        <time>2012-08-22T12:54:29Z</time>
      </trkpt>
      <trkpt lat="46.89866" lon="4.69035">
        <ele>300</ele>
        <time>2012-08-22T12:54:30Z</time>
      </trkpt>
      <trkpt lat="46.89867" lon="4.69026">
        <ele>301</ele>
        <time>2012-08-22T12:54:31Z</time>
      </trkpt>
      <trkpt lat="46.89869" lon="4.69017">
        <ele>301</ele>
        <time>2012-08-22T12:54:33Z</time>
      </trkpt>
      <trkpt lat="46.89869" lon="4.69017">
        <ele>301</ele>
        <time>2012-08-22T12:54:33Z</time>
      </trkpt>
      <trkpt lat="46.89869" lon="4.69017">
        <ele>301</ele>
        <time>2012-08-22T12:54:35Z</time>
      </trkpt>
      <trkpt lat="46.89872" lon="4.69012">
        <ele>296</ele>
        <time>2012-08-22T12:54:36Z</time>
      </trkpt>
      <trkpt lat="46.89882" lon="4.69013">
        <ele>292</ele>
        <time>2012-08-22T12:54:38Z</time>
      </trkpt>
      <trkpt lat="46.8989" lon="4.69016">
        <ele>292</ele>
        <time>2012-08-22T12:54:39Z</time>
      </trkpt>
      <trkpt lat="46.89898" lon="4.6902">
        <ele>291</ele>
        <time>2012-08-22T12:54:40Z</time>
      </trkpt>
      <trkpt lat="46.89909" lon="4.69024">
        <ele>291</ele>
        <time>2012-08-22T12:54:41Z</time>
      </trkpt>
      <trkpt lat="46.8992" lon="4.6903">
        <ele>290</ele>
        <time>2012-08-22T12:54:42Z</time>
      </trkpt>
      <trkpt lat="46.89931" lon="4.69036">
        <ele>288</ele>
        <time>2012-08-22T12:54:43Z</time>
      </trkpt>
      <trkpt lat="46.89941" lon="4.69043">
        <ele>287</ele>
        <time>2012-08-22T12:54:44Z</time>
      </trkpt>
      <trkpt lat="46.89952" lon="4.69051">
        <ele>286</ele>
        <time>2012-08-22T12:54:45Z</time>
      </trkpt>
      <trkpt lat="46.89965" lon="4.69062">
        <ele>284</ele>
        <time>2012-08-22T12:54:46Z</time>
      </trkpt>
      <trkpt lat="46.89977" lon="4.69074">
        <ele>283</ele>
        <time>2012-08-22T12:54:47Z</time>
      </trkpt>
      <trkpt lat="46.8999" lon="4.69087">
        <ele>283</ele>
        <time>2012-08-22T12:54:48Z</time>
      </trkpt>
      <trkpt lat="46.90004" lon="4.69101">
        <ele>282</ele>
        <time>2012-08-22T12:54:49Z</time>
      </trkpt>
      <trkpt lat="46.90016" lon="4.69114">
        <ele>281</ele>
        <time>2012-08-22T12:54:50Z</time>
      </trkpt>
      <trkpt lat="46.90029" lon="4.69125">
        <ele>281</ele>
        <time>2012-08-22T12:54:51Z</time>
      </trkpt>
      <trkpt lat="46.90041" lon="4.69136">
        <ele>280</ele>
        <time>2012-08-22T12:54:52Z</time>
      </trkpt>
      <trkpt lat="46.90053" lon="4.69145">
        <ele>279</ele>
        <time>2012-08-22T12:54:53Z</time>
      </trkpt>
      <trkpt lat="46.90064" lon="4.69151">
        <ele>278</ele>
        <time>2012-08-22T12:54:54Z</time>
      </trkpt>
      <trkpt lat="46.90074" lon="4.69158">
        <ele>274</ele>
        <time>2012-08-22T12:54:55Z</time>
      </trkpt>
      <trkpt lat="46.90082" lon="4.69163">
        <ele>274</ele>
        <time>2012-08-22T12:54:56Z</time>
      </trkpt>
      <trkpt lat="46.90089" lon="4.69169">
        <ele>274</ele>
        <time>2012-08-22T12:54:57Z</time>
      </trkpt>
      <trkpt lat="46.90097" lon="4.69176">
        <ele>275</ele>
        <time>2012-08-22T12:54:58Z</time>
      </trkpt>
      <trkpt lat="46.90106" lon="4.69184">
        <ele>276</ele>
        <time>2012-08-22T12:54:59Z</time>
      </trkpt>
      <trkpt lat="46.90114" lon="4.69193">
        <ele>275</ele>
        <time>2012-08-22T12:55:00Z</time>
      </trkpt>
      <trkpt lat="46.90123" lon="4.69203">
        <ele>277</ele>
        <time>2012-08-22T12:55:01Z</time>
      </trkpt>
      <trkpt lat="46.90129" lon="4.69211">
        <ele>277</ele>
        <time>2012-08-22T12:55:02Z</time>
      </trkpt>
      <trkpt lat="46.90134" lon="4.69218">
        <ele>277</ele>
        <time>2012-08-22T12:55:03Z</time>
      </trkpt>
      <trkpt lat="46.90139" lon="4.69226">
        <ele>274</ele>
        <time>2012-08-22T12:55:05Z</time>
      </trkpt>
      <trkpt lat="46.90144" lon="4.69229">
        <ele>278</ele>
        <time>2012-08-22T12:55:11Z</time>
      </trkpt>
      <trkpt lat="46.90149" lon="4.69227">
        <ele>282</ele>
        <time>2012-08-22T12:55:13Z</time>
      </trkpt>
      <trkpt lat="46.90154" lon="4.69222">
        <ele>283</ele>
        <time>2012-08-22T12:55:14Z</time>
      </trkpt>
      <trkpt lat="46.90158" lon="4.69218">
        <ele>283</ele>
        <time>2012-08-22T12:55:15Z</time>
      </trkpt>
      <trkpt lat="46.90165" lon="4.69214">
        <ele>283</ele>
        <time>2012-08-22T12:55:17Z</time>
      </trkpt>
      <trkpt lat="46.9017" lon="4.69216">
        <ele>282</ele>
        <time>2012-08-22T12:55:18Z</time>
      </trkpt>
      <trkpt lat="46.90174" lon="4.69222">
        <ele>281</ele>
        <time>2012-08-22T12:55:19Z</time>
      </trkpt>
      <trkpt lat="46.90179" lon="4.6923">
        <ele>279</ele>
        <time>2012-08-22T12:55:20Z</time>
      </trkpt>
      <trkpt lat="46.90185" lon="4.6924">
        <ele>279</ele>
        <time>2012-08-22T12:55:21Z</time>
      </trkpt>
      <trkpt lat="46.90192" lon="4.69253">
        <ele>279</ele>
        <time>2012-08-22T12:55:22Z</time>
      </trkpt>
      <trkpt lat="46.90199" lon="4.69266">
        <ele>280</ele>
        <time>2012-08-22T12:55:23Z</time>
      </trkpt>
      <trkpt lat="46.90208" lon="4.69282">
        <ele>279</ele>
        <time>2012-08-22T12:55:24Z</time>
      </trkpt>
      <trkpt lat="46.90216" lon="4.69298">
        <ele>277</ele>
        <time>2012-08-22T12:55:25Z</time>
      </trkpt>
      <trkpt lat="46.90223" lon="4.69313">
        <ele>274</ele>
        <time>2012-08-22T12:55:26Z</time>
      </trkpt>
      <trkpt lat="46.90231" lon="4.69328">
        <ele>274</ele>
        <time>2012-08-22T12:55:27Z</time>
      </trkpt>
      <trkpt lat="46.90238" lon="4.69342">
        <ele>274</ele>
        <time>2012-08-22T12:55:28Z</time>
      </trkpt>
      <trkpt lat="46.90245" lon="4.69355">
        <ele>273</ele>
        <time>2012-08-22T12:55:29Z</time>
      </trkpt>
      <trkpt lat="46.90253" lon="4.69368">
        <ele>273</ele>
        <time>2012-08-22T12:55:30Z</time>
      </trkpt>
      <trkpt lat="46.90262" lon="4.69381">
        <ele>273</ele>
        <time>2012-08-22T12:55:31Z</time>
      </trkpt>
      <trkpt lat="46.9027" lon="4.69393">
        <ele>271</ele>
        <time>2012-08-22T12:55:32Z</time>
      </trkpt>
      <trkpt lat="46.9028" lon="4.69405">
        <ele>272</ele>
        <time>2012-08-22T12:55:33Z</time>
      </trkpt>
      <trkpt lat="46.90289" lon="4.69416">
        <ele>271</ele>
        <time>2012-08-22T12:55:34Z</time>
      </trkpt>
      <trkpt lat="46.90299" lon="4.69426">
        <ele>271</ele>
        <time>2012-08-22T12:55:35Z</time>
      </trkpt>
      <trkpt lat="46.90311" lon="4.69437">
        <ele>269</ele>
        <time>2012-08-22T12:55:36Z</time>
      </trkpt>
      <trkpt lat="46.90322" lon="4.69448">
        <ele>265</ele>
        <time>2012-08-22T12:55:37Z</time>
      </trkpt>
      <trkpt lat="46.90335" lon="4.69459">
        <ele>269</ele>
        <time>2012-08-22T12:55:38Z</time>
      </trkpt>
      <trkpt lat="46.90347" lon="4.69468">
        <ele>270</ele>
        <time>2012-08-22T12:55:39Z</time>
      </trkpt>
      <trkpt lat="46.90358" lon="4.69476">
        <ele>270</ele>
        <time>2012-08-22T12:55:40Z</time>
      </trkpt>
      <trkpt lat="46.9037" lon="4.6948">
        <ele>271</ele>
        <time>2012-08-22T12:55:41Z</time>
      </trkpt>
      <trkpt lat="46.90382" lon="4.69484">
        <ele>272</ele>
        <time>2012-08-22T12:55:42Z</time>
      </trkpt>
      <trkpt lat="46.90395" lon="4.69487">
        <ele>273</ele>
        <time>2012-08-22T12:55:43Z</time>
      </trkpt>
      <trkpt lat="46.90407" lon="4.69492">
        <ele>271</ele>
        <time>2012-08-22T12:55:44Z</time>
      </trkpt>
      <trkpt lat="46.90418" lon="4.69499">
        <ele>271</ele>
        <time>2012-08-22T12:55:45Z</time>
      </trkpt>
      <trkpt lat="46.90429" lon="4.69508">
        <ele>271</ele>
        <time>2012-08-22T12:55:46Z</time>
      </trkpt>
      <trkpt lat="46.90438" lon="4.69519">
        <ele>269</ele>
        <time>2012-08-22T12:55:47Z</time>
      </trkpt>
      <trkpt lat="46.90447" lon="4.69531">
        <ele>267</ele>
        <time>2012-08-22T12:55:48Z</time>
      </trkpt>
      <trkpt lat="46.90455" lon="4.69542">
        <ele>266</ele>
        <time>2012-08-22T12:55:49Z</time>
      </trkpt>
      <trkpt lat="46.90465" lon="4.69553">
        <ele>268</ele>
        <time>2012-08-22T12:55:50Z</time>
      </trkpt>
      <trkpt lat="46.90474" lon="4.69563">
        <ele>267</ele>
        <time>2012-08-22T12:55:51Z</time>
      </trkpt>
      <trkpt lat="46.90482" lon="4.69572">
        <ele>267</ele>
        <time>2012-08-22T12:55:52Z</time>
      </trkpt>
      <trkpt lat="46.9049" lon="4.69578">
        <ele>266</ele>
        <time>2012-08-22T12:55:53Z</time>
      </trkpt>
      <trkpt lat="46.90498" lon="4.69582">
        <ele>267</ele>
        <time>2012-08-22T12:55:54Z</time>
      </trkpt>
      <trkpt lat="46.90508" lon="4.69582">
        <ele>269</ele>
        <time>2012-08-22T12:55:55Z</time>
      </trkpt>
      <trkpt lat="46.90518" lon="4.69581">
        <ele>270</ele>
        <time>2012-08-22T12:55:56Z</time>
      </trkpt>
      <trkpt lat="46.90518" lon="4.69601">
        <ele>213.4492188</ele>
      </trkpt>
      <trkpt lat="46.90544" lon="4.69671">
        <ele>214.4609375</ele>
      </trkpt>
      <trkpt lat="46.90589" lon="4.69794">
        <ele>214</ele>
      </trkpt>
      <trkpt lat="46.9059" lon="4.69794">
        <ele>214</ele>
      </trkpt>
      <trkpt lat="46.90615" lon="4.6991">
        <ele>214</ele>
      </trkpt>
      <trkpt lat="46.90644" lon="4.70035">
        <ele>214</ele>
      </trkpt>
      <trkpt lat="46.90644" lon="4.70037">
        <ele>214</ele>
      </trkpt>
      <trkpt lat="46.90677" lon="4.70167">
        <ele>213.921875</ele>
      </trkpt>
      <trkpt lat="46.90705" lon="4.70294">
        <ele>212.71875</ele>
      </trkpt>
      <trkpt lat="46.90707" lon="4.70294">
        <ele>212.65625</ele>
      </trkpt>
      <trkpt lat="46.90739" lon="4.70344">
        <ele>212.8554688</ele>
      </trkpt>
      <trkpt lat="46.90797" lon="4.7041">
        <ele>212</ele>
      </trkpt>
      <trkpt lat="46.90824" lon="4.70461">
        <ele>212</ele>
      </trkpt>
      <trkpt lat="46.90826" lon="4.70461">
        <ele>212</ele>
      </trkpt>
      <trkpt lat="46.90849" lon="4.70507">
        <ele>212.4570313</ele>
      </trkpt>
      <trkpt lat="46.90858" lon="4.7054">
        <ele>212.78125</ele>
      </trkpt>
      <trkpt lat="46.90824" lon="4.70605">
        <ele>213</ele>
      </trkpt>
      <trkpt lat="46.90797" lon="4.70662">
        <ele>213</ele>
      </trkpt>
      <trkpt lat="46.90826" lon="4.70645">
        <ele>213</ele>
      </trkpt>
      <trkpt lat="46.90858" lon="4.70636">
        <ele>212.8242188</ele>
      </trkpt>
      <trkpt lat="46.90898" lon="4.70597">
        <ele>212.8359375</ele>
      </trkpt>
      <trkpt lat="46.90968" lon="4.7045">
        <ele>213</ele>
      </trkpt>
      <trkpt lat="46.90969" lon="4.7045">
        <ele>213</ele>
      </trkpt>
      <trkpt lat="46.91068" lon="4.70261">
        <ele>217.2421875</ele>
      </trkpt>
      <trkpt lat="46.9109" lon="4.70237">
        <ele>219.2578125</ele>
      </trkpt>
      <trkpt lat="46.91106" lon="4.70167">
        <ele>220.4257813</ele>
      </trkpt>
      <trkpt lat="46.91145" lon="4.70048">
        <ele>223.3164063</ele>
      </trkpt>
      <trkpt lat="46.91167" lon="4.70075">
        <ele>224.9140625</ele>
      </trkpt>
      <trkpt lat="46.91239" lon="4.70086">
        <ele>229</ele>
      </trkpt>
      <trkpt lat="46.91357" lon="4.70125">
        <ele>237.359375</ele>
      </trkpt>
      <trkpt lat="46.91359" lon="4.70125">
        <ele>237.4921875</ele>
      </trkpt>
      <trkpt lat="46.91383" lon="4.70145">
        <ele>239.8828125</ele>
      </trkpt>
      <trkpt lat="46.91404" lon="4.70169">
        <ele>284</ele>
        <time>2012-08-22T13:02:11Z</time>
      </trkpt>
      <trkpt lat="46.91408" lon="4.70174">
        <ele>284</ele>
        <time>2012-08-22T13:02:12Z</time>
      </trkpt>
      <trkpt lat="46.91412" lon="4.7018">
        <ele>283</ele>
        <time>2012-08-22T13:02:13Z</time>
      </trkpt>
      <trkpt lat="46.91417" lon="4.70185">
        <ele>283</ele>
        <time>2012-08-22T13:02:14Z</time>
      </trkpt>
      <trkpt lat="46.91425" lon="4.7019">
        <ele>284</ele>
        <time>2012-08-22T13:02:15Z</time>
      </trkpt>
      <trkpt lat="46.91434" lon="4.70197">
        <ele>286</ele>
        <time>2012-08-22T13:02:16Z</time>
      </trkpt>
      <trkpt lat="46.91445" lon="4.70204">
        <ele>286</ele>
        <time>2012-08-22T13:02:17Z</time>
      </trkpt>
      <trkpt lat="46.91455" lon="4.70211">
        <ele>287</ele>
        <time>2012-08-22T13:02:18Z</time>
      </trkpt>
      <trkpt lat="46.91464" lon="4.70217">
        <ele>287</ele>
        <time>2012-08-22T13:02:19Z</time>
      </trkpt>
      <trkpt lat="46.91474" lon="4.70222">
        <ele>288</ele>
        <time>2012-08-22T13:02:20Z</time>
      </trkpt>
      <trkpt lat="46.91483" lon="4.70227">
        <ele>289</ele>
        <time>2012-08-22T13:02:21Z</time>
      </trkpt>
      <trkpt lat="46.91493" lon="4.70228">
        <ele>290</ele>
        <time>2012-08-22T13:02:22Z</time>
      </trkpt>
      <trkpt lat="46.91503" lon="4.70228">
        <ele>288</ele>
        <time>2012-08-22T13:02:23Z</time>
      </trkpt>
      <trkpt lat="46.91513" lon="4.70229">
        <ele>290</ele>
        <time>2012-08-22T13:02:24Z</time>
      </trkpt>
      <trkpt lat="46.91524" lon="4.7023">
        <ele>293</ele>
        <time>2012-08-22T13:02:25Z</time>
      </trkpt>
      <trkpt lat="46.91534" lon="4.70238">
        <ele>294</ele>
        <time>2012-08-22T13:02:26Z</time>
      </trkpt>
      <trkpt lat="46.91545" lon="4.70245">
        <ele>295</ele>
        <time>2012-08-22T13:02:27Z</time>
      </trkpt>
      <trkpt lat="46.91555" lon="4.70251">
        <ele>296</ele>
        <time>2012-08-22T13:02:28Z</time>
      </trkpt>
      <trkpt lat="46.91567" lon="4.70254">
        <ele>298</ele>
        <time>2012-08-22T13:02:29Z</time>
      </trkpt>
      <trkpt lat="46.91579" lon="4.70257">
        <ele>300</ele>
        <time>2012-08-22T13:02:30Z</time>
      </trkpt>
      <trkpt lat="46.91593" lon="4.70261">
        <ele>302</ele>
        <time>2012-08-22T13:02:31Z</time>
      </trkpt>
      <trkpt lat="46.91607" lon="4.70264">
        <ele>303</ele>
        <time>2012-08-22T13:02:32Z</time>
      </trkpt>
      <trkpt lat="46.9162" lon="4.70268">
        <ele>305</ele>
        <time>2012-08-22T13:02:33Z</time>
      </trkpt>
      <trkpt lat="46.91633" lon="4.7027">
        <ele>305</ele>
        <time>2012-08-22T13:02:34Z</time>
      </trkpt>
      <trkpt lat="46.91644" lon="4.70272">
        <ele>306</ele>
        <time>2012-08-22T13:02:35Z</time>
      </trkpt>
      <trkpt lat="46.91654" lon="4.7027">
        <ele>306</ele>
        <time>2012-08-22T13:02:36Z</time>
      </trkpt>
      <trkpt lat="46.91663" lon="4.70266">
        <ele>305</ele>
        <time>2012-08-22T13:02:37Z</time>
      </trkpt>
      <trkpt lat="46.91672" lon="4.70264">
        <ele>305</ele>
        <time>2012-08-22T13:02:38Z</time>
      </trkpt>
      <trkpt lat="46.91681" lon="4.70263">
        <ele>306</ele>
        <time>2012-08-22T13:02:39Z</time>
      </trkpt>
      <trkpt lat="46.91691" lon="4.70262">
        <ele>308</ele>
        <time>2012-08-22T13:02:40Z</time>
      </trkpt>
      <trkpt lat="46.91702" lon="4.70263">
        <ele>308</ele>
        <time>2012-08-22T13:02:41Z</time>
      </trkpt>
      <trkpt lat="46.91714" lon="4.70263">
        <ele>308</ele>
        <time>2012-08-22T13:02:42Z</time>
      </trkpt>
      <trkpt lat="46.91726" lon="4.70263">
        <ele>309</ele>
        <time>2012-08-22T13:02:43Z</time>
      </trkpt>
      <trkpt lat="46.91736" lon="4.70263">
        <ele>310</ele>
        <time>2012-08-22T13:02:44Z</time>
      </trkpt>
      <trkpt lat="46.91744" lon="4.70264">
        <ele>311</ele>
        <time>2012-08-22T13:02:45Z</time>
      </trkpt>
      <trkpt lat="46.91751" lon="4.70265">
        <ele>313</ele>
        <time>2012-08-22T13:02:46Z</time>
      </trkpt>
      <trkpt lat="46.91756" lon="4.70266">
        <ele>315</ele>
        <time>2012-08-22T13:02:47Z</time>
      </trkpt>
      <trkpt lat="46.91764" lon="4.70269">
        <ele>320</ele>
        <time>2012-08-22T13:02:49Z</time>
      </trkpt>
      <trkpt lat="46.91772" lon="4.70267">
        <ele>321</ele>
        <time>2012-08-22T13:02:51Z</time>
      </trkpt>
      <trkpt lat="46.91777" lon="4.70262">
        <ele>328</ele>
        <time>2012-08-22T13:02:52Z</time>
      </trkpt>
      <trkpt lat="46.91783" lon="4.70254">
        <ele>335</ele>
        <time>2012-08-22T13:02:53Z</time>
      </trkpt>
      <trkpt lat="46.9179" lon="4.70246">
        <ele>340</ele>
        <time>2012-08-22T13:02:54Z</time>
      </trkpt>
      <trkpt lat="46.91798" lon="4.70239">
        <ele>343</ele>
        <time>2012-08-22T13:02:55Z</time>
      </trkpt>
      <trkpt lat="46.91805" lon="4.70233">
        <ele>346</ele>
        <time>2012-08-22T13:02:56Z</time>
      </trkpt>
      <trkpt lat="46.91811" lon="4.70228">
        <ele>349</ele>
        <time>2012-08-22T13:02:57Z</time>
      </trkpt>
      <trkpt lat="46.91817" lon="4.70223">
        <ele>351</ele>
        <time>2012-08-22T13:02:58Z</time>
      </trkpt>
      <trkpt lat="46.91823" lon="4.70218">
        <ele>353</ele>
        <time>2012-08-22T13:02:59Z</time>
      </trkpt>
      <trkpt lat="46.91827" lon="4.70216">
        <ele>355</ele>
        <time>2012-08-22T13:03:00Z</time>
      </trkpt>
      <trkpt lat="46.91836" lon="4.70219">
        <ele>360</ele>
        <time>2012-08-22T13:03:02Z</time>
      </trkpt>
      <trkpt lat="46.9184" lon="4.70221">
        <ele>361</ele>
        <time>2012-08-22T13:03:03Z</time>
      </trkpt>
      <trkpt lat="46.91847" lon="4.70223">
        <ele>366</ele>
        <time>2012-08-22T13:03:05Z</time>
      </trkpt>
      <trkpt lat="46.91856" lon="4.70221">
        <ele>369</ele>
        <time>2012-08-22T13:03:07Z</time>
      </trkpt>
      <trkpt lat="46.91862" lon="4.7022">
        <ele>371</ele>
        <time>2012-08-22T13:03:08Z</time>
      </trkpt>
      <trkpt lat="46.91866" lon="4.70219">
        <ele>372</ele>
        <time>2012-08-22T13:03:09Z</time>
      </trkpt>
      <trkpt lat="46.91866" lon="4.70219">
        <ele>372</ele>
        <time>2012-08-22T13:03:09Z</time>
      </trkpt>
      <trkpt lat="46.91866" lon="4.70219">
        <ele>372</ele>
        <time>2012-08-22T13:03:12Z</time>
      </trkpt>
      <trkpt lat="46.91874" lon="4.70217">
        <ele>374</ele>
        <time>2012-08-22T13:03:15Z</time>
      </trkpt>
      <trkpt lat="46.9188" lon="4.70217">
        <ele>374</ele>
        <time>2012-08-22T13:03:16Z</time>
      </trkpt>
      <trkpt lat="46.91885" lon="4.70217">
        <ele>376</ele>
        <time>2012-08-22T13:03:17Z</time>
      </trkpt>
      <trkpt lat="46.9189" lon="4.70217">
        <ele>376</ele>
        <time>2012-08-22T13:03:18Z</time>
      </trkpt>
      <trkpt lat="46.91896" lon="4.70218">
        <ele>377</ele>
        <time>2012-08-22T13:03:19Z</time>
      </trkpt>
      <trkpt lat="46.91902" lon="4.70219">
        <ele>379</ele>
        <time>2012-08-22T13:03:20Z</time>
      </trkpt>
      <trkpt lat="46.9191" lon="4.70222">
        <ele>380</ele>
        <time>2012-08-22T13:03:21Z</time>
      </trkpt>
      <trkpt lat="46.91918" lon="4.70224">
        <ele>378</ele>
        <time>2012-08-22T13:03:22Z</time>
      </trkpt>
      <trkpt lat="46.91925" lon="4.70226">
        <ele>379</ele>
        <time>2012-08-22T13:03:23Z</time>
      </trkpt>
      <trkpt lat="46.91931" lon="4.70229">
        <ele>379</ele>
        <time>2012-08-22T13:03:24Z</time>
      </trkpt>
      <trkpt lat="46.91936" lon="4.70233">
        <ele>381</ele>
        <time>2012-08-22T13:03:25Z</time>
      </trkpt>
      <trkpt lat="46.91939" lon="4.7024">
        <ele>381</ele>
        <time>2012-08-22T13:03:26Z</time>
      </trkpt>
      <trkpt lat="46.91941" lon="4.70246">
        <ele>382</ele>
        <time>2012-08-22T13:03:27Z</time>
      </trkpt>
      <trkpt lat="46.91943" lon="4.70252">
        <ele>383</ele>
        <time>2012-08-22T13:03:28Z</time>
      </trkpt>
      <trkpt lat="46.91946" lon="4.70258">
        <ele>384</ele>
        <time>2012-08-22T13:03:29Z</time>
      </trkpt>
      <trkpt lat="46.9195" lon="4.7027">
        <ele>385</ele>
        <time>2012-08-22T13:03:31Z</time>
      </trkpt>
      <trkpt lat="46.91953" lon="4.70278">
        <ele>385</ele>
        <time>2012-08-22T13:03:32Z</time>
      </trkpt>
      <trkpt lat="46.91958" lon="4.70286">
        <ele>385</ele>
        <time>2012-08-22T13:03:33Z</time>
      </trkpt>
      <trkpt lat="46.91962" lon="4.70293">
        <ele>384</ele>
        <time>2012-08-22T13:03:34Z</time>
      </trkpt>
      <trkpt lat="46.91965" lon="4.70299">
        <ele>382</ele>
        <time>2012-08-22T13:03:35Z</time>
      </trkpt>
      <trkpt lat="46.91974" lon="4.70302">
        <ele>384</ele>
        <time>2012-08-22T13:03:37Z</time>
      </trkpt>
      <trkpt lat="46.9198" lon="4.70302">
        <ele>386</ele>
        <time>2012-08-22T13:03:38Z</time>
      </trkpt>
      <trkpt lat="46.91987" lon="4.70301">
        <ele>386</ele>
        <time>2012-08-22T13:03:39Z</time>
      </trkpt>
      <trkpt lat="46.91995" lon="4.703">
        <ele>385</ele>
        <time>2012-08-22T13:03:40Z</time>
      </trkpt>
      <trkpt lat="46.92002" lon="4.70302">
        <ele>386</ele>
        <time>2012-08-22T13:03:41Z</time>
      </trkpt>
      <trkpt lat="46.92008" lon="4.70303">
        <ele>387</ele>
        <time>2012-08-22T13:03:42Z</time>
      </trkpt>
      <trkpt lat="46.92015" lon="4.70305">
        <ele>388</ele>
        <time>2012-08-22T13:03:43Z</time>
      </trkpt>
      <trkpt lat="46.92023" lon="4.70307">
        <ele>387</ele>
        <time>2012-08-22T13:03:44Z</time>
      </trkpt>
      <trkpt lat="46.92032" lon="4.7031">
        <ele>388</ele>
        <time>2012-08-22T13:03:45Z</time>
      </trkpt>
      <trkpt lat="46.9204" lon="4.70313">
        <ele>390</ele>
        <time>2012-08-22T13:03:46Z</time>
      </trkpt>
      <trkpt lat="46.92048" lon="4.70316">
        <ele>391</ele>
        <time>2012-08-22T13:03:47Z</time>
      </trkpt>
      <trkpt lat="46.92054" lon="4.70319">
        <ele>393</ele>
        <time>2012-08-22T13:03:48Z</time>
      </trkpt>
      <trkpt lat="46.92059" lon="4.70322">
        <ele>396</ele>
        <time>2012-08-22T13:03:49Z</time>
      </trkpt>
      <trkpt lat="46.92064" lon="4.70324">
        <ele>397</ele>
        <time>2012-08-22T13:03:50Z</time>
      </trkpt>
      <trkpt lat="46.92071" lon="4.70327">
        <ele>397</ele>
        <time>2012-08-22T13:03:51Z</time>
      </trkpt>
      <trkpt lat="46.92079" lon="4.7033">
        <ele>398</ele>
        <time>2012-08-22T13:03:52Z</time>
      </trkpt>
      <trkpt lat="46.92087" lon="4.70333">
        <ele>399</ele>
        <time>2012-08-22T13:03:53Z</time>
      </trkpt>
      <trkpt lat="46.92093" lon="4.70334">
        <ele>401</ele>
        <time>2012-08-22T13:03:54Z</time>
      </trkpt>
      <trkpt lat="46.92098" lon="4.70336">
        <ele>401</ele>
        <time>2012-08-22T13:03:55Z</time>
      </trkpt>
      <trkpt lat="46.92104" lon="4.70338">
        <ele>403</ele>
        <time>2012-08-22T13:03:56Z</time>
      </trkpt>
      <trkpt lat="46.9211" lon="4.7034">
        <ele>401</ele>
        <time>2012-08-22T13:03:57Z</time>
      </trkpt>
      <trkpt lat="46.92117" lon="4.70342">
        <ele>400</ele>
        <time>2012-08-22T13:03:58Z</time>
      </trkpt>
      <trkpt lat="46.92125" lon="4.70344">
        <ele>400</ele>
        <time>2012-08-22T13:03:59Z</time>
      </trkpt>
      <trkpt lat="46.92133" lon="4.70345">
        <ele>401</ele>
        <time>2012-08-22T13:04:00Z</time>
      </trkpt>
      <trkpt lat="46.9214" lon="4.70344">
        <ele>404</ele>
        <time>2012-08-22T13:04:01Z</time>
      </trkpt>
      <trkpt lat="46.92148" lon="4.70344">
        <ele>406</ele>
        <time>2012-08-22T13:04:02Z</time>
      </trkpt>
      <trkpt lat="46.92156" lon="4.70343">
        <ele>407</ele>
        <time>2012-08-22T13:04:03Z</time>
      </trkpt>
      <trkpt lat="46.92164" lon="4.70343">
        <ele>408</ele>
        <time>2012-08-22T13:04:04Z</time>
      </trkpt>
      <trkpt lat="46.92171" lon="4.70342">
        <ele>410</ele>
        <time>2012-08-22T13:04:05Z</time>
      </trkpt>
      <trkpt lat="46.92177" lon="4.70341">
        <ele>411</ele>
        <time>2012-08-22T13:04:06Z</time>
      </trkpt>
      <trkpt lat="46.92182" lon="4.70339">
        <ele>413</ele>
        <time>2012-08-22T13:04:07Z</time>
      </trkpt>
      <trkpt lat="46.92189" lon="4.70336">
        <ele>415</ele>
        <time>2012-08-22T13:04:08Z</time>
      </trkpt>
      <trkpt lat="46.92195" lon="4.70334">
        <ele>416</ele>
        <time>2012-08-22T13:04:09Z</time>
      </trkpt>
      <trkpt lat="46.92201" lon="4.70332">
        <ele>418</ele>
        <time>2012-08-22T13:04:10Z</time>
      </trkpt>
      <trkpt lat="46.92209" lon="4.70331">
        <ele>417</ele>
        <time>2012-08-22T13:04:11Z</time>
      </trkpt>
      <trkpt lat="46.92215" lon="4.7033">
        <ele>418</ele>
        <time>2012-08-22T13:04:12Z</time>
      </trkpt>
      <trkpt lat="46.92223" lon="4.70328">
        <ele>419</ele>
        <time>2012-08-22T13:04:14Z</time>
      </trkpt>
      <trkpt lat="46.92229" lon="4.70322">
        <ele>420</ele>
        <time>2012-08-22T13:04:16Z</time>
      </trkpt>
      <trkpt lat="46.92232" lon="4.70313">
        <ele>418</ele>
        <time>2012-08-22T13:04:17Z</time>
      </trkpt>
      <trkpt lat="46.92235" lon="4.70302">
        <ele>419</ele>
        <time>2012-08-22T13:04:18Z</time>
      </trkpt>
      <trkpt lat="46.92238" lon="4.70291">
        <ele>419</ele>
        <time>2012-08-22T13:04:19Z</time>
      </trkpt>
      <trkpt lat="46.9224" lon="4.7028">
        <ele>424</ele>
        <time>2012-08-22T13:04:20Z</time>
      </trkpt>
      <trkpt lat="46.92245" lon="4.70271">
        <ele>424</ele>
        <time>2012-08-22T13:04:21Z</time>
      </trkpt>
      <trkpt lat="46.9225" lon="4.70263">
        <ele>425</ele>
        <time>2012-08-22T13:04:22Z</time>
      </trkpt>
      <trkpt lat="46.92255" lon="4.70256">
        <ele>424</ele>
        <time>2012-08-22T13:04:23Z</time>
      </trkpt>
      <trkpt lat="46.92259" lon="4.7025">
        <ele>428</ele>
        <time>2012-08-22T13:04:24Z</time>
      </trkpt>
      <trkpt lat="46.92261" lon="4.70243">
        <ele>428</ele>
        <time>2012-08-22T13:04:25Z</time>
      </trkpt>
      <trkpt lat="46.92261" lon="4.70236">
        <ele>430</ele>
        <time>2012-08-22T13:04:26Z</time>
      </trkpt>
      <trkpt lat="46.92261" lon="4.70226">
        <ele>433</ele>
        <time>2012-08-22T13:04:27Z</time>
      </trkpt>
      <trkpt lat="46.92136" lon="4.69925">
        <ele>430</ele>
        <time>2012-08-22T13:09:50Z</time>
      </trkpt>
      <trkpt lat="46.9213" lon="4.69917">
        <ele>430</ele>
        <time>2012-08-22T13:09:51Z</time>
      </trkpt>
      <trkpt lat="46.92124" lon="4.69908">
        <ele>429</ele>
        <time>2012-08-22T13:09:52Z</time>
      </trkpt>
      <trkpt lat="46.92118" lon="4.69899">
        <ele>427</ele>
        <time>2012-08-22T13:09:53Z</time>
      </trkpt>
      <trkpt lat="46.92112" lon="4.6989">
        <ele>428</ele>
        <time>2012-08-22T13:09:54Z</time>
      </trkpt>
      <trkpt lat="46.92107" lon="4.69882">
        <ele>429</ele>
        <time>2012-08-22T13:09:55Z</time>
      </trkpt>
      <trkpt lat="46.92101" lon="4.69871">
        <ele>431</ele>
        <time>2012-08-22T13:09:56Z</time>
      </trkpt>
      <trkpt lat="46.92097" lon="4.69862">
        <ele>429</ele>
        <time>2012-08-22T13:09:57Z</time>
      </trkpt>
      <trkpt lat="46.92093" lon="4.69852">
        <ele>427</ele>
        <time>2012-08-22T13:09:58Z</time>
      </trkpt>
      <trkpt lat="46.92088" lon="4.69841">
        <ele>427</ele>
        <time>2012-08-22T13:09:59Z</time>
      </trkpt>
      <trkpt lat="46.92084" lon="4.69829">
        <ele>426</ele>
        <time>2012-08-22T13:10:00Z</time>
      </trkpt>
      <trkpt lat="46.92079" lon="4.69817">
        <ele>423</ele>
        <time>2012-08-22T13:10:01Z</time>
      </trkpt>
      <trkpt lat="46.92074" lon="4.69806">
        <ele>424</ele>
        <time>2012-08-22T13:10:02Z</time>
      </trkpt>
      <trkpt lat="46.9207" lon="4.69796">
        <ele>425</ele>
        <time>2012-08-22T13:10:03Z</time>
      </trkpt>
      <trkpt lat="46.92064" lon="4.69788">
        <ele>425</ele>
        <time>2012-08-22T13:10:04Z</time>
      </trkpt>
      <trkpt lat="46.92057" lon="4.6978">
        <ele>424</ele>
        <time>2012-08-22T13:10:05Z</time>
      </trkpt>
      <trkpt lat="46.92049" lon="4.69771">
        <ele>422</ele>
        <time>2012-08-22T13:10:06Z</time>
      </trkpt>
      <trkpt lat="46.92041" lon="4.69763">
        <ele>421</ele>
        <time>2012-08-22T13:10:07Z</time>
      </trkpt>
      <trkpt lat="46.92033" lon="4.69755">
        <ele>421</ele>
        <time>2012-08-22T13:10:08Z</time>
      </trkpt>
      <trkpt lat="46.92026" lon="4.69751">
        <ele>422</ele>
        <time>2012-08-22T13:10:09Z</time>
      </trkpt>
      <trkpt lat="46.92019" lon="4.69748">
        <ele>415</ele>
        <time>2012-08-22T13:10:10Z</time>
      </trkpt>
      <trkpt lat="46.92011" lon="4.69749">
        <ele>412</ele>
        <time>2012-08-22T13:10:11Z</time>
      </trkpt>
      <trkpt lat="46.92004" lon="4.6975">
        <ele>410</ele>
        <time>2012-08-22T13:10:12Z</time>
      </trkpt>
      <trkpt lat="46.91995" lon="4.6975">
        <ele>407</ele>
        <time>2012-08-22T13:10:13Z</time>
      </trkpt>
      <trkpt lat="46.91987" lon="4.69748">
        <ele>405</ele>
        <time>2012-08-22T13:10:14Z</time>
      </trkpt>
      <trkpt lat="46.91979" lon="4.69744">
        <ele>404</ele>
        <time>2012-08-22T13:10:15Z</time>
      </trkpt>
      <trkpt lat="46.91973" lon="4.69738">
        <ele>403</ele>
        <time>2012-08-22T13:10:16Z</time>
      </trkpt>
      <trkpt lat="46.91968" lon="4.69733">
        <ele>401</ele>
        <time>2012-08-22T13:10:17Z</time>
      </trkpt>
      <trkpt lat="46.91962" lon="4.69726">
        <ele>401</ele>
        <time>2012-08-22T13:10:18Z</time>
      </trkpt>
      <trkpt lat="46.91955" lon="4.69716">
        <ele>401</ele>
        <time>2012-08-22T13:10:19Z</time>
      </trkpt>
      <trkpt lat="46.91949" lon="4.69707">
        <ele>401</ele>
        <time>2012-08-22T13:10:20Z</time>
      </trkpt>
      <trkpt lat="46.91944" lon="4.69696">
        <ele>401</ele>
        <time>2012-08-22T13:10:21Z</time>
      </trkpt>
      <trkpt lat="46.91942" lon="4.69685">
        <ele>401</ele>
        <time>2012-08-22T13:10:22Z</time>
      </trkpt>
      <trkpt lat="46.91942" lon="4.69673">
        <ele>400</ele>
        <time>2012-08-22T13:10:23Z</time>
      </trkpt>
      <trkpt lat="46.91943" lon="4.69663">
        <ele>398</ele>
        <time>2012-08-22T13:10:24Z</time>
      </trkpt>
      <trkpt lat="46.91947" lon="4.69655">
        <ele>395</ele>
        <time>2012-08-22T13:10:25Z</time>
      </trkpt>
      <trkpt lat="46.91951" lon="4.69648">
        <ele>393</ele>
        <time>2012-08-22T13:10:26Z</time>
      </trkpt>
      <trkpt lat="46.91953" lon="4.69641">
        <ele>394</ele>
        <time>2012-08-22T13:10:27Z</time>
      </trkpt>
      <trkpt lat="46.9195" lon="4.69628">
        <ele>395</ele>
        <time>2012-08-22T13:10:29Z</time>
      </trkpt>
      <trkpt lat="46.91947" lon="4.69621">
        <ele>397</ele>
        <time>2012-08-22T13:10:30Z</time>
      </trkpt>
      <trkpt lat="46.91942" lon="4.69612">
        <ele>400</ele>
        <time>2012-08-22T13:10:31Z</time>
      </trkpt>
      <trkpt lat="46.91936" lon="4.69601">
        <ele>399</ele>
        <time>2012-08-22T13:10:32Z</time>
      </trkpt>
      <trkpt lat="46.91929" lon="4.6959">
        <ele>398</ele>
        <time>2012-08-22T13:10:33Z</time>
      </trkpt>
      <trkpt lat="46.91921" lon="4.6958">
        <ele>397</ele>
        <time>2012-08-22T13:10:34Z</time>
      </trkpt>
      <trkpt lat="46.91913" lon="4.69568">
        <ele>397</ele>
        <time>2012-08-22T13:10:35Z</time>
      </trkpt>
      <trkpt lat="46.91905" lon="4.69558">
        <ele>398</ele>
        <time>2012-08-22T13:10:36Z</time>
      </trkpt>
      <trkpt lat="46.91896" lon="4.69546">
        <ele>397</ele>
        <time>2012-08-22T13:10:37Z</time>
      </trkpt>
      <trkpt lat="46.91886" lon="4.69535">
        <ele>394</ele>
        <time>2012-08-22T13:10:38Z</time>
      </trkpt>
      <trkpt lat="46.91878" lon="4.69525">
        <ele>386</ele>
        <time>2012-08-22T13:10:39Z</time>
      </trkpt>
      <trkpt lat="46.91869" lon="4.69514">
        <ele>384</ele>
        <time>2012-08-22T13:10:40Z</time>
      </trkpt>
      <trkpt lat="46.91861" lon="4.69504">
        <ele>383</ele>
        <time>2012-08-22T13:10:41Z</time>
      </trkpt>
      <trkpt lat="46.91852" lon="4.69493">
        <ele>379</ele>
        <time>2012-08-22T13:10:42Z</time>
      </trkpt>
      <trkpt lat="46.91844" lon="4.69483">
        <ele>376</ele>
        <time>2012-08-22T13:10:43Z</time>
      </trkpt>
      <trkpt lat="46.91837" lon="4.69472">
        <ele>374</ele>
        <time>2012-08-22T13:10:44Z</time>
      </trkpt>
      <trkpt lat="46.91829" lon="4.69461">
        <ele>373</ele>
        <time>2012-08-22T13:10:45Z</time>
      </trkpt>
      <trkpt lat="46.91822" lon="4.6945">
        <ele>372</ele>
        <time>2012-08-22T13:10:46Z</time>
      </trkpt>
      <trkpt lat="46.91815" lon="4.69438">
        <ele>370</ele>
        <time>2012-08-22T13:10:47Z</time>
      </trkpt>
      <trkpt lat="46.91808" lon="4.69427">
        <ele>369</ele>
        <time>2012-08-22T13:10:48Z</time>
      </trkpt>
      <trkpt lat="46.91801" lon="4.69414">
        <ele>368</ele>
        <time>2012-08-22T13:10:49Z</time>
      </trkpt>
      <trkpt lat="46.91794" lon="4.694">
        <ele>368</ele>
        <time>2012-08-22T13:10:50Z</time>
      </trkpt>
      <trkpt lat="46.91788" lon="4.69385">
        <ele>370</ele>
        <time>2012-08-22T13:10:51Z</time>
      </trkpt>
      <trkpt lat="46.91782" lon="4.69367">
        <ele>370</ele>
        <time>2012-08-22T13:10:52Z</time>
      </trkpt>
      <trkpt lat="46.91775" lon="4.69348">
        <ele>370</ele>
        <time>2012-08-22T13:10:53Z</time>
      </trkpt>
      <trkpt lat="46.9177" lon="4.69328">
        <ele>369</ele>
        <time>2012-08-22T13:10:54Z</time>
      </trkpt>
      <trkpt lat="46.91766" lon="4.69309">
        <ele>368</ele>
        <time>2012-08-22T13:10:55Z</time>
      </trkpt>
      <trkpt lat="46.91762" lon="4.69292">
        <ele>367</ele>
        <time>2012-08-22T13:10:56Z</time>
      </trkpt>
      <trkpt lat="46.91759" lon="4.69274">
        <ele>367</ele>
        <time>2012-08-22T13:10:57Z</time>
      </trkpt>
      <trkpt lat="46.91755" lon="4.69255">
        <ele>366</ele>
        <time>2012-08-22T13:10:58Z</time>
      </trkpt>
      <trkpt lat="46.91751" lon="4.69234">
        <ele>366</ele>
        <time>2012-08-22T13:10:59Z</time>
      </trkpt>
      <trkpt lat="46.91747" lon="4.69214">
        <ele>365</ele>
        <time>2012-08-22T13:11:00Z</time>
      </trkpt>
      <trkpt lat="46.91743" lon="4.69194">
        <ele>363</ele>
        <time>2012-08-22T13:11:01Z</time>
      </trkpt>
      <trkpt lat="46.91738" lon="4.69176">
        <ele>362</ele>
        <time>2012-08-22T13:11:02Z</time>
      </trkpt>
      <trkpt lat="46.91734" lon="4.69158">
        <ele>361</ele>
        <time>2012-08-22T13:11:03Z</time>
      </trkpt>
      <trkpt lat="46.91729" lon="4.69141">
        <ele>360</ele>
        <time>2012-08-22T13:11:04Z</time>
      </trkpt>
      <trkpt lat="46.91723" lon="4.69124">
        <ele>360</ele>
        <time>2012-08-22T13:11:05Z</time>
      </trkpt>
      <trkpt lat="46.91718" lon="4.69107">
        <ele>360</ele>
        <time>2012-08-22T13:11:06Z</time>
      </trkpt>
      <trkpt lat="46.91712" lon="4.6909">
        <ele>360</ele>
        <time>2012-08-22T13:11:07Z</time>
      </trkpt>
      <trkpt lat="46.91707" lon="4.69074">
        <ele>360</ele>
        <time>2012-08-22T13:11:08Z</time>
      </trkpt>
      <trkpt lat="46.91702" lon="4.69057">
        <ele>361</ele>
        <time>2012-08-22T13:11:09Z</time>
      </trkpt>
      <trkpt lat="46.91697" lon="4.69042">
        <ele>359</ele>
        <time>2012-08-22T13:11:10Z</time>
      </trkpt>
      <trkpt lat="46.91691" lon="4.69028">
        <ele>358</ele>
        <time>2012-08-22T13:11:11Z</time>
      </trkpt>
      <trkpt lat="46.91684" lon="4.69013">
        <ele>357</ele>
        <time>2012-08-22T13:11:12Z</time>
      </trkpt>
      <trkpt lat="46.91676" lon="4.68999">
        <ele>356</ele>
        <time>2012-08-22T13:11:13Z</time>
      </trkpt>
      <trkpt lat="46.91669" lon="4.68986">
        <ele>355</ele>
        <time>2012-08-22T13:11:14Z</time>
      </trkpt>
      <trkpt lat="46.91662" lon="4.68973">
        <ele>353</ele>
        <time>2012-08-22T13:11:15Z</time>
      </trkpt>
      <trkpt lat="46.91656" lon="4.68958">
        <ele>353</ele>
        <time>2012-08-22T13:11:16Z</time>
      </trkpt>
      <trkpt lat="46.9165" lon="4.68942">
        <ele>353</ele>
        <time>2012-08-22T13:11:17Z</time>
      </trkpt>
      <trkpt lat="46.91646" lon="4.68925">
        <ele>353</ele>
        <time>2012-08-22T13:11:18Z</time>
      </trkpt>
      <trkpt lat="46.91641" lon="4.68909">
        <ele>353</ele>
        <time>2012-08-22T13:11:19Z</time>
      </trkpt>
      <trkpt lat="46.91636" lon="4.68892">
        <ele>353</ele>
        <time>2012-08-22T13:11:20Z</time>
      </trkpt>
      <trkpt lat="46.91632" lon="4.68877">
        <ele>353</ele>
        <time>2012-08-22T13:11:21Z</time>
      </trkpt>
      <trkpt lat="46.91627" lon="4.68862">
        <ele>352</ele>
        <time>2012-08-22T13:11:22Z</time>
      </trkpt>
      <trkpt lat="46.91622" lon="4.68847">
        <ele>351</ele>
        <time>2012-08-22T13:11:23Z</time>
      </trkpt>
      <trkpt lat="46.91617" lon="4.68833">
        <ele>350</ele>
        <time>2012-08-22T13:11:24Z</time>
      </trkpt>
      <trkpt lat="46.9161" lon="4.68818">
        <ele>348</ele>
        <time>2012-08-22T13:11:25Z</time>
      </trkpt>
      <trkpt lat="46.91604" lon="4.68803">
        <ele>349</ele>
        <time>2012-08-22T13:11:26Z</time>
      </trkpt>
      <trkpt lat="46.91597" lon="4.68787">
        <ele>348</ele>
        <time>2012-08-22T13:11:27Z</time>
      </trkpt>
      <trkpt lat="46.91591" lon="4.68771">
        <ele>348</ele>
        <time>2012-08-22T13:11:28Z</time>
      </trkpt>
      <trkpt lat="46.91584" lon="4.68754">
        <ele>347</ele>
        <time>2012-08-22T13:11:29Z</time>
      </trkpt>
      <trkpt lat="46.91579" lon="4.68737">
        <ele>347</ele>
        <time>2012-08-22T13:11:30Z</time>
      </trkpt>
      <trkpt lat="46.91573" lon="4.68719">
        <ele>345</ele>
        <time>2012-08-22T13:11:31Z</time>
      </trkpt>
      <trkpt lat="46.91568" lon="4.68702">
        <ele>342</ele>
        <time>2012-08-22T13:11:32Z</time>
      </trkpt>
      <trkpt lat="46.91564" lon="4.68685">
        <ele>341</ele>
        <time>2012-08-22T13:11:33Z</time>
      </trkpt>
      <trkpt lat="46.91559" lon="4.68668">
        <ele>341</ele>
        <time>2012-08-22T13:11:34Z</time>
      </trkpt>
      <trkpt lat="46.91554" lon="4.6865">
        <ele>340</ele>
        <time>2012-08-22T13:11:35Z</time>
      </trkpt>
      <trkpt lat="46.91549" lon="4.68633">
        <ele>341</ele>
        <time>2012-08-22T13:11:36Z</time>
      </trkpt>
      <trkpt lat="46.91544" lon="4.68618">
        <ele>339</ele>
        <time>2012-08-22T13:11:37Z</time>
      </trkpt>
      <trkpt lat="46.91538" lon="4.68603">
        <ele>335</ele>
        <time>2012-08-22T13:11:38Z</time>
      </trkpt>
      <trkpt lat="46.91532" lon="4.68588">
        <ele>333</ele>
        <time>2012-08-22T13:11:39Z</time>
      </trkpt>
      <trkpt lat="46.91527" lon="4.68572">
        <ele>330</ele>
        <time>2012-08-22T13:11:40Z</time>
      </trkpt>
      <trkpt lat="46.91522" lon="4.68556">
        <ele>327</ele>
        <time>2012-08-22T13:11:41Z</time>
      </trkpt>
      <trkpt lat="46.91518" lon="4.68539">
        <ele>323</ele>
        <time>2012-08-22T13:11:42Z</time>
      </trkpt>
      <trkpt lat="46.91514" lon="4.68521">
        <ele>322</ele>
        <time>2012-08-22T13:11:43Z</time>
      </trkpt>
      <trkpt lat="46.91513" lon="4.68503">
        <ele>321</ele>
        <time>2012-08-22T13:11:44Z</time>
      </trkpt>
      <trkpt lat="46.91513" lon="4.68486">
        <ele>319</ele>
        <time>2012-08-22T13:11:45Z</time>
      </trkpt>
      <trkpt lat="46.91517" lon="4.68469">
        <ele>319</ele>
        <time>2012-08-22T13:11:46Z</time>
      </trkpt>
      <trkpt lat="46.91521" lon="4.68451">
        <ele>321</ele>
        <time>2012-08-22T13:11:47Z</time>
      </trkpt>
      <trkpt lat="46.91526" lon="4.68433">
        <ele>321</ele>
        <time>2012-08-22T13:11:48Z</time>
      </trkpt>
      <trkpt lat="46.91531" lon="4.68416">
        <ele>321</ele>
        <time>2012-08-22T13:11:49Z</time>
      </trkpt>
      <trkpt lat="46.91536" lon="4.68399">
        <ele>319</ele>
        <time>2012-08-22T13:11:50Z</time>
      </trkpt>
      <trkpt lat="46.9154" lon="4.68384">
        <ele>316</ele>
        <time>2012-08-22T13:11:51Z</time>
      </trkpt>
      <trkpt lat="46.91545" lon="4.68371">
        <ele>315</ele>
        <time>2012-08-22T13:11:52Z</time>
      </trkpt>
      <trkpt lat="46.91551" lon="4.68359">
        <ele>313</ele>
        <time>2012-08-22T13:11:53Z</time>
      </trkpt>
      <trkpt lat="46.91558" lon="4.68348">
        <ele>311</ele>
        <time>2012-08-22T13:11:54Z</time>
      </trkpt>
      <trkpt lat="46.91564" lon="4.68339">
        <ele>309</ele>
        <time>2012-08-22T13:11:55Z</time>
      </trkpt>
      <trkpt lat="46.91572" lon="4.68333">
        <ele>309</ele>
        <time>2012-08-22T13:11:56Z</time>
      </trkpt>
      <trkpt lat="46.9158" lon="4.68329">
        <ele>310</ele>
        <time>2012-08-22T13:11:57Z</time>
      </trkpt>
      <trkpt lat="46.91589" lon="4.68325">
        <ele>312</ele>
        <time>2012-08-22T13:11:58Z</time>
      </trkpt>
      <trkpt lat="46.91598" lon="4.68322">
        <ele>313</ele>
        <time>2012-08-22T13:11:59Z</time>
      </trkpt>
      <trkpt lat="46.91608" lon="4.68319">
        <ele>315</ele>
        <time>2012-08-22T13:12:00Z</time>
      </trkpt>
      <trkpt lat="46.91617" lon="4.68316">
        <ele>324</ele>
        <time>2012-08-22T13:12:01Z</time>
      </trkpt>
      <trkpt lat="46.91627" lon="4.68311">
        <ele>329</ele>
        <time>2012-08-22T13:12:02Z</time>
      </trkpt>
      <trkpt lat="46.91638" lon="4.68304">
        <ele>331</ele>
        <time>2012-08-22T13:12:03Z</time>
      </trkpt>
      <trkpt lat="46.91647" lon="4.68294">
        <ele>333</ele>
        <time>2012-08-22T13:12:04Z</time>
      </trkpt>
      <trkpt lat="46.91658" lon="4.68283">
        <ele>339</ele>
        <time>2012-08-22T13:12:05Z</time>
      </trkpt>
      <trkpt lat="46.91668" lon="4.68271">
        <ele>341</ele>
        <time>2012-08-22T13:12:06Z</time>
      </trkpt>
      <trkpt lat="46.91678" lon="4.68257">
        <ele>344</ele>
        <time>2012-08-22T13:12:07Z</time>
      </trkpt>
      <trkpt lat="46.91688" lon="4.68243">
        <ele>345</ele>
        <time>2012-08-22T13:12:08Z</time>
      </trkpt>
      <trkpt lat="46.91698" lon="4.68228">
        <ele>345</ele>
        <time>2012-08-22T13:12:09Z</time>
      </trkpt>
      <trkpt lat="46.91707" lon="4.68214">
        <ele>344</ele>
        <time>2012-08-22T13:12:10Z</time>
      </trkpt>
      <trkpt lat="46.91716" lon="4.682">
        <ele>343</ele>
        <time>2012-08-22T13:12:11Z</time>
      </trkpt>
      <trkpt lat="46.91726" lon="4.68186">
        <ele>342</ele>
        <time>2012-08-22T13:12:12Z</time>
      </trkpt>
      <trkpt lat="46.91736" lon="4.68173">
        <ele>343</ele>
        <time>2012-08-22T13:12:13Z</time>
      </trkpt>
      <trkpt lat="46.91746" lon="4.68158">
        <ele>343</ele>
        <time>2012-08-22T13:12:14Z</time>
      </trkpt>
      <trkpt lat="46.91756" lon="4.68143">
        <ele>343</ele>
        <time>2012-08-22T13:12:15Z</time>
      </trkpt>
      <trkpt lat="46.91766" lon="4.68126">
        <ele>343</ele>
        <time>2012-08-22T13:12:16Z</time>
      </trkpt>
      <trkpt lat="46.91775" lon="4.68109">
        <ele>343</ele>
        <time>2012-08-22T13:12:17Z</time>
      </trkpt>
      <trkpt lat="46.91785" lon="4.68094">
        <ele>341</ele>
        <time>2012-08-22T13:12:18Z</time>
      </trkpt>
      <trkpt lat="46.91794" lon="4.68078">
        <ele>340</ele>
        <time>2012-08-22T13:12:19Z</time>
      </trkpt>
      <trkpt lat="46.91803" lon="4.68062">
        <ele>341</ele>
        <time>2012-08-22T13:12:20Z</time>
      </trkpt>
      <trkpt lat="46.91813" lon="4.68047">
        <ele>342</ele>
        <time>2012-08-22T13:12:21Z</time>
      </trkpt>
      <trkpt lat="46.91823" lon="4.68031">
        <ele>342</ele>
        <time>2012-08-22T13:12:22Z</time>
      </trkpt>
      <trkpt lat="46.91833" lon="4.68015">
        <ele>345</ele>
        <time>2012-08-22T13:12:23Z</time>
      </trkpt>
      <trkpt lat="46.91843" lon="4.68">
        <ele>345</ele>
        <time>2012-08-22T13:12:24Z</time>
      </trkpt>
      <trkpt lat="46.91853" lon="4.67984">
        <ele>346</ele>
        <time>2012-08-22T13:12:25Z</time>
      </trkpt>
      <trkpt lat="46.91864" lon="4.67969">
        <ele>347</ele>
        <time>2012-08-22T13:12:26Z</time>
      </trkpt>
      <trkpt lat="46.91874" lon="4.67954">
        <ele>349</ele>
        <time>2012-08-22T13:12:27Z</time>
      </trkpt>
      <trkpt lat="46.91883" lon="4.6794">
        <ele>349</ele>
        <time>2012-08-22T13:12:28Z</time>
      </trkpt>
      <trkpt lat="46.91892" lon="4.67928">
        <ele>349</ele>
        <time>2012-08-22T13:12:29Z</time>
      </trkpt>
      <trkpt lat="46.919" lon="4.67916">
        <ele>350</ele>
        <time>2012-08-22T13:12:30Z</time>
      </trkpt>
      <trkpt lat="46.91908" lon="4.67904">
        <ele>349</ele>
        <time>2012-08-22T13:12:31Z</time>
      </trkpt>
      <trkpt lat="46.91915" lon="4.67894">
        <ele>349</ele>
        <time>2012-08-22T13:12:32Z</time>
      </trkpt>
      <trkpt lat="46.9192" lon="4.67885">
        <ele>348</ele>
        <time>2012-08-22T13:12:33Z</time>
      </trkpt>
      <trkpt lat="46.91924" lon="4.67877">
        <ele>349</ele>
        <time>2012-08-22T13:12:34Z</time>
      </trkpt>
      <trkpt lat="46.91929" lon="4.6787">
        <ele>350</ele>
        <time>2012-08-22T13:12:35Z</time>
      </trkpt>
      <trkpt lat="46.91933" lon="4.67864">
        <ele>353</ele>
        <time>2012-08-22T13:12:36Z</time>
      </trkpt>
      <trkpt lat="46.91938" lon="4.67858">
        <ele>354</ele>
        <time>2012-08-22T13:12:37Z</time>
      </trkpt>
      <trkpt lat="46.91943" lon="4.67849">
        <ele>352</ele>
        <time>2012-08-22T13:12:38Z</time>
      </trkpt>
      <trkpt lat="46.91949" lon="4.6784">
        <ele>351</ele>
        <time>2012-08-22T13:12:39Z</time>
      </trkpt>
      <trkpt lat="46.91955" lon="4.67831">
        <ele>348</ele>
        <time>2012-08-22T13:12:40Z</time>
      </trkpt>
      <trkpt lat="46.9196" lon="4.67823">
        <ele>347</ele>
        <time>2012-08-22T13:12:41Z</time>
      </trkpt>
      <trkpt lat="46.91964" lon="4.67816">
        <ele>347</ele>
        <time>2012-08-22T13:12:42Z</time>
      </trkpt>
      <trkpt lat="46.91968" lon="4.6781">
        <ele>344</ele>
        <time>2012-08-22T13:12:44Z</time>
      </trkpt>
      <trkpt lat="46.91971" lon="4.67805">
        <ele>350</ele>
        <time>2012-08-22T13:12:47Z</time>
      </trkpt>
      <trkpt lat="46.91973" lon="4.67799">
        <ele>350</ele>
        <time>2012-08-22T13:12:49Z</time>
      </trkpt>
      <trkpt lat="46.91973" lon="4.67792">
        <ele>348</ele>
        <time>2012-08-22T13:12:51Z</time>
      </trkpt>
      <trkpt lat="46.9197" lon="4.67785">
        <ele>342</ele>
        <time>2012-08-22T13:12:53Z</time>
      </trkpt>
      <trkpt lat="46.91966" lon="4.6778">
        <ele>341</ele>
        <time>2012-08-22T13:12:56Z</time>
      </trkpt>
      <trkpt lat="46.91962" lon="4.67776">
        <ele>339</ele>
        <time>2012-08-22T13:12:58Z</time>
      </trkpt>
      <trkpt lat="46.91956" lon="4.67771">
        <ele>337</ele>
        <time>2012-08-22T13:13:00Z</time>
      </trkpt>
      <trkpt lat="46.91949" lon="4.67764">
        <ele>338</ele>
        <time>2012-08-22T13:13:02Z</time>
      </trkpt>
      <trkpt lat="46.91944" lon="4.6776">
        <ele>339</ele>
        <time>2012-08-22T13:13:03Z</time>
      </trkpt>
      <trkpt lat="46.9194" lon="4.67755">
        <ele>339</ele>
        <time>2012-08-22T13:13:04Z</time>
      </trkpt>
      <trkpt lat="46.91936" lon="4.67751">
        <ele>339</ele>
        <time>2012-08-22T13:13:05Z</time>
      </trkpt>
      <trkpt lat="46.91932" lon="4.67747">
        <ele>338</ele>
        <time>2012-08-22T13:13:06Z</time>
      </trkpt>
      <trkpt lat="46.91928" lon="4.67743">
        <ele>340</ele>
        <time>2012-08-22T13:13:07Z</time>
      </trkpt>
      <trkpt lat="46.91919" lon="4.67741">
        <ele>345</ele>
        <time>2012-08-22T13:13:09Z</time>
      </trkpt>
      <trkpt lat="46.91915" lon="4.67743">
        <ele>348</ele>
        <time>2012-08-22T13:13:10Z</time>
      </trkpt>
      <trkpt lat="46.91906" lon="4.67746">
        <ele>349</ele>
        <time>2012-08-22T13:13:12Z</time>
      </trkpt>
      <trkpt lat="46.91902" lon="4.67748">
        <ele>348</ele>
        <time>2012-08-22T13:13:13Z</time>
      </trkpt>
      <trkpt lat="46.91897" lon="4.67751">
        <ele>353</ele>
        <time>2012-08-22T13:13:14Z</time>
      </trkpt>
      <trkpt lat="46.91892" lon="4.67755">
        <ele>355</ele>
        <time>2012-08-22T13:13:15Z</time>
      </trkpt>
      <trkpt lat="46.91888" lon="4.67758">
        <ele>356</ele>
        <time>2012-08-22T13:13:16Z</time>
      </trkpt>
      <trkpt lat="46.91883" lon="4.67761">
        <ele>355</ele>
        <time>2012-08-22T13:13:17Z</time>
      </trkpt>
      <trkpt lat="46.91878" lon="4.67764">
        <ele>350</ele>
        <time>2012-08-22T13:13:18Z</time>
      </trkpt>
      <trkpt lat="46.91874" lon="4.67767">
        <ele>352</ele>
        <time>2012-08-22T13:13:19Z</time>
      </trkpt>
      <trkpt lat="46.9187" lon="4.6777">
        <ele>357</ele>
        <time>2012-08-22T13:13:20Z</time>
      </trkpt>
      <trkpt lat="46.91865" lon="4.67773">
        <ele>358</ele>
        <time>2012-08-22T13:13:21Z</time>
      </trkpt>
      <trkpt lat="46.9186" lon="4.67778">
        <ele>356</ele>
        <time>2012-08-22T13:13:22Z</time>
      </trkpt>
      <trkpt lat="46.91855" lon="4.67783">
        <ele>355</ele>
        <time>2012-08-22T13:13:23Z</time>
      </trkpt>
      <trkpt lat="46.9185" lon="4.67788">
        <ele>355</ele>
        <time>2012-08-22T13:13:24Z</time>
      </trkpt>
      <trkpt lat="46.91845" lon="4.67794">
        <ele>354</ele>
        <time>2012-08-22T13:13:25Z</time>
      </trkpt>
      <trkpt lat="46.91839" lon="4.678">
        <ele>353</ele>
        <time>2012-08-22T13:13:26Z</time>
      </trkpt>
      <trkpt lat="46.91835" lon="4.67805">
        <ele>354</ele>
        <time>2012-08-22T13:13:27Z</time>
      </trkpt>
      <trkpt lat="46.91831" lon="4.67809">
        <ele>355</ele>
        <time>2012-08-22T13:13:28Z</time>
      </trkpt>
      <trkpt lat="46.91826" lon="4.67814">
        <ele>353</ele>
        <time>2012-08-22T13:13:29Z</time>
      </trkpt>
      <trkpt lat="46.91822" lon="4.67819">
        <ele>355</ele>
        <time>2012-08-22T13:13:30Z</time>
      </trkpt>
      <trkpt lat="46.91816" lon="4.67823">
        <ele>352</ele>
        <time>2012-08-22T13:13:31Z</time>
      </trkpt>
      <trkpt lat="46.91811" lon="4.67827">
        <ele>349</ele>
        <time>2012-08-22T13:13:32Z</time>
      </trkpt>
      <trkpt lat="46.91803" lon="4.67833">
        <ele>347</ele>
        <time>2012-08-22T13:13:34Z</time>
      </trkpt>
      <trkpt lat="46.91798" lon="4.67837">
        <ele>350</ele>
        <time>2012-08-22T13:13:35Z</time>
      </trkpt>
      <trkpt lat="46.91792" lon="4.67841">
        <ele>347</ele>
        <time>2012-08-22T13:13:36Z</time>
      </trkpt>
      <trkpt lat="46.91787" lon="4.67845">
        <ele>348</ele>
        <time>2012-08-22T13:13:37Z</time>
      </trkpt>
      <trkpt lat="46.91781" lon="4.6785">
        <ele>348</ele>
        <time>2012-08-22T13:13:38Z</time>
      </trkpt>
      <trkpt lat="46.91776" lon="4.67854">
        <ele>346</ele>
        <time>2012-08-22T13:13:39Z</time>
      </trkpt>
      <trkpt lat="46.91771" lon="4.67858">
        <ele>343</ele>
        <time>2012-08-22T13:13:40Z</time>
      </trkpt>
      <trkpt lat="46.91767" lon="4.67862">
        <ele>344</ele>
        <time>2012-08-22T13:13:41Z</time>
      </trkpt>
      <trkpt lat="46.91759" lon="4.67868">
        <ele>344</ele>
        <time>2012-08-22T13:13:43Z</time>
      </trkpt>
      <trkpt lat="46.91755" lon="4.67873">
        <ele>345</ele>
        <time>2012-08-22T13:13:44Z</time>
      </trkpt>
      <trkpt lat="46.9175" lon="4.67877">
        <ele>346</ele>
        <time>2012-08-22T13:13:45Z</time>
      </trkpt>
      <trkpt lat="46.91744" lon="4.67883">
        <ele>344</ele>
        <time>2012-08-22T13:13:46Z</time>
      </trkpt>
      <trkpt lat="46.91736" lon="4.6789">
        <ele>340</ele>
        <time>2012-08-22T13:13:47Z</time>
      </trkpt>
      <trkpt lat="46.91728" lon="4.67898">
        <ele>337</ele>
        <time>2012-08-22T13:13:48Z</time>
      </trkpt>
      <trkpt lat="46.9172" lon="4.67906">
        <ele>335</ele>
        <time>2012-08-22T13:13:49Z</time>
      </trkpt>
      <trkpt lat="46.91711" lon="4.67914">
        <ele>334</ele>
        <time>2012-08-22T13:13:50Z</time>
      </trkpt>
      <trkpt lat="46.91702" lon="4.67922">
        <ele>334</ele>
        <time>2012-08-22T13:13:51Z</time>
      </trkpt>
      <trkpt lat="46.91694" lon="4.67927">
        <ele>333</ele>
        <time>2012-08-22T13:13:52Z</time>
      </trkpt>
      <trkpt lat="46.91687" lon="4.67931">
        <ele>333</ele>
        <time>2012-08-22T13:13:53Z</time>
      </trkpt>
      <trkpt lat="46.91681" lon="4.67935">
        <ele>330</ele>
        <time>2012-08-22T13:13:54Z</time>
      </trkpt>
      <trkpt lat="46.91674" lon="4.67936">
        <ele>329</ele>
        <time>2012-08-22T13:13:55Z</time>
      </trkpt>
      <trkpt lat="46.91667" lon="4.67937">
        <ele>328</ele>
        <time>2012-08-22T13:13:56Z</time>
      </trkpt>
      <trkpt lat="46.9166" lon="4.67939">
        <ele>330</ele>
        <time>2012-08-22T13:13:57Z</time>
      </trkpt>
      <trkpt lat="46.91652" lon="4.6794">
        <ele>335</ele>
        <time>2012-08-22T13:13:58Z</time>
      </trkpt>
      <trkpt lat="46.91644" lon="4.6794">
        <ele>334</ele>
        <time>2012-08-22T13:13:59Z</time>
      </trkpt>
      <trkpt lat="46.91637" lon="4.6794">
        <ele>335</ele>
        <time>2012-08-22T13:14:00Z</time>
      </trkpt>
      <trkpt lat="46.9163" lon="4.6794">
        <ele>337</ele>
        <time>2012-08-22T13:14:01Z</time>
      </trkpt>
      <trkpt lat="46.91624" lon="4.6794">
        <ele>339</ele>
        <time>2012-08-22T13:14:02Z</time>
      </trkpt>
      <trkpt lat="46.91617" lon="4.6794">
        <ele>343</ele>
        <time>2012-08-22T13:14:03Z</time>
      </trkpt>
      <trkpt lat="46.91611" lon="4.67939">
        <ele>338</ele>
        <time>2012-08-22T13:14:04Z</time>
      </trkpt>
      <trkpt lat="46.91605" lon="4.67939">
        <ele>337</ele>
        <time>2012-08-22T13:14:05Z</time>
      </trkpt>
      <trkpt lat="46.916" lon="4.67939">
        <ele>338</ele>
        <time>2012-08-22T13:14:06Z</time>
      </trkpt>
      <trkpt lat="46.91595" lon="4.67939">
        <ele>337</ele>
        <time>2012-08-22T13:14:07Z</time>
      </trkpt>
      <trkpt lat="46.91589" lon="4.67939">
        <ele>336</ele>
        <time>2012-08-22T13:14:08Z</time>
      </trkpt>
      <trkpt lat="46.91581" lon="4.67939">
        <ele>335</ele>
        <time>2012-08-22T13:14:09Z</time>
      </trkpt>
      <trkpt lat="46.91572" lon="4.6794">
        <ele>334</ele>
        <time>2012-08-22T13:14:10Z</time>
      </trkpt>
      <trkpt lat="46.91564" lon="4.67941">
        <ele>335</ele>
        <time>2012-08-22T13:14:11Z</time>
      </trkpt>
      <trkpt lat="46.91556" lon="4.67942">
        <ele>330</ele>
        <time>2012-08-22T13:14:12Z</time>
      </trkpt>
      <trkpt lat="46.91546" lon="4.67944">
        <ele>329</ele>
        <time>2012-08-22T13:14:13Z</time>
      </trkpt>
      <trkpt lat="46.91538" lon="4.67947">
        <ele>324</ele>
        <time>2012-08-22T13:14:14Z</time>
      </trkpt>
      <trkpt lat="46.91529" lon="4.6795">
        <ele>322</ele>
        <time>2012-08-22T13:14:15Z</time>
      </trkpt>
      <trkpt lat="46.91519" lon="4.67954">
        <ele>322</ele>
        <time>2012-08-22T13:14:16Z</time>
      </trkpt>
      <trkpt lat="46.91509" lon="4.67959">
        <ele>323</ele>
        <time>2012-08-22T13:14:17Z</time>
      </trkpt>
      <trkpt lat="46.91498" lon="4.67964">
        <ele>322</ele>
        <time>2012-08-22T13:14:18Z</time>
      </trkpt>
      <trkpt lat="46.91488" lon="4.67971">
        <ele>322</ele>
        <time>2012-08-22T13:14:19Z</time>
      </trkpt>
      <trkpt lat="46.91476" lon="4.67978">
        <ele>320</ele>
        <time>2012-08-22T13:14:20Z</time>
      </trkpt>
      <trkpt lat="46.91465" lon="4.67985">
        <ele>316</ele>
        <time>2012-08-22T13:14:21Z</time>
      </trkpt>
      <trkpt lat="46.91455" lon="4.67992">
        <ele>313</ele>
        <time>2012-08-22T13:14:22Z</time>
      </trkpt>
      <trkpt lat="46.91446" lon="4.67998">
        <ele>312</ele>
        <time>2012-08-22T13:14:23Z</time>
      </trkpt>
      <trkpt lat="46.91438" lon="4.68003">
        <ele>311</ele>
        <time>2012-08-22T13:14:24Z</time>
      </trkpt>
      <trkpt lat="46.91431" lon="4.68008">
        <ele>311</ele>
        <time>2012-08-22T13:14:25Z</time>
      </trkpt>
      <trkpt lat="46.91424" lon="4.68012">
        <ele>310</ele>
        <time>2012-08-22T13:14:26Z</time>
      </trkpt>
      <trkpt lat="46.91418" lon="4.68015">
        <ele>312</ele>
        <time>2012-08-22T13:14:27Z</time>
      </trkpt>
      <trkpt lat="46.91413" lon="4.68019">
        <ele>311</ele>
        <time>2012-08-22T13:14:28Z</time>
      </trkpt>
      <trkpt lat="46.91407" lon="4.68023">
        <ele>312</ele>
        <time>2012-08-22T13:14:29Z</time>
      </trkpt>
      <trkpt lat="46.91401" lon="4.68028">
        <ele>311</ele>
        <time>2012-08-22T13:14:30Z</time>
      </trkpt>
      <trkpt lat="46.91396" lon="4.68033">
        <ele>311</ele>
        <time>2012-08-22T13:14:31Z</time>
      </trkpt>
      <trkpt lat="46.91392" lon="4.68037">
        <ele>312</ele>
        <time>2012-08-22T13:14:32Z</time>
      </trkpt>
      <trkpt lat="46.91388" lon="4.68042">
        <ele>310</ele>
        <time>2012-08-22T13:14:34Z</time>
      </trkpt>
      <trkpt lat="46.91382" lon="4.68033">
        <ele>307</ele>
        <time>2012-08-22T13:14:39Z</time>
      </trkpt>
      <trkpt lat="46.91379" lon="4.68027">
        <ele>303</ele>
        <time>2012-08-22T13:14:40Z</time>
      </trkpt>
      <trkpt lat="46.91376" lon="4.68018">
        <ele>302</ele>
        <time>2012-08-22T13:14:41Z</time>
      </trkpt>
      <trkpt lat="46.91371" lon="4.68008">
        <ele>302</ele>
        <time>2012-08-22T13:14:42Z</time>
      </trkpt>
      <trkpt lat="46.91366" lon="4.67996">
        <ele>302</ele>
        <time>2012-08-22T13:14:43Z</time>
      </trkpt>
      <trkpt lat="46.91361" lon="4.67984">
        <ele>302</ele>
        <time>2012-08-22T13:14:44Z</time>
      </trkpt>
      <trkpt lat="46.91356" lon="4.67974">
        <ele>301</ele>
        <time>2012-08-22T13:14:45Z</time>
      </trkpt>
      <trkpt lat="46.91352" lon="4.67963">
        <ele>301</ele>
        <time>2012-08-22T13:14:46Z</time>
      </trkpt>
      <trkpt lat="46.91348" lon="4.67953">
        <ele>303</ele>
        <time>2012-08-22T13:14:47Z</time>
      </trkpt>
      <trkpt lat="46.91344" lon="4.67944">
        <ele>304</ele>
        <time>2012-08-22T13:14:48Z</time>
      </trkpt>
      <trkpt lat="46.91339" lon="4.67934">
        <ele>303</ele>
        <time>2012-08-22T13:14:49Z</time>
      </trkpt>
      <trkpt lat="46.91335" lon="4.67924">
        <ele>301</ele>
        <time>2012-08-22T13:14:50Z</time>
      </trkpt>
      <trkpt lat="46.91331" lon="4.67914">
        <ele>300</ele>
        <time>2012-08-22T13:14:51Z</time>
      </trkpt>
      <trkpt lat="46.91326" lon="4.67904">
        <ele>301</ele>
        <time>2012-08-22T13:14:52Z</time>
      </trkpt>
      <trkpt lat="46.91322" lon="4.67892">
        <ele>301</ele>
        <time>2012-08-22T13:14:53Z</time>
      </trkpt>
      <trkpt lat="46.91317" lon="4.67878">
        <ele>303</ele>
        <time>2012-08-22T13:14:54Z</time>
      </trkpt>
      <trkpt lat="46.91313" lon="4.67864">
        <ele>304</ele>
        <time>2012-08-22T13:14:55Z</time>
      </trkpt>
      <trkpt lat="46.91309" lon="4.67854">
        <ele>304</ele>
        <time>2012-08-22T13:14:56Z</time>
      </trkpt>
      <trkpt lat="46.91306" lon="4.67844">
        <ele>305</ele>
        <time>2012-08-22T13:14:57Z</time>
      </trkpt>
      <trkpt lat="46.91303" lon="4.67837">
        <ele>305</ele>
        <time>2012-08-22T13:14:58Z</time>
      </trkpt>
      <trkpt lat="46.913" lon="4.67831">
        <ele>305</ele>
        <time>2012-08-22T13:14:59Z</time>
      </trkpt>
      <trkpt lat="46.91294" lon="4.67822">
        <ele>305</ele>
        <time>2012-08-22T13:15:01Z</time>
      </trkpt>
      <trkpt lat="46.91292" lon="4.67814">
        <ele>304</ele>
        <time>2012-08-22T13:15:03Z</time>
      </trkpt>
      <trkpt lat="46.91291" lon="4.67804">
        <ele>300</ele>
        <time>2012-08-22T13:15:05Z</time>
      </trkpt>
      <trkpt lat="46.91294" lon="4.67793">
        <ele>295</ele>
        <time>2012-08-22T13:15:07Z</time>
      </trkpt>
      <trkpt lat="46.91298" lon="4.67781">
        <ele>293</ele>
        <time>2012-08-22T13:15:09Z</time>
      </trkpt>
      <trkpt lat="46.913" lon="4.67775">
        <ele>294</ele>
        <time>2012-08-22T13:15:10Z</time>
      </trkpt>
      <trkpt lat="46.91303" lon="4.67769">
        <ele>294</ele>
        <time>2012-08-22T13:15:11Z</time>
      </trkpt>
      <trkpt lat="46.91306" lon="4.67763">
        <ele>292</ele>
        <time>2012-08-22T13:15:12Z</time>
      </trkpt>
      <trkpt lat="46.9131" lon="4.67757">
        <ele>296</ele>
        <time>2012-08-22T13:15:13Z</time>
      </trkpt>
      <trkpt lat="46.91313" lon="4.67752">
        <ele>296</ele>
        <time>2012-08-22T13:15:14Z</time>
      </trkpt>
      <trkpt lat="46.91316" lon="4.67746">
        <ele>296</ele>
        <time>2012-08-22T13:15:15Z</time>
      </trkpt>
      <trkpt lat="46.91318" lon="4.67739">
        <ele>299</ele>
        <time>2012-08-22T13:15:16Z</time>
      </trkpt>
      <trkpt lat="46.91319" lon="4.67733">
        <ele>306</ele>
        <time>2012-08-22T13:15:17Z</time>
      </trkpt>
      <trkpt lat="46.9132" lon="4.67726">
        <ele>309</ele>
        <time>2012-08-22T13:15:18Z</time>
      </trkpt>
      <trkpt lat="46.91321" lon="4.6772">
        <ele>308</ele>
        <time>2012-08-22T13:15:19Z</time>
      </trkpt>
      <trkpt lat="46.91323" lon="4.67712">
        <ele>316</ele>
        <time>2012-08-22T13:15:20Z</time>
      </trkpt>
      <trkpt lat="46.91324" lon="4.677">
        <ele>318</ele>
        <time>2012-08-22T13:15:22Z</time>
      </trkpt>
      <trkpt lat="46.91325" lon="4.67689">
        <ele>322</ele>
        <time>2012-08-22T13:15:24Z</time>
      </trkpt>
      <trkpt lat="46.91327" lon="4.67679">
        <ele>336</ele>
        <time>2012-08-22T13:15:26Z</time>
      </trkpt>
      <trkpt lat="46.91329" lon="4.67673">
        <ele>334</ele>
        <time>2012-08-22T13:15:27Z</time>
      </trkpt>
      <trkpt lat="46.91333" lon="4.67667">
        <ele>336</ele>
        <time>2012-08-22T13:15:28Z</time>
      </trkpt>
      <trkpt lat="46.91336" lon="4.67663">
        <ele>337</ele>
        <time>2012-08-22T13:15:29Z</time>
      </trkpt>
      <trkpt lat="46.91344" lon="4.67656">
        <ele>337</ele>
        <time>2012-08-22T13:15:31Z</time>
      </trkpt>
      <trkpt lat="46.91351" lon="4.67652">
        <ele>336</ele>
        <time>2012-08-22T13:15:33Z</time>
      </trkpt>
      <trkpt lat="46.91357" lon="4.67653">
        <ele>340</ele>
        <time>2012-08-22T13:15:35Z</time>
      </trkpt>
      <trkpt lat="46.91364" lon="4.67656">
        <ele>345</ele>
        <time>2012-08-22T13:15:37Z</time>
      </trkpt>
      <trkpt lat="46.91368" lon="4.67661">
        <ele>344</ele>
        <time>2012-08-22T13:15:38Z</time>
      </trkpt>
      <trkpt lat="46.91372" lon="4.67665">
        <ele>342</ele>
        <time>2012-08-22T13:15:39Z</time>
      </trkpt>
      <trkpt lat="46.91376" lon="4.67671">
        <ele>344</ele>
        <time>2012-08-22T13:15:40Z</time>
      </trkpt>
      <trkpt lat="46.9138" lon="4.67677">
        <ele>345</ele>
        <time>2012-08-22T13:15:41Z</time>
      </trkpt>
      <trkpt lat="46.91385" lon="4.67681">
        <ele>346</ele>
        <time>2012-08-22T13:15:42Z</time>
      </trkpt>
      <trkpt lat="46.91392" lon="4.67685">
        <ele>347</ele>
        <time>2012-08-22T13:15:44Z</time>
      </trkpt>
      <trkpt lat="46.914" lon="4.67686">
        <ele>351</ele>
        <time>2012-08-22T13:15:46Z</time>
      </trkpt>
      <trkpt lat="46.91407" lon="4.67683">
        <ele>351</ele>
        <time>2012-08-22T13:15:48Z</time>
      </trkpt>
      <trkpt lat="46.91415" lon="4.67677">
        <ele>351</ele>
        <time>2012-08-22T13:15:50Z</time>
      </trkpt>
      <trkpt lat="46.91419" lon="4.67674">
        <ele>356</ele>
        <time>2012-08-22T13:15:51Z</time>
      </trkpt>
      <trkpt lat="46.91426" lon="4.67668">
        <ele>360</ele>
        <time>2012-08-22T13:15:53Z</time>
      </trkpt>
      <trkpt lat="46.91426" lon="4.67668">
        <ele>360</ele>
        <time>2012-08-22T13:15:53Z</time>
      </trkpt>
      <trkpt lat="46.91426" lon="4.67668">
        <ele>360</ele>
        <time>2012-08-22T13:15:55Z</time>
      </trkpt>
      <trkpt lat="46.91426" lon="4.67657">
        <ele>384</ele>
        <time>2012-08-22T13:16:34Z</time>
      </trkpt>
      <trkpt lat="46.91424" lon="4.67647">
        <ele>386</ele>
        <time>2012-08-22T13:16:35Z</time>
      </trkpt>
      <trkpt lat="46.91417" lon="4.67645">
        <ele>382</ele>
        <time>2012-08-22T13:16:37Z</time>
      </trkpt>
      <trkpt lat="46.91409" lon="4.6764">
        <ele>385</ele>
        <time>2012-08-22T13:16:39Z</time>
      </trkpt>
      <trkpt lat="46.91404" lon="4.67637">
        <ele>385</ele>
        <time>2012-08-22T13:16:40Z</time>
      </trkpt>
      <trkpt lat="46.914" lon="4.67634">
        <ele>383</ele>
        <time>2012-08-22T13:16:41Z</time>
      </trkpt>
      <trkpt lat="46.91395" lon="4.67629">
        <ele>383</ele>
        <time>2012-08-22T13:16:42Z</time>
      </trkpt>
      <trkpt lat="46.9139" lon="4.67625">
        <ele>382</ele>
        <time>2012-08-22T13:16:43Z</time>
      </trkpt>
      <trkpt lat="46.91384" lon="4.6762">
        <ele>382</ele>
        <time>2012-08-22T13:16:44Z</time>
      </trkpt>
      <trkpt lat="46.91379" lon="4.67615">
        <ele>382</ele>
        <time>2012-08-22T13:16:45Z</time>
      </trkpt>
      <trkpt lat="46.91374" lon="4.67609">
        <ele>380</ele>
        <time>2012-08-22T13:16:46Z</time>
      </trkpt>
      <trkpt lat="46.91368" lon="4.67602">
        <ele>378</ele>
        <time>2012-08-22T13:16:47Z</time>
      </trkpt>
      <trkpt lat="46.91361" lon="4.67595">
        <ele>378</ele>
        <time>2012-08-22T13:16:48Z</time>
      </trkpt>
      <trkpt lat="46.91354" lon="4.67587">
        <ele>376</ele>
        <time>2012-08-22T13:16:49Z</time>
      </trkpt>
      <trkpt lat="46.91346" lon="4.67578">
        <ele>376</ele>
        <time>2012-08-22T13:16:50Z</time>
      </trkpt>
      <trkpt lat="46.9134" lon="4.67571">
        <ele>376</ele>
        <time>2012-08-22T13:16:51Z</time>
      </trkpt>
      <trkpt lat="46.91333" lon="4.67563">
        <ele>376</ele>
        <time>2012-08-22T13:16:52Z</time>
      </trkpt>
      <trkpt lat="46.91328" lon="4.67556">
        <ele>376</ele>
        <time>2012-08-22T13:16:53Z</time>
      </trkpt>
      <trkpt lat="46.91323" lon="4.6755">
        <ele>377</ele>
        <time>2012-08-22T13:16:54Z</time>
      </trkpt>
      <trkpt lat="46.91318" lon="4.67545">
        <ele>378</ele>
        <time>2012-08-22T13:16:55Z</time>
      </trkpt>
      <trkpt lat="46.91314" lon="4.67539">
        <ele>374</ele>
        <time>2012-08-22T13:16:56Z</time>
      </trkpt>
      <trkpt lat="46.91309" lon="4.67534">
        <ele>370</ele>
        <time>2012-08-22T13:16:57Z</time>
      </trkpt>
      <trkpt lat="46.91305" lon="4.67528">
        <ele>366</ele>
        <time>2012-08-22T13:16:58Z</time>
      </trkpt>
      <trkpt lat="46.913" lon="4.67523">
        <ele>364</ele>
        <time>2012-08-22T13:16:59Z</time>
      </trkpt>
      <trkpt lat="46.91294" lon="4.67515">
        <ele>362</ele>
        <time>2012-08-22T13:17:01Z</time>
      </trkpt>
      <trkpt lat="46.91291" lon="4.6751">
        <ele>361</ele>
        <time>2012-08-22T13:17:02Z</time>
      </trkpt>
      <trkpt lat="46.91287" lon="4.67504">
        <ele>361</ele>
        <time>2012-08-22T13:17:03Z</time>
      </trkpt>
      <trkpt lat="46.91282" lon="4.67496">
        <ele>359</ele>
        <time>2012-08-22T13:17:04Z</time>
      </trkpt>
      <trkpt lat="46.91276" lon="4.67488">
        <ele>359</ele>
        <time>2012-08-22T13:17:05Z</time>
      </trkpt>
      <trkpt lat="46.9127" lon="4.6748">
        <ele>357</ele>
        <time>2012-08-22T13:17:06Z</time>
      </trkpt>
      <trkpt lat="46.91264" lon="4.67472">
        <ele>358</ele>
        <time>2012-08-22T13:17:07Z</time>
      </trkpt>
      <trkpt lat="46.91257" lon="4.67465">
        <ele>358</ele>
        <time>2012-08-22T13:17:08Z</time>
      </trkpt>
      <trkpt lat="46.9125" lon="4.67458">
        <ele>358</ele>
        <time>2012-08-22T13:17:09Z</time>
      </trkpt>
      <trkpt lat="46.91244" lon="4.67451">
        <ele>357</ele>
        <time>2012-08-22T13:17:10Z</time>
      </trkpt>
      <trkpt lat="46.91238" lon="4.67444">
        <ele>356</ele>
        <time>2012-08-22T13:17:11Z</time>
      </trkpt>
      <trkpt lat="46.91231" lon="4.67436">
        <ele>356</ele>
        <time>2012-08-22T13:17:12Z</time>
      </trkpt>
      <trkpt lat="46.91224" lon="4.67428">
        <ele>355</ele>
        <time>2012-08-22T13:17:13Z</time>
      </trkpt>
      <trkpt lat="46.91217" lon="4.67421">
        <ele>354</ele>
        <time>2012-08-22T13:17:14Z</time>
      </trkpt>
      <trkpt lat="46.9121" lon="4.67412">
        <ele>351</ele>
        <time>2012-08-22T13:17:15Z</time>
      </trkpt>
      <trkpt lat="46.91203" lon="4.67403">
        <ele>349</ele>
        <time>2012-08-22T13:17:16Z</time>
      </trkpt>
      <trkpt lat="46.91196" lon="4.67395">
        <ele>350</ele>
        <time>2012-08-22T13:17:17Z</time>
      </trkpt>
      <trkpt lat="46.91189" lon="4.67387">
        <ele>349</ele>
        <time>2012-08-22T13:17:18Z</time>
      </trkpt>
      <trkpt lat="46.91181" lon="4.67382">
        <ele>352</ele>
        <time>2012-08-22T13:17:19Z</time>
      </trkpt>
      <trkpt lat="46.91173" lon="4.67376">
        <ele>353</ele>
        <time>2012-08-22T13:17:20Z</time>
      </trkpt>
      <trkpt lat="46.91167" lon="4.67369">
        <ele>353</ele>
        <time>2012-08-22T13:17:21Z</time>
      </trkpt>
      <trkpt lat="46.91162" lon="4.67359">
        <ele>351</ele>
        <time>2012-08-22T13:17:22Z</time>
      </trkpt>
      <trkpt lat="46.91156" lon="4.67347">
        <ele>350</ele>
        <time>2012-08-22T13:17:23Z</time>
      </trkpt>
      <trkpt lat="46.91149" lon="4.67334">
        <ele>350</ele>
        <time>2012-08-22T13:17:24Z</time>
      </trkpt>
      <trkpt lat="46.91141" lon="4.67322">
        <ele>347</ele>
        <time>2012-08-22T13:17:25Z</time>
      </trkpt>
      <trkpt lat="46.91134" lon="4.67311">
        <ele>345</ele>
        <time>2012-08-22T13:17:26Z</time>
      </trkpt>
      <trkpt lat="46.91127" lon="4.673">
        <ele>345</ele>
        <time>2012-08-22T13:17:27Z</time>
      </trkpt>
      <trkpt lat="46.9112" lon="4.67291">
        <ele>343</ele>
        <time>2012-08-22T13:17:28Z</time>
      </trkpt>
      <trkpt lat="46.91114" lon="4.67281">
        <ele>343</ele>
        <time>2012-08-22T13:17:29Z</time>
      </trkpt>
      <trkpt lat="46.91107" lon="4.67272">
        <ele>341</ele>
        <time>2012-08-22T13:17:30Z</time>
      </trkpt>
      <trkpt lat="46.91101" lon="4.67264">
        <ele>341</ele>
        <time>2012-08-22T13:17:31Z</time>
      </trkpt>
      <trkpt lat="46.91095" lon="4.67254">
        <ele>339</ele>
        <time>2012-08-22T13:17:32Z</time>
      </trkpt>
      <trkpt lat="46.91088" lon="4.67245">
        <ele>339</ele>
        <time>2012-08-22T13:17:33Z</time>
      </trkpt>
      <trkpt lat="46.91082" lon="4.67236">
        <ele>339</ele>
        <time>2012-08-22T13:17:34Z</time>
      </trkpt>
      <trkpt lat="46.91076" lon="4.67229">
        <ele>340</ele>
        <time>2012-08-22T13:17:35Z</time>
      </trkpt>
      <trkpt lat="46.91071" lon="4.67223">
        <ele>341</ele>
        <time>2012-08-22T13:17:36Z</time>
      </trkpt>
      <trkpt lat="46.91065" lon="4.67219">
        <ele>344</ele>
        <time>2012-08-22T13:17:37Z</time>
      </trkpt>
      <trkpt lat="46.9106" lon="4.67215">
        <ele>344</ele>
        <time>2012-08-22T13:17:38Z</time>
      </trkpt>
      <trkpt lat="46.91056" lon="4.67209">
        <ele>344</ele>
        <time>2012-08-22T13:17:40Z</time>
      </trkpt>
      <trkpt lat="46.91061" lon="4.67203">
        <ele>345</ele>
        <time>2012-08-22T13:17:43Z</time>
      </trkpt>
      <trkpt lat="46.91066" lon="4.67203">
        <ele>347</ele>
        <time>2012-08-22T13:17:44Z</time>
      </trkpt>
      <trkpt lat="46.91073" lon="4.67202">
        <ele>349</ele>
        <time>2012-08-22T13:17:45Z</time>
      </trkpt>
      <trkpt lat="46.91081" lon="4.672">
        <ele>351</ele>
        <time>2012-08-22T13:17:46Z</time>
      </trkpt>
      <trkpt lat="46.91089" lon="4.67199">
        <ele>349</ele>
        <time>2012-08-22T13:17:47Z</time>
      </trkpt>
      <trkpt lat="46.91098" lon="4.67198">
        <ele>350</ele>
        <time>2012-08-22T13:17:48Z</time>
      </trkpt>
      <trkpt lat="46.91108" lon="4.67198">
        <ele>350</ele>
        <time>2012-08-22T13:17:49Z</time>
      </trkpt>
      <trkpt lat="46.9112" lon="4.67199">
        <ele>350</ele>
        <time>2012-08-22T13:17:50Z</time>
      </trkpt>
      <trkpt lat="46.9113" lon="4.672">
        <ele>351</ele>
        <time>2012-08-22T13:17:51Z</time>
      </trkpt>
      <trkpt lat="46.9114" lon="4.67203">
        <ele>352</ele>
        <time>2012-08-22T13:17:52Z</time>
      </trkpt>
      <trkpt lat="46.91149" lon="4.67206">
        <ele>354</ele>
        <time>2012-08-22T13:17:53Z</time>
      </trkpt>
      <trkpt lat="46.9116" lon="4.6721">
        <ele>354</ele>
        <time>2012-08-22T13:17:54Z</time>
      </trkpt>
      <trkpt lat="46.91172" lon="4.67216">
        <ele>356</ele>
        <time>2012-08-22T13:17:55Z</time>
      </trkpt>
      <trkpt lat="46.91185" lon="4.67222">
        <ele>356</ele>
        <time>2012-08-22T13:17:56Z</time>
      </trkpt>
      <trkpt lat="46.91198" lon="4.67228">
        <ele>355</ele>
        <time>2012-08-22T13:17:57Z</time>
      </trkpt>
      <trkpt lat="46.91209" lon="4.67234">
        <ele>354</ele>
        <time>2012-08-22T13:17:58Z</time>
      </trkpt>
      <trkpt lat="46.91218" lon="4.6724">
        <ele>354</ele>
        <time>2012-08-22T13:17:59Z</time>
      </trkpt>
      <trkpt lat="46.91225" lon="4.67246">
        <ele>354</ele>
        <time>2012-08-22T13:18:00Z</time>
      </trkpt>
      <trkpt lat="46.9123" lon="4.6725">
        <ele>355</ele>
        <time>2012-08-22T13:18:01Z</time>
      </trkpt>
      <trkpt lat="46.91235" lon="4.67251">
        <ele>355</ele>
        <time>2012-08-22T13:18:03Z</time>
      </trkpt>
      <trkpt lat="46.91241" lon="4.67239">
        <ele>358</ele>
        <time>2012-08-22T13:18:05Z</time>
      </trkpt>
      <trkpt lat="46.91245" lon="4.67226">
        <ele>355</ele>
        <time>2012-08-22T13:18:06Z</time>
      </trkpt>
      <trkpt lat="46.91248" lon="4.67212">
        <ele>353</ele>
        <time>2012-08-22T13:18:07Z</time>
      </trkpt>
      <trkpt lat="46.91251" lon="4.67199">
        <ele>351</ele>
        <time>2012-08-22T13:18:08Z</time>
      </trkpt>
      <trkpt lat="46.91254" lon="4.67185">
        <ele>349</ele>
        <time>2012-08-22T13:18:09Z</time>
      </trkpt>
      <trkpt lat="46.91256" lon="4.67172">
        <ele>347</ele>
        <time>2012-08-22T13:18:10Z</time>
      </trkpt>
      <trkpt lat="46.91258" lon="4.67158">
        <ele>347</ele>
        <time>2012-08-22T13:18:11Z</time>
      </trkpt>
      <trkpt lat="46.9126" lon="4.67146">
        <ele>347</ele>
        <time>2012-08-22T13:18:12Z</time>
      </trkpt>
      <trkpt lat="46.91261" lon="4.67133">
        <ele>347</ele>
        <time>2012-08-22T13:18:13Z</time>
      </trkpt>
      <trkpt lat="46.9126" lon="4.6712">
        <ele>346</ele>
        <time>2012-08-22T13:18:14Z</time>
      </trkpt>
      <trkpt lat="46.91259" lon="4.67108">
        <ele>348</ele>
        <time>2012-08-22T13:18:15Z</time>
      </trkpt>
      <trkpt lat="46.91256" lon="4.67095">
        <ele>349</ele>
        <time>2012-08-22T13:18:16Z</time>
      </trkpt>
      <trkpt lat="46.91253" lon="4.6708">
        <ele>348</ele>
        <time>2012-08-22T13:18:17Z</time>
      </trkpt>
      <trkpt lat="46.91248" lon="4.67064">
        <ele>347</ele>
        <time>2012-08-22T13:18:18Z</time>
      </trkpt>
      <trkpt lat="46.91244" lon="4.67047">
        <ele>348</ele>
        <time>2012-08-22T13:18:19Z</time>
      </trkpt>
      <trkpt lat="46.9124" lon="4.67032">
        <ele>351</ele>
        <time>2012-08-22T13:18:20Z</time>
      </trkpt>
      <trkpt lat="46.91237" lon="4.6702">
        <ele>353</ele>
        <time>2012-08-22T13:18:21Z</time>
      </trkpt>
      <trkpt lat="46.91234" lon="4.67011">
        <ele>352</ele>
        <time>2012-08-22T13:18:22Z</time>
      </trkpt>
      <trkpt lat="46.9123" lon="4.67003">
        <ele>355</ele>
        <time>2012-08-22T13:18:23Z</time>
      </trkpt>
      <trkpt lat="46.91226" lon="4.66994">
        <ele>358</ele>
        <time>2012-08-22T13:18:24Z</time>
      </trkpt>
      <trkpt lat="46.91223" lon="4.66986">
        <ele>363</ele>
        <time>2012-08-22T13:18:25Z</time>
      </trkpt>
      <trkpt lat="46.91221" lon="4.66977">
        <ele>364</ele>
        <time>2012-08-22T13:18:26Z</time>
      </trkpt>
      <trkpt lat="46.91219" lon="4.66966">
        <ele>365</ele>
        <time>2012-08-22T13:18:27Z</time>
      </trkpt>
      <trkpt lat="46.91218" lon="4.66955">
        <ele>366</ele>
        <time>2012-08-22T13:18:28Z</time>
      </trkpt>
      <trkpt lat="46.91216" lon="4.66943">
        <ele>365</ele>
        <time>2012-08-22T13:18:29Z</time>
      </trkpt>
      <trkpt lat="46.91214" lon="4.66932">
        <ele>365</ele>
        <time>2012-08-22T13:18:30Z</time>
      </trkpt>
      <trkpt lat="46.91211" lon="4.6692">
        <ele>364</ele>
        <time>2012-08-22T13:18:31Z</time>
      </trkpt>
      <trkpt lat="46.91208" lon="4.66908">
        <ele>363</ele>
        <time>2012-08-22T13:18:32Z</time>
      </trkpt>
      <trkpt lat="46.91205" lon="4.66896">
        <ele>364</ele>
        <time>2012-08-22T13:18:33Z</time>
      </trkpt>
      <trkpt lat="46.91201" lon="4.66884">
        <ele>363</ele>
        <time>2012-08-22T13:18:34Z</time>
      </trkpt>
      <trkpt lat="46.91197" lon="4.66872">
        <ele>364</ele>
        <time>2012-08-22T13:18:35Z</time>
      </trkpt>
      <trkpt lat="46.91192" lon="4.66859">
        <ele>364</ele>
        <time>2012-08-22T13:18:36Z</time>
      </trkpt>
      <trkpt lat="46.91188" lon="4.66848">
        <ele>383</ele>
        <time>2012-08-22T13:18:37Z</time>
      </trkpt>
      <trkpt lat="46.91184" lon="4.66836">
        <ele>389</ele>
        <time>2012-08-22T13:18:38Z</time>
      </trkpt>
      <trkpt lat="46.91179" lon="4.66824">
        <ele>390</ele>
        <time>2012-08-22T13:18:39Z</time>
      </trkpt>
      <trkpt lat="46.91176" lon="4.66812">
        <ele>392</ele>
        <time>2012-08-22T13:18:40Z</time>
      </trkpt>
      <trkpt lat="46.91172" lon="4.66799">
        <ele>395</ele>
        <time>2012-08-22T13:18:41Z</time>
      </trkpt>
      <trkpt lat="46.91168" lon="4.66785">
        <ele>397</ele>
        <time>2012-08-22T13:18:42Z</time>
      </trkpt>
      <trkpt lat="46.91165" lon="4.66773">
        <ele>397</ele>
        <time>2012-08-22T13:18:43Z</time>
      </trkpt>
      <trkpt lat="46.91162" lon="4.66762">
        <ele>396</ele>
        <time>2012-08-22T13:18:44Z</time>
      </trkpt>
      <trkpt lat="46.91159" lon="4.66751">
        <ele>400</ele>
        <time>2012-08-22T13:18:45Z</time>
      </trkpt>
      <trkpt lat="46.91156" lon="4.66739">
        <ele>403</ele>
        <time>2012-08-22T13:18:46Z</time>
      </trkpt>
      <trkpt lat="46.91153" lon="4.66728">
        <ele>403</ele>
        <time>2012-08-22T13:18:47Z</time>
      </trkpt>
      <trkpt lat="46.9115" lon="4.66718">
        <ele>405</ele>
        <time>2012-08-22T13:18:48Z</time>
      </trkpt>
      <trkpt lat="46.91144" lon="4.6671">
        <ele>400</ele>
        <time>2012-08-22T13:18:49Z</time>
      </trkpt>
      <trkpt lat="46.91138" lon="4.667">
        <ele>401</ele>
        <time>2012-08-22T13:18:50Z</time>
      </trkpt>
      <trkpt lat="46.91132" lon="4.66691">
        <ele>400</ele>
        <time>2012-08-22T13:18:51Z</time>
      </trkpt>
      <trkpt lat="46.91125" lon="4.66683">
        <ele>400</ele>
        <time>2012-08-22T13:18:52Z</time>
      </trkpt>
      <trkpt lat="46.91118" lon="4.66674">
        <ele>400</ele>
        <time>2012-08-22T13:18:53Z</time>
      </trkpt>
      <trkpt lat="46.91111" lon="4.66664">
        <ele>399</ele>
        <time>2012-08-22T13:18:54Z</time>
      </trkpt>
      <trkpt lat="46.91105" lon="4.66652">
        <ele>397</ele>
        <time>2012-08-22T13:18:55Z</time>
      </trkpt>
      <trkpt lat="46.91099" lon="4.66642">
        <ele>395</ele>
        <time>2012-08-22T13:18:56Z</time>
      </trkpt>
      <trkpt lat="46.91093" lon="4.66632">
        <ele>399</ele>
        <time>2012-08-22T13:18:57Z</time>
      </trkpt>
      <trkpt lat="46.91086" lon="4.66621">
        <ele>397</ele>
        <time>2012-08-22T13:18:58Z</time>
      </trkpt>
      <trkpt lat="46.91079" lon="4.6661">
        <ele>399</ele>
        <time>2012-08-22T13:18:59Z</time>
      </trkpt>
      <trkpt lat="46.91073" lon="4.666">
        <ele>399</ele>
        <time>2012-08-22T13:19:00Z</time>
      </trkpt>
      <trkpt lat="46.91067" lon="4.66589">
        <ele>399</ele>
        <time>2012-08-22T13:19:01Z</time>
      </trkpt>
      <trkpt lat="46.91062" lon="4.66577">
        <ele>399</ele>
        <time>2012-08-22T13:19:02Z</time>
      </trkpt>
      <trkpt lat="46.91059" lon="4.66564">
        <ele>400</ele>
        <time>2012-08-22T13:19:03Z</time>
      </trkpt>
      <trkpt lat="46.91057" lon="4.66551">
        <ele>400</ele>
        <time>2012-08-22T13:19:04Z</time>
      </trkpt>
      <trkpt lat="46.91056" lon="4.66537">
        <ele>401</ele>
        <time>2012-08-22T13:19:05Z</time>
      </trkpt>
      <trkpt lat="46.91055" lon="4.6652">
        <ele>401</ele>
        <time>2012-08-22T13:19:06Z</time>
      </trkpt>
      <trkpt lat="46.91057" lon="4.66501">
        <ele>400</ele>
        <time>2012-08-22T13:19:07Z</time>
      </trkpt>
      <trkpt lat="46.9106" lon="4.66482">
        <ele>400</ele>
        <time>2012-08-22T13:19:08Z</time>
      </trkpt>
      <trkpt lat="46.91063" lon="4.66461">
        <ele>399</ele>
        <time>2012-08-22T13:19:09Z</time>
      </trkpt>
      <trkpt lat="46.91068" lon="4.66438">
        <ele>400</ele>
        <time>2012-08-22T13:19:10Z</time>
      </trkpt>
      <trkpt lat="46.91072" lon="4.66414">
        <ele>400</ele>
        <time>2012-08-22T13:19:11Z</time>
      </trkpt>
      <trkpt lat="46.91076" lon="4.66392">
        <ele>399</ele>
        <time>2012-08-22T13:19:12Z</time>
      </trkpt>
      <trkpt lat="46.9108" lon="4.66371">
        <ele>396</ele>
        <time>2012-08-22T13:19:13Z</time>
      </trkpt>
      <trkpt lat="46.91083" lon="4.66352">
        <ele>393</ele>
        <time>2012-08-22T13:19:14Z</time>
      </trkpt>
      <trkpt lat="46.91085" lon="4.66336">
        <ele>392</ele>
        <time>2012-08-22T13:19:15Z</time>
      </trkpt>
      <trkpt lat="46.91086" lon="4.66321">
        <ele>391</ele>
        <time>2012-08-22T13:19:16Z</time>
      </trkpt>
      <trkpt lat="46.91087" lon="4.66304">
        <ele>391</ele>
        <time>2012-08-22T13:19:17Z</time>
      </trkpt>
      <trkpt lat="46.91087" lon="4.66289">
        <ele>391</ele>
        <time>2012-08-22T13:19:18Z</time>
      </trkpt>
      <trkpt lat="46.91086" lon="4.66272">
        <ele>389</ele>
        <time>2012-08-22T13:19:19Z</time>
      </trkpt>
      <trkpt lat="46.91085" lon="4.66256">
        <ele>387</ele>
        <time>2012-08-22T13:19:20Z</time>
      </trkpt>
      <trkpt lat="46.91084" lon="4.66239">
        <ele>387</ele>
        <time>2012-08-22T13:19:21Z</time>
      </trkpt>
      <trkpt lat="46.91084" lon="4.66222">
        <ele>387</ele>
        <time>2012-08-22T13:19:22Z</time>
      </trkpt>
      <trkpt lat="46.91085" lon="4.66204">
        <ele>387</ele>
        <time>2012-08-22T13:19:23Z</time>
      </trkpt>
      <trkpt lat="46.91087" lon="4.66186">
        <ele>387</ele>
        <time>2012-08-22T13:19:24Z</time>
      </trkpt>
      <trkpt lat="46.91089" lon="4.66168">
        <ele>388</ele>
        <time>2012-08-22T13:19:25Z</time>
      </trkpt>
      <trkpt lat="46.91091" lon="4.66149">
        <ele>389</ele>
        <time>2012-08-22T13:19:26Z</time>
      </trkpt>
      <trkpt lat="46.91094" lon="4.6613">
        <ele>390</ele>
        <time>2012-08-22T13:19:27Z</time>
      </trkpt>
      <trkpt lat="46.91097" lon="4.66113">
        <ele>389</ele>
        <time>2012-08-22T13:19:28Z</time>
      </trkpt>
      <trkpt lat="46.911" lon="4.66097">
        <ele>389</ele>
        <time>2012-08-22T13:19:29Z</time>
      </trkpt>
      <trkpt lat="46.91103" lon="4.66081">
        <ele>388</ele>
        <time>2012-08-22T13:19:30Z</time>
      </trkpt>
      <trkpt lat="46.91106" lon="4.66065">
        <ele>388</ele>
        <time>2012-08-22T13:19:31Z</time>
      </trkpt>
      <trkpt lat="46.91109" lon="4.6605">
        <ele>388</ele>
        <time>2012-08-22T13:19:32Z</time>
      </trkpt>
      <trkpt lat="46.91109" lon="4.66035">
        <ele>387</ele>
        <time>2012-08-22T13:19:33Z</time>
      </trkpt>
      <trkpt lat="46.9111" lon="4.66021">
        <ele>385</ele>
        <time>2012-08-22T13:19:34Z</time>
      </trkpt>
      <trkpt lat="46.9111" lon="4.66006">
        <ele>384</ele>
        <time>2012-08-22T13:19:35Z</time>
      </trkpt>
      <trkpt lat="46.9111" lon="4.6599">
        <ele>382</ele>
        <time>2012-08-22T13:19:36Z</time>
      </trkpt>
      <trkpt lat="46.9111" lon="4.65974">
        <ele>382</ele>
        <time>2012-08-22T13:19:37Z</time>
      </trkpt>
      <trkpt lat="46.91111" lon="4.65958">
        <ele>381</ele>
        <time>2012-08-22T13:19:38Z</time>
      </trkpt>
      <trkpt lat="46.91111" lon="4.65947">
        <ele>380</ele>
        <time>2012-08-22T13:19:39Z</time>
      </trkpt>
      <trkpt lat="46.91111" lon="4.65939">
        <ele>378</ele>
        <time>2012-08-22T13:19:40Z</time>
      </trkpt>
      <trkpt lat="46.91111" lon="4.65931">
        <ele>378</ele>
        <time>2012-08-22T13:19:41Z</time>
      </trkpt>
      <trkpt lat="46.9111" lon="4.65921">
        <ele>375</ele>
        <time>2012-08-22T13:19:42Z</time>
      </trkpt>
      <trkpt lat="46.91109" lon="4.6591">
        <ele>373</ele>
        <time>2012-08-22T13:19:43Z</time>
      </trkpt>
      <trkpt lat="46.91108" lon="4.659">
        <ele>372</ele>
        <time>2012-08-22T13:19:44Z</time>
      </trkpt>
      <trkpt lat="46.91106" lon="4.6589">
        <ele>371</ele>
        <time>2012-08-22T13:19:45Z</time>
      </trkpt>
      <trkpt lat="46.91106" lon="4.65881">
        <ele>373</ele>
        <time>2012-08-22T13:19:46Z</time>
      </trkpt>
      <trkpt lat="46.91108" lon="4.65871">
        <ele>372</ele>
        <time>2012-08-22T13:19:47Z</time>
      </trkpt>
      <trkpt lat="46.9111" lon="4.6586">
        <ele>372</ele>
        <time>2012-08-22T13:19:48Z</time>
      </trkpt>
      <trkpt lat="46.91114" lon="4.65847">
        <ele>372</ele>
        <time>2012-08-22T13:19:49Z</time>
      </trkpt>
      <trkpt lat="46.91118" lon="4.65836">
        <ele>373</ele>
        <time>2012-08-22T13:19:50Z</time>
      </trkpt>
      <trkpt lat="46.91122" lon="4.65826">
        <ele>373</ele>
        <time>2012-08-22T13:19:51Z</time>
      </trkpt>
      <trkpt lat="46.91127" lon="4.65816">
        <ele>374</ele>
        <time>2012-08-22T13:19:52Z</time>
      </trkpt>
      <trkpt lat="46.91133" lon="4.65805">
        <ele>373</ele>
        <time>2012-08-22T13:19:53Z</time>
      </trkpt>
      <trkpt lat="46.91141" lon="4.65799">
        <ele>372</ele>
        <time>2012-08-22T13:19:54Z</time>
      </trkpt>
      <trkpt lat="46.91149" lon="4.65792">
        <ele>372</ele>
        <time>2012-08-22T13:19:55Z</time>
      </trkpt>
      <trkpt lat="46.91155" lon="4.65783">
        <ele>373</ele>
        <time>2012-08-22T13:19:56Z</time>
      </trkpt>
      <trkpt lat="46.91162" lon="4.65775">
        <ele>370</ele>
        <time>2012-08-22T13:19:57Z</time>
      </trkpt>
      <trkpt lat="46.91167" lon="4.65767">
        <ele>373</ele>
        <time>2012-08-22T13:19:58Z</time>
      </trkpt>
      <trkpt lat="46.91171" lon="4.65763">
        <ele>376</ele>
        <time>2012-08-22T13:19:59Z</time>
      </trkpt>
      <trkpt lat="46.91175" lon="4.65758">
        <ele>379</ele>
        <time>2012-08-22T13:20:00Z</time>
      </trkpt>
      <trkpt lat="46.91178" lon="4.6575">
        <ele>380</ele>
        <time>2012-08-22T13:20:01Z</time>
      </trkpt>
      <trkpt lat="46.91182" lon="4.6574">
        <ele>380</ele>
        <time>2012-08-22T13:20:02Z</time>
      </trkpt>
      <trkpt lat="46.91184" lon="4.65731">
        <ele>379</ele>
        <time>2012-08-22T13:20:03Z</time>
      </trkpt>
      <trkpt lat="46.91187" lon="4.65722">
        <ele>379</ele>
        <time>2012-08-22T13:20:04Z</time>
      </trkpt>
      <trkpt lat="46.91188" lon="4.65715">
        <ele>378</ele>
        <time>2012-08-22T13:20:05Z</time>
      </trkpt>
      <trkpt lat="46.91192" lon="4.65706">
        <ele>375</ele>
        <time>2012-08-22T13:20:07Z</time>
      </trkpt>
      <trkpt lat="46.91197" lon="4.65698">
        <ele>373</ele>
        <time>2012-08-22T13:20:10Z</time>
      </trkpt>
      <trkpt lat="46.91201" lon="4.65688">
        <ele>376</ele>
        <time>2012-08-22T13:20:12Z</time>
      </trkpt>
      <trkpt lat="46.91205" lon="4.65684">
        <ele>372</ele>
        <time>2012-08-22T13:20:13Z</time>
      </trkpt>
      <trkpt lat="46.91205" lon="4.65673">
        <ele>375</ele>
        <time>2012-08-22T13:20:15Z</time>
      </trkpt>
      <trkpt lat="46.91206" lon="4.65666">
        <ele>376</ele>
        <time>2012-08-22T13:20:16Z</time>
      </trkpt>
      <trkpt lat="46.91207" lon="4.65657">
        <ele>376</ele>
        <time>2012-08-22T13:20:17Z</time>
      </trkpt>
      <trkpt lat="46.91208" lon="4.65648">
        <ele>374</ele>
        <time>2012-08-22T13:20:18Z</time>
      </trkpt>
      <trkpt lat="46.91212" lon="4.65641">
        <ele>373</ele>
        <time>2012-08-22T13:20:19Z</time>
      </trkpt>
      <trkpt lat="46.91216" lon="4.65636">
        <ele>372</ele>
        <time>2012-08-22T13:20:20Z</time>
      </trkpt>
      <trkpt lat="46.9122" lon="4.65632">
        <ele>371</ele>
        <time>2012-08-22T13:20:21Z</time>
      </trkpt>
      <trkpt lat="46.91225" lon="4.65632">
        <ele>371</ele>
        <time>2012-08-22T13:20:22Z</time>
      </trkpt>
      <trkpt lat="46.91231" lon="4.65632">
        <ele>371</ele>
        <time>2012-08-22T13:20:23Z</time>
      </trkpt>
      <trkpt lat="46.91238" lon="4.65633">
        <ele>374</ele>
        <time>2012-08-22T13:20:24Z</time>
      </trkpt>
      <trkpt lat="46.91246" lon="4.65635">
        <ele>375</ele>
        <time>2012-08-22T13:20:25Z</time>
      </trkpt>
      <trkpt lat="46.91254" lon="4.65636">
        <ele>373</ele>
        <time>2012-08-22T13:20:26Z</time>
      </trkpt>
      <trkpt lat="46.91263" lon="4.65637">
        <ele>378</ele>
        <time>2012-08-22T13:20:27Z</time>
      </trkpt>
      <trkpt lat="46.91272" lon="4.65639">
        <ele>383</ele>
        <time>2012-08-22T13:20:28Z</time>
      </trkpt>
      <trkpt lat="46.91282" lon="4.65642">
        <ele>384</ele>
        <time>2012-08-22T13:20:29Z</time>
      </trkpt>
      <trkpt lat="46.91291" lon="4.65645">
        <ele>384</ele>
        <time>2012-08-22T13:20:30Z</time>
      </trkpt>
      <trkpt lat="46.91298" lon="4.65647">
        <ele>384</ele>
        <time>2012-08-22T13:20:31Z</time>
      </trkpt>
      <trkpt lat="46.91304" lon="4.65651">
        <ele>382</ele>
        <time>2012-08-22T13:20:32Z</time>
      </trkpt>
      <trkpt lat="46.91309" lon="4.65655">
        <ele>381</ele>
        <time>2012-08-22T13:20:33Z</time>
      </trkpt>
      <trkpt lat="46.91315" lon="4.6566">
        <ele>383</ele>
        <time>2012-08-22T13:20:34Z</time>
      </trkpt>
      <trkpt lat="46.91321" lon="4.65666">
        <ele>383</ele>
        <time>2012-08-22T13:20:35Z</time>
      </trkpt>
      <trkpt lat="46.91328" lon="4.65671">
        <ele>380</ele>
        <time>2012-08-22T13:20:36Z</time>
      </trkpt>
      <trkpt lat="46.91336" lon="4.65677">
        <ele>385</ele>
        <time>2012-08-22T13:20:37Z</time>
      </trkpt>
      <trkpt lat="46.91347" lon="4.65684">
        <ele>389</ele>
        <time>2012-08-22T13:20:38Z</time>
      </trkpt>
      <trkpt lat="46.91359" lon="4.6569">
        <ele>391</ele>
        <time>2012-08-22T13:20:39Z</time>
      </trkpt>
      <trkpt lat="46.91372" lon="4.65697">
        <ele>393</ele>
        <time>2012-08-22T13:20:40Z</time>
      </trkpt>
      <trkpt lat="46.91384" lon="4.65704">
        <ele>393</ele>
        <time>2012-08-22T13:20:41Z</time>
      </trkpt>
      <trkpt lat="46.91397" lon="4.65709">
        <ele>394</ele>
        <time>2012-08-22T13:20:42Z</time>
      </trkpt>
      <trkpt lat="46.91411" lon="4.65709">
        <ele>396</ele>
        <time>2012-08-22T13:20:43Z</time>
      </trkpt>
      <trkpt lat="46.91425" lon="4.65709">
        <ele>396</ele>
        <time>2012-08-22T13:20:44Z</time>
      </trkpt>
      <trkpt lat="46.91439" lon="4.65708">
        <ele>398</ele>
        <time>2012-08-22T13:20:45Z</time>
      </trkpt>
      <trkpt lat="46.91452" lon="4.65701">
        <ele>397</ele>
        <time>2012-08-22T13:20:46Z</time>
      </trkpt>
      <trkpt lat="46.91466" lon="4.65694">
        <ele>398</ele>
        <time>2012-08-22T13:20:47Z</time>
      </trkpt>
      <trkpt lat="46.91479" lon="4.65686">
        <ele>402</ele>
        <time>2012-08-22T13:20:48Z</time>
      </trkpt>
      <trkpt lat="46.91489" lon="4.65679">
        <ele>399</ele>
        <time>2012-08-22T13:20:49Z</time>
      </trkpt>
      <trkpt lat="46.91499" lon="4.65673">
        <ele>401</ele>
        <time>2012-08-22T13:20:50Z</time>
      </trkpt>
      <trkpt lat="46.9151" lon="4.65668">
        <ele>400</ele>
        <time>2012-08-22T13:20:51Z</time>
      </trkpt>
      <trkpt lat="46.91522" lon="4.65663">
        <ele>400</ele>
        <time>2012-08-22T13:20:52Z</time>
      </trkpt>
      <trkpt lat="46.91534" lon="4.65659">
        <ele>402</ele>
        <time>2012-08-22T13:20:53Z</time>
      </trkpt>
      <trkpt lat="46.91546" lon="4.65656">
        <ele>404</ele>
        <time>2012-08-22T13:20:54Z</time>
      </trkpt>
      <trkpt lat="46.91557" lon="4.65653">
        <ele>405</ele>
        <time>2012-08-22T13:20:55Z</time>
      </trkpt>
      <trkpt lat="46.91567" lon="4.6565">
        <ele>402</ele>
        <time>2012-08-22T13:20:56Z</time>
      </trkpt>
      <trkpt lat="46.91576" lon="4.65648">
        <ele>406</ele>
        <time>2012-08-22T13:20:57Z</time>
      </trkpt>
      <trkpt lat="46.91585" lon="4.65645">
        <ele>406</ele>
        <time>2012-08-22T13:20:58Z</time>
      </trkpt>
      <trkpt lat="46.91593" lon="4.65643">
        <ele>407</ele>
        <time>2012-08-22T13:20:59Z</time>
      </trkpt>
      <trkpt lat="46.91603" lon="4.6564">
        <ele>407</ele>
        <time>2012-08-22T13:21:00Z</time>
      </trkpt>
      <trkpt lat="46.91612" lon="4.65637">
        <ele>408</ele>
        <time>2012-08-22T13:21:01Z</time>
      </trkpt>
      <trkpt lat="46.91622" lon="4.65634">
        <ele>411</ele>
        <time>2012-08-22T13:21:02Z</time>
      </trkpt>
      <trkpt lat="46.91632" lon="4.65631">
        <ele>411</ele>
        <time>2012-08-22T13:21:03Z</time>
      </trkpt>
      <trkpt lat="46.91642" lon="4.65628">
        <ele>412</ele>
        <time>2012-08-22T13:21:04Z</time>
      </trkpt>
      <trkpt lat="46.91652" lon="4.65624">
        <ele>410</ele>
        <time>2012-08-22T13:21:05Z</time>
      </trkpt>
      <trkpt lat="46.9166" lon="4.65621">
        <ele>411</ele>
        <time>2012-08-22T13:21:06Z</time>
      </trkpt>
      <trkpt lat="46.9167" lon="4.65618">
        <ele>411</ele>
        <time>2012-08-22T13:21:07Z</time>
      </trkpt>
      <trkpt lat="46.91679" lon="4.65615">
        <ele>413</ele>
        <time>2012-08-22T13:21:08Z</time>
      </trkpt>
      <trkpt lat="46.91689" lon="4.65613">
        <ele>414</ele>
        <time>2012-08-22T13:21:09Z</time>
      </trkpt>
      <trkpt lat="46.91699" lon="4.65608">
        <ele>424</ele>
        <time>2012-08-22T13:21:10Z</time>
      </trkpt>
      <trkpt lat="46.91708" lon="4.65604">
        <ele>424</ele>
        <time>2012-08-22T13:21:11Z</time>
      </trkpt>
      <trkpt lat="46.91718" lon="4.65599">
        <ele>428</ele>
        <time>2012-08-22T13:21:12Z</time>
      </trkpt>
      <trkpt lat="46.91729" lon="4.65596">
        <ele>427</ele>
        <time>2012-08-22T13:21:13Z</time>
      </trkpt>
      <trkpt lat="46.9174" lon="4.65593">
        <ele>428</ele>
        <time>2012-08-22T13:21:14Z</time>
      </trkpt>
      <trkpt lat="46.91751" lon="4.65591">
        <ele>432</ele>
        <time>2012-08-22T13:21:15Z</time>
      </trkpt>
      <trkpt lat="46.91763" lon="4.6559">
        <ele>431</ele>
        <time>2012-08-22T13:21:16Z</time>
      </trkpt>
      <trkpt lat="46.91775" lon="4.65588">
        <ele>436</ele>
        <time>2012-08-22T13:21:17Z</time>
      </trkpt>
      <trkpt lat="46.91787" lon="4.65587">
        <ele>438</ele>
        <time>2012-08-22T13:21:18Z</time>
      </trkpt>
      <trkpt lat="46.91798" lon="4.65585">
        <ele>439</ele>
        <time>2012-08-22T13:21:19Z</time>
      </trkpt>
      <trkpt lat="46.91806" lon="4.65583">
        <ele>437</ele>
        <time>2012-08-22T13:21:20Z</time>
      </trkpt>
      <trkpt lat="46.91816" lon="4.65581">
        <ele>437</ele>
        <time>2012-08-22T13:21:21Z</time>
      </trkpt>
      <trkpt lat="46.91823" lon="4.65581">
        <ele>439</ele>
        <time>2012-08-22T13:21:22Z</time>
      </trkpt>
      <trkpt lat="46.91829" lon="4.65581">
        <ele>440</ele>
        <time>2012-08-22T13:21:23Z</time>
      </trkpt>
      <trkpt lat="46.91838" lon="4.65578">
        <ele>440</ele>
        <time>2012-08-22T13:21:26Z</time>
      </trkpt>
      <trkpt lat="46.91842" lon="4.65577">
        <ele>433</ele>
        <time>2012-08-22T13:21:53Z</time>
      </trkpt>
      <trkpt lat="46.91849" lon="4.65585">
        <ele>435</ele>
        <time>2012-08-22T13:21:55Z</time>
      </trkpt>
      <trkpt lat="46.91854" lon="4.65593">
        <ele>437</ele>
        <time>2012-08-22T13:21:56Z</time>
      </trkpt>
      <trkpt lat="46.91858" lon="4.656">
        <ele>436</ele>
        <time>2012-08-22T13:21:57Z</time>
      </trkpt>
      <trkpt lat="46.91862" lon="4.65608">
        <ele>436</ele>
        <time>2012-08-22T13:21:58Z</time>
      </trkpt>
      <trkpt lat="46.91867" lon="4.65617">
        <ele>436</ele>
        <time>2012-08-22T13:21:59Z</time>
      </trkpt>
      <trkpt lat="46.91871" lon="4.65624">
        <ele>436</ele>
        <time>2012-08-22T13:22:00Z</time>
      </trkpt>
      <trkpt lat="46.91872" lon="4.65632">
        <ele>438</ele>
        <time>2012-08-22T13:22:01Z</time>
      </trkpt>
      <trkpt lat="46.91874" lon="4.65642">
        <ele>439</ele>
        <time>2012-08-22T13:22:02Z</time>
      </trkpt>
      <trkpt lat="46.91873" lon="4.6565">
        <ele>439</ele>
        <time>2012-08-22T13:22:03Z</time>
      </trkpt>
      <trkpt lat="46.91873" lon="4.6566">
        <ele>453</ele>
        <time>2012-08-22T13:22:09Z</time>
      </trkpt>
      <trkpt lat="46.9187" lon="4.65673">
        <ele>454</ele>
        <time>2012-08-22T13:22:11Z</time>
      </trkpt>
      <trkpt lat="46.91866" lon="4.65684">
        <ele>454</ele>
        <time>2012-08-22T13:22:12Z</time>
      </trkpt>
      <trkpt lat="46.91862" lon="4.65696">
        <ele>454</ele>
        <time>2012-08-22T13:22:13Z</time>
      </trkpt>
      <trkpt lat="46.91858" lon="4.65706">
        <ele>453</ele>
        <time>2012-08-22T13:22:14Z</time>
      </trkpt>
      <trkpt lat="46.91854" lon="4.6572">
        <ele>454</ele>
        <time>2012-08-22T13:22:15Z</time>
      </trkpt>
      <trkpt lat="46.91849" lon="4.65733">
        <ele>454</ele>
        <time>2012-08-22T13:22:16Z</time>
      </trkpt>
      <trkpt lat="46.91843" lon="4.65748">
        <ele>455</ele>
        <time>2012-08-22T13:22:17Z</time>
      </trkpt>
      <trkpt lat="46.91836" lon="4.65764">
        <ele>455</ele>
        <time>2012-08-22T13:22:18Z</time>
      </trkpt>
      <trkpt lat="46.9183" lon="4.65778">
        <ele>456</ele>
        <time>2012-08-22T13:22:19Z</time>
      </trkpt>
      <trkpt lat="46.91825" lon="4.65792">
        <ele>456</ele>
        <time>2012-08-22T13:22:20Z</time>
      </trkpt>
      <trkpt lat="46.9182" lon="4.65806">
        <ele>457</ele>
        <time>2012-08-22T13:22:21Z</time>
      </trkpt>
      <trkpt lat="46.91816" lon="4.65819">
        <ele>458</ele>
        <time>2012-08-22T13:22:22Z</time>
      </trkpt>
      <trkpt lat="46.91811" lon="4.65833">
        <ele>461</ele>
        <time>2012-08-22T13:22:23Z</time>
      </trkpt>
      <trkpt lat="46.91807" lon="4.65849">
        <ele>461</ele>
        <time>2012-08-22T13:22:24Z</time>
      </trkpt>
      <trkpt lat="46.91804" lon="4.65866">
        <ele>460</ele>
        <time>2012-08-22T13:22:25Z</time>
      </trkpt>
      <trkpt lat="46.91802" lon="4.65881">
        <ele>459</ele>
        <time>2012-08-22T13:22:26Z</time>
      </trkpt>
      <trkpt lat="46.91799" lon="4.65895">
        <ele>460</ele>
        <time>2012-08-22T13:22:27Z</time>
      </trkpt>
      <trkpt lat="46.91797" lon="4.65907">
        <ele>459</ele>
        <time>2012-08-22T13:22:28Z</time>
      </trkpt>
      <trkpt lat="46.91797" lon="4.65915">
        <ele>459</ele>
        <time>2012-08-22T13:22:29Z</time>
      </trkpt>
      <trkpt lat="46.91796" lon="4.65924">
        <ele>458</ele>
        <time>2012-08-22T13:22:30Z</time>
      </trkpt>
      <trkpt lat="46.91798" lon="4.65934">
        <ele>458</ele>
        <time>2012-08-22T13:22:31Z</time>
      </trkpt>
      <trkpt lat="46.918" lon="4.65944">
        <ele>461</ele>
        <time>2012-08-22T13:22:32Z</time>
      </trkpt>
      <trkpt lat="46.91805" lon="4.65954">
        <ele>458</ele>
        <time>2012-08-22T13:22:33Z</time>
      </trkpt>
      <trkpt lat="46.91811" lon="4.65964">
        <ele>458</ele>
        <time>2012-08-22T13:22:34Z</time>
      </trkpt>
      <trkpt lat="46.91816" lon="4.65974">
        <ele>458</ele>
        <time>2012-08-22T13:22:35Z</time>
      </trkpt>
      <trkpt lat="46.91822" lon="4.65982">
        <ele>454</ele>
        <time>2012-08-22T13:22:36Z</time>
      </trkpt>
      <trkpt lat="46.91828" lon="4.6599">
        <ele>453</ele>
        <time>2012-08-22T13:22:37Z</time>
      </trkpt>
      <trkpt lat="46.91834" lon="4.65998">
        <ele>452</ele>
        <time>2012-08-22T13:22:38Z</time>
      </trkpt>
      <trkpt lat="46.9184" lon="4.66006">
        <ele>451</ele>
        <time>2012-08-22T13:22:39Z</time>
      </trkpt>
      <trkpt lat="46.91847" lon="4.66011">
        <ele>451</ele>
        <time>2012-08-22T13:22:40Z</time>
      </trkpt>
      <trkpt lat="46.91854" lon="4.66013">
        <ele>451</ele>
        <time>2012-08-22T13:22:41Z</time>
      </trkpt>
      <trkpt lat="46.91859" lon="4.66016">
        <ele>450</ele>
        <time>2012-08-22T13:22:42Z</time>
      </trkpt>
      <trkpt lat="46.91864" lon="4.6602">
        <ele>451</ele>
        <time>2012-08-22T13:22:43Z</time>
      </trkpt>
      <trkpt lat="46.91868" lon="4.66024">
        <ele>451</ele>
        <time>2012-08-22T13:22:44Z</time>
      </trkpt>
      <trkpt lat="46.91874" lon="4.6603">
        <ele>452</ele>
        <time>2012-08-22T13:22:45Z</time>
      </trkpt>
      <trkpt lat="46.91877" lon="4.66038">
        <ele>453</ele>
        <time>2012-08-22T13:22:46Z</time>
      </trkpt>
      <trkpt lat="46.91879" lon="4.66047">
        <ele>454</ele>
        <time>2012-08-22T13:22:47Z</time>
      </trkpt>
      <trkpt lat="46.91878" lon="4.66055">
        <ele>453</ele>
        <time>2012-08-22T13:22:48Z</time>
      </trkpt>
      <trkpt lat="46.91877" lon="4.66064">
        <ele>454</ele>
        <time>2012-08-22T13:22:49Z</time>
      </trkpt>
      <trkpt lat="46.91874" lon="4.66072">
        <ele>455</ele>
        <time>2012-08-22T13:22:50Z</time>
      </trkpt>
      <trkpt lat="46.91871" lon="4.6608">
        <ele>455</ele>
        <time>2012-08-22T13:22:51Z</time>
      </trkpt>
      <trkpt lat="46.91865" lon="4.66085">
        <ele>454</ele>
        <time>2012-08-22T13:22:52Z</time>
      </trkpt>
      <trkpt lat="46.9186" lon="4.6609">
        <ele>455</ele>
        <time>2012-08-22T13:22:53Z</time>
      </trkpt>
      <trkpt lat="46.91856" lon="4.66092">
        <ele>453</ele>
        <time>2012-08-22T13:22:54Z</time>
      </trkpt>
      <trkpt lat="46.91851" lon="4.66093">
        <ele>453</ele>
        <time>2012-08-22T13:22:55Z</time>
      </trkpt>
      <trkpt lat="46.91846" lon="4.66094">
        <ele>452</ele>
        <time>2012-08-22T13:22:56Z</time>
      </trkpt>
      <trkpt lat="46.91839" lon="4.66096">
        <ele>453</ele>
        <time>2012-08-22T13:22:57Z</time>
      </trkpt>
      <trkpt lat="46.91832" lon="4.66097">
        <ele>454</ele>
        <time>2012-08-22T13:22:58Z</time>
      </trkpt>
      <trkpt lat="46.91827" lon="4.66098">
        <ele>456</ele>
        <time>2012-08-22T13:22:59Z</time>
      </trkpt>
      <trkpt lat="46.91818" lon="4.66099">
        <ele>460</ele>
        <time>2012-08-22T13:23:01Z</time>
      </trkpt>
      <trkpt lat="46.91813" lon="4.66101">
        <ele>461</ele>
        <time>2012-08-22T13:23:02Z</time>
      </trkpt>
      <trkpt lat="46.91808" lon="4.66102">
        <ele>461</ele>
        <time>2012-08-22T13:23:03Z</time>
      </trkpt>
      <trkpt lat="46.91804" lon="4.66102">
        <ele>462</ele>
        <time>2012-08-22T13:23:04Z</time>
      </trkpt>
      <trkpt lat="46.91799" lon="4.66104">
        <ele>464</ele>
        <time>2012-08-22T13:23:05Z</time>
      </trkpt>
      <trkpt lat="46.91794" lon="4.66107">
        <ele>465</ele>
        <time>2012-08-22T13:23:06Z</time>
      </trkpt>
      <trkpt lat="46.91788" lon="4.66109">
        <ele>466</ele>
        <time>2012-08-22T13:23:07Z</time>
      </trkpt>
      <trkpt lat="46.91783" lon="4.66112">
        <ele>467</ele>
        <time>2012-08-22T13:23:08Z</time>
      </trkpt>
      <trkpt lat="46.91778" lon="4.66115">
        <ele>466</ele>
        <time>2012-08-22T13:23:09Z</time>
      </trkpt>
      <trkpt lat="46.91772" lon="4.66118">
        <ele>467</ele>
        <time>2012-08-22T13:23:10Z</time>
      </trkpt>
      <trkpt lat="46.91766" lon="4.66122">
        <ele>470</ele>
        <time>2012-08-22T13:23:11Z</time>
      </trkpt>
      <trkpt lat="46.9176" lon="4.66126">
        <ele>471</ele>
        <time>2012-08-22T13:23:12Z</time>
      </trkpt>
      <trkpt lat="46.91756" lon="4.66134">
        <ele>471</ele>
        <time>2012-08-22T13:23:13Z</time>
      </trkpt>
      <trkpt lat="46.91752" lon="4.66144">
        <ele>474</ele>
        <time>2012-08-22T13:23:14Z</time>
      </trkpt>
      <trkpt lat="46.91747" lon="4.66154">
        <ele>473</ele>
        <time>2012-08-22T13:23:15Z</time>
      </trkpt>
      <trkpt lat="46.91743" lon="4.66165">
        <ele>474</ele>
        <time>2012-08-22T13:23:16Z</time>
      </trkpt>
      <trkpt lat="46.9174" lon="4.66176">
        <ele>473</ele>
        <time>2012-08-22T13:23:17Z</time>
      </trkpt>
      <trkpt lat="46.91736" lon="4.66188">
        <ele>474</ele>
        <time>2012-08-22T13:23:18Z</time>
      </trkpt>
      <trkpt lat="46.91732" lon="4.662">
        <ele>474</ele>
        <time>2012-08-22T13:23:19Z</time>
      </trkpt>
      <trkpt lat="46.91727" lon="4.66213">
        <ele>474</ele>
        <time>2012-08-22T13:23:20Z</time>
      </trkpt>
      <trkpt lat="46.91723" lon="4.66226">
        <ele>476</ele>
        <time>2012-08-22T13:23:21Z</time>
      </trkpt>
      <trkpt lat="46.91718" lon="4.66239">
        <ele>476</ele>
        <time>2012-08-22T13:23:22Z</time>
      </trkpt>
      <trkpt lat="46.91713" lon="4.6625">
        <ele>477</ele>
        <time>2012-08-22T13:23:23Z</time>
      </trkpt>
      <trkpt lat="46.91708" lon="4.66264">
        <ele>487</ele>
        <time>2012-08-22T13:23:24Z</time>
      </trkpt>
      <trkpt lat="46.9171" lon="4.66277">
        <ele>489</ele>
        <time>2012-08-22T13:23:25Z</time>
      </trkpt>
      <trkpt lat="46.91714" lon="4.66289">
        <ele>490</ele>
        <time>2012-08-22T13:23:26Z</time>
      </trkpt>
      <trkpt lat="46.91719" lon="4.66302">
        <ele>489</ele>
        <time>2012-08-22T13:23:27Z</time>
      </trkpt>
      <trkpt lat="46.91724" lon="4.66316">
        <ele>488</ele>
        <time>2012-08-22T13:23:28Z</time>
      </trkpt>
      <trkpt lat="46.91728" lon="4.66327">
        <ele>488</ele>
        <time>2012-08-22T13:23:29Z</time>
      </trkpt>
      <trkpt lat="46.91731" lon="4.66337">
        <ele>489</ele>
        <time>2012-08-22T13:23:30Z</time>
      </trkpt>
      <trkpt lat="46.91733" lon="4.66348">
        <ele>489</ele>
        <time>2012-08-22T13:23:31Z</time>
      </trkpt>
      <trkpt lat="46.91734" lon="4.66356">
        <ele>493</ele>
        <time>2012-08-22T13:23:32Z</time>
      </trkpt>
      <trkpt lat="46.91733" lon="4.66364">
        <ele>495</ele>
        <time>2012-08-22T13:23:34Z</time>
      </trkpt>
      <trkpt lat="46.91733" lon="4.66364">
        <ele>495</ele>
        <time>2012-08-22T13:23:34Z</time>
      </trkpt>
      <trkpt lat="46.91733" lon="4.66364">
        <ele>495</ele>
        <time>2012-08-22T13:23:36Z</time>
      </trkpt>
      <trkpt lat="46.91731" lon="4.66374">
        <ele>503</ele>
        <time>2012-08-22T13:23:39Z</time>
      </trkpt>
      <trkpt lat="46.91724" lon="4.66383">
        <ele>507</ele>
        <time>2012-08-22T13:23:41Z</time>
      </trkpt>
      <trkpt lat="46.91718" lon="4.66388">
        <ele>508</ele>
        <time>2012-08-22T13:23:42Z</time>
      </trkpt>
      <trkpt lat="46.91713" lon="4.66393">
        <ele>509</ele>
        <time>2012-08-22T13:23:43Z</time>
      </trkpt>
      <trkpt lat="46.91708" lon="4.66398">
        <ele>511</ele>
        <time>2012-08-22T13:23:44Z</time>
      </trkpt>
      <trkpt lat="46.91702" lon="4.66404">
        <ele>511</ele>
        <time>2012-08-22T13:23:45Z</time>
      </trkpt>
      <trkpt lat="46.91695" lon="4.66412">
        <ele>512</ele>
        <time>2012-08-22T13:23:46Z</time>
      </trkpt>
      <trkpt lat="46.91688" lon="4.66419">
        <ele>513</ele>
        <time>2012-08-22T13:23:47Z</time>
      </trkpt>
      <trkpt lat="46.9168" lon="4.66427">
        <ele>514</ele>
        <time>2012-08-22T13:23:48Z</time>
      </trkpt>
      <trkpt lat="46.91671" lon="4.66435">
        <ele>514</ele>
        <time>2012-08-22T13:23:49Z</time>
      </trkpt>
      <trkpt lat="46.91663" lon="4.66442">
        <ele>514</ele>
        <time>2012-08-22T13:23:50Z</time>
      </trkpt>
      <trkpt lat="46.91656" lon="4.6645">
        <ele>514</ele>
        <time>2012-08-22T13:23:51Z</time>
      </trkpt>
      <trkpt lat="46.91649" lon="4.66458">
        <ele>513</ele>
        <time>2012-08-22T13:23:52Z</time>
      </trkpt>
      <trkpt lat="46.91643" lon="4.66466">
        <ele>515</ele>
        <time>2012-08-22T13:23:53Z</time>
      </trkpt>
      <trkpt lat="46.91636" lon="4.66474">
        <ele>515</ele>
        <time>2012-08-22T13:23:54Z</time>
      </trkpt>
      <trkpt lat="46.9163" lon="4.66482">
        <ele>515</ele>
        <time>2012-08-22T13:23:55Z</time>
      </trkpt>
      <trkpt lat="46.91623" lon="4.66491">
        <ele>516</ele>
        <time>2012-08-22T13:23:56Z</time>
      </trkpt>
      <trkpt lat="46.91617" lon="4.66501">
        <ele>515</ele>
        <time>2012-08-22T13:23:57Z</time>
      </trkpt>
      <trkpt lat="46.9161" lon="4.66511">
        <ele>514</ele>
        <time>2012-08-22T13:23:58Z</time>
      </trkpt>
      <trkpt lat="46.91604" lon="4.66521">
        <ele>514</ele>
        <time>2012-08-22T13:23:59Z</time>
      </trkpt>
      <trkpt lat="46.91598" lon="4.6653">
        <ele>513</ele>
        <time>2012-08-22T13:24:00Z</time>
      </trkpt>
      <trkpt lat="46.91592" lon="4.66539">
        <ele>513</ele>
        <time>2012-08-22T13:24:01Z</time>
      </trkpt>
      <trkpt lat="46.91585" lon="4.66548">
        <ele>513</ele>
        <time>2012-08-22T13:24:02Z</time>
      </trkpt>
      <trkpt lat="46.91579" lon="4.66557">
        <ele>514</ele>
        <time>2012-08-22T13:24:03Z</time>
      </trkpt>
      <trkpt lat="46.91573" lon="4.66566">
        <ele>513</ele>
        <time>2012-08-22T13:24:04Z</time>
      </trkpt>
      <trkpt lat="46.91567" lon="4.66575">
        <ele>514</ele>
        <time>2012-08-22T13:24:05Z</time>
      </trkpt>
      <trkpt lat="46.91563" lon="4.66582">
        <ele>513</ele>
        <time>2012-08-22T13:24:06Z</time>
      </trkpt>
      <trkpt lat="46.91559" lon="4.66588">
        <ele>513</ele>
        <time>2012-08-22T13:24:07Z</time>
      </trkpt>
      <trkpt lat="46.91556" lon="4.66594">
        <ele>513</ele>
        <time>2012-08-22T13:24:08Z</time>
      </trkpt>
      <trkpt lat="46.91553" lon="4.66599">
        <ele>512</ele>
        <time>2012-08-22T13:24:09Z</time>
      </trkpt>
      <trkpt lat="46.91544" lon="4.66605">
        <ele>511</ele>
        <time>2012-08-22T13:24:11Z</time>
      </trkpt>
      <trkpt lat="46.9154" lon="4.66608">
        <ele>510</ele>
        <time>2012-08-22T13:24:12Z</time>
      </trkpt>
      <trkpt lat="46.91535" lon="4.6661">
        <ele>509</ele>
        <time>2012-08-22T13:24:13Z</time>
      </trkpt>
      <trkpt lat="46.9153" lon="4.66612">
        <ele>509</ele>
        <time>2012-08-22T13:24:14Z</time>
      </trkpt>
      <trkpt lat="46.91523" lon="4.66614">
        <ele>508</ele>
        <time>2012-08-22T13:24:16Z</time>
      </trkpt>
      <trkpt lat="46.91511" lon="4.66619">
        <ele>463.28125</ele>
      </trkpt>
      <trkpt lat="46.91497" lon="4.66653">
        <ele>460.6367188</ele>
      </trkpt>
      <trkpt lat="46.91492" lon="4.66681">
        <ele>459.5664063</ele>
      </trkpt>
      <trkpt lat="46.91486" lon="4.66723">
        <ele>456.2148438</ele>
      </trkpt>
      <trkpt lat="46.91497" lon="4.66767">
        <ele>455.1289063</ele>
      </trkpt>
      <trkpt lat="46.91503" lon="4.66807">
        <ele>453.125</ele>
      </trkpt>
      <trkpt lat="46.91502" lon="4.66849">
        <ele>449.328125</ele>
      </trkpt>
      <trkpt lat="46.915" lon="4.669">
        <ele>444.4453125</ele>
      </trkpt>
      <trkpt lat="46.91501" lon="4.6693">
        <ele>441.2460938</ele>
      </trkpt>
      <trkpt lat="46.91498" lon="4.66942">
        <ele>474</ele>
        <time>2012-08-22T13:31:14Z</time>
      </trkpt>
      <trkpt lat="46.91499" lon="4.66949">
        <ele>473</ele>
        <time>2012-08-22T13:31:15Z</time>
      </trkpt>
      <trkpt lat="46.915" lon="4.66956">
        <ele>471</ele>
        <time>2012-08-22T13:31:16Z</time>
      </trkpt>
      <trkpt lat="46.915" lon="4.66964">
        <ele>470</ele>
        <time>2012-08-22T13:31:17Z</time>
      </trkpt>
      <trkpt lat="46.91501" lon="4.66973">
        <ele>470</ele>
        <time>2012-08-22T13:31:18Z</time>
      </trkpt>
      <trkpt lat="46.91502" lon="4.66982">
        <ele>469</ele>
        <time>2012-08-22T13:31:19Z</time>
      </trkpt>
      <trkpt lat="46.91503" lon="4.66989">
        <ele>468</ele>
        <time>2012-08-22T13:31:20Z</time>
      </trkpt>
      <trkpt lat="46.91504" lon="4.66999">
        <ele>465</ele>
        <time>2012-08-22T13:31:22Z</time>
      </trkpt>
      <trkpt lat="46.91505" lon="4.6701">
        <ele>463</ele>
        <time>2012-08-22T13:31:24Z</time>
      </trkpt>
      <trkpt lat="46.91506" lon="4.6702">
        <ele>460</ele>
        <time>2012-08-22T13:31:26Z</time>
      </trkpt>
      <trkpt lat="46.91506" lon="4.6703">
        <ele>460</ele>
        <time>2012-08-22T13:31:28Z</time>
      </trkpt>
      <trkpt lat="46.91506" lon="4.67037">
        <ele>461</ele>
        <time>2012-08-22T13:31:30Z</time>
      </trkpt>
      <trkpt lat="46.91506" lon="4.67047">
        <ele>459</ele>
        <time>2012-08-22T13:31:32Z</time>
      </trkpt>
      <trkpt lat="46.91506" lon="4.67054">
        <ele>458</ele>
        <time>2012-08-22T13:31:33Z</time>
      </trkpt>
      <trkpt lat="46.91505" lon="4.67062">
        <ele>457</ele>
        <time>2012-08-22T13:31:34Z</time>
      </trkpt>
      <trkpt lat="46.91505" lon="4.6707">
        <ele>458</ele>
        <time>2012-08-22T13:31:35Z</time>
      </trkpt>
      <trkpt lat="46.91504" lon="4.67079">
        <ele>457</ele>
        <time>2012-08-22T13:31:36Z</time>
      </trkpt>
      <trkpt lat="46.91505" lon="4.67089">
        <ele>456</ele>
        <time>2012-08-22T13:31:37Z</time>
      </trkpt>
      <trkpt lat="46.91505" lon="4.67099">
        <ele>455</ele>
        <time>2012-08-22T13:31:38Z</time>
      </trkpt>
      <trkpt lat="46.91506" lon="4.67108">
        <ele>455</ele>
        <time>2012-08-22T13:31:39Z</time>
      </trkpt>
      <trkpt lat="46.91507" lon="4.67116">
        <ele>455</ele>
        <time>2012-08-22T13:31:40Z</time>
      </trkpt>
      <trkpt lat="46.91507" lon="4.67122">
        <ele>455</ele>
        <time>2012-08-22T13:31:41Z</time>
      </trkpt>
      <trkpt lat="46.91509" lon="4.67135">
        <ele>455</ele>
        <time>2012-08-22T13:31:43Z</time>
      </trkpt>
      <trkpt lat="46.9151" lon="4.67142">
        <ele>454</ele>
        <time>2012-08-22T13:31:44Z</time>
      </trkpt>
      <trkpt lat="46.91511" lon="4.6715">
        <ele>455</ele>
        <time>2012-08-22T13:31:45Z</time>
      </trkpt>
      <trkpt lat="46.91512" lon="4.67158">
        <ele>452</ele>
        <time>2012-08-22T13:31:46Z</time>
      </trkpt>
      <trkpt lat="46.91511" lon="4.67165">
        <ele>450</ele>
        <time>2012-08-22T13:31:47Z</time>
      </trkpt>
      <trkpt lat="46.9151" lon="4.67175">
        <ele>446</ele>
        <time>2012-08-22T13:31:48Z</time>
      </trkpt>
      <trkpt lat="46.91509" lon="4.67184">
        <ele>447</ele>
        <time>2012-08-22T13:31:49Z</time>
      </trkpt>
      <trkpt lat="46.91507" lon="4.67193">
        <ele>444</ele>
        <time>2012-08-22T13:31:50Z</time>
      </trkpt>
      <trkpt lat="46.91506" lon="4.672">
        <ele>443</ele>
        <time>2012-08-22T13:31:51Z</time>
      </trkpt>
      <trkpt lat="46.91504" lon="4.67207">
        <ele>442</ele>
        <time>2012-08-22T13:31:52Z</time>
      </trkpt>
      <trkpt lat="46.91503" lon="4.67214">
        <ele>442</ele>
        <time>2012-08-22T13:31:53Z</time>
      </trkpt>
      <trkpt lat="46.91502" lon="4.67224">
        <ele>440</ele>
        <time>2012-08-22T13:31:55Z</time>
      </trkpt>
      <trkpt lat="46.91498" lon="4.67228">
        <ele>441</ele>
        <time>2012-08-22T13:32:26Z</time>
      </trkpt>
      <trkpt lat="46.91494" lon="4.67228">
        <ele>443</ele>
        <time>2012-08-22T13:32:28Z</time>
      </trkpt>
      <trkpt lat="46.91487" lon="4.67226">
        <ele>444</ele>
        <time>2012-08-22T13:32:30Z</time>
      </trkpt>
      <trkpt lat="46.9148" lon="4.67223">
        <ele>443</ele>
        <time>2012-08-22T13:32:32Z</time>
      </trkpt>
      <trkpt lat="46.91475" lon="4.67221">
        <ele>442</ele>
        <time>2012-08-22T13:32:33Z</time>
      </trkpt>
      <trkpt lat="46.91469" lon="4.67219">
        <ele>441</ele>
        <time>2012-08-22T13:32:34Z</time>
      </trkpt>
      <trkpt lat="46.91462" lon="4.67218">
        <ele>439</ele>
        <time>2012-08-22T13:32:35Z</time>
      </trkpt>
      <trkpt lat="46.91456" lon="4.67216">
        <ele>439</ele>
        <time>2012-08-22T13:32:36Z</time>
      </trkpt>
      <trkpt lat="46.9145" lon="4.67215">
        <ele>438</ele>
        <time>2012-08-22T13:32:37Z</time>
      </trkpt>
      <trkpt lat="46.91444" lon="4.67214">
        <ele>438</ele>
        <time>2012-08-22T13:32:38Z</time>
      </trkpt>
      <trkpt lat="46.91439" lon="4.67214">
        <ele>438</ele>
        <time>2012-08-22T13:32:39Z</time>
      </trkpt>
      <trkpt lat="46.91431" lon="4.67214">
        <ele>435</ele>
        <time>2012-08-22T13:32:41Z</time>
      </trkpt>
      <trkpt lat="46.91426" lon="4.67216">
        <ele>432</ele>
        <time>2012-08-22T13:32:43Z</time>
      </trkpt>
      <trkpt lat="46.9142" lon="4.67217">
        <ele>429</ele>
        <time>2012-08-22T13:32:45Z</time>
      </trkpt>
      <trkpt lat="46.91412" lon="4.67218">
        <ele>427</ele>
        <time>2012-08-22T13:32:47Z</time>
      </trkpt>
      <trkpt lat="46.91407" lon="4.67219">
        <ele>426</ele>
        <time>2012-08-22T13:32:48Z</time>
      </trkpt>
      <trkpt lat="46.91402" lon="4.67219">
        <ele>425</ele>
        <time>2012-08-22T13:32:49Z</time>
      </trkpt>
      <trkpt lat="46.91396" lon="4.67219">
        <ele>423</ele>
        <time>2012-08-22T13:32:50Z</time>
      </trkpt>
      <trkpt lat="46.9139" lon="4.6722">
        <ele>422</ele>
        <time>2012-08-22T13:32:51Z</time>
      </trkpt>
      <trkpt lat="46.91384" lon="4.6722">
        <ele>421</ele>
        <time>2012-08-22T13:32:52Z</time>
      </trkpt>
      <trkpt lat="46.91378" lon="4.6722">
        <ele>419</ele>
        <time>2012-08-22T13:32:53Z</time>
      </trkpt>
      <trkpt lat="46.91372" lon="4.6722">
        <ele>418</ele>
        <time>2012-08-22T13:32:54Z</time>
      </trkpt>
      <trkpt lat="46.91368" lon="4.67221">
        <ele>416</ele>
        <time>2012-08-22T13:32:55Z</time>
      </trkpt>
      <trkpt lat="46.91363" lon="4.67221">
        <ele>415</ele>
        <time>2012-08-22T13:32:56Z</time>
      </trkpt>
      <trkpt lat="46.91355" lon="4.6722">
        <ele>413</ele>
        <time>2012-08-22T13:32:58Z</time>
      </trkpt>
      <trkpt lat="46.91345" lon="4.6722">
        <ele>411</ele>
        <time>2012-08-22T13:33:00Z</time>
      </trkpt>
      <trkpt lat="46.91339" lon="4.6722">
        <ele>410</ele>
        <time>2012-08-22T13:33:01Z</time>
      </trkpt>
      <trkpt lat="46.91333" lon="4.67219">
        <ele>409</ele>
        <time>2012-08-22T13:33:02Z</time>
      </trkpt>
      <trkpt lat="46.91327" lon="4.67218">
        <ele>410</ele>
        <time>2012-08-22T13:33:03Z</time>
      </trkpt>
      <trkpt lat="46.9132" lon="4.67218">
        <ele>409</ele>
        <time>2012-08-22T13:33:04Z</time>
      </trkpt>
      <trkpt lat="46.91315" lon="4.67218">
        <ele>407</ele>
        <time>2012-08-22T13:33:05Z</time>
      </trkpt>
      <trkpt lat="46.9131" lon="4.67217">
        <ele>407</ele>
        <time>2012-08-22T13:33:06Z</time>
      </trkpt>
      <trkpt lat="46.91302" lon="4.67217">
        <ele>406</ele>
        <time>2012-08-22T13:33:08Z</time>
      </trkpt>
      <trkpt lat="46.91295" lon="4.67218">
        <ele>405</ele>
        <time>2012-08-22T13:33:10Z</time>
      </trkpt>
      <trkpt lat="46.9129" lon="4.67218">
        <ele>403</ele>
        <time>2012-08-22T13:33:12Z</time>
      </trkpt>
      <trkpt lat="46.91284" lon="4.67216">
        <ele>404</ele>
        <time>2012-08-22T13:33:14Z</time>
      </trkpt>
      <trkpt lat="46.91277" lon="4.67213">
        <ele>403</ele>
        <time>2012-08-22T13:33:16Z</time>
      </trkpt>
      <trkpt lat="46.91272" lon="4.67211">
        <ele>404</ele>
        <time>2012-08-22T13:33:17Z</time>
      </trkpt>
      <trkpt lat="46.91265" lon="4.67206">
        <ele>401</ele>
        <time>2012-08-22T13:33:19Z</time>
      </trkpt>
      <trkpt lat="46.9126" lon="4.67204">
        <ele>399</ele>
        <time>2012-08-22T13:33:21Z</time>
      </trkpt>
      <trkpt lat="46.91255" lon="4.67211">
        <ele>398</ele>
        <time>2012-08-22T13:33:24Z</time>
      </trkpt>
      <trkpt lat="46.91252" lon="4.67226">
        <ele>395</ele>
        <time>2012-08-22T13:33:26Z</time>
      </trkpt>
      <trkpt lat="46.91251" lon="4.67235">
        <ele>391</ele>
        <time>2012-08-22T13:33:27Z</time>
      </trkpt>
      <trkpt lat="46.91248" lon="4.67245">
        <ele>386</ele>
        <time>2012-08-22T13:33:29Z</time>
      </trkpt>
      <trkpt lat="46.91238" lon="4.67246">
        <ele>385</ele>
        <time>2012-08-22T13:33:31Z</time>
      </trkpt>
      <trkpt lat="46.91231" lon="4.67243">
        <ele>385</ele>
        <time>2012-08-22T13:33:32Z</time>
      </trkpt>
      <trkpt lat="46.91223" lon="4.6724">
        <ele>384</ele>
        <time>2012-08-22T13:33:33Z</time>
      </trkpt>
      <trkpt lat="46.91214" lon="4.67235">
        <ele>384</ele>
        <time>2012-08-22T13:33:34Z</time>
      </trkpt>
      <trkpt lat="46.91203" lon="4.67229">
        <ele>385</ele>
        <time>2012-08-22T13:33:35Z</time>
      </trkpt>
      <trkpt lat="46.91192" lon="4.67224">
        <ele>384</ele>
        <time>2012-08-22T13:33:36Z</time>
      </trkpt>
      <trkpt lat="46.91181" lon="4.67219">
        <ele>384</ele>
        <time>2012-08-22T13:33:37Z</time>
      </trkpt>
      <trkpt lat="46.9117" lon="4.67214">
        <ele>383</ele>
        <time>2012-08-22T13:33:38Z</time>
      </trkpt>
      <trkpt lat="46.9116" lon="4.6721">
        <ele>381</ele>
        <time>2012-08-22T13:33:39Z</time>
      </trkpt>
      <trkpt lat="46.91151" lon="4.67207">
        <ele>379</ele>
        <time>2012-08-22T13:33:40Z</time>
      </trkpt>
      <trkpt lat="46.91142" lon="4.67204">
        <ele>378</ele>
        <time>2012-08-22T13:33:41Z</time>
      </trkpt>
      <trkpt lat="46.91132" lon="4.67201">
        <ele>378</ele>
        <time>2012-08-22T13:33:42Z</time>
      </trkpt>
      <trkpt lat="46.91121" lon="4.67199">
        <ele>377</ele>
        <time>2012-08-22T13:33:43Z</time>
      </trkpt>
      <trkpt lat="46.9111" lon="4.67198">
        <ele>374</ele>
        <time>2012-08-22T13:33:44Z</time>
      </trkpt>
      <trkpt lat="46.91099" lon="4.67198">
        <ele>371</ele>
        <time>2012-08-22T13:33:45Z</time>
      </trkpt>
      <trkpt lat="46.91089" lon="4.67199">
        <ele>370</ele>
        <time>2012-08-22T13:33:46Z</time>
      </trkpt>
      <trkpt lat="46.91079" lon="4.67201">
        <ele>367</ele>
        <time>2012-08-22T13:33:47Z</time>
      </trkpt>
      <trkpt lat="46.91069" lon="4.67203">
        <ele>365</ele>
        <time>2012-08-22T13:33:48Z</time>
      </trkpt>
      <trkpt lat="46.9106" lon="4.67205">
        <ele>363</ele>
        <time>2012-08-22T13:33:49Z</time>
      </trkpt>
      <trkpt lat="46.91052" lon="4.67205">
        <ele>362</ele>
        <time>2012-08-22T13:33:50Z</time>
      </trkpt>
      <trkpt lat="46.91045" lon="4.67203">
        <ele>361</ele>
        <time>2012-08-22T13:33:51Z</time>
      </trkpt>
      <trkpt lat="46.91038" lon="4.67201">
        <ele>361</ele>
        <time>2012-08-22T13:33:52Z</time>
      </trkpt>
      <trkpt lat="46.91032" lon="4.67199">
        <ele>360</ele>
        <time>2012-08-22T13:33:53Z</time>
      </trkpt>
      <trkpt lat="46.91025" lon="4.67196">
        <ele>359</ele>
        <time>2012-08-22T13:33:54Z</time>
      </trkpt>
      <trkpt lat="46.91016" lon="4.67193">
        <ele>358</ele>
        <time>2012-08-22T13:33:55Z</time>
      </trkpt>
      <trkpt lat="46.91007" lon="4.6719">
        <ele>356</ele>
        <time>2012-08-22T13:33:56Z</time>
      </trkpt>
      <trkpt lat="46.90998" lon="4.67186">
        <ele>354</ele>
        <time>2012-08-22T13:33:57Z</time>
      </trkpt>
      <trkpt lat="46.90988" lon="4.67182">
        <ele>354</ele>
        <time>2012-08-22T13:33:58Z</time>
      </trkpt>
      <trkpt lat="46.90978" lon="4.67182">
        <ele>353</ele>
        <time>2012-08-22T13:33:59Z</time>
      </trkpt>
      <trkpt lat="46.90967" lon="4.67183">
        <ele>351</ele>
        <time>2012-08-22T13:34:00Z</time>
      </trkpt>
      <trkpt lat="46.90956" lon="4.67184">
        <ele>350</ele>
        <time>2012-08-22T13:34:01Z</time>
      </trkpt>
      <trkpt lat="46.90946" lon="4.67185">
        <ele>348</ele>
        <time>2012-08-22T13:34:02Z</time>
      </trkpt>
      <trkpt lat="46.90935" lon="4.67187">
        <ele>345</ele>
        <time>2012-08-22T13:34:03Z</time>
      </trkpt>
      <trkpt lat="46.90926" lon="4.67188">
        <ele>343</ele>
        <time>2012-08-22T13:34:04Z</time>
      </trkpt>
      <trkpt lat="46.90916" lon="4.67189">
        <ele>341</ele>
        <time>2012-08-22T13:34:05Z</time>
      </trkpt>
      <trkpt lat="46.90908" lon="4.67191">
        <ele>339</ele>
        <time>2012-08-22T13:34:06Z</time>
      </trkpt>
      <trkpt lat="46.90901" lon="4.67192">
        <ele>338</ele>
        <time>2012-08-22T13:34:07Z</time>
      </trkpt>
      <trkpt lat="46.90895" lon="4.67193">
        <ele>337</ele>
        <time>2012-08-22T13:34:08Z</time>
      </trkpt>
      <trkpt lat="46.90888" lon="4.67194">
        <ele>335</ele>
        <time>2012-08-22T13:34:10Z</time>
      </trkpt>
      <trkpt lat="46.90882" lon="4.67193">
        <ele>336</ele>
        <time>2012-08-22T13:34:20Z</time>
      </trkpt>
      <trkpt lat="46.90873" lon="4.67191">
        <ele>333</ele>
        <time>2012-08-22T13:34:22Z</time>
      </trkpt>
      <trkpt lat="46.90865" lon="4.6719">
        <ele>332</ele>
        <time>2012-08-22T13:34:23Z</time>
      </trkpt>
      <trkpt lat="46.90856" lon="4.6719">
        <ele>332</ele>
        <time>2012-08-22T13:34:24Z</time>
      </trkpt>
      <trkpt lat="46.90845" lon="4.67189">
        <ele>330</ele>
        <time>2012-08-22T13:34:25Z</time>
      </trkpt>
      <trkpt lat="46.90834" lon="4.67188">
        <ele>332</ele>
        <time>2012-08-22T13:34:26Z</time>
      </trkpt>
      <trkpt lat="46.90822" lon="4.67187">
        <ele>333</ele>
        <time>2012-08-22T13:34:27Z</time>
      </trkpt>
      <trkpt lat="46.9081" lon="4.67186">
        <ele>334</ele>
        <time>2012-08-22T13:34:28Z</time>
      </trkpt>
      <trkpt lat="46.90798" lon="4.67184">
        <ele>334</ele>
        <time>2012-08-22T13:34:29Z</time>
      </trkpt>
      <trkpt lat="46.90785" lon="4.67183">
        <ele>333</ele>
        <time>2012-08-22T13:34:30Z</time>
      </trkpt>
      <trkpt lat="46.90771" lon="4.67182">
        <ele>333</ele>
        <time>2012-08-22T13:34:31Z</time>
      </trkpt>
      <trkpt lat="46.90758" lon="4.67182">
        <ele>331</ele>
        <time>2012-08-22T13:34:32Z</time>
      </trkpt>
      <trkpt lat="46.90744" lon="4.67182">
        <ele>330</ele>
        <time>2012-08-22T13:34:33Z</time>
      </trkpt>
      <trkpt lat="46.90731" lon="4.67181">
        <ele>330</ele>
        <time>2012-08-22T13:34:34Z</time>
      </trkpt>
      <trkpt lat="46.90718" lon="4.6718">
        <ele>329</ele>
        <time>2012-08-22T13:34:35Z</time>
      </trkpt>
      <trkpt lat="46.90705" lon="4.67179">
        <ele>326</ele>
        <time>2012-08-22T13:34:36Z</time>
      </trkpt>
      <trkpt lat="46.90692" lon="4.67176">
        <ele>325</ele>
        <time>2012-08-22T13:34:37Z</time>
      </trkpt>
      <trkpt lat="46.90678" lon="4.67173">
        <ele>325</ele>
        <time>2012-08-22T13:34:38Z</time>
      </trkpt>
      <trkpt lat="46.90665" lon="4.6717">
        <ele>323</ele>
        <time>2012-08-22T13:34:39Z</time>
      </trkpt>
      <trkpt lat="46.90652" lon="4.67166">
        <ele>321</ele>
        <time>2012-08-22T13:34:40Z</time>
      </trkpt>
      <trkpt lat="46.90639" lon="4.67162">
        <ele>320</ele>
        <time>2012-08-22T13:34:41Z</time>
      </trkpt>
      <trkpt lat="46.90626" lon="4.67157">
        <ele>319</ele>
        <time>2012-08-22T13:34:42Z</time>
      </trkpt>
      <trkpt lat="46.90613" lon="4.67152">
        <ele>318</ele>
        <time>2012-08-22T13:34:43Z</time>
      </trkpt>
      <trkpt lat="46.906" lon="4.67148">
        <ele>317</ele>
        <time>2012-08-22T13:34:44Z</time>
      </trkpt>
      <trkpt lat="46.90587" lon="4.67144">
        <ele>317</ele>
        <time>2012-08-22T13:34:45Z</time>
      </trkpt>
      <trkpt lat="46.90575" lon="4.6714">
        <ele>317</ele>
        <time>2012-08-22T13:34:46Z</time>
      </trkpt>
      <trkpt lat="46.90564" lon="4.67137">
        <ele>316</ele>
        <time>2012-08-22T13:34:47Z</time>
      </trkpt>
      <trkpt lat="46.90553" lon="4.67135">
        <ele>315</ele>
        <time>2012-08-22T13:34:48Z</time>
      </trkpt>
      <trkpt lat="46.90543" lon="4.67132">
        <ele>314</ele>
        <time>2012-08-22T13:34:49Z</time>
      </trkpt>
      <trkpt lat="46.90535" lon="4.6713">
        <ele>312</ele>
        <time>2012-08-22T13:34:50Z</time>
      </trkpt>
      <trkpt lat="46.90527" lon="4.67128">
        <ele>312</ele>
        <time>2012-08-22T13:34:51Z</time>
      </trkpt>
      <trkpt lat="46.90519" lon="4.67123">
        <ele>312</ele>
        <time>2012-08-22T13:34:52Z</time>
      </trkpt>
      <trkpt lat="46.90511" lon="4.67116">
        <ele>313</ele>
        <time>2012-08-22T13:34:53Z</time>
      </trkpt>
      <trkpt lat="46.90503" lon="4.67106">
        <ele>312</ele>
        <time>2012-08-22T13:34:54Z</time>
      </trkpt>
      <trkpt lat="46.90494" lon="4.67093">
        <ele>311</ele>
        <time>2012-08-22T13:34:55Z</time>
      </trkpt>
      <trkpt lat="46.90486" lon="4.67082">
        <ele>312</ele>
        <time>2012-08-22T13:34:56Z</time>
      </trkpt>
      <trkpt lat="46.90478" lon="4.67071">
        <ele>313</ele>
        <time>2012-08-22T13:34:57Z</time>
      </trkpt>
      <trkpt lat="46.90469" lon="4.67062">
        <ele>314</ele>
        <time>2012-08-22T13:34:58Z</time>
      </trkpt>
      <trkpt lat="46.90459" lon="4.67055">
        <ele>315</ele>
        <time>2012-08-22T13:34:59Z</time>
      </trkpt>
      <trkpt lat="46.90449" lon="4.67049">
        <ele>314</ele>
        <time>2012-08-22T13:35:00Z</time>
      </trkpt>
      <trkpt lat="46.90436" lon="4.67047">
        <ele>312</ele>
        <time>2012-08-22T13:35:01Z</time>
      </trkpt>
      <trkpt lat="46.90423" lon="4.67044">
        <ele>311</ele>
        <time>2012-08-22T13:35:02Z</time>
      </trkpt>
      <trkpt lat="46.90409" lon="4.67043">
        <ele>310</ele>
        <time>2012-08-22T13:35:03Z</time>
      </trkpt>
      <trkpt lat="46.90395" lon="4.67041">
        <ele>309</ele>
        <time>2012-08-22T13:35:04Z</time>
      </trkpt>
      <trkpt lat="46.90383" lon="4.6704">
        <ele>309</ele>
        <time>2012-08-22T13:35:05Z</time>
      </trkpt>
      <trkpt lat="46.90374" lon="4.67039">
        <ele>307</ele>
        <time>2012-08-22T13:35:06Z</time>
      </trkpt>
      <trkpt lat="46.90365" lon="4.67037">
        <ele>307</ele>
        <time>2012-08-22T13:35:07Z</time>
      </trkpt>
      <trkpt lat="46.90356" lon="4.67035">
        <ele>306</ele>
        <time>2012-08-22T13:35:08Z</time>
      </trkpt>
      <trkpt lat="46.90346" lon="4.67032">
        <ele>305</ele>
        <time>2012-08-22T13:35:09Z</time>
      </trkpt>
      <trkpt lat="46.90334" lon="4.67028">
        <ele>306</ele>
        <time>2012-08-22T13:35:10Z</time>
      </trkpt>
      <trkpt lat="46.90322" lon="4.67024">
        <ele>305</ele>
        <time>2012-08-22T13:35:11Z</time>
      </trkpt>
      <trkpt lat="46.9031" lon="4.67018">
        <ele>304</ele>
        <time>2012-08-22T13:35:12Z</time>
      </trkpt>
      <trkpt lat="46.90298" lon="4.67012">
        <ele>303</ele>
        <time>2012-08-22T13:35:13Z</time>
      </trkpt>
      <trkpt lat="46.90286" lon="4.67004">
        <ele>303</ele>
        <time>2012-08-22T13:35:14Z</time>
      </trkpt>
      <trkpt lat="46.90274" lon="4.66995">
        <ele>302</ele>
        <time>2012-08-22T13:35:15Z</time>
      </trkpt>
      <trkpt lat="46.90263" lon="4.66986">
        <ele>300</ele>
        <time>2012-08-22T13:35:16Z</time>
      </trkpt>
      <trkpt lat="46.90253" lon="4.66978">
        <ele>299</ele>
        <time>2012-08-22T13:35:17Z</time>
      </trkpt>
      <trkpt lat="46.90243" lon="4.66971">
        <ele>299</ele>
        <time>2012-08-22T13:35:18Z</time>
      </trkpt>
      <trkpt lat="46.90233" lon="4.66968">
        <ele>297</ele>
        <time>2012-08-22T13:35:19Z</time>
      </trkpt>
      <trkpt lat="46.90222" lon="4.66967">
        <ele>298</ele>
        <time>2012-08-22T13:35:20Z</time>
      </trkpt>
      <trkpt lat="46.90211" lon="4.66971">
        <ele>299</ele>
        <time>2012-08-22T13:35:21Z</time>
      </trkpt>
      <trkpt lat="46.90198" lon="4.66973">
        <ele>299</ele>
        <time>2012-08-22T13:35:22Z</time>
      </trkpt>
      <trkpt lat="46.90185" lon="4.66976">
        <ele>296</ele>
        <time>2012-08-22T13:35:23Z</time>
      </trkpt>
      <trkpt lat="46.90172" lon="4.66979">
        <ele>294</ele>
        <time>2012-08-22T13:35:24Z</time>
      </trkpt>
      <trkpt lat="46.9016" lon="4.66982">
        <ele>293</ele>
        <time>2012-08-22T13:35:25Z</time>
      </trkpt>
      <trkpt lat="46.9015" lon="4.66984">
        <ele>291</ele>
        <time>2012-08-22T13:35:26Z</time>
      </trkpt>
      <trkpt lat="46.90143" lon="4.66985">
        <ele>291</ele>
        <time>2012-08-22T13:35:27Z</time>
      </trkpt>
      <trkpt lat="46.90137" lon="4.66986">
        <ele>290</ele>
        <time>2012-08-22T13:35:28Z</time>
      </trkpt>
      <trkpt lat="46.90132" lon="4.66987">
        <ele>289</ele>
        <time>2012-08-22T13:35:29Z</time>
      </trkpt>
      <trkpt lat="46.90125" lon="4.66983">
        <ele>290</ele>
        <time>2012-08-22T13:35:30Z</time>
      </trkpt>
      <trkpt lat="46.90116" lon="4.66979">
        <ele>288</ele>
        <time>2012-08-22T13:35:31Z</time>
      </trkpt>
      <trkpt lat="46.90108" lon="4.66975">
        <ele>287</ele>
        <time>2012-08-22T13:35:32Z</time>
      </trkpt>
      <trkpt lat="46.90097" lon="4.66971">
        <ele>286</ele>
        <time>2012-08-22T13:35:33Z</time>
      </trkpt>
      <trkpt lat="46.90087" lon="4.66969">
        <ele>285</ele>
        <time>2012-08-22T13:35:34Z</time>
      </trkpt>
      <trkpt lat="46.90076" lon="4.66967">
        <ele>283</ele>
        <time>2012-08-22T13:35:35Z</time>
      </trkpt>
      <trkpt lat="46.90065" lon="4.66969">
        <ele>283</ele>
        <time>2012-08-22T13:35:36Z</time>
      </trkpt>
      <trkpt lat="46.90055" lon="4.66971">
        <ele>282</ele>
        <time>2012-08-22T13:35:37Z</time>
      </trkpt>
      <trkpt lat="46.90046" lon="4.66974">
        <ele>280</ele>
        <time>2012-08-22T13:35:38Z</time>
      </trkpt>
      <trkpt lat="46.90039" lon="4.66977">
        <ele>279</ele>
        <time>2012-08-22T13:35:39Z</time>
      </trkpt>
      <trkpt lat="46.90033" lon="4.6698">
        <ele>278</ele>
        <time>2012-08-22T13:35:41Z</time>
      </trkpt>
      <trkpt lat="46.90033" lon="4.6698">
        <ele>278</ele>
        <time>2012-08-22T13:35:41Z</time>
      </trkpt>
      <trkpt lat="46.90033" lon="4.6698">
        <ele>278</ele>
        <time>2012-08-22T13:35:46Z</time>
      </trkpt>
      <trkpt lat="46.90029" lon="4.66985">
        <ele>282</ele>
        <time>2012-08-22T13:35:48Z</time>
      </trkpt>
      <trkpt lat="46.90024" lon="4.66988">
        <ele>278</ele>
        <time>2012-08-22T13:35:51Z</time>
      </trkpt>
      <trkpt lat="46.90015" lon="4.6699">
        <ele>278</ele>
        <time>2012-08-22T13:35:53Z</time>
      </trkpt>
      <trkpt lat="46.90009" lon="4.66991">
        <ele>278</ele>
        <time>2012-08-22T13:35:54Z</time>
      </trkpt>
      <trkpt lat="46.90001" lon="4.66992">
        <ele>279</ele>
        <time>2012-08-22T13:35:55Z</time>
      </trkpt>
      <trkpt lat="46.89993" lon="4.66992">
        <ele>279</ele>
        <time>2012-08-22T13:35:56Z</time>
      </trkpt>
      <trkpt lat="46.89984" lon="4.66991">
        <ele>277</ele>
        <time>2012-08-22T13:35:57Z</time>
      </trkpt>
      <trkpt lat="46.89974" lon="4.66989">
        <ele>277</ele>
        <time>2012-08-22T13:35:58Z</time>
      </trkpt>
      <trkpt lat="46.89965" lon="4.66986">
        <ele>276</ele>
        <time>2012-08-22T13:35:59Z</time>
      </trkpt>
      <trkpt lat="46.89955" lon="4.66982">
        <ele>280</ele>
        <time>2012-08-22T13:36:00Z</time>
      </trkpt>
      <trkpt lat="46.89944" lon="4.66979">
        <ele>281</ele>
        <time>2012-08-22T13:36:01Z</time>
      </trkpt>
      <trkpt lat="46.89934" lon="4.66975">
        <ele>282</ele>
        <time>2012-08-22T13:36:02Z</time>
      </trkpt>
      <trkpt lat="46.89924" lon="4.66972">
        <ele>282</ele>
        <time>2012-08-22T13:36:03Z</time>
      </trkpt>
      <trkpt lat="46.89915" lon="4.66968">
        <ele>283</ele>
        <time>2012-08-22T13:36:04Z</time>
      </trkpt>
      <trkpt lat="46.89905" lon="4.66965">
        <ele>282</ele>
        <time>2012-08-22T13:36:05Z</time>
      </trkpt>
      <trkpt lat="46.89896" lon="4.66962">
        <ele>279</ele>
        <time>2012-08-22T13:36:06Z</time>
      </trkpt>
      <trkpt lat="46.89887" lon="4.6696">
        <ele>277</ele>
        <time>2012-08-22T13:36:07Z</time>
      </trkpt>
      <trkpt lat="46.89878" lon="4.66957">
        <ele>276</ele>
        <time>2012-08-22T13:36:08Z</time>
      </trkpt>
      <trkpt lat="46.89869" lon="4.66954">
        <ele>275</ele>
        <time>2012-08-22T13:36:09Z</time>
      </trkpt>
      <trkpt lat="46.8986" lon="4.66952">
        <ele>274</ele>
        <time>2012-08-22T13:36:10Z</time>
      </trkpt>
      <trkpt lat="46.8985" lon="4.66949">
        <ele>274</ele>
        <time>2012-08-22T13:36:11Z</time>
      </trkpt>
      <trkpt lat="46.8984" lon="4.66946">
        <ele>274</ele>
        <time>2012-08-22T13:36:12Z</time>
      </trkpt>
      <trkpt lat="46.8983" lon="4.66942">
        <ele>275</ele>
        <time>2012-08-22T13:36:13Z</time>
      </trkpt>
      <trkpt lat="46.8982" lon="4.66939">
        <ele>275</ele>
        <time>2012-08-22T13:36:14Z</time>
      </trkpt>
      <trkpt lat="46.8981" lon="4.66936">
        <ele>275</ele>
        <time>2012-08-22T13:36:15Z</time>
      </trkpt>
      <trkpt lat="46.898" lon="4.66933">
        <ele>276</ele>
        <time>2012-08-22T13:36:16Z</time>
      </trkpt>
      <trkpt lat="46.89791" lon="4.66929">
        <ele>278</ele>
        <time>2012-08-22T13:36:17Z</time>
      </trkpt>
      <trkpt lat="46.89783" lon="4.66925">
        <ele>276</ele>
        <time>2012-08-22T13:36:18Z</time>
      </trkpt>
      <trkpt lat="46.89776" lon="4.66921">
        <ele>271</ele>
        <time>2012-08-22T13:36:19Z</time>
      </trkpt>
      <trkpt lat="46.89769" lon="4.66917">
        <ele>270</ele>
        <time>2012-08-22T13:36:20Z</time>
      </trkpt>
      <trkpt lat="46.89762" lon="4.66914">
        <ele>269</ele>
        <time>2012-08-22T13:36:21Z</time>
      </trkpt>
      <trkpt lat="46.89757" lon="4.6691">
        <ele>269</ele>
        <time>2012-08-22T13:36:22Z</time>
      </trkpt>
      <trkpt lat="46.89752" lon="4.66908">
        <ele>270</ele>
        <time>2012-08-22T13:36:23Z</time>
      </trkpt>
      <trkpt lat="46.89747" lon="4.66905">
        <ele>270</ele>
        <time>2012-08-22T13:36:24Z</time>
      </trkpt>
      <trkpt lat="46.89741" lon="4.66901">
        <ele>270</ele>
        <time>2012-08-22T13:36:25Z</time>
      </trkpt>
      <trkpt lat="46.89735" lon="4.66897">
        <ele>271</ele>
        <time>2012-08-22T13:36:26Z</time>
      </trkpt>
      <trkpt lat="46.89728" lon="4.66893">
        <ele>271</ele>
        <time>2012-08-22T13:36:27Z</time>
      </trkpt>
      <trkpt lat="46.8972" lon="4.66887">
        <ele>273</ele>
        <time>2012-08-22T13:36:28Z</time>
      </trkpt>
      <trkpt lat="46.89713" lon="4.66881">
        <ele>274</ele>
        <time>2012-08-22T13:36:29Z</time>
      </trkpt>
      <trkpt lat="46.89705" lon="4.66876">
        <ele>275</ele>
        <time>2012-08-22T13:36:30Z</time>
      </trkpt>
      <trkpt lat="46.89699" lon="4.6687">
        <ele>275</ele>
        <time>2012-08-22T13:36:31Z</time>
      </trkpt>
      <trkpt lat="46.89692" lon="4.66866">
        <ele>275</ele>
        <time>2012-08-22T13:36:32Z</time>
      </trkpt>
      <trkpt lat="46.89687" lon="4.66862">
        <ele>275</ele>
        <time>2012-08-22T13:36:33Z</time>
      </trkpt>
      <trkpt lat="46.89682" lon="4.66858">
        <ele>275</ele>
        <time>2012-08-22T13:36:34Z</time>
      </trkpt>
      <trkpt lat="46.89676" lon="4.66852">
        <ele>274</ele>
        <time>2012-08-22T13:36:35Z</time>
      </trkpt>
      <trkpt lat="46.89669" lon="4.66846">
        <ele>275</ele>
        <time>2012-08-22T13:36:36Z</time>
      </trkpt>
      <trkpt lat="46.89661" lon="4.66839">
        <ele>275</ele>
        <time>2012-08-22T13:36:37Z</time>
      </trkpt>
      <trkpt lat="46.89652" lon="4.6683">
        <ele>276</ele>
        <time>2012-08-22T13:36:38Z</time>
      </trkpt>
      <trkpt lat="46.89643" lon="4.66822">
        <ele>276</ele>
        <time>2012-08-22T13:36:39Z</time>
      </trkpt>
      <trkpt lat="46.89634" lon="4.66814">
        <ele>276</ele>
        <time>2012-08-22T13:36:40Z</time>
      </trkpt>
      <trkpt lat="46.89625" lon="4.66807">
        <ele>277</ele>
        <time>2012-08-22T13:36:41Z</time>
      </trkpt>
      <trkpt lat="46.89618" lon="4.668">
        <ele>276</ele>
        <time>2012-08-22T13:36:42Z</time>
      </trkpt>
      <trkpt lat="46.89611" lon="4.66795">
        <ele>275</ele>
        <time>2012-08-22T13:36:43Z</time>
      </trkpt>
      <trkpt lat="46.89608" lon="4.6679">
        <ele>277</ele>
        <time>2012-08-22T13:36:44Z</time>
      </trkpt>
      <trkpt lat="46.89605" lon="4.66784">
        <ele>278</ele>
        <time>2012-08-22T13:36:45Z</time>
      </trkpt>
      <trkpt lat="46.89603" lon="4.66777">
        <ele>277</ele>
        <time>2012-08-22T13:36:46Z</time>
      </trkpt>
      <trkpt lat="46.89602" lon="4.66768">
        <ele>276</ele>
        <time>2012-08-22T13:36:47Z</time>
      </trkpt>
      <trkpt lat="46.89599" lon="4.66756">
        <ele>279</ele>
        <time>2012-08-22T13:36:48Z</time>
      </trkpt>
      <trkpt lat="46.89596" lon="4.66745">
        <ele>279</ele>
        <time>2012-08-22T13:36:49Z</time>
      </trkpt>
      <trkpt lat="46.89593" lon="4.66732">
        <ele>280</ele>
        <time>2012-08-22T13:36:50Z</time>
      </trkpt>
      <trkpt lat="46.8959" lon="4.66718">
        <ele>280</ele>
        <time>2012-08-22T13:36:51Z</time>
      </trkpt>
      <trkpt lat="46.89586" lon="4.66706">
        <ele>278</ele>
        <time>2012-08-22T13:36:52Z</time>
      </trkpt>
      <trkpt lat="46.89583" lon="4.66696">
        <ele>277</ele>
        <time>2012-08-22T13:36:53Z</time>
      </trkpt>
      <trkpt lat="46.89579" lon="4.66686">
        <ele>280</ele>
        <time>2012-08-22T13:36:54Z</time>
      </trkpt>
      <trkpt lat="46.89575" lon="4.66677">
        <ele>281</ele>
        <time>2012-08-22T13:36:55Z</time>
      </trkpt>
      <trkpt lat="46.8957" lon="4.66667">
        <ele>280</ele>
        <time>2012-08-22T13:36:56Z</time>
      </trkpt>
      <trkpt lat="46.89565" lon="4.66658">
        <ele>281</ele>
        <time>2012-08-22T13:36:57Z</time>
      </trkpt>
      <trkpt lat="46.89559" lon="4.66647">
        <ele>280</ele>
        <time>2012-08-22T13:36:58Z</time>
      </trkpt>
      <trkpt lat="46.89552" lon="4.66636">
        <ele>281</ele>
        <time>2012-08-22T13:36:59Z</time>
      </trkpt>
      <trkpt lat="46.89545" lon="4.66625">
        <ele>281</ele>
        <time>2012-08-22T13:37:00Z</time>
      </trkpt>
      <trkpt lat="46.89537" lon="4.66614">
        <ele>283</ele>
        <time>2012-08-22T13:37:01Z</time>
      </trkpt>
      <trkpt lat="46.89529" lon="4.66604">
        <ele>284</ele>
        <time>2012-08-22T13:37:02Z</time>
      </trkpt>
      <trkpt lat="46.89521" lon="4.66594">
        <ele>284</ele>
        <time>2012-08-22T13:37:03Z</time>
      </trkpt>
      <trkpt lat="46.89513" lon="4.66585">
        <ele>284</ele>
        <time>2012-08-22T13:37:04Z</time>
      </trkpt>
      <trkpt lat="46.89505" lon="4.66577">
        <ele>287</ele>
        <time>2012-08-22T13:37:05Z</time>
      </trkpt>
      <trkpt lat="46.89497" lon="4.6657">
        <ele>289</ele>
        <time>2012-08-22T13:37:06Z</time>
      </trkpt>
      <trkpt lat="46.8949" lon="4.66563">
        <ele>291</ele>
        <time>2012-08-22T13:37:07Z</time>
      </trkpt>
      <trkpt lat="46.89481" lon="4.66556">
        <ele>294</ele>
        <time>2012-08-22T13:37:08Z</time>
      </trkpt>
      <trkpt lat="46.89471" lon="4.66547">
        <ele>295</ele>
        <time>2012-08-22T13:37:09Z</time>
      </trkpt>
      <trkpt lat="46.8946" lon="4.66539">
        <ele>296</ele>
        <time>2012-08-22T13:37:10Z</time>
      </trkpt>
      <trkpt lat="46.89451" lon="4.66531">
        <ele>296</ele>
        <time>2012-08-22T13:37:11Z</time>
      </trkpt>
      <trkpt lat="46.89443" lon="4.66524">
        <ele>298</ele>
        <time>2012-08-22T13:37:12Z</time>
      </trkpt>
      <trkpt lat="46.89436" lon="4.66518">
        <ele>298</ele>
        <time>2012-08-22T13:37:13Z</time>
      </trkpt>
      <trkpt lat="46.8943" lon="4.66513">
        <ele>297</ele>
        <time>2012-08-22T13:37:14Z</time>
      </trkpt>
      <trkpt lat="46.89423" lon="4.6651">
        <ele>298</ele>
        <time>2012-08-22T13:37:15Z</time>
      </trkpt>
      <trkpt lat="46.89417" lon="4.66508">
        <ele>301</ele>
        <time>2012-08-22T13:37:20Z</time>
      </trkpt>
      <trkpt lat="46.89411" lon="4.66516">
        <ele>296</ele>
        <time>2012-08-22T13:37:22Z</time>
      </trkpt>
      <trkpt lat="46.89409" lon="4.66523">
        <ele>294</ele>
        <time>2012-08-22T13:37:23Z</time>
      </trkpt>
      <trkpt lat="46.89405" lon="4.66532">
        <ele>293</ele>
        <time>2012-08-22T13:37:24Z</time>
      </trkpt>
      <trkpt lat="46.89402" lon="4.66544">
        <ele>294</ele>
        <time>2012-08-22T13:37:25Z</time>
      </trkpt>
      <trkpt lat="46.89399" lon="4.66556">
        <ele>293</ele>
        <time>2012-08-22T13:37:26Z</time>
      </trkpt>
      <trkpt lat="46.89399" lon="4.66568">
        <ele>294</ele>
        <time>2012-08-22T13:37:27Z</time>
      </trkpt>
      <trkpt lat="46.89401" lon="4.66579">
        <ele>293</ele>
        <time>2012-08-22T13:37:28Z</time>
      </trkpt>
      <trkpt lat="46.89406" lon="4.66588">
        <ele>293</ele>
        <time>2012-08-22T13:37:29Z</time>
      </trkpt>
      <trkpt lat="46.89412" lon="4.66598">
        <ele>291</ele>
        <time>2012-08-22T13:37:30Z</time>
      </trkpt>
      <trkpt lat="46.89421" lon="4.66606">
        <ele>287</ele>
        <time>2012-08-22T13:37:31Z</time>
      </trkpt>
      <trkpt lat="46.8943" lon="4.66615">
        <ele>284</ele>
        <time>2012-08-22T13:37:32Z</time>
      </trkpt>
      <trkpt lat="46.89437" lon="4.66623">
        <ele>282</ele>
        <time>2012-08-22T13:37:33Z</time>
      </trkpt>
      <trkpt lat="46.89442" lon="4.66632">
        <ele>280</ele>
        <time>2012-08-22T13:37:34Z</time>
      </trkpt>
      <trkpt lat="46.89446" lon="4.66642">
        <ele>280</ele>
        <time>2012-08-22T13:37:35Z</time>
      </trkpt>
      <trkpt lat="46.89447" lon="4.66654">
        <ele>278</ele>
        <time>2012-08-22T13:37:36Z</time>
      </trkpt>
      <trkpt lat="46.89446" lon="4.66666">
        <ele>280</ele>
        <time>2012-08-22T13:37:37Z</time>
      </trkpt>
      <trkpt lat="46.89442" lon="4.66678">
        <ele>280</ele>
        <time>2012-08-22T13:37:38Z</time>
      </trkpt>
      <trkpt lat="46.89439" lon="4.66692">
        <ele>282</ele>
        <time>2012-08-22T13:37:39Z</time>
      </trkpt>
      <trkpt lat="46.89434" lon="4.66708">
        <ele>283</ele>
        <time>2012-08-22T13:37:40Z</time>
      </trkpt>
      <trkpt lat="46.89431" lon="4.66723">
        <ele>284</ele>
        <time>2012-08-22T13:37:41Z</time>
      </trkpt>
      <trkpt lat="46.89428" lon="4.6674">
        <ele>282</ele>
        <time>2012-08-22T13:37:42Z</time>
      </trkpt>
      <trkpt lat="46.89426" lon="4.66759">
        <ele>284</ele>
        <time>2012-08-22T13:37:43Z</time>
      </trkpt>
      <trkpt lat="46.89425" lon="4.66779">
        <ele>286</ele>
        <time>2012-08-22T13:37:44Z</time>
      </trkpt>
      <trkpt lat="46.89425" lon="4.66796">
        <ele>287</ele>
        <time>2012-08-22T13:37:45Z</time>
      </trkpt>
      <trkpt lat="46.89425" lon="4.66813">
        <ele>286</ele>
        <time>2012-08-22T13:37:46Z</time>
      </trkpt>
      <trkpt lat="46.89425" lon="4.66831">
        <ele>284</ele>
        <time>2012-08-22T13:37:47Z</time>
      </trkpt>
      <trkpt lat="46.89424" lon="4.66847">
        <ele>282</ele>
        <time>2012-08-22T13:37:48Z</time>
      </trkpt>
      <trkpt lat="46.89424" lon="4.66864">
        <ele>284</ele>
        <time>2012-08-22T13:37:49Z</time>
      </trkpt>
      <trkpt lat="46.89423" lon="4.66882">
        <ele>283</ele>
        <time>2012-08-22T13:37:50Z</time>
      </trkpt>
      <trkpt lat="46.89422" lon="4.66899">
        <ele>282</ele>
        <time>2012-08-22T13:37:51Z</time>
      </trkpt>
      <trkpt lat="46.89418" lon="4.66912">
        <ele>285</ele>
        <time>2012-08-22T13:37:52Z</time>
      </trkpt>
      <trkpt lat="46.89415" lon="4.66925">
        <ele>287</ele>
        <time>2012-08-22T13:37:53Z</time>
      </trkpt>
      <trkpt lat="46.89411" lon="4.66938">
        <ele>286</ele>
        <time>2012-08-22T13:37:54Z</time>
      </trkpt>
      <trkpt lat="46.89407" lon="4.66949">
        <ele>289</ele>
        <time>2012-08-22T13:37:55Z</time>
      </trkpt>
      <trkpt lat="46.89406" lon="4.66959">
        <ele>289</ele>
        <time>2012-08-22T13:37:56Z</time>
      </trkpt>
      <trkpt lat="46.89408" lon="4.66968">
        <ele>290</ele>
        <time>2012-08-22T13:37:57Z</time>
      </trkpt>
      <trkpt lat="46.89412" lon="4.66979">
        <ele>290</ele>
        <time>2012-08-22T13:37:58Z</time>
      </trkpt>
      <trkpt lat="46.89417" lon="4.66992">
        <ele>290</ele>
        <time>2012-08-22T13:37:59Z</time>
      </trkpt>
      <trkpt lat="46.89423" lon="4.67005">
        <ele>289</ele>
        <time>2012-08-22T13:38:00Z</time>
      </trkpt>
      <trkpt lat="46.89428" lon="4.67017">
        <ele>286</ele>
        <time>2012-08-22T13:38:01Z</time>
      </trkpt>
      <trkpt lat="46.89433" lon="4.67028">
        <ele>283</ele>
        <time>2012-08-22T13:38:02Z</time>
      </trkpt>
      <trkpt lat="46.89437" lon="4.67038">
        <ele>281</ele>
        <time>2012-08-22T13:38:03Z</time>
      </trkpt>
      <trkpt lat="46.89439" lon="4.67049">
        <ele>281</ele>
        <time>2012-08-22T13:38:04Z</time>
      </trkpt>
      <trkpt lat="46.89439" lon="4.67063">
        <ele>278</ele>
        <time>2012-08-22T13:38:05Z</time>
      </trkpt>
      <trkpt lat="46.89438" lon="4.67076">
        <ele>280</ele>
        <time>2012-08-22T13:38:06Z</time>
      </trkpt>
      <trkpt lat="46.89437" lon="4.67089">
        <ele>283</ele>
        <time>2012-08-22T13:38:07Z</time>
      </trkpt>
      <trkpt lat="46.89435" lon="4.67106">
        <ele>283</ele>
        <time>2012-08-22T13:38:08Z</time>
      </trkpt>
      <trkpt lat="46.89433" lon="4.67123">
        <ele>283</ele>
        <time>2012-08-22T13:38:09Z</time>
      </trkpt>
      <trkpt lat="46.89431" lon="4.67141">
        <ele>282</ele>
        <time>2012-08-22T13:38:10Z</time>
      </trkpt>
      <trkpt lat="46.89429" lon="4.6716">
        <ele>282</ele>
        <time>2012-08-22T13:38:11Z</time>
      </trkpt>
      <trkpt lat="46.89428" lon="4.67178">
        <ele>281</ele>
        <time>2012-08-22T13:38:12Z</time>
      </trkpt>
      <trkpt lat="46.89428" lon="4.67197">
        <ele>280</ele>
        <time>2012-08-22T13:38:13Z</time>
      </trkpt>
      <trkpt lat="46.89427" lon="4.67216">
        <ele>277</ele>
        <time>2012-08-22T13:38:14Z</time>
      </trkpt>
      <trkpt lat="46.89427" lon="4.67235">
        <ele>276</ele>
        <time>2012-08-22T13:38:15Z</time>
      </trkpt>
      <trkpt lat="46.89426" lon="4.67254">
        <ele>276</ele>
        <time>2012-08-22T13:38:16Z</time>
      </trkpt>
      <trkpt lat="46.89426" lon="4.67271">
        <ele>277</ele>
        <time>2012-08-22T13:38:17Z</time>
      </trkpt>
      <trkpt lat="46.89425" lon="4.67288">
        <ele>272</ele>
        <time>2012-08-22T13:38:18Z</time>
      </trkpt>
      <trkpt lat="46.89425" lon="4.67306">
        <ele>271</ele>
        <time>2012-08-22T13:38:19Z</time>
      </trkpt>
      <trkpt lat="46.89425" lon="4.67326">
        <ele>271</ele>
        <time>2012-08-22T13:38:20Z</time>
      </trkpt>
      <trkpt lat="46.89425" lon="4.67346">
        <ele>269</ele>
        <time>2012-08-22T13:38:21Z</time>
      </trkpt>
      <trkpt lat="46.89424" lon="4.67364">
        <ele>267</ele>
        <time>2012-08-22T13:38:22Z</time>
      </trkpt>
      <trkpt lat="46.89424" lon="4.67378">
        <ele>267</ele>
        <time>2012-08-22T13:38:23Z</time>
      </trkpt>
      <trkpt lat="46.89424" lon="4.67391">
        <ele>265</ele>
        <time>2012-08-22T13:38:24Z</time>
      </trkpt>
      <trkpt lat="46.89424" lon="4.67402">
        <ele>265</ele>
        <time>2012-08-22T13:38:25Z</time>
      </trkpt>
      <trkpt lat="46.89424" lon="4.6741">
        <ele>265</ele>
        <time>2012-08-22T13:38:26Z</time>
      </trkpt>
      <trkpt lat="46.89424" lon="4.67419">
        <ele>262</ele>
        <time>2012-08-22T13:38:28Z</time>
      </trkpt>
      <trkpt lat="46.89421" lon="4.67432">
        <ele>256</ele>
        <time>2012-08-22T13:38:31Z</time>
      </trkpt>
      <trkpt lat="46.89416" lon="4.67443">
        <ele>257</ele>
        <time>2012-08-22T13:38:32Z</time>
      </trkpt>
      <trkpt lat="46.8941" lon="4.67457">
        <ele>260</ele>
        <time>2012-08-22T13:38:33Z</time>
      </trkpt>
      <trkpt lat="46.89403" lon="4.67472">
        <ele>262</ele>
        <time>2012-08-22T13:38:34Z</time>
      </trkpt>
      <trkpt lat="46.89396" lon="4.67487">
        <ele>262</ele>
        <time>2012-08-22T13:38:35Z</time>
      </trkpt>
      <trkpt lat="46.89389" lon="4.67501">
        <ele>260</ele>
        <time>2012-08-22T13:38:36Z</time>
      </trkpt>
      <trkpt lat="46.89382" lon="4.67514">
        <ele>262</ele>
        <time>2012-08-22T13:38:37Z</time>
      </trkpt>
      <trkpt lat="46.89374" lon="4.67526">
        <ele>261</ele>
        <time>2012-08-22T13:38:38Z</time>
      </trkpt>
      <trkpt lat="46.89367" lon="4.67537">
        <ele>261</ele>
        <time>2012-08-22T13:38:39Z</time>
      </trkpt>
      <trkpt lat="46.89358" lon="4.67552">
        <ele>260</ele>
        <time>2012-08-22T13:38:40Z</time>
      </trkpt>
      <trkpt lat="46.89348" lon="4.67568">
        <ele>260</ele>
        <time>2012-08-22T13:38:41Z</time>
      </trkpt>
      <trkpt lat="46.89339" lon="4.67582">
        <ele>262</ele>
        <time>2012-08-22T13:38:42Z</time>
      </trkpt>
      <trkpt lat="46.8933" lon="4.67595">
        <ele>262</ele>
        <time>2012-08-22T13:38:43Z</time>
      </trkpt>
      <trkpt lat="46.89322" lon="4.67608">
        <ele>262</ele>
        <time>2012-08-22T13:38:44Z</time>
      </trkpt>
      <trkpt lat="46.89313" lon="4.6762">
        <ele>262</ele>
        <time>2012-08-22T13:38:45Z</time>
      </trkpt>
      <trkpt lat="46.89305" lon="4.67631">
        <ele>264</ele>
        <time>2012-08-22T13:38:46Z</time>
      </trkpt>
      <trkpt lat="46.89297" lon="4.67642">
        <ele>263</ele>
        <time>2012-08-22T13:38:47Z</time>
      </trkpt>
      <trkpt lat="46.89288" lon="4.67653">
        <ele>266</ele>
        <time>2012-08-22T13:38:48Z</time>
      </trkpt>
      <trkpt lat="46.8928" lon="4.67663">
        <ele>266</ele>
        <time>2012-08-22T13:38:49Z</time>
      </trkpt>
      <trkpt lat="46.89272" lon="4.67674">
        <ele>266</ele>
        <time>2012-08-22T13:38:50Z</time>
      </trkpt>
      <trkpt lat="46.89263" lon="4.67686">
        <ele>264</ele>
        <time>2012-08-22T13:38:51Z</time>
      </trkpt>
      <trkpt lat="46.89252" lon="4.67701">
        <ele>265</ele>
        <time>2012-08-22T13:38:52Z</time>
      </trkpt>
      <trkpt lat="46.89241" lon="4.67715">
        <ele>264</ele>
        <time>2012-08-22T13:38:53Z</time>
      </trkpt>
      <trkpt lat="46.8923" lon="4.67731">
        <ele>265</ele>
        <time>2012-08-22T13:38:54Z</time>
      </trkpt>
      <trkpt lat="46.89219" lon="4.67746">
        <ele>264</ele>
        <time>2012-08-22T13:38:55Z</time>
      </trkpt>
      <trkpt lat="46.89209" lon="4.67761">
        <ele>262</ele>
        <time>2012-08-22T13:38:56Z</time>
      </trkpt>
      <trkpt lat="46.892" lon="4.67775">
        <ele>262</ele>
        <time>2012-08-22T13:38:57Z</time>
      </trkpt>
      <trkpt lat="46.89191" lon="4.6779">
        <ele>261</ele>
        <time>2012-08-22T13:38:58Z</time>
      </trkpt>
      <trkpt lat="46.89182" lon="4.67805">
        <ele>258</ele>
        <time>2012-08-22T13:38:59Z</time>
      </trkpt>
      <trkpt lat="46.89174" lon="4.67821">
        <ele>258</ele>
        <time>2012-08-22T13:39:00Z</time>
      </trkpt>
      <trkpt lat="46.89166" lon="4.67839">
        <ele>259</ele>
        <time>2012-08-22T13:39:01Z</time>
      </trkpt>
      <trkpt lat="46.89158" lon="4.67858">
        <ele>259</ele>
        <time>2012-08-22T13:39:02Z</time>
      </trkpt>
      <trkpt lat="46.89151" lon="4.67878">
        <ele>259</ele>
        <time>2012-08-22T13:39:03Z</time>
      </trkpt>
      <trkpt lat="46.89144" lon="4.67898">
        <ele>259</ele>
        <time>2012-08-22T13:39:04Z</time>
      </trkpt>
      <trkpt lat="46.89139" lon="4.6792">
        <ele>259</ele>
        <time>2012-08-22T13:39:05Z</time>
      </trkpt>
      <trkpt lat="46.89133" lon="4.6794">
        <ele>259</ele>
        <time>2012-08-22T13:39:06Z</time>
      </trkpt>
      <trkpt lat="46.89128" lon="4.67958">
        <ele>259</ele>
        <time>2012-08-22T13:39:07Z</time>
      </trkpt>
      <trkpt lat="46.89124" lon="4.67974">
        <ele>257</ele>
        <time>2012-08-22T13:39:08Z</time>
      </trkpt>
      <trkpt lat="46.89121" lon="4.6799">
        <ele>256</ele>
        <time>2012-08-22T13:39:09Z</time>
      </trkpt>
      <trkpt lat="46.89117" lon="4.68004">
        <ele>256</ele>
        <time>2012-08-22T13:39:10Z</time>
      </trkpt>
      <trkpt lat="46.89112" lon="4.68017">
        <ele>256</ele>
        <time>2012-08-22T13:39:11Z</time>
      </trkpt>
      <trkpt lat="46.89108" lon="4.68029">
        <ele>256</ele>
        <time>2012-08-22T13:39:12Z</time>
      </trkpt>
      <trkpt lat="46.89104" lon="4.68038">
        <ele>256</ele>
        <time>2012-08-22T13:39:13Z</time>
      </trkpt>
      <trkpt lat="46.89104" lon="4.68046">
        <ele>258</ele>
        <time>2012-08-22T13:39:14Z</time>
      </trkpt>
      <trkpt lat="46.89106" lon="4.68056">
        <ele>260</ele>
        <time>2012-08-22T13:39:15Z</time>
      </trkpt>
      <trkpt lat="46.8911" lon="4.68066">
        <ele>260</ele>
        <time>2012-08-22T13:39:16Z</time>
      </trkpt>
      <trkpt lat="46.89116" lon="4.68078">
        <ele>259</ele>
        <time>2012-08-22T13:39:17Z</time>
      </trkpt>
      <trkpt lat="46.89122" lon="4.68091">
        <ele>257</ele>
        <time>2012-08-22T13:39:18Z</time>
      </trkpt>
      <trkpt lat="46.89128" lon="4.68102">
        <ele>258</ele>
        <time>2012-08-22T13:39:19Z</time>
      </trkpt>
      <trkpt lat="46.89134" lon="4.6811">
        <ele>259</ele>
        <time>2012-08-22T13:39:20Z</time>
      </trkpt>
      <trkpt lat="46.89137" lon="4.68117">
        <ele>259</ele>
        <time>2012-08-22T13:39:21Z</time>
      </trkpt>
      <trkpt lat="46.89137" lon="4.68128">
        <ele>263</ele>
        <time>2012-08-22T13:39:23Z</time>
      </trkpt>
      <trkpt lat="46.89135" lon="4.68134">
        <ele>271</ele>
        <time>2012-08-22T13:39:25Z</time>
      </trkpt>
      <trkpt lat="46.89131" lon="4.6814">
        <ele>274</ele>
        <time>2012-08-22T13:39:27Z</time>
      </trkpt>
      <trkpt lat="46.89123" lon="4.68137">
        <ele>271</ele>
        <time>2012-08-22T13:39:30Z</time>
      </trkpt>
      <trkpt lat="46.89116" lon="4.68129">
        <ele>272</ele>
        <time>2012-08-22T13:39:31Z</time>
      </trkpt>
      <trkpt lat="46.89108" lon="4.68118">
        <ele>273</ele>
        <time>2012-08-22T13:39:32Z</time>
      </trkpt>
      <trkpt lat="46.89099" lon="4.68105">
        <ele>273</ele>
        <time>2012-08-22T13:39:33Z</time>
      </trkpt>
      <trkpt lat="46.89089" lon="4.68092">
        <ele>273</ele>
        <time>2012-08-22T13:39:34Z</time>
      </trkpt>
      <trkpt lat="46.89081" lon="4.68079">
        <ele>272</ele>
        <time>2012-08-22T13:39:35Z</time>
      </trkpt>
      <trkpt lat="46.89073" lon="4.68069">
        <ele>272</ele>
        <time>2012-08-22T13:39:36Z</time>
      </trkpt>
      <trkpt lat="46.89068" lon="4.6806">
        <ele>271</ele>
        <time>2012-08-22T13:39:37Z</time>
      </trkpt>
      <trkpt lat="46.89063" lon="4.68054">
        <ele>271</ele>
        <time>2012-08-22T13:39:38Z</time>
      </trkpt>
      <trkpt lat="46.89059" lon="4.68049">
        <ele>272</ele>
        <time>2012-08-22T13:39:43Z</time>
      </trkpt>
      <trkpt lat="46.89054" lon="4.6805">
        <ele>271</ele>
        <time>2012-08-22T13:39:45Z</time>
      </trkpt>
      <trkpt lat="46.89049" lon="4.68053">
        <ele>271</ele>
        <time>2012-08-22T13:39:46Z</time>
      </trkpt>
      <trkpt lat="46.89043" lon="4.68058">
        <ele>271</ele>
        <time>2012-08-22T13:39:47Z</time>
      </trkpt>
      <trkpt lat="46.89036" lon="4.68064">
        <ele>271</ele>
        <time>2012-08-22T13:39:48Z</time>
      </trkpt>
      <trkpt lat="46.89029" lon="4.68071">
        <ele>271</ele>
        <time>2012-08-22T13:39:49Z</time>
      </trkpt>
      <trkpt lat="46.89022" lon="4.68078">
        <ele>270</ele>
        <time>2012-08-22T13:39:50Z</time>
      </trkpt>
      <trkpt lat="46.89014" lon="4.68087">
        <ele>272</ele>
        <time>2012-08-22T13:39:51Z</time>
      </trkpt>
      <trkpt lat="46.89007" lon="4.68096">
        <ele>272</ele>
        <time>2012-08-22T13:39:52Z</time>
      </trkpt>
      <trkpt lat="46.89001" lon="4.68107">
        <ele>273</ele>
        <time>2012-08-22T13:39:53Z</time>
      </trkpt>
      <trkpt lat="46.88997" lon="4.68119">
        <ele>273</ele>
        <time>2012-08-22T13:39:54Z</time>
      </trkpt>
      <trkpt lat="46.88995" lon="4.68131">
        <ele>274</ele>
        <time>2012-08-22T13:39:55Z</time>
      </trkpt>
      <trkpt lat="46.88993" lon="4.68143">
        <ele>276</ele>
        <time>2012-08-22T13:39:56Z</time>
      </trkpt>
      <trkpt lat="46.88993" lon="4.68155">
        <ele>279</ele>
        <time>2012-08-22T13:39:57Z</time>
      </trkpt>
      <trkpt lat="46.88992" lon="4.68169">
        <ele>280</ele>
        <time>2012-08-22T13:39:58Z</time>
      </trkpt>
      <trkpt lat="46.88988" lon="4.68183">
        <ele>281</ele>
        <time>2012-08-22T13:39:59Z</time>
      </trkpt>
      <trkpt lat="46.88985" lon="4.68196">
        <ele>281</ele>
        <time>2012-08-22T13:40:00Z</time>
      </trkpt>
      <trkpt lat="46.88981" lon="4.68211">
        <ele>282</ele>
        <time>2012-08-22T13:40:01Z</time>
      </trkpt>
      <trkpt lat="46.88976" lon="4.68226">
        <ele>284</ele>
        <time>2012-08-22T13:40:02Z</time>
      </trkpt>
      <trkpt lat="46.8897" lon="4.68242">
        <ele>285</ele>
        <time>2012-08-22T13:40:03Z</time>
      </trkpt>
      <trkpt lat="46.88963" lon="4.68259">
        <ele>285</ele>
        <time>2012-08-22T13:40:04Z</time>
      </trkpt>
      <trkpt lat="46.88955" lon="4.68277">
        <ele>286</ele>
        <time>2012-08-22T13:40:05Z</time>
      </trkpt>
      <trkpt lat="46.88947" lon="4.68294">
        <ele>287</ele>
        <time>2012-08-22T13:40:06Z</time>
      </trkpt>
      <trkpt lat="46.8894" lon="4.6831">
        <ele>287</ele>
        <time>2012-08-22T13:40:07Z</time>
      </trkpt>
      <trkpt lat="46.88934" lon="4.68326">
        <ele>287</ele>
        <time>2012-08-22T13:40:08Z</time>
      </trkpt>
      <trkpt lat="46.88927" lon="4.68345">
        <ele>288</ele>
        <time>2012-08-22T13:40:09Z</time>
      </trkpt>
      <trkpt lat="46.8892" lon="4.68362">
        <ele>289</ele>
        <time>2012-08-22T13:40:10Z</time>
      </trkpt>
      <trkpt lat="46.88915" lon="4.68376">
        <ele>292</ele>
        <time>2012-08-22T13:40:11Z</time>
      </trkpt>
      <trkpt lat="46.88912" lon="4.6839">
        <ele>294</ele>
        <time>2012-08-22T13:40:12Z</time>
      </trkpt>
      <trkpt lat="46.88913" lon="4.68402">
        <ele>295</ele>
        <time>2012-08-22T13:40:13Z</time>
      </trkpt>
      <trkpt lat="46.88916" lon="4.68416">
        <ele>293</ele>
        <time>2012-08-22T13:40:14Z</time>
      </trkpt>
      <trkpt lat="46.88918" lon="4.68429">
        <ele>295</ele>
        <time>2012-08-22T13:40:15Z</time>
      </trkpt>
      <trkpt lat="46.88922" lon="4.68444">
        <ele>297</ele>
        <time>2012-08-22T13:40:16Z</time>
      </trkpt>
      <trkpt lat="46.88925" lon="4.68458">
        <ele>298</ele>
        <time>2012-08-22T13:40:17Z</time>
      </trkpt>
      <trkpt lat="46.88928" lon="4.68473">
        <ele>297</ele>
        <time>2012-08-22T13:40:18Z</time>
      </trkpt>
      <trkpt lat="46.88927" lon="4.68486">
        <ele>294</ele>
        <time>2012-08-22T13:40:19Z</time>
      </trkpt>
      <trkpt lat="46.88926" lon="4.68498">
        <ele>293</ele>
        <time>2012-08-22T13:40:20Z</time>
      </trkpt>
      <trkpt lat="46.88921" lon="4.68508">
        <ele>292</ele>
        <time>2012-08-22T13:40:21Z</time>
      </trkpt>
      <trkpt lat="46.88917" lon="4.68517">
        <ele>293</ele>
        <time>2012-08-22T13:40:22Z</time>
      </trkpt>
      <trkpt lat="46.88908" lon="4.68527">
        <ele>295</ele>
        <time>2012-08-22T13:40:23Z</time>
      </trkpt>
      <trkpt lat="46.88898" lon="4.68538">
        <ele>297</ele>
        <time>2012-08-22T13:40:24Z</time>
      </trkpt>
      <trkpt lat="46.88889" lon="4.68549">
        <ele>302</ele>
        <time>2012-08-22T13:40:25Z</time>
      </trkpt>
      <trkpt lat="46.8888" lon="4.6856">
        <ele>304</ele>
        <time>2012-08-22T13:40:26Z</time>
      </trkpt>
      <trkpt lat="46.88874" lon="4.68568">
        <ele>305</ele>
        <time>2012-08-22T13:40:27Z</time>
      </trkpt>
      <trkpt lat="46.88869" lon="4.68573">
        <ele>308</ele>
        <time>2012-08-22T13:40:28Z</time>
      </trkpt>
      <trkpt lat="46.88864" lon="4.68579">
        <ele>311</ele>
        <time>2012-08-22T13:40:29Z</time>
      </trkpt>
      <trkpt lat="46.88862" lon="4.68586">
        <ele>312</ele>
        <time>2012-08-22T13:40:30Z</time>
      </trkpt>
      <trkpt lat="46.88858" lon="4.68594">
        <ele>313</ele>
        <time>2012-08-22T13:40:31Z</time>
      </trkpt>
      <trkpt lat="46.88855" lon="4.68603">
        <ele>313</ele>
        <time>2012-08-22T13:40:32Z</time>
      </trkpt>
      <trkpt lat="46.8885" lon="4.68612">
        <ele>315</ele>
        <time>2012-08-22T13:40:33Z</time>
      </trkpt>
      <trkpt lat="46.88844" lon="4.68622">
        <ele>317</ele>
        <time>2012-08-22T13:40:34Z</time>
      </trkpt>
      <trkpt lat="46.88838" lon="4.6863">
        <ele>318</ele>
        <time>2012-08-22T13:40:35Z</time>
      </trkpt>
      <trkpt lat="46.88833" lon="4.68637">
        <ele>320</ele>
        <time>2012-08-22T13:40:36Z</time>
      </trkpt>
      <trkpt lat="46.88827" lon="4.68642">
        <ele>321</ele>
        <time>2012-08-22T13:40:37Z</time>
      </trkpt>
      <trkpt lat="46.8882" lon="4.68646">
        <ele>322</ele>
        <time>2012-08-22T13:40:38Z</time>
      </trkpt>
      <trkpt lat="46.88813" lon="4.6865">
        <ele>322</ele>
        <time>2012-08-22T13:40:39Z</time>
      </trkpt>
      <trkpt lat="46.88808" lon="4.68653">
        <ele>323</ele>
        <time>2012-08-22T13:40:40Z</time>
      </trkpt>
      <trkpt lat="46.88807" lon="4.6866">
        <ele>330</ele>
        <time>2012-08-22T13:42:58Z</time>
      </trkpt>
      <trkpt lat="46.88814" lon="4.68665">
        <ele>326</ele>
        <time>2012-08-22T13:43:00Z</time>
      </trkpt>
      <trkpt lat="46.88819" lon="4.68665">
        <ele>326</ele>
        <time>2012-08-22T13:43:01Z</time>
      </trkpt>
      <trkpt lat="46.88824" lon="4.68666">
        <ele>324</ele>
        <time>2012-08-22T13:43:02Z</time>
      </trkpt>
      <trkpt lat="46.88831" lon="4.68664">
        <ele>325</ele>
        <time>2012-08-22T13:43:04Z</time>
      </trkpt>
      <trkpt lat="46.88838" lon="4.68668">
        <ele>330</ele>
        <time>2012-08-22T13:43:07Z</time>
      </trkpt>
      <trkpt lat="46.88844" lon="4.68677">
        <ele>331</ele>
        <time>2012-08-22T13:43:09Z</time>
      </trkpt>
      <trkpt lat="46.88848" lon="4.68683">
        <ele>331</ele>
        <time>2012-08-22T13:43:10Z</time>
      </trkpt>
      <trkpt lat="46.88852" lon="4.6869">
        <ele>331</ele>
        <time>2012-08-22T13:43:11Z</time>
      </trkpt>
      <trkpt lat="46.88857" lon="4.68696">
        <ele>331</ele>
        <time>2012-08-22T13:43:12Z</time>
      </trkpt>
      <trkpt lat="46.88862" lon="4.68704">
        <ele>331</ele>
        <time>2012-08-22T13:43:13Z</time>
      </trkpt>
      <trkpt lat="46.88867" lon="4.68712">
        <ele>332</ele>
        <time>2012-08-22T13:43:14Z</time>
      </trkpt>
      <trkpt lat="46.88872" lon="4.6872">
        <ele>332</ele>
        <time>2012-08-22T13:43:15Z</time>
      </trkpt>
      <trkpt lat="46.88877" lon="4.68727">
        <ele>331</ele>
        <time>2012-08-22T13:43:16Z</time>
      </trkpt>
      <trkpt lat="46.88881" lon="4.68733">
        <ele>330</ele>
        <time>2012-08-22T13:43:17Z</time>
      </trkpt>
      <trkpt lat="46.88885" lon="4.68739">
        <ele>331</ele>
        <time>2012-08-22T13:43:18Z</time>
      </trkpt>
      <trkpt lat="46.88889" lon="4.68745">
        <ele>329</ele>
        <time>2012-08-22T13:43:22Z</time>
      </trkpt>
      <trkpt lat="46.88896" lon="4.68753">
        <ele>326</ele>
        <time>2012-08-22T13:43:24Z</time>
      </trkpt>
      <trkpt lat="46.88902" lon="4.68758">
        <ele>324</ele>
        <time>2012-08-22T13:43:25Z</time>
      </trkpt>
      <trkpt lat="46.88906" lon="4.68764">
        <ele>324</ele>
        <time>2012-08-22T13:43:26Z</time>
      </trkpt>
      <trkpt lat="46.8891" lon="4.68769">
        <ele>324</ele>
        <time>2012-08-22T13:43:27Z</time>
      </trkpt>
      <trkpt lat="46.88913" lon="4.68774">
        <ele>323</ele>
        <time>2012-08-22T13:43:28Z</time>
      </trkpt>
      <trkpt lat="46.88917" lon="4.68778">
        <ele>322</ele>
        <time>2012-08-22T13:43:29Z</time>
      </trkpt>
      <trkpt lat="46.8892" lon="4.68784">
        <ele>324</ele>
        <time>2012-08-22T13:43:30Z</time>
      </trkpt>
      <trkpt lat="46.88924" lon="4.6879">
        <ele>325</ele>
        <time>2012-08-22T13:43:31Z</time>
      </trkpt>
      <trkpt lat="46.88928" lon="4.68796">
        <ele>326</ele>
        <time>2012-08-22T13:43:32Z</time>
      </trkpt>
      <trkpt lat="46.88933" lon="4.68802">
        <ele>326</ele>
        <time>2012-08-22T13:43:33Z</time>
      </trkpt>
      <trkpt lat="46.88937" lon="4.68809">
        <ele>327</ele>
        <time>2012-08-22T13:43:34Z</time>
      </trkpt>
      <trkpt lat="46.88942" lon="4.68816">
        <ele>327</ele>
        <time>2012-08-22T13:43:35Z</time>
      </trkpt>
      <trkpt lat="46.88947" lon="4.68822">
        <ele>327</ele>
        <time>2012-08-22T13:43:36Z</time>
      </trkpt>
      <trkpt lat="46.88952" lon="4.68829">
        <ele>328</ele>
        <time>2012-08-22T13:43:37Z</time>
      </trkpt>
      <trkpt lat="46.88956" lon="4.68836">
        <ele>328</ele>
        <time>2012-08-22T13:43:38Z</time>
      </trkpt>
      <trkpt lat="46.88961" lon="4.68844">
        <ele>329</ele>
        <time>2012-08-22T13:43:39Z</time>
      </trkpt>
      <trkpt lat="46.88965" lon="4.68849">
        <ele>332</ele>
        <time>2012-08-22T13:43:40Z</time>
      </trkpt>
      <trkpt lat="46.8897" lon="4.68857">
        <ele>335</ele>
        <time>2012-08-22T13:43:42Z</time>
      </trkpt>
      <trkpt lat="46.88974" lon="4.68864">
        <ele>339</ele>
        <time>2012-08-22T13:43:44Z</time>
      </trkpt>
      <trkpt lat="46.88978" lon="4.68869">
        <ele>336</ele>
        <time>2012-08-22T13:43:45Z</time>
      </trkpt>
      <trkpt lat="46.88981" lon="4.68873">
        <ele>338</ele>
        <time>2012-08-22T13:43:46Z</time>
      </trkpt>
      <trkpt lat="46.88985" lon="4.68878">
        <ele>337</ele>
        <time>2012-08-22T13:43:47Z</time>
      </trkpt>
      <trkpt lat="46.8899" lon="4.68881">
        <ele>337</ele>
        <time>2012-08-22T13:43:48Z</time>
      </trkpt>
      <trkpt lat="46.88994" lon="4.68884">
        <ele>338</ele>
        <time>2012-08-22T13:43:49Z</time>
      </trkpt>
      <trkpt lat="46.89" lon="4.68884">
        <ele>338</ele>
        <time>2012-08-22T13:43:50Z</time>
      </trkpt>
      <trkpt lat="46.89006" lon="4.68886">
        <ele>338</ele>
        <time>2012-08-22T13:43:51Z</time>
      </trkpt>
      <trkpt lat="46.89012" lon="4.68887">
        <ele>337</ele>
        <time>2012-08-22T13:43:52Z</time>
      </trkpt>
      <trkpt lat="46.89018" lon="4.68889">
        <ele>338</ele>
        <time>2012-08-22T13:43:53Z</time>
      </trkpt>
      <trkpt lat="46.89024" lon="4.68892">
        <ele>338</ele>
        <time>2012-08-22T13:43:54Z</time>
      </trkpt>
      <trkpt lat="46.8903" lon="4.68896">
        <ele>334</ele>
        <time>2012-08-22T13:43:55Z</time>
      </trkpt>
      <trkpt lat="46.89037" lon="4.68899">
        <ele>337</ele>
        <time>2012-08-22T13:43:56Z</time>
      </trkpt>
      <trkpt lat="46.89043" lon="4.68902">
        <ele>333</ele>
        <time>2012-08-22T13:43:57Z</time>
      </trkpt>
      <trkpt lat="46.8905" lon="4.68905">
        <ele>334</ele>
        <time>2012-08-22T13:43:58Z</time>
      </trkpt>
      <trkpt lat="46.89056" lon="4.68908">
        <ele>333</ele>
        <time>2012-08-22T13:43:59Z</time>
      </trkpt>
      <trkpt lat="46.89062" lon="4.68911">
        <ele>332</ele>
        <time>2012-08-22T13:44:00Z</time>
      </trkpt>
      <trkpt lat="46.89068" lon="4.68915">
        <ele>334</ele>
        <time>2012-08-22T13:44:01Z</time>
      </trkpt>
      <trkpt lat="46.89075" lon="4.68919">
        <ele>334</ele>
        <time>2012-08-22T13:44:02Z</time>
      </trkpt>
      <trkpt lat="46.89082" lon="4.68923">
        <ele>334</ele>
        <time>2012-08-22T13:44:03Z</time>
      </trkpt>
      <trkpt lat="46.89088" lon="4.68927">
        <ele>334</ele>
        <time>2012-08-22T13:44:04Z</time>
      </trkpt>
      <trkpt lat="46.89095" lon="4.6893">
        <ele>335</ele>
        <time>2012-08-22T13:44:05Z</time>
      </trkpt>
      <trkpt lat="46.89102" lon="4.68933">
        <ele>335</ele>
        <time>2012-08-22T13:44:06Z</time>
      </trkpt>
      <trkpt lat="46.89109" lon="4.68936">
        <ele>335</ele>
        <time>2012-08-22T13:44:07Z</time>
      </trkpt>
      <trkpt lat="46.89116" lon="4.68939">
        <ele>335</ele>
        <time>2012-08-22T13:44:08Z</time>
      </trkpt>
      <trkpt lat="46.89122" lon="4.68942">
        <ele>335</ele>
        <time>2012-08-22T13:44:09Z</time>
      </trkpt>
      <trkpt lat="46.89128" lon="4.68944">
        <ele>334</ele>
        <time>2012-08-22T13:44:10Z</time>
      </trkpt>
      <trkpt lat="46.89135" lon="4.68947">
        <ele>334</ele>
        <time>2012-08-22T13:44:11Z</time>
      </trkpt>
      <trkpt lat="46.8914" lon="4.68948">
        <ele>334</ele>
        <time>2012-08-22T13:44:12Z</time>
      </trkpt>
      <trkpt lat="46.89147" lon="4.68949">
        <ele>333</ele>
        <time>2012-08-22T13:44:14Z</time>
      </trkpt>
      <trkpt lat="46.89148" lon="4.68958">
        <ele>330</ele>
        <time>2012-08-22T13:44:20Z</time>
      </trkpt>
      <trkpt lat="46.89145" lon="4.68966">
        <ele>330</ele>
        <time>2012-08-22T13:44:23Z</time>
      </trkpt>
      <trkpt lat="46.89144" lon="4.68974">
        <ele>327</ele>
        <time>2012-08-22T13:44:25Z</time>
      </trkpt>
      <trkpt lat="46.89146" lon="4.68982">
        <ele>326</ele>
        <time>2012-08-22T13:44:27Z</time>
      </trkpt>
      <trkpt lat="46.8915" lon="4.68991">
        <ele>325</ele>
        <time>2012-08-22T13:44:29Z</time>
      </trkpt>
      <trkpt lat="46.89155" lon="4.69002">
        <ele>324</ele>
        <time>2012-08-22T13:44:31Z</time>
      </trkpt>
      <trkpt lat="46.89158" lon="4.69011">
        <ele>326</ele>
        <time>2012-08-22T13:44:33Z</time>
      </trkpt>
      <trkpt lat="46.8916" lon="4.69019">
        <ele>328</ele>
        <time>2012-08-22T13:44:35Z</time>
      </trkpt>
      <trkpt lat="46.89162" lon="4.69026">
        <ele>327</ele>
        <time>2012-08-22T13:44:37Z</time>
      </trkpt>
      <trkpt lat="46.89165" lon="4.69035">
        <ele>327</ele>
        <time>2012-08-22T13:44:39Z</time>
      </trkpt>
      <trkpt lat="46.89167" lon="4.69042">
        <ele>331</ele>
        <time>2012-08-22T13:44:41Z</time>
      </trkpt>
      <trkpt lat="46.89169" lon="4.69052">
        <ele>331</ele>
        <time>2012-08-22T13:44:43Z</time>
      </trkpt>
      <trkpt lat="46.89172" lon="4.69063">
        <ele>330</ele>
        <time>2012-08-22T13:44:45Z</time>
      </trkpt>
      <trkpt lat="46.89174" lon="4.69072">
        <ele>330</ele>
        <time>2012-08-22T13:44:47Z</time>
      </trkpt>
      <trkpt lat="46.89174" lon="4.69082">
        <ele>335</ele>
        <time>2012-08-22T13:44:49Z</time>
      </trkpt>
      <trkpt lat="46.89173" lon="4.6909">
        <ele>332</ele>
        <time>2012-08-22T13:44:51Z</time>
      </trkpt>
      <trkpt lat="46.89172" lon="4.69099">
        <ele>335</ele>
        <time>2012-08-22T13:44:53Z</time>
      </trkpt>
      <trkpt lat="46.89168" lon="4.69106">
        <ele>337</ele>
        <time>2012-08-22T13:44:56Z</time>
      </trkpt>
      <trkpt lat="46.89164" lon="4.69112">
        <ele>336</ele>
        <time>2012-08-22T13:44:59Z</time>
      </trkpt>
      <trkpt lat="46.8916" lon="4.69117">
        <ele>334</ele>
        <time>2012-08-22T13:45:01Z</time>
      </trkpt>
      <trkpt lat="46.89151" lon="4.69121">
        <ele>341</ele>
        <time>2012-08-22T13:45:03Z</time>
      </trkpt>
      <trkpt lat="46.89146" lon="4.6912">
        <ele>343</ele>
        <time>2012-08-22T13:45:04Z</time>
      </trkpt>
      <trkpt lat="46.8914" lon="4.69118">
        <ele>343</ele>
        <time>2012-08-22T13:45:05Z</time>
      </trkpt>
      <trkpt lat="46.89135" lon="4.69117">
        <ele>342</ele>
        <time>2012-08-22T13:45:06Z</time>
      </trkpt>
      <trkpt lat="46.8913" lon="4.69116">
        <ele>343</ele>
        <time>2012-08-22T13:45:07Z</time>
      </trkpt>
      <trkpt lat="46.89125" lon="4.69115">
        <ele>347</ele>
        <time>2012-08-22T13:45:09Z</time>
      </trkpt>
      <trkpt lat="46.89117" lon="4.69114">
        <ele>347</ele>
        <time>2012-08-22T13:45:11Z</time>
      </trkpt>
      <trkpt lat="46.89108" lon="4.69112">
        <ele>345</ele>
        <time>2012-08-22T13:45:13Z</time>
      </trkpt>
      <trkpt lat="46.89103" lon="4.69112">
        <ele>344</ele>
        <time>2012-08-22T13:45:14Z</time>
      </trkpt>
      <trkpt lat="46.89097" lon="4.69111">
        <ele>346</ele>
        <time>2012-08-22T13:45:15Z</time>
      </trkpt>
      <trkpt lat="46.89091" lon="4.6911">
        <ele>349</ele>
        <time>2012-08-22T13:45:16Z</time>
      </trkpt>
      <trkpt lat="46.89086" lon="4.69109">
        <ele>350</ele>
        <time>2012-08-22T13:45:17Z</time>
      </trkpt>
      <trkpt lat="46.8908" lon="4.69108">
        <ele>353</ele>
        <time>2012-08-22T13:45:18Z</time>
      </trkpt>
      <trkpt lat="46.89074" lon="4.69107">
        <ele>352</ele>
        <time>2012-08-22T13:45:19Z</time>
      </trkpt>
      <trkpt lat="46.89068" lon="4.69106">
        <ele>351</ele>
        <time>2012-08-22T13:45:20Z</time>
      </trkpt>
      <trkpt lat="46.89062" lon="4.69102">
        <ele>353</ele>
        <time>2012-08-22T13:45:21Z</time>
      </trkpt>
      <trkpt lat="46.89057" lon="4.69098">
        <ele>354</ele>
        <time>2012-08-22T13:45:22Z</time>
      </trkpt>
      <trkpt lat="46.89052" lon="4.69093">
        <ele>355</ele>
        <time>2012-08-22T13:45:23Z</time>
      </trkpt>
      <trkpt lat="46.89048" lon="4.69089">
        <ele>356</ele>
        <time>2012-08-22T13:45:24Z</time>
      </trkpt>
      <trkpt lat="46.89041" lon="4.69082">
        <ele>356</ele>
        <time>2012-08-22T13:45:26Z</time>
      </trkpt>
      <trkpt lat="46.89034" lon="4.69077">
        <ele>358</ele>
        <time>2012-08-22T13:45:28Z</time>
      </trkpt>
      <trkpt lat="46.89026" lon="4.69075">
        <ele>362</ele>
        <time>2012-08-22T13:45:30Z</time>
      </trkpt>
      <trkpt lat="46.89021" lon="4.69073">
        <ele>360</ele>
        <time>2012-08-22T13:45:31Z</time>
      </trkpt>
      <trkpt lat="46.89015" lon="4.69071">
        <ele>359</ele>
        <time>2012-08-22T13:45:32Z</time>
      </trkpt>
      <trkpt lat="46.89009" lon="4.69068">
        <ele>360</ele>
        <time>2012-08-22T13:45:33Z</time>
      </trkpt>
      <trkpt lat="46.89004" lon="4.69066">
        <ele>359</ele>
        <time>2012-08-22T13:45:34Z</time>
      </trkpt>
      <trkpt lat="46.88999" lon="4.69063">
        <ele>361</ele>
        <time>2012-08-22T13:45:35Z</time>
      </trkpt>
      <trkpt lat="46.88994" lon="4.69061">
        <ele>363</ele>
        <time>2012-08-22T13:45:36Z</time>
      </trkpt>
      <trkpt lat="46.88989" lon="4.69059">
        <ele>361</ele>
        <time>2012-08-22T13:45:37Z</time>
      </trkpt>
      <trkpt lat="46.88983" lon="4.69059">
        <ele>361</ele>
        <time>2012-08-22T13:45:38Z</time>
      </trkpt>
      <trkpt lat="46.88976" lon="4.69059">
        <ele>363</ele>
        <time>2012-08-22T13:45:39Z</time>
      </trkpt>
      <trkpt lat="46.8897" lon="4.69058">
        <ele>361</ele>
        <time>2012-08-22T13:45:40Z</time>
      </trkpt>
      <trkpt lat="46.88964" lon="4.69057">
        <ele>363</ele>
        <time>2012-08-22T13:45:41Z</time>
      </trkpt>
      <trkpt lat="46.88958" lon="4.69056">
        <ele>364</ele>
        <time>2012-08-22T13:45:42Z</time>
      </trkpt>
      <trkpt lat="46.88952" lon="4.69054">
        <ele>363</ele>
        <time>2012-08-22T13:45:43Z</time>
      </trkpt>
      <trkpt lat="46.88946" lon="4.69053">
        <ele>366</ele>
        <time>2012-08-22T13:45:44Z</time>
      </trkpt>
      <trkpt lat="46.8894" lon="4.69052">
        <ele>366</ele>
        <time>2012-08-22T13:45:45Z</time>
      </trkpt>
      <trkpt lat="46.88934" lon="4.69052">
        <ele>364</ele>
        <time>2012-08-22T13:45:46Z</time>
      </trkpt>
      <trkpt lat="46.88928" lon="4.69053">
        <ele>362</ele>
        <time>2012-08-22T13:45:47Z</time>
      </trkpt>
      <trkpt lat="46.88923" lon="4.69053">
        <ele>364</ele>
        <time>2012-08-22T13:45:48Z</time>
      </trkpt>
      <trkpt lat="46.88918" lon="4.69055">
        <ele>364</ele>
        <time>2012-08-22T13:45:49Z</time>
      </trkpt>
      <trkpt lat="46.88913" lon="4.69057">
        <ele>364</ele>
        <time>2012-08-22T13:45:50Z</time>
      </trkpt>
      <trkpt lat="46.88906" lon="4.69064">
        <ele>365</ele>
        <time>2012-08-22T13:45:52Z</time>
      </trkpt>
      <trkpt lat="46.88902" lon="4.69068">
        <ele>367</ele>
        <time>2012-08-22T13:45:53Z</time>
      </trkpt>
      <trkpt lat="46.88892" lon="4.69069">
        <ele>368</ele>
        <time>2012-08-22T13:45:55Z</time>
      </trkpt>
      <trkpt lat="46.88886" lon="4.69068">
        <ele>370</ele>
        <time>2012-08-22T13:45:56Z</time>
      </trkpt>
      <trkpt lat="46.88881" lon="4.69067">
        <ele>369</ele>
        <time>2012-08-22T13:45:57Z</time>
      </trkpt>
      <trkpt lat="46.88873" lon="4.69064">
        <ele>372</ele>
        <time>2012-08-22T13:45:58Z</time>
      </trkpt>
      <trkpt lat="46.88864" lon="4.6906">
        <ele>375</ele>
        <time>2012-08-22T13:45:59Z</time>
      </trkpt>
      <trkpt lat="46.88857" lon="4.69056">
        <ele>376</ele>
        <time>2012-08-22T13:46:00Z</time>
      </trkpt>
      <trkpt lat="46.8885" lon="4.69054">
        <ele>374</ele>
        <time>2012-08-22T13:46:01Z</time>
      </trkpt>
      <trkpt lat="46.88844" lon="4.69049">
        <ele>373</ele>
        <time>2012-08-22T13:46:02Z</time>
      </trkpt>
      <trkpt lat="46.88838" lon="4.69043">
        <ele>375</ele>
        <time>2012-08-22T13:46:03Z</time>
      </trkpt>
      <trkpt lat="46.88832" lon="4.69038">
        <ele>377</ele>
        <time>2012-08-22T13:46:04Z</time>
      </trkpt>
      <trkpt lat="46.88826" lon="4.69033">
        <ele>380</ele>
        <time>2012-08-22T13:46:05Z</time>
      </trkpt>
      <trkpt lat="46.8882" lon="4.69029">
        <ele>382</ele>
        <time>2012-08-22T13:46:06Z</time>
      </trkpt>
      <trkpt lat="46.88815" lon="4.69026">
        <ele>381</ele>
        <time>2012-08-22T13:46:07Z</time>
      </trkpt>
      <trkpt lat="46.88808" lon="4.69024">
        <ele>381</ele>
        <time>2012-08-22T13:46:08Z</time>
      </trkpt>
      <trkpt lat="46.88802" lon="4.69022">
        <ele>376</ele>
        <time>2012-08-22T13:46:09Z</time>
      </trkpt>
      <trkpt lat="46.88796" lon="4.69019">
        <ele>375</ele>
        <time>2012-08-22T13:46:10Z</time>
      </trkpt>
      <trkpt lat="46.8879" lon="4.69016">
        <ele>377</ele>
        <time>2012-08-22T13:46:11Z</time>
      </trkpt>
      <trkpt lat="46.88784" lon="4.69012">
        <ele>380</ele>
        <time>2012-08-22T13:46:12Z</time>
      </trkpt>
      <trkpt lat="46.88776" lon="4.69008">
        <ele>380</ele>
        <time>2012-08-22T13:46:13Z</time>
      </trkpt>
      <trkpt lat="46.88769" lon="4.69003">
        <ele>382</ele>
        <time>2012-08-22T13:46:14Z</time>
      </trkpt>
      <trkpt lat="46.88763" lon="4.68999">
        <ele>382</ele>
        <time>2012-08-22T13:46:15Z</time>
      </trkpt>
      <trkpt lat="46.88757" lon="4.68995">
        <ele>382</ele>
        <time>2012-08-22T13:46:16Z</time>
      </trkpt>
      <trkpt lat="46.88751" lon="4.6899">
        <ele>384</ele>
        <time>2012-08-22T13:46:17Z</time>
      </trkpt>
      <trkpt lat="46.88745" lon="4.68984">
        <ele>387</ele>
        <time>2012-08-22T13:46:18Z</time>
      </trkpt>
      <trkpt lat="46.8874" lon="4.68978">
        <ele>393</ele>
        <time>2012-08-22T13:46:19Z</time>
      </trkpt>
      <trkpt lat="46.88735" lon="4.68972">
        <ele>396</ele>
        <time>2012-08-22T13:46:20Z</time>
      </trkpt>
      <trkpt lat="46.88729" lon="4.68963">
        <ele>393</ele>
        <time>2012-08-22T13:46:22Z</time>
      </trkpt>
      <trkpt lat="46.88721" lon="4.68957">
        <ele>393</ele>
        <time>2012-08-22T13:46:24Z</time>
      </trkpt>
      <trkpt lat="46.88712" lon="4.68954">
        <ele>396</ele>
        <time>2012-08-22T13:46:26Z</time>
      </trkpt>
      <trkpt lat="46.88708" lon="4.68953">
        <ele>396</ele>
        <time>2012-08-22T13:46:27Z</time>
      </trkpt>
      <trkpt lat="46.88702" lon="4.68953">
        <ele>399</ele>
        <time>2012-08-22T13:46:28Z</time>
      </trkpt>
      <trkpt lat="46.88697" lon="4.68955">
        <ele>399</ele>
        <time>2012-08-22T13:46:29Z</time>
      </trkpt>
      <trkpt lat="46.88692" lon="4.68956">
        <ele>400</ele>
        <time>2012-08-22T13:46:30Z</time>
      </trkpt>
      <trkpt lat="46.88686" lon="4.68957">
        <ele>402</ele>
        <time>2012-08-22T13:46:31Z</time>
      </trkpt>
      <trkpt lat="46.88681" lon="4.68958">
        <ele>398</ele>
        <time>2012-08-22T13:46:32Z</time>
      </trkpt>
      <trkpt lat="46.88676" lon="4.6896">
        <ele>401</ele>
        <time>2012-08-22T13:46:33Z</time>
      </trkpt>
      <trkpt lat="46.8867" lon="4.68963">
        <ele>398</ele>
        <time>2012-08-22T13:46:34Z</time>
      </trkpt>
      <trkpt lat="46.88666" lon="4.68965">
        <ele>399</ele>
        <time>2012-08-22T13:46:35Z</time>
      </trkpt>
      <trkpt lat="46.88658" lon="4.68968">
        <ele>402</ele>
        <time>2012-08-22T13:46:37Z</time>
      </trkpt>
      <trkpt lat="46.88652" lon="4.68966">
        <ele>406</ele>
        <time>2012-08-22T13:46:38Z</time>
      </trkpt>
      <trkpt lat="46.88646" lon="4.68962">
        <ele>404</ele>
        <time>2012-08-22T13:46:39Z</time>
      </trkpt>
      <trkpt lat="46.88641" lon="4.68956">
        <ele>402</ele>
        <time>2012-08-22T13:46:40Z</time>
      </trkpt>
      <trkpt lat="46.88634" lon="4.6895">
        <ele>404</ele>
        <time>2012-08-22T13:46:41Z</time>
      </trkpt>
      <trkpt lat="46.88628" lon="4.68943">
        <ele>405</ele>
        <time>2012-08-22T13:46:42Z</time>
      </trkpt>
      <trkpt lat="46.88622" lon="4.68936">
        <ele>405</ele>
        <time>2012-08-22T13:46:43Z</time>
      </trkpt>
      <trkpt lat="46.88617" lon="4.68929">
        <ele>407</ele>
        <time>2012-08-22T13:46:44Z</time>
      </trkpt>
      <trkpt lat="46.88612" lon="4.68924">
        <ele>410</ele>
        <time>2012-08-22T13:46:45Z</time>
      </trkpt>
      <trkpt lat="46.88608" lon="4.6892">
        <ele>409</ele>
        <time>2012-08-22T13:46:46Z</time>
      </trkpt>
      <trkpt lat="46.88604" lon="4.68915">
        <ele>410</ele>
        <time>2012-08-22T13:46:47Z</time>
      </trkpt>
      <trkpt lat="46.886" lon="4.6891">
        <ele>408</ele>
        <time>2012-08-22T13:46:48Z</time>
      </trkpt>
      <trkpt lat="46.88596" lon="4.68905">
        <ele>409</ele>
        <time>2012-08-22T13:46:49Z</time>
      </trkpt>
      <trkpt lat="46.88589" lon="4.68896">
        <ele>409</ele>
        <time>2012-08-22T13:46:51Z</time>
      </trkpt>
      <trkpt lat="46.88585" lon="4.68893">
        <ele>411</ele>
        <time>2012-08-22T13:46:52Z</time>
      </trkpt>
      <trkpt lat="46.88577" lon="4.68886">
        <ele>412</ele>
        <time>2012-08-22T13:46:54Z</time>
      </trkpt>
      <trkpt lat="46.88572" lon="4.68881">
        <ele>412</ele>
        <time>2012-08-22T13:46:55Z</time>
      </trkpt>
      <trkpt lat="46.88568" lon="4.68877">
        <ele>411</ele>
        <time>2012-08-22T13:46:56Z</time>
      </trkpt>
      <trkpt lat="46.88564" lon="4.68873">
        <ele>408</ele>
        <time>2012-08-22T13:46:57Z</time>
      </trkpt>
      <trkpt lat="46.88553" lon="4.68861">
        <ele>404</ele>
        <time>2012-08-22T13:47:01Z</time>
      </trkpt>
      <trkpt lat="46.88548" lon="4.68857">
        <ele>407</ele>
        <time>2012-08-22T13:47:02Z</time>
      </trkpt>
      <trkpt lat="46.88543" lon="4.6885">
        <ele>409</ele>
        <time>2012-08-22T13:47:04Z</time>
      </trkpt>
      <trkpt lat="46.8854" lon="4.68841">
        <ele>411</ele>
        <time>2012-08-22T13:47:06Z</time>
      </trkpt>
      <trkpt lat="46.88539" lon="4.68834">
        <ele>415</ele>
        <time>2012-08-22T13:47:07Z</time>
      </trkpt>
      <trkpt lat="46.88537" lon="4.68826">
        <ele>414</ele>
        <time>2012-08-22T13:47:08Z</time>
      </trkpt>
      <trkpt lat="46.88537" lon="4.68818">
        <ele>415</ele>
        <time>2012-08-22T13:47:09Z</time>
      </trkpt>
      <trkpt lat="46.88536" lon="4.6881">
        <ele>416</ele>
        <time>2012-08-22T13:47:10Z</time>
      </trkpt>
      <trkpt lat="46.88536" lon="4.68801">
        <ele>415</ele>
        <time>2012-08-22T13:47:11Z</time>
      </trkpt>
      <trkpt lat="46.88534" lon="4.68793">
        <ele>415</ele>
        <time>2012-08-22T13:47:12Z</time>
      </trkpt>
      <trkpt lat="46.88531" lon="4.68784">
        <ele>414</ele>
        <time>2012-08-22T13:47:13Z</time>
      </trkpt>
      <trkpt lat="46.88527" lon="4.68776">
        <ele>413</ele>
        <time>2012-08-22T13:47:14Z</time>
      </trkpt>
      <trkpt lat="46.88522" lon="4.68769">
        <ele>410</ele>
        <time>2012-08-22T13:47:15Z</time>
      </trkpt>
      <trkpt lat="46.88515" lon="4.6876">
        <ele>412</ele>
        <time>2012-08-22T13:47:16Z</time>
      </trkpt>
      <trkpt lat="46.88509" lon="4.68752">
        <ele>413</ele>
        <time>2012-08-22T13:47:17Z</time>
      </trkpt>
      <trkpt lat="46.88503" lon="4.68745">
        <ele>412</ele>
        <time>2012-08-22T13:47:18Z</time>
      </trkpt>
      <trkpt lat="46.88495" lon="4.68739">
        <ele>414</ele>
        <time>2012-08-22T13:47:19Z</time>
      </trkpt>
      <trkpt lat="46.88488" lon="4.68731">
        <ele>412</ele>
        <time>2012-08-22T13:47:20Z</time>
      </trkpt>
      <trkpt lat="46.88482" lon="4.68725">
        <ele>412</ele>
        <time>2012-08-22T13:47:21Z</time>
      </trkpt>
      <trkpt lat="46.88476" lon="4.68718">
        <ele>410</ele>
        <time>2012-08-22T13:47:22Z</time>
      </trkpt>
      <trkpt lat="46.88471" lon="4.68712">
        <ele>410</ele>
        <time>2012-08-22T13:47:23Z</time>
      </trkpt>
      <trkpt lat="46.88468" lon="4.68707">
        <ele>409</ele>
        <time>2012-08-22T13:47:24Z</time>
      </trkpt>
      <trkpt lat="46.88464" lon="4.68702">
        <ele>409</ele>
        <time>2012-08-22T13:47:25Z</time>
      </trkpt>
      <trkpt lat="46.8846" lon="4.68698">
        <ele>410</ele>
        <time>2012-08-22T13:47:26Z</time>
      </trkpt>
      <trkpt lat="46.88455" lon="4.68692">
        <ele>410</ele>
        <time>2012-08-22T13:47:27Z</time>
      </trkpt>
      <trkpt lat="46.8845" lon="4.68688">
        <ele>413</ele>
        <time>2012-08-22T13:47:28Z</time>
      </trkpt>
      <trkpt lat="46.88444" lon="4.68683">
        <ele>410</ele>
        <time>2012-08-22T13:47:29Z</time>
      </trkpt>
      <trkpt lat="46.88437" lon="4.6868">
        <ele>411</ele>
        <time>2012-08-22T13:47:30Z</time>
      </trkpt>
      <trkpt lat="46.8843" lon="4.68677">
        <ele>412</ele>
        <time>2012-08-22T13:47:31Z</time>
      </trkpt>
      <trkpt lat="46.88422" lon="4.68674">
        <ele>412</ele>
        <time>2012-08-22T13:47:32Z</time>
      </trkpt>
      <trkpt lat="46.88414" lon="4.6867">
        <ele>414</ele>
        <time>2012-08-22T13:47:33Z</time>
      </trkpt>
      <trkpt lat="46.88407" lon="4.68667">
        <ele>415</ele>
        <time>2012-08-22T13:47:34Z</time>
      </trkpt>
      <trkpt lat="46.88401" lon="4.68664">
        <ele>417</ele>
        <time>2012-08-22T13:47:35Z</time>
      </trkpt>
      <trkpt lat="46.88395" lon="4.68662">
        <ele>417</ele>
        <time>2012-08-22T13:47:36Z</time>
      </trkpt>
      <trkpt lat="46.88387" lon="4.6866">
        <ele>415</ele>
        <time>2012-08-22T13:47:37Z</time>
      </trkpt>
      <trkpt lat="46.8838" lon="4.68657">
        <ele>419</ele>
        <time>2012-08-22T13:47:38Z</time>
      </trkpt>
      <trkpt lat="46.88374" lon="4.68655">
        <ele>419</ele>
        <time>2012-08-22T13:47:39Z</time>
      </trkpt>
      <trkpt lat="46.88369" lon="4.68653">
        <ele>422</ele>
        <time>2012-08-22T13:47:40Z</time>
      </trkpt>
      <trkpt lat="46.88365" lon="4.68649">
        <ele>423</ele>
        <time>2012-08-22T13:47:41Z</time>
      </trkpt>
      <trkpt lat="46.88361" lon="4.68646">
        <ele>420</ele>
        <time>2012-08-22T13:47:43Z</time>
      </trkpt>
      <trkpt lat="46.88356" lon="4.68642">
        <ele>421</ele>
        <time>2012-08-22T13:47:45Z</time>
      </trkpt>
      <trkpt lat="46.88349" lon="4.68638">
        <ele>422</ele>
        <time>2012-08-22T13:47:47Z</time>
      </trkpt>
      <trkpt lat="46.88349" lon="4.68638">
        <ele>422</ele>
        <time>2012-08-22T13:47:47Z</time>
      </trkpt>
      <trkpt lat="46.88349" lon="4.68638">
        <ele>422</ele>
        <time>2012-08-22T13:47:49Z</time>
      </trkpt>
      <trkpt lat="46.88341" lon="4.6863">
        <ele>426</ele>
        <time>2012-08-22T13:47:53Z</time>
      </trkpt>
      <trkpt lat="46.88335" lon="4.68624">
        <ele>425</ele>
        <time>2012-08-22T13:47:55Z</time>
      </trkpt>
      <trkpt lat="46.88329" lon="4.68618">
        <ele>428</ele>
        <time>2012-08-22T13:47:57Z</time>
      </trkpt>
      <trkpt lat="46.88324" lon="4.68614">
        <ele>423</ele>
        <time>2012-08-22T13:47:59Z</time>
      </trkpt>
      <trkpt lat="46.88317" lon="4.68612">
        <ele>419</ele>
        <time>2012-08-22T13:48:01Z</time>
      </trkpt>
      <trkpt lat="46.88308" lon="4.6861">
        <ele>423</ele>
        <time>2012-08-22T13:48:03Z</time>
      </trkpt>
      <trkpt lat="46.88299" lon="4.68608">
        <ele>424</ele>
        <time>2012-08-22T13:48:05Z</time>
      </trkpt>
      <trkpt lat="46.88294" lon="4.68607">
        <ele>424</ele>
        <time>2012-08-22T13:48:06Z</time>
      </trkpt>
      <trkpt lat="46.88289" lon="4.68605">
        <ele>428</ele>
        <time>2012-08-22T13:48:07Z</time>
      </trkpt>
      <trkpt lat="46.88283" lon="4.68603">
        <ele>427</ele>
        <time>2012-08-22T13:48:08Z</time>
      </trkpt>
      <trkpt lat="46.88278" lon="4.68601">
        <ele>428</ele>
        <time>2012-08-22T13:48:09Z</time>
      </trkpt>
      <trkpt lat="46.88272" lon="4.68598">
        <ele>429</ele>
        <time>2012-08-22T13:48:10Z</time>
      </trkpt>
      <trkpt lat="46.88269" lon="4.68594">
        <ele>425</ele>
        <time>2012-08-22T13:48:11Z</time>
      </trkpt>
      <trkpt lat="46.88264" lon="4.68591">
        <ele>425</ele>
        <time>2012-08-22T13:48:12Z</time>
      </trkpt>
      <trkpt lat="46.8826" lon="4.68588">
        <ele>423</ele>
        <time>2012-08-22T13:48:13Z</time>
      </trkpt>
      <trkpt lat="46.88253" lon="4.68584">
        <ele>425</ele>
        <time>2012-08-22T13:48:15Z</time>
      </trkpt>
      <trkpt lat="46.88248" lon="4.68581">
        <ele>430</ele>
        <time>2012-08-22T13:48:16Z</time>
      </trkpt>
      <trkpt lat="46.88242" lon="4.68578">
        <ele>434</ele>
        <time>2012-08-22T13:48:17Z</time>
      </trkpt>
      <trkpt lat="46.88237" lon="4.68574">
        <ele>432</ele>
        <time>2012-08-22T13:48:18Z</time>
      </trkpt>
      <trkpt lat="46.88232" lon="4.68571">
        <ele>431</ele>
        <time>2012-08-22T13:48:19Z</time>
      </trkpt>
      <trkpt lat="46.88226" lon="4.68566">
        <ele>430</ele>
        <time>2012-08-22T13:48:20Z</time>
      </trkpt>
      <trkpt lat="46.8822" lon="4.68563">
        <ele>431</ele>
        <time>2012-08-22T13:48:21Z</time>
      </trkpt>
      <trkpt lat="46.88215" lon="4.6856">
        <ele>431</ele>
        <time>2012-08-22T13:48:22Z</time>
      </trkpt>
      <trkpt lat="46.88209" lon="4.68557">
        <ele>433</ele>
        <time>2012-08-22T13:48:23Z</time>
      </trkpt>
      <trkpt lat="46.88203" lon="4.68549">
        <ele>436</ele>
        <time>2012-08-22T13:48:24Z</time>
      </trkpt>
      <trkpt lat="46.88198" lon="4.68542">
        <ele>435</ele>
        <time>2012-08-22T13:48:25Z</time>
      </trkpt>
      <trkpt lat="46.88194" lon="4.68536">
        <ele>436</ele>
        <time>2012-08-22T13:48:26Z</time>
      </trkpt>
      <trkpt lat="46.8819" lon="4.68533">
        <ele>434</ele>
        <time>2012-08-22T13:48:27Z</time>
      </trkpt>
      <trkpt lat="46.88182" lon="4.68529">
        <ele>436</ele>
        <time>2012-08-22T13:48:29Z</time>
      </trkpt>
      <trkpt lat="46.88178" lon="4.68527">
        <ele>434</ele>
        <time>2012-08-22T13:48:30Z</time>
      </trkpt>
      <trkpt lat="46.88173" lon="4.68527">
        <ele>435</ele>
        <time>2012-08-22T13:48:31Z</time>
      </trkpt>
      <trkpt lat="46.88168" lon="4.68526">
        <ele>437</ele>
        <time>2012-08-22T13:48:32Z</time>
      </trkpt>
      <trkpt lat="46.88163" lon="4.68525">
        <ele>437</ele>
        <time>2012-08-22T13:48:33Z</time>
      </trkpt>
      <trkpt lat="46.88157" lon="4.68524">
        <ele>440</ele>
        <time>2012-08-22T13:48:34Z</time>
      </trkpt>
      <trkpt lat="46.88153" lon="4.6852">
        <ele>442</ele>
        <time>2012-08-22T13:48:35Z</time>
      </trkpt>
      <trkpt lat="46.88148" lon="4.68515">
        <ele>441</ele>
        <time>2012-08-22T13:48:36Z</time>
      </trkpt>
      <trkpt lat="46.8814" lon="4.68509">
        <ele>442</ele>
        <time>2012-08-22T13:48:38Z</time>
      </trkpt>
      <trkpt lat="46.88136" lon="4.68505">
        <ele>444</ele>
        <time>2012-08-22T13:48:39Z</time>
      </trkpt>
      <trkpt lat="46.88132" lon="4.68499">
        <ele>442</ele>
        <time>2012-08-22T13:48:40Z</time>
      </trkpt>
      <trkpt lat="46.88128" lon="4.68494">
        <ele>443</ele>
        <time>2012-08-22T13:48:41Z</time>
      </trkpt>
      <trkpt lat="46.88125" lon="4.68489">
        <ele>444</ele>
        <time>2012-08-22T13:48:42Z</time>
      </trkpt>
      <trkpt lat="46.88118" lon="4.68482">
        <ele>441</ele>
        <time>2012-08-22T13:48:44Z</time>
      </trkpt>
      <trkpt lat="46.8811" lon="4.68475">
        <ele>442</ele>
        <time>2012-08-22T13:48:46Z</time>
      </trkpt>
      <trkpt lat="46.88105" lon="4.68465">
        <ele>444</ele>
        <time>2012-08-22T13:48:48Z</time>
      </trkpt>
      <trkpt lat="46.88098" lon="4.68457">
        <ele>446</ele>
        <time>2012-08-22T13:48:50Z</time>
      </trkpt>
      <trkpt lat="46.88094" lon="4.68452">
        <ele>449</ele>
        <time>2012-08-22T13:48:51Z</time>
      </trkpt>
      <trkpt lat="46.88089" lon="4.68448">
        <ele>452</ele>
        <time>2012-08-22T13:48:52Z</time>
      </trkpt>
      <trkpt lat="46.88084" lon="4.68443">
        <ele>450</ele>
        <time>2012-08-22T13:48:53Z</time>
      </trkpt>
      <trkpt lat="46.88079" lon="4.68439">
        <ele>449</ele>
        <time>2012-08-22T13:48:54Z</time>
      </trkpt>
      <trkpt lat="46.88074" lon="4.68435">
        <ele>448</ele>
        <time>2012-08-22T13:48:55Z</time>
      </trkpt>
      <trkpt lat="46.8807" lon="4.68432">
        <ele>449</ele>
        <time>2012-08-22T13:48:56Z</time>
      </trkpt>
      <trkpt lat="46.88062" lon="4.68425">
        <ele>450</ele>
        <time>2012-08-22T13:48:58Z</time>
      </trkpt>
      <trkpt lat="46.88058" lon="4.68422">
        <ele>450</ele>
        <time>2012-08-22T13:48:59Z</time>
      </trkpt>
      <trkpt lat="46.8805" lon="4.68414">
        <ele>449</ele>
        <time>2012-08-22T13:49:01Z</time>
      </trkpt>
      <trkpt lat="46.88044" lon="4.68413">
        <ele>451</ele>
        <time>2012-08-22T13:49:03Z</time>
      </trkpt>
      <trkpt lat="46.88039" lon="4.68427">
        <ele>450</ele>
        <time>2012-08-22T13:49:05Z</time>
      </trkpt>
      <trkpt lat="46.88036" lon="4.68438">
        <ele>450</ele>
        <time>2012-08-22T13:49:06Z</time>
      </trkpt>
      <trkpt lat="46.88032" lon="4.68447">
        <ele>450</ele>
        <time>2012-08-22T13:49:07Z</time>
      </trkpt>
      <trkpt lat="46.88028" lon="4.68456">
        <ele>449</ele>
        <time>2012-08-22T13:49:08Z</time>
      </trkpt>
      <trkpt lat="46.88024" lon="4.68464">
        <ele>447</ele>
        <time>2012-08-22T13:49:09Z</time>
      </trkpt>
      <trkpt lat="46.8802" lon="4.68472">
        <ele>450</ele>
        <time>2012-08-22T13:49:10Z</time>
      </trkpt>
      <trkpt lat="46.88016" lon="4.68482">
        <ele>449</ele>
        <time>2012-08-22T13:49:12Z</time>
      </trkpt>
      <trkpt lat="46.88011" lon="4.68487">
        <ele>449</ele>
        <time>2012-08-22T13:49:15Z</time>
      </trkpt>
      <trkpt lat="46.88007" lon="4.68487">
        <ele>453</ele>
        <time>2012-08-22T13:49:17Z</time>
      </trkpt>
      <trkpt lat="46.88001" lon="4.68491">
        <ele>457</ele>
        <time>2012-08-22T13:49:20Z</time>
      </trkpt>
      <trkpt lat="46.87996" lon="4.6849">
        <ele>462</ele>
        <time>2012-08-22T13:49:22Z</time>
      </trkpt>
      <trkpt lat="46.87991" lon="4.6849">
        <ele>464</ele>
        <time>2012-08-22T13:49:24Z</time>
      </trkpt>
      <trkpt lat="46.87983" lon="4.68492">
        <ele>465</ele>
        <time>2012-08-22T13:49:26Z</time>
      </trkpt>
      <trkpt lat="46.87975" lon="4.68491">
        <ele>464</ele>
        <time>2012-08-22T13:49:28Z</time>
      </trkpt>
      <trkpt lat="46.87968" lon="4.68492">
        <ele>465</ele>
        <time>2012-08-22T13:49:30Z</time>
      </trkpt>
      <trkpt lat="46.87964" lon="4.68493">
        <ele>465</ele>
        <time>2012-08-22T13:49:31Z</time>
      </trkpt>
      <trkpt lat="46.87958" lon="4.68495">
        <ele>470</ele>
        <time>2012-08-22T13:49:33Z</time>
      </trkpt>
      <trkpt lat="46.87948" lon="4.68501">
        <ele>464</ele>
        <time>2012-08-22T13:54:03Z</time>
      </trkpt>
      <trkpt lat="46.87942" lon="4.68506">
        <ele>456</ele>
        <time>2012-08-22T13:54:08Z</time>
      </trkpt>
      <trkpt lat="46.87935" lon="4.6851">
        <ele>456</ele>
        <time>2012-08-22T13:54:11Z</time>
      </trkpt>
      <trkpt lat="46.87926" lon="4.68515">
        <ele>458</ele>
        <time>2012-08-22T13:54:13Z</time>
      </trkpt>
      <trkpt lat="46.87922" lon="4.68516">
        <ele>454</ele>
        <time>2012-08-22T13:54:14Z</time>
      </trkpt>
      <trkpt lat="46.87915" lon="4.68514">
        <ele>460</ele>
        <time>2012-08-22T13:54:16Z</time>
      </trkpt>
      <trkpt lat="46.87909" lon="4.68509">
        <ele>460</ele>
        <time>2012-08-22T13:54:18Z</time>
      </trkpt>
      <trkpt lat="46.87905" lon="4.68506">
        <ele>459</ele>
        <time>2012-08-22T13:54:19Z</time>
      </trkpt>
      <trkpt lat="46.879" lon="4.68502">
        <ele>460</ele>
        <time>2012-08-22T13:54:20Z</time>
      </trkpt>
      <trkpt lat="46.87896" lon="4.68498">
        <ele>463</ele>
        <time>2012-08-22T13:54:21Z</time>
      </trkpt>
      <trkpt lat="46.87891" lon="4.68494">
        <ele>466</ele>
        <time>2012-08-22T13:54:22Z</time>
      </trkpt>
      <trkpt lat="46.87886" lon="4.6849">
        <ele>466</ele>
        <time>2012-08-22T13:54:23Z</time>
      </trkpt>
      <trkpt lat="46.87882" lon="4.68486">
        <ele>468</ele>
        <time>2012-08-22T13:54:24Z</time>
      </trkpt>
      <trkpt lat="46.87878" lon="4.68483">
        <ele>469</ele>
        <time>2012-08-22T13:54:25Z</time>
      </trkpt>
      <trkpt lat="46.87873" lon="4.68478">
        <ele>470</ele>
        <time>2012-08-22T13:54:26Z</time>
      </trkpt>
      <trkpt lat="46.87866" lon="4.68473">
        <ele>470</ele>
        <time>2012-08-22T13:54:27Z</time>
      </trkpt>
      <trkpt lat="46.87857" lon="4.68468">
        <ele>470</ele>
        <time>2012-08-22T13:54:28Z</time>
      </trkpt>
      <trkpt lat="46.87849" lon="4.68463">
        <ele>467</ele>
        <time>2012-08-22T13:54:29Z</time>
      </trkpt>
      <trkpt lat="46.8784" lon="4.68458">
        <ele>466</ele>
        <time>2012-08-22T13:54:30Z</time>
      </trkpt>
      <trkpt lat="46.87832" lon="4.68454">
        <ele>463</ele>
        <time>2012-08-22T13:54:31Z</time>
      </trkpt>
      <trkpt lat="46.87824" lon="4.6845">
        <ele>461</ele>
        <time>2012-08-22T13:54:32Z</time>
      </trkpt>
      <trkpt lat="46.87818" lon="4.68447">
        <ele>460</ele>
        <time>2012-08-22T13:54:33Z</time>
      </trkpt>
      <trkpt lat="46.87812" lon="4.68444">
        <ele>462</ele>
        <time>2012-08-22T13:54:34Z</time>
      </trkpt>
      <trkpt lat="46.87806" lon="4.68441">
        <ele>465</ele>
        <time>2012-08-22T13:54:35Z</time>
      </trkpt>
      <trkpt lat="46.87801" lon="4.68438">
        <ele>464</ele>
        <time>2012-08-22T13:54:36Z</time>
      </trkpt>
      <trkpt lat="46.87795" lon="4.68436">
        <ele>465</ele>
        <time>2012-08-22T13:54:37Z</time>
      </trkpt>
      <trkpt lat="46.87788" lon="4.68433">
        <ele>466</ele>
        <time>2012-08-22T13:54:38Z</time>
      </trkpt>
      <trkpt lat="46.8778" lon="4.68431">
        <ele>464</ele>
        <time>2012-08-22T13:54:39Z</time>
      </trkpt>
      <trkpt lat="46.8777" lon="4.68428">
        <ele>464</ele>
        <time>2012-08-22T13:54:40Z</time>
      </trkpt>
      <trkpt lat="46.87758" lon="4.68424">
        <ele>464</ele>
        <time>2012-08-22T13:54:41Z</time>
      </trkpt>
      <trkpt lat="46.87745" lon="4.68419">
        <ele>465</ele>
        <time>2012-08-22T13:54:42Z</time>
      </trkpt>
      <trkpt lat="46.87733" lon="4.68415">
        <ele>463</ele>
        <time>2012-08-22T13:54:43Z</time>
      </trkpt>
      <trkpt lat="46.87722" lon="4.68411">
        <ele>463</ele>
        <time>2012-08-22T13:54:44Z</time>
      </trkpt>
      <trkpt lat="46.87711" lon="4.68407">
        <ele>463</ele>
        <time>2012-08-22T13:54:45Z</time>
      </trkpt>
      <trkpt lat="46.87702" lon="4.68403">
        <ele>459</ele>
        <time>2012-08-22T13:54:46Z</time>
      </trkpt>
      <trkpt lat="46.87693" lon="4.68399">
        <ele>459</ele>
        <time>2012-08-22T13:54:47Z</time>
      </trkpt>
      <trkpt lat="46.87684" lon="4.68395">
        <ele>461</ele>
        <time>2012-08-22T13:54:48Z</time>
      </trkpt>
      <trkpt lat="46.87676" lon="4.6839">
        <ele>459</ele>
        <time>2012-08-22T13:54:49Z</time>
      </trkpt>
      <trkpt lat="46.87668" lon="4.68385">
        <ele>460</ele>
        <time>2012-08-22T13:54:50Z</time>
      </trkpt>
      <trkpt lat="46.8766" lon="4.68381">
        <ele>460</ele>
        <time>2012-08-22T13:54:51Z</time>
      </trkpt>
      <trkpt lat="46.87653" lon="4.68377">
        <ele>459</ele>
        <time>2012-08-22T13:54:52Z</time>
      </trkpt>
      <trkpt lat="46.87647" lon="4.68374">
        <ele>459</ele>
        <time>2012-08-22T13:54:53Z</time>
      </trkpt>
      <trkpt lat="46.8764" lon="4.68375">
        <ele>457</ele>
        <time>2012-08-22T13:54:54Z</time>
      </trkpt>
      <trkpt lat="46.87635" lon="4.68376">
        <ele>458</ele>
        <time>2012-08-22T13:54:55Z</time>
      </trkpt>
      <trkpt lat="46.87629" lon="4.68378">
        <ele>455</ele>
        <time>2012-08-22T13:54:56Z</time>
      </trkpt>
      <trkpt lat="46.87622" lon="4.68379">
        <ele>453</ele>
        <time>2012-08-22T13:54:57Z</time>
      </trkpt>
      <trkpt lat="46.87614" lon="4.68378">
        <ele>453</ele>
        <time>2012-08-22T13:54:58Z</time>
      </trkpt>
      <trkpt lat="46.87607" lon="4.68377">
        <ele>454</ele>
        <time>2012-08-22T13:54:59Z</time>
      </trkpt>
      <trkpt lat="46.87602" lon="4.68376">
        <ele>452</ele>
        <time>2012-08-22T13:55:00Z</time>
      </trkpt>
      <trkpt lat="46.87595" lon="4.68374">
        <ele>453</ele>
        <time>2012-08-22T13:55:01Z</time>
      </trkpt>
      <trkpt lat="46.87587" lon="4.68375">
        <ele>449</ele>
        <time>2012-08-22T13:55:02Z</time>
      </trkpt>
      <trkpt lat="46.87581" lon="4.68375">
        <ele>448</ele>
        <time>2012-08-22T13:55:03Z</time>
      </trkpt>
      <trkpt lat="46.87575" lon="4.68373">
        <ele>448</ele>
        <time>2012-08-22T13:55:04Z</time>
      </trkpt>
      <trkpt lat="46.87569" lon="4.68371">
        <ele>450</ele>
        <time>2012-08-22T13:55:05Z</time>
      </trkpt>
      <trkpt lat="46.87562" lon="4.68369">
        <ele>448</ele>
        <time>2012-08-22T13:55:06Z</time>
      </trkpt>
      <trkpt lat="46.87555" lon="4.68367">
        <ele>445</ele>
        <time>2012-08-22T13:55:07Z</time>
      </trkpt>
      <trkpt lat="46.87549" lon="4.68366">
        <ele>445</ele>
        <time>2012-08-22T13:55:08Z</time>
      </trkpt>
      <trkpt lat="46.87543" lon="4.68366">
        <ele>444</ele>
        <time>2012-08-22T13:55:09Z</time>
      </trkpt>
      <trkpt lat="46.87538" lon="4.68366">
        <ele>444</ele>
        <time>2012-08-22T13:55:10Z</time>
      </trkpt>
      <trkpt lat="46.87533" lon="4.68366">
        <ele>442</ele>
        <time>2012-08-22T13:55:11Z</time>
      </trkpt>
      <trkpt lat="46.87528" lon="4.68365">
        <ele>445</ele>
        <time>2012-08-22T13:55:12Z</time>
      </trkpt>
      <trkpt lat="46.8752" lon="4.68357">
        <ele>444</ele>
        <time>2012-08-22T13:55:14Z</time>
      </trkpt>
      <trkpt lat="46.87516" lon="4.6835">
        <ele>445</ele>
        <time>2012-08-22T13:55:15Z</time>
      </trkpt>
      <trkpt lat="46.8751" lon="4.68339">
        <ele>443</ele>
        <time>2012-08-22T13:55:16Z</time>
      </trkpt>
      <trkpt lat="46.87506" lon="4.68329">
        <ele>444</ele>
        <time>2012-08-22T13:55:17Z</time>
      </trkpt>
      <trkpt lat="46.87501" lon="4.68318">
        <ele>444</ele>
        <time>2012-08-22T13:55:18Z</time>
      </trkpt>
      <trkpt lat="46.87497" lon="4.68308">
        <ele>446</ele>
        <time>2012-08-22T13:55:19Z</time>
      </trkpt>
      <trkpt lat="46.87493" lon="4.68297">
        <ele>445</ele>
        <time>2012-08-22T13:55:20Z</time>
      </trkpt>
      <trkpt lat="46.8749" lon="4.68286">
        <ele>445</ele>
        <time>2012-08-22T13:55:21Z</time>
      </trkpt>
      <trkpt lat="46.87488" lon="4.68273">
        <ele>446</ele>
        <time>2012-08-22T13:55:22Z</time>
      </trkpt>
      <trkpt lat="46.87486" lon="4.68258">
        <ele>445</ele>
        <time>2012-08-22T13:55:23Z</time>
      </trkpt>
      <trkpt lat="46.87484" lon="4.68243">
        <ele>445</ele>
        <time>2012-08-22T13:55:24Z</time>
      </trkpt>
      <trkpt lat="46.87483" lon="4.68225">
        <ele>443</ele>
        <time>2012-08-22T13:55:25Z</time>
      </trkpt>
      <trkpt lat="46.87483" lon="4.68208">
        <ele>443</ele>
        <time>2012-08-22T13:55:26Z</time>
      </trkpt>
      <trkpt lat="46.87483" lon="4.68191">
        <ele>450</ele>
        <time>2012-08-22T13:55:27Z</time>
      </trkpt>
      <trkpt lat="46.87484" lon="4.68173">
        <ele>451</ele>
        <time>2012-08-22T13:55:28Z</time>
      </trkpt>
      <trkpt lat="46.87484" lon="4.68158">
        <ele>451</ele>
        <time>2012-08-22T13:55:29Z</time>
      </trkpt>
      <trkpt lat="46.87484" lon="4.68144">
        <ele>451</ele>
        <time>2012-08-22T13:55:30Z</time>
      </trkpt>
      <trkpt lat="46.87484" lon="4.6813">
        <ele>451</ele>
        <time>2012-08-22T13:55:31Z</time>
      </trkpt>
      <trkpt lat="46.87485" lon="4.68117">
        <ele>449</ele>
        <time>2012-08-22T13:55:32Z</time>
      </trkpt>
      <trkpt lat="46.87485" lon="4.68105">
        <ele>451</ele>
        <time>2012-08-22T13:55:33Z</time>
      </trkpt>
      <trkpt lat="46.87485" lon="4.68093">
        <ele>447</ele>
        <time>2012-08-22T13:55:34Z</time>
      </trkpt>
      <trkpt lat="46.87485" lon="4.68082">
        <ele>451</ele>
        <time>2012-08-22T13:55:35Z</time>
      </trkpt>
      <trkpt lat="46.87486" lon="4.68072">
        <ele>456</ele>
        <time>2012-08-22T13:55:36Z</time>
      </trkpt>
      <trkpt lat="46.87488" lon="4.68062">
        <ele>456</ele>
        <time>2012-08-22T13:55:37Z</time>
      </trkpt>
      <trkpt lat="46.87492" lon="4.68054">
        <ele>457</ele>
        <time>2012-08-22T13:55:38Z</time>
      </trkpt>
      <trkpt lat="46.87496" lon="4.68046">
        <ele>456</ele>
        <time>2012-08-22T13:55:39Z</time>
      </trkpt>
      <trkpt lat="46.87501" lon="4.68043">
        <ele>456</ele>
        <time>2012-08-22T13:55:40Z</time>
      </trkpt>
      <trkpt lat="46.87508" lon="4.68036">
        <ele>454</ele>
        <time>2012-08-22T13:55:42Z</time>
      </trkpt>
      <trkpt lat="46.87511" lon="4.68033">
        <ele>454</ele>
        <time>2012-08-22T13:55:43Z</time>
      </trkpt>
      <trkpt lat="46.87516" lon="4.68029">
        <ele>454</ele>
        <time>2012-08-22T13:55:44Z</time>
      </trkpt>
      <trkpt lat="46.8752" lon="4.68025">
        <ele>458</ele>
        <time>2012-08-22T13:55:45Z</time>
      </trkpt>
      <trkpt lat="46.87526" lon="4.68021">
        <ele>459</ele>
        <time>2012-08-22T13:55:46Z</time>
      </trkpt>
      <trkpt lat="46.87531" lon="4.68019">
        <ele>456</ele>
        <time>2012-08-22T13:55:47Z</time>
      </trkpt>
      <trkpt lat="46.87537" lon="4.68017">
        <ele>452</ele>
        <time>2012-08-22T13:55:48Z</time>
      </trkpt>
      <trkpt lat="46.87543" lon="4.68016">
        <ele>455</ele>
        <time>2012-08-22T13:55:49Z</time>
      </trkpt>
      <trkpt lat="46.87549" lon="4.68014">
        <ele>454</ele>
        <time>2012-08-22T13:55:50Z</time>
      </trkpt>
      <trkpt lat="46.87555" lon="4.68012">
        <ele>455</ele>
        <time>2012-08-22T13:55:51Z</time>
      </trkpt>
      <trkpt lat="46.87561" lon="4.68009">
        <ele>455</ele>
        <time>2012-08-22T13:55:52Z</time>
      </trkpt>
      <trkpt lat="46.87568" lon="4.68008">
        <ele>452</ele>
        <time>2012-08-22T13:55:53Z</time>
      </trkpt>
      <trkpt lat="46.87574" lon="4.68007">
        <ele>453</ele>
        <time>2012-08-22T13:55:54Z</time>
      </trkpt>
      <trkpt lat="46.87581" lon="4.68006">
        <ele>449</ele>
        <time>2012-08-22T13:55:55Z</time>
      </trkpt>
      <trkpt lat="46.87588" lon="4.68006">
        <ele>450</ele>
        <time>2012-08-22T13:55:56Z</time>
      </trkpt>
      <trkpt lat="46.87595" lon="4.68006">
        <ele>452</ele>
        <time>2012-08-22T13:55:57Z</time>
      </trkpt>
      <trkpt lat="46.876" lon="4.68006">
        <ele>449</ele>
        <time>2012-08-22T13:55:58Z</time>
      </trkpt>
      <trkpt lat="46.87606" lon="4.68007">
        <ele>456</ele>
        <time>2012-08-22T13:55:59Z</time>
      </trkpt>
      <trkpt lat="46.87611" lon="4.68008">
        <ele>453</ele>
        <time>2012-08-22T13:56:00Z</time>
      </trkpt>
      <trkpt lat="46.87615" lon="4.68008">
        <ele>449</ele>
        <time>2012-08-22T13:56:01Z</time>
      </trkpt>
      <trkpt lat="46.8762" lon="4.68009">
        <ele>449</ele>
        <time>2012-08-22T13:56:02Z</time>
      </trkpt>
      <trkpt lat="46.87625" lon="4.6801">
        <ele>450</ele>
        <time>2012-08-22T13:56:03Z</time>
      </trkpt>
      <trkpt lat="46.87631" lon="4.68014">
        <ele>449</ele>
        <time>2012-08-22T13:56:04Z</time>
      </trkpt>
      <trkpt lat="46.87637" lon="4.68016">
        <ele>451</ele>
        <time>2012-08-22T13:56:05Z</time>
      </trkpt>
      <trkpt lat="46.87642" lon="4.68018">
        <ele>451</ele>
        <time>2012-08-22T13:56:06Z</time>
      </trkpt>
      <trkpt lat="46.87647" lon="4.68021">
        <ele>453</ele>
        <time>2012-08-22T13:56:07Z</time>
      </trkpt>
      <trkpt lat="46.87657" lon="4.68026">
        <ele>452</ele>
        <time>2012-08-22T13:56:09Z</time>
      </trkpt>
      <trkpt lat="46.87663" lon="4.6803">
        <ele>453</ele>
        <time>2012-08-22T13:56:10Z</time>
      </trkpt>
      <trkpt lat="46.87669" lon="4.68036">
        <ele>454</ele>
        <time>2012-08-22T13:56:11Z</time>
      </trkpt>
      <trkpt lat="46.87676" lon="4.68041">
        <ele>455</ele>
        <time>2012-08-22T13:56:12Z</time>
      </trkpt>
      <trkpt lat="46.87683" lon="4.68046">
        <ele>455</ele>
        <time>2012-08-22T13:56:13Z</time>
      </trkpt>
      <trkpt lat="46.8769" lon="4.68055">
        <ele>454</ele>
        <time>2012-08-22T13:56:14Z</time>
      </trkpt>
      <trkpt lat="46.87697" lon="4.68063">
        <ele>456</ele>
        <time>2012-08-22T13:56:15Z</time>
      </trkpt>
      <trkpt lat="46.87703" lon="4.68072">
        <ele>455</ele>
        <time>2012-08-22T13:56:16Z</time>
      </trkpt>
      <trkpt lat="46.87708" lon="4.6808">
        <ele>454</ele>
        <time>2012-08-22T13:56:17Z</time>
      </trkpt>
      <trkpt lat="46.87714" lon="4.68089">
        <ele>454</ele>
        <time>2012-08-22T13:56:18Z</time>
      </trkpt>
      <trkpt lat="46.87718" lon="4.68097">
        <ele>457</ele>
        <time>2012-08-22T13:56:19Z</time>
      </trkpt>
      <trkpt lat="46.87723" lon="4.68106">
        <ele>455</ele>
        <time>2012-08-22T13:56:20Z</time>
      </trkpt>
      <trkpt lat="46.87728" lon="4.68115">
        <ele>455</ele>
        <time>2012-08-22T13:56:21Z</time>
      </trkpt>
      <trkpt lat="46.87734" lon="4.68124">
        <ele>453</ele>
        <time>2012-08-22T13:56:22Z</time>
      </trkpt>
      <trkpt lat="46.8774" lon="4.68132">
        <ele>452</ele>
        <time>2012-08-22T13:56:23Z</time>
      </trkpt>
      <trkpt lat="46.87748" lon="4.68141">
        <ele>450</ele>
        <time>2012-08-22T13:56:24Z</time>
      </trkpt>
      <trkpt lat="46.87755" lon="4.68149">
        <ele>449</ele>
        <time>2012-08-22T13:56:25Z</time>
      </trkpt>
      <trkpt lat="46.87763" lon="4.68157">
        <ele>449</ele>
        <time>2012-08-22T13:56:26Z</time>
      </trkpt>
      <trkpt lat="46.87769" lon="4.68165">
        <ele>448</ele>
        <time>2012-08-22T13:56:27Z</time>
      </trkpt>
      <trkpt lat="46.87776" lon="4.68172">
        <ele>448</ele>
        <time>2012-08-22T13:56:28Z</time>
      </trkpt>
      <trkpt lat="46.87783" lon="4.6818">
        <ele>449</ele>
        <time>2012-08-22T13:56:29Z</time>
      </trkpt>
      <trkpt lat="46.87792" lon="4.68189">
        <ele>447</ele>
        <time>2012-08-22T13:56:30Z</time>
      </trkpt>
      <trkpt lat="46.878" lon="4.68197">
        <ele>446</ele>
        <time>2012-08-22T13:56:31Z</time>
      </trkpt>
      <trkpt lat="46.87807" lon="4.68205">
        <ele>448</ele>
        <time>2012-08-22T13:56:32Z</time>
      </trkpt>
      <trkpt lat="46.87814" lon="4.68213">
        <ele>450</ele>
        <time>2012-08-22T13:56:33Z</time>
      </trkpt>
      <trkpt lat="46.87822" lon="4.68221">
        <ele>449</ele>
        <time>2012-08-22T13:56:34Z</time>
      </trkpt>
      <trkpt lat="46.87829" lon="4.68229">
        <ele>449</ele>
        <time>2012-08-22T13:56:35Z</time>
      </trkpt>
      <trkpt lat="46.87835" lon="4.68238">
        <ele>449</ele>
        <time>2012-08-22T13:56:36Z</time>
      </trkpt>
      <trkpt lat="46.8784" lon="4.68248">
        <ele>450</ele>
        <time>2012-08-22T13:56:37Z</time>
      </trkpt>
      <trkpt lat="46.87844" lon="4.68257">
        <ele>449</ele>
        <time>2012-08-22T13:56:38Z</time>
      </trkpt>
      <trkpt lat="46.87847" lon="4.68267">
        <ele>448</ele>
        <time>2012-08-22T13:56:39Z</time>
      </trkpt>
      <trkpt lat="46.8785" lon="4.68278">
        <ele>451</ele>
        <time>2012-08-22T13:56:40Z</time>
      </trkpt>
      <trkpt lat="46.87852" lon="4.68289">
        <ele>449</ele>
        <time>2012-08-22T13:56:41Z</time>
      </trkpt>
      <trkpt lat="46.87855" lon="4.683">
        <ele>450</ele>
        <time>2012-08-22T13:56:42Z</time>
      </trkpt>
      <trkpt lat="46.87858" lon="4.68309">
        <ele>450</ele>
        <time>2012-08-22T13:56:43Z</time>
      </trkpt>
      <trkpt lat="46.8786" lon="4.68317">
        <ele>452</ele>
        <time>2012-08-22T13:56:44Z</time>
      </trkpt>
      <trkpt lat="46.87863" lon="4.68326">
        <ele>450</ele>
        <time>2012-08-22T13:56:45Z</time>
      </trkpt>
      <trkpt lat="46.87866" lon="4.68338">
        <ele>451</ele>
        <time>2012-08-22T13:56:46Z</time>
      </trkpt>
      <trkpt lat="46.8787" lon="4.68348">
        <ele>453</ele>
        <time>2012-08-22T13:56:47Z</time>
      </trkpt>
      <trkpt lat="46.87874" lon="4.68358">
        <ele>458</ele>
        <time>2012-08-22T13:56:48Z</time>
      </trkpt>
      <trkpt lat="46.87877" lon="4.68367">
        <ele>461</ele>
        <time>2012-08-22T13:56:49Z</time>
      </trkpt>
      <trkpt lat="46.87882" lon="4.68374">
        <ele>463</ele>
        <time>2012-08-22T13:56:50Z</time>
      </trkpt>
      <trkpt lat="46.87887" lon="4.68381">
        <ele>464</ele>
        <time>2012-08-22T13:56:51Z</time>
      </trkpt>
      <trkpt lat="46.87891" lon="4.68391">
        <ele>464</ele>
        <time>2012-08-22T13:56:52Z</time>
      </trkpt>
      <trkpt lat="46.87896" lon="4.68401">
        <ele>465</ele>
        <time>2012-08-22T13:56:53Z</time>
      </trkpt>
      <trkpt lat="46.879" lon="4.68411">
        <ele>467</ele>
        <time>2012-08-22T13:56:54Z</time>
      </trkpt>
      <trkpt lat="46.87905" lon="4.68423">
        <ele>467</ele>
        <time>2012-08-22T13:56:55Z</time>
      </trkpt>
      <trkpt lat="46.87909" lon="4.68434">
        <ele>469</ele>
        <time>2012-08-22T13:56:56Z</time>
      </trkpt>
      <trkpt lat="46.87913" lon="4.68442">
        <ele>470</ele>
        <time>2012-08-22T13:56:57Z</time>
      </trkpt>
      <trkpt lat="46.87917" lon="4.6845">
        <ele>473</ele>
        <time>2012-08-22T13:56:59Z</time>
      </trkpt>
      <trkpt lat="46.8792" lon="4.68455">
        <ele>476</ele>
        <time>2012-08-22T13:57:00Z</time>
      </trkpt>
      <trkpt lat="46.87922" lon="4.68461">
        <ele>476</ele>
        <time>2012-08-22T13:57:01Z</time>
      </trkpt>
      <trkpt lat="46.87926" lon="4.68468">
        <ele>477</ele>
        <time>2012-08-22T13:57:03Z</time>
      </trkpt>
      <trkpt lat="46.87931" lon="4.68477">
        <ele>471</ele>
        <time>2012-08-22T13:57:05Z</time>
      </trkpt>
      <trkpt lat="46.87935" lon="4.68486">
        <ele>468</ele>
        <time>2012-08-22T13:57:07Z</time>
      </trkpt>
      <trkpt lat="46.8794" lon="4.68493">
        <ele>468</ele>
        <time>2012-08-22T13:57:09Z</time>
      </trkpt>
      <trkpt lat="46.87945" lon="4.685">
        <ele>467</ele>
        <time>2012-08-22T13:57:18Z</time>
      </trkpt>
      <trkpt lat="46.87938" lon="4.68503">
        <ele>463</ele>
        <time>2012-08-22T13:57:22Z</time>
      </trkpt>
      <trkpt lat="46.87934" lon="4.68508">
        <ele>463</ele>
        <time>2012-08-22T13:57:24Z</time>
      </trkpt>
      <trkpt lat="46.87928" lon="4.68512">
        <ele>461</ele>
        <time>2012-08-22T13:57:27Z</time>
      </trkpt>
      <trkpt lat="46.87922" lon="4.68515">
        <ele>463</ele>
        <time>2012-08-22T13:57:29Z</time>
      </trkpt>
      <trkpt lat="46.87917" lon="4.68518">
        <ele>457</ele>
        <time>2012-08-22T13:57:32Z</time>
      </trkpt>
      <trkpt lat="46.87909" lon="4.68518">
        <ele>461</ele>
        <time>2012-08-22T13:58:19Z</time>
      </trkpt>
      <trkpt lat="46.87909" lon="4.68518">
        <ele>461</ele>
        <time>2012-08-22T13:58:19Z</time>
      </trkpt>
      <trkpt lat="46.87909" lon="4.68518">
        <ele>461</ele>
        <time>2012-08-22T13:58:42Z</time>
      </trkpt>
      <trkpt lat="46.87904" lon="4.68515">
        <ele>474</ele>
        <time>2012-08-22T13:58:45Z</time>
      </trkpt>
      <trkpt lat="46.87897" lon="4.68506">
        <ele>474</ele>
        <time>2012-08-22T13:58:47Z</time>
      </trkpt>
      <trkpt lat="46.87892" lon="4.685">
        <ele>476</ele>
        <time>2012-08-22T13:58:48Z</time>
      </trkpt>
      <trkpt lat="46.87886" lon="4.68493">
        <ele>477</ele>
        <time>2012-08-22T13:58:49Z</time>
      </trkpt>
      <trkpt lat="46.87879" lon="4.68487">
        <ele>477</ele>
        <time>2012-08-22T13:58:50Z</time>
      </trkpt>
      <trkpt lat="46.87873" lon="4.6848">
        <ele>472</ele>
        <time>2012-08-22T13:58:51Z</time>
      </trkpt>
      <trkpt lat="46.87865" lon="4.68474">
        <ele>472</ele>
        <time>2012-08-22T13:58:52Z</time>
      </trkpt>
      <trkpt lat="46.87857" lon="4.68469">
        <ele>470</ele>
        <time>2012-08-22T13:58:53Z</time>
      </trkpt>
      <trkpt lat="46.87849" lon="4.68464">
        <ele>468</ele>
        <time>2012-08-22T13:58:54Z</time>
      </trkpt>
      <trkpt lat="46.87841" lon="4.6846">
        <ele>467</ele>
        <time>2012-08-22T13:58:55Z</time>
      </trkpt>
      <trkpt lat="46.87833" lon="4.68456">
        <ele>464</ele>
        <time>2012-08-22T13:58:56Z</time>
      </trkpt>
      <trkpt lat="46.87826" lon="4.68452">
        <ele>464</ele>
        <time>2012-08-22T13:58:57Z</time>
      </trkpt>
      <trkpt lat="46.87819" lon="4.68449">
        <ele>465</ele>
        <time>2012-08-22T13:58:58Z</time>
      </trkpt>
      <trkpt lat="46.87814" lon="4.68448">
        <ele>463</ele>
        <time>2012-08-22T13:58:59Z</time>
      </trkpt>
      <trkpt lat="46.87809" lon="4.68446">
        <ele>463</ele>
        <time>2012-08-22T13:59:00Z</time>
      </trkpt>
      <trkpt lat="46.87804" lon="4.68444">
        <ele>464</ele>
        <time>2012-08-22T13:59:01Z</time>
      </trkpt>
      <trkpt lat="46.87799" lon="4.68442">
        <ele>462</ele>
        <time>2012-08-22T13:59:02Z</time>
      </trkpt>
      <trkpt lat="46.87793" lon="4.6844">
        <ele>461</ele>
        <time>2012-08-22T13:59:03Z</time>
      </trkpt>
      <trkpt lat="46.87785" lon="4.68438">
        <ele>466</ele>
        <time>2012-08-22T13:59:04Z</time>
      </trkpt>
      <trkpt lat="46.87777" lon="4.68435">
        <ele>464</ele>
        <time>2012-08-22T13:59:05Z</time>
      </trkpt>
      <trkpt lat="46.87768" lon="4.68433">
        <ele>464</ele>
        <time>2012-08-22T13:59:06Z</time>
      </trkpt>
      <trkpt lat="46.87757" lon="4.68429">
        <ele>465</ele>
        <time>2012-08-22T13:59:07Z</time>
      </trkpt>
      <trkpt lat="46.87746" lon="4.68424">
        <ele>467</ele>
        <time>2012-08-22T13:59:08Z</time>
      </trkpt>
      <trkpt lat="46.87736" lon="4.6842">
        <ele>462</ele>
        <time>2012-08-22T13:59:09Z</time>
      </trkpt>
      <trkpt lat="46.87726" lon="4.68416">
        <ele>457</ele>
        <time>2012-08-22T13:59:10Z</time>
      </trkpt>
      <trkpt lat="46.87717" lon="4.68411">
        <ele>454</ele>
        <time>2012-08-22T13:59:11Z</time>
      </trkpt>
      <trkpt lat="46.87707" lon="4.68407">
        <ele>454</ele>
        <time>2012-08-22T13:59:12Z</time>
      </trkpt>
      <trkpt lat="46.87698" lon="4.68402">
        <ele>451</ele>
        <time>2012-08-22T13:59:13Z</time>
      </trkpt>
      <trkpt lat="46.87689" lon="4.68397">
        <ele>450</ele>
        <time>2012-08-22T13:59:14Z</time>
      </trkpt>
      <trkpt lat="46.87679" lon="4.68391">
        <ele>450</ele>
        <time>2012-08-22T13:59:15Z</time>
      </trkpt>
      <trkpt lat="46.8767" lon="4.68384">
        <ele>452</ele>
        <time>2012-08-22T13:59:16Z</time>
      </trkpt>
      <trkpt lat="46.87661" lon="4.68379">
        <ele>454</ele>
        <time>2012-08-22T13:59:17Z</time>
      </trkpt>
      <trkpt lat="46.87654" lon="4.68374">
        <ele>455</ele>
        <time>2012-08-22T13:59:18Z</time>
      </trkpt>
      <trkpt lat="46.87647" lon="4.68373">
        <ele>455</ele>
        <time>2012-08-22T13:59:19Z</time>
      </trkpt>
      <trkpt lat="46.8764" lon="4.68373">
        <ele>455</ele>
        <time>2012-08-22T13:59:20Z</time>
      </trkpt>
      <trkpt lat="46.87635" lon="4.68374">
        <ele>453</ele>
        <time>2012-08-22T13:59:21Z</time>
      </trkpt>
      <trkpt lat="46.87629" lon="4.68375">
        <ele>451</ele>
        <time>2012-08-22T13:59:22Z</time>
      </trkpt>
      <trkpt lat="46.87623" lon="4.68376">
        <ele>451</ele>
        <time>2012-08-22T13:59:23Z</time>
      </trkpt>
      <trkpt lat="46.87616" lon="4.68376">
        <ele>450</ele>
        <time>2012-08-22T13:59:24Z</time>
      </trkpt>
      <trkpt lat="46.8761" lon="4.68375">
        <ele>450</ele>
        <time>2012-08-22T13:59:25Z</time>
      </trkpt>
      <trkpt lat="46.87603" lon="4.68374">
        <ele>450</ele>
        <time>2012-08-22T13:59:26Z</time>
      </trkpt>
      <trkpt lat="46.87597" lon="4.68373">
        <ele>448</ele>
        <time>2012-08-22T13:59:27Z</time>
      </trkpt>
      <trkpt lat="46.8759" lon="4.68372">
        <ele>449</ele>
        <time>2012-08-22T13:59:28Z</time>
      </trkpt>
      <trkpt lat="46.87584" lon="4.68372">
        <ele>450</ele>
        <time>2012-08-22T13:59:29Z</time>
      </trkpt>
      <trkpt lat="46.87578" lon="4.68371">
        <ele>447</ele>
        <time>2012-08-22T13:59:30Z</time>
      </trkpt>
      <trkpt lat="46.87571" lon="4.68371">
        <ele>447</ele>
        <time>2012-08-22T13:59:31Z</time>
      </trkpt>
      <trkpt lat="46.87564" lon="4.6837">
        <ele>444</ele>
        <time>2012-08-22T13:59:32Z</time>
      </trkpt>
      <trkpt lat="46.87556" lon="4.68369">
        <ele>445</ele>
        <time>2012-08-22T13:59:33Z</time>
      </trkpt>
      <trkpt lat="46.87549" lon="4.68368">
        <ele>445</ele>
        <time>2012-08-22T13:59:34Z</time>
      </trkpt>
      <trkpt lat="46.87543" lon="4.68367">
        <ele>447</ele>
        <time>2012-08-22T13:59:35Z</time>
      </trkpt>
      <trkpt lat="46.87538" lon="4.68367">
        <ele>445</ele>
        <time>2012-08-22T13:59:36Z</time>
      </trkpt>
      <trkpt lat="46.87529" lon="4.68366">
        <ele>442</ele>
        <time>2012-08-22T13:59:38Z</time>
      </trkpt>
      <trkpt lat="46.87523" lon="4.68364">
        <ele>440</ele>
        <time>2012-08-22T13:59:39Z</time>
      </trkpt>
      <trkpt lat="46.87516" lon="4.68365">
        <ele>440</ele>
        <time>2012-08-22T13:59:40Z</time>
      </trkpt>
      <trkpt lat="46.8751" lon="4.68366">
        <ele>440</ele>
        <time>2012-08-22T13:59:41Z</time>
      </trkpt>
      <trkpt lat="46.87502" lon="4.68367">
        <ele>440</ele>
        <time>2012-08-22T13:59:42Z</time>
      </trkpt>
      <trkpt lat="46.87496" lon="4.68368">
        <ele>442</ele>
        <time>2012-08-22T13:59:43Z</time>
      </trkpt>
      <trkpt lat="46.87488" lon="4.6837">
        <ele>441</ele>
        <time>2012-08-22T13:59:44Z</time>
      </trkpt>
      <trkpt lat="46.87481" lon="4.68372">
        <ele>443</ele>
        <time>2012-08-22T13:59:45Z</time>
      </trkpt>
      <trkpt lat="46.87473" lon="4.68374">
        <ele>443</ele>
        <time>2012-08-22T13:59:46Z</time>
      </trkpt>
      <trkpt lat="46.87463" lon="4.68377">
        <ele>438</ele>
        <time>2012-08-22T13:59:47Z</time>
      </trkpt>
      <trkpt lat="46.87453" lon="4.6838">
        <ele>436</ele>
        <time>2012-08-22T13:59:48Z</time>
      </trkpt>
      <trkpt lat="46.87443" lon="4.68381">
        <ele>434</ele>
        <time>2012-08-22T13:59:49Z</time>
      </trkpt>
      <trkpt lat="46.87433" lon="4.68382">
        <ele>432</ele>
        <time>2012-08-22T13:59:50Z</time>
      </trkpt>
      <trkpt lat="46.87423" lon="4.68382">
        <ele>431</ele>
        <time>2012-08-22T13:59:51Z</time>
      </trkpt>
      <trkpt lat="46.87414" lon="4.68382">
        <ele>430</ele>
        <time>2012-08-22T13:59:52Z</time>
      </trkpt>
      <trkpt lat="46.87404" lon="4.68388">
        <ele>430</ele>
        <time>2012-08-22T13:59:53Z</time>
      </trkpt>
      <trkpt lat="46.87395" lon="4.68394">
        <ele>433</ele>
        <time>2012-08-22T13:59:54Z</time>
      </trkpt>
      <trkpt lat="46.87386" lon="4.68399">
        <ele>432</ele>
        <time>2012-08-22T13:59:55Z</time>
      </trkpt>
      <trkpt lat="46.87378" lon="4.68406">
        <ele>431</ele>
        <time>2012-08-22T13:59:56Z</time>
      </trkpt>
      <trkpt lat="46.8737" lon="4.68412">
        <ele>428</ele>
        <time>2012-08-22T13:59:57Z</time>
      </trkpt>
      <trkpt lat="46.87364" lon="4.68416">
        <ele>422</ele>
        <time>2012-08-22T13:59:58Z</time>
      </trkpt>
      <trkpt lat="46.87357" lon="4.68421">
        <ele>418</ele>
        <time>2012-08-22T13:59:59Z</time>
      </trkpt>
      <trkpt lat="46.87349" lon="4.68426">
        <ele>419</ele>
        <time>2012-08-22T14:00:00Z</time>
      </trkpt>
      <trkpt lat="46.87339" lon="4.68427">
        <ele>420</ele>
        <time>2012-08-22T14:00:01Z</time>
      </trkpt>
      <trkpt lat="46.87327" lon="4.68427">
        <ele>418</ele>
        <time>2012-08-22T14:00:02Z</time>
      </trkpt>
      <trkpt lat="46.87315" lon="4.68426">
        <ele>417</ele>
        <time>2012-08-22T14:00:03Z</time>
      </trkpt>
      <trkpt lat="46.87304" lon="4.68424">
        <ele>415</ele>
        <time>2012-08-22T14:00:04Z</time>
      </trkpt>
      <trkpt lat="46.87294" lon="4.68423">
        <ele>413</ele>
        <time>2012-08-22T14:00:05Z</time>
      </trkpt>
      <trkpt lat="46.87284" lon="4.68422">
        <ele>413</ele>
        <time>2012-08-22T14:00:06Z</time>
      </trkpt>
      <trkpt lat="46.87273" lon="4.68422">
        <ele>415</ele>
        <time>2012-08-22T14:00:07Z</time>
      </trkpt>
      <trkpt lat="46.87262" lon="4.68423">
        <ele>415</ele>
        <time>2012-08-22T14:00:08Z</time>
      </trkpt>
      <trkpt lat="46.87251" lon="4.68423">
        <ele>413</ele>
        <time>2012-08-22T14:00:09Z</time>
      </trkpt>
      <trkpt lat="46.87241" lon="4.68423">
        <ele>412</ele>
        <time>2012-08-22T14:00:10Z</time>
      </trkpt>
      <trkpt lat="46.87231" lon="4.68422">
        <ele>413</ele>
        <time>2012-08-22T14:00:11Z</time>
      </trkpt>
      <trkpt lat="46.87221" lon="4.68421">
        <ele>409</ele>
        <time>2012-08-22T14:00:12Z</time>
      </trkpt>
      <trkpt lat="46.87212" lon="4.68416">
        <ele>406</ele>
        <time>2012-08-22T14:00:13Z</time>
      </trkpt>
      <trkpt lat="46.87204" lon="4.6841">
        <ele>406</ele>
        <time>2012-08-22T14:00:14Z</time>
      </trkpt>
      <trkpt lat="46.87198" lon="4.68406">
        <ele>406</ele>
        <time>2012-08-22T14:00:15Z</time>
      </trkpt>
      <trkpt lat="46.87192" lon="4.68402">
        <ele>406</ele>
        <time>2012-08-22T14:00:16Z</time>
      </trkpt>
      <trkpt lat="46.87186" lon="4.68402">
        <ele>405</ele>
        <time>2012-08-22T14:00:17Z</time>
      </trkpt>
      <trkpt lat="46.87179" lon="4.68404">
        <ele>404</ele>
        <time>2012-08-22T14:00:18Z</time>
      </trkpt>
      <trkpt lat="46.87171" lon="4.68408">
        <ele>403</ele>
        <time>2012-08-22T14:00:19Z</time>
      </trkpt>
      <trkpt lat="46.87162" lon="4.68413">
        <ele>397</ele>
        <time>2012-08-22T14:00:20Z</time>
      </trkpt>
      <trkpt lat="46.87152" lon="4.68419">
        <ele>394</ele>
        <time>2012-08-22T14:00:21Z</time>
      </trkpt>
      <trkpt lat="46.87143" lon="4.68425">
        <ele>392</ele>
        <time>2012-08-22T14:00:22Z</time>
      </trkpt>
      <trkpt lat="46.87133" lon="4.68432">
        <ele>392</ele>
        <time>2012-08-22T14:00:23Z</time>
      </trkpt>
      <trkpt lat="46.87122" lon="4.68438">
        <ele>392</ele>
        <time>2012-08-22T14:00:24Z</time>
      </trkpt>
      <trkpt lat="46.87111" lon="4.68443">
        <ele>388</ele>
        <time>2012-08-22T14:00:25Z</time>
      </trkpt>
      <trkpt lat="46.87099" lon="4.68448">
        <ele>386</ele>
        <time>2012-08-22T14:00:26Z</time>
      </trkpt>
      <trkpt lat="46.87086" lon="4.68452">
        <ele>385</ele>
        <time>2012-08-22T14:00:27Z</time>
      </trkpt>
      <trkpt lat="46.87075" lon="4.68456">
        <ele>383</ele>
        <time>2012-08-22T14:00:28Z</time>
      </trkpt>
      <trkpt lat="46.87063" lon="4.68459">
        <ele>382</ele>
        <time>2012-08-22T14:00:29Z</time>
      </trkpt>
      <trkpt lat="46.87054" lon="4.68461">
        <ele>380</ele>
        <time>2012-08-22T14:00:30Z</time>
      </trkpt>
      <trkpt lat="46.87046" lon="4.68464">
        <ele>379</ele>
        <time>2012-08-22T14:00:31Z</time>
      </trkpt>
      <trkpt lat="46.87038" lon="4.68466">
        <ele>380</ele>
        <time>2012-08-22T14:00:32Z</time>
      </trkpt>
      <trkpt lat="46.8703" lon="4.68468">
        <ele>379</ele>
        <time>2012-08-22T14:00:33Z</time>
      </trkpt>
      <trkpt lat="46.87022" lon="4.6847">
        <ele>378</ele>
        <time>2012-08-22T14:00:34Z</time>
      </trkpt>
      <trkpt lat="46.87015" lon="4.68471">
        <ele>376</ele>
        <time>2012-08-22T14:00:35Z</time>
      </trkpt>
      <trkpt lat="46.8701" lon="4.68472">
        <ele>374</ele>
        <time>2012-08-22T14:00:36Z</time>
      </trkpt>
      <trkpt lat="46.87" lon="4.68473">
        <ele>370</ele>
        <time>2012-08-22T14:00:38Z</time>
      </trkpt>
      <trkpt lat="46.86991" lon="4.68473">
        <ele>369</ele>
        <time>2012-08-22T14:00:39Z</time>
      </trkpt>
      <trkpt lat="46.8698" lon="4.68474">
        <ele>371</ele>
        <time>2012-08-22T14:00:40Z</time>
      </trkpt>
      <trkpt lat="46.86969" lon="4.68475">
        <ele>370</ele>
        <time>2012-08-22T14:00:41Z</time>
      </trkpt>
      <trkpt lat="46.86957" lon="4.68476">
        <ele>368</ele>
        <time>2012-08-22T14:00:42Z</time>
      </trkpt>
      <trkpt lat="46.86945" lon="4.68476">
        <ele>366</ele>
        <time>2012-08-22T14:00:43Z</time>
      </trkpt>
      <trkpt lat="46.86934" lon="4.68476">
        <ele>363</ele>
        <time>2012-08-22T14:00:44Z</time>
      </trkpt>
      <trkpt lat="46.86924" lon="4.68475">
        <ele>364</ele>
        <time>2012-08-22T14:00:45Z</time>
      </trkpt>
      <trkpt lat="46.86914" lon="4.68475">
        <ele>363</ele>
        <time>2012-08-22T14:00:46Z</time>
      </trkpt>
      <trkpt lat="46.86906" lon="4.68475">
        <ele>363</ele>
        <time>2012-08-22T14:00:47Z</time>
      </trkpt>
      <trkpt lat="46.869" lon="4.68475">
        <ele>366</ele>
        <time>2012-08-22T14:00:48Z</time>
      </trkpt>
      <trkpt lat="46.86892" lon="4.68474">
        <ele>366</ele>
        <time>2012-08-22T14:00:49Z</time>
      </trkpt>
      <trkpt lat="46.86882" lon="4.68474">
        <ele>368</ele>
        <time>2012-08-22T14:00:50Z</time>
      </trkpt>
      <trkpt lat="46.86871" lon="4.68474">
        <ele>369</ele>
        <time>2012-08-22T14:00:51Z</time>
      </trkpt>
      <trkpt lat="46.86861" lon="4.68474">
        <ele>368</ele>
        <time>2012-08-22T14:00:52Z</time>
      </trkpt>
      <trkpt lat="46.8685" lon="4.68474">
        <ele>368</ele>
        <time>2012-08-22T14:00:53Z</time>
      </trkpt>
      <trkpt lat="46.86841" lon="4.68473">
        <ele>369</ele>
        <time>2012-08-22T14:00:54Z</time>
      </trkpt>
      <trkpt lat="46.86834" lon="4.68472">
        <ele>369</ele>
        <time>2012-08-22T14:00:55Z</time>
      </trkpt>
      <trkpt lat="46.86829" lon="4.68472">
        <ele>370</ele>
        <time>2012-08-22T14:00:56Z</time>
      </trkpt>
      <trkpt lat="46.8682" lon="4.68473">
        <ele>369</ele>
        <time>2012-08-22T14:00:57Z</time>
      </trkpt>
      <trkpt lat="46.86811" lon="4.68473">
        <ele>371</ele>
        <time>2012-08-22T14:00:58Z</time>
      </trkpt>
      <trkpt lat="46.86803" lon="4.68473">
        <ele>372</ele>
        <time>2012-08-22T14:00:59Z</time>
      </trkpt>
      <trkpt lat="46.86793" lon="4.68471">
        <ele>374</ele>
        <time>2012-08-22T14:01:00Z</time>
      </trkpt>
      <trkpt lat="46.86784" lon="4.68466">
        <ele>371</ele>
        <time>2012-08-22T14:01:01Z</time>
      </trkpt>
      <trkpt lat="46.86774" lon="4.68461">
        <ele>372</ele>
        <time>2012-08-22T14:01:02Z</time>
      </trkpt>
      <trkpt lat="46.86764" lon="4.68456">
        <ele>370</ele>
        <time>2012-08-22T14:01:03Z</time>
      </trkpt>
      <trkpt lat="46.86753" lon="4.68451">
        <ele>369</ele>
        <time>2012-08-22T14:01:04Z</time>
      </trkpt>
      <trkpt lat="46.86743" lon="4.68446">
        <ele>370</ele>
        <time>2012-08-22T14:01:05Z</time>
      </trkpt>
      <trkpt lat="46.86734" lon="4.68441">
        <ele>372</ele>
        <time>2012-08-22T14:01:06Z</time>
      </trkpt>
      <trkpt lat="46.86726" lon="4.68437">
        <ele>375</ele>
        <time>2012-08-22T14:01:07Z</time>
      </trkpt>
      <trkpt lat="46.86718" lon="4.68433">
        <ele>377</ele>
        <time>2012-08-22T14:01:08Z</time>
      </trkpt>
      <trkpt lat="46.86713" lon="4.68429">
        <ele>377</ele>
        <time>2012-08-22T14:01:09Z</time>
      </trkpt>
      <trkpt lat="46.86709" lon="4.68426">
        <ele>377</ele>
        <time>2012-08-22T14:01:10Z</time>
      </trkpt>
      <trkpt lat="46.86702" lon="4.68426">
        <ele>377</ele>
        <time>2012-08-22T14:01:12Z</time>
      </trkpt>
      <trkpt lat="46.86697" lon="4.68439">
        <ele>376</ele>
        <time>2012-08-22T14:01:14Z</time>
      </trkpt>
      <trkpt lat="46.86695" lon="4.68448">
        <ele>372</ele>
        <time>2012-08-22T14:01:15Z</time>
      </trkpt>
      <trkpt lat="46.86692" lon="4.6846">
        <ele>370</ele>
        <time>2012-08-22T14:01:16Z</time>
      </trkpt>
      <trkpt lat="46.86689" lon="4.68475">
        <ele>370</ele>
        <time>2012-08-22T14:01:17Z</time>
      </trkpt>
      <trkpt lat="46.86685" lon="4.68489">
        <ele>368</ele>
        <time>2012-08-22T14:01:18Z</time>
      </trkpt>
      <trkpt lat="46.86682" lon="4.68506">
        <ele>367</ele>
        <time>2012-08-22T14:01:19Z</time>
      </trkpt>
      <trkpt lat="46.8668" lon="4.68522">
        <ele>366</ele>
        <time>2012-08-22T14:01:20Z</time>
      </trkpt>
      <trkpt lat="46.86677" lon="4.68538">
        <ele>366</ele>
        <time>2012-08-22T14:01:21Z</time>
      </trkpt>
      <trkpt lat="46.86674" lon="4.68553">
        <ele>366</ele>
        <time>2012-08-22T14:01:22Z</time>
      </trkpt>
      <trkpt lat="46.86671" lon="4.6857">
        <ele>364</ele>
        <time>2012-08-22T14:01:23Z</time>
      </trkpt>
      <trkpt lat="46.86668" lon="4.68589">
        <ele>365</ele>
        <time>2012-08-22T14:01:24Z</time>
      </trkpt>
      <trkpt lat="46.86666" lon="4.68606">
        <ele>365</ele>
        <time>2012-08-22T14:01:25Z</time>
      </trkpt>
      <trkpt lat="46.86663" lon="4.68623">
        <ele>366</ele>
        <time>2012-08-22T14:01:26Z</time>
      </trkpt>
      <trkpt lat="46.86661" lon="4.68641">
        <ele>367</ele>
        <time>2012-08-22T14:01:27Z</time>
      </trkpt>
      <trkpt lat="46.8666" lon="4.68659">
        <ele>364</ele>
        <time>2012-08-22T14:01:28Z</time>
      </trkpt>
      <trkpt lat="46.86658" lon="4.68676">
        <ele>363</ele>
        <time>2012-08-22T14:01:29Z</time>
      </trkpt>
      <trkpt lat="46.86656" lon="4.68691">
        <ele>363</ele>
        <time>2012-08-22T14:01:30Z</time>
      </trkpt>
      <trkpt lat="46.86655" lon="4.68707">
        <ele>362</ele>
        <time>2012-08-22T14:01:31Z</time>
      </trkpt>
      <trkpt lat="46.86654" lon="4.6872">
        <ele>361</ele>
        <time>2012-08-22T14:01:32Z</time>
      </trkpt>
      <trkpt lat="46.86653" lon="4.68732">
        <ele>361</ele>
        <time>2012-08-22T14:01:33Z</time>
      </trkpt>
      <trkpt lat="46.86652" lon="4.68741">
        <ele>361</ele>
        <time>2012-08-22T14:01:34Z</time>
      </trkpt>
      <trkpt lat="46.86654" lon="4.68748">
        <ele>361</ele>
        <time>2012-08-22T14:01:35Z</time>
      </trkpt>
      <trkpt lat="46.86655" lon="4.68757">
        <ele>358</ele>
        <time>2012-08-22T14:01:37Z</time>
      </trkpt>
      <trkpt lat="46.86656" lon="4.68767">
        <ele>355</ele>
        <time>2012-08-22T14:01:39Z</time>
      </trkpt>
      <trkpt lat="46.86653" lon="4.68773">
        <ele>353</ele>
        <time>2012-08-22T14:01:40Z</time>
      </trkpt>
      <trkpt lat="46.86649" lon="4.68783">
        <ele>354</ele>
        <time>2012-08-22T14:01:42Z</time>
      </trkpt>
      <trkpt lat="46.86643" lon="4.68791">
        <ele>355</ele>
        <time>2012-08-22T14:01:44Z</time>
      </trkpt>
      <trkpt lat="46.86638" lon="4.68795">
        <ele>352</ele>
        <time>2012-08-22T14:01:45Z</time>
      </trkpt>
      <trkpt lat="46.86634" lon="4.68798">
        <ele>350</ele>
        <time>2012-08-22T14:01:46Z</time>
      </trkpt>
      <trkpt lat="46.86628" lon="4.68801">
        <ele>350</ele>
        <time>2012-08-22T14:01:47Z</time>
      </trkpt>
      <trkpt lat="46.8662" lon="4.68798">
        <ele>353</ele>
        <time>2012-08-22T14:01:48Z</time>
      </trkpt>
      <trkpt lat="46.8661" lon="4.68796">
        <ele>355</ele>
        <time>2012-08-22T14:01:49Z</time>
      </trkpt>
      <trkpt lat="46.86601" lon="4.68794">
        <ele>355</ele>
        <time>2012-08-22T14:01:50Z</time>
      </trkpt>
      <trkpt lat="46.86589" lon="4.68791">
        <ele>359</ele>
        <time>2012-08-22T14:01:51Z</time>
      </trkpt>
      <trkpt lat="46.86576" lon="4.68789">
        <ele>363</ele>
        <time>2012-08-22T14:01:52Z</time>
      </trkpt>
      <trkpt lat="46.86562" lon="4.68789">
        <ele>360</ele>
        <time>2012-08-22T14:01:53Z</time>
      </trkpt>
      <trkpt lat="46.86548" lon="4.68788">
        <ele>362</ele>
        <time>2012-08-22T14:01:54Z</time>
      </trkpt>
      <trkpt lat="46.86533" lon="4.68788">
        <ele>365</ele>
        <time>2012-08-22T14:01:55Z</time>
      </trkpt>
      <trkpt lat="46.8652" lon="4.68788">
        <ele>368</ele>
        <time>2012-08-22T14:01:56Z</time>
      </trkpt>
      <trkpt lat="46.86508" lon="4.68789">
        <ele>371</ele>
        <time>2012-08-22T14:01:57Z</time>
      </trkpt>
      <trkpt lat="46.86497" lon="4.68789">
        <ele>374</ele>
        <time>2012-08-22T14:01:58Z</time>
      </trkpt>
      <trkpt lat="46.86487" lon="4.68791">
        <ele>371</ele>
        <time>2012-08-22T14:01:59Z</time>
      </trkpt>
      <trkpt lat="46.86474" lon="4.68797">
        <ele>373</ele>
        <time>2012-08-22T14:02:00Z</time>
      </trkpt>
      <trkpt lat="46.86462" lon="4.68802">
        <ele>372</ele>
        <time>2012-08-22T14:02:01Z</time>
      </trkpt>
      <trkpt lat="46.8645" lon="4.68808">
        <ele>376</ele>
        <time>2012-08-22T14:02:02Z</time>
      </trkpt>
      <trkpt lat="46.86435" lon="4.68814">
        <ele>378</ele>
        <time>2012-08-22T14:02:03Z</time>
      </trkpt>
      <trkpt lat="46.86422" lon="4.6882">
        <ele>380</ele>
        <time>2012-08-22T14:02:04Z</time>
      </trkpt>
      <trkpt lat="46.86408" lon="4.68827">
        <ele>381</ele>
        <time>2012-08-22T14:02:05Z</time>
      </trkpt>
      <trkpt lat="46.86395" lon="4.68834">
        <ele>381</ele>
        <time>2012-08-22T14:02:06Z</time>
      </trkpt>
      <trkpt lat="46.86383" lon="4.68841">
        <ele>385</ele>
        <time>2012-08-22T14:02:07Z</time>
      </trkpt>
      <trkpt lat="46.86372" lon="4.68847">
        <ele>386</ele>
        <time>2012-08-22T14:02:08Z</time>
      </trkpt>
      <trkpt lat="46.86361" lon="4.68854">
        <ele>386</ele>
        <time>2012-08-22T14:02:09Z</time>
      </trkpt>
      <trkpt lat="46.86351" lon="4.68861">
        <ele>386</ele>
        <time>2012-08-22T14:02:10Z</time>
      </trkpt>
      <trkpt lat="46.86341" lon="4.6887">
        <ele>396</ele>
        <time>2012-08-22T14:02:11Z</time>
      </trkpt>
      <trkpt lat="46.86329" lon="4.6888">
        <ele>401</ele>
        <time>2012-08-22T14:02:12Z</time>
      </trkpt>
      <trkpt lat="46.86317" lon="4.68892">
        <ele>406</ele>
        <time>2012-08-22T14:02:13Z</time>
      </trkpt>
      <trkpt lat="46.86305" lon="4.68904">
        <ele>408</ele>
        <time>2012-08-22T14:02:14Z</time>
      </trkpt>
      <trkpt lat="46.86293" lon="4.68918">
        <ele>408</ele>
        <time>2012-08-22T14:02:15Z</time>
      </trkpt>
      <trkpt lat="46.86281" lon="4.68935">
        <ele>408</ele>
        <time>2012-08-22T14:02:16Z</time>
      </trkpt>
      <trkpt lat="46.8627" lon="4.68952">
        <ele>408</ele>
        <time>2012-08-22T14:02:17Z</time>
      </trkpt>
      <trkpt lat="46.86261" lon="4.68967">
        <ele>408</ele>
        <time>2012-08-22T14:02:18Z</time>
      </trkpt>
      <trkpt lat="46.86253" lon="4.6898">
        <ele>406</ele>
        <time>2012-08-22T14:02:19Z</time>
      </trkpt>
      <trkpt lat="46.86249" lon="4.68994">
        <ele>409</ele>
        <time>2012-08-22T14:02:20Z</time>
      </trkpt>
      <trkpt lat="46.86247" lon="4.69009">
        <ele>410</ele>
        <time>2012-08-22T14:02:21Z</time>
      </trkpt>
      <trkpt lat="46.86246" lon="4.69027">
        <ele>407</ele>
        <time>2012-08-22T14:02:22Z</time>
      </trkpt>
      <trkpt lat="46.86246" lon="4.69045">
        <ele>409</ele>
        <time>2012-08-22T14:02:23Z</time>
      </trkpt>
      <trkpt lat="46.86249" lon="4.69064">
        <ele>410</ele>
        <time>2012-08-22T14:02:24Z</time>
      </trkpt>
      <trkpt lat="46.86252" lon="4.69085">
        <ele>407</ele>
        <time>2012-08-22T14:02:25Z</time>
      </trkpt>
      <trkpt lat="46.86254" lon="4.69104">
        <ele>407</ele>
        <time>2012-08-22T14:02:26Z</time>
      </trkpt>
      <trkpt lat="46.86256" lon="4.6912">
        <ele>406</ele>
        <time>2012-08-22T14:02:27Z</time>
      </trkpt>
      <trkpt lat="46.86257" lon="4.69134">
        <ele>406</ele>
        <time>2012-08-22T14:02:28Z</time>
      </trkpt>
      <trkpt lat="46.86262" lon="4.69148">
        <ele>405</ele>
        <time>2012-08-22T14:02:29Z</time>
      </trkpt>
      <trkpt lat="46.86267" lon="4.69162">
        <ele>406</ele>
        <time>2012-08-22T14:02:30Z</time>
      </trkpt>
      <trkpt lat="46.86272" lon="4.69177">
        <ele>403</ele>
        <time>2012-08-22T14:02:31Z</time>
      </trkpt>
      <trkpt lat="46.86278" lon="4.69192">
        <ele>401</ele>
        <time>2012-08-22T14:02:32Z</time>
      </trkpt>
      <trkpt lat="46.8628" lon="4.69209">
        <ele>401</ele>
        <time>2012-08-22T14:02:33Z</time>
      </trkpt>
      <trkpt lat="46.86282" lon="4.69229">
        <ele>404</ele>
        <time>2012-08-22T14:02:34Z</time>
      </trkpt>
      <trkpt lat="46.86284" lon="4.69249">
        <ele>407</ele>
        <time>2012-08-22T14:02:35Z</time>
      </trkpt>
      <trkpt lat="46.86284" lon="4.69271">
        <ele>408</ele>
        <time>2012-08-22T14:02:36Z</time>
      </trkpt>
      <trkpt lat="46.86284" lon="4.69293">
        <ele>408</ele>
        <time>2012-08-22T14:02:37Z</time>
      </trkpt>
      <trkpt lat="46.86283" lon="4.69315">
        <ele>409</ele>
        <time>2012-08-22T14:02:38Z</time>
      </trkpt>
      <trkpt lat="46.86281" lon="4.69337">
        <ele>411</ele>
        <time>2012-08-22T14:02:39Z</time>
      </trkpt>
      <trkpt lat="46.8628" lon="4.69356">
        <ele>410</ele>
        <time>2012-08-22T14:02:40Z</time>
      </trkpt>
      <trkpt lat="46.86278" lon="4.69372">
        <ele>408</ele>
        <time>2012-08-22T14:02:41Z</time>
      </trkpt>
      <trkpt lat="46.86277" lon="4.69389">
        <ele>408</ele>
        <time>2012-08-22T14:02:42Z</time>
      </trkpt>
      <trkpt lat="46.86277" lon="4.69405">
        <ele>407</ele>
        <time>2012-08-22T14:02:43Z</time>
      </trkpt>
      <trkpt lat="46.86277" lon="4.69424">
        <ele>409</ele>
        <time>2012-08-22T14:02:44Z</time>
      </trkpt>
      <trkpt lat="46.86281" lon="4.69443">
        <ele>411</ele>
        <time>2012-08-22T14:02:45Z</time>
      </trkpt>
      <trkpt lat="46.86284" lon="4.69463">
        <ele>409</ele>
        <time>2012-08-22T14:02:46Z</time>
      </trkpt>
      <trkpt lat="46.86288" lon="4.69482">
        <ele>410</ele>
        <time>2012-08-22T14:02:47Z</time>
      </trkpt>
      <trkpt lat="46.86291" lon="4.695">
        <ele>410</ele>
        <time>2012-08-22T14:02:48Z</time>
      </trkpt>
      <trkpt lat="46.86294" lon="4.69516">
        <ele>409</ele>
        <time>2012-08-22T14:02:49Z</time>
      </trkpt>
      <trkpt lat="46.86297" lon="4.6953">
        <ele>409</ele>
        <time>2012-08-22T14:02:50Z</time>
      </trkpt>
      <trkpt lat="46.86299" lon="4.69542">
        <ele>411</ele>
        <time>2012-08-22T14:02:51Z</time>
      </trkpt>
      <trkpt lat="46.86301" lon="4.69552">
        <ele>411</ele>
        <time>2012-08-22T14:02:52Z</time>
      </trkpt>
      <trkpt lat="46.86303" lon="4.69561">
        <ele>414</ele>
        <time>2012-08-22T14:02:53Z</time>
      </trkpt>
      <trkpt lat="46.86304" lon="4.69569">
        <ele>414</ele>
        <time>2012-08-22T14:02:54Z</time>
      </trkpt>
      <trkpt lat="46.86306" lon="4.69576">
        <ele>414</ele>
        <time>2012-08-22T14:02:55Z</time>
      </trkpt>
      <trkpt lat="46.86308" lon="4.69584">
        <ele>416</ele>
        <time>2012-08-22T14:02:56Z</time>
      </trkpt>
      <trkpt lat="46.8631" lon="4.69593">
        <ele>417</ele>
        <time>2012-08-22T14:02:57Z</time>
      </trkpt>
      <trkpt lat="46.86312" lon="4.69601">
        <ele>416</ele>
        <time>2012-08-22T14:02:58Z</time>
      </trkpt>
      <trkpt lat="46.86313" lon="4.69608">
        <ele>415</ele>
        <time>2012-08-22T14:02:59Z</time>
      </trkpt>
      <trkpt lat="46.86316" lon="4.69617">
        <ele>416</ele>
        <time>2012-08-22T14:03:00Z</time>
      </trkpt>
      <trkpt lat="46.86319" lon="4.69626">
        <ele>418</ele>
        <time>2012-08-22T14:03:01Z</time>
      </trkpt>
      <trkpt lat="46.86323" lon="4.69636">
        <ele>423</ele>
        <time>2012-08-22T14:03:02Z</time>
      </trkpt>
      <trkpt lat="46.86326" lon="4.69647">
        <ele>425</ele>
        <time>2012-08-22T14:03:03Z</time>
      </trkpt>
      <trkpt lat="46.8633" lon="4.69658">
        <ele>424</ele>
        <time>2012-08-22T14:03:04Z</time>
      </trkpt>
      <trkpt lat="46.86334" lon="4.69669">
        <ele>421</ele>
        <time>2012-08-22T14:03:05Z</time>
      </trkpt>
      <trkpt lat="46.86337" lon="4.69679">
        <ele>421</ele>
        <time>2012-08-22T14:03:06Z</time>
      </trkpt>
      <trkpt lat="46.86341" lon="4.69689">
        <ele>420</ele>
        <time>2012-08-22T14:03:07Z</time>
      </trkpt>
      <trkpt lat="46.86345" lon="4.69699">
        <ele>418</ele>
        <time>2012-08-22T14:03:08Z</time>
      </trkpt>
      <trkpt lat="46.86348" lon="4.69707">
        <ele>418</ele>
        <time>2012-08-22T14:03:09Z</time>
      </trkpt>
      <trkpt lat="46.86352" lon="4.69716">
        <ele>419</ele>
        <time>2012-08-22T14:03:10Z</time>
      </trkpt>
      <trkpt lat="46.86358" lon="4.69726">
        <ele>428</ele>
        <time>2012-08-22T14:03:11Z</time>
      </trkpt>
      <trkpt lat="46.86366" lon="4.69736">
        <ele>431</ele>
        <time>2012-08-22T14:03:12Z</time>
      </trkpt>
      <trkpt lat="46.86375" lon="4.69748">
        <ele>432</ele>
        <time>2012-08-22T14:03:13Z</time>
      </trkpt>
      <trkpt lat="46.86382" lon="4.69759">
        <ele>432</ele>
        <time>2012-08-22T14:03:14Z</time>
      </trkpt>
      <trkpt lat="46.86388" lon="4.6977">
        <ele>433</ele>
        <time>2012-08-22T14:03:15Z</time>
      </trkpt>
      <trkpt lat="46.86395" lon="4.6978">
        <ele>434</ele>
        <time>2012-08-22T14:03:16Z</time>
      </trkpt>
      <trkpt lat="46.864" lon="4.6979">
        <ele>434</ele>
        <time>2012-08-22T14:03:17Z</time>
      </trkpt>
      <trkpt lat="46.86406" lon="4.69799">
        <ele>434</ele>
        <time>2012-08-22T14:03:18Z</time>
      </trkpt>
      <trkpt lat="46.86412" lon="4.69808">
        <ele>432</ele>
        <time>2012-08-22T14:03:19Z</time>
      </trkpt>
      <trkpt lat="46.86418" lon="4.69818">
        <ele>433</ele>
        <time>2012-08-22T14:03:20Z</time>
      </trkpt>
      <trkpt lat="46.86424" lon="4.69828">
        <ele>433</ele>
        <time>2012-08-22T14:03:21Z</time>
      </trkpt>
      <trkpt lat="46.8643" lon="4.69838">
        <ele>433</ele>
        <time>2012-08-22T14:03:22Z</time>
      </trkpt>
      <trkpt lat="46.86436" lon="4.6985">
        <ele>433</ele>
        <time>2012-08-22T14:03:23Z</time>
      </trkpt>
      <trkpt lat="46.86441" lon="4.69859">
        <ele>433</ele>
        <time>2012-08-22T14:03:24Z</time>
      </trkpt>
      <trkpt lat="46.86446" lon="4.69868">
        <ele>432</ele>
        <time>2012-08-22T14:03:25Z</time>
      </trkpt>
      <trkpt lat="46.86451" lon="4.69877">
        <ele>436</ele>
        <time>2012-08-22T14:03:26Z</time>
      </trkpt>
      <trkpt lat="46.86456" lon="4.69887">
        <ele>437</ele>
        <time>2012-08-22T14:03:27Z</time>
      </trkpt>
      <trkpt lat="46.8646" lon="4.69896">
        <ele>434</ele>
        <time>2012-08-22T14:03:28Z</time>
      </trkpt>
      <trkpt lat="46.86464" lon="4.69906">
        <ele>434</ele>
        <time>2012-08-22T14:03:29Z</time>
      </trkpt>
      <trkpt lat="46.86468" lon="4.69916">
        <ele>432</ele>
        <time>2012-08-22T14:03:30Z</time>
      </trkpt>
      <trkpt lat="46.86472" lon="4.69926">
        <ele>432</ele>
        <time>2012-08-22T14:03:31Z</time>
      </trkpt>
      <trkpt lat="46.86476" lon="4.69934">
        <ele>434</ele>
        <time>2012-08-22T14:03:32Z</time>
      </trkpt>
      <trkpt lat="46.8648" lon="4.69943">
        <ele>432</ele>
        <time>2012-08-22T14:03:33Z</time>
      </trkpt>
      <trkpt lat="46.86483" lon="4.69952">
        <ele>434</ele>
        <time>2012-08-22T14:03:34Z</time>
      </trkpt>
      <trkpt lat="46.86486" lon="4.69959">
        <ele>434</ele>
        <time>2012-08-22T14:03:35Z</time>
      </trkpt>
      <trkpt lat="46.86489" lon="4.69968">
        <ele>432</ele>
        <time>2012-08-22T14:03:36Z</time>
      </trkpt>
      <trkpt lat="46.86492" lon="4.69976">
        <ele>430</ele>
        <time>2012-08-22T14:03:37Z</time>
      </trkpt>
      <trkpt lat="46.86495" lon="4.69985">
        <ele>431</ele>
        <time>2012-08-22T14:03:38Z</time>
      </trkpt>
      <trkpt lat="46.86499" lon="4.69996">
        <ele>428</ele>
        <time>2012-08-22T14:03:39Z</time>
      </trkpt>
      <trkpt lat="46.86502" lon="4.70008">
        <ele>431</ele>
        <time>2012-08-22T14:03:40Z</time>
      </trkpt>
      <trkpt lat="46.86505" lon="4.70015">
        <ele>428</ele>
        <time>2012-08-22T14:03:41Z</time>
      </trkpt>
      <trkpt lat="46.86508" lon="4.70022">
        <ele>426</ele>
        <time>2012-08-22T14:03:42Z</time>
      </trkpt>
      <trkpt lat="46.86511" lon="4.7003">
        <ele>427</ele>
        <time>2012-08-22T14:03:43Z</time>
      </trkpt>
      <trkpt lat="46.86516" lon="4.7004">
        <ele>426</ele>
        <time>2012-08-22T14:03:44Z</time>
      </trkpt>
      <trkpt lat="46.8652" lon="4.70049">
        <ele>426</ele>
        <time>2012-08-22T14:03:45Z</time>
      </trkpt>
      <trkpt lat="46.86524" lon="4.70057">
        <ele>426</ele>
        <time>2012-08-22T14:03:46Z</time>
      </trkpt>
      <trkpt lat="46.86527" lon="4.70063">
        <ele>424</ele>
        <time>2012-08-22T14:03:47Z</time>
      </trkpt>
      <trkpt lat="46.8653" lon="4.7007">
        <ele>423</ele>
        <time>2012-08-22T14:03:48Z</time>
      </trkpt>
      <trkpt lat="46.86534" lon="4.70078">
        <ele>421</ele>
        <time>2012-08-22T14:03:49Z</time>
      </trkpt>
      <trkpt lat="46.8654" lon="4.70086">
        <ele>421</ele>
        <time>2012-08-22T14:03:50Z</time>
      </trkpt>
      <trkpt lat="46.86544" lon="4.70092">
        <ele>423</ele>
        <time>2012-08-22T14:03:51Z</time>
      </trkpt>
      <trkpt lat="46.86549" lon="4.70102">
        <ele>425</ele>
        <time>2012-08-22T14:03:52Z</time>
      </trkpt>
      <trkpt lat="46.86552" lon="4.7011">
        <ele>422</ele>
        <time>2012-08-22T14:03:53Z</time>
      </trkpt>
      <trkpt lat="46.86556" lon="4.70118">
        <ele>420</ele>
        <time>2012-08-22T14:03:54Z</time>
      </trkpt>
      <trkpt lat="46.86558" lon="4.70125">
        <ele>418</ele>
        <time>2012-08-22T14:03:55Z</time>
      </trkpt>
      <trkpt lat="46.86561" lon="4.70133">
        <ele>418</ele>
        <time>2012-08-22T14:03:56Z</time>
      </trkpt>
      <trkpt lat="46.86564" lon="4.70141">
        <ele>419</ele>
        <time>2012-08-22T14:03:57Z</time>
      </trkpt>
      <trkpt lat="46.8657" lon="4.70157">
        <ele>414</ele>
        <time>2012-08-22T14:03:58Z</time>
      </trkpt>
      <trkpt lat="46.86575" lon="4.70176">
        <ele>414</ele>
        <time>2012-08-22T14:03:59Z</time>
      </trkpt>
      <trkpt lat="46.8658" lon="4.70194">
        <ele>416</ele>
        <time>2012-08-22T14:04:00Z</time>
      </trkpt>
      <trkpt lat="46.86583" lon="4.70211">
        <ele>416</ele>
        <time>2012-08-22T14:04:01Z</time>
      </trkpt>
      <trkpt lat="46.86587" lon="4.70227">
        <ele>417</ele>
        <time>2012-08-22T14:04:02Z</time>
      </trkpt>
      <trkpt lat="46.8659" lon="4.7024">
        <ele>418</ele>
        <time>2012-08-22T14:04:03Z</time>
      </trkpt>
      <trkpt lat="46.86594" lon="4.70253">
        <ele>420</ele>
        <time>2012-08-22T14:04:04Z</time>
      </trkpt>
      <trkpt lat="46.86599" lon="4.70266">
        <ele>422</ele>
        <time>2012-08-22T14:04:05Z</time>
      </trkpt>
      <trkpt lat="46.86603" lon="4.70279">
        <ele>422</ele>
        <time>2012-08-22T14:04:06Z</time>
      </trkpt>
      <trkpt lat="46.86607" lon="4.70291">
        <ele>421</ele>
        <time>2012-08-22T14:04:07Z</time>
      </trkpt>
      <trkpt lat="46.86611" lon="4.70302">
        <ele>421</ele>
        <time>2012-08-22T14:04:08Z</time>
      </trkpt>
      <trkpt lat="46.86615" lon="4.70312">
        <ele>418</ele>
        <time>2012-08-22T14:04:09Z</time>
      </trkpt>
      <trkpt lat="46.86618" lon="4.70323">
        <ele>415</ele>
        <time>2012-08-22T14:04:10Z</time>
      </trkpt>
      <trkpt lat="46.86622" lon="4.70333">
        <ele>417</ele>
        <time>2012-08-22T14:04:11Z</time>
      </trkpt>
      <trkpt lat="46.86626" lon="4.70343">
        <ele>418</ele>
        <time>2012-08-22T14:04:12Z</time>
      </trkpt>
      <trkpt lat="46.86629" lon="4.70351">
        <ele>419</ele>
        <time>2012-08-22T14:04:13Z</time>
      </trkpt>
      <trkpt lat="46.86633" lon="4.7036">
        <ele>420</ele>
        <time>2012-08-22T14:04:14Z</time>
      </trkpt>
      <trkpt lat="46.86637" lon="4.7037">
        <ele>418</ele>
        <time>2012-08-22T14:04:15Z</time>
      </trkpt>
      <trkpt lat="46.86642" lon="4.7038">
        <ele>416</ele>
        <time>2012-08-22T14:04:16Z</time>
      </trkpt>
      <trkpt lat="46.86647" lon="4.70391">
        <ele>416</ele>
        <time>2012-08-22T14:04:17Z</time>
      </trkpt>
      <trkpt lat="46.86652" lon="4.70401">
        <ele>417</ele>
        <time>2012-08-22T14:04:18Z</time>
      </trkpt>
      <trkpt lat="46.86656" lon="4.7041">
        <ele>419</ele>
        <time>2012-08-22T14:04:19Z</time>
      </trkpt>
      <trkpt lat="46.86661" lon="4.70418">
        <ele>418</ele>
        <time>2012-08-22T14:04:20Z</time>
      </trkpt>
      <trkpt lat="46.86664" lon="4.70427">
        <ele>417</ele>
        <time>2012-08-22T14:04:21Z</time>
      </trkpt>
      <trkpt lat="46.86668" lon="4.70436">
        <ele>415</ele>
        <time>2012-08-22T14:04:22Z</time>
      </trkpt>
      <trkpt lat="46.86672" lon="4.70445">
        <ele>414</ele>
        <time>2012-08-22T14:04:23Z</time>
      </trkpt>
      <trkpt lat="46.86676" lon="4.70455">
        <ele>412</ele>
        <time>2012-08-22T14:04:24Z</time>
      </trkpt>
      <trkpt lat="46.8668" lon="4.70466">
        <ele>410</ele>
        <time>2012-08-22T14:04:25Z</time>
      </trkpt>
      <trkpt lat="46.86683" lon="4.70476">
        <ele>409</ele>
        <time>2012-08-22T14:04:26Z</time>
      </trkpt>
      <trkpt lat="46.86685" lon="4.70487">
        <ele>408</ele>
        <time>2012-08-22T14:04:27Z</time>
      </trkpt>
      <trkpt lat="46.86686" lon="4.70499">
        <ele>408</ele>
        <time>2012-08-22T14:04:28Z</time>
      </trkpt>
      <trkpt lat="46.86688" lon="4.70511">
        <ele>409</ele>
        <time>2012-08-22T14:04:29Z</time>
      </trkpt>
      <trkpt lat="46.86689" lon="4.70524">
        <ele>410</ele>
        <time>2012-08-22T14:04:30Z</time>
      </trkpt>
      <trkpt lat="46.86689" lon="4.70537">
        <ele>410</ele>
        <time>2012-08-22T14:04:31Z</time>
      </trkpt>
      <trkpt lat="46.8669" lon="4.7055">
        <ele>407</ele>
        <time>2012-08-22T14:04:32Z</time>
      </trkpt>
      <trkpt lat="46.86691" lon="4.70562">
        <ele>407</ele>
        <time>2012-08-22T14:04:33Z</time>
      </trkpt>
      <trkpt lat="46.86692" lon="4.70574">
        <ele>406</ele>
        <time>2012-08-22T14:04:34Z</time>
      </trkpt>
      <trkpt lat="46.86693" lon="4.70586">
        <ele>407</ele>
        <time>2012-08-22T14:04:35Z</time>
      </trkpt>
      <trkpt lat="46.86694" lon="4.70598">
        <ele>407</ele>
        <time>2012-08-22T14:04:36Z</time>
      </trkpt>
      <trkpt lat="46.86695" lon="4.70609">
        <ele>408</ele>
        <time>2012-08-22T14:04:37Z</time>
      </trkpt>
      <trkpt lat="46.86697" lon="4.7062">
        <ele>408</ele>
        <time>2012-08-22T14:04:38Z</time>
      </trkpt>
      <trkpt lat="46.86699" lon="4.70632">
        <ele>410</ele>
        <time>2012-08-22T14:04:39Z</time>
      </trkpt>
      <trkpt lat="46.86701" lon="4.70642">
        <ele>410</ele>
        <time>2012-08-22T14:04:40Z</time>
      </trkpt>
      <trkpt lat="46.86704" lon="4.70652">
        <ele>411</ele>
        <time>2012-08-22T14:04:41Z</time>
      </trkpt>
      <trkpt lat="46.86707" lon="4.70663">
        <ele>411</ele>
        <time>2012-08-22T14:04:42Z</time>
      </trkpt>
      <trkpt lat="46.8671" lon="4.70674">
        <ele>411</ele>
        <time>2012-08-22T14:04:43Z</time>
      </trkpt>
      <trkpt lat="46.86712" lon="4.70684">
        <ele>410</ele>
        <time>2012-08-22T14:04:44Z</time>
      </trkpt>
      <trkpt lat="46.86713" lon="4.70696">
        <ele>409</ele>
        <time>2012-08-22T14:04:45Z</time>
      </trkpt>
      <trkpt lat="46.86713" lon="4.70708">
        <ele>409</ele>
        <time>2012-08-22T14:04:46Z</time>
      </trkpt>
      <trkpt lat="46.86714" lon="4.70718">
        <ele>411</ele>
        <time>2012-08-22T14:04:47Z</time>
      </trkpt>
      <trkpt lat="46.86715" lon="4.70729">
        <ele>413</ele>
        <time>2012-08-22T14:04:48Z</time>
      </trkpt>
      <trkpt lat="46.86716" lon="4.7074">
        <ele>413</ele>
        <time>2012-08-22T14:04:49Z</time>
      </trkpt>
      <trkpt lat="46.86717" lon="4.70752">
        <ele>413</ele>
        <time>2012-08-22T14:04:50Z</time>
      </trkpt>
      <trkpt lat="46.86719" lon="4.70763">
        <ele>414</ele>
        <time>2012-08-22T14:04:51Z</time>
      </trkpt>
      <trkpt lat="46.86722" lon="4.70772">
        <ele>412</ele>
        <time>2012-08-22T14:04:52Z</time>
      </trkpt>
      <trkpt lat="46.86725" lon="4.7078">
        <ele>410</ele>
        <time>2012-08-22T14:04:53Z</time>
      </trkpt>
      <trkpt lat="46.8673" lon="4.70786">
        <ele>412</ele>
        <time>2012-08-22T14:04:54Z</time>
      </trkpt>
      <trkpt lat="46.86734" lon="4.70792">
        <ele>411</ele>
        <time>2012-08-22T14:04:55Z</time>
      </trkpt>
      <trkpt lat="46.86739" lon="4.70798">
        <ele>411</ele>
        <time>2012-08-22T14:04:56Z</time>
      </trkpt>
      <trkpt lat="46.86744" lon="4.70803">
        <ele>411</ele>
        <time>2012-08-22T14:04:57Z</time>
      </trkpt>
      <trkpt lat="46.86747" lon="4.70811">
        <ele>414</ele>
        <time>2012-08-22T14:04:58Z</time>
      </trkpt>
      <trkpt lat="46.86749" lon="4.7082">
        <ele>412</ele>
        <time>2012-08-22T14:04:59Z</time>
      </trkpt>
      <trkpt lat="46.86751" lon="4.70829">
        <ele>407</ele>
        <time>2012-08-22T14:05:00Z</time>
      </trkpt>
      <trkpt lat="46.86752" lon="4.70837">
        <ele>406</ele>
        <time>2012-08-22T14:05:01Z</time>
      </trkpt>
      <trkpt lat="46.86752" lon="4.70844">
        <ele>405</ele>
        <time>2012-08-22T14:05:02Z</time>
      </trkpt>
      <trkpt lat="46.86751" lon="4.70854">
        <ele>402</ele>
        <time>2012-08-22T14:05:04Z</time>
      </trkpt>
      <trkpt lat="46.86743" lon="4.70863">
        <ele>400</ele>
        <time>2012-08-22T14:05:06Z</time>
      </trkpt>
      <trkpt lat="46.86739" lon="4.70867">
        <ele>401</ele>
        <time>2012-08-22T14:05:07Z</time>
      </trkpt>
      <trkpt lat="46.86732" lon="4.70873">
        <ele>405</ele>
        <time>2012-08-22T14:05:09Z</time>
      </trkpt>
      <trkpt lat="46.86726" lon="4.70882">
        <ele>407</ele>
        <time>2012-08-22T14:05:11Z</time>
      </trkpt>
      <trkpt lat="46.86722" lon="4.70886">
        <ele>407</ele>
        <time>2012-08-22T14:05:12Z</time>
      </trkpt>
      <trkpt lat="46.86715" lon="4.70892">
        <ele>409</ele>
        <time>2012-08-22T14:05:14Z</time>
      </trkpt>
      <trkpt lat="46.86711" lon="4.70896">
        <ele>408</ele>
        <time>2012-08-22T14:05:15Z</time>
      </trkpt>
      <trkpt lat="46.86706" lon="4.70901">
        <ele>407</ele>
        <time>2012-08-22T14:05:16Z</time>
      </trkpt>
      <trkpt lat="46.86701" lon="4.70904">
        <ele>409</ele>
        <time>2012-08-22T14:05:17Z</time>
      </trkpt>
      <trkpt lat="46.86697" lon="4.70907">
        <ele>407</ele>
        <time>2012-08-22T14:05:18Z</time>
      </trkpt>
      <trkpt lat="46.86692" lon="4.7091">
        <ele>411</ele>
        <time>2012-08-22T14:05:19Z</time>
      </trkpt>
      <trkpt lat="46.86687" lon="4.70912">
        <ele>411</ele>
        <time>2012-08-22T14:05:20Z</time>
      </trkpt>
      <trkpt lat="46.86681" lon="4.70914">
        <ele>411</ele>
        <time>2012-08-22T14:05:21Z</time>
      </trkpt>
      <trkpt lat="46.86676" lon="4.70913">
        <ele>408</ele>
        <time>2012-08-22T14:05:22Z</time>
      </trkpt>
      <trkpt lat="46.86671" lon="4.70912">
        <ele>410</ele>
        <time>2012-08-22T14:05:23Z</time>
      </trkpt>
      <trkpt lat="46.86663" lon="4.70907">
        <ele>408</ele>
        <time>2012-08-22T14:05:25Z</time>
      </trkpt>
      <trkpt lat="46.86659" lon="4.70904">
        <ele>407</ele>
        <time>2012-08-22T14:05:26Z</time>
      </trkpt>
      <trkpt lat="46.8665" lon="4.70898">
        <ele>406</ele>
        <time>2012-08-22T14:05:28Z</time>
      </trkpt>
      <trkpt lat="46.86645" lon="4.70894">
        <ele>407</ele>
        <time>2012-08-22T14:05:29Z</time>
      </trkpt>
      <trkpt lat="46.86641" lon="4.7089">
        <ele>402</ele>
        <time>2012-08-22T14:05:30Z</time>
      </trkpt>
      <trkpt lat="46.86637" lon="4.70886">
        <ele>409</ele>
        <time>2012-08-22T14:05:31Z</time>
      </trkpt>
      <trkpt lat="46.86629" lon="4.70882">
        <ele>406</ele>
        <time>2012-08-22T14:05:33Z</time>
      </trkpt>
      <trkpt lat="46.86624" lon="4.70878">
        <ele>407</ele>
        <time>2012-08-22T14:05:34Z</time>
      </trkpt>
      <trkpt lat="46.86619" lon="4.70874">
        <ele>406</ele>
        <time>2012-08-22T14:05:35Z</time>
      </trkpt>
      <trkpt lat="46.86614" lon="4.7087">
        <ele>407</ele>
        <time>2012-08-22T14:05:36Z</time>
      </trkpt>
      <trkpt lat="46.86608" lon="4.70864">
        <ele>403</ele>
        <time>2012-08-22T14:05:38Z</time>
      </trkpt>
      <trkpt lat="46.86604" lon="4.70861">
        <ele>404</ele>
        <time>2012-08-22T14:05:39Z</time>
      </trkpt>
      <trkpt lat="46.866" lon="4.70858">
        <ele>404</ele>
        <time>2012-08-22T14:05:40Z</time>
      </trkpt>
      <trkpt lat="46.86596" lon="4.70854">
        <ele>399</ele>
        <time>2012-08-22T14:05:41Z</time>
      </trkpt>
      <trkpt lat="46.86588" lon="4.70847">
        <ele>400</ele>
        <time>2012-08-22T14:05:43Z</time>
      </trkpt>
      <trkpt lat="46.86583" lon="4.70842">
        <ele>400</ele>
        <time>2012-08-22T14:05:44Z</time>
      </trkpt>
      <trkpt lat="46.86578" lon="4.70837">
        <ele>402</ele>
        <time>2012-08-22T14:05:45Z</time>
      </trkpt>
      <trkpt lat="46.86572" lon="4.70833">
        <ele>398</ele>
        <time>2012-08-22T14:05:46Z</time>
      </trkpt>
      <trkpt lat="46.86568" lon="4.70828">
        <ele>397</ele>
        <time>2012-08-22T14:05:47Z</time>
      </trkpt>
      <trkpt lat="46.86562" lon="4.70824">
        <ele>395</ele>
        <time>2012-08-22T14:05:48Z</time>
      </trkpt>
      <trkpt lat="46.86556" lon="4.7082">
        <ele>396</ele>
        <time>2012-08-22T14:05:49Z</time>
      </trkpt>
      <trkpt lat="46.86549" lon="4.70816">
        <ele>398</ele>
        <time>2012-08-22T14:05:50Z</time>
      </trkpt>
      <trkpt lat="46.86541" lon="4.70812">
        <ele>399</ele>
        <time>2012-08-22T14:05:51Z</time>
      </trkpt>
      <trkpt lat="46.86533" lon="4.70808">
        <ele>397</ele>
        <time>2012-08-22T14:05:52Z</time>
      </trkpt>
      <trkpt lat="46.86524" lon="4.70803">
        <ele>400</ele>
        <time>2012-08-22T14:05:53Z</time>
      </trkpt>
      <trkpt lat="46.86514" lon="4.70798">
        <ele>403</ele>
        <time>2012-08-22T14:05:54Z</time>
      </trkpt>
      <trkpt lat="46.86505" lon="4.70793">
        <ele>403</ele>
        <time>2012-08-22T14:05:55Z</time>
      </trkpt>
      <trkpt lat="46.86496" lon="4.70787">
        <ele>404</ele>
        <time>2012-08-22T14:05:56Z</time>
      </trkpt>
      <trkpt lat="46.86488" lon="4.70781">
        <ele>406</ele>
        <time>2012-08-22T14:05:57Z</time>
      </trkpt>
      <trkpt lat="46.8648" lon="4.70774">
        <ele>405</ele>
        <time>2012-08-22T14:05:58Z</time>
      </trkpt>
      <trkpt lat="46.86472" lon="4.70766">
        <ele>404</ele>
        <time>2012-08-22T14:05:59Z</time>
      </trkpt>
      <trkpt lat="46.86464" lon="4.70758">
        <ele>403</ele>
        <time>2012-08-22T14:06:00Z</time>
      </trkpt>
      <trkpt lat="46.86455" lon="4.7075">
        <ele>402</ele>
        <time>2012-08-22T14:06:01Z</time>
      </trkpt>
      <trkpt lat="46.86447" lon="4.70742">
        <ele>399</ele>
        <time>2012-08-22T14:06:02Z</time>
      </trkpt>
      <trkpt lat="46.86438" lon="4.70735">
        <ele>401</ele>
        <time>2012-08-22T14:06:03Z</time>
      </trkpt>
      <trkpt lat="46.86428" lon="4.70729">
        <ele>401</ele>
        <time>2012-08-22T14:06:04Z</time>
      </trkpt>
      <trkpt lat="46.8642" lon="4.70724">
        <ele>400</ele>
        <time>2012-08-22T14:06:05Z</time>
      </trkpt>
      <trkpt lat="46.86413" lon="4.7072">
        <ele>401</ele>
        <time>2012-08-22T14:06:06Z</time>
      </trkpt>
      <trkpt lat="46.86406" lon="4.70715">
        <ele>405</ele>
        <time>2012-08-22T14:06:07Z</time>
      </trkpt>
      <trkpt lat="46.86398" lon="4.70711">
        <ele>402</ele>
        <time>2012-08-22T14:06:08Z</time>
      </trkpt>
      <trkpt lat="46.8639" lon="4.70705">
        <ele>403</ele>
        <time>2012-08-22T14:06:09Z</time>
      </trkpt>
      <trkpt lat="46.86382" lon="4.707">
        <ele>404</ele>
        <time>2012-08-22T14:06:10Z</time>
      </trkpt>
      <trkpt lat="46.86374" lon="4.70693">
        <ele>402</ele>
        <time>2012-08-22T14:06:11Z</time>
      </trkpt>
      <trkpt lat="46.86366" lon="4.70687">
        <ele>401</ele>
        <time>2012-08-22T14:06:12Z</time>
      </trkpt>
      <trkpt lat="46.86356" lon="4.70682">
        <ele>401</ele>
        <time>2012-08-22T14:06:13Z</time>
      </trkpt>
      <trkpt lat="46.86346" lon="4.70678">
        <ele>396</ele>
        <time>2012-08-22T14:06:14Z</time>
      </trkpt>
      <trkpt lat="46.86337" lon="4.70673">
        <ele>392</ele>
        <time>2012-08-22T14:06:15Z</time>
      </trkpt>
      <trkpt lat="46.86329" lon="4.70667">
        <ele>391</ele>
        <time>2012-08-22T14:06:16Z</time>
      </trkpt>
      <trkpt lat="46.8632" lon="4.7066">
        <ele>391</ele>
        <time>2012-08-22T14:06:17Z</time>
      </trkpt>
      <trkpt lat="46.86311" lon="4.70653">
        <ele>392</ele>
        <time>2012-08-22T14:06:18Z</time>
      </trkpt>
      <trkpt lat="46.86302" lon="4.70646">
        <ele>392</ele>
        <time>2012-08-22T14:06:19Z</time>
      </trkpt>
      <trkpt lat="46.86292" lon="4.70639">
        <ele>392</ele>
        <time>2012-08-22T14:06:20Z</time>
      </trkpt>
      <trkpt lat="46.86283" lon="4.70631">
        <ele>391</ele>
        <time>2012-08-22T14:06:21Z</time>
      </trkpt>
      <trkpt lat="46.86274" lon="4.70623">
        <ele>391</ele>
        <time>2012-08-22T14:06:22Z</time>
      </trkpt>
      <trkpt lat="46.86264" lon="4.70615">
        <ele>390</ele>
        <time>2012-08-22T14:06:23Z</time>
      </trkpt>
      <trkpt lat="46.86254" lon="4.70607">
        <ele>392</ele>
        <time>2012-08-22T14:06:24Z</time>
      </trkpt>
      <trkpt lat="46.86245" lon="4.70599">
        <ele>392</ele>
        <time>2012-08-22T14:06:25Z</time>
      </trkpt>
      <trkpt lat="46.86236" lon="4.7059">
        <ele>391</ele>
        <time>2012-08-22T14:06:26Z</time>
      </trkpt>
      <trkpt lat="46.86228" lon="4.70583">
        <ele>390</ele>
        <time>2012-08-22T14:06:27Z</time>
      </trkpt>
      <trkpt lat="46.8622" lon="4.70576">
        <ele>390</ele>
        <time>2012-08-22T14:06:28Z</time>
      </trkpt>
      <trkpt lat="46.86212" lon="4.7057">
        <ele>391</ele>
        <time>2012-08-22T14:06:29Z</time>
      </trkpt>
      <trkpt lat="46.86204" lon="4.70564">
        <ele>391</ele>
        <time>2012-08-22T14:06:30Z</time>
      </trkpt>
      <trkpt lat="46.86196" lon="4.70558">
        <ele>390</ele>
        <time>2012-08-22T14:06:31Z</time>
      </trkpt>
      <trkpt lat="46.86188" lon="4.70554">
        <ele>391</ele>
        <time>2012-08-22T14:06:32Z</time>
      </trkpt>
      <trkpt lat="46.86182" lon="4.7055">
        <ele>387</ele>
        <time>2012-08-22T14:06:33Z</time>
      </trkpt>
      <trkpt lat="46.86176" lon="4.70548">
        <ele>384</ele>
        <time>2012-08-22T14:06:34Z</time>
      </trkpt>
      <trkpt lat="46.8617" lon="4.70544">
        <ele>385</ele>
        <time>2012-08-22T14:06:35Z</time>
      </trkpt>
      <trkpt lat="46.86162" lon="4.7054">
        <ele>382</ele>
        <time>2012-08-22T14:06:36Z</time>
      </trkpt>
      <trkpt lat="46.86154" lon="4.70535">
        <ele>379</ele>
        <time>2012-08-22T14:06:37Z</time>
      </trkpt>
      <trkpt lat="46.86144" lon="4.70529">
        <ele>381</ele>
        <time>2012-08-22T14:06:38Z</time>
      </trkpt>
      <trkpt lat="46.86136" lon="4.70524">
        <ele>378</ele>
        <time>2012-08-22T14:06:39Z</time>
      </trkpt>
      <trkpt lat="46.86128" lon="4.70518">
        <ele>380</ele>
        <time>2012-08-22T14:06:40Z</time>
      </trkpt>
      <trkpt lat="46.86119" lon="4.70511">
        <ele>380</ele>
        <time>2012-08-22T14:06:41Z</time>
      </trkpt>
      <trkpt lat="46.8611" lon="4.70505">
        <ele>378</ele>
        <time>2012-08-22T14:06:42Z</time>
      </trkpt>
      <trkpt lat="46.86101" lon="4.70499">
        <ele>379</ele>
        <time>2012-08-22T14:06:43Z</time>
      </trkpt>
      <trkpt lat="46.86092" lon="4.70493">
        <ele>379</ele>
        <time>2012-08-22T14:06:44Z</time>
      </trkpt>
      <trkpt lat="46.86082" lon="4.70488">
        <ele>381</ele>
        <time>2012-08-22T14:06:45Z</time>
      </trkpt>
      <trkpt lat="46.86073" lon="4.70484">
        <ele>381</ele>
        <time>2012-08-22T14:06:46Z</time>
      </trkpt>
      <trkpt lat="46.86064" lon="4.7048">
        <ele>380</ele>
        <time>2012-08-22T14:06:47Z</time>
      </trkpt>
      <trkpt lat="46.86054" lon="4.70475">
        <ele>380</ele>
        <time>2012-08-22T14:06:48Z</time>
      </trkpt>
      <trkpt lat="46.86045" lon="4.70471">
        <ele>382</ele>
        <time>2012-08-22T14:06:49Z</time>
      </trkpt>
      <trkpt lat="46.86036" lon="4.70468">
        <ele>382</ele>
        <time>2012-08-22T14:06:50Z</time>
      </trkpt>
      <trkpt lat="46.86028" lon="4.70466">
        <ele>381</ele>
        <time>2012-08-22T14:06:51Z</time>
      </trkpt>
      <trkpt lat="46.8602" lon="4.70467">
        <ele>381</ele>
        <time>2012-08-22T14:06:52Z</time>
      </trkpt>
      <trkpt lat="46.86012" lon="4.70468">
        <ele>381</ele>
        <time>2012-08-22T14:06:53Z</time>
      </trkpt>
      <trkpt lat="46.86006" lon="4.70469">
        <ele>381</ele>
        <time>2012-08-22T14:06:54Z</time>
      </trkpt>
      <trkpt lat="46.86" lon="4.7047">
        <ele>384</ele>
        <time>2012-08-22T14:06:55Z</time>
      </trkpt>
      <trkpt lat="46.85994" lon="4.70471">
        <ele>381</ele>
        <time>2012-08-22T14:06:57Z</time>
      </trkpt>
      <trkpt lat="46.85987" lon="4.70471">
        <ele>379</ele>
        <time>2012-08-22T14:07:00Z</time>
      </trkpt>
      <trkpt lat="46.85982" lon="4.7047">
        <ele>377</ele>
        <time>2012-08-22T14:07:03Z</time>
      </trkpt>
      <trkpt lat="46.85977" lon="4.7047">
        <ele>377</ele>
        <time>2012-08-22T14:07:05Z</time>
      </trkpt>
      <trkpt lat="46.85972" lon="4.7047">
        <ele>375</ele>
        <time>2012-08-22T14:07:06Z</time>
      </trkpt>
      <trkpt lat="46.85968" lon="4.70469">
        <ele>376</ele>
        <time>2012-08-22T14:07:07Z</time>
      </trkpt>
      <trkpt lat="46.85962" lon="4.7047">
        <ele>376</ele>
        <time>2012-08-22T14:07:08Z</time>
      </trkpt>
      <trkpt lat="46.85955" lon="4.70473">
        <ele>377</ele>
        <time>2012-08-22T14:07:09Z</time>
      </trkpt>
      <trkpt lat="46.85948" lon="4.70476">
        <ele>377</ele>
        <time>2012-08-22T14:07:10Z</time>
      </trkpt>
      <trkpt lat="46.8594" lon="4.70479">
        <ele>374</ele>
        <time>2012-08-22T14:07:11Z</time>
      </trkpt>
      <trkpt lat="46.85932" lon="4.70482">
        <ele>373</ele>
        <time>2012-08-22T14:07:12Z</time>
      </trkpt>
      <trkpt lat="46.85924" lon="4.70486">
        <ele>372</ele>
        <time>2012-08-22T14:07:13Z</time>
      </trkpt>
      <trkpt lat="46.85915" lon="4.7049">
        <ele>373</ele>
        <time>2012-08-22T14:07:14Z</time>
      </trkpt>
      <trkpt lat="46.85906" lon="4.70493">
        <ele>374</ele>
        <time>2012-08-22T14:07:15Z</time>
      </trkpt>
      <trkpt lat="46.85896" lon="4.70496">
        <ele>377</ele>
        <time>2012-08-22T14:07:16Z</time>
      </trkpt>
      <trkpt lat="46.85888" lon="4.70498">
        <ele>379</ele>
        <time>2012-08-22T14:07:17Z</time>
      </trkpt>
      <trkpt lat="46.8588" lon="4.70501">
        <ele>377</ele>
        <time>2012-08-22T14:07:18Z</time>
      </trkpt>
      <trkpt lat="46.85873" lon="4.70503">
        <ele>377</ele>
        <time>2012-08-22T14:07:19Z</time>
      </trkpt>
      <trkpt lat="46.85865" lon="4.70506">
        <ele>379</ele>
        <time>2012-08-22T14:07:20Z</time>
      </trkpt>
      <trkpt lat="46.85858" lon="4.70508">
        <ele>381</ele>
        <time>2012-08-22T14:07:21Z</time>
      </trkpt>
      <trkpt lat="46.8585" lon="4.7051">
        <ele>383</ele>
        <time>2012-08-22T14:07:22Z</time>
      </trkpt>
      <trkpt lat="46.85843" lon="4.70512">
        <ele>380</ele>
        <time>2012-08-22T14:07:23Z</time>
      </trkpt>
      <trkpt lat="46.85837" lon="4.70513">
        <ele>378</ele>
        <time>2012-08-22T14:07:24Z</time>
      </trkpt>
      <trkpt lat="46.85831" lon="4.70512">
        <ele>377</ele>
        <time>2012-08-22T14:07:25Z</time>
      </trkpt>
      <trkpt lat="46.85825" lon="4.70511">
        <ele>375</ele>
        <time>2012-08-22T14:07:26Z</time>
      </trkpt>
      <trkpt lat="46.85819" lon="4.7051">
        <ele>374</ele>
        <time>2012-08-22T14:07:27Z</time>
      </trkpt>
      <trkpt lat="46.85814" lon="4.70508">
        <ele>373</ele>
        <time>2012-08-22T14:07:28Z</time>
      </trkpt>
      <trkpt lat="46.85809" lon="4.70504">
        <ele>375</ele>
        <time>2012-08-22T14:07:29Z</time>
      </trkpt>
      <trkpt lat="46.85804" lon="4.70501">
        <ele>376</ele>
        <time>2012-08-22T14:07:30Z</time>
      </trkpt>
      <trkpt lat="46.85797" lon="4.70495">
        <ele>374</ele>
        <time>2012-08-22T14:07:31Z</time>
      </trkpt>
      <trkpt lat="46.8579" lon="4.70488">
        <ele>369</ele>
        <time>2012-08-22T14:07:32Z</time>
      </trkpt>
      <trkpt lat="46.85783" lon="4.70479">
        <ele>368</ele>
        <time>2012-08-22T14:07:33Z</time>
      </trkpt>
      <trkpt lat="46.85775" lon="4.7047">
        <ele>367</ele>
        <time>2012-08-22T14:07:34Z</time>
      </trkpt>
      <trkpt lat="46.85769" lon="4.70462">
        <ele>367</ele>
        <time>2012-08-22T14:07:35Z</time>
      </trkpt>
      <trkpt lat="46.85764" lon="4.70455">
        <ele>368</ele>
        <time>2012-08-22T14:07:36Z</time>
      </trkpt>
      <trkpt lat="46.85759" lon="4.70448">
        <ele>368</ele>
        <time>2012-08-22T14:07:37Z</time>
      </trkpt>
      <trkpt lat="46.85754" lon="4.70442">
        <ele>367</ele>
        <time>2012-08-22T14:07:38Z</time>
      </trkpt>
      <trkpt lat="46.85748" lon="4.70436">
        <ele>367</ele>
        <time>2012-08-22T14:07:39Z</time>
      </trkpt>
      <trkpt lat="46.85741" lon="4.70433">
        <ele>366</ele>
        <time>2012-08-22T14:07:40Z</time>
      </trkpt>
      <trkpt lat="46.85736" lon="4.70429">
        <ele>365</ele>
        <time>2012-08-22T14:07:41Z</time>
      </trkpt>
      <trkpt lat="46.85729" lon="4.70425">
        <ele>366</ele>
        <time>2012-08-22T14:07:42Z</time>
      </trkpt>
      <trkpt lat="46.85723" lon="4.70421">
        <ele>363</ele>
        <time>2012-08-22T14:07:43Z</time>
      </trkpt>
      <trkpt lat="46.85717" lon="4.70418">
        <ele>359</ele>
        <time>2012-08-22T14:07:44Z</time>
      </trkpt>
      <trkpt lat="46.8571" lon="4.70414">
        <ele>357</ele>
        <time>2012-08-22T14:07:45Z</time>
      </trkpt>
      <trkpt lat="46.85702" lon="4.70411">
        <ele>357</ele>
        <time>2012-08-22T14:07:46Z</time>
      </trkpt>
      <trkpt lat="46.85695" lon="4.70407">
        <ele>356</ele>
        <time>2012-08-22T14:07:47Z</time>
      </trkpt>
      <trkpt lat="46.85688" lon="4.70404">
        <ele>360</ele>
        <time>2012-08-22T14:07:48Z</time>
      </trkpt>
      <trkpt lat="46.85682" lon="4.704">
        <ele>359</ele>
        <time>2012-08-22T14:07:49Z</time>
      </trkpt>
      <trkpt lat="46.85676" lon="4.70397">
        <ele>357</ele>
        <time>2012-08-22T14:07:50Z</time>
      </trkpt>
      <trkpt lat="46.85669" lon="4.70394">
        <ele>358</ele>
        <time>2012-08-22T14:07:51Z</time>
      </trkpt>
      <trkpt lat="46.85662" lon="4.7039">
        <ele>360</ele>
        <time>2012-08-22T14:07:52Z</time>
      </trkpt>
      <trkpt lat="46.85656" lon="4.70387">
        <ele>362</ele>
        <time>2012-08-22T14:07:53Z</time>
      </trkpt>
      <trkpt lat="46.8565" lon="4.70383">
        <ele>360</ele>
        <time>2012-08-22T14:07:54Z</time>
      </trkpt>
      <trkpt lat="46.85645" lon="4.7038">
        <ele>361</ele>
        <time>2012-08-22T14:07:55Z</time>
      </trkpt>
      <trkpt lat="46.8564" lon="4.70376">
        <ele>359</ele>
        <time>2012-08-22T14:07:56Z</time>
      </trkpt>
      <trkpt lat="46.85634" lon="4.70371">
        <ele>359</ele>
        <time>2012-08-22T14:07:58Z</time>
      </trkpt>
      <trkpt lat="46.8563" lon="4.70367">
        <ele>358</ele>
        <time>2012-08-22T14:08:00Z</time>
      </trkpt>
      <trkpt lat="46.85626" lon="4.70363">
        <ele>356</ele>
        <time>2012-08-22T14:08:08Z</time>
      </trkpt>
      <trkpt lat="46.85621" lon="4.70353">
        <ele>355</ele>
        <time>2012-08-22T14:08:10Z</time>
      </trkpt>
      <trkpt lat="46.85616" lon="4.70341">
        <ele>356</ele>
        <time>2012-08-22T14:08:12Z</time>
      </trkpt>
      <trkpt lat="46.85612" lon="4.70332">
        <ele>356</ele>
        <time>2012-08-22T14:08:13Z</time>
      </trkpt>
      <trkpt lat="46.85607" lon="4.70324">
        <ele>358</ele>
        <time>2012-08-22T14:08:14Z</time>
      </trkpt>
      <trkpt lat="46.85603" lon="4.70315">
        <ele>360</ele>
        <time>2012-08-22T14:08:15Z</time>
      </trkpt>
      <trkpt lat="46.85599" lon="4.70306">
        <ele>361</ele>
        <time>2012-08-22T14:08:16Z</time>
      </trkpt>
      <trkpt lat="46.85594" lon="4.70298">
        <ele>362</ele>
        <time>2012-08-22T14:08:17Z</time>
      </trkpt>
      <trkpt lat="46.8559" lon="4.7029">
        <ele>362</ele>
        <time>2012-08-22T14:08:18Z</time>
      </trkpt>
      <trkpt lat="46.85586" lon="4.70282">
        <ele>362</ele>
        <time>2012-08-22T14:08:19Z</time>
      </trkpt>
      <trkpt lat="46.85582" lon="4.70273">
        <ele>361</ele>
        <time>2012-08-22T14:08:20Z</time>
      </trkpt>
      <trkpt lat="46.85577" lon="4.70262">
        <ele>361</ele>
        <time>2012-08-22T14:08:21Z</time>
      </trkpt>
      <trkpt lat="46.85572" lon="4.7025">
        <ele>361</ele>
        <time>2012-08-22T14:08:22Z</time>
      </trkpt>
      <trkpt lat="46.85567" lon="4.70239">
        <ele>361</ele>
        <time>2012-08-22T14:08:23Z</time>
      </trkpt>
      <trkpt lat="46.85561" lon="4.70231">
        <ele>360</ele>
        <time>2012-08-22T14:08:24Z</time>
      </trkpt>
      <trkpt lat="46.85556" lon="4.70224">
        <ele>360</ele>
        <time>2012-08-22T14:08:25Z</time>
      </trkpt>
      <trkpt lat="46.8555" lon="4.70219">
        <ele>360</ele>
        <time>2012-08-22T14:08:26Z</time>
      </trkpt>
      <trkpt lat="46.85544" lon="4.70215">
        <ele>361</ele>
        <time>2012-08-22T14:08:27Z</time>
      </trkpt>
      <trkpt lat="46.85538" lon="4.70211">
        <ele>360</ele>
        <time>2012-08-22T14:08:28Z</time>
      </trkpt>
      <trkpt lat="46.85528" lon="4.70211">
        <ele>358</ele>
        <time>2012-08-22T14:08:29Z</time>
      </trkpt>
      <trkpt lat="46.85518" lon="4.70209">
        <ele>357</ele>
        <time>2012-08-22T14:08:30Z</time>
      </trkpt>
      <trkpt lat="46.85507" lon="4.70206">
        <ele>356</ele>
        <time>2012-08-22T14:08:31Z</time>
      </trkpt>
      <trkpt lat="46.85496" lon="4.70202">
        <ele>356</ele>
        <time>2012-08-22T14:08:32Z</time>
      </trkpt>
      <trkpt lat="46.85483" lon="4.70198">
        <ele>357</ele>
        <time>2012-08-22T14:08:33Z</time>
      </trkpt>
      <trkpt lat="46.85472" lon="4.70192">
        <ele>362</ele>
        <time>2012-08-22T14:08:34Z</time>
      </trkpt>
      <trkpt lat="46.85459" lon="4.70184">
        <ele>365</ele>
        <time>2012-08-22T14:08:35Z</time>
      </trkpt>
      <trkpt lat="46.85446" lon="4.70175">
        <ele>365</ele>
        <time>2012-08-22T14:08:36Z</time>
      </trkpt>
      <trkpt lat="46.85433" lon="4.70166">
        <ele>366</ele>
        <time>2012-08-22T14:08:37Z</time>
      </trkpt>
      <trkpt lat="46.85422" lon="4.70157">
        <ele>367</ele>
        <time>2012-08-22T14:08:38Z</time>
      </trkpt>
      <trkpt lat="46.85413" lon="4.70149">
        <ele>366</ele>
        <time>2012-08-22T14:08:39Z</time>
      </trkpt>
      <trkpt lat="46.85403" lon="4.70141">
        <ele>365</ele>
        <time>2012-08-22T14:08:40Z</time>
      </trkpt>
      <trkpt lat="46.85393" lon="4.70132">
        <ele>365</ele>
        <time>2012-08-22T14:08:41Z</time>
      </trkpt>
      <trkpt lat="46.85386" lon="4.7012">
        <ele>364</ele>
        <time>2012-08-22T14:08:42Z</time>
      </trkpt>
      <trkpt lat="46.8538" lon="4.70107">
        <ele>365</ele>
        <time>2012-08-22T14:08:43Z</time>
      </trkpt>
      <trkpt lat="46.85374" lon="4.70094">
        <ele>365</ele>
        <time>2012-08-22T14:08:44Z</time>
      </trkpt>
      <trkpt lat="46.8537" lon="4.70079">
        <ele>367</ele>
        <time>2012-08-22T14:08:45Z</time>
      </trkpt>
      <trkpt lat="46.85366" lon="4.70065">
        <ele>369</ele>
        <time>2012-08-22T14:08:46Z</time>
      </trkpt>
      <trkpt lat="46.85363" lon="4.70054">
        <ele>368</ele>
        <time>2012-08-22T14:08:47Z</time>
      </trkpt>
      <trkpt lat="46.8536" lon="4.70043">
        <ele>367</ele>
        <time>2012-08-22T14:08:48Z</time>
      </trkpt>
      <trkpt lat="46.85356" lon="4.70031">
        <ele>367</ele>
        <time>2012-08-22T14:08:49Z</time>
      </trkpt>
      <trkpt lat="46.85352" lon="4.70019">
        <ele>367</ele>
        <time>2012-08-22T14:08:50Z</time>
      </trkpt>
      <trkpt lat="46.85347" lon="4.70006">
        <ele>365</ele>
        <time>2012-08-22T14:08:51Z</time>
      </trkpt>
      <trkpt lat="46.85343" lon="4.69994">
        <ele>364</ele>
        <time>2012-08-22T14:08:52Z</time>
      </trkpt>
      <trkpt lat="46.85339" lon="4.69982">
        <ele>363</ele>
        <time>2012-08-22T14:08:53Z</time>
      </trkpt>
      <trkpt lat="46.85334" lon="4.69971">
        <ele>360</ele>
        <time>2012-08-22T14:08:54Z</time>
      </trkpt>
      <trkpt lat="46.85328" lon="4.69959">
        <ele>361</ele>
        <time>2012-08-22T14:08:55Z</time>
      </trkpt>
      <trkpt lat="46.85322" lon="4.69949">
        <ele>362</ele>
        <time>2012-08-22T14:08:56Z</time>
      </trkpt>
      <trkpt lat="46.85314" lon="4.69942">
        <ele>361</ele>
        <time>2012-08-22T14:08:57Z</time>
      </trkpt>
      <trkpt lat="46.85306" lon="4.69934">
        <ele>361</ele>
        <time>2012-08-22T14:08:58Z</time>
      </trkpt>
      <trkpt lat="46.85299" lon="4.69924">
        <ele>362</ele>
        <time>2012-08-22T14:08:59Z</time>
      </trkpt>
      <trkpt lat="46.85289" lon="4.69915">
        <ele>362</ele>
        <time>2012-08-22T14:09:00Z</time>
      </trkpt>
      <trkpt lat="46.85279" lon="4.69905">
        <ele>363</ele>
        <time>2012-08-22T14:09:01Z</time>
      </trkpt>
      <trkpt lat="46.85269" lon="4.69896">
        <ele>363</ele>
        <time>2012-08-22T14:09:02Z</time>
      </trkpt>
      <trkpt lat="46.85259" lon="4.69886">
        <ele>362</ele>
        <time>2012-08-22T14:09:03Z</time>
      </trkpt>
      <trkpt lat="46.85248" lon="4.69876">
        <ele>363</ele>
        <time>2012-08-22T14:09:04Z</time>
      </trkpt>
      <trkpt lat="46.85238" lon="4.69868">
        <ele>364</ele>
        <time>2012-08-22T14:09:05Z</time>
      </trkpt>
      <trkpt lat="46.8523" lon="4.6986">
        <ele>364</ele>
        <time>2012-08-22T14:09:06Z</time>
      </trkpt>
      <trkpt lat="46.8522" lon="4.69851">
        <ele>365</ele>
        <time>2012-08-22T14:09:07Z</time>
      </trkpt>
      <trkpt lat="46.85211" lon="4.69842">
        <ele>365</ele>
        <time>2012-08-22T14:09:08Z</time>
      </trkpt>
      <trkpt lat="46.85202" lon="4.69832">
        <ele>364</ele>
        <time>2012-08-22T14:09:09Z</time>
      </trkpt>
      <trkpt lat="46.85194" lon="4.69824">
        <ele>363</ele>
        <time>2012-08-22T14:09:10Z</time>
      </trkpt>
      <trkpt lat="46.85187" lon="4.69816">
        <ele>363</ele>
        <time>2012-08-22T14:09:11Z</time>
      </trkpt>
      <trkpt lat="46.85181" lon="4.69807">
        <ele>363</ele>
        <time>2012-08-22T14:09:12Z</time>
      </trkpt>
      <trkpt lat="46.85175" lon="4.69798">
        <ele>362</ele>
        <time>2012-08-22T14:09:13Z</time>
      </trkpt>
      <trkpt lat="46.85168" lon="4.69788">
        <ele>361</ele>
        <time>2012-08-22T14:09:14Z</time>
      </trkpt>
      <trkpt lat="46.85162" lon="4.69777">
        <ele>360</ele>
        <time>2012-08-22T14:09:15Z</time>
      </trkpt>
      <trkpt lat="46.85154" lon="4.69766">
        <ele>358</ele>
        <time>2012-08-22T14:09:16Z</time>
      </trkpt>
      <trkpt lat="46.85147" lon="4.69755">
        <ele>357</ele>
        <time>2012-08-22T14:09:17Z</time>
      </trkpt>
      <trkpt lat="46.8514" lon="4.69745">
        <ele>355</ele>
        <time>2012-08-22T14:09:18Z</time>
      </trkpt>
      <trkpt lat="46.85132" lon="4.69733">
        <ele>355</ele>
        <time>2012-08-22T14:09:19Z</time>
      </trkpt>
      <trkpt lat="46.85124" lon="4.69723">
        <ele>354</ele>
        <time>2012-08-22T14:09:20Z</time>
      </trkpt>
      <trkpt lat="46.85117" lon="4.69717">
        <ele>354</ele>
        <time>2012-08-22T14:09:21Z</time>
      </trkpt>
      <trkpt lat="46.85111" lon="4.69713">
        <ele>354</ele>
        <time>2012-08-22T14:09:22Z</time>
      </trkpt>
      <trkpt lat="46.85105" lon="4.69712">
        <ele>354</ele>
        <time>2012-08-22T14:09:23Z</time>
      </trkpt>
      <trkpt lat="46.85098" lon="4.6971">
        <ele>354</ele>
        <time>2012-08-22T14:09:24Z</time>
      </trkpt>
      <trkpt lat="46.85093" lon="4.69713">
        <ele>355</ele>
        <time>2012-08-22T14:09:25Z</time>
      </trkpt>
      <trkpt lat="46.85087" lon="4.69716">
        <ele>356</ele>
        <time>2012-08-22T14:09:26Z</time>
      </trkpt>
      <trkpt lat="46.85083" lon="4.69721">
        <ele>356</ele>
        <time>2012-08-22T14:09:27Z</time>
      </trkpt>
      <trkpt lat="46.85078" lon="4.69729">
        <ele>353</ele>
        <time>2012-08-22T14:09:29Z</time>
      </trkpt>
      <trkpt lat="46.85074" lon="4.69738">
        <ele>357</ele>
        <time>2012-08-22T14:09:31Z</time>
      </trkpt>
      <trkpt lat="46.85074" lon="4.69746">
        <ele>356</ele>
        <time>2012-08-22T14:09:32Z</time>
      </trkpt>
      <trkpt lat="46.85073" lon="4.69755">
        <ele>357</ele>
        <time>2012-08-22T14:09:33Z</time>
      </trkpt>
      <trkpt lat="46.85075" lon="4.69767">
        <ele>359</ele>
        <time>2012-08-22T14:09:34Z</time>
      </trkpt>
      <trkpt lat="46.85077" lon="4.69781">
        <ele>359</ele>
        <time>2012-08-22T14:09:35Z</time>
      </trkpt>
      <trkpt lat="46.85079" lon="4.69797">
        <ele>360</ele>
        <time>2012-08-22T14:09:36Z</time>
      </trkpt>
      <trkpt lat="46.8508" lon="4.69815">
        <ele>359</ele>
        <time>2012-08-22T14:09:37Z</time>
      </trkpt>
      <trkpt lat="46.85081" lon="4.69834">
        <ele>357</ele>
        <time>2012-08-22T14:09:38Z</time>
      </trkpt>
      <trkpt lat="46.85081" lon="4.69855">
        <ele>354</ele>
        <time>2012-08-22T14:09:39Z</time>
      </trkpt>
      <trkpt lat="46.85081" lon="4.69876">
        <ele>351</ele>
        <time>2012-08-22T14:09:40Z</time>
      </trkpt>
      <trkpt lat="46.85081" lon="4.69896">
        <ele>349</ele>
        <time>2012-08-22T14:09:41Z</time>
      </trkpt>
      <trkpt lat="46.85081" lon="4.69918">
        <ele>347</ele>
        <time>2012-08-22T14:09:42Z</time>
      </trkpt>
      <trkpt lat="46.85081" lon="4.69938">
        <ele>348</ele>
        <time>2012-08-22T14:09:43Z</time>
      </trkpt>
      <trkpt lat="46.85081" lon="4.69961">
        <ele>346</ele>
        <time>2012-08-22T14:09:44Z</time>
      </trkpt>
      <trkpt lat="46.8508" lon="4.69984">
        <ele>348</ele>
        <time>2012-08-22T14:09:45Z</time>
      </trkpt>
      <trkpt lat="46.8508" lon="4.70008">
        <ele>350</ele>
        <time>2012-08-22T14:09:46Z</time>
      </trkpt>
      <trkpt lat="46.85079" lon="4.7003">
        <ele>351</ele>
        <time>2012-08-22T14:09:47Z</time>
      </trkpt>
      <trkpt lat="46.85079" lon="4.70052">
        <ele>350</ele>
        <time>2012-08-22T14:09:48Z</time>
      </trkpt>
      <trkpt lat="46.85078" lon="4.70074">
        <ele>351</ele>
        <time>2012-08-22T14:09:49Z</time>
      </trkpt>
      <trkpt lat="46.85078" lon="4.70096">
        <ele>349</ele>
        <time>2012-08-22T14:09:50Z</time>
      </trkpt>
      <trkpt lat="46.85077" lon="4.70116">
        <ele>348</ele>
        <time>2012-08-22T14:09:51Z</time>
      </trkpt>
      <trkpt lat="46.85076" lon="4.70136">
        <ele>347</ele>
        <time>2012-08-22T14:09:52Z</time>
      </trkpt>
      <trkpt lat="46.85076" lon="4.70156">
        <ele>347</ele>
        <time>2012-08-22T14:09:53Z</time>
      </trkpt>
      <trkpt lat="46.85076" lon="4.70176">
        <ele>342</ele>
        <time>2012-08-22T14:09:54Z</time>
      </trkpt>
      <trkpt lat="46.85076" lon="4.70194">
        <ele>339</ele>
        <time>2012-08-22T14:09:55Z</time>
      </trkpt>
      <trkpt lat="46.85076" lon="4.7021">
        <ele>336</ele>
        <time>2012-08-22T14:09:56Z</time>
      </trkpt>
      <trkpt lat="46.85076" lon="4.70227">
        <ele>335</ele>
        <time>2012-08-22T14:09:57Z</time>
      </trkpt>
      <trkpt lat="46.85076" lon="4.70241">
        <ele>331</ele>
        <time>2012-08-22T14:09:58Z</time>
      </trkpt>
      <trkpt lat="46.85076" lon="4.70254">
        <ele>328</ele>
        <time>2012-08-22T14:09:59Z</time>
      </trkpt>
      <trkpt lat="46.85076" lon="4.70264">
        <ele>327</ele>
        <time>2012-08-22T14:10:00Z</time>
      </trkpt>
      <trkpt lat="46.85076" lon="4.70273">
        <ele>325</ele>
        <time>2012-08-22T14:10:01Z</time>
      </trkpt>
      <trkpt lat="46.85076" lon="4.70281">
        <ele>323</ele>
        <time>2012-08-22T14:10:02Z</time>
      </trkpt>
      <trkpt lat="46.85079" lon="4.7029">
        <ele>322</ele>
        <time>2012-08-22T14:10:03Z</time>
      </trkpt>
      <trkpt lat="46.85082" lon="4.703">
        <ele>322</ele>
        <time>2012-08-22T14:10:04Z</time>
      </trkpt>
      <trkpt lat="46.85088" lon="4.7031">
        <ele>321</ele>
        <time>2012-08-22T14:10:05Z</time>
      </trkpt>
      <trkpt lat="46.85095" lon="4.7032">
        <ele>322</ele>
        <time>2012-08-22T14:10:06Z</time>
      </trkpt>
      <trkpt lat="46.85103" lon="4.70331">
        <ele>319</ele>
        <time>2012-08-22T14:10:07Z</time>
      </trkpt>
      <trkpt lat="46.85111" lon="4.70344">
        <ele>321</ele>
        <time>2012-08-22T14:10:08Z</time>
      </trkpt>
      <trkpt lat="46.8512" lon="4.70356">
        <ele>320</ele>
        <time>2012-08-22T14:10:09Z</time>
      </trkpt>
      <trkpt lat="46.85128" lon="4.70369">
        <ele>321</ele>
        <time>2012-08-22T14:10:10Z</time>
      </trkpt>
      <trkpt lat="46.85138" lon="4.70383">
        <ele>321</ele>
        <time>2012-08-22T14:10:11Z</time>
      </trkpt>
      <trkpt lat="46.85147" lon="4.70397">
        <ele>320</ele>
        <time>2012-08-22T14:10:12Z</time>
      </trkpt>
      <trkpt lat="46.85156" lon="4.70412">
        <ele>319</ele>
        <time>2012-08-22T14:10:13Z</time>
      </trkpt>
      <trkpt lat="46.85166" lon="4.70428">
        <ele>318</ele>
        <time>2012-08-22T14:10:14Z</time>
      </trkpt>
      <trkpt lat="46.85175" lon="4.70444">
        <ele>318</ele>
        <time>2012-08-22T14:10:15Z</time>
      </trkpt>
      <trkpt lat="46.85185" lon="4.70462">
        <ele>317</ele>
        <time>2012-08-22T14:10:16Z</time>
      </trkpt>
      <trkpt lat="46.85194" lon="4.70479">
        <ele>316</ele>
        <time>2012-08-22T14:10:17Z</time>
      </trkpt>
      <trkpt lat="46.85203" lon="4.70496">
        <ele>315</ele>
        <time>2012-08-22T14:10:18Z</time>
      </trkpt>
      <trkpt lat="46.85213" lon="4.70514">
        <ele>315</ele>
        <time>2012-08-22T14:10:19Z</time>
      </trkpt>
      <trkpt lat="46.85222" lon="4.70532">
        <ele>314</ele>
        <time>2012-08-22T14:10:20Z</time>
      </trkpt>
      <trkpt lat="46.8523" lon="4.70549">
        <ele>314</ele>
        <time>2012-08-22T14:10:21Z</time>
      </trkpt>
      <trkpt lat="46.85239" lon="4.70566">
        <ele>314</ele>
        <time>2012-08-22T14:10:22Z</time>
      </trkpt>
      <trkpt lat="46.85247" lon="4.70583">
        <ele>314</ele>
        <time>2012-08-22T14:10:23Z</time>
      </trkpt>
      <trkpt lat="46.85255" lon="4.70599">
        <ele>316</ele>
        <time>2012-08-22T14:10:24Z</time>
      </trkpt>
      <trkpt lat="46.85264" lon="4.70615">
        <ele>318</ele>
        <time>2012-08-22T14:10:25Z</time>
      </trkpt>
      <trkpt lat="46.85273" lon="4.7063">
        <ele>320</ele>
        <time>2012-08-22T14:10:26Z</time>
      </trkpt>
      <trkpt lat="46.85282" lon="4.70644">
        <ele>320</ele>
        <time>2012-08-22T14:10:27Z</time>
      </trkpt>
      <trkpt lat="46.8529" lon="4.70657">
        <ele>321</ele>
        <time>2012-08-22T14:10:28Z</time>
      </trkpt>
      <trkpt lat="46.85298" lon="4.70669">
        <ele>322</ele>
        <time>2012-08-22T14:10:29Z</time>
      </trkpt>
      <trkpt lat="46.85306" lon="4.7068">
        <ele>322</ele>
        <time>2012-08-22T14:10:30Z</time>
      </trkpt>
      <trkpt lat="46.85311" lon="4.7069">
        <ele>323</ele>
        <time>2012-08-22T14:10:31Z</time>
      </trkpt>
      <trkpt lat="46.85314" lon="4.70701">
        <ele>322</ele>
        <time>2012-08-22T14:10:32Z</time>
      </trkpt>
      <trkpt lat="46.85317" lon="4.70711">
        <ele>322</ele>
        <time>2012-08-22T14:10:33Z</time>
      </trkpt>
      <trkpt lat="46.85318" lon="4.70721">
        <ele>321</ele>
        <time>2012-08-22T14:10:34Z</time>
      </trkpt>
      <trkpt lat="46.8532" lon="4.7073">
        <ele>322</ele>
        <time>2012-08-22T14:10:35Z</time>
      </trkpt>
      <trkpt lat="46.85319" lon="4.70737">
        <ele>322</ele>
        <time>2012-08-22T14:10:36Z</time>
      </trkpt>
      <trkpt lat="46.85313" lon="4.70743">
        <ele>324</ele>
        <time>2012-08-22T14:10:38Z</time>
      </trkpt>
      <trkpt lat="46.85309" lon="4.70742">
        <ele>328</ele>
        <time>2012-08-22T14:10:39Z</time>
      </trkpt>
      <trkpt lat="46.85301" lon="4.7074">
        <ele>331</ele>
        <time>2012-08-22T14:10:40Z</time>
      </trkpt>
      <trkpt lat="46.85292" lon="4.70738">
        <ele>329</ele>
        <time>2012-08-22T14:10:41Z</time>
      </trkpt>
      <trkpt lat="46.85282" lon="4.70737">
        <ele>329</ele>
        <time>2012-08-22T14:10:42Z</time>
      </trkpt>
      <trkpt lat="46.85271" lon="4.70736">
        <ele>330</ele>
        <time>2012-08-22T14:10:43Z</time>
      </trkpt>
      <trkpt lat="46.8526" lon="4.70736">
        <ele>329</ele>
        <time>2012-08-22T14:10:44Z</time>
      </trkpt>
      <trkpt lat="46.85249" lon="4.70738">
        <ele>327</ele>
        <time>2012-08-22T14:10:45Z</time>
      </trkpt>
      <trkpt lat="46.85237" lon="4.7074">
        <ele>326</ele>
        <time>2012-08-22T14:10:46Z</time>
      </trkpt>
      <trkpt lat="46.85226" lon="4.70743">
        <ele>328</ele>
        <time>2012-08-22T14:10:47Z</time>
      </trkpt>
      <trkpt lat="46.85215" lon="4.70747">
        <ele>330</ele>
        <time>2012-08-22T14:10:48Z</time>
      </trkpt>
      <trkpt lat="46.85206" lon="4.70751">
        <ele>327</ele>
        <time>2012-08-22T14:10:49Z</time>
      </trkpt>
      <trkpt lat="46.85198" lon="4.70755">
        <ele>325</ele>
        <time>2012-08-22T14:10:50Z</time>
      </trkpt>
      <trkpt lat="46.85191" lon="4.70757">
        <ele>323</ele>
        <time>2012-08-22T14:10:51Z</time>
      </trkpt>
      <trkpt lat="46.85184" lon="4.70754">
        <ele>323</ele>
        <time>2012-08-22T14:10:52Z</time>
      </trkpt>
      <trkpt lat="46.85178" lon="4.70747">
        <ele>323</ele>
        <time>2012-08-22T14:10:53Z</time>
      </trkpt>
      <trkpt lat="46.85171" lon="4.70741">
        <ele>322</ele>
        <time>2012-08-22T14:10:54Z</time>
      </trkpt>
      <trkpt lat="46.85161" lon="4.70738">
        <ele>318</ele>
        <time>2012-08-22T14:10:55Z</time>
      </trkpt>
      <trkpt lat="46.85149" lon="4.70734">
        <ele>323</ele>
        <time>2012-08-22T14:10:56Z</time>
      </trkpt>
      <trkpt lat="46.85137" lon="4.70732">
        <ele>324</ele>
        <time>2012-08-22T14:10:57Z</time>
      </trkpt>
      <trkpt lat="46.85125" lon="4.7073">
        <ele>327</ele>
        <time>2012-08-22T14:10:58Z</time>
      </trkpt>
      <trkpt lat="46.85115" lon="4.70728">
        <ele>326</ele>
        <time>2012-08-22T14:10:59Z</time>
      </trkpt>
      <trkpt lat="46.85105" lon="4.70723">
        <ele>324</ele>
        <time>2012-08-22T14:11:00Z</time>
      </trkpt>
      <trkpt lat="46.85096" lon="4.70718">
        <ele>322</ele>
        <time>2012-08-22T14:11:01Z</time>
      </trkpt>
      <trkpt lat="46.85088" lon="4.70713">
        <ele>317</ele>
        <time>2012-08-22T14:11:02Z</time>
      </trkpt>
      <trkpt lat="46.85081" lon="4.70704">
        <ele>318</ele>
        <time>2012-08-22T14:11:03Z</time>
      </trkpt>
      <trkpt lat="46.85073" lon="4.70696">
        <ele>319</ele>
        <time>2012-08-22T14:11:04Z</time>
      </trkpt>
      <trkpt lat="46.85064" lon="4.70688">
        <ele>322</ele>
        <time>2012-08-22T14:11:05Z</time>
      </trkpt>
      <trkpt lat="46.85054" lon="4.70678">
        <ele>324</ele>
        <time>2012-08-22T14:11:06Z</time>
      </trkpt>
      <trkpt lat="46.85044" lon="4.70668">
        <ele>321</ele>
        <time>2012-08-22T14:11:07Z</time>
      </trkpt>
      <trkpt lat="46.85033" lon="4.70659">
        <ele>319</ele>
        <time>2012-08-22T14:11:08Z</time>
      </trkpt>
      <trkpt lat="46.85023" lon="4.70652">
        <ele>318</ele>
        <time>2012-08-22T14:11:09Z</time>
      </trkpt>
      <trkpt lat="46.85012" lon="4.70643">
        <ele>321</ele>
        <time>2012-08-22T14:11:10Z</time>
      </trkpt>
      <trkpt lat="46.85003" lon="4.70635">
        <ele>324</ele>
        <time>2012-08-22T14:11:11Z</time>
      </trkpt>
      <trkpt lat="46.84996" lon="4.70632">
        <ele>323</ele>
        <time>2012-08-22T14:11:12Z</time>
      </trkpt>
      <trkpt lat="46.84987" lon="4.70628">
        <ele>327</ele>
        <time>2012-08-22T14:11:13Z</time>
      </trkpt>
      <trkpt lat="46.84975" lon="4.70625">
        <ele>333</ele>
        <time>2012-08-22T14:11:14Z</time>
      </trkpt>
      <trkpt lat="46.84962" lon="4.70624">
        <ele>335</ele>
        <time>2012-08-22T14:11:15Z</time>
      </trkpt>
      <trkpt lat="46.84948" lon="4.70624">
        <ele>340</ele>
        <time>2012-08-22T14:11:16Z</time>
      </trkpt>
      <trkpt lat="46.84936" lon="4.70629">
        <ele>339</ele>
        <time>2012-08-22T14:11:17Z</time>
      </trkpt>
      <trkpt lat="46.84924" lon="4.70634">
        <ele>339</ele>
        <time>2012-08-22T14:11:18Z</time>
      </trkpt>
      <trkpt lat="46.84914" lon="4.7064">
        <ele>341</ele>
        <time>2012-08-22T14:11:19Z</time>
      </trkpt>
      <trkpt lat="46.84903" lon="4.70647">
        <ele>344</ele>
        <time>2012-08-22T14:11:20Z</time>
      </trkpt>
      <trkpt lat="46.84892" lon="4.70655">
        <ele>342</ele>
        <time>2012-08-22T14:11:21Z</time>
      </trkpt>
      <trkpt lat="46.84883" lon="4.70664">
        <ele>341</ele>
        <time>2012-08-22T14:11:22Z</time>
      </trkpt>
      <trkpt lat="46.84874" lon="4.70672">
        <ele>342</ele>
        <time>2012-08-22T14:11:23Z</time>
      </trkpt>
      <trkpt lat="46.84864" lon="4.7068">
        <ele>342</ele>
        <time>2012-08-22T14:11:24Z</time>
      </trkpt>
      <trkpt lat="46.84853" lon="4.70689">
        <ele>343</ele>
        <time>2012-08-22T14:11:25Z</time>
      </trkpt>
      <trkpt lat="46.84842" lon="4.70699">
        <ele>344</ele>
        <time>2012-08-22T14:11:26Z</time>
      </trkpt>
      <trkpt lat="46.84832" lon="4.7071">
        <ele>343</ele>
        <time>2012-08-22T14:11:27Z</time>
      </trkpt>
      <trkpt lat="46.84823" lon="4.70724">
        <ele>343</ele>
        <time>2012-08-22T14:11:28Z</time>
      </trkpt>
      <trkpt lat="46.84815" lon="4.70737">
        <ele>344</ele>
        <time>2012-08-22T14:11:29Z</time>
      </trkpt>
      <trkpt lat="46.84806" lon="4.70752">
        <ele>341</ele>
        <time>2012-08-22T14:11:30Z</time>
      </trkpt>
      <trkpt lat="46.84797" lon="4.70767">
        <ele>342</ele>
        <time>2012-08-22T14:11:31Z</time>
      </trkpt>
      <trkpt lat="46.84788" lon="4.70781">
        <ele>342</ele>
        <time>2012-08-22T14:11:32Z</time>
      </trkpt>
      <trkpt lat="46.84778" lon="4.70794">
        <ele>344</ele>
        <time>2012-08-22T14:11:33Z</time>
      </trkpt>
      <trkpt lat="46.84766" lon="4.70804">
        <ele>342</ele>
        <time>2012-08-22T14:11:34Z</time>
      </trkpt>
      <trkpt lat="46.84754" lon="4.70813">
        <ele>345</ele>
        <time>2012-08-22T14:11:35Z</time>
      </trkpt>
      <trkpt lat="46.84743" lon="4.70823">
        <ele>348</ele>
        <time>2012-08-22T14:11:36Z</time>
      </trkpt>
      <trkpt lat="46.84731" lon="4.70833">
        <ele>350</ele>
        <time>2012-08-22T14:11:37Z</time>
      </trkpt>
      <trkpt lat="46.84718" lon="4.70844">
        <ele>351</ele>
        <time>2012-08-22T14:11:38Z</time>
      </trkpt>
      <trkpt lat="46.84705" lon="4.70855">
        <ele>351</ele>
        <time>2012-08-22T14:11:39Z</time>
      </trkpt>
      <trkpt lat="46.84693" lon="4.70866">
        <ele>351</ele>
        <time>2012-08-22T14:11:40Z</time>
      </trkpt>
      <trkpt lat="46.84681" lon="4.70877">
        <ele>353</ele>
        <time>2012-08-22T14:11:41Z</time>
      </trkpt>
      <trkpt lat="46.84669" lon="4.70888">
        <ele>354</ele>
        <time>2012-08-22T14:11:42Z</time>
      </trkpt>
      <trkpt lat="46.84659" lon="4.70898">
        <ele>355</ele>
        <time>2012-08-22T14:11:43Z</time>
      </trkpt>
      <trkpt lat="46.8465" lon="4.70906">
        <ele>353</ele>
        <time>2012-08-22T14:11:44Z</time>
      </trkpt>
      <trkpt lat="46.84644" lon="4.70908">
        <ele>354</ele>
        <time>2012-08-22T14:11:45Z</time>
      </trkpt>
      <trkpt lat="46.84638" lon="4.7091">
        <ele>357</ele>
        <time>2012-08-22T14:11:46Z</time>
      </trkpt>
      <trkpt lat="46.84633" lon="4.70911">
        <ele>361</ele>
        <time>2012-08-22T14:11:48Z</time>
      </trkpt>
      <trkpt lat="46.84631" lon="4.70918">
        <ele>363</ele>
        <time>2012-08-22T14:11:51Z</time>
      </trkpt>
      <trkpt lat="46.84637" lon="4.70926">
        <ele>362</ele>
        <time>2012-08-22T14:11:53Z</time>
      </trkpt>
      <trkpt lat="46.8464" lon="4.70931">
        <ele>362</ele>
        <time>2012-08-22T14:11:54Z</time>
      </trkpt>
      <trkpt lat="46.84643" lon="4.70937">
        <ele>361</ele>
        <time>2012-08-22T14:11:55Z</time>
      </trkpt>
      <trkpt lat="46.84646" lon="4.7095">
        <ele>361</ele>
        <time>2012-08-22T14:11:57Z</time>
      </trkpt>
      <trkpt lat="46.84647" lon="4.70956">
        <ele>366</ele>
        <time>2012-08-22T14:11:58Z</time>
      </trkpt>
      <trkpt lat="46.84651" lon="4.70964">
        <ele>364</ele>
        <time>2012-08-22T14:11:59Z</time>
      </trkpt>
      <trkpt lat="46.84655" lon="4.7097">
        <ele>365</ele>
        <time>2012-08-22T14:12:00Z</time>
      </trkpt>
      <trkpt lat="46.84659" lon="4.70976">
        <ele>363</ele>
        <time>2012-08-22T14:12:01Z</time>
      </trkpt>
      <trkpt lat="46.84665" lon="4.70981">
        <ele>362</ele>
        <time>2012-08-22T14:12:02Z</time>
      </trkpt>
      <trkpt lat="46.84671" lon="4.70986">
        <ele>361</ele>
        <time>2012-08-22T14:12:03Z</time>
      </trkpt>
      <trkpt lat="46.84676" lon="4.70991">
        <ele>362</ele>
        <time>2012-08-22T14:12:04Z</time>
      </trkpt>
      <trkpt lat="46.84679" lon="4.70996">
        <ele>360</ele>
        <time>2012-08-22T14:12:05Z</time>
      </trkpt>
      <trkpt lat="46.84683" lon="4.71005">
        <ele>362</ele>
        <time>2012-08-22T14:12:07Z</time>
      </trkpt>
      <trkpt lat="46.84686" lon="4.71011">
        <ele>362</ele>
        <time>2012-08-22T14:12:08Z</time>
      </trkpt>
      <trkpt lat="46.84693" lon="4.71019">
        <ele>363</ele>
        <time>2012-08-22T14:12:10Z</time>
      </trkpt>
      <trkpt lat="46.847" lon="4.71027">
        <ele>365</ele>
        <time>2012-08-22T14:12:12Z</time>
      </trkpt>
      <trkpt lat="46.84704" lon="4.71032">
        <ele>365</ele>
        <time>2012-08-22T14:12:13Z</time>
      </trkpt>
      <trkpt lat="46.8471" lon="4.71035">
        <ele>367</ele>
        <time>2012-08-22T14:12:14Z</time>
      </trkpt>
      <trkpt lat="46.84715" lon="4.71038">
        <ele>368</ele>
        <time>2012-08-22T14:12:15Z</time>
      </trkpt>
      <trkpt lat="46.84721" lon="4.71042">
        <ele>369</ele>
        <time>2012-08-22T14:12:16Z</time>
      </trkpt>
      <trkpt lat="46.84726" lon="4.71048">
        <ele>367</ele>
        <time>2012-08-22T14:12:17Z</time>
      </trkpt>
      <trkpt lat="46.8473" lon="4.71054">
        <ele>364</ele>
        <time>2012-08-22T14:12:18Z</time>
      </trkpt>
      <trkpt lat="46.84734" lon="4.71061">
        <ele>366</ele>
        <time>2012-08-22T14:12:19Z</time>
      </trkpt>
      <trkpt lat="46.84738" lon="4.71067">
        <ele>367</ele>
        <time>2012-08-22T14:12:20Z</time>
      </trkpt>
      <trkpt lat="46.84743" lon="4.71072">
        <ele>365</ele>
        <time>2012-08-22T14:12:21Z</time>
      </trkpt>
      <trkpt lat="46.84748" lon="4.71077">
        <ele>365</ele>
        <time>2012-08-22T14:12:22Z</time>
      </trkpt>
      <trkpt lat="46.84754" lon="4.71083">
        <ele>366</ele>
        <time>2012-08-22T14:12:23Z</time>
      </trkpt>
      <trkpt lat="46.84759" lon="4.71088">
        <ele>368</ele>
        <time>2012-08-22T14:12:24Z</time>
      </trkpt>
      <trkpt lat="46.84765" lon="4.71095">
        <ele>370</ele>
        <time>2012-08-22T14:12:25Z</time>
      </trkpt>
      <trkpt lat="46.84771" lon="4.711">
        <ele>370</ele>
        <time>2012-08-22T14:12:26Z</time>
      </trkpt>
      <trkpt lat="46.84776" lon="4.71106">
        <ele>370</ele>
        <time>2012-08-22T14:12:27Z</time>
      </trkpt>
      <trkpt lat="46.84782" lon="4.71111">
        <ele>372</ele>
        <time>2012-08-22T14:12:28Z</time>
      </trkpt>
      <trkpt lat="46.84788" lon="4.71116">
        <ele>369</ele>
        <time>2012-08-22T14:12:29Z</time>
      </trkpt>
      <trkpt lat="46.84794" lon="4.71122">
        <ele>371</ele>
        <time>2012-08-22T14:12:30Z</time>
      </trkpt>
      <trkpt lat="46.848" lon="4.71126">
        <ele>371</ele>
        <time>2012-08-22T14:12:31Z</time>
      </trkpt>
      <trkpt lat="46.84805" lon="4.71133">
        <ele>377</ele>
        <time>2012-08-22T14:12:32Z</time>
      </trkpt>
      <trkpt lat="46.8481" lon="4.71139">
        <ele>377</ele>
        <time>2012-08-22T14:12:33Z</time>
      </trkpt>
      <trkpt lat="46.84813" lon="4.71145">
        <ele>376</ele>
        <time>2012-08-22T14:12:34Z</time>
      </trkpt>
      <trkpt lat="46.84817" lon="4.7115">
        <ele>373</ele>
        <time>2012-08-22T14:12:35Z</time>
      </trkpt>
      <trkpt lat="46.84822" lon="4.71156">
        <ele>376</ele>
        <time>2012-08-22T14:12:36Z</time>
      </trkpt>
      <trkpt lat="46.84827" lon="4.71161">
        <ele>381</ele>
        <time>2012-08-22T14:12:37Z</time>
      </trkpt>
      <trkpt lat="46.84832" lon="4.71165">
        <ele>380</ele>
        <time>2012-08-22T14:12:38Z</time>
      </trkpt>
      <trkpt lat="46.84838" lon="4.71168">
        <ele>382</ele>
        <time>2012-08-22T14:12:39Z</time>
      </trkpt>
      <trkpt lat="46.84844" lon="4.7117">
        <ele>380</ele>
        <time>2012-08-22T14:12:40Z</time>
      </trkpt>
      <trkpt lat="46.84851" lon="4.71171">
        <ele>382</ele>
        <time>2012-08-22T14:12:41Z</time>
      </trkpt>
      <trkpt lat="46.84857" lon="4.71172">
        <ele>379</ele>
        <time>2012-08-22T14:12:42Z</time>
      </trkpt>
      <trkpt lat="46.84865" lon="4.71174">
        <ele>382</ele>
        <time>2012-08-22T14:12:43Z</time>
      </trkpt>
      <trkpt lat="46.84872" lon="4.71175">
        <ele>384</ele>
        <time>2012-08-22T14:12:44Z</time>
      </trkpt>
      <trkpt lat="46.84879" lon="4.71177">
        <ele>384</ele>
        <time>2012-08-22T14:12:45Z</time>
      </trkpt>
      <trkpt lat="46.84886" lon="4.71179">
        <ele>383</ele>
        <time>2012-08-22T14:12:46Z</time>
      </trkpt>
      <trkpt lat="46.84894" lon="4.71182">
        <ele>379</ele>
        <time>2012-08-22T14:12:47Z</time>
      </trkpt>
      <trkpt lat="46.849" lon="4.71185">
        <ele>380</ele>
        <time>2012-08-22T14:12:48Z</time>
      </trkpt>
      <trkpt lat="46.84907" lon="4.71189">
        <ele>384</ele>
        <time>2012-08-22T14:12:49Z</time>
      </trkpt>
      <trkpt lat="46.84914" lon="4.71193">
        <ele>385</ele>
        <time>2012-08-22T14:12:50Z</time>
      </trkpt>
      <trkpt lat="46.8492" lon="4.71198">
        <ele>384</ele>
        <time>2012-08-22T14:12:51Z</time>
      </trkpt>
      <trkpt lat="46.84926" lon="4.71202">
        <ele>385</ele>
        <time>2012-08-22T14:12:52Z</time>
      </trkpt>
      <trkpt lat="46.84931" lon="4.71205">
        <ele>383</ele>
        <time>2012-08-22T14:12:53Z</time>
      </trkpt>
      <trkpt lat="46.84935" lon="4.71208">
        <ele>382</ele>
        <time>2012-08-22T14:12:54Z</time>
      </trkpt>
      <trkpt lat="46.84941" lon="4.71216">
        <ele>379</ele>
        <time>2012-08-22T14:12:56Z</time>
      </trkpt>
      <trkpt lat="46.84946" lon="4.71218">
        <ele>380</ele>
        <time>2012-08-22T14:12:57Z</time>
      </trkpt>
      <trkpt lat="46.84951" lon="4.71222">
        <ele>380</ele>
        <time>2012-08-22T14:12:58Z</time>
      </trkpt>
      <trkpt lat="46.84957" lon="4.71227">
        <ele>384</ele>
        <time>2012-08-22T14:12:59Z</time>
      </trkpt>
      <trkpt lat="46.84963" lon="4.71231">
        <ele>384</ele>
        <time>2012-08-22T14:13:00Z</time>
      </trkpt>
      <trkpt lat="46.84969" lon="4.71236">
        <ele>386</ele>
        <time>2012-08-22T14:13:01Z</time>
      </trkpt>
      <trkpt lat="46.84974" lon="4.71241">
        <ele>389</ele>
        <time>2012-08-22T14:13:02Z</time>
      </trkpt>
      <trkpt lat="46.84979" lon="4.71246">
        <ele>389</ele>
        <time>2012-08-22T14:13:03Z</time>
      </trkpt>
      <trkpt lat="46.84983" lon="4.7125">
        <ele>391</ele>
        <time>2012-08-22T14:13:04Z</time>
      </trkpt>
      <trkpt lat="46.84988" lon="4.71255">
        <ele>391</ele>
        <time>2012-08-22T14:13:05Z</time>
      </trkpt>
      <trkpt lat="46.84992" lon="4.7126">
        <ele>391</ele>
        <time>2012-08-22T14:13:06Z</time>
      </trkpt>
      <trkpt lat="46.84997" lon="4.71266">
        <ele>392</ele>
        <time>2012-08-22T14:13:07Z</time>
      </trkpt>
      <trkpt lat="46.85002" lon="4.71272">
        <ele>392</ele>
        <time>2012-08-22T14:13:08Z</time>
      </trkpt>
      <trkpt lat="46.85006" lon="4.71278">
        <ele>390</ele>
        <time>2012-08-22T14:13:09Z</time>
      </trkpt>
      <trkpt lat="46.85011" lon="4.71285">
        <ele>392</ele>
        <time>2012-08-22T14:13:10Z</time>
      </trkpt>
      <trkpt lat="46.85017" lon="4.71293">
        <ele>395</ele>
        <time>2012-08-22T14:13:11Z</time>
      </trkpt>
      <trkpt lat="46.85023" lon="4.71302">
        <ele>394</ele>
        <time>2012-08-22T14:13:12Z</time>
      </trkpt>
      <trkpt lat="46.85028" lon="4.7131">
        <ele>393</ele>
        <time>2012-08-22T14:13:13Z</time>
      </trkpt>
      <trkpt lat="46.85033" lon="4.71318">
        <ele>394</ele>
        <time>2012-08-22T14:13:14Z</time>
      </trkpt>
      <trkpt lat="46.85038" lon="4.71325">
        <ele>393</ele>
        <time>2012-08-22T14:13:15Z</time>
      </trkpt>
      <trkpt lat="46.85042" lon="4.71332">
        <ele>390</ele>
        <time>2012-08-22T14:13:16Z</time>
      </trkpt>
      <trkpt lat="46.85046" lon="4.7134">
        <ele>390</ele>
        <time>2012-08-22T14:13:17Z</time>
      </trkpt>
      <trkpt lat="46.85051" lon="4.71348">
        <ele>392</ele>
        <time>2012-08-22T14:13:18Z</time>
      </trkpt>
      <trkpt lat="46.85055" lon="4.71356">
        <ele>391</ele>
        <time>2012-08-22T14:13:19Z</time>
      </trkpt>
      <trkpt lat="46.8506" lon="4.71363">
        <ele>391</ele>
        <time>2012-08-22T14:13:20Z</time>
      </trkpt>
      <trkpt lat="46.85065" lon="4.71371">
        <ele>390</ele>
        <time>2012-08-22T14:13:21Z</time>
      </trkpt>
      <trkpt lat="46.85069" lon="4.71379">
        <ele>389</ele>
        <time>2012-08-22T14:13:22Z</time>
      </trkpt>
      <trkpt lat="46.85074" lon="4.71388">
        <ele>391</ele>
        <time>2012-08-22T14:13:23Z</time>
      </trkpt>
      <trkpt lat="46.85079" lon="4.71395">
        <ele>393</ele>
        <time>2012-08-22T14:13:24Z</time>
      </trkpt>
      <trkpt lat="46.85083" lon="4.71403">
        <ele>392</ele>
        <time>2012-08-22T14:13:25Z</time>
      </trkpt>
      <trkpt lat="46.85087" lon="4.71412">
        <ele>390</ele>
        <time>2012-08-22T14:13:26Z</time>
      </trkpt>
      <trkpt lat="46.85091" lon="4.71421">
        <ele>390</ele>
        <time>2012-08-22T14:13:27Z</time>
      </trkpt>
      <trkpt lat="46.85094" lon="4.7143">
        <ele>387</ele>
        <time>2012-08-22T14:13:28Z</time>
      </trkpt>
      <trkpt lat="46.85097" lon="4.71438">
        <ele>386</ele>
        <time>2012-08-22T14:13:29Z</time>
      </trkpt>
      <trkpt lat="46.85101" lon="4.71447">
        <ele>385</ele>
        <time>2012-08-22T14:13:30Z</time>
      </trkpt>
      <trkpt lat="46.85104" lon="4.71456">
        <ele>387</ele>
        <time>2012-08-22T14:13:31Z</time>
      </trkpt>
      <trkpt lat="46.85108" lon="4.71465">
        <ele>388</ele>
        <time>2012-08-22T14:13:32Z</time>
      </trkpt>
      <trkpt lat="46.85111" lon="4.71473">
        <ele>388</ele>
        <time>2012-08-22T14:13:33Z</time>
      </trkpt>
      <trkpt lat="46.85114" lon="4.71482">
        <ele>384</ele>
        <time>2012-08-22T14:13:34Z</time>
      </trkpt>
      <trkpt lat="46.85118" lon="4.71494">
        <ele>384</ele>
        <time>2012-08-22T14:13:35Z</time>
      </trkpt>
      <trkpt lat="46.85122" lon="4.71505">
        <ele>384</ele>
        <time>2012-08-22T14:13:36Z</time>
      </trkpt>
      <trkpt lat="46.85124" lon="4.71517">
        <ele>383</ele>
        <time>2012-08-22T14:13:37Z</time>
      </trkpt>
      <trkpt lat="46.85127" lon="4.71528">
        <ele>384</ele>
        <time>2012-08-22T14:13:38Z</time>
      </trkpt>
      <trkpt lat="46.85129" lon="4.7154">
        <ele>385</ele>
        <time>2012-08-22T14:13:39Z</time>
      </trkpt>
      <trkpt lat="46.85131" lon="4.71553">
        <ele>386</ele>
        <time>2012-08-22T14:13:40Z</time>
      </trkpt>
      <trkpt lat="46.85133" lon="4.71568">
        <ele>385</ele>
        <time>2012-08-22T14:13:41Z</time>
      </trkpt>
      <trkpt lat="46.85136" lon="4.71583">
        <ele>381</ele>
        <time>2012-08-22T14:13:42Z</time>
      </trkpt>
      <trkpt lat="46.85137" lon="4.71595">
        <ele>381</ele>
        <time>2012-08-22T14:13:43Z</time>
      </trkpt>
      <trkpt lat="46.85139" lon="4.71607">
        <ele>382</ele>
        <time>2012-08-22T14:13:44Z</time>
      </trkpt>
      <trkpt lat="46.8514" lon="4.71616">
        <ele>383</ele>
        <time>2012-08-22T14:13:45Z</time>
      </trkpt>
      <trkpt lat="46.85141" lon="4.71625">
        <ele>383</ele>
        <time>2012-08-22T14:13:46Z</time>
      </trkpt>
      <trkpt lat="46.85142" lon="4.71632">
        <ele>384</ele>
        <time>2012-08-22T14:13:47Z</time>
      </trkpt>
      <trkpt lat="46.85144" lon="4.7164">
        <ele>383</ele>
        <time>2012-08-22T14:13:48Z</time>
      </trkpt>
      <trkpt lat="46.85149" lon="4.71658">
        <ele>379</ele>
        <time>2012-08-22T14:13:52Z</time>
      </trkpt>
      <trkpt lat="46.85149" lon="4.71658">
        <ele>379</ele>
        <time>2012-08-22T14:13:52Z</time>
      </trkpt>
      <trkpt lat="46.85149" lon="4.71658">
        <ele>379</ele>
        <time>2012-08-22T14:13:53Z</time>
      </trkpt>
      <trkpt lat="46.85152" lon="4.71666">
        <ele>374</ele>
        <time>2012-08-22T14:13:54Z</time>
      </trkpt>
      <trkpt lat="46.85155" lon="4.71675">
        <ele>374</ele>
        <time>2012-08-22T14:13:56Z</time>
      </trkpt>
      <trkpt lat="46.85156" lon="4.71682">
        <ele>374</ele>
        <time>2012-08-22T14:13:57Z</time>
      </trkpt>
      <trkpt lat="46.85157" lon="4.71689">
        <ele>372</ele>
        <time>2012-08-22T14:13:58Z</time>
      </trkpt>
      <trkpt lat="46.85156" lon="4.717">
        <ele>373</ele>
        <time>2012-08-22T14:14:00Z</time>
      </trkpt>
      <trkpt lat="46.85156" lon="4.717">
        <ele>373</ele>
        <time>2012-08-22T14:14:00Z</time>
      </trkpt>
      <trkpt lat="46.85156" lon="4.717">
        <ele>373</ele>
        <time>2012-08-22T14:14:03Z</time>
      </trkpt>
      <trkpt lat="46.85156" lon="4.71714">
        <ele>373</ele>
        <time>2012-08-22T14:14:04Z</time>
      </trkpt>
      <trkpt lat="46.85158" lon="4.71721">
        <ele>374</ele>
        <time>2012-08-22T14:14:06Z</time>
      </trkpt>
      <trkpt lat="46.85161" lon="4.7173">
        <ele>371</ele>
        <time>2012-08-22T14:14:08Z</time>
      </trkpt>
      <trkpt lat="46.85163" lon="4.71737">
        <ele>368</ele>
        <time>2012-08-22T14:14:11Z</time>
      </trkpt>
      <trkpt lat="46.85166" lon="4.71741">
        <ele>364</ele>
        <time>2012-08-22T14:14:14Z</time>
      </trkpt>
      <trkpt lat="46.85169" lon="4.71746">
        <ele>363</ele>
        <time>2012-08-22T14:14:15Z</time>
      </trkpt>
      <trkpt lat="46.85173" lon="4.71752">
        <ele>370</ele>
        <time>2012-08-22T14:14:17Z</time>
      </trkpt>
      <trkpt lat="46.85177" lon="4.71758">
        <ele>361</ele>
        <time>2012-08-22T14:14:20Z</time>
      </trkpt>
      <trkpt lat="46.85181" lon="4.71763">
        <ele>355</ele>
        <time>2012-08-22T14:14:23Z</time>
      </trkpt>
      <trkpt lat="46.85182" lon="4.71772">
        <ele>353</ele>
        <time>2012-08-22T14:14:28Z</time>
      </trkpt>
      <trkpt lat="46.85182" lon="4.71772">
        <ele>353</ele>
        <time>2012-08-22T14:14:28Z</time>
      </trkpt>
      <trkpt lat="46.85182" lon="4.71772">
        <ele>353</ele>
        <time>2012-08-22T14:14:29Z</time>
      </trkpt>
      <trkpt lat="46.85182" lon="4.71779">
        <ele>355</ele>
        <time>2012-08-22T14:14:31Z</time>
      </trkpt>
      <trkpt lat="46.85182" lon="4.71779">
        <ele>355</ele>
        <time>2012-08-22T14:14:31Z</time>
      </trkpt>
      <trkpt lat="46.85182" lon="4.71779">
        <ele>355</ele>
        <time>2012-08-22T14:14:33Z</time>
      </trkpt>
      <trkpt lat="46.85183" lon="4.71787">
        <ele>364</ele>
        <time>2012-08-22T14:14:41Z</time>
      </trkpt>
      <trkpt lat="46.85183" lon="4.71787">
        <ele>364</ele>
        <time>2012-08-22T14:14:41Z</time>
      </trkpt>
      <trkpt lat="46.85183" lon="4.71787">
        <ele>364</ele>
        <time>2012-08-22T14:15:14Z</time>
      </trkpt>
      <trkpt lat="46.85185" lon="4.71804">
        <ele>363</ele>
        <time>2012-08-22T14:15:15Z</time>
      </trkpt>
      <trkpt lat="46.85183" lon="4.71814">
        <ele>369</ele>
        <time>2012-08-22T14:15:16Z</time>
      </trkpt>
      <trkpt lat="46.85184" lon="4.71822">
        <ele>369</ele>
        <time>2012-08-22T14:15:18Z</time>
      </trkpt>
      <trkpt lat="46.85184" lon="4.71829">
        <ele>369</ele>
        <time>2012-08-22T14:15:21Z</time>
      </trkpt>
      <trkpt lat="46.85187" lon="4.71835">
        <ele>369</ele>
        <time>2012-08-22T14:15:28Z</time>
      </trkpt>
      <trkpt lat="46.85184" lon="4.7184">
        <ele>367</ele>
        <time>2012-08-22T14:15:32Z</time>
      </trkpt>
      <trkpt lat="46.85164" lon="4.71852">
        <ele>360</ele>
        <time>2012-08-22T14:15:35Z</time>
      </trkpt>
      <trkpt lat="46.85164" lon="4.71852">
        <ele>360</ele>
        <time>2012-08-22T14:15:35Z</time>
      </trkpt>
      <trkpt lat="46.85164" lon="4.71852">
        <ele>360</ele>
        <time>2012-08-22T14:15:41Z</time>
      </trkpt>
      <trkpt lat="46.85159" lon="4.71864">
        <ele>354</ele>
        <time>2012-08-22T14:15:49Z</time>
      </trkpt>
      <trkpt lat="46.85159" lon="4.71864">
        <ele>354</ele>
        <time>2012-08-22T14:15:49Z</time>
      </trkpt>
      <trkpt lat="46.85159" lon="4.71864">
        <ele>354</ele>
        <time>2012-08-22T14:16:11Z</time>
      </trkpt>
      <trkpt lat="46.85164" lon="4.71863">
        <ele>352</ele>
        <time>2012-08-22T14:16:16Z</time>
      </trkpt>
      <trkpt lat="46.85168" lon="4.7186">
        <ele>350</ele>
        <time>2012-08-22T14:16:21Z</time>
      </trkpt>
      <trkpt lat="46.8517" lon="4.71854">
        <ele>350</ele>
        <time>2012-08-22T14:16:25Z</time>
      </trkpt>
      <trkpt lat="46.85165" lon="4.71852">
        <ele>365</ele>
        <time>2012-08-22T14:18:03Z</time>
      </trkpt>
      <trkpt lat="46.85159" lon="4.71854">
        <ele>365</ele>
        <time>2012-08-22T14:18:25Z</time>
      </trkpt>
      <trkpt lat="46.85152" lon="4.71858">
        <ele>365</ele>
        <time>2012-08-22T14:18:45Z</time>
      </trkpt>
      <trkpt lat="46.85146" lon="4.71863">
        <ele>360</ele>
        <time>2012-08-22T14:18:48Z</time>
      </trkpt>
      <trkpt lat="46.85141" lon="4.71866">
        <ele>364</ele>
        <time>2012-08-22T14:18:51Z</time>
      </trkpt>
      <trkpt lat="46.85141" lon="4.71866">
        <ele>364</ele>
        <time>2012-08-22T14:18:51Z</time>
      </trkpt>
      <trkpt lat="46.85141" lon="4.71866">
        <ele>364</ele>
        <time>2012-08-22T14:18:55Z</time>
      </trkpt>
      <trkpt lat="46.85137" lon="4.71869">
        <ele>356</ele>
        <time>2012-08-22T14:18:58Z</time>
      </trkpt>
      <trkpt lat="46.85137" lon="4.71869">
        <ele>356</ele>
        <time>2012-08-22T14:18:58Z</time>
      </trkpt>
      <trkpt lat="46.85137" lon="4.71869">
        <ele>356</ele>
        <time>2012-08-22T14:18:59Z</time>
      </trkpt>
      <trkpt lat="46.85131" lon="4.71874">
        <ele>359</ele>
        <time>2012-08-22T14:19:07Z</time>
      </trkpt>
      <trkpt lat="46.85127" lon="4.71878">
        <ele>361</ele>
        <time>2012-08-22T14:19:09Z</time>
      </trkpt>
      <trkpt lat="46.85122" lon="4.71882">
        <ele>363</ele>
        <time>2012-08-22T14:19:11Z</time>
      </trkpt>
      <trkpt lat="46.85118" lon="4.71888">
        <ele>362</ele>
        <time>2012-08-22T14:19:13Z</time>
      </trkpt>
      <trkpt lat="46.85117" lon="4.71894">
        <ele>357</ele>
        <time>2012-08-22T14:19:15Z</time>
      </trkpt>
      <trkpt lat="46.85114" lon="4.71901">
        <ele>367</ele>
        <time>2012-08-22T14:19:19Z</time>
      </trkpt>
      <trkpt lat="46.85112" lon="4.7191">
        <ele>360</ele>
        <time>2012-08-22T14:19:35Z</time>
      </trkpt>
      <trkpt lat="46.85115" lon="4.71919">
        <ele>360</ele>
        <time>2012-08-22T14:19:37Z</time>
      </trkpt>
      <trkpt lat="46.85121" lon="4.71929">
        <ele>359</ele>
        <time>2012-08-22T14:19:39Z</time>
      </trkpt>
      <trkpt lat="46.85126" lon="4.71938">
        <ele>358</ele>
        <time>2012-08-22T14:19:41Z</time>
      </trkpt>
      <trkpt lat="46.8513" lon="4.71942">
        <ele>359</ele>
        <time>2012-08-22T14:19:42Z</time>
      </trkpt>
      <trkpt lat="46.85134" lon="4.71951">
        <ele>356</ele>
        <time>2012-08-22T14:19:44Z</time>
      </trkpt>
      <trkpt lat="46.85137" lon="4.71956">
        <ele>355</ele>
        <time>2012-08-22T14:19:45Z</time>
      </trkpt>
      <trkpt lat="46.85143" lon="4.71965">
        <ele>352</ele>
        <time>2012-08-22T14:19:47Z</time>
      </trkpt>
      <trkpt lat="46.85148" lon="4.71974">
        <ele>348</ele>
        <time>2012-08-22T14:19:49Z</time>
      </trkpt>
      <trkpt lat="46.85152" lon="4.71985">
        <ele>349</ele>
        <time>2012-08-22T14:19:51Z</time>
      </trkpt>
      <trkpt lat="46.85152" lon="4.71997">
        <ele>347</ele>
        <time>2012-08-22T14:19:53Z</time>
      </trkpt>
      <trkpt lat="46.8515" lon="4.72006">
        <ele>345</ele>
        <time>2012-08-22T14:19:55Z</time>
      </trkpt>
      <trkpt lat="46.85148" lon="4.72017">
        <ele>348</ele>
        <time>2012-08-22T14:19:57Z</time>
      </trkpt>
      <trkpt lat="46.85147" lon="4.72024">
        <ele>349</ele>
        <time>2012-08-22T14:19:58Z</time>
      </trkpt>
      <trkpt lat="46.85146" lon="4.72031">
        <ele>351</ele>
        <time>2012-08-22T14:19:59Z</time>
      </trkpt>
      <trkpt lat="46.85144" lon="4.72038">
        <ele>352</ele>
        <time>2012-08-22T14:20:00Z</time>
      </trkpt>
      <trkpt lat="46.85143" lon="4.72044">
        <ele>353</ele>
        <time>2012-08-22T14:20:01Z</time>
      </trkpt>
      <trkpt lat="46.8514" lon="4.72056">
        <ele>353</ele>
        <time>2012-08-22T14:20:03Z</time>
      </trkpt>
      <trkpt lat="46.85141" lon="4.72064">
        <ele>357</ele>
        <time>2012-08-22T14:20:05Z</time>
      </trkpt>
      <trkpt lat="46.85143" lon="4.72073">
        <ele>355</ele>
        <time>2012-08-22T14:20:07Z</time>
      </trkpt>
      <trkpt lat="46.85145" lon="4.7208">
        <ele>357</ele>
        <time>2012-08-22T14:20:09Z</time>
      </trkpt>
      <trkpt lat="46.85145" lon="4.72088">
        <ele>358</ele>
        <time>2012-08-22T14:20:11Z</time>
      </trkpt>
      <trkpt lat="46.85144" lon="4.72098">
        <ele>358</ele>
        <time>2012-08-22T14:20:13Z</time>
      </trkpt>
      <trkpt lat="46.85141" lon="4.72105">
        <ele>356</ele>
        <time>2012-08-22T14:20:15Z</time>
      </trkpt>
      <trkpt lat="46.85137" lon="4.72115">
        <ele>357</ele>
        <time>2012-08-22T14:20:17Z</time>
      </trkpt>
      <trkpt lat="46.85132" lon="4.72125">
        <ele>355</ele>
        <time>2012-08-22T14:20:19Z</time>
      </trkpt>
      <trkpt lat="46.85128" lon="4.72129">
        <ele>351</ele>
        <time>2012-08-22T14:20:20Z</time>
      </trkpt>
      <trkpt lat="46.85123" lon="4.72141">
        <ele>355</ele>
        <time>2012-08-22T14:20:22Z</time>
      </trkpt>
      <trkpt lat="46.8512" lon="4.72151">
        <ele>360</ele>
        <time>2012-08-22T14:20:24Z</time>
      </trkpt>
      <trkpt lat="46.85118" lon="4.72159">
        <ele>361</ele>
        <time>2012-08-22T14:20:25Z</time>
      </trkpt>
      <trkpt lat="46.85116" lon="4.72168">
        <ele>360</ele>
        <time>2012-08-22T14:20:26Z</time>
      </trkpt>
      <trkpt lat="46.85113" lon="4.72176">
        <ele>360</ele>
        <time>2012-08-22T14:20:27Z</time>
      </trkpt>
      <trkpt lat="46.85111" lon="4.72182">
        <ele>364</ele>
        <time>2012-08-22T14:20:28Z</time>
      </trkpt>
      <trkpt lat="46.85108" lon="4.7219">
        <ele>366</ele>
        <time>2012-08-22T14:20:29Z</time>
      </trkpt>
      <trkpt lat="46.85106" lon="4.72195">
        <ele>368</ele>
        <time>2012-08-22T14:20:30Z</time>
      </trkpt>
      <trkpt lat="46.85104" lon="4.72208">
        <ele>366</ele>
        <time>2012-08-22T14:20:32Z</time>
      </trkpt>
      <trkpt lat="46.85104" lon="4.72215">
        <ele>364</ele>
        <time>2012-08-22T14:20:33Z</time>
      </trkpt>
      <trkpt lat="46.85103" lon="4.72222">
        <ele>365</ele>
        <time>2012-08-22T14:20:34Z</time>
      </trkpt>
      <trkpt lat="46.85102" lon="4.72229">
        <ele>368</ele>
        <time>2012-08-22T14:20:35Z</time>
      </trkpt>
      <trkpt lat="46.851" lon="4.72235">
        <ele>368</ele>
        <time>2012-08-22T14:20:36Z</time>
      </trkpt>
      <trkpt lat="46.85098" lon="4.72242">
        <ele>368</ele>
        <time>2012-08-22T14:20:37Z</time>
      </trkpt>
      <trkpt lat="46.85096" lon="4.72249">
        <ele>368</ele>
        <time>2012-08-22T14:20:38Z</time>
      </trkpt>
      <trkpt lat="46.85093" lon="4.72256">
        <ele>367</ele>
        <time>2012-08-22T14:20:39Z</time>
      </trkpt>
      <trkpt lat="46.8509" lon="4.72263">
        <ele>368</ele>
        <time>2012-08-22T14:20:40Z</time>
      </trkpt>
      <trkpt lat="46.85087" lon="4.72272">
        <ele>369</ele>
        <time>2012-08-22T14:20:41Z</time>
      </trkpt>
      <trkpt lat="46.85084" lon="4.7228">
        <ele>367</ele>
        <time>2012-08-22T14:20:42Z</time>
      </trkpt>
      <trkpt lat="46.8508" lon="4.72289">
        <ele>367</ele>
        <time>2012-08-22T14:20:43Z</time>
      </trkpt>
      <trkpt lat="46.85077" lon="4.72297">
        <ele>364</ele>
        <time>2012-08-22T14:20:44Z</time>
      </trkpt>
      <trkpt lat="46.85073" lon="4.72306">
        <ele>365</ele>
        <time>2012-08-22T14:20:45Z</time>
      </trkpt>
      <trkpt lat="46.8507" lon="4.72314">
        <ele>365</ele>
        <time>2012-08-22T14:20:46Z</time>
      </trkpt>
      <trkpt lat="46.85067" lon="4.7232">
        <ele>366</ele>
        <time>2012-08-22T14:20:47Z</time>
      </trkpt>
      <trkpt lat="46.85064" lon="4.72327">
        <ele>365</ele>
        <time>2012-08-22T14:20:48Z</time>
      </trkpt>
      <trkpt lat="46.85061" lon="4.72333">
        <ele>364</ele>
        <time>2012-08-22T14:20:49Z</time>
      </trkpt>
      <trkpt lat="46.85058" lon="4.7234">
        <ele>364</ele>
        <time>2012-08-22T14:20:50Z</time>
      </trkpt>
      <trkpt lat="46.85054" lon="4.72348">
        <ele>367</ele>
        <time>2012-08-22T14:20:51Z</time>
      </trkpt>
      <trkpt lat="46.8505" lon="4.72355">
        <ele>366</ele>
        <time>2012-08-22T14:20:52Z</time>
      </trkpt>
      <trkpt lat="46.85046" lon="4.72362">
        <ele>365</ele>
        <time>2012-08-22T14:20:53Z</time>
      </trkpt>
      <trkpt lat="46.85041" lon="4.7237">
        <ele>364</ele>
        <time>2012-08-22T14:20:54Z</time>
      </trkpt>
      <trkpt lat="46.85036" lon="4.72379">
        <ele>367</ele>
        <time>2012-08-22T14:20:55Z</time>
      </trkpt>
      <trkpt lat="46.85032" lon="4.72387">
        <ele>366</ele>
        <time>2012-08-22T14:20:56Z</time>
      </trkpt>
      <trkpt lat="46.85027" lon="4.72395">
        <ele>368</ele>
        <time>2012-08-22T14:20:57Z</time>
      </trkpt>
      <trkpt lat="46.85022" lon="4.72404">
        <ele>368</ele>
        <time>2012-08-22T14:20:58Z</time>
      </trkpt>
      <trkpt lat="46.85018" lon="4.72412">
        <ele>369</ele>
        <time>2012-08-22T14:20:59Z</time>
      </trkpt>
      <trkpt lat="46.85012" lon="4.7242">
        <ele>367</ele>
        <time>2012-08-22T14:21:00Z</time>
      </trkpt>
      <trkpt lat="46.85009" lon="4.72425">
        <ele>368</ele>
        <time>2012-08-22T14:21:01Z</time>
      </trkpt>
      <trkpt lat="46.85004" lon="4.72432">
        <ele>371</ele>
        <time>2012-08-22T14:21:03Z</time>
      </trkpt>
      <trkpt lat="46.84998" lon="4.72439">
        <ele>373</ele>
        <time>2012-08-22T14:21:05Z</time>
      </trkpt>
      <trkpt lat="46.84994" lon="4.72444">
        <ele>373</ele>
        <time>2012-08-22T14:21:06Z</time>
      </trkpt>
      <trkpt lat="46.8499" lon="4.72449">
        <ele>373</ele>
        <time>2012-08-22T14:21:07Z</time>
      </trkpt>
      <trkpt lat="46.84985" lon="4.72456">
        <ele>374</ele>
        <time>2012-08-22T14:21:08Z</time>
      </trkpt>
      <trkpt lat="46.84981" lon="4.72464">
        <ele>371</ele>
        <time>2012-08-22T14:21:09Z</time>
      </trkpt>
      <trkpt lat="46.84976" lon="4.72473">
        <ele>367</ele>
        <time>2012-08-22T14:21:10Z</time>
      </trkpt>
      <trkpt lat="46.84972" lon="4.72481">
        <ele>368</ele>
        <time>2012-08-22T14:21:11Z</time>
      </trkpt>
      <trkpt lat="46.84968" lon="4.72489">
        <ele>370</ele>
        <time>2012-08-22T14:21:12Z</time>
      </trkpt>
      <trkpt lat="46.84964" lon="4.72497">
        <ele>371</ele>
        <time>2012-08-22T14:21:13Z</time>
      </trkpt>
      <trkpt lat="46.8496" lon="4.72504">
        <ele>371</ele>
        <time>2012-08-22T14:21:14Z</time>
      </trkpt>
      <trkpt lat="46.84955" lon="4.72512">
        <ele>369</ele>
        <time>2012-08-22T14:21:15Z</time>
      </trkpt>
      <trkpt lat="46.84951" lon="4.72519">
        <ele>369</ele>
        <time>2012-08-22T14:21:16Z</time>
      </trkpt>
      <trkpt lat="46.84946" lon="4.72527">
        <ele>370</ele>
        <time>2012-08-22T14:21:17Z</time>
      </trkpt>
      <trkpt lat="46.84941" lon="4.72535">
        <ele>371</ele>
        <time>2012-08-22T14:21:18Z</time>
      </trkpt>
      <trkpt lat="46.84936" lon="4.72543">
        <ele>377</ele>
        <time>2012-08-22T14:21:19Z</time>
      </trkpt>
      <trkpt lat="46.84932" lon="4.7255">
        <ele>377</ele>
        <time>2012-08-22T14:21:20Z</time>
      </trkpt>
      <trkpt lat="46.84927" lon="4.72557">
        <ele>379</ele>
        <time>2012-08-22T14:21:21Z</time>
      </trkpt>
      <trkpt lat="46.84922" lon="4.72564">
        <ele>379</ele>
        <time>2012-08-22T14:21:22Z</time>
      </trkpt>
      <trkpt lat="46.84917" lon="4.72571">
        <ele>381</ele>
        <time>2012-08-22T14:21:23Z</time>
      </trkpt>
      <trkpt lat="46.84912" lon="4.72577">
        <ele>381</ele>
        <time>2012-08-22T14:21:24Z</time>
      </trkpt>
      <trkpt lat="46.84908" lon="4.72583">
        <ele>382</ele>
        <time>2012-08-22T14:21:25Z</time>
      </trkpt>
      <trkpt lat="46.84903" lon="4.72589">
        <ele>381</ele>
        <time>2012-08-22T14:21:26Z</time>
      </trkpt>
      <trkpt lat="46.84899" lon="4.72596">
        <ele>375</ele>
        <time>2012-08-22T14:21:27Z</time>
      </trkpt>
      <trkpt lat="46.84895" lon="4.72602">
        <ele>375</ele>
        <time>2012-08-22T14:21:28Z</time>
      </trkpt>
      <trkpt lat="46.84891" lon="4.72609">
        <ele>374</ele>
        <time>2012-08-22T14:21:29Z</time>
      </trkpt>
      <trkpt lat="46.84887" lon="4.72616">
        <ele>374</ele>
        <time>2012-08-22T14:21:30Z</time>
      </trkpt>
      <trkpt lat="46.84883" lon="4.72624">
        <ele>374</ele>
        <time>2012-08-22T14:21:31Z</time>
      </trkpt>
      <trkpt lat="46.84879" lon="4.72631">
        <ele>370</ele>
        <time>2012-08-22T14:21:32Z</time>
      </trkpt>
      <trkpt lat="46.84875" lon="4.72638">
        <ele>371</ele>
        <time>2012-08-22T14:21:33Z</time>
      </trkpt>
      <trkpt lat="46.84872" lon="4.72644">
        <ele>369</ele>
        <time>2012-08-22T14:21:34Z</time>
      </trkpt>
      <trkpt lat="46.84869" lon="4.7265">
        <ele>368</ele>
        <time>2012-08-22T14:21:35Z</time>
      </trkpt>
      <trkpt lat="46.84864" lon="4.7266">
        <ele>368</ele>
        <time>2012-08-22T14:21:37Z</time>
      </trkpt>
      <trkpt lat="46.84859" lon="4.72673">
        <ele>373</ele>
        <time>2012-08-22T14:21:39Z</time>
      </trkpt>
      <trkpt lat="46.84856" lon="4.72682">
        <ele>377</ele>
        <time>2012-08-22T14:21:40Z</time>
      </trkpt>
      <trkpt lat="46.84853" lon="4.72692">
        <ele>379</ele>
        <time>2012-08-22T14:21:41Z</time>
      </trkpt>
      <trkpt lat="46.84849" lon="4.72704">
        <ele>381</ele>
        <time>2012-08-22T14:21:42Z</time>
      </trkpt>
      <trkpt lat="46.84846" lon="4.72713">
        <ele>384</ele>
        <time>2012-08-22T14:21:43Z</time>
      </trkpt>
      <trkpt lat="46.84844" lon="4.72722">
        <ele>386</ele>
        <time>2012-08-22T14:21:44Z</time>
      </trkpt>
      <trkpt lat="46.84842" lon="4.72729">
        <ele>390</ele>
        <time>2012-08-22T14:21:45Z</time>
      </trkpt>
      <trkpt lat="46.84839" lon="4.72738">
        <ele>391</ele>
        <time>2012-08-22T14:21:47Z</time>
      </trkpt>
      <trkpt lat="46.84832" lon="4.72737">
        <ele>375</ele>
        <time>2012-08-22T14:21:51Z</time>
      </trkpt>
      <trkpt lat="46.84828" lon="4.72734">
        <ele>375</ele>
        <time>2012-08-22T14:21:52Z</time>
      </trkpt>
      <trkpt lat="46.8482" lon="4.72728">
        <ele>375</ele>
        <time>2012-08-22T14:21:53Z</time>
      </trkpt>
      <trkpt lat="46.84811" lon="4.72721">
        <ele>376</ele>
        <time>2012-08-22T14:21:54Z</time>
      </trkpt>
      <trkpt lat="46.84804" lon="4.72714">
        <ele>376</ele>
        <time>2012-08-22T14:21:55Z</time>
      </trkpt>
      <trkpt lat="46.84799" lon="4.7271">
        <ele>377</ele>
        <time>2012-08-22T14:21:56Z</time>
      </trkpt>
      <trkpt lat="46.84794" lon="4.72709">
        <ele>375</ele>
        <time>2012-08-22T14:21:58Z</time>
      </trkpt>
      <trkpt lat="46.8479" lon="4.72714">
        <ele>379</ele>
        <time>2012-08-22T14:22:00Z</time>
      </trkpt>
      <trkpt lat="46.84788" lon="4.7272">
        <ele>378</ele>
        <time>2012-08-22T14:22:01Z</time>
      </trkpt>
      <trkpt lat="46.84785" lon="4.7273">
        <ele>375</ele>
        <time>2012-08-22T14:22:02Z</time>
      </trkpt>
      <trkpt lat="46.84781" lon="4.72744">
        <ele>375</ele>
        <time>2012-08-22T14:22:03Z</time>
      </trkpt>
      <trkpt lat="46.84776" lon="4.7276">
        <ele>375</ele>
        <time>2012-08-22T14:22:04Z</time>
      </trkpt>
      <trkpt lat="46.84771" lon="4.72773">
        <ele>376</ele>
        <time>2012-08-22T14:22:05Z</time>
      </trkpt>
      <trkpt lat="46.84766" lon="4.72784">
        <ele>376</ele>
        <time>2012-08-22T14:22:06Z</time>
      </trkpt>
      <trkpt lat="46.8476" lon="4.7279">
        <ele>380</ele>
        <time>2012-08-22T14:22:07Z</time>
      </trkpt>
      <trkpt lat="46.84755" lon="4.72794">
        <ele>381</ele>
        <time>2012-08-22T14:22:08Z</time>
      </trkpt>
      <trkpt lat="46.8475" lon="4.72795">
        <ele>378</ele>
        <time>2012-08-22T14:22:09Z</time>
      </trkpt>
      <trkpt lat="46.84744" lon="4.72796">
        <ele>379</ele>
        <time>2012-08-22T14:22:10Z</time>
      </trkpt>
      <trkpt lat="46.84739" lon="4.72798">
        <ele>379</ele>
        <time>2012-08-22T14:22:11Z</time>
      </trkpt>
      <trkpt lat="46.8473" lon="4.72802">
        <ele>380</ele>
        <time>2012-08-22T14:22:13Z</time>
      </trkpt>
      <trkpt lat="46.84721" lon="4.72804">
        <ele>378</ele>
        <time>2012-08-22T14:22:15Z</time>
      </trkpt>
      <trkpt lat="46.84716" lon="4.72804">
        <ele>378</ele>
        <time>2012-08-22T14:22:16Z</time>
      </trkpt>
      <trkpt lat="46.84711" lon="4.72803">
        <ele>377</ele>
        <time>2012-08-22T14:22:17Z</time>
      </trkpt>
      <trkpt lat="46.84706" lon="4.72803">
        <ele>376</ele>
        <time>2012-08-22T14:22:18Z</time>
      </trkpt>
      <trkpt lat="46.84696" lon="4.72804">
        <ele>377</ele>
        <time>2012-08-22T14:22:20Z</time>
      </trkpt>
      <trkpt lat="46.8469" lon="4.72804">
        <ele>375</ele>
        <time>2012-08-22T14:22:21Z</time>
      </trkpt>
      <trkpt lat="46.84686" lon="4.72805">
        <ele>375</ele>
        <time>2012-08-22T14:22:22Z</time>
      </trkpt>
      <trkpt lat="46.84681" lon="4.72805">
        <ele>372</ele>
        <time>2012-08-22T14:22:23Z</time>
      </trkpt>
      <trkpt lat="46.84675" lon="4.72805">
        <ele>369</ele>
        <time>2012-08-22T14:22:24Z</time>
      </trkpt>
      <trkpt lat="46.84669" lon="4.72806">
        <ele>371</ele>
        <time>2012-08-22T14:22:25Z</time>
      </trkpt>
      <trkpt lat="46.84663" lon="4.72807">
        <ele>372</ele>
        <time>2012-08-22T14:22:26Z</time>
      </trkpt>
      <trkpt lat="46.84657" lon="4.72807">
        <ele>373</ele>
        <time>2012-08-22T14:22:27Z</time>
      </trkpt>
      <trkpt lat="46.8465" lon="4.72808">
        <ele>374</ele>
        <time>2012-08-22T14:22:28Z</time>
      </trkpt>
      <trkpt lat="46.84643" lon="4.72808">
        <ele>375</ele>
        <time>2012-08-22T14:22:29Z</time>
      </trkpt>
      <trkpt lat="46.84637" lon="4.72808">
        <ele>376</ele>
        <time>2012-08-22T14:22:30Z</time>
      </trkpt>
      <trkpt lat="46.8463" lon="4.7281">
        <ele>373</ele>
        <time>2012-08-22T14:22:31Z</time>
      </trkpt>
      <trkpt lat="46.84624" lon="4.72813">
        <ele>371</ele>
        <time>2012-08-22T14:22:32Z</time>
      </trkpt>
      <trkpt lat="46.84618" lon="4.72816">
        <ele>369</ele>
        <time>2012-08-22T14:22:33Z</time>
      </trkpt>
      <trkpt lat="46.84612" lon="4.72819">
        <ele>368</ele>
        <time>2012-08-22T14:22:34Z</time>
      </trkpt>
      <trkpt lat="46.84606" lon="4.72823">
        <ele>370</ele>
        <time>2012-08-22T14:22:35Z</time>
      </trkpt>
      <trkpt lat="46.846" lon="4.72827">
        <ele>371</ele>
        <time>2012-08-22T14:22:36Z</time>
      </trkpt>
      <trkpt lat="46.84593" lon="4.72832">
        <ele>369</ele>
        <time>2012-08-22T14:22:37Z</time>
      </trkpt>
      <trkpt lat="46.84586" lon="4.72836">
        <ele>368</ele>
        <time>2012-08-22T14:22:38Z</time>
      </trkpt>
      <trkpt lat="46.84578" lon="4.7284">
        <ele>369</ele>
        <time>2012-08-22T14:22:39Z</time>
      </trkpt>
      <trkpt lat="46.84571" lon="4.72844">
        <ele>368</ele>
        <time>2012-08-22T14:22:40Z</time>
      </trkpt>
      <trkpt lat="46.84564" lon="4.72847">
        <ele>369</ele>
        <time>2012-08-22T14:22:41Z</time>
      </trkpt>
      <trkpt lat="46.84557" lon="4.72851">
        <ele>368</ele>
        <time>2012-08-22T14:22:42Z</time>
      </trkpt>
      <trkpt lat="46.84551" lon="4.72853">
        <ele>369</ele>
        <time>2012-08-22T14:22:43Z</time>
      </trkpt>
      <trkpt lat="46.84546" lon="4.72856">
        <ele>370</ele>
        <time>2012-08-22T14:22:44Z</time>
      </trkpt>
      <trkpt lat="46.8454" lon="4.72859">
        <ele>369</ele>
        <time>2012-08-22T14:22:45Z</time>
      </trkpt>
      <trkpt lat="46.84534" lon="4.72862">
        <ele>368</ele>
        <time>2012-08-22T14:22:46Z</time>
      </trkpt>
      <trkpt lat="46.84528" lon="4.72864">
        <ele>368</ele>
        <time>2012-08-22T14:22:47Z</time>
      </trkpt>
      <trkpt lat="46.84521" lon="4.72866">
        <ele>367</ele>
        <time>2012-08-22T14:22:48Z</time>
      </trkpt>
      <trkpt lat="46.84514" lon="4.72869">
        <ele>371</ele>
        <time>2012-08-22T14:22:49Z</time>
      </trkpt>
      <trkpt lat="46.84507" lon="4.72871">
        <ele>372</ele>
        <time>2012-08-22T14:22:50Z</time>
      </trkpt>
      <trkpt lat="46.845" lon="4.72874">
        <ele>370</ele>
        <time>2012-08-22T14:22:51Z</time>
      </trkpt>
      <trkpt lat="46.84495" lon="4.72881">
        <ele>370</ele>
        <time>2012-08-22T14:22:52Z</time>
      </trkpt>
      <trkpt lat="46.8449" lon="4.72888">
        <ele>370</ele>
        <time>2012-08-22T14:22:53Z</time>
      </trkpt>
      <trkpt lat="46.84485" lon="4.72896">
        <ele>368</ele>
        <time>2012-08-22T14:22:54Z</time>
      </trkpt>
      <trkpt lat="46.8448" lon="4.72904">
        <ele>372</ele>
        <time>2012-08-22T14:22:55Z</time>
      </trkpt>
      <trkpt lat="46.84475" lon="4.72912">
        <ele>370</ele>
        <time>2012-08-22T14:22:56Z</time>
      </trkpt>
      <trkpt lat="46.8447" lon="4.72919">
        <ele>371</ele>
        <time>2012-08-22T14:22:57Z</time>
      </trkpt>
      <trkpt lat="46.84466" lon="4.72926">
        <ele>371</ele>
        <time>2012-08-22T14:22:58Z</time>
      </trkpt>
      <trkpt lat="46.84462" lon="4.72933">
        <ele>370</ele>
        <time>2012-08-22T14:22:59Z</time>
      </trkpt>
      <trkpt lat="46.84457" lon="4.7294">
        <ele>367</ele>
        <time>2012-08-22T14:23:00Z</time>
      </trkpt>
      <trkpt lat="46.84452" lon="4.72949">
        <ele>365</ele>
        <time>2012-08-22T14:23:01Z</time>
      </trkpt>
      <trkpt lat="46.84446" lon="4.72957">
        <ele>364</ele>
        <time>2012-08-22T14:23:02Z</time>
      </trkpt>
      <trkpt lat="46.84441" lon="4.72965">
        <ele>364</ele>
        <time>2012-08-22T14:23:03Z</time>
      </trkpt>
      <trkpt lat="46.84436" lon="4.72974">
        <ele>361</ele>
        <time>2012-08-22T14:23:04Z</time>
      </trkpt>
      <trkpt lat="46.84429" lon="4.72982">
        <ele>357</ele>
        <time>2012-08-22T14:23:05Z</time>
      </trkpt>
      <trkpt lat="46.84424" lon="4.72989">
        <ele>356</ele>
        <time>2012-08-22T14:23:06Z</time>
      </trkpt>
      <trkpt lat="46.84419" lon="4.72996">
        <ele>355</ele>
        <time>2012-08-22T14:23:07Z</time>
      </trkpt>
      <trkpt lat="46.84414" lon="4.73004">
        <ele>354</ele>
        <time>2012-08-22T14:23:08Z</time>
      </trkpt>
      <trkpt lat="46.84409" lon="4.73011">
        <ele>354</ele>
        <time>2012-08-22T14:23:09Z</time>
      </trkpt>
      <trkpt lat="46.84404" lon="4.73019">
        <ele>353</ele>
        <time>2012-08-22T14:23:10Z</time>
      </trkpt>
      <trkpt lat="46.844" lon="4.73027">
        <ele>354</ele>
        <time>2012-08-22T14:23:11Z</time>
      </trkpt>
      <trkpt lat="46.84396" lon="4.73034">
        <ele>355</ele>
        <time>2012-08-22T14:23:12Z</time>
      </trkpt>
      <trkpt lat="46.84392" lon="4.73043">
        <ele>355</ele>
        <time>2012-08-22T14:23:13Z</time>
      </trkpt>
      <trkpt lat="46.84388" lon="4.7305">
        <ele>358</ele>
        <time>2012-08-22T14:23:14Z</time>
      </trkpt>
      <trkpt lat="46.84384" lon="4.73059">
        <ele>357</ele>
        <time>2012-08-22T14:23:15Z</time>
      </trkpt>
      <trkpt lat="46.8438" lon="4.73066">
        <ele>356</ele>
        <time>2012-08-22T14:23:16Z</time>
      </trkpt>
      <trkpt lat="46.84376" lon="4.73073">
        <ele>354</ele>
        <time>2012-08-22T14:23:17Z</time>
      </trkpt>
      <trkpt lat="46.84371" lon="4.73082">
        <ele>352</ele>
        <time>2012-08-22T14:23:18Z</time>
      </trkpt>
      <trkpt lat="46.84367" lon="4.73088">
        <ele>352</ele>
        <time>2012-08-22T14:23:19Z</time>
      </trkpt>
      <trkpt lat="46.84363" lon="4.73095">
        <ele>353</ele>
        <time>2012-08-22T14:23:20Z</time>
      </trkpt>
      <trkpt lat="46.84359" lon="4.73102">
        <ele>357</ele>
        <time>2012-08-22T14:23:21Z</time>
      </trkpt>
      <trkpt lat="46.84354" lon="4.73111">
        <ele>356</ele>
        <time>2012-08-22T14:23:22Z</time>
      </trkpt>
      <trkpt lat="46.8435" lon="4.73118">
        <ele>356</ele>
        <time>2012-08-22T14:23:23Z</time>
      </trkpt>
      <trkpt lat="46.84347" lon="4.73125">
        <ele>355</ele>
        <time>2012-08-22T14:23:24Z</time>
      </trkpt>
      <trkpt lat="46.84343" lon="4.73132">
        <ele>354</ele>
        <time>2012-08-22T14:23:25Z</time>
      </trkpt>
      <trkpt lat="46.84339" lon="4.73138">
        <ele>351</ele>
        <time>2012-08-22T14:23:26Z</time>
      </trkpt>
      <trkpt lat="46.84335" lon="4.73144">
        <ele>350</ele>
        <time>2012-08-22T14:23:27Z</time>
      </trkpt>
      <trkpt lat="46.8433" lon="4.73151">
        <ele>351</ele>
        <time>2012-08-22T14:23:28Z</time>
      </trkpt>
      <trkpt lat="46.84326" lon="4.73158">
        <ele>349</ele>
        <time>2012-08-22T14:23:29Z</time>
      </trkpt>
      <trkpt lat="46.8432" lon="4.73167">
        <ele>348</ele>
        <time>2012-08-22T14:23:30Z</time>
      </trkpt>
      <trkpt lat="46.84315" lon="4.73175">
        <ele>350</ele>
        <time>2012-08-22T14:23:31Z</time>
      </trkpt>
      <trkpt lat="46.84311" lon="4.73182">
        <ele>350</ele>
        <time>2012-08-22T14:23:32Z</time>
      </trkpt>
      <trkpt lat="46.84306" lon="4.7319">
        <ele>348</ele>
        <time>2012-08-22T14:23:33Z</time>
      </trkpt>
      <trkpt lat="46.84301" lon="4.73198">
        <ele>347</ele>
        <time>2012-08-22T14:23:34Z</time>
      </trkpt>
      <trkpt lat="46.84297" lon="4.73206">
        <ele>347</ele>
        <time>2012-08-22T14:23:35Z</time>
      </trkpt>
      <trkpt lat="46.84291" lon="4.73214">
        <ele>350</ele>
        <time>2012-08-22T14:23:36Z</time>
      </trkpt>
      <trkpt lat="46.84288" lon="4.73221">
        <ele>348</ele>
        <time>2012-08-22T14:23:37Z</time>
      </trkpt>
      <trkpt lat="46.84283" lon="4.73229">
        <ele>347</ele>
        <time>2012-08-22T14:23:38Z</time>
      </trkpt>
      <trkpt lat="46.84279" lon="4.73237">
        <ele>346</ele>
        <time>2012-08-22T14:23:39Z</time>
      </trkpt>
      <trkpt lat="46.84275" lon="4.73244">
        <ele>348</ele>
        <time>2012-08-22T14:23:40Z</time>
      </trkpt>
      <trkpt lat="46.84273" lon="4.73253">
        <ele>343</ele>
        <time>2012-08-22T14:23:41Z</time>
      </trkpt>
      <trkpt lat="46.84269" lon="4.73264">
        <ele>345</ele>
        <time>2012-08-22T14:23:42Z</time>
      </trkpt>
      <trkpt lat="46.84268" lon="4.73276">
        <ele>347</ele>
        <time>2012-08-22T14:23:43Z</time>
      </trkpt>
      <trkpt lat="46.84272" lon="4.73285">
        <ele>344</ele>
        <time>2012-08-22T14:23:44Z</time>
      </trkpt>
      <trkpt lat="46.84275" lon="4.73293">
        <ele>344</ele>
        <time>2012-08-22T14:23:45Z</time>
      </trkpt>
      <trkpt lat="46.84279" lon="4.73299">
        <ele>344</ele>
        <time>2012-08-22T14:23:46Z</time>
      </trkpt>
      <trkpt lat="46.84284" lon="4.73305">
        <ele>346</ele>
        <time>2012-08-22T14:23:47Z</time>
      </trkpt>
      <trkpt lat="46.84289" lon="4.73313">
        <ele>346</ele>
        <time>2012-08-22T14:23:48Z</time>
      </trkpt>
      <trkpt lat="46.84294" lon="4.73321">
        <ele>346</ele>
        <time>2012-08-22T14:23:49Z</time>
      </trkpt>
      <trkpt lat="46.84297" lon="4.7333">
        <ele>348</ele>
        <time>2012-08-22T14:23:50Z</time>
      </trkpt>
      <trkpt lat="46.843" lon="4.73339">
        <ele>347</ele>
        <time>2012-08-22T14:23:51Z</time>
      </trkpt>
      <trkpt lat="46.84304" lon="4.73347">
        <ele>348</ele>
        <time>2012-08-22T14:23:52Z</time>
      </trkpt>
      <trkpt lat="46.84308" lon="4.73353">
        <ele>349</ele>
        <time>2012-08-22T14:23:53Z</time>
      </trkpt>
      <trkpt lat="46.84312" lon="4.73359">
        <ele>349</ele>
        <time>2012-08-22T14:23:54Z</time>
      </trkpt>
      <trkpt lat="46.84317" lon="4.73364">
        <ele>348</ele>
        <time>2012-08-22T14:23:55Z</time>
      </trkpt>
      <trkpt lat="46.84321" lon="4.7337">
        <ele>347</ele>
        <time>2012-08-22T14:23:56Z</time>
      </trkpt>
      <trkpt lat="46.84326" lon="4.73376">
        <ele>347</ele>
        <time>2012-08-22T14:23:57Z</time>
      </trkpt>
      <trkpt lat="46.84329" lon="4.73384">
        <ele>345</ele>
        <time>2012-08-22T14:23:59Z</time>
      </trkpt>
      <trkpt lat="46.84327" lon="4.73395">
        <ele>348</ele>
        <time>2012-08-22T14:24:01Z</time>
      </trkpt>
      <trkpt lat="46.84326" lon="4.73402">
        <ele>348</ele>
        <time>2012-08-22T14:24:02Z</time>
      </trkpt>
      <trkpt lat="46.84321" lon="4.73409">
        <ele>344</ele>
        <time>2012-08-22T14:24:03Z</time>
      </trkpt>
      <trkpt lat="46.84317" lon="4.73416">
        <ele>341</ele>
        <time>2012-08-22T14:24:04Z</time>
      </trkpt>
      <trkpt lat="46.84312" lon="4.73424">
        <ele>339</ele>
        <time>2012-08-22T14:24:05Z</time>
      </trkpt>
      <trkpt lat="46.84307" lon="4.7343">
        <ele>337</ele>
        <time>2012-08-22T14:24:06Z</time>
      </trkpt>
      <trkpt lat="46.84302" lon="4.73438">
        <ele>337</ele>
        <time>2012-08-22T14:24:07Z</time>
      </trkpt>
      <trkpt lat="46.84298" lon="4.73449">
        <ele>338</ele>
        <time>2012-08-22T14:24:08Z</time>
      </trkpt>
      <trkpt lat="46.84295" lon="4.73458">
        <ele>337</ele>
        <time>2012-08-22T14:24:09Z</time>
      </trkpt>
      <trkpt lat="46.8429" lon="4.73468">
        <ele>338</ele>
        <time>2012-08-22T14:24:10Z</time>
      </trkpt>
      <trkpt lat="46.84287" lon="4.73478">
        <ele>336</ele>
        <time>2012-08-22T14:24:11Z</time>
      </trkpt>
      <trkpt lat="46.84282" lon="4.73488">
        <ele>332</ele>
        <time>2012-08-22T14:24:12Z</time>
      </trkpt>
      <trkpt lat="46.84279" lon="4.73497">
        <ele>332</ele>
        <time>2012-08-22T14:24:13Z</time>
      </trkpt>
      <trkpt lat="46.84275" lon="4.73507">
        <ele>332</ele>
        <time>2012-08-22T14:24:14Z</time>
      </trkpt>
      <trkpt lat="46.84271" lon="4.73515">
        <ele>328</ele>
        <time>2012-08-22T14:24:15Z</time>
      </trkpt>
      <trkpt lat="46.84267" lon="4.73522">
        <ele>329</ele>
        <time>2012-08-22T14:24:16Z</time>
      </trkpt>
      <trkpt lat="46.84263" lon="4.73528">
        <ele>330</ele>
        <time>2012-08-22T14:24:17Z</time>
      </trkpt>
      <trkpt lat="46.84258" lon="4.73536">
        <ele>325</ele>
        <time>2012-08-22T14:24:18Z</time>
      </trkpt>
      <trkpt lat="46.84254" lon="4.73543">
        <ele>326</ele>
        <time>2012-08-22T14:24:19Z</time>
      </trkpt>
      <trkpt lat="46.8425" lon="4.7355">
        <ele>326</ele>
        <time>2012-08-22T14:24:20Z</time>
      </trkpt>
      <trkpt lat="46.84245" lon="4.73556">
        <ele>327</ele>
        <time>2012-08-22T14:24:21Z</time>
      </trkpt>
      <trkpt lat="46.84241" lon="4.73566">
        <ele>325</ele>
        <time>2012-08-22T14:24:22Z</time>
      </trkpt>
      <trkpt lat="46.84236" lon="4.73577">
        <ele>326</ele>
        <time>2012-08-22T14:24:23Z</time>
      </trkpt>
      <trkpt lat="46.84233" lon="4.73587">
        <ele>325</ele>
        <time>2012-08-22T14:24:24Z</time>
      </trkpt>
      <trkpt lat="46.84229" lon="4.73596">
        <ele>323</ele>
        <time>2012-08-22T14:24:25Z</time>
      </trkpt>
      <trkpt lat="46.84224" lon="4.73604">
        <ele>326</ele>
        <time>2012-08-22T14:24:27Z</time>
      </trkpt>
      <trkpt lat="46.84219" lon="4.73607">
        <ele>327</ele>
        <time>2012-08-22T14:24:28Z</time>
      </trkpt>
      <trkpt lat="46.84213" lon="4.7361">
        <ele>324</ele>
        <time>2012-08-22T14:24:29Z</time>
      </trkpt>
      <trkpt lat="46.84205" lon="4.73613">
        <ele>323</ele>
        <time>2012-08-22T14:24:30Z</time>
      </trkpt>
      <trkpt lat="46.84195" lon="4.73616">
        <ele>322</ele>
        <time>2012-08-22T14:24:31Z</time>
      </trkpt>
      <trkpt lat="46.84183" lon="4.73618">
        <ele>321</ele>
        <time>2012-08-22T14:24:32Z</time>
      </trkpt>
      <trkpt lat="46.84171" lon="4.73619">
        <ele>320</ele>
        <time>2012-08-22T14:24:33Z</time>
      </trkpt>
      <trkpt lat="46.84159" lon="4.7362">
        <ele>318</ele>
        <time>2012-08-22T14:24:34Z</time>
      </trkpt>
      <trkpt lat="46.8415" lon="4.7362">
        <ele>316</ele>
        <time>2012-08-22T14:24:35Z</time>
      </trkpt>
      <trkpt lat="46.84143" lon="4.73622">
        <ele>314</ele>
        <time>2012-08-22T14:24:36Z</time>
      </trkpt>
      <trkpt lat="46.84137" lon="4.73626">
        <ele>315</ele>
        <time>2012-08-22T14:24:37Z</time>
      </trkpt>
      <trkpt lat="46.84132" lon="4.73631">
        <ele>315</ele>
        <time>2012-08-22T14:24:38Z</time>
      </trkpt>
      <trkpt lat="46.84127" lon="4.73637">
        <ele>313</ele>
        <time>2012-08-22T14:24:39Z</time>
      </trkpt>
      <trkpt lat="46.84122" lon="4.73643">
        <ele>312</ele>
        <time>2012-08-22T14:24:40Z</time>
      </trkpt>
      <trkpt lat="46.84118" lon="4.73649">
        <ele>311</ele>
        <time>2012-08-22T14:24:41Z</time>
      </trkpt>
      <trkpt lat="46.84113" lon="4.73656">
        <ele>310</ele>
        <time>2012-08-22T14:24:42Z</time>
      </trkpt>
      <trkpt lat="46.84109" lon="4.73664">
        <ele>312</ele>
        <time>2012-08-22T14:24:43Z</time>
      </trkpt>
      <trkpt lat="46.84105" lon="4.73673">
        <ele>311</ele>
        <time>2012-08-22T14:24:44Z</time>
      </trkpt>
      <trkpt lat="46.84101" lon="4.73682">
        <ele>313</ele>
        <time>2012-08-22T14:24:45Z</time>
      </trkpt>
      <trkpt lat="46.84096" lon="4.7369">
        <ele>316</ele>
        <time>2012-08-22T14:24:46Z</time>
      </trkpt>
      <trkpt lat="46.84093" lon="4.73697">
        <ele>315</ele>
        <time>2012-08-22T14:24:47Z</time>
      </trkpt>
      <trkpt lat="46.84092" lon="4.73706">
        <ele>318</ele>
        <time>2012-08-22T14:24:48Z</time>
      </trkpt>
      <trkpt lat="46.84092" lon="4.73716">
        <ele>318</ele>
        <time>2012-08-22T14:24:49Z</time>
      </trkpt>
      <trkpt lat="46.84092" lon="4.73729">
        <ele>316</ele>
        <time>2012-08-22T14:24:50Z</time>
      </trkpt>
      <trkpt lat="46.84095" lon="4.73742">
        <ele>315</ele>
        <time>2012-08-22T14:24:51Z</time>
      </trkpt>
      <trkpt lat="46.84099" lon="4.73758">
        <ele>317</ele>
        <time>2012-08-22T14:24:52Z</time>
      </trkpt>
      <trkpt lat="46.84107" lon="4.7377">
        <ele>315</ele>
        <time>2012-08-22T14:24:53Z</time>
      </trkpt>
      <trkpt lat="46.84115" lon="4.73782">
        <ele>316</ele>
        <time>2012-08-22T14:24:54Z</time>
      </trkpt>
      <trkpt lat="46.84124" lon="4.73794">
        <ele>313</ele>
        <time>2012-08-22T14:24:55Z</time>
      </trkpt>
      <trkpt lat="46.84134" lon="4.73805">
        <ele>310</ele>
        <time>2012-08-22T14:24:56Z</time>
      </trkpt>
      <trkpt lat="46.84142" lon="4.73814">
        <ele>307</ele>
        <time>2012-08-22T14:24:57Z</time>
      </trkpt>
      <trkpt lat="46.8415" lon="4.73821">
        <ele>305</ele>
        <time>2012-08-22T14:24:58Z</time>
      </trkpt>
      <trkpt lat="46.84155" lon="4.73827">
        <ele>303</ele>
        <time>2012-08-22T14:24:59Z</time>
      </trkpt>
      <trkpt lat="46.84157" lon="4.73833">
        <ele>304</ele>
        <time>2012-08-22T14:25:00Z</time>
      </trkpt>
      <trkpt lat="46.84156" lon="4.73841">
        <ele>304</ele>
        <time>2012-08-22T14:25:01Z</time>
      </trkpt>
      <trkpt lat="46.84154" lon="4.7385">
        <ele>306</ele>
        <time>2012-08-22T14:25:02Z</time>
      </trkpt>
      <trkpt lat="46.8415" lon="4.73862">
        <ele>308</ele>
        <time>2012-08-22T14:25:03Z</time>
      </trkpt>
      <trkpt lat="46.84145" lon="4.73875">
        <ele>310</ele>
        <time>2012-08-22T14:25:04Z</time>
      </trkpt>
      <trkpt lat="46.84139" lon="4.7389">
        <ele>310</ele>
        <time>2012-08-22T14:25:05Z</time>
      </trkpt>
      <trkpt lat="46.84134" lon="4.73907">
        <ele>309</ele>
        <time>2012-08-22T14:25:06Z</time>
      </trkpt>
      <trkpt lat="46.84128" lon="4.73925">
        <ele>310</ele>
        <time>2012-08-22T14:25:07Z</time>
      </trkpt>
      <trkpt lat="46.84122" lon="4.73943">
        <ele>310</ele>
        <time>2012-08-22T14:25:08Z</time>
      </trkpt>
      <trkpt lat="46.84117" lon="4.73961">
        <ele>311</ele>
        <time>2012-08-22T14:25:09Z</time>
      </trkpt>
      <trkpt lat="46.84113" lon="4.73973">
        <ele>310</ele>
        <time>2012-08-22T14:25:10Z</time>
      </trkpt>
      <trkpt lat="46.84109" lon="4.73984">
        <ele>309</ele>
        <time>2012-08-22T14:25:11Z</time>
      </trkpt>
      <trkpt lat="46.84104" lon="4.73996">
        <ele>306</ele>
        <time>2012-08-22T14:25:12Z</time>
      </trkpt>
      <trkpt lat="46.84098" lon="4.74005">
        <ele>304</ele>
        <time>2012-08-22T14:25:13Z</time>
      </trkpt>
      <trkpt lat="46.8409" lon="4.74016">
        <ele>304</ele>
        <time>2012-08-22T14:25:14Z</time>
      </trkpt>
      <trkpt lat="46.84082" lon="4.74027">
        <ele>302</ele>
        <time>2012-08-22T14:25:15Z</time>
      </trkpt>
      <trkpt lat="46.84072" lon="4.74039">
        <ele>303</ele>
        <time>2012-08-22T14:25:16Z</time>
      </trkpt>
      <trkpt lat="46.84062" lon="4.74051">
        <ele>303</ele>
        <time>2012-08-22T14:25:17Z</time>
      </trkpt>
      <trkpt lat="46.84052" lon="4.74062">
        <ele>302</ele>
        <time>2012-08-22T14:25:18Z</time>
      </trkpt>
      <trkpt lat="46.8404" lon="4.74073">
        <ele>304</ele>
        <time>2012-08-22T14:25:19Z</time>
      </trkpt>
      <trkpt lat="46.8403" lon="4.74082">
        <ele>305</ele>
        <time>2012-08-22T14:25:20Z</time>
      </trkpt>
      <trkpt lat="46.84021" lon="4.74092">
        <ele>303</ele>
        <time>2012-08-22T14:25:21Z</time>
      </trkpt>
      <trkpt lat="46.84011" lon="4.741">
        <ele>303</ele>
        <time>2012-08-22T14:25:22Z</time>
      </trkpt>
      <trkpt lat="46.84003" lon="4.74109">
        <ele>304</ele>
        <time>2012-08-22T14:25:23Z</time>
      </trkpt>
      <trkpt lat="46.83998" lon="4.7412">
        <ele>307</ele>
        <time>2012-08-22T14:25:24Z</time>
      </trkpt>
      <trkpt lat="46.83993" lon="4.74132">
        <ele>309</ele>
        <time>2012-08-22T14:25:25Z</time>
      </trkpt>
      <trkpt lat="46.83987" lon="4.74145">
        <ele>312</ele>
        <time>2012-08-22T14:25:26Z</time>
      </trkpt>
      <trkpt lat="46.83982" lon="4.74158">
        <ele>310</ele>
        <time>2012-08-22T14:25:27Z</time>
      </trkpt>
      <trkpt lat="46.83977" lon="4.74169">
        <ele>307</ele>
        <time>2012-08-22T14:25:28Z</time>
      </trkpt>
      <trkpt lat="46.8397" lon="4.74178">
        <ele>306</ele>
        <time>2012-08-22T14:25:29Z</time>
      </trkpt>
      <trkpt lat="46.83964" lon="4.74186">
        <ele>306</ele>
        <time>2012-08-22T14:25:30Z</time>
      </trkpt>
      <trkpt lat="46.83959" lon="4.74193">
        <ele>306</ele>
        <time>2012-08-22T14:25:31Z</time>
      </trkpt>
      <trkpt lat="46.83957" lon="4.742">
        <ele>307</ele>
        <time>2012-08-22T14:25:32Z</time>
      </trkpt>
      <trkpt lat="46.83958" lon="4.74207">
        <ele>306</ele>
        <time>2012-08-22T14:25:33Z</time>
      </trkpt>
      <trkpt lat="46.8396" lon="4.74214">
        <ele>305</ele>
        <time>2012-08-22T14:25:34Z</time>
      </trkpt>
      <trkpt lat="46.83962" lon="4.7422">
        <ele>303</ele>
        <time>2012-08-22T14:25:35Z</time>
      </trkpt>
      <trkpt lat="46.83964" lon="4.74227">
        <ele>304</ele>
        <time>2012-08-22T14:25:36Z</time>
      </trkpt>
      <trkpt lat="46.83966" lon="4.74233">
        <ele>305</ele>
        <time>2012-08-22T14:25:37Z</time>
      </trkpt>
      <trkpt lat="46.8397" lon="4.74237">
        <ele>303</ele>
        <time>2012-08-22T14:25:38Z</time>
      </trkpt>
      <trkpt lat="46.83976" lon="4.7424">
        <ele>302</ele>
        <time>2012-08-22T14:25:39Z</time>
      </trkpt>
      <trkpt lat="46.83982" lon="4.7424">
        <ele>302</ele>
        <time>2012-08-22T14:25:40Z</time>
      </trkpt>
      <trkpt lat="46.83989" lon="4.74241">
        <ele>303</ele>
        <time>2012-08-22T14:25:41Z</time>
      </trkpt>
      <trkpt lat="46.83996" lon="4.74246">
        <ele>305</ele>
        <time>2012-08-22T14:25:42Z</time>
      </trkpt>
      <trkpt lat="46.84002" lon="4.74253">
        <ele>303</ele>
        <time>2012-08-22T14:25:43Z</time>
      </trkpt>
      <trkpt lat="46.84007" lon="4.74261">
        <ele>301</ele>
        <time>2012-08-22T14:25:44Z</time>
      </trkpt>
      <trkpt lat="46.84011" lon="4.74269">
        <ele>299</ele>
        <time>2012-08-22T14:25:45Z</time>
      </trkpt>
      <trkpt lat="46.84016" lon="4.74277">
        <ele>298</ele>
        <time>2012-08-22T14:25:46Z</time>
      </trkpt>
      <trkpt lat="46.84018" lon="4.74285">
        <ele>297</ele>
        <time>2012-08-22T14:25:47Z</time>
      </trkpt>
      <trkpt lat="46.84019" lon="4.74295">
        <ele>297</ele>
        <time>2012-08-22T14:25:48Z</time>
      </trkpt>
      <trkpt lat="46.8402" lon="4.74306">
        <ele>296</ele>
        <time>2012-08-22T14:25:49Z</time>
      </trkpt>
      <trkpt lat="46.84018" lon="4.74316">
        <ele>297</ele>
        <time>2012-08-22T14:25:50Z</time>
      </trkpt>
      <trkpt lat="46.84016" lon="4.74326">
        <ele>296</ele>
        <time>2012-08-22T14:25:51Z</time>
      </trkpt>
      <trkpt lat="46.84014" lon="4.74338">
        <ele>297</ele>
        <time>2012-08-22T14:25:52Z</time>
      </trkpt>
      <trkpt lat="46.84011" lon="4.74349">
        <ele>297</ele>
        <time>2012-08-22T14:25:53Z</time>
      </trkpt>
      <trkpt lat="46.84008" lon="4.7436">
        <ele>297</ele>
        <time>2012-08-22T14:25:54Z</time>
      </trkpt>
      <trkpt lat="46.84002" lon="4.7437">
        <ele>295</ele>
        <time>2012-08-22T14:25:55Z</time>
      </trkpt>
      <trkpt lat="46.83996" lon="4.74379">
        <ele>295</ele>
        <time>2012-08-22T14:25:56Z</time>
      </trkpt>
      <trkpt lat="46.8399" lon="4.74388">
        <ele>297</ele>
        <time>2012-08-22T14:25:57Z</time>
      </trkpt>
      <trkpt lat="46.83983" lon="4.74398">
        <ele>296</ele>
        <time>2012-08-22T14:25:58Z</time>
      </trkpt>
      <trkpt lat="46.83977" lon="4.74407">
        <ele>298</ele>
        <time>2012-08-22T14:25:59Z</time>
      </trkpt>
      <trkpt lat="46.83971" lon="4.74414">
        <ele>297</ele>
        <time>2012-08-22T14:26:00Z</time>
      </trkpt>
      <trkpt lat="46.83965" lon="4.74421">
        <ele>295</ele>
        <time>2012-08-22T14:26:01Z</time>
      </trkpt>
      <trkpt lat="46.83961" lon="4.74426">
        <ele>295</ele>
        <time>2012-08-22T14:26:02Z</time>
      </trkpt>
      <trkpt lat="46.83958" lon="4.74432">
        <ele>298</ele>
        <time>2012-08-22T14:26:03Z</time>
      </trkpt>
      <trkpt lat="46.83958" lon="4.7444">
        <ele>301</ele>
        <time>2012-08-22T14:26:04Z</time>
      </trkpt>
      <trkpt lat="46.83959" lon="4.74447">
        <ele>300</ele>
        <time>2012-08-22T14:26:05Z</time>
      </trkpt>
      <trkpt lat="46.8396" lon="4.74456">
        <ele>302</ele>
        <time>2012-08-22T14:26:06Z</time>
      </trkpt>
      <trkpt lat="46.83963" lon="4.74463">
        <ele>298</ele>
        <time>2012-08-22T14:26:07Z</time>
      </trkpt>
      <trkpt lat="46.83966" lon="4.74471">
        <ele>295</ele>
        <time>2012-08-22T14:26:08Z</time>
      </trkpt>
      <trkpt lat="46.83971" lon="4.74478">
        <ele>294</ele>
        <time>2012-08-22T14:26:09Z</time>
      </trkpt>
      <trkpt lat="46.83978" lon="4.74484">
        <ele>291</ele>
        <time>2012-08-22T14:26:10Z</time>
      </trkpt>
      <trkpt lat="46.83985" lon="4.7449">
        <ele>287</ele>
        <time>2012-08-22T14:26:11Z</time>
      </trkpt>
      <trkpt lat="46.83993" lon="4.74498">
        <ele>286</ele>
        <time>2012-08-22T14:26:12Z</time>
      </trkpt>
      <trkpt lat="46.84002" lon="4.74505">
        <ele>283</ele>
        <time>2012-08-22T14:26:13Z</time>
      </trkpt>
      <trkpt lat="46.84012" lon="4.74513">
        <ele>283</ele>
        <time>2012-08-22T14:26:14Z</time>
      </trkpt>
      <trkpt lat="46.84023" lon="4.74521">
        <ele>280</ele>
        <time>2012-08-22T14:26:15Z</time>
      </trkpt>
      <trkpt lat="46.84034" lon="4.7453">
        <ele>279</ele>
        <time>2012-08-22T14:26:16Z</time>
      </trkpt>
      <trkpt lat="46.84045" lon="4.74538">
        <ele>278</ele>
        <time>2012-08-22T14:26:17Z</time>
      </trkpt>
      <trkpt lat="46.84056" lon="4.74548">
        <ele>274</ele>
        <time>2012-08-22T14:26:18Z</time>
      </trkpt>
      <trkpt lat="46.84067" lon="4.74557">
        <ele>272</ele>
        <time>2012-08-22T14:26:19Z</time>
      </trkpt>
      <trkpt lat="46.84077" lon="4.74566">
        <ele>273</ele>
        <time>2012-08-22T14:26:20Z</time>
      </trkpt>
      <trkpt lat="46.84087" lon="4.74576">
        <ele>271</ele>
        <time>2012-08-22T14:26:21Z</time>
      </trkpt>
      <trkpt lat="46.84098" lon="4.74585">
        <ele>270</ele>
        <time>2012-08-22T14:26:22Z</time>
      </trkpt>
      <trkpt lat="46.84108" lon="4.74594">
        <ele>271</ele>
        <time>2012-08-22T14:26:23Z</time>
      </trkpt>
      <trkpt lat="46.84119" lon="4.74604">
        <ele>269</ele>
        <time>2012-08-22T14:26:24Z</time>
      </trkpt>
      <trkpt lat="46.84129" lon="4.74612">
        <ele>268</ele>
        <time>2012-08-22T14:26:25Z</time>
      </trkpt>
      <trkpt lat="46.8414" lon="4.74621">
        <ele>267</ele>
        <time>2012-08-22T14:26:26Z</time>
      </trkpt>
      <trkpt lat="46.84151" lon="4.74629">
        <ele>266</ele>
        <time>2012-08-22T14:26:27Z</time>
      </trkpt>
      <trkpt lat="46.84162" lon="4.74638">
        <ele>266</ele>
        <time>2012-08-22T14:26:28Z</time>
      </trkpt>
      <trkpt lat="46.84173" lon="4.74647">
        <ele>266</ele>
        <time>2012-08-22T14:26:29Z</time>
      </trkpt>
      <trkpt lat="46.84184" lon="4.74656">
        <ele>266</ele>
        <time>2012-08-22T14:26:30Z</time>
      </trkpt>
      <trkpt lat="46.84194" lon="4.74666">
        <ele>266</ele>
        <time>2012-08-22T14:26:31Z</time>
      </trkpt>
      <trkpt lat="46.84206" lon="4.74676">
        <ele>265</ele>
        <time>2012-08-22T14:26:32Z</time>
      </trkpt>
      <trkpt lat="46.84217" lon="4.74686">
        <ele>264</ele>
        <time>2012-08-22T14:26:33Z</time>
      </trkpt>
      <trkpt lat="46.84227" lon="4.74695">
        <ele>263</ele>
        <time>2012-08-22T14:26:34Z</time>
      </trkpt>
      <trkpt lat="46.84237" lon="4.74704">
        <ele>264</ele>
        <time>2012-08-22T14:26:35Z</time>
      </trkpt>
      <trkpt lat="46.84246" lon="4.74714">
        <ele>264</ele>
        <time>2012-08-22T14:26:36Z</time>
      </trkpt>
      <trkpt lat="46.84255" lon="4.74724">
        <ele>264</ele>
        <time>2012-08-22T14:26:37Z</time>
      </trkpt>
      <trkpt lat="46.84264" lon="4.74736">
        <ele>266</ele>
        <time>2012-08-22T14:26:38Z</time>
      </trkpt>
      <trkpt lat="46.84272" lon="4.74749">
        <ele>267</ele>
        <time>2012-08-22T14:26:39Z</time>
      </trkpt>
      <trkpt lat="46.8428" lon="4.74762">
        <ele>266</ele>
        <time>2012-08-22T14:26:40Z</time>
      </trkpt>
      <trkpt lat="46.84287" lon="4.74774">
        <ele>267</ele>
        <time>2012-08-22T14:26:41Z</time>
      </trkpt>
      <trkpt lat="46.84294" lon="4.74786">
        <ele>268</ele>
        <time>2012-08-22T14:26:42Z</time>
      </trkpt>
      <trkpt lat="46.84299" lon="4.74797">
        <ele>269</ele>
        <time>2012-08-22T14:26:43Z</time>
      </trkpt>
      <trkpt lat="46.84305" lon="4.74809">
        <ele>268</ele>
        <time>2012-08-22T14:26:44Z</time>
      </trkpt>
      <trkpt lat="46.84306" lon="4.74823">
        <ele>269</ele>
        <time>2012-08-22T14:26:45Z</time>
      </trkpt>
      <trkpt lat="46.84305" lon="4.74839">
        <ele>268</ele>
        <time>2012-08-22T14:26:46Z</time>
      </trkpt>
      <trkpt lat="46.84303" lon="4.74852">
        <ele>268</ele>
        <time>2012-08-22T14:26:47Z</time>
      </trkpt>
      <trkpt lat="46.84302" lon="4.74866">
        <ele>272</ele>
        <time>2012-08-22T14:26:48Z</time>
      </trkpt>
      <trkpt lat="46.84304" lon="4.7488">
        <ele>274</ele>
        <time>2012-08-22T14:26:49Z</time>
      </trkpt>
      <trkpt lat="46.84307" lon="4.74891">
        <ele>276</ele>
        <time>2012-08-22T14:26:50Z</time>
      </trkpt>
      <trkpt lat="46.84311" lon="4.74903">
        <ele>276</ele>
        <time>2012-08-22T14:26:51Z</time>
      </trkpt>
      <trkpt lat="46.84318" lon="4.74913">
        <ele>275</ele>
        <time>2012-08-22T14:26:52Z</time>
      </trkpt>
      <trkpt lat="46.84327" lon="4.74925">
        <ele>272</ele>
        <time>2012-08-22T14:26:53Z</time>
      </trkpt>
      <trkpt lat="46.84335" lon="4.74937">
        <ele>271</ele>
        <time>2012-08-22T14:26:54Z</time>
      </trkpt>
      <trkpt lat="46.84344" lon="4.74948">
        <ele>269</ele>
        <time>2012-08-22T14:26:55Z</time>
      </trkpt>
      <trkpt lat="46.84353" lon="4.74959">
        <ele>268</ele>
        <time>2012-08-22T14:26:56Z</time>
      </trkpt>
      <trkpt lat="46.84361" lon="4.74969">
        <ele>267</ele>
        <time>2012-08-22T14:26:57Z</time>
      </trkpt>
      <trkpt lat="46.84369" lon="4.74979">
        <ele>267</ele>
        <time>2012-08-22T14:26:58Z</time>
      </trkpt>
      <trkpt lat="46.84377" lon="4.74989">
        <ele>266</ele>
        <time>2012-08-22T14:26:59Z</time>
      </trkpt>
      <trkpt lat="46.8438" lon="4.75">
        <ele>266</ele>
        <time>2012-08-22T14:27:00Z</time>
      </trkpt>
      <trkpt lat="46.84381" lon="4.75012">
        <ele>265</ele>
        <time>2012-08-22T14:27:01Z</time>
      </trkpt>
      <trkpt lat="46.84381" lon="4.75024">
        <ele>265</ele>
        <time>2012-08-22T14:27:02Z</time>
      </trkpt>
      <trkpt lat="46.8438" lon="4.75037">
        <ele>265</ele>
        <time>2012-08-22T14:27:03Z</time>
      </trkpt>
      <trkpt lat="46.84379" lon="4.75049">
        <ele>265</ele>
        <time>2012-08-22T14:27:04Z</time>
      </trkpt>
      <trkpt lat="46.84379" lon="4.7506">
        <ele>264</ele>
        <time>2012-08-22T14:27:05Z</time>
      </trkpt>
      <trkpt lat="46.84382" lon="4.75071">
        <ele>266</ele>
        <time>2012-08-22T14:27:06Z</time>
      </trkpt>
      <trkpt lat="46.84387" lon="4.7508">
        <ele>266</ele>
        <time>2012-08-22T14:27:07Z</time>
      </trkpt>
      <trkpt lat="46.84392" lon="4.75089">
        <ele>265</ele>
        <time>2012-08-22T14:27:08Z</time>
      </trkpt>
      <trkpt lat="46.84394" lon="4.75102">
        <ele>265</ele>
        <time>2012-08-22T14:27:09Z</time>
      </trkpt>
      <trkpt lat="46.84396" lon="4.75117">
        <ele>266</ele>
        <time>2012-08-22T14:27:10Z</time>
      </trkpt>
      <trkpt lat="46.84398" lon="4.75134">
        <ele>269</ele>
        <time>2012-08-22T14:27:11Z</time>
      </trkpt>
      <trkpt lat="46.84398" lon="4.75151">
        <ele>269</ele>
        <time>2012-08-22T14:27:12Z</time>
      </trkpt>
      <trkpt lat="46.84398" lon="4.75168">
        <ele>267</ele>
        <time>2012-08-22T14:27:13Z</time>
      </trkpt>
      <trkpt lat="46.84398" lon="4.75185">
        <ele>267</ele>
        <time>2012-08-22T14:27:14Z</time>
      </trkpt>
      <trkpt lat="46.84398" lon="4.752">
        <ele>267</ele>
        <time>2012-08-22T14:27:15Z</time>
      </trkpt>
      <trkpt lat="46.84396" lon="4.75212">
        <ele>269</ele>
        <time>2012-08-22T14:27:16Z</time>
      </trkpt>
      <trkpt lat="46.84395" lon="4.75221">
        <ele>269</ele>
        <time>2012-08-22T14:27:17Z</time>
      </trkpt>
      <trkpt lat="46.84394" lon="4.75229">
        <ele>268</ele>
        <time>2012-08-22T14:27:18Z</time>
      </trkpt>
      <trkpt lat="46.84393" lon="4.75235">
        <ele>266</ele>
        <time>2012-08-22T14:27:21Z</time>
      </trkpt>
      <trkpt lat="46.84391" lon="4.75246">
        <ele>266</ele>
        <time>2012-08-22T14:27:23Z</time>
      </trkpt>
      <trkpt lat="46.84389" lon="4.75256">
        <ele>266</ele>
        <time>2012-08-22T14:27:24Z</time>
      </trkpt>
      <trkpt lat="46.84387" lon="4.75268">
        <ele>267</ele>
        <time>2012-08-22T14:27:25Z</time>
      </trkpt>
      <trkpt lat="46.84386" lon="4.7528">
        <ele>267</ele>
        <time>2012-08-22T14:27:26Z</time>
      </trkpt>
      <trkpt lat="46.84384" lon="4.75293">
        <ele>264</ele>
        <time>2012-08-22T14:27:27Z</time>
      </trkpt>
      <trkpt lat="46.84384" lon="4.75306">
        <ele>265</ele>
        <time>2012-08-22T14:27:28Z</time>
      </trkpt>
      <trkpt lat="46.84384" lon="4.75318">
        <ele>263</ele>
        <time>2012-08-22T14:27:29Z</time>
      </trkpt>
      <trkpt lat="46.84385" lon="4.7533">
        <ele>261</ele>
        <time>2012-08-22T14:27:30Z</time>
      </trkpt>
      <trkpt lat="46.84389" lon="4.75341">
        <ele>261</ele>
        <time>2012-08-22T14:27:31Z</time>
      </trkpt>
      <trkpt lat="46.84393" lon="4.75349">
        <ele>260</ele>
        <time>2012-08-22T14:27:32Z</time>
      </trkpt>
      <trkpt lat="46.84397" lon="4.75356">
        <ele>257</ele>
        <time>2012-08-22T14:27:33Z</time>
      </trkpt>
      <trkpt lat="46.84402" lon="4.75364">
        <ele>259</ele>
        <time>2012-08-22T14:27:34Z</time>
      </trkpt>
      <trkpt lat="46.84408" lon="4.75372">
        <ele>254</ele>
        <time>2012-08-22T14:27:35Z</time>
      </trkpt>
      <trkpt lat="46.84414" lon="4.75382">
        <ele>253</ele>
        <time>2012-08-22T14:27:36Z</time>
      </trkpt>
      <trkpt lat="46.84418" lon="4.75393">
        <ele>259</ele>
        <time>2012-08-22T14:27:37Z</time>
      </trkpt>
      <trkpt lat="46.84421" lon="4.75406">
        <ele>259</ele>
        <time>2012-08-22T14:27:38Z</time>
      </trkpt>
      <trkpt lat="46.84425" lon="4.75419">
        <ele>261</ele>
        <time>2012-08-22T14:27:39Z</time>
      </trkpt>
      <trkpt lat="46.84428" lon="4.75433">
        <ele>260</ele>
        <time>2012-08-22T14:27:40Z</time>
      </trkpt>
      <trkpt lat="46.84431" lon="4.75446">
        <ele>262</ele>
        <time>2012-08-22T14:27:41Z</time>
      </trkpt>
      <trkpt lat="46.84437" lon="4.75456">
        <ele>263</ele>
        <time>2012-08-22T14:27:42Z</time>
      </trkpt>
      <trkpt lat="46.84443" lon="4.75466">
        <ele>263</ele>
        <time>2012-08-22T14:27:43Z</time>
      </trkpt>
      <trkpt lat="46.8445" lon="4.75476">
        <ele>262</ele>
        <time>2012-08-22T14:27:44Z</time>
      </trkpt>
      <trkpt lat="46.84456" lon="4.75486">
        <ele>259</ele>
        <time>2012-08-22T14:27:45Z</time>
      </trkpt>
      <trkpt lat="46.84462" lon="4.75499">
        <ele>258</ele>
        <time>2012-08-22T14:27:46Z</time>
      </trkpt>
      <trkpt lat="46.84469" lon="4.75513">
        <ele>258</ele>
        <time>2012-08-22T14:27:47Z</time>
      </trkpt>
      <trkpt lat="46.84472" lon="4.75528">
        <ele>257</ele>
        <time>2012-08-22T14:27:48Z</time>
      </trkpt>
      <trkpt lat="46.84474" lon="4.75541">
        <ele>256</ele>
        <time>2012-08-22T14:27:49Z</time>
      </trkpt>
      <trkpt lat="46.84473" lon="4.75555">
        <ele>256</ele>
        <time>2012-08-22T14:27:50Z</time>
      </trkpt>
      <trkpt lat="46.84472" lon="4.75571">
        <ele>256</ele>
        <time>2012-08-22T14:27:51Z</time>
      </trkpt>
      <trkpt lat="46.84469" lon="4.75587">
        <ele>256</ele>
        <time>2012-08-22T14:27:52Z</time>
      </trkpt>
      <trkpt lat="46.84465" lon="4.75602">
        <ele>256</ele>
        <time>2012-08-22T14:27:53Z</time>
      </trkpt>
      <trkpt lat="46.84462" lon="4.75614">
        <ele>255</ele>
        <time>2012-08-22T14:27:54Z</time>
      </trkpt>
      <trkpt lat="46.84459" lon="4.75623">
        <ele>256</ele>
        <time>2012-08-22T14:27:55Z</time>
      </trkpt>
      <trkpt lat="46.84457" lon="4.75632">
        <ele>259</ele>
        <time>2012-08-22T14:27:56Z</time>
      </trkpt>
      <trkpt lat="46.84458" lon="4.7564">
        <ele>258</ele>
        <time>2012-08-22T14:27:57Z</time>
      </trkpt>
      <trkpt lat="46.8446" lon="4.75645">
        <ele>255</ele>
        <time>2012-08-22T14:27:58Z</time>
      </trkpt>
      <trkpt lat="46.84466" lon="4.75647">
        <ele>254</ele>
        <time>2012-08-22T14:27:59Z</time>
      </trkpt>
      <trkpt lat="46.84475" lon="4.7565">
        <ele>253</ele>
        <time>2012-08-22T14:28:00Z</time>
      </trkpt>
      <trkpt lat="46.84487" lon="4.75654">
        <ele>253</ele>
        <time>2012-08-22T14:28:01Z</time>
      </trkpt>
      <trkpt lat="46.845" lon="4.75659">
        <ele>252</ele>
        <time>2012-08-22T14:28:02Z</time>
      </trkpt>
      <trkpt lat="46.84514" lon="4.75664">
        <ele>249</ele>
        <time>2012-08-22T14:28:03Z</time>
      </trkpt>
      <trkpt lat="46.84527" lon="4.75669">
        <ele>249</ele>
        <time>2012-08-22T14:28:04Z</time>
      </trkpt>
      <trkpt lat="46.8454" lon="4.75673">
        <ele>247</ele>
        <time>2012-08-22T14:28:05Z</time>
      </trkpt>
      <trkpt lat="46.84554" lon="4.7568">
        <ele>248</ele>
        <time>2012-08-22T14:28:06Z</time>
      </trkpt>
      <trkpt lat="46.84568" lon="4.75687">
        <ele>247</ele>
        <time>2012-08-22T14:28:07Z</time>
      </trkpt>
      <trkpt lat="46.84581" lon="4.75695">
        <ele>249</ele>
        <time>2012-08-22T14:28:08Z</time>
      </trkpt>
      <trkpt lat="46.84594" lon="4.75702">
        <ele>251</ele>
        <time>2012-08-22T14:28:09Z</time>
      </trkpt>
      <trkpt lat="46.84606" lon="4.7571">
        <ele>249</ele>
        <time>2012-08-22T14:28:10Z</time>
      </trkpt>
      <trkpt lat="46.84618" lon="4.75717">
        <ele>247</ele>
        <time>2012-08-22T14:28:11Z</time>
      </trkpt>
      <trkpt lat="46.84629" lon="4.75725">
        <ele>245</ele>
        <time>2012-08-22T14:28:12Z</time>
      </trkpt>
      <trkpt lat="46.84638" lon="4.75732">
        <ele>244</ele>
        <time>2012-08-22T14:28:13Z</time>
      </trkpt>
      <trkpt lat="46.84648" lon="4.7574">
        <ele>244</ele>
        <time>2012-08-22T14:28:14Z</time>
      </trkpt>
      <trkpt lat="46.84657" lon="4.75748">
        <ele>243</ele>
        <time>2012-08-22T14:28:15Z</time>
      </trkpt>
      <trkpt lat="46.84667" lon="4.75756">
        <ele>243</ele>
        <time>2012-08-22T14:28:16Z</time>
      </trkpt>
      <trkpt lat="46.84676" lon="4.75764">
        <ele>245</ele>
        <time>2012-08-22T14:28:17Z</time>
      </trkpt>
      <trkpt lat="46.84685" lon="4.75773">
        <ele>245</ele>
        <time>2012-08-22T14:28:18Z</time>
      </trkpt>
      <trkpt lat="46.84694" lon="4.7578">
        <ele>244</ele>
        <time>2012-08-22T14:28:19Z</time>
      </trkpt>
      <trkpt lat="46.84704" lon="4.75786">
        <ele>243</ele>
        <time>2012-08-22T14:28:20Z</time>
      </trkpt>
      <trkpt lat="46.84712" lon="4.75792">
        <ele>245</ele>
        <time>2012-08-22T14:28:21Z</time>
      </trkpt>
      <trkpt lat="46.84721" lon="4.75796">
        <ele>244</ele>
        <time>2012-08-22T14:28:22Z</time>
      </trkpt>
      <trkpt lat="46.84728" lon="4.75799">
        <ele>244</ele>
        <time>2012-08-22T14:28:23Z</time>
      </trkpt>
      <trkpt lat="46.84735" lon="4.75802">
        <ele>243</ele>
        <time>2012-08-22T14:28:24Z</time>
      </trkpt>
      <trkpt lat="46.8474" lon="4.75804">
        <ele>243</ele>
        <time>2012-08-22T14:28:25Z</time>
      </trkpt>
      <trkpt lat="46.84744" lon="4.75807">
        <ele>244</ele>
        <time>2012-08-22T14:28:26Z</time>
      </trkpt>
      <trkpt lat="46.84747" lon="4.75813">
        <ele>245</ele>
        <time>2012-08-22T14:28:27Z</time>
      </trkpt>
      <trkpt lat="46.84747" lon="4.75822">
        <ele>243</ele>
        <time>2012-08-22T14:28:28Z</time>
      </trkpt>
      <trkpt lat="46.84744" lon="4.75834">
        <ele>242</ele>
        <time>2012-08-22T14:28:29Z</time>
      </trkpt>
      <trkpt lat="46.84741" lon="4.75847">
        <ele>240</ele>
        <time>2012-08-22T14:28:30Z</time>
      </trkpt>
      <trkpt lat="46.84738" lon="4.7586">
        <ele>238</ele>
        <time>2012-08-22T14:28:31Z</time>
      </trkpt>
      <trkpt lat="46.84736" lon="4.75874">
        <ele>237</ele>
        <time>2012-08-22T14:28:32Z</time>
      </trkpt>
      <trkpt lat="46.84732" lon="4.75888">
        <ele>237</ele>
        <time>2012-08-22T14:28:33Z</time>
      </trkpt>
      <trkpt lat="46.84729" lon="4.75901">
        <ele>238</ele>
        <time>2012-08-22T14:28:34Z</time>
      </trkpt>
      <trkpt lat="46.84727" lon="4.75914">
        <ele>242</ele>
        <time>2012-08-22T14:28:35Z</time>
      </trkpt>
      <trkpt lat="46.84724" lon="4.75928">
        <ele>242</ele>
        <time>2012-08-22T14:28:36Z</time>
      </trkpt>
      <trkpt lat="46.84721" lon="4.75942">
        <ele>240</ele>
        <time>2012-08-22T14:28:37Z</time>
      </trkpt>
      <trkpt lat="46.84718" lon="4.75955">
        <ele>242</ele>
        <time>2012-08-22T14:28:38Z</time>
      </trkpt>
      <trkpt lat="46.84717" lon="4.75968">
        <ele>243</ele>
        <time>2012-08-22T14:28:39Z</time>
      </trkpt>
      <trkpt lat="46.84715" lon="4.75982">
        <ele>243</ele>
        <time>2012-08-22T14:28:40Z</time>
      </trkpt>
      <trkpt lat="46.84714" lon="4.75996">
        <ele>245</ele>
        <time>2012-08-22T14:28:41Z</time>
      </trkpt>
      <trkpt lat="46.84713" lon="4.76008">
        <ele>244</ele>
        <time>2012-08-22T14:28:42Z</time>
      </trkpt>
      <trkpt lat="46.84712" lon="4.76018">
        <ele>245</ele>
        <time>2012-08-22T14:28:43Z</time>
      </trkpt>
      <trkpt lat="46.84711" lon="4.76027">
        <ele>245</ele>
        <time>2012-08-22T14:28:44Z</time>
      </trkpt>
      <trkpt lat="46.8471" lon="4.76037">
        <ele>246</ele>
        <time>2012-08-22T14:28:45Z</time>
      </trkpt>
      <trkpt lat="46.84709" lon="4.76046">
        <ele>245</ele>
        <time>2012-08-22T14:28:46Z</time>
      </trkpt>
      <trkpt lat="46.84708" lon="4.76056">
        <ele>244</ele>
        <time>2012-08-22T14:28:47Z</time>
      </trkpt>
      <trkpt lat="46.84705" lon="4.76067">
        <ele>243</ele>
        <time>2012-08-22T14:28:48Z</time>
      </trkpt>
      <trkpt lat="46.84703" lon="4.7608">
        <ele>244</ele>
        <time>2012-08-22T14:28:49Z</time>
      </trkpt>
      <trkpt lat="46.847" lon="4.76093">
        <ele>242</ele>
        <time>2012-08-22T14:28:50Z</time>
      </trkpt>
      <trkpt lat="46.84697" lon="4.76106">
        <ele>243</ele>
        <time>2012-08-22T14:28:51Z</time>
      </trkpt>
      <trkpt lat="46.84694" lon="4.7612">
        <ele>245</ele>
        <time>2012-08-22T14:28:52Z</time>
      </trkpt>
      <trkpt lat="46.8469" lon="4.76134">
        <ele>247</ele>
        <time>2012-08-22T14:28:53Z</time>
      </trkpt>
      <trkpt lat="46.84686" lon="4.76148">
        <ele>253</ele>
        <time>2012-08-22T14:28:54Z</time>
      </trkpt>
      <trkpt lat="46.84681" lon="4.76162">
        <ele>255</ele>
        <time>2012-08-22T14:28:55Z</time>
      </trkpt>
      <trkpt lat="46.84676" lon="4.76175">
        <ele>259</ele>
        <time>2012-08-22T14:28:56Z</time>
      </trkpt>
      <trkpt lat="46.8467" lon="4.76188">
        <ele>263</ele>
        <time>2012-08-22T14:28:57Z</time>
      </trkpt>
      <trkpt lat="46.84665" lon="4.76202">
        <ele>264</ele>
        <time>2012-08-22T14:28:58Z</time>
      </trkpt>
      <trkpt lat="46.8466" lon="4.76215">
        <ele>263</ele>
        <time>2012-08-22T14:28:59Z</time>
      </trkpt>
      <trkpt lat="46.84655" lon="4.76228">
        <ele>260</ele>
        <time>2012-08-22T14:29:00Z</time>
      </trkpt>
      <trkpt lat="46.8465" lon="4.76242">
        <ele>261</ele>
        <time>2012-08-22T14:29:01Z</time>
      </trkpt>
      <trkpt lat="46.84646" lon="4.76253">
        <ele>261</ele>
        <time>2012-08-22T14:29:02Z</time>
      </trkpt>
      <trkpt lat="46.84642" lon="4.76265">
        <ele>262</ele>
        <time>2012-08-22T14:29:03Z</time>
      </trkpt>
      <trkpt lat="46.8464" lon="4.76276">
        <ele>263</ele>
        <time>2012-08-22T14:29:04Z</time>
      </trkpt>
      <trkpt lat="46.84638" lon="4.7629">
        <ele>264</ele>
        <time>2012-08-22T14:29:05Z</time>
      </trkpt>
      <trkpt lat="46.84637" lon="4.76303">
        <ele>263</ele>
        <time>2012-08-22T14:29:06Z</time>
      </trkpt>
      <trkpt lat="46.84636" lon="4.76316">
        <ele>260</ele>
        <time>2012-08-22T14:29:07Z</time>
      </trkpt>
      <trkpt lat="46.84636" lon="4.76328">
        <ele>257</ele>
        <time>2012-08-22T14:29:08Z</time>
      </trkpt>
      <trkpt lat="46.84635" lon="4.76341">
        <ele>257</ele>
        <time>2012-08-22T14:29:09Z</time>
      </trkpt>
      <trkpt lat="46.84635" lon="4.76355">
        <ele>258</ele>
        <time>2012-08-22T14:29:10Z</time>
      </trkpt>
      <trkpt lat="46.84635" lon="4.76368">
        <ele>256</ele>
        <time>2012-08-22T14:29:11Z</time>
      </trkpt>
      <trkpt lat="46.84635" lon="4.76381">
        <ele>256</ele>
        <time>2012-08-22T14:29:12Z</time>
      </trkpt>
      <trkpt lat="46.84636" lon="4.76392">
        <ele>256</ele>
        <time>2012-08-22T14:29:13Z</time>
      </trkpt>
      <trkpt lat="46.84638" lon="4.76403">
        <ele>256</ele>
        <time>2012-08-22T14:29:14Z</time>
      </trkpt>
      <trkpt lat="46.84641" lon="4.76413">
        <ele>257</ele>
        <time>2012-08-22T14:29:15Z</time>
      </trkpt>
      <trkpt lat="46.84644" lon="4.76423">
        <ele>259</ele>
        <time>2012-08-22T14:29:16Z</time>
      </trkpt>
      <trkpt lat="46.84647" lon="4.76432">
        <ele>259</ele>
        <time>2012-08-22T14:29:17Z</time>
      </trkpt>
      <trkpt lat="46.8465" lon="4.76439">
        <ele>257</ele>
        <time>2012-08-22T14:29:18Z</time>
      </trkpt>
      <trkpt lat="46.84653" lon="4.76445">
        <ele>255</ele>
        <time>2012-08-22T14:29:19Z</time>
      </trkpt>
      <trkpt lat="46.84656" lon="4.76452">
        <ele>254</ele>
        <time>2012-08-22T14:29:20Z</time>
      </trkpt>
      <trkpt lat="46.84656" lon="4.76458">
        <ele>252</ele>
        <time>2012-08-22T14:29:21Z</time>
      </trkpt>
      <trkpt lat="46.84657" lon="4.76467">
        <ele>253</ele>
        <time>2012-08-22T14:29:22Z</time>
      </trkpt>
      <trkpt lat="46.84657" lon="4.76478">
        <ele>251</ele>
        <time>2012-08-22T14:29:23Z</time>
      </trkpt>
      <trkpt lat="46.84657" lon="4.76489">
        <ele>247</ele>
        <time>2012-08-22T14:29:24Z</time>
      </trkpt>
      <trkpt lat="46.84657" lon="4.76502">
        <ele>248</ele>
        <time>2012-08-22T14:29:25Z</time>
      </trkpt>
      <trkpt lat="46.84657" lon="4.76514">
        <ele>246</ele>
        <time>2012-08-22T14:29:26Z</time>
      </trkpt>
      <trkpt lat="46.84654" lon="4.76525">
        <ele>246</ele>
        <time>2012-08-22T14:29:27Z</time>
      </trkpt>
      <trkpt lat="46.84652" lon="4.76538">
        <ele>246</ele>
        <time>2012-08-22T14:29:28Z</time>
      </trkpt>
      <trkpt lat="46.8465" lon="4.76552">
        <ele>244</ele>
        <time>2012-08-22T14:29:29Z</time>
      </trkpt>
      <trkpt lat="46.84649" lon="4.76566">
        <ele>246</ele>
        <time>2012-08-22T14:29:30Z</time>
      </trkpt>
      <trkpt lat="46.84648" lon="4.76579">
        <ele>248</ele>
        <time>2012-08-22T14:29:31Z</time>
      </trkpt>
      <trkpt lat="46.84646" lon="4.76593">
        <ele>247</ele>
        <time>2012-08-22T14:29:32Z</time>
      </trkpt>
      <trkpt lat="46.84645" lon="4.76607">
        <ele>249</ele>
        <time>2012-08-22T14:29:33Z</time>
      </trkpt>
      <trkpt lat="46.84644" lon="4.7662">
        <ele>251</ele>
        <time>2012-08-22T14:29:34Z</time>
      </trkpt>
      <trkpt lat="46.84643" lon="4.76632">
        <ele>246</ele>
        <time>2012-08-22T14:29:35Z</time>
      </trkpt>
      <trkpt lat="46.84642" lon="4.76643">
        <ele>245</ele>
        <time>2012-08-22T14:29:36Z</time>
      </trkpt>
      <trkpt lat="46.84642" lon="4.76654">
        <ele>242</ele>
        <time>2012-08-22T14:29:37Z</time>
      </trkpt>
      <trkpt lat="46.84642" lon="4.76664">
        <ele>243</ele>
        <time>2012-08-22T14:29:38Z</time>
      </trkpt>
      <trkpt lat="46.84642" lon="4.76674">
        <ele>242</ele>
        <time>2012-08-22T14:29:39Z</time>
      </trkpt>
      <trkpt lat="46.84644" lon="4.76691">
        <ele>247</ele>
        <time>2012-08-22T14:29:40Z</time>
      </trkpt>
      <trkpt lat="46.84646" lon="4.76706">
        <ele>246</ele>
        <time>2012-08-22T14:29:41Z</time>
      </trkpt>
      <trkpt lat="46.84649" lon="4.76722">
        <ele>249</ele>
        <time>2012-08-22T14:29:42Z</time>
      </trkpt>
      <trkpt lat="46.84651" lon="4.76738">
        <ele>247</ele>
        <time>2012-08-22T14:29:43Z</time>
      </trkpt>
      <trkpt lat="46.84652" lon="4.76754">
        <ele>250</ele>
        <time>2012-08-22T14:29:44Z</time>
      </trkpt>
      <trkpt lat="46.84654" lon="4.76769">
        <ele>249</ele>
        <time>2012-08-22T14:29:45Z</time>
      </trkpt>
      <trkpt lat="46.84654" lon="4.76784">
        <ele>247</ele>
        <time>2012-08-22T14:29:46Z</time>
      </trkpt>
      <trkpt lat="46.84655" lon="4.76799">
        <ele>247</ele>
        <time>2012-08-22T14:29:47Z</time>
      </trkpt>
      <trkpt lat="46.84656" lon="4.76815">
        <ele>249</ele>
        <time>2012-08-22T14:29:48Z</time>
      </trkpt>
      <trkpt lat="46.84655" lon="4.7683">
        <ele>251</ele>
        <time>2012-08-22T14:29:49Z</time>
      </trkpt>
      <trkpt lat="46.84655" lon="4.76845">
        <ele>250</ele>
        <time>2012-08-22T14:29:50Z</time>
      </trkpt>
      <trkpt lat="46.84654" lon="4.7686">
        <ele>250</ele>
        <time>2012-08-22T14:29:51Z</time>
      </trkpt>
      <trkpt lat="46.84652" lon="4.76875">
        <ele>251</ele>
        <time>2012-08-22T14:29:52Z</time>
      </trkpt>
      <trkpt lat="46.8465" lon="4.7689">
        <ele>251</ele>
        <time>2012-08-22T14:29:53Z</time>
      </trkpt>
      <trkpt lat="46.84648" lon="4.76903">
        <ele>252</ele>
        <time>2012-08-22T14:29:54Z</time>
      </trkpt>
      <trkpt lat="46.84645" lon="4.76916">
        <ele>253</ele>
        <time>2012-08-22T14:29:55Z</time>
      </trkpt>
      <trkpt lat="46.84643" lon="4.7693">
        <ele>254</ele>
        <time>2012-08-22T14:29:56Z</time>
      </trkpt>
      <trkpt lat="46.8464" lon="4.76943">
        <ele>253</ele>
        <time>2012-08-22T14:29:57Z</time>
      </trkpt>
      <trkpt lat="46.84638" lon="4.76957">
        <ele>252</ele>
        <time>2012-08-22T14:29:58Z</time>
      </trkpt>
      <trkpt lat="46.84636" lon="4.76969">
        <ele>252</ele>
        <time>2012-08-22T14:29:59Z</time>
      </trkpt>
      <trkpt lat="46.84634" lon="4.76979">
        <ele>253</ele>
        <time>2012-08-22T14:30:00Z</time>
      </trkpt>
      <trkpt lat="46.84633" lon="4.76988">
        <ele>253</ele>
        <time>2012-08-22T14:30:01Z</time>
      </trkpt>
      <trkpt lat="46.84631" lon="4.76997">
        <ele>255</ele>
        <time>2012-08-22T14:30:02Z</time>
      </trkpt>
      <trkpt lat="46.84629" lon="4.77006">
        <ele>254</ele>
        <time>2012-08-22T14:30:03Z</time>
      </trkpt>
      <trkpt lat="46.84626" lon="4.77016">
        <ele>254</ele>
        <time>2012-08-22T14:30:04Z</time>
      </trkpt>
      <trkpt lat="46.84624" lon="4.77027">
        <ele>253</ele>
        <time>2012-08-22T14:30:05Z</time>
      </trkpt>
      <trkpt lat="46.84621" lon="4.77037">
        <ele>254</ele>
        <time>2012-08-22T14:30:06Z</time>
      </trkpt>
      <trkpt lat="46.84618" lon="4.77047">
        <ele>253</ele>
        <time>2012-08-22T14:30:07Z</time>
      </trkpt>
      <trkpt lat="46.84616" lon="4.77057">
        <ele>250</ele>
        <time>2012-08-22T14:30:08Z</time>
      </trkpt>
      <trkpt lat="46.84614" lon="4.77068">
        <ele>249</ele>
        <time>2012-08-22T14:30:09Z</time>
      </trkpt>
      <trkpt lat="46.84611" lon="4.77079">
        <ele>248</ele>
        <time>2012-08-22T14:30:10Z</time>
      </trkpt>
      <trkpt lat="46.84609" lon="4.77089">
        <ele>246</ele>
        <time>2012-08-22T14:30:11Z</time>
      </trkpt>
      <trkpt lat="46.84606" lon="4.771">
        <ele>245</ele>
        <time>2012-08-22T14:30:12Z</time>
      </trkpt>
      <trkpt lat="46.84604" lon="4.77111">
        <ele>245</ele>
        <time>2012-08-22T14:30:13Z</time>
      </trkpt>
      <trkpt lat="46.84601" lon="4.77122">
        <ele>245</ele>
        <time>2012-08-22T14:30:14Z</time>
      </trkpt>
      <trkpt lat="46.84598" lon="4.77132">
        <ele>243</ele>
        <time>2012-08-22T14:30:15Z</time>
      </trkpt>
      <trkpt lat="46.84595" lon="4.77142">
        <ele>243</ele>
        <time>2012-08-22T14:30:16Z</time>
      </trkpt>
      <trkpt lat="46.84592" lon="4.7715">
        <ele>242</ele>
        <time>2012-08-22T14:30:17Z</time>
      </trkpt>
      <trkpt lat="46.8459" lon="4.77157">
        <ele>240</ele>
        <time>2012-08-22T14:30:18Z</time>
      </trkpt>
      <trkpt lat="46.84588" lon="4.77166">
        <ele>242</ele>
        <time>2012-08-22T14:30:20Z</time>
      </trkpt>
      <trkpt lat="46.84582" lon="4.7717">
        <ele>242</ele>
        <time>2012-08-22T14:30:22Z</time>
      </trkpt>
      <trkpt lat="46.84577" lon="4.77173">
        <ele>242</ele>
        <time>2012-08-22T14:30:23Z</time>
      </trkpt>
      <trkpt lat="46.84573" lon="4.7718">
        <ele>242</ele>
        <time>2012-08-22T14:30:24Z</time>
      </trkpt>
      <trkpt lat="46.84571" lon="4.77191">
        <ele>241</ele>
        <time>2012-08-22T14:30:25Z</time>
      </trkpt>
      <trkpt lat="46.84567" lon="4.77206">
        <ele>241</ele>
        <time>2012-08-22T14:30:26Z</time>
      </trkpt>
      <trkpt lat="46.84563" lon="4.77224">
        <ele>242</ele>
        <time>2012-08-22T14:30:27Z</time>
      </trkpt>
      <trkpt lat="46.8456" lon="4.77244">
        <ele>241</ele>
        <time>2012-08-22T14:30:28Z</time>
      </trkpt>
      <trkpt lat="46.84556" lon="4.77264">
        <ele>245</ele>
        <time>2012-08-22T14:30:29Z</time>
      </trkpt>
      <trkpt lat="46.84551" lon="4.77286">
        <ele>247</ele>
        <time>2012-08-22T14:30:30Z</time>
      </trkpt>
      <trkpt lat="46.84545" lon="4.77306">
        <ele>247</ele>
        <time>2012-08-22T14:30:31Z</time>
      </trkpt>
      <trkpt lat="46.8454" lon="4.77325">
        <ele>247</ele>
        <time>2012-08-22T14:30:32Z</time>
      </trkpt>
      <trkpt lat="46.84534" lon="4.77344">
        <ele>247</ele>
        <time>2012-08-22T14:30:33Z</time>
      </trkpt>
      <trkpt lat="46.84529" lon="4.77361">
        <ele>248</ele>
        <time>2012-08-22T14:30:34Z</time>
      </trkpt>
      <trkpt lat="46.84524" lon="4.77377">
        <ele>248</ele>
        <time>2012-08-22T14:30:35Z</time>
      </trkpt>
      <trkpt lat="46.84519" lon="4.77392">
        <ele>247</ele>
        <time>2012-08-22T14:30:36Z</time>
      </trkpt>
      <trkpt lat="46.84514" lon="4.77409">
        <ele>245</ele>
        <time>2012-08-22T14:30:37Z</time>
      </trkpt>
      <trkpt lat="46.84509" lon="4.77426">
        <ele>243</ele>
        <time>2012-08-22T14:30:38Z</time>
      </trkpt>
      <trkpt lat="46.84504" lon="4.77444">
        <ele>244</ele>
        <time>2012-08-22T14:30:39Z</time>
      </trkpt>
      <trkpt lat="46.84499" lon="4.77464">
        <ele>243</ele>
        <time>2012-08-22T14:30:40Z</time>
      </trkpt>
      <trkpt lat="46.84494" lon="4.77483">
        <ele>242</ele>
        <time>2012-08-22T14:30:41Z</time>
      </trkpt>
      <trkpt lat="46.8449" lon="4.77501">
        <ele>244</ele>
        <time>2012-08-22T14:30:42Z</time>
      </trkpt>
      <trkpt lat="46.84486" lon="4.77518">
        <ele>246</ele>
        <time>2012-08-22T14:30:43Z</time>
      </trkpt>
      <trkpt lat="46.84483" lon="4.77533">
        <ele>248</ele>
        <time>2012-08-22T14:30:44Z</time>
      </trkpt>
      <trkpt lat="46.84481" lon="4.77544">
        <ele>247</ele>
        <time>2012-08-22T14:30:45Z</time>
      </trkpt>
      <trkpt lat="46.84478" lon="4.77554">
        <ele>245</ele>
        <time>2012-08-22T14:30:46Z</time>
      </trkpt>
      <trkpt lat="46.84472" lon="4.77563">
        <ele>245</ele>
        <time>2012-08-22T14:30:47Z</time>
      </trkpt>
      <trkpt lat="46.84464" lon="4.77569">
        <ele>244</ele>
        <time>2012-08-22T14:30:48Z</time>
      </trkpt>
      <trkpt lat="46.84454" lon="4.77572">
        <ele>242</ele>
        <time>2012-08-22T14:30:49Z</time>
      </trkpt>
      <trkpt lat="46.84443" lon="4.77573">
        <ele>243</ele>
        <time>2012-08-22T14:30:50Z</time>
      </trkpt>
      <trkpt lat="46.84431" lon="4.77574">
        <ele>243</ele>
        <time>2012-08-22T14:30:51Z</time>
      </trkpt>
      <trkpt lat="46.84419" lon="4.77575">
        <ele>244</ele>
        <time>2012-08-22T14:30:52Z</time>
      </trkpt>
      <trkpt lat="46.84406" lon="4.77578">
        <ele>244</ele>
        <time>2012-08-22T14:30:53Z</time>
      </trkpt>
      <trkpt lat="46.84392" lon="4.77581">
        <ele>242</ele>
        <time>2012-08-22T14:30:54Z</time>
      </trkpt>
      <trkpt lat="46.84377" lon="4.77585">
        <ele>241</ele>
        <time>2012-08-22T14:30:55Z</time>
      </trkpt>
      <trkpt lat="46.84363" lon="4.77588">
        <ele>241</ele>
        <time>2012-08-22T14:30:56Z</time>
      </trkpt>
      <trkpt lat="46.8435" lon="4.77591">
        <ele>241</ele>
        <time>2012-08-22T14:30:57Z</time>
      </trkpt>
      <trkpt lat="46.84338" lon="4.77593">
        <ele>241</ele>
        <time>2012-08-22T14:30:58Z</time>
      </trkpt>
      <trkpt lat="46.84326" lon="4.77595">
        <ele>241</ele>
        <time>2012-08-22T14:30:59Z</time>
      </trkpt>
      <trkpt lat="46.84315" lon="4.77599">
        <ele>242</ele>
        <time>2012-08-22T14:31:00Z</time>
      </trkpt>
      <trkpt lat="46.84304" lon="4.77607">
        <ele>242</ele>
        <time>2012-08-22T14:31:01Z</time>
      </trkpt>
      <trkpt lat="46.84292" lon="4.77616">
        <ele>242</ele>
        <time>2012-08-22T14:31:02Z</time>
      </trkpt>
      <trkpt lat="46.84278" lon="4.77626">
        <ele>245</ele>
        <time>2012-08-22T14:31:03Z</time>
      </trkpt>
      <trkpt lat="46.84264" lon="4.77635">
        <ele>246</ele>
        <time>2012-08-22T14:31:04Z</time>
      </trkpt>
      <trkpt lat="46.84249" lon="4.77644">
        <ele>247</ele>
        <time>2012-08-22T14:31:05Z</time>
      </trkpt>
      <trkpt lat="46.84234" lon="4.77652">
        <ele>248</ele>
        <time>2012-08-22T14:31:06Z</time>
      </trkpt>
      <trkpt lat="46.8422" lon="4.77657">
        <ele>247</ele>
        <time>2012-08-22T14:31:07Z</time>
      </trkpt>
      <trkpt lat="46.84208" lon="4.77663">
        <ele>247</ele>
        <time>2012-08-22T14:31:08Z</time>
      </trkpt>
      <trkpt lat="46.84197" lon="4.77668">
        <ele>247</ele>
        <time>2012-08-22T14:31:09Z</time>
      </trkpt>
      <trkpt lat="46.84186" lon="4.77675">
        <ele>248</ele>
        <time>2012-08-22T14:31:10Z</time>
      </trkpt>
      <trkpt lat="46.84176" lon="4.77686">
        <ele>248</ele>
        <time>2012-08-22T14:31:11Z</time>
      </trkpt>
      <trkpt lat="46.84165" lon="4.77698">
        <ele>249</ele>
        <time>2012-08-22T14:31:12Z</time>
      </trkpt>
      <trkpt lat="46.84155" lon="4.77711">
        <ele>250</ele>
        <time>2012-08-22T14:31:13Z</time>
      </trkpt>
      <trkpt lat="46.84145" lon="4.77725">
        <ele>251</ele>
        <time>2012-08-22T14:31:14Z</time>
      </trkpt>
      <trkpt lat="46.84136" lon="4.77739">
        <ele>250</ele>
        <time>2012-08-22T14:31:15Z</time>
      </trkpt>
      <trkpt lat="46.84126" lon="4.77754">
        <ele>249</ele>
        <time>2012-08-22T14:31:16Z</time>
      </trkpt>
      <trkpt lat="46.84118" lon="4.77768">
        <ele>248</ele>
        <time>2012-08-22T14:31:17Z</time>
      </trkpt>
      <trkpt lat="46.84111" lon="4.77781">
        <ele>247</ele>
        <time>2012-08-22T14:31:18Z</time>
      </trkpt>
      <trkpt lat="46.84104" lon="4.77794">
        <ele>246</ele>
        <time>2012-08-22T14:31:19Z</time>
      </trkpt>
      <trkpt lat="46.84098" lon="4.77806">
        <ele>247</ele>
        <time>2012-08-22T14:31:20Z</time>
      </trkpt>
      <trkpt lat="46.84092" lon="4.77819">
        <ele>247</ele>
        <time>2012-08-22T14:31:21Z</time>
      </trkpt>
      <trkpt lat="46.84085" lon="4.77831">
        <ele>248</ele>
        <time>2012-08-22T14:31:22Z</time>
      </trkpt>
      <trkpt lat="46.84079" lon="4.77843">
        <ele>247</ele>
        <time>2012-08-22T14:31:23Z</time>
      </trkpt>
      <trkpt lat="46.84072" lon="4.77856">
        <ele>250</ele>
        <time>2012-08-22T14:31:24Z</time>
      </trkpt>
      <trkpt lat="46.84065" lon="4.77871">
        <ele>249</ele>
        <time>2012-08-22T14:31:25Z</time>
      </trkpt>
      <trkpt lat="46.84057" lon="4.77885">
        <ele>249</ele>
        <time>2012-08-22T14:31:26Z</time>
      </trkpt>
      <trkpt lat="46.8405" lon="4.77898">
        <ele>248</ele>
        <time>2012-08-22T14:31:27Z</time>
      </trkpt>
      <trkpt lat="46.84043" lon="4.77912">
        <ele>247</ele>
        <time>2012-08-22T14:31:28Z</time>
      </trkpt>
      <trkpt lat="46.84036" lon="4.77926">
        <ele>247</ele>
        <time>2012-08-22T14:31:29Z</time>
      </trkpt>
      <trkpt lat="46.84028" lon="4.7794">
        <ele>244</ele>
        <time>2012-08-22T14:31:30Z</time>
      </trkpt>
      <trkpt lat="46.84021" lon="4.77954">
        <ele>243</ele>
        <time>2012-08-22T14:31:31Z</time>
      </trkpt>
      <trkpt lat="46.84014" lon="4.77967">
        <ele>241</ele>
        <time>2012-08-22T14:31:32Z</time>
      </trkpt>
      <trkpt lat="46.84007" lon="4.7798">
        <ele>241</ele>
        <time>2012-08-22T14:31:33Z</time>
      </trkpt>
      <trkpt lat="46.84001" lon="4.77994">
        <ele>244</ele>
        <time>2012-08-22T14:31:34Z</time>
      </trkpt>
      <trkpt lat="46.83996" lon="4.78009">
        <ele>245</ele>
        <time>2012-08-22T14:31:35Z</time>
      </trkpt>
      <trkpt lat="46.8399" lon="4.78024">
        <ele>249</ele>
        <time>2012-08-22T14:31:36Z</time>
      </trkpt>
      <trkpt lat="46.83984" lon="4.78037">
        <ele>245</ele>
        <time>2012-08-22T14:31:37Z</time>
      </trkpt>
      <trkpt lat="46.83976" lon="4.78047">
        <ele>244</ele>
        <time>2012-08-22T14:31:38Z</time>
      </trkpt>
      <trkpt lat="46.83967" lon="4.78059">
        <ele>244</ele>
        <time>2012-08-22T14:31:39Z</time>
      </trkpt>
      <trkpt lat="46.83957" lon="4.7807">
        <ele>247</ele>
        <time>2012-08-22T14:31:40Z</time>
      </trkpt>
      <trkpt lat="46.83946" lon="4.78081">
        <ele>250</ele>
        <time>2012-08-22T14:31:41Z</time>
      </trkpt>
      <trkpt lat="46.83933" lon="4.78092">
        <ele>250</ele>
        <time>2012-08-22T14:31:42Z</time>
      </trkpt>
      <trkpt lat="46.8392" lon="4.78103">
        <ele>249</ele>
        <time>2012-08-22T14:31:43Z</time>
      </trkpt>
      <trkpt lat="46.83907" lon="4.78114">
        <ele>250</ele>
        <time>2012-08-22T14:31:44Z</time>
      </trkpt>
      <trkpt lat="46.83894" lon="4.78125">
        <ele>252</ele>
        <time>2012-08-22T14:31:45Z</time>
      </trkpt>
      <trkpt lat="46.83882" lon="4.78136">
        <ele>253</ele>
        <time>2012-08-22T14:31:46Z</time>
      </trkpt>
      <trkpt lat="46.8387" lon="4.78148">
        <ele>254</ele>
        <time>2012-08-22T14:31:47Z</time>
      </trkpt>
      <trkpt lat="46.83858" lon="4.78161">
        <ele>252</ele>
        <time>2012-08-22T14:31:48Z</time>
      </trkpt>
      <trkpt lat="46.83847" lon="4.78174">
        <ele>248</ele>
        <time>2012-08-22T14:31:49Z</time>
      </trkpt>
      <trkpt lat="46.83837" lon="4.78187">
        <ele>246</ele>
        <time>2012-08-22T14:31:50Z</time>
      </trkpt>
      <trkpt lat="46.83826" lon="4.78201">
        <ele>247</ele>
        <time>2012-08-22T14:31:51Z</time>
      </trkpt>
      <trkpt lat="46.83816" lon="4.78215">
        <ele>249</ele>
        <time>2012-08-22T14:31:52Z</time>
      </trkpt>
      <trkpt lat="46.83805" lon="4.78231">
        <ele>247</ele>
        <time>2012-08-22T14:31:53Z</time>
      </trkpt>
      <trkpt lat="46.83794" lon="4.78246">
        <ele>247</ele>
        <time>2012-08-22T14:31:54Z</time>
      </trkpt>
      <trkpt lat="46.83782" lon="4.78262">
        <ele>248</ele>
        <time>2012-08-22T14:31:55Z</time>
      </trkpt>
      <trkpt lat="46.83771" lon="4.78278">
        <ele>246</ele>
        <time>2012-08-22T14:31:56Z</time>
      </trkpt>
      <trkpt lat="46.8376" lon="4.78294">
        <ele>243</ele>
        <time>2012-08-22T14:31:57Z</time>
      </trkpt>
      <trkpt lat="46.8375" lon="4.7831">
        <ele>239</ele>
        <time>2012-08-22T14:31:58Z</time>
      </trkpt>
      <trkpt lat="46.83739" lon="4.78328">
        <ele>236</ele>
        <time>2012-08-22T14:31:59Z</time>
      </trkpt>
      <trkpt lat="46.83728" lon="4.78344">
        <ele>235</ele>
        <time>2012-08-22T14:32:00Z</time>
      </trkpt>
      <trkpt lat="46.83718" lon="4.78359">
        <ele>240</ele>
        <time>2012-08-22T14:32:01Z</time>
      </trkpt>
      <trkpt lat="46.83709" lon="4.78374">
        <ele>242</ele>
        <time>2012-08-22T14:32:02Z</time>
      </trkpt>
      <trkpt lat="46.837" lon="4.78387">
        <ele>244</ele>
        <time>2012-08-22T14:32:03Z</time>
      </trkpt>
      <trkpt lat="46.83692" lon="4.784">
        <ele>244</ele>
        <time>2012-08-22T14:32:04Z</time>
      </trkpt>
      <trkpt lat="46.83684" lon="4.78414">
        <ele>244</ele>
        <time>2012-08-22T14:32:05Z</time>
      </trkpt>
      <trkpt lat="46.83678" lon="4.78427">
        <ele>243</ele>
        <time>2012-08-22T14:32:06Z</time>
      </trkpt>
      <trkpt lat="46.83672" lon="4.78442">
        <ele>244</ele>
        <time>2012-08-22T14:32:07Z</time>
      </trkpt>
      <trkpt lat="46.83665" lon="4.78459">
        <ele>246</ele>
        <time>2012-08-22T14:32:08Z</time>
      </trkpt>
      <trkpt lat="46.83659" lon="4.78476">
        <ele>247</ele>
        <time>2012-08-22T14:32:09Z</time>
      </trkpt>
      <trkpt lat="46.83653" lon="4.78493">
        <ele>247</ele>
        <time>2012-08-22T14:32:10Z</time>
      </trkpt>
      <trkpt lat="46.83648" lon="4.78509">
        <ele>239</ele>
        <time>2012-08-22T14:32:11Z</time>
      </trkpt>
      <trkpt lat="46.83642" lon="4.78526">
        <ele>236</ele>
        <time>2012-08-22T14:32:12Z</time>
      </trkpt>
      <trkpt lat="46.83635" lon="4.78542">
        <ele>234</ele>
        <time>2012-08-22T14:32:13Z</time>
      </trkpt>
      <trkpt lat="46.83628" lon="4.78558">
        <ele>233</ele>
        <time>2012-08-22T14:32:14Z</time>
      </trkpt>
      <trkpt lat="46.8362" lon="4.78574">
        <ele>233</ele>
        <time>2012-08-22T14:32:15Z</time>
      </trkpt>
      <trkpt lat="46.83613" lon="4.78592">
        <ele>233</ele>
        <time>2012-08-22T14:32:16Z</time>
      </trkpt>
      <trkpt lat="46.83606" lon="4.78611">
        <ele>232</ele>
        <time>2012-08-22T14:32:17Z</time>
      </trkpt>
      <trkpt lat="46.83599" lon="4.78629">
        <ele>231</ele>
        <time>2012-08-22T14:32:18Z</time>
      </trkpt>
      <trkpt lat="46.83593" lon="4.78645">
        <ele>231</ele>
        <time>2012-08-22T14:32:19Z</time>
      </trkpt>
      <trkpt lat="46.83588" lon="4.78661">
        <ele>231</ele>
        <time>2012-08-22T14:32:20Z</time>
      </trkpt>
      <trkpt lat="46.83583" lon="4.78674">
        <ele>231</ele>
        <time>2012-08-22T14:32:21Z</time>
      </trkpt>
      <trkpt lat="46.83579" lon="4.78686">
        <ele>233</ele>
        <time>2012-08-22T14:32:22Z</time>
      </trkpt>
      <trkpt lat="46.83576" lon="4.78695">
        <ele>232</ele>
        <time>2012-08-22T14:32:23Z</time>
      </trkpt>
      <trkpt lat="46.83573" lon="4.78703">
        <ele>234</ele>
        <time>2012-08-22T14:32:24Z</time>
      </trkpt>
      <trkpt lat="46.83571" lon="4.7871">
        <ele>233</ele>
        <time>2012-08-22T14:32:25Z</time>
      </trkpt>
      <trkpt lat="46.83569" lon="4.78716">
        <ele>234</ele>
        <time>2012-08-22T14:32:26Z</time>
      </trkpt>
      <trkpt lat="46.83566" lon="4.78721">
        <ele>233</ele>
        <time>2012-08-22T14:32:27Z</time>
      </trkpt>
      <trkpt lat="46.83562" lon="4.78733">
        <ele>229</ele>
        <time>2012-08-22T14:32:29Z</time>
      </trkpt>
      <trkpt lat="46.83559" lon="4.7874">
        <ele>232</ele>
        <time>2012-08-22T14:32:30Z</time>
      </trkpt>
      <trkpt lat="46.83556" lon="4.78745">
        <ele>233</ele>
        <time>2012-08-22T14:32:31Z</time>
      </trkpt>
      <trkpt lat="46.83552" lon="4.78753">
        <ele>230</ele>
        <time>2012-08-22T14:32:33Z</time>
      </trkpt>
      <trkpt lat="46.83555" lon="4.78757">
        <ele>254</ele>
        <time>2012-08-22T14:34:58Z</time>
      </trkpt>
      <trkpt lat="46.83555" lon="4.78757">
        <ele>254</ele>
        <time>2012-08-22T14:34:58Z</time>
      </trkpt>
      <trkpt lat="46.83555" lon="4.78757">
        <ele>254</ele>
        <time>2012-08-22T14:37:07Z</time>
      </trkpt>
      <trkpt lat="46.8356" lon="4.7876">
        <ele>262</ele>
        <time>2012-08-22T14:37:08Z</time>
      </trkpt>
      <trkpt lat="46.8356" lon="4.7876">
        <ele>262</ele>
        <time>2012-08-22T14:37:08Z</time>
      </trkpt>
      <trkpt lat="46.8356" lon="4.7876">
        <ele>262</ele>
        <time>2012-08-22T14:37:19Z</time>
      </trkpt>
      <trkpt lat="46.83558" lon="4.78767">
        <ele>255</ele>
        <time>2012-08-22T14:37:22Z</time>
      </trkpt>
      <trkpt lat="46.83554" lon="4.78771">
        <ele>255</ele>
        <time>2012-08-22T14:37:23Z</time>
      </trkpt>
      <trkpt lat="46.8355" lon="4.78776">
        <ele>254</ele>
        <time>2012-08-22T14:37:24Z</time>
      </trkpt>
      <trkpt lat="46.83545" lon="4.78782">
        <ele>253</ele>
        <time>2012-08-22T14:37:25Z</time>
      </trkpt>
      <trkpt lat="46.83538" lon="4.7879">
        <ele>252</ele>
        <time>2012-08-22T14:37:26Z</time>
      </trkpt>
      <trkpt lat="46.83532" lon="4.78799">
        <ele>252</ele>
        <time>2012-08-22T14:37:27Z</time>
      </trkpt>
      <trkpt lat="46.83527" lon="4.78811">
        <ele>251</ele>
        <time>2012-08-22T14:37:28Z</time>
      </trkpt>
      <trkpt lat="46.83522" lon="4.78822">
        <ele>252</ele>
        <time>2012-08-22T14:37:29Z</time>
      </trkpt>
      <trkpt lat="46.83519" lon="4.78833">
        <ele>253</ele>
        <time>2012-08-22T14:37:30Z</time>
      </trkpt>
      <trkpt lat="46.83519" lon="4.78844">
        <ele>252</ele>
        <time>2012-08-22T14:37:31Z</time>
      </trkpt>
      <trkpt lat="46.83521" lon="4.78857">
        <ele>251</ele>
        <time>2012-08-22T14:37:32Z</time>
      </trkpt>
      <trkpt lat="46.83525" lon="4.78871">
        <ele>252</ele>
        <time>2012-08-22T14:37:33Z</time>
      </trkpt>
      <trkpt lat="46.83529" lon="4.78885">
        <ele>252</ele>
        <time>2012-08-22T14:37:34Z</time>
      </trkpt>
      <trkpt lat="46.83533" lon="4.78898">
        <ele>253</ele>
        <time>2012-08-22T14:37:35Z</time>
      </trkpt>
      <trkpt lat="46.83538" lon="4.78911">
        <ele>253</ele>
        <time>2012-08-22T14:37:36Z</time>
      </trkpt>
      <trkpt lat="46.83543" lon="4.78924">
        <ele>253</ele>
        <time>2012-08-22T14:37:37Z</time>
      </trkpt>
      <trkpt lat="46.83548" lon="4.78935">
        <ele>253</ele>
        <time>2012-08-22T14:37:38Z</time>
      </trkpt>
      <trkpt lat="46.83552" lon="4.78944">
        <ele>251</ele>
        <time>2012-08-22T14:37:39Z</time>
      </trkpt>
      <trkpt lat="46.83555" lon="4.78952">
        <ele>251</ele>
        <time>2012-08-22T14:37:40Z</time>
      </trkpt>
      <trkpt lat="46.83558" lon="4.78962">
        <ele>251</ele>
        <time>2012-08-22T14:37:41Z</time>
      </trkpt>
      <trkpt lat="46.83561" lon="4.78971">
        <ele>251</ele>
        <time>2012-08-22T14:37:42Z</time>
      </trkpt>
      <trkpt lat="46.83564" lon="4.7898">
        <ele>251</ele>
        <time>2012-08-22T14:37:43Z</time>
      </trkpt>
      <trkpt lat="46.83567" lon="4.7899">
        <ele>251</ele>
        <time>2012-08-22T14:37:44Z</time>
      </trkpt>
      <trkpt lat="46.8357" lon="4.78999">
        <ele>249</ele>
        <time>2012-08-22T14:37:45Z</time>
      </trkpt>
      <trkpt lat="46.83573" lon="4.79012">
        <ele>249</ele>
        <time>2012-08-22T14:37:46Z</time>
      </trkpt>
      <trkpt lat="46.83577" lon="4.79025">
        <ele>250</ele>
        <time>2012-08-22T14:37:47Z</time>
      </trkpt>
      <trkpt lat="46.8358" lon="4.79035">
        <ele>251</ele>
        <time>2012-08-22T14:37:48Z</time>
      </trkpt>
      <trkpt lat="46.83586" lon="4.79044">
        <ele>250</ele>
        <time>2012-08-22T14:37:49Z</time>
      </trkpt>
      <trkpt lat="46.83595" lon="4.79051">
        <ele>251</ele>
        <time>2012-08-22T14:37:50Z</time>
      </trkpt>
      <trkpt lat="46.83605" lon="4.79057">
        <ele>251</ele>
        <time>2012-08-22T14:37:51Z</time>
      </trkpt>
      <trkpt lat="46.83618" lon="4.79064">
        <ele>251</ele>
        <time>2012-08-22T14:37:52Z</time>
      </trkpt>
      <trkpt lat="46.83634" lon="4.79071">
        <ele>249</ele>
        <time>2012-08-22T14:37:53Z</time>
      </trkpt>
      <trkpt lat="46.8365" lon="4.79078">
        <ele>248</ele>
        <time>2012-08-22T14:37:54Z</time>
      </trkpt>
      <trkpt lat="46.83669" lon="4.79085">
        <ele>243</ele>
        <time>2012-08-22T14:37:55Z</time>
      </trkpt>
      <trkpt lat="46.83687" lon="4.79091">
        <ele>241</ele>
        <time>2012-08-22T14:37:56Z</time>
      </trkpt>
      <trkpt lat="46.83703" lon="4.79097">
        <ele>239</ele>
        <time>2012-08-22T14:37:57Z</time>
      </trkpt>
      <trkpt lat="46.83719" lon="4.79102">
        <ele>237</ele>
        <time>2012-08-22T14:37:58Z</time>
      </trkpt>
      <trkpt lat="46.83734" lon="4.79108">
        <ele>237</ele>
        <time>2012-08-22T14:37:59Z</time>
      </trkpt>
      <trkpt lat="46.8375" lon="4.79114">
        <ele>235</ele>
        <time>2012-08-22T14:38:00Z</time>
      </trkpt>
      <trkpt lat="46.83765" lon="4.7912">
        <ele>234</ele>
        <time>2012-08-22T14:38:01Z</time>
      </trkpt>
      <trkpt lat="46.8378" lon="4.79126">
        <ele>234</ele>
        <time>2012-08-22T14:38:02Z</time>
      </trkpt>
      <trkpt lat="46.83793" lon="4.79132">
        <ele>235</ele>
        <time>2012-08-22T14:38:03Z</time>
      </trkpt>
      <trkpt lat="46.83805" lon="4.79137">
        <ele>235</ele>
        <time>2012-08-22T14:38:04Z</time>
      </trkpt>
      <trkpt lat="46.83815" lon="4.79142">
        <ele>237</ele>
        <time>2012-08-22T14:38:05Z</time>
      </trkpt>
      <trkpt lat="46.83825" lon="4.79146">
        <ele>238</ele>
        <time>2012-08-22T14:38:06Z</time>
      </trkpt>
      <trkpt lat="46.83833" lon="4.7915">
        <ele>238</ele>
        <time>2012-08-22T14:38:07Z</time>
      </trkpt>
      <trkpt lat="46.83839" lon="4.79156">
        <ele>238</ele>
        <time>2012-08-22T14:38:08Z</time>
      </trkpt>
      <trkpt lat="46.83843" lon="4.79164">
        <ele>240</ele>
        <time>2012-08-22T14:38:09Z</time>
      </trkpt>
      <trkpt lat="46.83843" lon="4.79173">
        <ele>240</ele>
        <time>2012-08-22T14:38:10Z</time>
      </trkpt>
      <trkpt lat="46.83841" lon="4.79183">
        <ele>241</ele>
        <time>2012-08-22T14:38:11Z</time>
      </trkpt>
      <trkpt lat="46.83839" lon="4.79196">
        <ele>242</ele>
        <time>2012-08-22T14:38:12Z</time>
      </trkpt>
      <trkpt lat="46.83835" lon="4.79212">
        <ele>243</ele>
        <time>2012-08-22T14:38:13Z</time>
      </trkpt>
      <trkpt lat="46.8383" lon="4.79231">
        <ele>244</ele>
        <time>2012-08-22T14:38:14Z</time>
      </trkpt>
      <trkpt lat="46.83824" lon="4.79251">
        <ele>246</ele>
        <time>2012-08-22T14:38:15Z</time>
      </trkpt>
      <trkpt lat="46.83818" lon="4.79272">
        <ele>247</ele>
        <time>2012-08-22T14:38:16Z</time>
      </trkpt>
      <trkpt lat="46.83812" lon="4.79294">
        <ele>245</ele>
        <time>2012-08-22T14:38:17Z</time>
      </trkpt>
      <trkpt lat="46.83806" lon="4.79315">
        <ele>245</ele>
        <time>2012-08-22T14:38:18Z</time>
      </trkpt>
      <trkpt lat="46.83801" lon="4.79337">
        <ele>244</ele>
        <time>2012-08-22T14:38:19Z</time>
      </trkpt>
      <trkpt lat="46.83794" lon="4.79359">
        <ele>248</ele>
        <time>2012-08-22T14:38:20Z</time>
      </trkpt>
      <trkpt lat="46.83788" lon="4.79381">
        <ele>249</ele>
        <time>2012-08-22T14:38:21Z</time>
      </trkpt>
      <trkpt lat="46.83781" lon="4.79403">
        <ele>249</ele>
        <time>2012-08-22T14:38:22Z</time>
      </trkpt>
      <trkpt lat="46.83776" lon="4.79424">
        <ele>248</ele>
        <time>2012-08-22T14:38:23Z</time>
      </trkpt>
      <trkpt lat="46.8377" lon="4.79445">
        <ele>247</ele>
        <time>2012-08-22T14:38:24Z</time>
      </trkpt>
      <trkpt lat="46.83764" lon="4.79465">
        <ele>245</ele>
        <time>2012-08-22T14:38:25Z</time>
      </trkpt>
      <trkpt lat="46.83758" lon="4.79485">
        <ele>244</ele>
        <time>2012-08-22T14:38:26Z</time>
      </trkpt>
      <trkpt lat="46.83753" lon="4.79506">
        <ele>243</ele>
        <time>2012-08-22T14:38:27Z</time>
      </trkpt>
      <trkpt lat="46.83747" lon="4.79526">
        <ele>242</ele>
        <time>2012-08-22T14:38:28Z</time>
      </trkpt>
      <trkpt lat="46.83741" lon="4.79546">
        <ele>240</ele>
        <time>2012-08-22T14:38:29Z</time>
      </trkpt>
      <trkpt lat="46.83735" lon="4.79566">
        <ele>239</ele>
        <time>2012-08-22T14:38:30Z</time>
      </trkpt>
      <trkpt lat="46.83729" lon="4.79586">
        <ele>238</ele>
        <time>2012-08-22T14:38:31Z</time>
      </trkpt>
      <trkpt lat="46.83723" lon="4.79608">
        <ele>238</ele>
        <time>2012-08-22T14:38:32Z</time>
      </trkpt>
      <trkpt lat="46.83717" lon="4.7963">
        <ele>237</ele>
        <time>2012-08-22T14:38:33Z</time>
      </trkpt>
      <trkpt lat="46.83711" lon="4.79652">
        <ele>237</ele>
        <time>2012-08-22T14:38:34Z</time>
      </trkpt>
      <trkpt lat="46.83704" lon="4.79673">
        <ele>236</ele>
        <time>2012-08-22T14:38:35Z</time>
      </trkpt>
      <trkpt lat="46.83698" lon="4.79695">
        <ele>236</ele>
        <time>2012-08-22T14:38:36Z</time>
      </trkpt>
      <trkpt lat="46.83692" lon="4.79717">
        <ele>235</ele>
        <time>2012-08-22T14:38:37Z</time>
      </trkpt>
      <trkpt lat="46.83686" lon="4.79738">
        <ele>235</ele>
        <time>2012-08-22T14:38:38Z</time>
      </trkpt>
      <trkpt lat="46.8368" lon="4.7976">
        <ele>235</ele>
        <time>2012-08-22T14:38:39Z</time>
      </trkpt>
      <trkpt lat="46.83675" lon="4.79781">
        <ele>235</ele>
        <time>2012-08-22T14:38:40Z</time>
      </trkpt>
      <trkpt lat="46.83669" lon="4.79801">
        <ele>235</ele>
        <time>2012-08-22T14:38:41Z</time>
      </trkpt>
      <trkpt lat="46.83664" lon="4.7982">
        <ele>235</ele>
        <time>2012-08-22T14:38:42Z</time>
      </trkpt>
      <trkpt lat="46.83659" lon="4.79838">
        <ele>235</ele>
        <time>2012-08-22T14:38:43Z</time>
      </trkpt>
      <trkpt lat="46.83655" lon="4.79856">
        <ele>234</ele>
        <time>2012-08-22T14:38:44Z</time>
      </trkpt>
      <trkpt lat="46.83652" lon="4.79875">
        <ele>235</ele>
        <time>2012-08-22T14:38:45Z</time>
      </trkpt>
      <trkpt lat="46.8365" lon="4.79894">
        <ele>237</ele>
        <time>2012-08-22T14:38:46Z</time>
      </trkpt>
      <trkpt lat="46.83648" lon="4.79914">
        <ele>240</ele>
        <time>2012-08-22T14:38:47Z</time>
      </trkpt>
      <trkpt lat="46.83647" lon="4.79932">
        <ele>241</ele>
        <time>2012-08-22T14:38:48Z</time>
      </trkpt>
      <trkpt lat="46.83646" lon="4.79946">
        <ele>240</ele>
        <time>2012-08-22T14:38:49Z</time>
      </trkpt>
      <trkpt lat="46.83642" lon="4.7996">
        <ele>240</ele>
        <time>2012-08-22T14:38:50Z</time>
      </trkpt>
      <trkpt lat="46.83638" lon="4.79974">
        <ele>240</ele>
        <time>2012-08-22T14:38:51Z</time>
      </trkpt>
      <trkpt lat="46.8363" lon="4.79986">
        <ele>241</ele>
        <time>2012-08-22T14:38:52Z</time>
      </trkpt>
      <trkpt lat="46.83622" lon="4.79999">
        <ele>241</ele>
        <time>2012-08-22T14:38:53Z</time>
      </trkpt>
      <trkpt lat="46.83613" lon="4.80012">
        <ele>243</ele>
        <time>2012-08-22T14:38:54Z</time>
      </trkpt>
      <trkpt lat="46.83602" lon="4.80026">
        <ele>243</ele>
        <time>2012-08-22T14:38:55Z</time>
      </trkpt>
      <trkpt lat="46.83591" lon="4.80041">
        <ele>245</ele>
        <time>2012-08-22T14:38:56Z</time>
      </trkpt>
      <trkpt lat="46.83579" lon="4.80056">
        <ele>244</ele>
        <time>2012-08-22T14:38:57Z</time>
      </trkpt>
      <trkpt lat="46.83566" lon="4.80072">
        <ele>243</ele>
        <time>2012-08-22T14:38:58Z</time>
      </trkpt>
      <trkpt lat="46.83553" lon="4.80088">
        <ele>244</ele>
        <time>2012-08-22T14:38:59Z</time>
      </trkpt>
      <trkpt lat="46.83541" lon="4.80103">
        <ele>245</ele>
        <time>2012-08-22T14:39:00Z</time>
      </trkpt>
      <trkpt lat="46.83529" lon="4.80117">
        <ele>246</ele>
        <time>2012-08-22T14:39:01Z</time>
      </trkpt>
      <trkpt lat="46.83518" lon="4.80129">
        <ele>247</ele>
        <time>2012-08-22T14:39:02Z</time>
      </trkpt>
      <trkpt lat="46.83506" lon="4.8014">
        <ele>247</ele>
        <time>2012-08-22T14:39:03Z</time>
      </trkpt>
      <trkpt lat="46.83493" lon="4.8015">
        <ele>248</ele>
        <time>2012-08-22T14:39:04Z</time>
      </trkpt>
      <trkpt lat="46.8348" lon="4.8016">
        <ele>246</ele>
        <time>2012-08-22T14:39:05Z</time>
      </trkpt>
      <trkpt lat="46.83466" lon="4.80169">
        <ele>247</ele>
        <time>2012-08-22T14:39:06Z</time>
      </trkpt>
      <trkpt lat="46.83452" lon="4.80178">
        <ele>247</ele>
        <time>2012-08-22T14:39:07Z</time>
      </trkpt>
      <trkpt lat="46.83439" lon="4.80186">
        <ele>249</ele>
        <time>2012-08-22T14:39:08Z</time>
      </trkpt>
      <trkpt lat="46.83426" lon="4.80194">
        <ele>249</ele>
        <time>2012-08-22T14:39:09Z</time>
      </trkpt>
      <trkpt lat="46.83414" lon="4.80202">
        <ele>248</ele>
        <time>2012-08-22T14:39:10Z</time>
      </trkpt>
      <trkpt lat="46.83404" lon="4.8021">
        <ele>247</ele>
        <time>2012-08-22T14:39:11Z</time>
      </trkpt>
      <trkpt lat="46.83394" lon="4.80224">
        <ele>247</ele>
        <time>2012-08-22T14:39:12Z</time>
      </trkpt>
      <trkpt lat="46.83385" lon="4.80237">
        <ele>247</ele>
        <time>2012-08-22T14:39:13Z</time>
      </trkpt>
      <trkpt lat="46.83379" lon="4.80253">
        <ele>248</ele>
        <time>2012-08-22T14:39:14Z</time>
      </trkpt>
      <trkpt lat="46.83373" lon="4.80271">
        <ele>247</ele>
        <time>2012-08-22T14:39:15Z</time>
      </trkpt>
      <trkpt lat="46.83367" lon="4.8029">
        <ele>248</ele>
        <time>2012-08-22T14:39:16Z</time>
      </trkpt>
      <trkpt lat="46.83363" lon="4.80311">
        <ele>249</ele>
        <time>2012-08-22T14:39:17Z</time>
      </trkpt>
      <trkpt lat="46.83359" lon="4.80333">
        <ele>253</ele>
        <time>2012-08-22T14:39:18Z</time>
      </trkpt>
      <trkpt lat="46.83355" lon="4.80357">
        <ele>254</ele>
        <time>2012-08-22T14:39:19Z</time>
      </trkpt>
      <trkpt lat="46.83352" lon="4.80381">
        <ele>255</ele>
        <time>2012-08-22T14:39:20Z</time>
      </trkpt>
      <trkpt lat="46.83349" lon="4.80402">
        <ele>254</ele>
        <time>2012-08-22T14:39:21Z</time>
      </trkpt>
      <trkpt lat="46.83346" lon="4.80421">
        <ele>252</ele>
        <time>2012-08-22T14:39:22Z</time>
      </trkpt>
      <trkpt lat="46.83344" lon="4.80438">
        <ele>251</ele>
        <time>2012-08-22T14:39:23Z</time>
      </trkpt>
      <trkpt lat="46.83341" lon="4.80454">
        <ele>250</ele>
        <time>2012-08-22T14:39:24Z</time>
      </trkpt>
      <trkpt lat="46.83336" lon="4.80468">
        <ele>250</ele>
        <time>2012-08-22T14:39:25Z</time>
      </trkpt>
      <trkpt lat="46.83329" lon="4.80483">
        <ele>248</ele>
        <time>2012-08-22T14:39:26Z</time>
      </trkpt>
      <trkpt lat="46.83321" lon="4.80501">
        <ele>247</ele>
        <time>2012-08-22T14:39:27Z</time>
      </trkpt>
      <trkpt lat="46.83312" lon="4.80518">
        <ele>247</ele>
        <time>2012-08-22T14:39:28Z</time>
      </trkpt>
      <trkpt lat="46.83304" lon="4.80534">
        <ele>248</ele>
        <time>2012-08-22T14:39:29Z</time>
      </trkpt>
      <trkpt lat="46.83296" lon="4.80549">
        <ele>247</ele>
        <time>2012-08-22T14:39:30Z</time>
      </trkpt>
      <trkpt lat="46.83288" lon="4.80563">
        <ele>248</ele>
        <time>2012-08-22T14:39:31Z</time>
      </trkpt>
      <trkpt lat="46.83281" lon="4.80576">
        <ele>248</ele>
        <time>2012-08-22T14:39:32Z</time>
      </trkpt>
      <trkpt lat="46.83275" lon="4.80586">
        <ele>246</ele>
        <time>2012-08-22T14:39:33Z</time>
      </trkpt>
      <trkpt lat="46.8327" lon="4.80594">
        <ele>249</ele>
        <time>2012-08-22T14:39:34Z</time>
      </trkpt>
      <trkpt lat="46.83266" lon="4.80602">
        <ele>247</ele>
        <time>2012-08-22T14:39:35Z</time>
      </trkpt>
      <trkpt lat="46.83263" lon="4.80608">
        <ele>246</ele>
        <time>2012-08-22T14:39:36Z</time>
      </trkpt>
      <trkpt lat="46.83262" lon="4.80619">
        <ele>248</ele>
        <time>2012-08-22T14:39:38Z</time>
      </trkpt>
      <trkpt lat="46.83264" lon="4.80626">
        <ele>248</ele>
        <time>2012-08-22T14:39:39Z</time>
      </trkpt>
      <trkpt lat="46.83266" lon="4.80635">
        <ele>249</ele>
        <time>2012-08-22T14:39:40Z</time>
      </trkpt>
      <trkpt lat="46.83268" lon="4.80644">
        <ele>246</ele>
        <time>2012-08-22T14:39:41Z</time>
      </trkpt>
      <trkpt lat="46.83272" lon="4.80655">
        <ele>244</ele>
        <time>2012-08-22T14:39:42Z</time>
      </trkpt>
      <trkpt lat="46.83274" lon="4.80668">
        <ele>245</ele>
        <time>2012-08-22T14:39:43Z</time>
      </trkpt>
      <trkpt lat="46.83278" lon="4.8068">
        <ele>245</ele>
        <time>2012-08-22T14:39:44Z</time>
      </trkpt>
      <trkpt lat="46.8328" lon="4.80695">
        <ele>244</ele>
        <time>2012-08-22T14:39:45Z</time>
      </trkpt>
      <trkpt lat="46.83283" lon="4.8071">
        <ele>244</ele>
        <time>2012-08-22T14:39:46Z</time>
      </trkpt>
      <trkpt lat="46.83283" lon="4.80728">
        <ele>245</ele>
        <time>2012-08-22T14:39:47Z</time>
      </trkpt>
      <trkpt lat="46.83283" lon="4.80748">
        <ele>246</ele>
        <time>2012-08-22T14:39:48Z</time>
      </trkpt>
      <trkpt lat="46.83284" lon="4.80769">
        <ele>245</ele>
        <time>2012-08-22T14:39:49Z</time>
      </trkpt>
      <trkpt lat="46.83285" lon="4.80789">
        <ele>245</ele>
        <time>2012-08-22T14:39:50Z</time>
      </trkpt>
      <trkpt lat="46.83286" lon="4.80808">
        <ele>245</ele>
        <time>2012-08-22T14:39:51Z</time>
      </trkpt>
      <trkpt lat="46.83286" lon="4.80825">
        <ele>244</ele>
        <time>2012-08-22T14:39:52Z</time>
      </trkpt>
      <trkpt lat="46.83288" lon="4.80842">
        <ele>245</ele>
        <time>2012-08-22T14:39:53Z</time>
      </trkpt>
      <trkpt lat="46.8329" lon="4.80857">
        <ele>244</ele>
        <time>2012-08-22T14:39:54Z</time>
      </trkpt>
      <trkpt lat="46.83292" lon="4.8087">
        <ele>244</ele>
        <time>2012-08-22T14:39:55Z</time>
      </trkpt>
      <trkpt lat="46.83298" lon="4.80882">
        <ele>244</ele>
        <time>2012-08-22T14:39:56Z</time>
      </trkpt>
      <trkpt lat="46.83304" lon="4.80894">
        <ele>244</ele>
        <time>2012-08-22T14:39:57Z</time>
      </trkpt>
      <trkpt lat="46.8331" lon="4.80905">
        <ele>245</ele>
        <time>2012-08-22T14:39:58Z</time>
      </trkpt>
      <trkpt lat="46.83319" lon="4.80912">
        <ele>245</ele>
        <time>2012-08-22T14:39:59Z</time>
      </trkpt>
      <trkpt lat="46.83328" lon="4.8092">
        <ele>244</ele>
        <time>2012-08-22T14:40:00Z</time>
      </trkpt>
      <trkpt lat="46.83337" lon="4.80927">
        <ele>246</ele>
        <time>2012-08-22T14:40:01Z</time>
      </trkpt>
      <trkpt lat="46.83348" lon="4.80933">
        <ele>246</ele>
        <time>2012-08-22T14:40:02Z</time>
      </trkpt>
      <trkpt lat="46.83359" lon="4.80938">
        <ele>244</ele>
        <time>2012-08-22T14:40:03Z</time>
      </trkpt>
      <trkpt lat="46.83368" lon="4.80942">
        <ele>243</ele>
        <time>2012-08-22T14:40:04Z</time>
      </trkpt>
      <trkpt lat="46.83374" lon="4.80945">
        <ele>242</ele>
        <time>2012-08-22T14:40:05Z</time>
      </trkpt>
      <trkpt lat="46.83378" lon="4.8095">
        <ele>242</ele>
        <time>2012-08-22T14:40:06Z</time>
      </trkpt>
      <trkpt lat="46.83378" lon="4.80965">
        <ele>241</ele>
        <time>2012-08-22T14:40:08Z</time>
      </trkpt>
      <trkpt lat="46.83376" lon="4.80974">
        <ele>240</ele>
        <time>2012-08-22T14:40:09Z</time>
      </trkpt>
      <trkpt lat="46.83374" lon="4.80988">
        <ele>239</ele>
        <time>2012-08-22T14:40:10Z</time>
      </trkpt>
      <trkpt lat="46.8337" lon="4.81004">
        <ele>239</ele>
        <time>2012-08-22T14:40:11Z</time>
      </trkpt>
      <trkpt lat="46.83366" lon="4.81022">
        <ele>239</ele>
        <time>2012-08-22T14:40:12Z</time>
      </trkpt>
      <trkpt lat="46.83361" lon="4.81042">
        <ele>238</ele>
        <time>2012-08-22T14:40:13Z</time>
      </trkpt>
      <trkpt lat="46.83356" lon="4.81062">
        <ele>239</ele>
        <time>2012-08-22T14:40:14Z</time>
      </trkpt>
      <trkpt lat="46.8335" lon="4.81083">
        <ele>239</ele>
        <time>2012-08-22T14:40:15Z</time>
      </trkpt>
      <trkpt lat="46.83343" lon="4.81106">
        <ele>239</ele>
        <time>2012-08-22T14:40:16Z</time>
      </trkpt>
      <trkpt lat="46.83336" lon="4.8113">
        <ele>240</ele>
        <time>2012-08-22T14:40:17Z</time>
      </trkpt>
      <trkpt lat="46.83328" lon="4.81153">
        <ele>240</ele>
        <time>2012-08-22T14:40:18Z</time>
      </trkpt>
      <trkpt lat="46.83322" lon="4.81176">
        <ele>240</ele>
        <time>2012-08-22T14:40:19Z</time>
      </trkpt>
      <trkpt lat="46.83315" lon="4.81199">
        <ele>240</ele>
        <time>2012-08-22T14:40:20Z</time>
      </trkpt>
      <trkpt lat="46.83309" lon="4.8122">
        <ele>239</ele>
        <time>2012-08-22T14:40:21Z</time>
      </trkpt>
      <trkpt lat="46.83304" lon="4.8124">
        <ele>241</ele>
        <time>2012-08-22T14:40:22Z</time>
      </trkpt>
      <trkpt lat="46.833" lon="4.8126">
        <ele>242</ele>
        <time>2012-08-22T14:40:23Z</time>
      </trkpt>
      <trkpt lat="46.833" lon="4.81281">
        <ele>243</ele>
        <time>2012-08-22T14:40:24Z</time>
      </trkpt>
      <trkpt lat="46.83302" lon="4.81301">
        <ele>244</ele>
        <time>2012-08-22T14:40:25Z</time>
      </trkpt>
      <trkpt lat="46.83306" lon="4.8132">
        <ele>248</ele>
        <time>2012-08-22T14:40:26Z</time>
      </trkpt>
      <trkpt lat="46.83312" lon="4.8134">
        <ele>249</ele>
        <time>2012-08-22T14:40:27Z</time>
      </trkpt>
      <trkpt lat="46.83318" lon="4.81359">
        <ele>246</ele>
        <time>2012-08-22T14:40:28Z</time>
      </trkpt>
      <trkpt lat="46.83325" lon="4.81378">
        <ele>247</ele>
        <time>2012-08-22T14:40:29Z</time>
      </trkpt>
      <trkpt lat="46.83332" lon="4.81399">
        <ele>245</ele>
        <time>2012-08-22T14:40:30Z</time>
      </trkpt>
      <trkpt lat="46.8334" lon="4.81421">
        <ele>244</ele>
        <time>2012-08-22T14:40:31Z</time>
      </trkpt>
      <trkpt lat="46.83349" lon="4.81443">
        <ele>243</ele>
        <time>2012-08-22T14:40:32Z</time>
      </trkpt>
      <trkpt lat="46.83359" lon="4.81466">
        <ele>242</ele>
        <time>2012-08-22T14:40:33Z</time>
      </trkpt>
      <trkpt lat="46.83368" lon="4.81489">
        <ele>242</ele>
        <time>2012-08-22T14:40:34Z</time>
      </trkpt>
      <trkpt lat="46.83377" lon="4.81512">
        <ele>242</ele>
        <time>2012-08-22T14:40:35Z</time>
      </trkpt>
      <trkpt lat="46.83387" lon="4.81535">
        <ele>242</ele>
        <time>2012-08-22T14:40:36Z</time>
      </trkpt>
      <trkpt lat="46.83396" lon="4.81559">
        <ele>242</ele>
        <time>2012-08-22T14:40:37Z</time>
      </trkpt>
      <trkpt lat="46.83406" lon="4.81584">
        <ele>241</ele>
        <time>2012-08-22T14:40:38Z</time>
      </trkpt>
      <trkpt lat="46.83415" lon="4.81608">
        <ele>241</ele>
        <time>2012-08-22T14:40:39Z</time>
      </trkpt>
      <trkpt lat="46.83424" lon="4.81633">
        <ele>241</ele>
        <time>2012-08-22T14:40:40Z</time>
      </trkpt>
      <trkpt lat="46.83434" lon="4.81658">
        <ele>241</ele>
        <time>2012-08-22T14:40:41Z</time>
      </trkpt>
      <trkpt lat="46.83443" lon="4.81682">
        <ele>241</ele>
        <time>2012-08-22T14:40:42Z</time>
      </trkpt>
      <trkpt lat="46.83451" lon="4.81703">
        <ele>240</ele>
        <time>2012-08-22T14:40:43Z</time>
      </trkpt>
      <trkpt lat="46.83459" lon="4.81724">
        <ele>239</ele>
        <time>2012-08-22T14:40:44Z</time>
      </trkpt>
      <trkpt lat="46.83466" lon="4.81745">
        <ele>239</ele>
        <time>2012-08-22T14:40:45Z</time>
      </trkpt>
      <trkpt lat="46.83474" lon="4.81765">
        <ele>239</ele>
        <time>2012-08-22T14:40:46Z</time>
      </trkpt>
      <trkpt lat="46.83481" lon="4.81785">
        <ele>238</ele>
        <time>2012-08-22T14:40:47Z</time>
      </trkpt>
      <trkpt lat="46.83487" lon="4.81804">
        <ele>239</ele>
        <time>2012-08-22T14:40:48Z</time>
      </trkpt>
      <trkpt lat="46.83493" lon="4.81824">
        <ele>239</ele>
        <time>2012-08-22T14:40:49Z</time>
      </trkpt>
      <trkpt lat="46.83499" lon="4.81845">
        <ele>238</ele>
        <time>2012-08-22T14:40:50Z</time>
      </trkpt>
      <trkpt lat="46.83505" lon="4.81866">
        <ele>238</ele>
        <time>2012-08-22T14:40:51Z</time>
      </trkpt>
      <trkpt lat="46.83511" lon="4.81888">
        <ele>237</ele>
        <time>2012-08-22T14:40:52Z</time>
      </trkpt>
      <trkpt lat="46.83517" lon="4.8191">
        <ele>236</ele>
        <time>2012-08-22T14:40:53Z</time>
      </trkpt>
      <trkpt lat="46.83522" lon="4.8193">
        <ele>237</ele>
        <time>2012-08-22T14:40:54Z</time>
      </trkpt>
      <trkpt lat="46.83527" lon="4.81948">
        <ele>237</ele>
        <time>2012-08-22T14:40:55Z</time>
      </trkpt>
      <trkpt lat="46.83531" lon="4.81964">
        <ele>236</ele>
        <time>2012-08-22T14:40:56Z</time>
      </trkpt>
      <trkpt lat="46.83534" lon="4.81979">
        <ele>237</ele>
        <time>2012-08-22T14:40:57Z</time>
      </trkpt>
      <trkpt lat="46.83537" lon="4.81991">
        <ele>237</ele>
        <time>2012-08-22T14:40:58Z</time>
      </trkpt>
      <trkpt lat="46.83538" lon="4.82001">
        <ele>237</ele>
        <time>2012-08-22T14:40:59Z</time>
      </trkpt>
      <trkpt lat="46.83539" lon="4.82009">
        <ele>237</ele>
        <time>2012-08-22T14:41:00Z</time>
      </trkpt>
      <trkpt lat="46.83539" lon="4.82018">
        <ele>236</ele>
        <time>2012-08-22T14:41:01Z</time>
      </trkpt>
      <trkpt lat="46.83537" lon="4.82028">
        <ele>236</ele>
        <time>2012-08-22T14:41:02Z</time>
      </trkpt>
      <trkpt lat="46.83532" lon="4.82038">
        <ele>235</ele>
        <time>2012-08-22T14:41:03Z</time>
      </trkpt>
      <trkpt lat="46.83525" lon="4.82049">
        <ele>235</ele>
        <time>2012-08-22T14:41:04Z</time>
      </trkpt>
      <trkpt lat="46.83515" lon="4.8206">
        <ele>235</ele>
        <time>2012-08-22T14:41:05Z</time>
      </trkpt>
      <trkpt lat="46.83504" lon="4.82072">
        <ele>236</ele>
        <time>2012-08-22T14:41:06Z</time>
      </trkpt>
      <trkpt lat="46.83491" lon="4.82084">
        <ele>237</ele>
        <time>2012-08-22T14:41:07Z</time>
      </trkpt>
      <trkpt lat="46.83477" lon="4.82098">
        <ele>239</ele>
        <time>2012-08-22T14:41:08Z</time>
      </trkpt>
      <trkpt lat="46.83462" lon="4.82114">
        <ele>238</ele>
        <time>2012-08-22T14:41:09Z</time>
      </trkpt>
      <trkpt lat="46.83445" lon="4.8213">
        <ele>238</ele>
        <time>2012-08-22T14:41:10Z</time>
      </trkpt>
      <trkpt lat="46.83427" lon="4.82147">
        <ele>238</ele>
        <time>2012-08-22T14:41:11Z</time>
      </trkpt>
      <trkpt lat="46.8341" lon="4.82165">
        <ele>237</ele>
        <time>2012-08-22T14:41:12Z</time>
      </trkpt>
      <trkpt lat="46.83391" lon="4.82182">
        <ele>236</ele>
        <time>2012-08-22T14:41:13Z</time>
      </trkpt>
      <trkpt lat="46.83374" lon="4.82198">
        <ele>235</ele>
        <time>2012-08-22T14:41:14Z</time>
      </trkpt>
      <trkpt lat="46.83356" lon="4.82215">
        <ele>235</ele>
        <time>2012-08-22T14:41:15Z</time>
      </trkpt>
      <trkpt lat="46.83337" lon="4.82232">
        <ele>235</ele>
        <time>2012-08-22T14:41:16Z</time>
      </trkpt>
      <trkpt lat="46.83319" lon="4.8225">
        <ele>236</ele>
        <time>2012-08-22T14:41:17Z</time>
      </trkpt>
      <trkpt lat="46.83301" lon="4.82267">
        <ele>235</ele>
        <time>2012-08-22T14:41:18Z</time>
      </trkpt>
      <trkpt lat="46.83283" lon="4.82284">
        <ele>235</ele>
        <time>2012-08-22T14:41:19Z</time>
      </trkpt>
      <trkpt lat="46.83265" lon="4.82302">
        <ele>235</ele>
        <time>2012-08-22T14:41:20Z</time>
      </trkpt>
      <trkpt lat="46.83246" lon="4.82319">
        <ele>235</ele>
        <time>2012-08-22T14:41:21Z</time>
      </trkpt>
      <trkpt lat="46.83228" lon="4.82337">
        <ele>234</ele>
        <time>2012-08-22T14:41:22Z</time>
      </trkpt>
      <trkpt lat="46.8321" lon="4.82354">
        <ele>234</ele>
        <time>2012-08-22T14:41:23Z</time>
      </trkpt>
      <trkpt lat="46.83192" lon="4.82372">
        <ele>234</ele>
        <time>2012-08-22T14:41:24Z</time>
      </trkpt>
      <trkpt lat="46.83174" lon="4.82389">
        <ele>234</ele>
        <time>2012-08-22T14:41:25Z</time>
      </trkpt>
      <trkpt lat="46.83158" lon="4.82404">
        <ele>234</ele>
        <time>2012-08-22T14:41:26Z</time>
      </trkpt>
      <trkpt lat="46.83143" lon="4.82418">
        <ele>233</ele>
        <time>2012-08-22T14:41:27Z</time>
      </trkpt>
      <trkpt lat="46.83128" lon="4.82432">
        <ele>233</ele>
        <time>2012-08-22T14:41:28Z</time>
      </trkpt>
      <trkpt lat="46.83114" lon="4.82445">
        <ele>234</ele>
        <time>2012-08-22T14:41:29Z</time>
      </trkpt>
      <trkpt lat="46.83102" lon="4.82457">
        <ele>234</ele>
        <time>2012-08-22T14:41:30Z</time>
      </trkpt>
      <trkpt lat="46.83089" lon="4.82468">
        <ele>234</ele>
        <time>2012-08-22T14:41:31Z</time>
      </trkpt>
      <trkpt lat="46.83078" lon="4.82478">
        <ele>234</ele>
        <time>2012-08-22T14:41:32Z</time>
      </trkpt>
      <trkpt lat="46.83068" lon="4.82488">
        <ele>234</ele>
        <time>2012-08-22T14:41:33Z</time>
      </trkpt>
      <trkpt lat="46.83058" lon="4.82496">
        <ele>235</ele>
        <time>2012-08-22T14:41:34Z</time>
      </trkpt>
      <trkpt lat="46.83049" lon="4.82503">
        <ele>236</ele>
        <time>2012-08-22T14:41:35Z</time>
      </trkpt>
      <trkpt lat="46.8304" lon="4.82509">
        <ele>236</ele>
        <time>2012-08-22T14:41:36Z</time>
      </trkpt>
      <trkpt lat="46.8303" lon="4.82511">
        <ele>236</ele>
        <time>2012-08-22T14:41:37Z</time>
      </trkpt>
      <trkpt lat="46.83022" lon="4.82512">
        <ele>236</ele>
        <time>2012-08-22T14:41:38Z</time>
      </trkpt>
      <trkpt lat="46.83014" lon="4.82514">
        <ele>238</ele>
        <time>2012-08-22T14:41:39Z</time>
      </trkpt>
      <trkpt lat="46.83008" lon="4.8252">
        <ele>238</ele>
        <time>2012-08-22T14:41:40Z</time>
      </trkpt>
      <trkpt lat="46.83003" lon="4.82528">
        <ele>238</ele>
        <time>2012-08-22T14:41:41Z</time>
      </trkpt>
      <trkpt lat="46.83" lon="4.82537">
        <ele>236</ele>
        <time>2012-08-22T14:41:42Z</time>
      </trkpt>
      <trkpt lat="46.82999" lon="4.82547">
        <ele>235</ele>
        <time>2012-08-22T14:41:43Z</time>
      </trkpt>
      <trkpt lat="46.83001" lon="4.82557">
        <ele>234</ele>
        <time>2012-08-22T14:41:44Z</time>
      </trkpt>
      <trkpt lat="46.83006" lon="4.82566">
        <ele>234</ele>
        <time>2012-08-22T14:41:45Z</time>
      </trkpt>
      <trkpt lat="46.83014" lon="4.82573">
        <ele>235</ele>
        <time>2012-08-22T14:41:46Z</time>
      </trkpt>
      <trkpt lat="46.83023" lon="4.8258">
        <ele>236</ele>
        <time>2012-08-22T14:41:47Z</time>
      </trkpt>
      <trkpt lat="46.83031" lon="4.82588">
        <ele>236</ele>
        <time>2012-08-22T14:41:48Z</time>
      </trkpt>
      <trkpt lat="46.83037" lon="4.82598">
        <ele>236</ele>
        <time>2012-08-22T14:41:49Z</time>
      </trkpt>
      <trkpt lat="46.83042" lon="4.82607">
        <ele>236</ele>
        <time>2012-08-22T14:41:50Z</time>
      </trkpt>
      <trkpt lat="46.83044" lon="4.8262">
        <ele>234</ele>
        <time>2012-08-22T14:41:51Z</time>
      </trkpt>
      <trkpt lat="46.83043" lon="4.82632">
        <ele>233</ele>
        <time>2012-08-22T14:41:52Z</time>
      </trkpt>
      <trkpt lat="46.83038" lon="4.82642">
        <ele>233</ele>
        <time>2012-08-22T14:41:53Z</time>
      </trkpt>
      <trkpt lat="46.83034" lon="4.82652">
        <ele>231</ele>
        <time>2012-08-22T14:41:54Z</time>
      </trkpt>
      <trkpt lat="46.8303" lon="4.82663">
        <ele>232</ele>
        <time>2012-08-22T14:41:55Z</time>
      </trkpt>
      <trkpt lat="46.83027" lon="4.82678">
        <ele>232</ele>
        <time>2012-08-22T14:41:56Z</time>
      </trkpt>
      <trkpt lat="46.83025" lon="4.82695">
        <ele>232</ele>
        <time>2012-08-22T14:41:57Z</time>
      </trkpt>
      <trkpt lat="46.83026" lon="4.82712">
        <ele>232</ele>
        <time>2012-08-22T14:41:58Z</time>
      </trkpt>
      <trkpt lat="46.83026" lon="4.8273">
        <ele>233</ele>
        <time>2012-08-22T14:41:59Z</time>
      </trkpt>
      <trkpt lat="46.83028" lon="4.82749">
        <ele>235</ele>
        <time>2012-08-22T14:42:00Z</time>
      </trkpt>
      <trkpt lat="46.8303" lon="4.82767">
        <ele>233</ele>
        <time>2012-08-22T14:42:01Z</time>
      </trkpt>
      <trkpt lat="46.83032" lon="4.82785">
        <ele>231</ele>
        <time>2012-08-22T14:42:02Z</time>
      </trkpt>
      <trkpt lat="46.83036" lon="4.82803">
        <ele>230</ele>
        <time>2012-08-22T14:42:03Z</time>
      </trkpt>
      <trkpt lat="46.8304" lon="4.82822">
        <ele>230</ele>
        <time>2012-08-22T14:42:04Z</time>
      </trkpt>
      <trkpt lat="46.83046" lon="4.82842">
        <ele>230</ele>
        <time>2012-08-22T14:42:05Z</time>
      </trkpt>
      <trkpt lat="46.83051" lon="4.82863">
        <ele>231</ele>
        <time>2012-08-22T14:42:06Z</time>
      </trkpt>
      <trkpt lat="46.83056" lon="4.82884">
        <ele>231</ele>
        <time>2012-08-22T14:42:07Z</time>
      </trkpt>
      <trkpt lat="46.83063" lon="4.82905">
        <ele>232</ele>
        <time>2012-08-22T14:42:08Z</time>
      </trkpt>
      <trkpt lat="46.83068" lon="4.82925">
        <ele>232</ele>
        <time>2012-08-22T14:42:09Z</time>
      </trkpt>
      <trkpt lat="46.83074" lon="4.82943">
        <ele>231</ele>
        <time>2012-08-22T14:42:10Z</time>
      </trkpt>
      <trkpt lat="46.83078" lon="4.82961">
        <ele>230</ele>
        <time>2012-08-22T14:42:11Z</time>
      </trkpt>
      <trkpt lat="46.83082" lon="4.82978">
        <ele>230</ele>
        <time>2012-08-22T14:42:12Z</time>
      </trkpt>
      <trkpt lat="46.83082" lon="4.82996">
        <ele>230</ele>
        <time>2012-08-22T14:42:13Z</time>
      </trkpt>
      <trkpt lat="46.83081" lon="4.83016">
        <ele>229</ele>
        <time>2012-08-22T14:42:14Z</time>
      </trkpt>
      <trkpt lat="46.83079" lon="4.83038">
        <ele>229</ele>
        <time>2012-08-22T14:42:15Z</time>
      </trkpt>
      <trkpt lat="46.83077" lon="4.83061">
        <ele>228</ele>
        <time>2012-08-22T14:42:16Z</time>
      </trkpt>
      <trkpt lat="46.83074" lon="4.83085">
        <ele>228</ele>
        <time>2012-08-22T14:42:17Z</time>
      </trkpt>
      <trkpt lat="46.83071" lon="4.83108">
        <ele>226</ele>
        <time>2012-08-22T14:42:18Z</time>
      </trkpt>
      <trkpt lat="46.83068" lon="4.83133">
        <ele>225</ele>
        <time>2012-08-22T14:42:19Z</time>
      </trkpt>
      <trkpt lat="46.83064" lon="4.83157">
        <ele>225</ele>
        <time>2012-08-22T14:42:20Z</time>
      </trkpt>
      <trkpt lat="46.83059" lon="4.8318">
        <ele>226</ele>
        <time>2012-08-22T14:42:21Z</time>
      </trkpt>
      <trkpt lat="46.83053" lon="4.83203">
        <ele>227</ele>
        <time>2012-08-22T14:42:22Z</time>
      </trkpt>
      <trkpt lat="46.83047" lon="4.83227">
        <ele>222</ele>
        <time>2012-08-22T14:42:23Z</time>
      </trkpt>
      <trkpt lat="46.83041" lon="4.83249">
        <ele>225</ele>
        <time>2012-08-22T14:42:24Z</time>
      </trkpt>
      <trkpt lat="46.83035" lon="4.83271">
        <ele>224</ele>
        <time>2012-08-22T14:42:25Z</time>
      </trkpt>
      <trkpt lat="46.8303" lon="4.83292">
        <ele>226</ele>
        <time>2012-08-22T14:42:26Z</time>
      </trkpt>
      <trkpt lat="46.83026" lon="4.83315">
        <ele>226</ele>
        <time>2012-08-22T14:42:27Z</time>
      </trkpt>
      <trkpt lat="46.83023" lon="4.8334">
        <ele>227</ele>
        <time>2012-08-22T14:42:28Z</time>
      </trkpt>
      <trkpt lat="46.83021" lon="4.83365">
        <ele>228</ele>
        <time>2012-08-22T14:42:29Z</time>
      </trkpt>
      <trkpt lat="46.8302" lon="4.8339">
        <ele>230</ele>
        <time>2012-08-22T14:42:30Z</time>
      </trkpt>
      <trkpt lat="46.83019" lon="4.83415">
        <ele>231</ele>
        <time>2012-08-22T14:42:31Z</time>
      </trkpt>
      <trkpt lat="46.8302" lon="4.83441">
        <ele>233</ele>
        <time>2012-08-22T14:42:32Z</time>
      </trkpt>
      <trkpt lat="46.83021" lon="4.83467">
        <ele>232</ele>
        <time>2012-08-22T14:42:33Z</time>
      </trkpt>
      <trkpt lat="46.83024" lon="4.83492">
        <ele>231</ele>
        <time>2012-08-22T14:42:34Z</time>
      </trkpt>
      <trkpt lat="46.83028" lon="4.83517">
        <ele>233</ele>
        <time>2012-08-22T14:42:35Z</time>
      </trkpt>
      <trkpt lat="46.8303" lon="4.8354">
        <ele>233</ele>
        <time>2012-08-22T14:42:36Z</time>
      </trkpt>
      <trkpt lat="46.83032" lon="4.83564">
        <ele>233</ele>
        <time>2012-08-22T14:42:37Z</time>
      </trkpt>
      <trkpt lat="46.83034" lon="4.83583">
        <ele>233</ele>
        <time>2012-08-22T14:42:38Z</time>
      </trkpt>
      <trkpt lat="46.83035" lon="4.83601">
        <ele>234</ele>
        <time>2012-08-22T14:42:39Z</time>
      </trkpt>
      <trkpt lat="46.83035" lon="4.83615">
        <ele>186</ele>
      </trkpt>
      <trkpt lat="46.83036" lon="4.83641">
        <ele>186</ele>
      </trkpt>
      <trkpt lat="46.83079" lon="4.8365">
        <ele>184.8398438</ele>
      </trkpt>
      <trkpt lat="46.83156" lon="4.83651">
        <ele>181.671875</ele>
      </trkpt>
      <trkpt lat="46.83185" lon="4.83671">
        <ele>180.6054688</ele>
      </trkpt>
      <trkpt lat="46.83233" lon="4.83794">
        <ele>180</ele>
      </trkpt>
      <trkpt lat="46.83248" lon="4.83798">
        <ele>180</ele>
      </trkpt>
      <trkpt lat="46.83326" lon="4.83811">
        <ele>182.3398438</ele>
      </trkpt>
      <trkpt lat="46.8342" lon="4.83862">
        <ele>185.84375</ele>
      </trkpt>
      <trkpt lat="46.83522" lon="4.8393">
        <ele>186</ele>
      </trkpt>
      <trkpt lat="46.83542" lon="4.83945">
        <ele>186</ele>
      </trkpt>
      <trkpt lat="46.83503" lon="4.84067">
        <ele>186</ele>
      </trkpt>
      <trkpt lat="46.83461" lon="4.84205">
        <ele>186</ele>
      </trkpt>
      <trkpt lat="46.83429" lon="4.84315">
        <ele>186</ele>
      </trkpt>
      <trkpt lat="46.8343" lon="4.84315">
        <ele>186</ele>
      </trkpt>
      <trkpt lat="46.83425" lon="4.84361">
        <ele>186</ele>
      </trkpt>
      <trkpt lat="46.83414" lon="4.84467">
        <ele>186</ele>
      </trkpt>
      <trkpt lat="46.8342" lon="4.8457">
        <ele>183.875</ele>
      </trkpt>
      <trkpt lat="46.83433" lon="4.84589">
        <ele>183.1210938</ele>
      </trkpt>
      <trkpt lat="46.83463" lon="4.84588">
        <ele>183</ele>
      </trkpt>
      <trkpt lat="46.83531" lon="4.84583">
        <ele>184</ele>
      </trkpt>
    </trkseg>
  </trk>
</gpx>